<?xml version='1.0' encoding='UTF-8'?><gpx version="1.1" creator="JPX - https://github.com/jenetics/jpx" xmlns="http://www.topografix.com/GPX/1/1"><trk><trkseg><trkpt lat="42.19114765913304" lon="14.220603723821721"><ele>568.0</ele><time>2026-05-01T13:13:29Z</time></trkpt><trkpt lat="42.19121454128241" lon="14.22060373674903"><ele>568.0</ele><time>2026-05-01T13:13:38Z</time></trkpt><trkpt lat="42.19104501926307" lon="14.220627041244756"><ele>568.0</ele><time>2026-05-01T13:17:23Z</time></trkpt><trkpt lat="42.190970945137074" lon="14.220637865771527"><ele>568.0</ele><time>2026-05-01T13:17:24Z</time></trkpt><trkpt lat="42.19089872086278" lon="14.220637832442389"><ele>568.0</ele><time>2026-05-01T13:17:25Z</time></trkpt><trkpt lat="42.19083367712859" lon="14.220634779782108"><ele>568.0</ele><time>2026-05-01T13:17:26Z</time></trkpt><trkpt lat="42.19074441227941" lon="14.220620080018438"><ele>568.6</ele><time>2026-05-01T13:17:28Z</time></trkpt><trkpt lat="42.19062903055088" lon="14.220596824691702"><ele>569.1999999999999</ele><time>2026-05-01T13:17:31Z</time></trkpt><trkpt lat="42.190563862226895" lon="14.220593569909225"><ele>569.8</ele><time>2026-05-01T13:17:32Z</time></trkpt><trkpt lat="42.19050086249323" lon="14.220570305505348"><ele>570.4</ele><time>2026-05-01T13:17:33Z</time></trkpt><trkpt lat="42.190410080244774" lon="14.220511880607772"><ele>571.0</ele><time>2026-05-01T13:17:35Z</time></trkpt><trkpt lat="42.19031144541726" lon="14.220475281943408"><ele>571.0</ele><time>2026-05-01T13:17:38Z</time></trkpt><trkpt lat="42.19026843749344" lon="14.220413041066918"><ele>571.0</ele><time>2026-05-01T13:17:40Z</time></trkpt><trkpt lat="42.19018199279856" lon="14.220361829581597"><ele>571.0</ele><time>2026-05-01T13:17:44Z</time></trkpt><trkpt lat="42.190108340707646" lon="14.220343360280115"><ele>571.0</ele><time>2026-05-01T13:17:46Z</time></trkpt><trkpt lat="42.19011009825168" lon="14.220247916661455"><ele>571.0</ele><time>2026-05-01T13:17:48Z</time></trkpt><trkpt lat="42.19008830263491" lon="14.220157548368759"><ele>571.0</ele><time>2026-05-01T13:17:49Z</time></trkpt><trkpt lat="42.19003712683526" lon="14.22006601211507"><ele>571.0</ele><time>2026-05-01T13:17:51Z</time></trkpt><trkpt lat="42.18996262663157" lon="14.220044554891773"><ele>571.0</ele><time>2026-05-01T13:17:53Z</time></trkpt><trkpt lat="42.18988885441815" lon="14.220060658657417"><ele>571.0</ele><time>2026-05-01T13:17:55Z</time></trkpt><trkpt lat="42.18982572321722" lon="14.22005249941996"><ele>571.0</ele><time>2026-05-01T13:17:57Z</time></trkpt><trkpt lat="42.18980901776161" lon="14.219958041941457"><ele>571.0</ele><time>2026-05-01T13:18:00Z</time></trkpt><trkpt lat="42.18988684373735" lon="14.219922191029356"><ele>571.0</ele><time>2026-05-01T13:18:02Z</time></trkpt><trkpt lat="42.1899704949139" lon="14.219940869094085"><ele>571.0</ele><time>2026-05-01T13:18:04Z</time></trkpt><trkpt lat="42.1900939417798" lon="14.219911736836785"><ele>571.0</ele><time>2026-05-01T13:18:06Z</time></trkpt><trkpt lat="42.190164143763305" lon="14.219878070136744"><ele>571.0</ele><time>2026-05-01T13:18:07Z</time></trkpt><trkpt lat="42.19024122416517" lon="14.219836037827019"><ele>571.0</ele><time>2026-05-01T13:18:08Z</time></trkpt><trkpt lat="42.19032948755084" lon="14.219790650366038"><ele>571.0</ele><time>2026-05-01T13:18:09Z</time></trkpt><trkpt lat="42.19041529110015" lon="14.21975594147301"><ele>568.4</ele><time>2026-05-01T13:18:10Z</time></trkpt><trkpt lat="42.190503000936666" lon="14.21972972442228"><ele>565.8</ele><time>2026-05-01T13:18:11Z</time></trkpt><trkpt lat="42.19059809258439" lon="14.219717658652252"><ele>563.1999999999999</ele><time>2026-05-01T13:18:12Z</time></trkpt><trkpt lat="42.190692637815" lon="14.219724019531597"><ele>560.6</ele><time>2026-05-01T13:18:13Z</time></trkpt><trkpt lat="42.19077744096349" lon="14.219728728912402"><ele>558.0</ele><time>2026-05-01T13:18:14Z</time></trkpt><trkpt lat="42.1908640216742" lon="14.219741222097083"><ele>557.1666666666666</ele><time>2026-05-01T13:18:15Z</time></trkpt><trkpt lat="42.19094351445764" lon="14.219738581765005"><ele>556.3333333333334</ele><time>2026-05-01T13:18:16Z</time></trkpt><trkpt lat="42.19102774478213" lon="14.219740892204562"><ele>555.5</ele><time>2026-05-01T13:18:17Z</time></trkpt><trkpt lat="42.191115165208856" lon="14.21974183933859"><ele>554.6666666666667</ele><time>2026-05-01T13:18:18Z</time></trkpt><trkpt lat="42.19120351242843" lon="14.219745046957819"><ele>553.8333333333334</ele><time>2026-05-01T13:18:19Z</time></trkpt><trkpt lat="42.191289540532004" lon="14.21974096544815"><ele>553.0</ele><time>2026-05-01T13:18:20Z</time></trkpt><trkpt lat="42.19137220602191" lon="14.219742792785649"><ele>553.0</ele><time>2026-05-01T13:18:21Z</time></trkpt><trkpt lat="42.191463882333586" lon="14.219751435308062"><ele>553.0</ele><time>2026-05-01T13:18:22Z</time></trkpt><trkpt lat="42.19156908736836" lon="14.219761246970476"><ele>553.0</ele><time>2026-05-01T13:18:23Z</time></trkpt><trkpt lat="42.19168294054129" lon="14.219767495051185"><ele>553.0</ele><time>2026-05-01T13:18:24Z</time></trkpt><trkpt lat="42.19179401767788" lon="14.219778174931417"><ele>553.0</ele><time>2026-05-01T13:18:25Z</time></trkpt><trkpt lat="42.19189107767139" lon="14.21978331485305"><ele>552.1999999999999</ele><time>2026-05-01T13:18:26Z</time></trkpt><trkpt lat="42.1919874497229" lon="14.219790957971105"><ele>551.4</ele><time>2026-05-01T13:18:27Z</time></trkpt><trkpt lat="42.192087727892336" lon="14.219797956794526"><ele>550.5999999999999</ele><time>2026-05-01T13:18:28Z</time></trkpt><trkpt lat="42.192187580615084" lon="14.219808496103028"><ele>549.8</ele><time>2026-05-01T13:18:29Z</time></trkpt><trkpt lat="42.19228672767891" lon="14.219830407065624"><ele>549.0</ele><time>2026-05-01T13:18:30Z</time></trkpt><trkpt lat="42.19238510620118" lon="14.219862155448675"><ele>551.2</ele><time>2026-05-01T13:18:31Z</time></trkpt><trkpt lat="42.19248419077049" lon="14.219899707778154"><ele>553.4</ele><time>2026-05-01T13:18:32Z</time></trkpt><trkpt lat="42.19257813024425" lon="14.219940874713657"><ele>555.6</ele><time>2026-05-01T13:18:33Z</time></trkpt><trkpt lat="42.192665579104045" lon="14.2199834456822"><ele>557.8</ele><time>2026-05-01T13:18:34Z</time></trkpt><trkpt lat="42.19274517155462" lon="14.22003487821806"><ele>560.0</ele><time>2026-05-01T13:18:35Z</time></trkpt><trkpt lat="42.19281394656478" lon="14.220093382023379"><ele>560.0</ele><time>2026-05-01T13:18:36Z</time></trkpt><trkpt lat="42.19286919893292" lon="14.220143149709143"><ele>560.0</ele><time>2026-05-01T13:18:37Z</time></trkpt><trkpt lat="42.19295004112418" lon="14.22022468936459"><ele>560.0</ele><time>2026-05-01T13:18:39Z</time></trkpt><trkpt lat="42.193014971157474" lon="14.220273922550936"><ele>560.0</ele><time>2026-05-01T13:18:42Z</time></trkpt><trkpt lat="42.19306898576517" lon="14.22032445107583"><ele>560.0</ele><time>2026-05-01T13:20:24Z</time></trkpt><trkpt lat="42.19315378283775" lon="14.220261389677445"><ele>560.0</ele><time>2026-05-01T13:20:32Z</time></trkpt><trkpt lat="42.193225650439906" lon="14.220271505279928"><ele>558.0</ele><time>2026-05-01T13:21:16.999Z</time></trkpt><trkpt lat="42.1931856487137" lon="14.220411537925026"><ele>556.0</ele><time>2026-05-01T13:23:45Z</time></trkpt><trkpt lat="42.19326524590999" lon="14.220462321823373"><ele>554.0</ele><time>2026-05-01T13:26:02.001Z</time></trkpt><trkpt lat="42.193386970491865" lon="14.220498124145093"><ele>552.0</ele><time>2026-05-01T13:26:10.001Z</time></trkpt><trkpt lat="42.19345077051921" lon="14.220528867489625"><ele>550.0</ele><time>2026-05-01T13:26:11.001Z</time></trkpt><trkpt lat="42.19352491073677" lon="14.220560731111497"><ele>550.0</ele><time>2026-05-01T13:26:12.001Z</time></trkpt><trkpt lat="42.193611112028215" lon="14.220595653558965"><ele>550.0</ele><time>2026-05-01T13:26:13.001Z</time></trkpt><trkpt lat="42.193691970106194" lon="14.22062668160944"><ele>550.0</ele><time>2026-05-01T13:26:14.001Z</time></trkpt><trkpt lat="42.193761629561784" lon="14.220637507888114"><ele>550.0</ele><time>2026-05-01T13:26:15.001Z</time></trkpt><trkpt lat="42.193824858297845" lon="14.22061838397985"><ele>550.0</ele><time>2026-05-01T13:26:16.001Z</time></trkpt><trkpt lat="42.19388277386118" lon="14.220480640366064"><ele>550.0</ele><time>2026-05-01T13:26:18.001Z</time></trkpt><trkpt lat="42.19383080689112" lon="14.22038325451915"><ele>550.0</ele><time>2026-05-01T13:26:19.001Z</time></trkpt><trkpt lat="42.19375515193446" lon="14.220317905880313"><ele>550.0</ele><time>2026-05-01T13:26:20.001Z</time></trkpt><trkpt lat="42.19366341574239" lon="14.22027788957763"><ele>550.0</ele><time>2026-05-01T13:26:21.001Z</time></trkpt><trkpt lat="42.19356844394928" lon="14.220230975408613"><ele>550.0</ele><time>2026-05-01T13:26:22.001Z</time></trkpt><trkpt lat="42.19348552221827" lon="14.220160923371369"><ele>550.0</ele><time>2026-05-01T13:26:23.001Z</time></trkpt><trkpt lat="42.19340480949124" lon="14.220138112190405"><ele>550.0</ele><time>2026-05-01T13:26:24.001Z</time></trkpt><trkpt lat="42.19334807389751" lon="14.220100140806588"><ele>550.0</ele><time>2026-05-01T13:26:25.001Z</time></trkpt><trkpt lat="42.19328507186859" lon="14.220055929345614"><ele>550.0</ele><time>2026-05-01T13:26:27.001Z</time></trkpt><trkpt lat="42.19322108591198" lon="14.22000842677944"><ele>550.0</ele><time>2026-05-01T13:26:31.001Z</time></trkpt><trkpt lat="42.19316949446833" lon="14.219956841786695"><ele>550.0</ele><time>2026-05-01T13:26:35.001Z</time></trkpt><trkpt lat="42.193106032283296" lon="14.219938513207492"><ele>550.0</ele><time>2026-05-01T13:27:01.001Z</time></trkpt><trkpt lat="42.193177070909016" lon="14.219983919136963"><ele>550.0</ele><time>2026-05-01T13:27:06.001Z</time></trkpt><trkpt lat="42.19325331392283" lon="14.220001315159491"><ele>550.0</ele><time>2026-05-01T13:27:09.001Z</time></trkpt><trkpt lat="42.19333690588973" lon="14.220015792064528"><ele>550.0</ele><time>2026-05-01T13:27:12.001Z</time></trkpt><trkpt lat="42.19345038506436" lon="14.220059797820614"><ele>550.0</ele><time>2026-05-01T13:27:14.001Z</time></trkpt><trkpt lat="42.19350806184812" lon="14.220097138451575"><ele>550.0</ele><time>2026-05-01T13:27:15.001Z</time></trkpt><trkpt lat="42.193614151550506" lon="14.220162943845951"><ele>550.0</ele><time>2026-05-01T13:27:17.001Z</time></trkpt><trkpt lat="42.19372928216709" lon="14.220224264714611"><ele>550.0</ele><time>2026-05-01T13:27:19.001Z</time></trkpt><trkpt lat="42.19378894576393" lon="14.220253858088022"><ele>550.0</ele><time>2026-05-01T13:27:20.001Z</time></trkpt><trkpt lat="42.19388240650812" lon="14.220323935171985"><ele>550.0</ele><time>2026-05-01T13:27:22.001Z</time></trkpt><trkpt lat="42.19392657358452" lon="14.220390448000748"><ele>550.0</ele><time>2026-05-01T13:27:23.001Z</time></trkpt><trkpt lat="42.19395844642298" lon="14.220476782930136"><ele>550.0</ele><time>2026-05-01T13:27:24.001Z</time></trkpt><trkpt lat="42.1939901933183" lon="14.220575979484845"><ele>550.0</ele><time>2026-05-01T13:27:25.001Z</time></trkpt><trkpt lat="42.194016698988236" lon="14.220676193168126"><ele>546.8</ele><time>2026-05-01T13:27:26.001Z</time></trkpt><trkpt lat="42.1940341019702" lon="14.22078144271469"><ele>543.6</ele><time>2026-05-01T13:27:27.001Z</time></trkpt><trkpt lat="42.19404037529732" lon="14.22089107002417"><ele>540.4</ele><time>2026-05-01T13:27:28.001Z</time></trkpt><trkpt lat="42.19403887487798" lon="14.221010305405166"><ele>537.2</ele><time>2026-05-01T13:27:29.001Z</time></trkpt><trkpt lat="42.194030840002654" lon="14.221141228756935"><ele>534.0</ele><time>2026-05-01T13:27:30.001Z</time></trkpt><trkpt lat="42.1940287528283" lon="14.221290324571832"><ele>534.0</ele><time>2026-05-01T13:27:31.001Z</time></trkpt><trkpt lat="42.19402415388718" lon="14.221455974629427"><ele>534.0</ele><time>2026-05-01T13:27:32.001Z</time></trkpt><trkpt lat="42.19401789917609" lon="14.221629283246532"><ele>534.0</ele><time>2026-05-01T13:27:33.001Z</time></trkpt><trkpt lat="42.19401238377648" lon="14.221812888602305"><ele>534.0</ele><time>2026-05-01T13:27:34.001Z</time></trkpt><trkpt lat="42.194006240065036" lon="14.222002765552418"><ele>536.75</ele><time>2026-05-01T13:27:35.001Z</time></trkpt><trkpt lat="42.19400206130805" lon="14.222187420902088"><ele>539.5</ele><time>2026-05-01T13:27:36.001Z</time></trkpt><trkpt lat="42.19400210748603" lon="14.222363115055886"><ele>542.25</ele><time>2026-05-01T13:27:37.001Z</time></trkpt><trkpt lat="42.19400416896083" lon="14.222531577102854"><ele>545.0</ele><time>2026-05-01T13:27:38.001Z</time></trkpt><trkpt lat="42.19400856618141" lon="14.22270102453455"><ele>539.25</ele><time>2026-05-01T13:27:39.001Z</time></trkpt><trkpt lat="42.19402378192974" lon="14.222874904554978"><ele>533.5</ele><time>2026-05-01T13:27:40.001Z</time></trkpt><trkpt lat="42.19404536321629" lon="14.223040163883486"><ele>527.75</ele><time>2026-05-01T13:27:41.001Z</time></trkpt><trkpt lat="42.194064084455654" lon="14.223200742062875"><ele>522.0</ele><time>2026-05-01T13:27:42.001Z</time></trkpt><trkpt lat="42.19408324217593" lon="14.223363023314235"><ele>520.8000000000001</ele><time>2026-05-01T13:27:43.001Z</time></trkpt><trkpt lat="42.19409750123785" lon="14.223515718276545"><ele>519.6</ele><time>2026-05-01T13:27:44.001Z</time></trkpt><trkpt lat="42.194108065183066" lon="14.22364728402516"><ele>518.4000000000001</ele><time>2026-05-01T13:27:45.001Z</time></trkpt><trkpt lat="42.19411953719952" lon="14.22375360240922"><ele>517.2</ele><time>2026-05-01T13:27:46.001Z</time></trkpt><trkpt lat="42.1941385424862" lon="14.223841648811302"><ele>516.0</ele><time>2026-05-01T13:27:47.001Z</time></trkpt><trkpt lat="42.19422052996183" lon="14.223935318682807"><ele>516.0</ele><time>2026-05-01T13:27:49.001Z</time></trkpt><trkpt lat="42.194308416492674" lon="14.223941025694634"><ele>516.0</ele><time>2026-05-01T13:27:51.001Z</time></trkpt><trkpt lat="42.1944061173362" lon="14.223871931387896"><ele>516.0</ele><time>2026-05-01T13:27:52.001Z</time></trkpt><trkpt lat="42.19449738401526" lon="14.223699106108686"><ele>516.0</ele><time>2026-05-01T13:27:53.001Z</time></trkpt><trkpt lat="42.19459535370091" lon="14.223617423536503"><ele>516.0</ele><time>2026-05-01T13:27:54.001Z</time></trkpt><trkpt lat="42.194687310716105" lon="14.223537286877749"><ele>516.0</ele><time>2026-05-01T13:27:55.001Z</time></trkpt><trkpt lat="42.1947746386271" lon="14.223460945950297"><ele>516.0</ele><time>2026-05-01T13:27:56.001Z</time></trkpt><trkpt lat="42.19486534564476" lon="14.223406850745429"><ele>516.0</ele><time>2026-05-01T13:27:57.001Z</time></trkpt><trkpt lat="42.19494556784474" lon="14.223339384357287"><ele>516.0</ele><time>2026-05-01T13:27:58.001Z</time></trkpt><trkpt lat="42.19502379816306" lon="14.223273593138806"><ele>514.8</ele><time>2026-05-01T13:27:59.001Z</time></trkpt><trkpt lat="42.19509886312935" lon="14.223205869566424"><ele>513.6</ele><time>2026-05-01T13:28:00.001Z</time></trkpt><trkpt lat="42.19517558352632" lon="14.22312576619929"><ele>512.4</ele><time>2026-05-01T13:28:01.001Z</time></trkpt><trkpt lat="42.19525100981971" lon="14.223033876024791"><ele>511.2</ele><time>2026-05-01T13:28:02.001Z</time></trkpt><trkpt lat="42.195322377370076" lon="14.222935317195692"><ele>510.0</ele><time>2026-05-01T13:28:03.001Z</time></trkpt><trkpt lat="42.195392819853986" lon="14.222836962085518"><ele>510.0</ele><time>2026-05-01T13:28:04.001Z</time></trkpt><trkpt lat="42.19546995122792" lon="14.22272819004085"><ele>510.0</ele><time>2026-05-01T13:28:05.001Z</time></trkpt><trkpt lat="42.1955444482892" lon="14.222614131195856"><ele>510.0</ele><time>2026-05-01T13:28:06.001Z</time></trkpt><trkpt lat="42.19561128125606" lon="14.222495958705085"><ele>510.0</ele><time>2026-05-01T13:28:07.001Z</time></trkpt><trkpt lat="42.19565477444192" lon="14.222364033240387"><ele>510.0</ele><time>2026-05-01T13:28:08.001Z</time></trkpt><trkpt lat="42.195691543493524" lon="14.222236271710718"><ele>508.6</ele><time>2026-05-01T13:28:09.001Z</time></trkpt><trkpt lat="42.195722182507396" lon="14.222106582718315"><ele>507.2</ele><time>2026-05-01T13:28:10.001Z</time></trkpt><trkpt lat="42.19575128775179" lon="14.221978604174613"><ele>505.79999999999995</ele><time>2026-05-01T13:28:11.001Z</time></trkpt><trkpt lat="42.19577884237576" lon="14.221842230416145"><ele>504.4</ele><time>2026-05-01T13:28:12.001Z</time></trkpt><trkpt lat="42.195798989213785" lon="14.221702045119232"><ele>503.0</ele><time>2026-05-01T13:28:13.001Z</time></trkpt><trkpt lat="42.1958112398569" lon="14.221558840030129"><ele>503.5</ele><time>2026-05-01T13:28:14.001Z</time></trkpt><trkpt lat="42.19581241900701" lon="14.221406501014158"><ele>504.0</ele><time>2026-05-01T13:28:15.001Z</time></trkpt><trkpt lat="42.19580777633183" lon="14.221253726919464"><ele>504.5</ele><time>2026-05-01T13:28:16.001Z</time></trkpt><trkpt lat="42.19580300410213" lon="14.221096689671935"><ele>505.0</ele><time>2026-05-01T13:28:17.001Z</time></trkpt><trkpt lat="42.195798493322066" lon="14.220935209357537"><ele>505.0</ele><time>2026-05-01T13:28:18.001Z</time></trkpt><trkpt lat="42.19579545265696" lon="14.220770964605771"><ele>505.0</ele><time>2026-05-01T13:28:19.001Z</time></trkpt><trkpt lat="42.195794601992205" lon="14.220606615979568"><ele>505.0</ele><time>2026-05-01T13:28:20.001Z</time></trkpt><trkpt lat="42.19578911392394" lon="14.220448446974556"><ele>505.0</ele><time>2026-05-01T13:28:21.001Z</time></trkpt><trkpt lat="42.19583406878272" lon="14.22030350223381"><ele>505.4</ele><time>2026-05-01T13:28:22.001Z</time></trkpt><trkpt lat="42.19587471282758" lon="14.220159713560314"><ele>505.8</ele><time>2026-05-01T13:28:23.001Z</time></trkpt><trkpt lat="42.19592682568214" lon="14.220018090237474"><ele>506.20000000000005</ele><time>2026-05-01T13:28:24.001Z</time></trkpt><trkpt lat="42.19597651247287" lon="14.219887113894188"><ele>506.6</ele><time>2026-05-01T13:28:25.001Z</time></trkpt><trkpt lat="42.19603104305976" lon="14.219769808164973"><ele>507.0</ele><time>2026-05-01T13:28:26.001Z</time></trkpt><trkpt lat="42.19610605239603" lon="14.21967187911669"><ele>507.20000000000005</ele><time>2026-05-01T13:28:27.001Z</time></trkpt><trkpt lat="42.196196039549804" lon="14.219582798959685"><ele>507.40000000000003</ele><time>2026-05-01T13:28:28.001Z</time></trkpt><trkpt lat="42.19627230023967" lon="14.219483764235155"><ele>507.59999999999997</ele><time>2026-05-01T13:28:29.001Z</time></trkpt><trkpt lat="42.19635362377411" lon="14.219416328428377"><ele>507.79999999999995</ele><time>2026-05-01T13:28:30.001Z</time></trkpt><trkpt lat="42.196419547640936" lon="14.219353806225204"><ele>508.0</ele><time>2026-05-01T13:28:31.001Z</time></trkpt><trkpt lat="42.196484695096025" lon="14.219292446124937"><ele>507.00000000000006</ele><time>2026-05-01T13:28:32.001Z</time></trkpt><trkpt lat="42.19654403438598" lon="14.21924724555864"><ele>506.0</ele><time>2026-05-01T13:28:33.001Z</time></trkpt><trkpt lat="42.196642756339685" lon="14.219187089536499"><ele>505.0</ele><time>2026-05-01T13:28:35.001Z</time></trkpt><trkpt lat="42.19674230181295" lon="14.219243793952618"><ele>504.0</ele><time>2026-05-01T13:28:36.001Z</time></trkpt><trkpt lat="42.19681881330936" lon="14.219229579328928"><ele>503.00000000000006</ele><time>2026-05-01T13:28:37.001Z</time></trkpt><trkpt lat="42.1968796049513" lon="14.219200648985165"><ele>502.0</ele><time>2026-05-01T13:28:38.001Z</time></trkpt><trkpt lat="42.1969326887066" lon="14.219093780867091"><ele>502.0</ele><time>2026-05-01T13:28:39.001Z</time></trkpt><trkpt lat="42.19700876638979" lon="14.219067035186352"><ele>502.00000000000006</ele><time>2026-05-01T13:28:40.001Z</time></trkpt><trkpt lat="42.19710748334898" lon="14.219085247127369"><ele>502.00000000000006</ele><time>2026-05-01T13:28:41.001Z</time></trkpt><trkpt lat="42.19721089431172" lon="14.219084664531154"><ele>502.0</ele><time>2026-05-01T13:28:42.001Z</time></trkpt><trkpt lat="42.19731227195692" lon="14.219074006545645"><ele>502.0</ele><time>2026-05-01T13:28:43.001Z</time></trkpt><trkpt lat="42.19740627133508" lon="14.219079016205487"><ele>501.40000000000003</ele><time>2026-05-01T13:28:44.001Z</time></trkpt><trkpt lat="42.19749276805025" lon="14.219039522400108"><ele>500.80000000000007</ele><time>2026-05-01T13:28:45.001Z</time></trkpt><trkpt lat="42.19758806481027" lon="14.219025895959623"><ele>500.2</ele><time>2026-05-01T13:28:46.001Z</time></trkpt><trkpt lat="42.19769499767521" lon="14.21900279016132"><ele>499.6</ele><time>2026-05-01T13:28:47.001Z</time></trkpt><trkpt lat="42.19781280506713" lon="14.218970743111928"><ele>499.0</ele><time>2026-05-01T13:28:48.001Z</time></trkpt><trkpt lat="42.1979293859364" lon="14.218950392337337"><ele>498.0</ele><time>2026-05-01T13:28:49.001Z</time></trkpt><trkpt lat="42.19805516748885" lon="14.218921404160506"><ele>497.0</ele><time>2026-05-01T13:28:50.001Z</time></trkpt><trkpt lat="42.198179314888556" lon="14.21889939919691"><ele>496.0</ele><time>2026-05-01T13:28:51.001Z</time></trkpt><trkpt lat="42.1982940268343" lon="14.218858261309963"><ele>495.0</ele><time>2026-05-01T13:28:52.001Z</time></trkpt><trkpt lat="42.19840255035934" lon="14.218823696019289"><ele>494.25</ele><time>2026-05-01T13:28:53.001Z</time></trkpt><trkpt lat="42.198509155293024" lon="14.218782270436689"><ele>493.5</ele><time>2026-05-01T13:28:54.001Z</time></trkpt><trkpt lat="42.19862448691218" lon="14.218734745858018"><ele>492.75</ele><time>2026-05-01T13:28:55.001Z</time></trkpt><trkpt lat="42.19874041375767" lon="14.218680780317518"><ele>492.0</ele><time>2026-05-01T13:28:56.001Z</time></trkpt><trkpt lat="42.19885656610194" lon="14.21863746177263"><ele>492.0</ele><time>2026-05-01T13:28:57.001Z</time></trkpt><trkpt lat="42.198963938333115" lon="14.218589681389169"><ele>492.0</ele><time>2026-05-01T13:28:58.001Z</time></trkpt><trkpt lat="42.19907312096799" lon="14.21854135734036"><ele>492.0</ele><time>2026-05-01T13:28:59.001Z</time></trkpt><trkpt lat="42.199192446838325" lon="14.218489687059733"><ele>492.0</ele><time>2026-05-01T13:29:00.001Z</time></trkpt><trkpt lat="42.19931041251791" lon="14.218444523005479"><ele>490.75</ele><time>2026-05-01T13:29:01.001Z</time></trkpt><trkpt lat="42.19942731681733" lon="14.21839345226111"><ele>489.5</ele><time>2026-05-01T13:29:02.001Z</time></trkpt><trkpt lat="42.19954099976098" lon="14.218346698741371"><ele>488.25</ele><time>2026-05-01T13:29:03.001Z</time></trkpt><trkpt lat="42.19966041669344" lon="14.218299831333402"><ele>487.0</ele><time>2026-05-01T13:29:04.001Z</time></trkpt><trkpt lat="42.19978617285058" lon="14.218260817923968"><ele>485.75</ele><time>2026-05-01T13:29:05.001Z</time></trkpt><trkpt lat="42.19990891389433" lon="14.218232186699291"><ele>484.5</ele><time>2026-05-01T13:29:06.001Z</time></trkpt><trkpt lat="42.20002732084063" lon="14.21821279468148"><ele>483.25</ele><time>2026-05-01T13:29:07.001Z</time></trkpt><trkpt lat="42.20014499321475" lon="14.218207819583476"><ele>482.0</ele><time>2026-05-01T13:29:08.001Z</time></trkpt><trkpt lat="42.200254705878514" lon="14.218213962378943"><ele>482.0</ele><time>2026-05-01T13:29:09.001Z</time></trkpt><trkpt lat="42.20035918396407" lon="14.218219037852531"><ele>482.00000000000006</ele><time>2026-05-01T13:29:10.001Z</time></trkpt><trkpt lat="42.20046712738629" lon="14.218224671603677"><ele>482.00000000000006</ele><time>2026-05-01T13:29:11.001Z</time></trkpt><trkpt lat="42.20057912617568" lon="14.218232521083593"><ele>482.0</ele><time>2026-05-01T13:29:12.001Z</time></trkpt><trkpt lat="42.200694565663866" lon="14.218246389019829"><ele>482.0</ele><time>2026-05-01T13:29:13.001Z</time></trkpt><trkpt lat="42.200802220118355" lon="14.218265206192726"><ele>481.0</ele><time>2026-05-01T13:29:14.001Z</time></trkpt><trkpt lat="42.200906432089845" lon="14.218289637820813"><ele>480.0</ele><time>2026-05-01T13:29:15.001Z</time></trkpt><trkpt lat="42.20101396855572" lon="14.218324098637467"><ele>479.0</ele><time>2026-05-01T13:29:16.001Z</time></trkpt><trkpt lat="42.201125584660936" lon="14.218360287353962"><ele>478.0</ele><time>2026-05-01T13:29:17.001Z</time></trkpt><trkpt lat="42.20124864553565" lon="14.218413402986902"><ele>478.0</ele><time>2026-05-01T13:29:18.001Z</time></trkpt><trkpt lat="42.201375004049346" lon="14.21847361479707"><ele>478.0</ele><time>2026-05-01T13:29:19.001Z</time></trkpt><trkpt lat="42.20149471839525" lon="14.21853872566009"><ele>478.0</ele><time>2026-05-01T13:29:20.001Z</time></trkpt><trkpt lat="42.20159538796145" lon="14.218600441051084"><ele>478.0</ele><time>2026-05-01T13:29:21.001Z</time></trkpt><trkpt lat="42.20166860331536" lon="14.218652462028272"><ele>477.59999999999997</ele><time>2026-05-01T13:29:22.001Z</time></trkpt><trkpt lat="42.20176804698298" lon="14.218729360080406"><ele>477.19999999999993</ele><time>2026-05-01T13:29:24.001Z</time></trkpt><trkpt lat="42.20187228257633" lon="14.218817471059106"><ele>476.8</ele><time>2026-05-01T13:29:26.001Z</time></trkpt><trkpt lat="42.201940896379426" lon="14.218879232130877"><ele>476.4</ele><time>2026-05-01T13:29:27.001Z</time></trkpt><trkpt lat="42.20202065332292" lon="14.218953700561686"><ele>476.0</ele><time>2026-05-01T13:29:28.001Z</time></trkpt><trkpt lat="42.20209605455265" lon="14.219036555804193"><ele>475.99999999999994</ele><time>2026-05-01T13:29:29.001Z</time></trkpt><trkpt lat="42.20217012034668" lon="14.219133010985122"><ele>476.0</ele><time>2026-05-01T13:29:30.001Z</time></trkpt><trkpt lat="42.20223047428674" lon="14.219225691972538"><ele>476.0</ele><time>2026-05-01T13:29:31.001Z</time></trkpt><trkpt lat="42.202281853231156" lon="14.219319393420978"><ele>476.0</ele><time>2026-05-01T13:29:32.001Z</time></trkpt><trkpt lat="42.20232367940887" lon="14.21941630281377"><ele>475.99999999999994</ele><time>2026-05-01T13:29:33.001Z</time></trkpt><trkpt lat="42.20236402657184" lon="14.21950583248361"><ele>476.0</ele><time>2026-05-01T13:29:34.001Z</time></trkpt><trkpt lat="42.20239590988043" lon="14.219589937383077"><ele>472.5</ele><time>2026-05-01T13:29:35Z</time></trkpt><trkpt lat="42.20245438867727" lon="14.219703677908823"><ele>469.0</ele><time>2026-05-01T13:29:37Z</time></trkpt><trkpt lat="42.20255536021591" lon="14.219730409056016"><ele>465.5</ele><time>2026-05-01T13:29:40Z</time></trkpt><trkpt lat="42.20269308018217" lon="14.2197043094954"><ele>462.0</ele><time>2026-05-01T13:29:43Z</time></trkpt><trkpt lat="42.20253853981362" lon="14.219428549010864"><ele>462.0</ele><time>2026-05-01T13:29:44Z</time></trkpt><trkpt lat="42.202484668172886" lon="14.21936975832909"><ele>462.0</ele><time>2026-05-01T13:29:45Z</time></trkpt><trkpt lat="42.202426378128216" lon="14.219307330829817"><ele>462.0</ele><time>2026-05-01T13:29:46Z</time></trkpt><trkpt lat="42.20236576624245" lon="14.219236987039178"><ele>462.0</ele><time>2026-05-01T13:29:47Z</time></trkpt><trkpt lat="42.20229733687671" lon="14.219164596729993"><ele>462.0</ele><time>2026-05-01T13:29:48Z</time></trkpt><trkpt lat="42.202232401413774" lon="14.21909554432515"><ele>462.0</ele><time>2026-05-01T13:29:49Z</time></trkpt><trkpt lat="42.20216969166111" lon="14.219027519187767"><ele>462.8333333333333</ele><time>2026-05-01T13:29:50Z</time></trkpt><trkpt lat="42.20210958845399" lon="14.218966203495096"><ele>463.66666666666663</ele><time>2026-05-01T13:29:51Z</time></trkpt><trkpt lat="42.2020504085067" lon="14.218909157568689"><ele>464.5</ele><time>2026-05-01T13:29:52Z</time></trkpt><trkpt lat="42.20197960884799" lon="14.21884445102428"><ele>465.3333333333333</ele><time>2026-05-01T13:29:53Z</time></trkpt><trkpt lat="42.20190307417377" lon="14.218778544816379"><ele>466.16666666666663</ele><time>2026-05-01T13:29:54Z</time></trkpt><trkpt lat="42.20181645556893" lon="14.218708445102855"><ele>467.0</ele><time>2026-05-01T13:29:55Z</time></trkpt><trkpt lat="42.20172291186634" lon="14.218638682393037"><ele>467.0</ele><time>2026-05-01T13:29:56Z</time></trkpt><trkpt lat="42.20162417860289" lon="14.218573213392887"><ele>467.00000000000006</ele><time>2026-05-01T13:29:57Z</time></trkpt><trkpt lat="42.2015185614396" lon="14.218513678530192"><ele>467.00000000000006</ele><time>2026-05-01T13:29:58Z</time></trkpt><trkpt lat="42.201413411100525" lon="14.218462753089364"><ele>467.0</ele><time>2026-05-01T13:29:59Z</time></trkpt><trkpt lat="42.20130866058607" lon="14.218412180597213"><ele>467.0</ele><time>2026-05-01T13:30:00Z</time></trkpt><trkpt lat="42.20120401438885" lon="14.218362552868836"><ele>469.20000000000005</ele><time>2026-05-01T13:30:01Z</time></trkpt><trkpt lat="42.20110021385355" lon="14.218319602208739"><ele>471.40000000000003</ele><time>2026-05-01T13:30:02Z</time></trkpt><trkpt lat="42.20099886421304" lon="14.218285066665457"><ele>473.59999999999997</ele><time>2026-05-01T13:30:03Z</time></trkpt><trkpt lat="42.200903604348206" lon="14.218255449331265"><ele>475.79999999999995</ele><time>2026-05-01T13:30:04Z</time></trkpt><trkpt lat="42.20082023442401" lon="14.218236144063752"><ele>478.0</ele><time>2026-05-01T13:30:05Z</time></trkpt><trkpt lat="42.20074746370177" lon="14.218225272143881"><ele>478.0</ele><time>2026-05-01T13:30:06Z</time></trkpt><trkpt lat="42.200682193680606" lon="14.218221618916266"><ele>478.0</ele><time>2026-05-01T13:30:07Z</time></trkpt><trkpt lat="42.200589642241944" lon="14.218201545860891"><ele>478.0</ele><time>2026-05-01T13:30:09Z</time></trkpt><trkpt lat="42.20049348929039" lon="14.21804418556643"><ele>478.0</ele><time>2026-05-01T13:30:13Z</time></trkpt><trkpt lat="42.200626116681704" lon="14.218110314317567"><ele>477.4</ele><time>2026-05-01T13:30:14Z</time></trkpt><trkpt lat="42.2007065909788" lon="14.218086303741913"><ele>476.79999999999995</ele><time>2026-05-01T13:30:15Z</time></trkpt><trkpt lat="42.20080372435086" lon="14.218044159616491"><ele>476.2</ele><time>2026-05-01T13:30:16Z</time></trkpt><trkpt lat="42.200917951679806" lon="14.218026225956592"><ele>475.6</ele><time>2026-05-01T13:30:17Z</time></trkpt><trkpt lat="42.20105513039271" lon="14.218010465197397"><ele>475.0</ele><time>2026-05-01T13:30:18Z</time></trkpt><trkpt lat="42.2011962261001" lon="14.217991700836865"><ele>475.0</ele><time>2026-05-01T13:30:19Z</time></trkpt><trkpt lat="42.201342990684694" lon="14.217946911203034"><ele>475.0</ele><time>2026-05-01T13:30:20Z</time></trkpt><trkpt lat="42.20148956943012" lon="14.217931804079491"><ele>475.0</ele><time>2026-05-01T13:30:21Z</time></trkpt><trkpt lat="42.2016279359031" lon="14.217952341830957"><ele>475.0</ele><time>2026-05-01T13:30:22Z</time></trkpt><trkpt lat="42.20176093331931" lon="14.217966327495603"><ele>474.25</ele><time>2026-05-01T13:30:23Z</time></trkpt><trkpt lat="42.201888403231166" lon="14.21797959809676"><ele>473.5</ele><time>2026-05-01T13:30:24Z</time></trkpt><trkpt lat="42.202013913517874" lon="14.218017405258328"><ele>472.75</ele><time>2026-05-01T13:30:25Z</time></trkpt><trkpt lat="42.20215327116965" lon="14.218053911257597"><ele>472.0</ele><time>2026-05-01T13:30:26Z</time></trkpt><trkpt lat="42.20230387667888" lon="14.218074547163562"><ele>471.25</ele><time>2026-05-01T13:30:27Z</time></trkpt><trkpt lat="42.20244745915103" lon="14.218080323823198"><ele>470.5</ele><time>2026-05-01T13:30:28Z</time></trkpt><trkpt lat="42.202574829201794" lon="14.218071016807414"><ele>469.75</ele><time>2026-05-01T13:30:29Z</time></trkpt><trkpt lat="42.20268989747883" lon="14.21806342944461"><ele>469.0</ele><time>2026-05-01T13:30:30Z</time></trkpt><trkpt lat="42.202800217199986" lon="14.218045946257856"><ele>469.0</ele><time>2026-05-01T13:30:31Z</time></trkpt><trkpt lat="42.2029037806438" lon="14.218027743070815"><ele>469.0</ele><time>2026-05-01T13:30:32Z</time></trkpt><trkpt lat="42.20300187786641" lon="14.218008762461954"><ele>469.0</ele><time>2026-05-01T13:30:33Z</time></trkpt><trkpt lat="42.20309321698331" lon="14.21797850015491"><ele>469.0</ele><time>2026-05-01T13:30:34Z</time></trkpt><trkpt lat="42.20317626778699" lon="14.217926628712503"><ele>469.0</ele><time>2026-05-01T13:30:35Z</time></trkpt><trkpt lat="42.20325790018746" lon="14.217851691480663"><ele>466.75</ele><time>2026-05-01T13:30:36Z</time></trkpt><trkpt lat="42.20335347067607" lon="14.217757497653622"><ele>464.5</ele><time>2026-05-01T13:30:37Z</time></trkpt><trkpt lat="42.20345924185834" lon="14.217659617816839"><ele>462.25</ele><time>2026-05-01T13:30:38Z</time></trkpt><trkpt lat="42.203567133824784" lon="14.217569582411105"><ele>460.0</ele><time>2026-05-01T13:30:39Z</time></trkpt><trkpt lat="42.20366823099281" lon="14.217486135844174"><ele>460.0</ele><time>2026-05-01T13:30:40Z</time></trkpt><trkpt lat="42.203758137657616" lon="14.217408609026068"><ele>460.0</ele><time>2026-05-01T13:30:41Z</time></trkpt><trkpt lat="42.203846302669504" lon="14.21733775929194"><ele>460.0</ele><time>2026-05-01T13:30:42Z</time></trkpt><trkpt lat="42.20393348708524" lon="14.217288529181406"><ele>460.0</ele><time>2026-05-01T13:30:43Z</time></trkpt><trkpt lat="42.204018299418806" lon="14.217275008340103"><ele>460.0</ele><time>2026-05-01T13:30:44Z</time></trkpt><trkpt lat="42.20409649746153" lon="14.217293796553577"><ele>460.6</ele><time>2026-05-01T13:30:45Z</time></trkpt><trkpt lat="42.20417780994498" lon="14.217319871959699"><ele>461.2</ele><time>2026-05-01T13:30:46Z</time></trkpt><trkpt lat="42.20425915833686" lon="14.217331543804296"><ele>461.79999999999995</ele><time>2026-05-01T13:30:47Z</time></trkpt><trkpt lat="42.20434837267171" lon="14.217321970594385"><ele>462.4</ele><time>2026-05-01T13:30:48Z</time></trkpt><trkpt lat="42.204439904049515" lon="14.217291648469368"><ele>463.0</ele><time>2026-05-01T13:30:49Z</time></trkpt><trkpt lat="42.2045395660122" lon="14.217251815579786"><ele>463.00000000000006</ele><time>2026-05-01T13:30:50Z</time></trkpt><trkpt lat="42.204641751682566" lon="14.21721335253237"><ele>463.0</ele><time>2026-05-01T13:30:51Z</time></trkpt><trkpt lat="42.204733893898535" lon="14.217178893498469"><ele>463.0</ele><time>2026-05-01T13:30:52Z</time></trkpt><trkpt lat="42.20481023083986" lon="14.217149759266176"><ele>463.0</ele><time>2026-05-01T13:30:53Z</time></trkpt><trkpt lat="42.20487731397359" lon="14.217120686341708"><ele>463.00000000000006</ele><time>2026-05-01T13:30:54Z</time></trkpt><trkpt lat="42.20494475025814" lon="14.217091807697159"><ele>463.0</ele><time>2026-05-01T13:30:55Z</time></trkpt><trkpt lat="42.2050109445347" lon="14.21706607176796"><ele>462.33333333333337</ele><time>2026-05-01T13:30:56Z</time></trkpt><trkpt lat="42.2050790470153" lon="14.217029872226187"><ele>461.6666666666667</ele><time>2026-05-01T13:30:57Z</time></trkpt><trkpt lat="42.205146305719154" lon="14.216997330988773"><ele>461.0</ele><time>2026-05-01T13:30:58Z</time></trkpt><trkpt lat="42.20522526057627" lon="14.21699603517686"><ele>460.33333333333337</ele><time>2026-05-01T13:30:59Z</time></trkpt><trkpt lat="42.20530818595477" lon="14.216972386656852"><ele>459.6666666666667</ele><time>2026-05-01T13:31:00Z</time></trkpt><trkpt lat="42.20539808135827" lon="14.216951983311828"><ele>459.0</ele><time>2026-05-01T13:31:01Z</time></trkpt><trkpt lat="42.20547935555796" lon="14.216955365503907"><ele>459.0</ele><time>2026-05-01T13:31:02Z</time></trkpt><trkpt lat="42.20557446774852" lon="14.216887297336136"><ele>459.0</ele><time>2026-05-01T13:31:03Z</time></trkpt><trkpt lat="42.2056738317829" lon="14.21685914462056"><ele>459.0</ele><time>2026-05-01T13:31:04Z</time></trkpt><trkpt lat="42.20575131354682" lon="14.216830413370877"><ele>459.0</ele><time>2026-05-01T13:31:05Z</time></trkpt><trkpt lat="42.20583542096315" lon="14.21678498356607"><ele>459.0</ele><time>2026-05-01T13:31:07Z</time></trkpt><trkpt lat="42.205908297408875" lon="14.216748929005478"><ele>457.3333333333333</ele><time>2026-05-01T13:31:09Z</time></trkpt><trkpt lat="42.20597344943559" lon="14.216718972513378"><ele>455.66666666666663</ele><time>2026-05-01T13:31:11Z</time></trkpt><trkpt lat="42.20604572923777" lon="14.216690239925892"><ele>454.0</ele><time>2026-05-01T13:31:13Z</time></trkpt><trkpt lat="42.20614188092296" lon="14.216661380710683"><ele>452.3333333333333</ele><time>2026-05-01T13:31:15Z</time></trkpt><trkpt lat="42.20624441703487" lon="14.216632237383116"><ele>450.66666666666663</ele><time>2026-05-01T13:31:17Z</time></trkpt><trkpt lat="42.206333679488715" lon="14.216678361378227"><ele>449.0</ele><time>2026-05-01T13:31:19Z</time></trkpt><trkpt lat="42.20633648370882" lon="14.216768257953811"><ele>449.0</ele><time>2026-05-01T13:31:21Z</time></trkpt><trkpt lat="42.206440035694165" lon="14.216575977786267"><ele>449.0</ele><time>2026-05-01T13:31:26Z</time></trkpt><trkpt lat="42.20631700445516" lon="14.216597137255096"><ele>449.0</ele><time>2026-05-01T13:31:28Z</time></trkpt><trkpt lat="42.20620923398676" lon="14.216648615193677"><ele>449.0</ele><time>2026-05-01T13:31:29Z</time></trkpt><trkpt lat="42.20608052653965" lon="14.216681249587216"><ele>449.0</ele><time>2026-05-01T13:31:30Z</time></trkpt><trkpt lat="42.205941116849075" lon="14.216729053681647"><ele>449.0</ele><time>2026-05-01T13:31:31Z</time></trkpt><trkpt lat="42.20581725384866" lon="14.216787577283016"><ele>449.0</ele><time>2026-05-01T13:31:32Z</time></trkpt><trkpt lat="42.20572246446143" lon="14.216836878806031"><ele>449.0</ele><time>2026-05-01T13:31:33Z</time></trkpt><trkpt lat="42.20565297620118" lon="14.216868305631731"><ele>449.0</ele><time>2026-05-01T13:31:34Z</time></trkpt><trkpt lat="42.20555017570794" lon="14.216901621609175"><ele>449.0</ele><time>2026-05-01T13:31:36Z</time></trkpt><trkpt lat="42.20553345858487" lon="14.216985201712136"><ele>449.0</ele><time>2026-05-01T13:31:38Z</time></trkpt><trkpt lat="42.20560272756355" lon="14.217131069198114"><ele>449.0</ele><time>2026-05-01T13:31:40Z</time></trkpt><trkpt lat="42.205659508389324" lon="14.21722589638191"><ele>449.0</ele><time>2026-05-01T13:31:41Z</time></trkpt><trkpt lat="42.20569872904499" lon="14.217318371431201"><ele>448.0</ele><time>2026-05-01T13:31:42Z</time></trkpt><trkpt lat="42.20573233255606" lon="14.217392166606379"><ele>447.0</ele><time>2026-05-01T13:31:43Z</time></trkpt><trkpt lat="42.2057881134609" lon="14.21751265665424"><ele>446.0</ele><time>2026-05-01T13:31:45Z</time></trkpt><trkpt lat="42.2058575154117" lon="14.217647683858178"><ele>445.0</ele><time>2026-05-01T13:31:47Z</time></trkpt><trkpt lat="42.205896963576805" lon="14.217732696072748"><ele>444.0</ele><time>2026-05-01T13:31:48Z</time></trkpt><trkpt lat="42.20594444115093" lon="14.217829689398398"><ele>444.0</ele><time>2026-05-01T13:31:49Z</time></trkpt><trkpt lat="42.20599558766933" lon="14.217935343861328"><ele>444.0</ele><time>2026-05-01T13:31:50Z</time></trkpt><trkpt lat="42.20604586974027" lon="14.218047996752057"><ele>444.0</ele><time>2026-05-01T13:31:51Z</time></trkpt><trkpt lat="42.20610854443959" lon="14.21814950409168"><ele>444.0</ele><time>2026-05-01T13:31:52Z</time></trkpt><trkpt lat="42.206173581260146" lon="14.218239125431232"><ele>444.0</ele><time>2026-05-01T13:31:53Z</time></trkpt><trkpt lat="42.206245979433305" lon="14.218316625457028"><ele>443.0</ele><time>2026-05-01T13:31:54Z</time></trkpt><trkpt lat="42.20632661971884" lon="14.218373510763595"><ele>442.0</ele><time>2026-05-01T13:31:55Z</time></trkpt><trkpt lat="42.206406030174" lon="14.218430246707587"><ele>441.0</ele><time>2026-05-01T13:31:56Z</time></trkpt><trkpt lat="42.206485151500885" lon="14.218480006157371"><ele>440.0</ele><time>2026-05-01T13:31:57Z</time></trkpt><trkpt lat="42.2065567972972" lon="14.218533831315757"><ele>439.0</ele><time>2026-05-01T13:31:58Z</time></trkpt><trkpt lat="42.206625975783176" lon="14.218592839465053"><ele>438.0</ele><time>2026-05-01T13:31:59Z</time></trkpt><trkpt lat="42.20668258161127" lon="14.218666088264559"><ele>436.59999999999997</ele><time>2026-05-01T13:32:00Z</time></trkpt><trkpt lat="42.20674014222346" lon="14.218760454345675"><ele>435.19999999999993</ele><time>2026-05-01T13:32:01Z</time></trkpt><trkpt lat="42.20679476283161" lon="14.218858400335057"><ele>433.8</ele><time>2026-05-01T13:32:02Z</time></trkpt><trkpt lat="42.20684963137772" lon="14.21896499289132"><ele>432.4</ele><time>2026-05-01T13:32:03Z</time></trkpt><trkpt lat="42.20689604750562" lon="14.21906961545803"><ele>431.0</ele><time>2026-05-01T13:32:04Z</time></trkpt><trkpt lat="42.206939981237724" lon="14.219168995014787"><ele>430.49999999999994</ele><time>2026-05-01T13:32:05Z</time></trkpt><trkpt lat="42.20698474307693" lon="14.219266551590767"><ele>430.0</ele><time>2026-05-01T13:32:06Z</time></trkpt><trkpt lat="42.20702547509641" lon="14.219363820426757"><ele>429.5</ele><time>2026-05-01T13:32:07Z</time></trkpt><trkpt lat="42.207067504423016" lon="14.219460422415326"><ele>429.0</ele><time>2026-05-01T13:32:08Z</time></trkpt><trkpt lat="42.20711174256364" lon="14.219566581713783"><ele>428.49999999999994</ele><time>2026-05-01T13:32:09Z</time></trkpt><trkpt lat="42.20715499917913" lon="14.219673764505057"><ele>428.0</ele><time>2026-05-01T13:32:10Z</time></trkpt><trkpt lat="42.207200518073286" lon="14.219778547591408"><ele>427.3333333333333</ele><time>2026-05-01T13:32:11Z</time></trkpt><trkpt lat="42.20725226933379" lon="14.219879039848355"><ele>426.66666666666663</ele><time>2026-05-01T13:32:12Z</time></trkpt><trkpt lat="42.20731819196579" lon="14.21995774334183"><ele>426.0</ele><time>2026-05-01T13:32:13Z</time></trkpt><trkpt lat="42.207398978089465" lon="14.220007754583394"><ele>425.33333333333337</ele><time>2026-05-01T13:32:14Z</time></trkpt><trkpt lat="42.20747986036077" lon="14.220014807478263"><ele>424.6666666666667</ele><time>2026-05-01T13:32:15Z</time></trkpt><trkpt lat="42.207549614907514" lon="14.220007799896543"><ele>424.0</ele><time>2026-05-01T13:32:16Z</time></trkpt><trkpt lat="42.20765759450705" lon="14.219993617999446"><ele>423.00000000000006</ele><time>2026-05-01T13:32:18Z</time></trkpt><trkpt lat="42.207739353670284" lon="14.219994751271734"><ele>422.0</ele><time>2026-05-01T13:32:20Z</time></trkpt><trkpt lat="42.20779632682178" lon="14.22006072022785"><ele>421.0</ele><time>2026-05-01T13:32:35Z</time></trkpt><trkpt lat="42.207810942709976" lon="14.220178385726836"><ele>420.0</ele><time>2026-05-01T13:32:37Z</time></trkpt><trkpt lat="42.20784533202281" lon="14.220257736836059"><ele>419.00000000000006</ele><time>2026-05-01T13:32:48Z</time></trkpt><trkpt lat="42.207870097500276" lon="14.220337097930072"><ele>418.0</ele><time>2026-05-01T13:32:52Z</time></trkpt><trkpt lat="42.20791295833767" lon="14.220448604475305"><ele>418.0</ele><time>2026-05-01T13:32:55Z</time></trkpt><trkpt lat="42.20795262400908" lon="14.220555133553487"><ele>418.0</ele><time>2026-05-01T13:32:58Z</time></trkpt><trkpt lat="42.2081774432527" lon="14.2199098818509"><ele>416.6666666666667</ele><time>2026-05-01T13:33:01Z</time></trkpt><trkpt lat="42.208243532094954" lon="14.219842225189646"><ele>415.33333333333337</ele><time>2026-05-01T13:33:03Z</time></trkpt><trkpt lat="42.20830983102089" lon="14.219815746809713"><ele>414.0</ele><time>2026-05-01T13:33:05Z</time></trkpt><trkpt lat="42.20836982260625" lon="14.219788216996399"><ele>412.66666666666663</ele><time>2026-05-01T13:33:07Z</time></trkpt><trkpt lat="42.208446141386126" lon="14.219739653680499"><ele>411.3333333333333</ele><time>2026-05-01T13:33:09Z</time></trkpt><trkpt lat="42.20851000644846" lon="14.219697814686265"><ele>410.0</ele><time>2026-05-01T13:33:11Z</time></trkpt><trkpt lat="42.208598128825614" lon="14.219628857076925"><ele>410.0</ele><time>2026-05-01T13:33:13Z</time></trkpt><trkpt lat="42.20867974313517" lon="14.21957867329516"><ele>410.0</ele><time>2026-05-01T13:33:14Z</time></trkpt><trkpt lat="42.20875102241331" lon="14.219558188394796"><ele>410.0</ele><time>2026-05-01T13:33:15Z</time></trkpt><trkpt lat="42.208827492891686" lon="14.219555625738431"><ele>410.0</ele><time>2026-05-01T13:33:16Z</time></trkpt><trkpt lat="42.20896999024773" lon="14.219704363704539"><ele>410.0</ele><time>2026-05-01T13:33:17Z</time></trkpt><trkpt lat="42.20903996729443" lon="14.219816580298284"><ele>409.5</ele><time>2026-05-01T13:33:19Z</time></trkpt><trkpt lat="42.20899219414849" lon="14.219985351318726"><ele>409.0</ele><time>2026-05-01T13:33:20Z</time></trkpt><trkpt lat="42.209037943334195" lon="14.220074635995857"><ele>408.5</ele><time>2026-05-01T13:33:22Z</time></trkpt><trkpt lat="42.20909128959049" lon="14.220157676044325"><ele>408.0</ele><time>2026-05-01T13:33:24Z</time></trkpt><trkpt lat="42.209327570679626" lon="14.220053097459376"><ele>406.1666666666667</ele><time>2026-05-01T13:33:26Z</time></trkpt><trkpt lat="42.20941115551478" lon="14.220071851420624"><ele>404.33333333333337</ele><time>2026-05-01T13:33:28Z</time></trkpt><trkpt lat="42.209486150755566" lon="14.220067315085977"><ele>402.5</ele><time>2026-05-01T13:33:30Z</time></trkpt><trkpt lat="42.2095450729212" lon="14.22003326485897"><ele>400.6666666666667</ele><time>2026-05-01T13:33:31Z</time></trkpt><trkpt lat="42.20962997406915" lon="14.219885811629299"><ele>398.83333333333337</ele><time>2026-05-01T13:33:33Z</time></trkpt><trkpt lat="42.20966746417048" lon="14.219804399011704"><ele>397.0</ele><time>2026-05-01T13:33:34Z</time></trkpt><trkpt lat="42.20970190000109" lon="14.2197209418998"><ele>397.0</ele><time>2026-05-01T13:33:35Z</time></trkpt><trkpt lat="42.209733032092" lon="14.219626264006566"><ele>397.0</ele><time>2026-05-01T13:33:36Z</time></trkpt><trkpt lat="42.2097491621187" lon="14.219523609538232"><ele>397.0</ele><time>2026-05-01T13:33:37Z</time></trkpt><trkpt lat="42.209775223242225" lon="14.219400845972597"><ele>397.0</ele><time>2026-05-01T13:33:39Z</time></trkpt><trkpt lat="42.20976793419014" lon="14.219604071302287"><ele>397.0</ele><time>2026-05-01T13:33:46Z</time></trkpt><trkpt lat="42.20973610745215" lon="14.219696442731392"><ele>397.0</ele><time>2026-05-01T13:33:47Z</time></trkpt><trkpt lat="42.2098502391871" lon="14.219884764447245"><ele>397.0</ele><time>2026-05-01T13:33:48Z</time></trkpt><trkpt lat="42.20980456437776" lon="14.220048696478033"><ele>397.0</ele><time>2026-05-01T13:33:49Z</time></trkpt><trkpt lat="42.20979523348926" lon="14.22020983585484"><ele>397.0</ele><time>2026-05-01T13:33:50Z</time></trkpt><trkpt lat="42.20978948139201" lon="14.220367171282245"><ele>397.0</ele><time>2026-05-01T13:33:51Z</time></trkpt><trkpt lat="42.20978939543148" lon="14.220500124623243"><ele>397.0</ele><time>2026-05-01T13:33:52Z</time></trkpt><trkpt lat="42.20979300653581" lon="14.220612124749975"><ele>397.0</ele><time>2026-05-01T13:33:53Z</time></trkpt><trkpt lat="42.20982627447016" lon="14.220747643048636"><ele>397.0</ele><time>2026-05-01T13:33:55Z</time></trkpt><trkpt lat="42.21002507678198" lon="14.220762253891744"><ele>395.83333333333337</ele><time>2026-05-01T13:34:01Z</time></trkpt><trkpt lat="42.210117266833244" lon="14.220740139890532"><ele>394.6666666666667</ele><time>2026-05-01T13:34:04Z</time></trkpt><trkpt lat="42.210191396954755" lon="14.220733666549457"><ele>393.5</ele><time>2026-05-01T13:34:06Z</time></trkpt><trkpt lat="42.21025565031989" lon="14.220718679909442"><ele>392.33333333333337</ele><time>2026-05-01T13:34:08Z</time></trkpt><trkpt lat="42.21032069090461" lon="14.220740465410335"><ele>391.1666666666667</ele><time>2026-05-01T13:34:11Z</time></trkpt><trkpt lat="42.21037116588514" lon="14.220843332896012"><ele>390.0</ele><time>2026-05-01T13:34:14Z</time></trkpt><trkpt lat="42.21043320746357" lon="14.220906035008419"><ele>390.0</ele><time>2026-05-01T13:34:17Z</time></trkpt><trkpt lat="42.21050836113699" lon="14.220887984292657"><ele>390.0</ele><time>2026-05-01T13:34:19Z</time></trkpt><trkpt lat="42.21060286788432" lon="14.220851289112383"><ele>390.0</ele><time>2026-05-01T13:34:21Z</time></trkpt><trkpt lat="42.210718008842406" lon="14.2208132764301"><ele>390.0</ele><time>2026-05-01T13:34:23Z</time></trkpt><trkpt lat="42.21078062600267" lon="14.220803504771954"><ele>390.0</ele><time>2026-05-01T13:34:24Z</time></trkpt><trkpt lat="42.21089648411703" lon="14.220780973364157"><ele>389.0</ele><time>2026-05-01T13:34:26Z</time></trkpt><trkpt lat="42.21096150090869" lon="14.220771010965231"><ele>388.0</ele><time>2026-05-01T13:34:27Z</time></trkpt><trkpt lat="42.21102819720988" lon="14.22076297927318"><ele>387.0</ele><time>2026-05-01T13:34:28Z</time></trkpt><trkpt lat="42.2110963145975" lon="14.220748216299649"><ele>386.0</ele><time>2026-05-01T13:34:29Z</time></trkpt><trkpt lat="42.21121625016161" lon="14.220717445682281"><ele>385.0</ele><time>2026-05-01T13:34:31Z</time></trkpt><trkpt lat="42.21132174426662" lon="14.220698237027095"><ele>384.0</ele><time>2026-05-01T13:34:33Z</time></trkpt><trkpt lat="42.211443205135005" lon="14.220664719491806"><ele>381.2</ele><time>2026-05-01T13:34:35Z</time></trkpt><trkpt lat="42.21154210867855" lon="14.220618144384552"><ele>378.4</ele><time>2026-05-01T13:34:37Z</time></trkpt><trkpt lat="42.21165886346504" lon="14.220596500001488"><ele>375.6</ele><time>2026-05-01T13:34:39Z</time></trkpt><trkpt lat="42.211763084292464" lon="14.220589615534667"><ele>372.8</ele><time>2026-05-01T13:34:41Z</time></trkpt><trkpt lat="42.211857833357676" lon="14.220542189531916"><ele>370.0</ele><time>2026-05-01T13:34:43Z</time></trkpt><trkpt lat="42.21192311879175" lon="14.220496448325003"><ele>369.99999999999994</ele><time>2026-05-01T13:34:45Z</time></trkpt><trkpt lat="42.2119780944128" lon="14.22041275585969"><ele>370.0</ele><time>2026-05-01T13:34:48Z</time></trkpt><trkpt lat="42.212018286561104" lon="14.22032816222407"><ele>370.0</ele><time>2026-05-01T13:35:27Z</time></trkpt><trkpt lat="42.21206523907444" lon="14.220268313080277"><ele>370.0</ele><time>2026-05-01T13:35:34Z</time></trkpt><trkpt lat="42.212129418100595" lon="14.220251504049545"><ele>370.0</ele><time>2026-05-01T13:35:40Z</time></trkpt><trkpt lat="42.212193521050395" lon="14.220223034074388"><ele>369.99999999999994</ele><time>2026-05-01T13:35:46Z</time></trkpt><trkpt lat="42.212258553749244" lon="14.22023596133296"><ele>370.0</ele><time>2026-05-01T13:35:52Z</time></trkpt><trkpt lat="42.212285686258205" lon="14.220321332797322"><ele>370.0</ele><time>2026-05-01T13:35:58Z</time></trkpt><trkpt lat="42.21227311197931" lon="14.22041312789214"><ele>370.0</ele><time>2026-05-01T13:36:08Z</time></trkpt><trkpt lat="42.21229421231249" lon="14.220506414433295"><ele>370.0</ele><time>2026-05-01T13:36:18Z</time></trkpt><trkpt lat="42.212308500358326" lon="14.220609864428809"><ele>370.0</ele><time>2026-05-01T13:36:20Z</time></trkpt><trkpt lat="42.21232766965439" lon="14.220707005847139"><ele>370.0</ele><time>2026-05-01T13:36:22Z</time></trkpt><trkpt lat="42.21237631211901" lon="14.220788989048149"><ele>370.0</ele><time>2026-05-01T13:36:25Z</time></trkpt><trkpt lat="42.21250912522408" lon="14.220999694216264"><ele>372.5</ele><time>2026-05-01T13:36:27Z</time></trkpt><trkpt lat="42.21261238115929" lon="14.220927586668983"><ele>375.0</ele><time>2026-05-01T13:36:36Z</time></trkpt><trkpt lat="42.21270264119832" lon="14.220864554644583"><ele>377.5</ele><time>2026-05-01T13:36:38Z</time></trkpt><trkpt lat="42.21277421750535" lon="14.220814946970671"><ele>380.0</ele><time>2026-05-01T13:36:40Z</time></trkpt><trkpt lat="42.212837353803536" lon="14.220771859625193"><ele>382.50000000000006</ele><time>2026-05-01T13:36:42Z</time></trkpt><trkpt lat="42.2128959332668" lon="14.22073188216713"><ele>385.0</ele><time>2026-05-01T13:36:45Z</time></trkpt><trkpt lat="42.21299544085548" lon="14.220663973339558"><ele>383.50000000000006</ele><time>2026-05-01T13:36:47Z</time></trkpt><trkpt lat="42.21305291737359" lon="14.22062475003863"><ele>382.0</ele><time>2026-05-01T13:36:49Z</time></trkpt><trkpt lat="42.21312803726403" lon="14.220573484116468"><ele>380.5</ele><time>2026-05-01T13:36:52Z</time></trkpt><trkpt lat="42.21318605350683" lon="14.22053261677615"><ele>379.0</ele><time>2026-05-01T13:36:54Z</time></trkpt><trkpt lat="42.2132661112953" lon="14.220475161252956"><ele>377.5</ele><time>2026-05-01T13:36:57Z</time></trkpt><trkpt lat="42.21334018818734" lon="14.220420696118667"><ele>376.0</ele><time>2026-05-01T13:36:59Z</time></trkpt><trkpt lat="42.213418996697136" lon="14.220359914233608"><ele>376.0</ele><time>2026-05-01T13:37:01Z</time></trkpt><trkpt lat="42.213508290998504" lon="14.220287631192335"><ele>376.0</ele><time>2026-05-01T13:37:03Z</time></trkpt><trkpt lat="42.21356260419323" lon="14.220241903776412"><ele>376.0</ele><time>2026-05-01T13:37:04Z</time></trkpt><trkpt lat="42.213651231533575" lon="14.220164157935086"><ele>376.0</ele><time>2026-05-01T13:37:06Z</time></trkpt><trkpt lat="42.213735417234226" lon="14.220085660811284"><ele>376.0</ele><time>2026-05-01T13:37:08Z</time></trkpt><trkpt lat="42.21381646734713" lon="14.220004741761096"><ele>376.0</ele><time>2026-05-01T13:37:10Z</time></trkpt><trkpt lat="42.21388934708338" lon="14.21992666782834"><ele>376.0</ele><time>2026-05-01T13:37:12Z</time></trkpt><trkpt lat="42.21395355740094" lon="14.219857232673249"><ele>376.0</ele><time>2026-05-01T13:37:14Z</time></trkpt><trkpt lat="42.21401484453006" lon="14.219789401104482"><ele>376.0</ele><time>2026-05-01T13:37:16Z</time></trkpt><trkpt lat="42.21407885629648" lon="14.219714187238875"><ele>376.0</ele><time>2026-05-01T13:37:18Z</time></trkpt><trkpt lat="42.214144455645595" lon="14.219631331001246"><ele>376.0</ele><time>2026-05-01T13:37:20Z</time></trkpt><trkpt lat="42.214197769525086" lon="14.219562154185747"><ele>374.7142857142857</ele><time>2026-05-01T13:37:22Z</time></trkpt><trkpt lat="42.2142450363077" lon="14.219500823682194"><ele>373.42857142857144</ele><time>2026-05-01T13:37:24Z</time></trkpt><trkpt lat="42.21429379784056" lon="14.219436794706706"><ele>372.1428571428571</ele><time>2026-05-01T13:37:26Z</time></trkpt><trkpt lat="42.214359646276364" lon="14.219346535115143"><ele>370.8571428571429</ele><time>2026-05-01T13:37:29Z</time></trkpt><trkpt lat="42.2144041190689" lon="14.219285575461578"><ele>369.5714285714286</ele><time>2026-05-01T13:37:31Z</time></trkpt><trkpt lat="42.21445277967906" lon="14.219218875519543"><ele>368.2857142857143</ele><time>2026-05-01T13:37:33Z</time></trkpt><trkpt lat="42.21449990767701" lon="14.219154276352668"><ele>367.0</ele><time>2026-05-01T13:37:35Z</time></trkpt><trkpt lat="42.21455986361839" lon="14.219072093666828"><ele>367.0</ele><time>2026-05-01T13:37:37Z</time></trkpt><trkpt lat="42.21460621851344" lon="14.219008554192401"><ele>367.0</ele><time>2026-05-01T13:37:38Z</time></trkpt><trkpt lat="42.21465228158497" lon="14.21894541473158"><ele>367.0</ele><time>2026-05-01T13:37:39Z</time></trkpt><trkpt lat="42.21469736551706" lon="14.218883617375111"><ele>367.0</ele><time>2026-05-01T13:37:40Z</time></trkpt><trkpt lat="42.214742560908824" lon="14.218821667253238"><ele>367.0</ele><time>2026-05-01T13:37:41Z</time></trkpt><trkpt lat="42.214811708450114" lon="14.218727434853147"><ele>367.0</ele><time>2026-05-01T13:37:43Z</time></trkpt><trkpt lat="42.214883970572295" lon="14.218636113351817"><ele>366.0</ele><time>2026-05-01T13:37:45Z</time></trkpt><trkpt lat="42.21495135066555" lon="14.218554385993787"><ele>365.0</ele><time>2026-05-01T13:37:47Z</time></trkpt><trkpt lat="42.215009738817564" lon="14.218486562709263"><ele>364.0</ele><time>2026-05-01T13:37:49Z</time></trkpt><trkpt lat="42.215075236239066" lon="14.218413195188184"><ele>363.0</ele><time>2026-05-01T13:37:51Z</time></trkpt><trkpt lat="42.215136253279006" lon="14.218346140576488"><ele>362.0</ele><time>2026-05-01T13:37:53Z</time></trkpt><trkpt lat="42.21519910656707" lon="14.218278942626554"><ele>361.0</ele><time>2026-05-01T13:37:55Z</time></trkpt><trkpt lat="42.21527880014603" lon="14.218196208388303"><ele>359.5</ele><time>2026-05-01T13:37:57Z</time></trkpt><trkpt lat="42.215354475470214" lon="14.218120311103734"><ele>358.0</ele><time>2026-05-01T13:37:59Z</time></trkpt><trkpt lat="42.21541487132429" lon="14.218062216547834"><ele>356.5</ele><time>2026-05-01T13:38:00Z</time></trkpt><trkpt lat="42.2154771495946" lon="14.218003648267281"><ele>355.0</ele><time>2026-05-01T13:38:01Z</time></trkpt><trkpt lat="42.21555421976682" lon="14.217933919017094"><ele>353.5</ele><time>2026-05-01T13:38:03Z</time></trkpt><trkpt lat="42.21563867949998" lon="14.21786379958412"><ele>352.0</ele><time>2026-05-01T13:38:05Z</time></trkpt><trkpt lat="42.21572846644818" lon="14.21779416347383"><ele>352.0</ele><time>2026-05-01T13:38:07Z</time></trkpt><trkpt lat="42.21580998570671" lon="14.21773686865307"><ele>352.0</ele><time>2026-05-01T13:38:09Z</time></trkpt><trkpt lat="42.21589725293993" lon="14.217676933261565"><ele>352.0</ele><time>2026-05-01T13:38:11Z</time></trkpt><trkpt lat="42.21598073945367" lon="14.217620909402804"><ele>352.0</ele><time>2026-05-01T13:38:13Z</time></trkpt><trkpt lat="42.216052052754016" lon="14.217575220718738"><ele>352.0</ele><time>2026-05-01T13:38:15Z</time></trkpt><trkpt lat="42.216131479058895" lon="14.217524967297445"><ele>352.0</ele><time>2026-05-01T13:38:17Z</time></trkpt><trkpt lat="42.216213392633556" lon="14.217473140061186"><ele>352.0</ele><time>2026-05-01T13:38:19Z</time></trkpt><trkpt lat="42.21628106071891" lon="14.21743032617211"><ele>352.0</ele><time>2026-05-01T13:38:21Z</time></trkpt><trkpt lat="42.21635119987633" lon="14.217385948771977"><ele>352.0</ele><time>2026-05-01T13:38:23Z</time></trkpt><trkpt lat="42.21642185974355" lon="14.217341241905768"><ele>352.0</ele><time>2026-05-01T13:38:25Z</time></trkpt><trkpt lat="42.2164918073508" lon="14.21729698569711"><ele>352.0</ele><time>2026-05-01T13:38:27Z</time></trkpt><trkpt lat="42.21657540484501" lon="14.217244093085368"><ele>350.3333333333333</ele><time>2026-05-01T13:38:29Z</time></trkpt><trkpt lat="42.21664152144277" lon="14.217202260805903"><ele>348.66666666666663</ele><time>2026-05-01T13:38:31Z</time></trkpt><trkpt lat="42.216707210709814" lon="14.217160698817082"><ele>347.0</ele><time>2026-05-01T13:38:33Z</time></trkpt><trkpt lat="42.216788801237875" lon="14.217109076178492"><ele>345.3333333333333</ele><time>2026-05-01T13:38:35Z</time></trkpt><trkpt lat="42.21687565292895" lon="14.217054124578194"><ele>343.6666666666667</ele><time>2026-05-01T13:38:37Z</time></trkpt><trkpt lat="42.21694452647283" lon="14.217010547925293"><ele>342.0</ele><time>2026-05-01T13:38:39Z</time></trkpt><trkpt lat="42.21704310719827" lon="14.216948175396764"><ele>342.0</ele><time>2026-05-01T13:38:41Z</time></trkpt><trkpt lat="42.21713573350063" lon="14.216889570247677"><ele>342.0</ele><time>2026-05-01T13:38:43Z</time></trkpt><trkpt lat="42.21720814133902" lon="14.216843757443607"><ele>342.0</ele><time>2026-05-01T13:38:45Z</time></trkpt><trkpt lat="42.217300161424646" lon="14.216785535849137"><ele>342.0</ele><time>2026-05-01T13:38:47Z</time></trkpt><trkpt lat="42.217358237371414" lon="14.21674879088805"><ele>342.0</ele><time>2026-05-01T13:38:49Z</time></trkpt><trkpt lat="42.21742329769433" lon="14.216707626893502"><ele>342.0</ele><time>2026-05-01T13:38:51Z</time></trkpt><trkpt lat="42.217521999419816" lon="14.216644345515812"><ele>342.40000000000003</ele><time>2026-05-01T13:38:53Z</time></trkpt><trkpt lat="42.21759887322149" lon="14.21659412793307"><ele>342.8</ele><time>2026-05-01T13:38:55Z</time></trkpt><trkpt lat="42.217653860670666" lon="14.216525244635204"><ele>343.2</ele><time>2026-05-01T13:38:58Z</time></trkpt><trkpt lat="42.21759628287386" lon="14.216343539994599"><ele>343.6</ele><time>2026-05-01T13:38:59Z</time></trkpt><trkpt lat="42.217634543994926" lon="14.216428242331421"><ele>344.0</ele><time>2026-05-01T13:39:00Z</time></trkpt><trkpt lat="42.217683962860654" lon="14.216548975896824"><ele>344.0</ele><time>2026-05-01T13:39:02Z</time></trkpt><trkpt lat="42.21773762575535" lon="14.216654778574283"><ele>344.0</ele><time>2026-05-01T13:39:04Z</time></trkpt><trkpt lat="42.21773242344509" lon="14.216739528182703"><ele>344.0</ele><time>2026-05-01T13:39:06Z</time></trkpt><trkpt lat="42.217647540087455" lon="14.216785988872964"><ele>344.0</ele><time>2026-05-01T13:39:08Z</time></trkpt><trkpt lat="42.217568364214294" lon="14.216811631456197"><ele>344.0</ele><time>2026-05-01T13:39:09Z</time></trkpt><trkpt lat="42.21748241831998" lon="14.216841672250286"><ele>344.0</ele><time>2026-05-01T13:39:11Z</time></trkpt><trkpt lat="42.21748303440387" lon="14.21694106060206"><ele>344.0</ele><time>2026-05-01T13:39:14Z</time></trkpt><trkpt lat="42.217577583039116" lon="14.216965941939526"><ele>344.0</ele><time>2026-05-01T13:39:16Z</time></trkpt><trkpt lat="42.21768219347539" lon="14.21693051533274"><ele>344.0</ele><time>2026-05-01T13:39:17Z</time></trkpt><trkpt lat="42.217776723143146" lon="14.216919959597027"><ele>344.0</ele><time>2026-05-01T13:39:18Z</time></trkpt><trkpt lat="42.217874100208455" lon="14.216900043929016"><ele>344.0</ele><time>2026-05-01T13:39:20Z</time></trkpt><trkpt lat="42.21795550426077" lon="14.216895202784581"><ele>344.0</ele><time>2026-05-01T13:39:22Z</time></trkpt><trkpt lat="42.21801715328626" lon="14.216914913095145"><ele>344.0</ele><time>2026-05-01T13:39:24Z</time></trkpt><trkpt lat="42.21811181568638" lon="14.217008632670359"><ele>344.0</ele><time>2026-05-01T13:39:26Z</time></trkpt><trkpt lat="42.218175687390584" lon="14.217083595811884"><ele>344.0</ele><time>2026-05-01T13:39:27Z</time></trkpt><trkpt lat="42.21825883210353" lon="14.217164148871461"><ele>344.0</ele><time>2026-05-01T13:39:28Z</time></trkpt><trkpt lat="42.21834886604749" lon="14.217238909342774"><ele>348.75</ele><time>2026-05-01T13:39:29Z</time></trkpt><trkpt lat="42.218446710208205" lon="14.21732266671734"><ele>353.5</ele><time>2026-05-01T13:39:30Z</time></trkpt><trkpt lat="42.218579297232104" lon="14.217428674714947"><ele>358.25</ele><time>2026-05-01T13:39:31Z</time></trkpt><trkpt lat="42.21867924356724" lon="14.217495403380244"><ele>363.0</ele><time>2026-05-01T13:39:32Z</time></trkpt><trkpt lat="42.218741610145" lon="14.217534666255618"><ele>363.0</ele><time>2026-05-01T13:39:33Z</time></trkpt><trkpt lat="42.218855835531194" lon="14.217635079698987"><ele>363.0</ele><time>2026-05-01T13:39:35Z</time></trkpt><trkpt lat="42.21892134884788" lon="14.21769833301129"><ele>363.0</ele><time>2026-05-01T13:39:36Z</time></trkpt><trkpt lat="42.2189818459831" lon="14.217743268764945"><ele>363.0</ele><time>2026-05-01T13:39:37Z</time></trkpt><trkpt lat="42.21903831383063" lon="14.2177885577537"><ele>363.0</ele><time>2026-05-01T13:39:38Z</time></trkpt><trkpt lat="42.21914145739037" lon="14.217864147529603"><ele>363.1666666666667</ele><time>2026-05-01T13:39:40Z</time></trkpt><trkpt lat="42.21919995221877" lon="14.21791902439116"><ele>363.3333333333333</ele><time>2026-05-01T13:39:41Z</time></trkpt><trkpt lat="42.21927612587592" lon="14.217978513185576"><ele>363.5</ele><time>2026-05-01T13:39:42Z</time></trkpt><trkpt lat="42.219354767093066" lon="14.218036407045838"><ele>363.66666666666663</ele><time>2026-05-01T13:39:43Z</time></trkpt><trkpt lat="42.21941064717303" lon="14.218082054976277"><ele>363.8333333333333</ele><time>2026-05-01T13:39:44Z</time></trkpt><trkpt lat="42.21951084415364" lon="14.218141585694509"><ele>364.0</ele><time>2026-05-01T13:39:46Z</time></trkpt><trkpt lat="42.21959276162584" lon="14.218154967025376"><ele>364.0</ele><time>2026-05-01T13:39:48Z</time></trkpt><trkpt lat="42.21967277800029" lon="14.218177643676889"><ele>364.0</ele><time>2026-05-01T13:39:50Z</time></trkpt><trkpt lat="42.219764590270884" lon="14.218193962969469"><ele>364.0</ele><time>2026-05-01T13:39:52Z</time></trkpt><trkpt lat="42.21980988402481" lon="14.21812553572142"><ele>364.0</ele><time>2026-05-01T13:39:54Z</time></trkpt><trkpt lat="42.21971896942244" lon="14.21810445957538"><ele>364.0</ele><time>2026-05-01T13:39:58Z</time></trkpt><trkpt lat="42.21963200452445" lon="14.218226191705817"><ele>366.6</ele><time>2026-05-01T13:39:59Z</time></trkpt><trkpt lat="42.21951829599535" lon="14.218260358653648"><ele>369.2</ele><time>2026-05-01T13:40:01Z</time></trkpt><trkpt lat="42.21943743651927" lon="14.218284714421698"><ele>371.8</ele><time>2026-05-01T13:40:02Z</time></trkpt><trkpt lat="42.21935769250711" lon="14.218306847144222"><ele>374.40000000000003</ele><time>2026-05-01T13:40:03Z</time></trkpt><trkpt lat="42.21927480836542" lon="14.218329851404773"><ele>377.0</ele><time>2026-05-01T13:40:04Z</time></trkpt><trkpt lat="42.21919008982276" lon="14.21835336477643"><ele>377.0</ele><time>2026-05-01T13:40:05Z</time></trkpt><trkpt lat="42.21911952895129" lon="14.218358075317619"><ele>377.0</ele><time>2026-05-01T13:40:06Z</time></trkpt><trkpt lat="42.219042439280784" lon="14.218360154053228"><ele>377.0</ele><time>2026-05-01T13:40:07Z</time></trkpt><trkpt lat="42.21896831856178" lon="14.218357292031792"><ele>377.0</ele><time>2026-05-01T13:40:08Z</time></trkpt><trkpt lat="42.21876831615319" lon="14.21755169895203"><ele>374.6666666666667</ele><time>2026-05-01T13:40:09Z</time></trkpt><trkpt lat="42.218694084491666" lon="14.217490082407418"><ele>372.33333333333337</ele><time>2026-05-01T13:40:10Z</time></trkpt><trkpt lat="42.21861955663552" lon="14.21742982359639"><ele>370.0</ele><time>2026-05-01T13:40:11Z</time></trkpt><trkpt lat="42.21854712891363" lon="14.217372993976126"><ele>367.6666666666667</ele><time>2026-05-01T13:40:12Z</time></trkpt><trkpt lat="42.21847810708691" lon="14.21732099391283"><ele>365.3333333333333</ele><time>2026-05-01T13:40:13Z</time></trkpt><trkpt lat="42.218415194713344" lon="14.217273754951385"><ele>363.0</ele><time>2026-05-01T13:40:14Z</time></trkpt><trkpt lat="42.21835940469029" lon="14.217165622861224"><ele>359.0</ele><time>2026-05-01T13:40:16Z</time></trkpt><trkpt lat="42.218392561423876" lon="14.21709051635074"><ele>355.0</ele><time>2026-05-01T13:40:17Z</time></trkpt><trkpt lat="42.21843389506863" lon="14.216970921651049"><ele>351.0</ele><time>2026-05-01T13:40:18Z</time></trkpt><trkpt lat="42.218521717033056" lon="14.216838969087636"><ele>347.0</ele><time>2026-05-01T13:40:19Z</time></trkpt><trkpt lat="42.21865049127071" lon="14.21669413458574"><ele>347.0</ele><time>2026-05-01T13:40:20Z</time></trkpt><trkpt lat="42.21881102721584" lon="14.216576214675193"><ele>347.0</ele><time>2026-05-01T13:40:21Z</time></trkpt><trkpt lat="42.21894794399453" lon="14.216428365939148"><ele>347.0</ele><time>2026-05-01T13:40:22Z</time></trkpt><trkpt lat="42.21907186115829" lon="14.21628741522234"><ele>345.5</ele><time>2026-05-01T13:40:23Z</time></trkpt><trkpt lat="42.21917057778521" lon="14.216152087441236"><ele>344.0</ele><time>2026-05-01T13:40:24Z</time></trkpt><trkpt lat="42.219251696110824" lon="14.216027044112552"><ele>342.5</ele><time>2026-05-01T13:40:25Z</time></trkpt><trkpt lat="42.21931905290235" lon="14.21589595798151"><ele>341.0</ele><time>2026-05-01T13:40:26Z</time></trkpt><trkpt lat="42.21937629660417" lon="14.215749951660191"><ele>338.5</ele><time>2026-05-01T13:40:27Z</time></trkpt><trkpt lat="42.219427768159825" lon="14.215601945485034"><ele>336.0</ele><time>2026-05-01T13:40:28Z</time></trkpt><trkpt lat="42.21947621819647" lon="14.215460985839519"><ele>333.5</ele><time>2026-05-01T13:40:29Z</time></trkpt><trkpt lat="42.21952545442956" lon="14.21532046919266"><ele>331.0</ele><time>2026-05-01T13:40:30Z</time></trkpt><trkpt lat="42.219578036385904" lon="14.215190615118239"><ele>331.0</ele><time>2026-05-01T13:40:31Z</time></trkpt><trkpt lat="42.21963474257603" lon="14.215066033972436"><ele>331.0</ele><time>2026-05-01T13:40:32Z</time></trkpt><trkpt lat="42.21969945274827" lon="14.214932252388824"><ele>331.0</ele><time>2026-05-01T13:40:33Z</time></trkpt><trkpt lat="42.21976732529942" lon="14.214791348945583"><ele>331.0</ele><time>2026-05-01T13:40:34Z</time></trkpt><trkpt lat="42.219834985952694" lon="14.214658029036983"><ele>330.20000000000005</ele><time>2026-05-01T13:40:35Z</time></trkpt><trkpt lat="42.219892437918084" lon="14.214522157160989"><ele>329.40000000000003</ele><time>2026-05-01T13:40:36Z</time></trkpt><trkpt lat="42.219942627202336" lon="14.21438879387432"><ele>328.6</ele><time>2026-05-01T13:40:37Z</time></trkpt><trkpt lat="42.21998052560021" lon="14.214290271544263"><ele>327.8</ele><time>2026-05-01T13:40:38Z</time></trkpt><trkpt lat="42.22001090841763" lon="14.21420503993037"><ele>327.0</ele><time>2026-05-01T13:40:39Z</time></trkpt><trkpt lat="42.22003188975292" lon="14.214072446362271"><ele>327.0</ele><time>2026-05-01T13:40:41Z</time></trkpt><trkpt lat="42.22007526348694" lon="14.214008783506685"><ele>327.0</ele><time>2026-05-01T13:40:44Z</time></trkpt><trkpt lat="42.21993482094125" lon="14.213841261911993"><ele>327.0</ele><time>2026-05-01T13:40:54Z</time></trkpt><trkpt lat="42.21988139723825" lon="14.21371271823139"><ele>327.0</ele><time>2026-05-01T13:40:56Z</time></trkpt><trkpt lat="42.219817770549405" lon="14.213622847224913"><ele>326.6</ele><time>2026-05-01T13:40:58Z</time></trkpt><trkpt lat="42.21973994925663" lon="14.213557308845564"><ele>326.20000000000005</ele><time>2026-05-01T13:41:00Z</time></trkpt><trkpt lat="42.21965062246487" lon="14.213519050832636"><ele>325.8</ele><time>2026-05-01T13:41:02Z</time></trkpt><trkpt lat="42.21957955557666" lon="14.21351394766861"><ele>325.4</ele><time>2026-05-01T13:41:03Z</time></trkpt><trkpt lat="42.21949305223771" lon="14.213500826000036"><ele>325.0</ele><time>2026-05-01T13:41:04Z</time></trkpt><trkpt lat="42.21938037477678" lon="14.213490756693202"><ele>325.0</ele><time>2026-05-01T13:41:05Z</time></trkpt><trkpt lat="42.21928407009038" lon="14.213487512737178"><ele>325.0</ele><time>2026-05-01T13:41:06Z</time></trkpt><trkpt lat="42.21920496890002" lon="14.213487890198493"><ele>325.0</ele><time>2026-05-01T13:41:07Z</time></trkpt><trkpt lat="42.21913684184216" lon="14.213492374148426"><ele>325.0</ele><time>2026-05-01T13:41:08Z</time></trkpt><trkpt lat="42.219049818967854" lon="14.213503396689585"><ele>325.0</ele><time>2026-05-01T13:41:10Z</time></trkpt><trkpt lat="42.219113607691206" lon="14.213506776232835"><ele>325.0</ele><time>2026-05-01T13:41:13Z</time></trkpt><trkpt lat="42.21917738793373" lon="14.213507095179041"><ele>325.0</ele><time>2026-05-01T13:41:15Z</time></trkpt><trkpt lat="42.21905476195042" lon="14.213789408798979"><ele>325.0</ele><time>2026-05-01T13:41:16Z</time></trkpt><trkpt lat="42.21956060075437" lon="14.213572713265336"><ele>325.0</ele><time>2026-05-01T13:41:18Z</time></trkpt><trkpt lat="42.219741219799744" lon="14.213633859088558"><ele>325.0</ele><time>2026-05-01T13:41:19Z</time></trkpt><trkpt lat="42.21984286225226" lon="14.21376640759881"><ele>325.0</ele><time>2026-05-01T13:41:20Z</time></trkpt><trkpt lat="42.21989636626924" lon="14.213862074241035"><ele>325.0</ele><time>2026-05-01T13:41:21Z</time></trkpt><trkpt lat="42.219923926104606" lon="14.213958202875924"><ele>325.4</ele><time>2026-05-01T13:41:22Z</time></trkpt><trkpt lat="42.2199972758468" lon="14.214034357254832"><ele>325.8</ele><time>2026-05-01T13:41:24Z</time></trkpt><trkpt lat="42.22005757066292" lon="14.213968188308497"><ele>326.20000000000005</ele><time>2026-05-01T13:41:26Z</time></trkpt><trkpt lat="42.22010931103264" lon="14.213877006614023"><ele>326.6</ele><time>2026-05-01T13:41:28Z</time></trkpt><trkpt lat="42.22012443184506" lon="14.21378963149796"><ele>327.0</ele><time>2026-05-01T13:41:32Z</time></trkpt><trkpt lat="42.219942293153686" lon="14.213799045636076"><ele>326.5</ele><time>2026-05-01T13:41:34Z</time></trkpt><trkpt lat="42.219910652669434" lon="14.213715009776148"><ele>326.0</ele><time>2026-05-01T13:41:36Z</time></trkpt><trkpt lat="42.21984740133766" lon="14.213631740920015"><ele>325.5</ele><time>2026-05-01T13:41:39Z</time></trkpt><trkpt lat="42.2197883367788" lon="14.21356384640615"><ele>325.0</ele><time>2026-05-01T13:41:41Z</time></trkpt><trkpt lat="42.21994810171315" lon="14.21328974909421"><ele>324.5</ele><time>2026-05-01T13:41:43Z</time></trkpt><trkpt lat="42.219995579466925" lon="14.21321225217906"><ele>324.0</ele><time>2026-05-01T13:41:44Z</time></trkpt><trkpt lat="42.22004584335431" lon="14.213122676736454"><ele>323.5</ele><time>2026-05-01T13:41:45Z</time></trkpt><trkpt lat="42.22010538711983" lon="14.213024104141818"><ele>323.0</ele><time>2026-05-01T13:41:46Z</time></trkpt><trkpt lat="42.220161532961335" lon="14.212939677976475"><ele>322.5</ele><time>2026-05-01T13:41:47Z</time></trkpt><trkpt lat="42.22021916352032" lon="14.21286221624035"><ele>322.0</ele><time>2026-05-01T13:41:48Z</time></trkpt><trkpt lat="42.22028330147514" lon="14.212790146834514"><ele>322.0</ele><time>2026-05-01T13:41:49Z</time></trkpt><trkpt lat="42.22034896354669" lon="14.212714156031144"><ele>322.0</ele><time>2026-05-01T13:41:50Z</time></trkpt><trkpt lat="42.2204145519547" lon="14.212634165153895"><ele>322.0</ele><time>2026-05-01T13:41:51Z</time></trkpt><trkpt lat="42.22048546336161" lon="14.212558475751873"><ele>322.0</ele><time>2026-05-01T13:41:52Z</time></trkpt><trkpt lat="42.22055468224234" lon="14.21247114217078"><ele>322.0</ele><time>2026-05-01T13:41:53Z</time></trkpt><trkpt lat="42.22062510200895" lon="14.212383862758275"><ele>321.6</ele><time>2026-05-01T13:41:54Z</time></trkpt><trkpt lat="42.22070044888867" lon="14.212285686841659"><ele>321.20000000000005</ele><time>2026-05-01T13:41:55Z</time></trkpt><trkpt lat="42.22078234202678" lon="14.212168569817372"><ele>320.8</ele><time>2026-05-01T13:41:56Z</time></trkpt><trkpt lat="42.22087306477252" lon="14.212082776236134"><ele>320.4</ele><time>2026-05-01T13:41:57Z</time></trkpt><trkpt lat="42.22095149047918" lon="14.211983954592247"><ele>320.0</ele><time>2026-05-01T13:41:58Z</time></trkpt><trkpt lat="42.22102675995887" lon="14.211873911102145"><ele>320.0</ele><time>2026-05-01T13:41:59Z</time></trkpt><trkpt lat="42.22112888332062" lon="14.211806089923869"><ele>320.0</ele><time>2026-05-01T13:42:00Z</time></trkpt><trkpt lat="42.22122596706029" lon="14.211714280257445"><ele>320.0</ele><time>2026-05-01T13:42:01Z</time></trkpt><trkpt lat="42.221331327051004" lon="14.211657485455948"><ele>320.0</ele><time>2026-05-01T13:42:02Z</time></trkpt><trkpt lat="42.22143302066293" lon="14.211594500069596"><ele>319.0</ele><time>2026-05-01T13:42:03Z</time></trkpt><trkpt lat="42.2215377134189" lon="14.211526667891576"><ele>318.0</ele><time>2026-05-01T13:42:04Z</time></trkpt><trkpt lat="42.221648362422705" lon="14.211489075421923"><ele>317.0</ele><time>2026-05-01T13:42:05Z</time></trkpt><trkpt lat="42.22175715723116" lon="14.211425617218893"><ele>316.0</ele><time>2026-05-01T13:42:06Z</time></trkpt><trkpt lat="42.22185113338724" lon="14.211335971092497"><ele>315.5</ele><time>2026-05-01T13:42:07Z</time></trkpt><trkpt lat="42.22195567961329" lon="14.211275864954276"><ele>315.0</ele><time>2026-05-01T13:42:08Z</time></trkpt><trkpt lat="42.222067397568914" lon="14.21122868383784"><ele>314.5</ele><time>2026-05-01T13:42:09Z</time></trkpt><trkpt lat="42.22217656713237" lon="14.21119621713536"><ele>314.0</ele><time>2026-05-01T13:42:10Z</time></trkpt><trkpt lat="42.22228681619937" lon="14.21116486929867"><ele>313.2</ele><time>2026-05-01T13:42:11Z</time></trkpt><trkpt lat="42.222400050720964" lon="14.211122574894912"><ele>312.4</ele><time>2026-05-01T13:42:12Z</time></trkpt><trkpt lat="42.22250204087778" lon="14.211071559214625"><ele>311.6</ele><time>2026-05-01T13:42:13Z</time></trkpt><trkpt lat="42.222594073076465" lon="14.211010926706662"><ele>310.8</ele><time>2026-05-01T13:42:14Z</time></trkpt><trkpt lat="42.222682536936645" lon="14.210955159009897"><ele>310.0</ele><time>2026-05-01T13:42:15Z</time></trkpt><trkpt lat="42.22275903900418" lon="14.210904930863133"><ele>310.0</ele><time>2026-05-01T13:42:16Z</time></trkpt><trkpt lat="42.222829114318735" lon="14.210842203716984"><ele>310.0</ele><time>2026-05-01T13:42:17Z</time></trkpt><trkpt lat="42.222890235513866" lon="14.210780749024035"><ele>310.0</ele><time>2026-05-01T13:42:18Z</time></trkpt><trkpt lat="42.22296059905442" lon="14.210714301176989"><ele>310.0</ele><time>2026-05-01T13:42:19Z</time></trkpt><trkpt lat="42.223028918415885" lon="14.210653287138546"><ele>310.0</ele><time>2026-05-01T13:42:20Z</time></trkpt><trkpt lat="42.22308420895529" lon="14.210603247337414"><ele>310.0</ele><time>2026-05-01T13:42:21Z</time></trkpt><trkpt lat="42.22314252713551" lon="14.210541642197626"><ele>309.8333333333333</ele><time>2026-05-01T13:42:22Z</time></trkpt><trkpt lat="42.223212728214286" lon="14.210472081023171"><ele>309.66666666666663</ele><time>2026-05-01T13:42:23Z</time></trkpt><trkpt lat="42.22327904441833" lon="14.21039987774549"><ele>309.5</ele><time>2026-05-01T13:42:24Z</time></trkpt><trkpt lat="42.22333530264571" lon="14.210319166503337"><ele>309.3333333333333</ele><time>2026-05-01T13:42:25Z</time></trkpt><trkpt lat="42.22339516069794" lon="14.210227803589323"><ele>309.1666666666667</ele><time>2026-05-01T13:42:26Z</time></trkpt><trkpt lat="42.22345802460446" lon="14.210147379668433"><ele>309.0</ele><time>2026-05-01T13:42:27Z</time></trkpt><trkpt lat="42.22351858679675" lon="14.21007893649172"><ele>309.00000000000006</ele><time>2026-05-01T13:42:28Z</time></trkpt><trkpt lat="42.22359164106718" lon="14.210006538670266"><ele>309.0</ele><time>2026-05-01T13:42:29Z</time></trkpt><trkpt lat="42.2236471089128" lon="14.209954105383932"><ele>309.0</ele><time>2026-05-01T13:42:30Z</time></trkpt><trkpt lat="42.22370701067529" lon="14.209900479506667"><ele>309.0</ele><time>2026-05-01T13:42:31Z</time></trkpt><trkpt lat="42.22377131576218" lon="14.209863395086659"><ele>309.0</ele><time>2026-05-01T13:42:32Z</time></trkpt><trkpt lat="42.22383654532563" lon="14.209848058198146"><ele>309.00000000000006</ele><time>2026-05-01T13:42:33Z</time></trkpt><trkpt lat="42.2239050878736" lon="14.209845663428323"><ele>309.0</ele><time>2026-05-01T13:42:34Z</time></trkpt><trkpt lat="42.223979950747136" lon="14.20986275377227"><ele>309.0</ele><time>2026-05-01T13:42:35Z</time></trkpt><trkpt lat="42.22406045027151" lon="14.209880242932048"><ele>309.0</ele><time>2026-05-01T13:42:36Z</time></trkpt><trkpt lat="42.22413996978119" lon="14.209905541286902"><ele>309.0</ele><time>2026-05-01T13:42:37Z</time></trkpt><trkpt lat="42.22420293976442" lon="14.209901328407637"><ele>309.0</ele><time>2026-05-01T13:42:38Z</time></trkpt><trkpt lat="42.22434034921295" lon="14.209872125664317"><ele>309.0</ele><time>2026-05-01T13:42:40Z</time></trkpt><trkpt lat="42.22441636896429" lon="14.209796487841984"><ele>309.3333333333333</ele><time>2026-05-01T13:42:41Z</time></trkpt><trkpt lat="42.22446756625344" lon="14.209686974161789"><ele>309.6666666666667</ele><time>2026-05-01T13:42:42Z</time></trkpt><trkpt lat="42.224526087543595" lon="14.209607980104217"><ele>310.0</ele><time>2026-05-01T13:42:43Z</time></trkpt><trkpt lat="42.22457734040407" lon="14.20953837787496"><ele>310.33333333333337</ele><time>2026-05-01T13:42:44Z</time></trkpt><trkpt lat="42.224639780128584" lon="14.20945315698188"><ele>310.6666666666667</ele><time>2026-05-01T13:42:45Z</time></trkpt><trkpt lat="42.22469196069728" lon="14.2093849737517"><ele>311.0</ele><time>2026-05-01T13:42:46Z</time></trkpt><trkpt lat="42.22474972951048" lon="14.209317103362835"><ele>311.0</ele><time>2026-05-01T13:42:47Z</time></trkpt><trkpt lat="42.224806565946444" lon="14.209236724585367"><ele>311.0</ele><time>2026-05-01T13:42:48Z</time></trkpt><trkpt lat="42.22488436788788" lon="14.209197777014113"><ele>311.0</ele><time>2026-05-01T13:42:49Z</time></trkpt><trkpt lat="42.22497183190407" lon="14.209166514098976"><ele>311.0</ele><time>2026-05-01T13:42:50Z</time></trkpt><trkpt lat="42.22506929372342" lon="14.209145057600457"><ele>311.0</ele><time>2026-05-01T13:42:51Z</time></trkpt><trkpt lat="42.22517104121434" lon="14.209117422202873"><ele>310.0</ele><time>2026-05-01T13:42:52Z</time></trkpt><trkpt lat="42.22527686542497" lon="14.209081705858651"><ele>309.0</ele><time>2026-05-01T13:42:53Z</time></trkpt><trkpt lat="42.22539828267395" lon="14.209009243515291"><ele>308.0</ele><time>2026-05-01T13:42:54Z</time></trkpt><trkpt lat="42.225519338227194" lon="14.208959549263527"><ele>307.0</ele><time>2026-05-01T13:42:55Z</time></trkpt><trkpt lat="42.225599921539974" lon="14.208909166057953"><ele>306.2</ele><time>2026-05-01T13:42:56Z</time></trkpt><trkpt lat="42.22569986478237" lon="14.208857916579191"><ele>305.4</ele><time>2026-05-01T13:42:57Z</time></trkpt><trkpt lat="42.2258099130164" lon="14.208821315849855"><ele>304.6</ele><time>2026-05-01T13:42:58Z</time></trkpt><trkpt lat="42.225907369182" lon="14.20879659669381"><ele>303.8</ele><time>2026-05-01T13:42:59Z</time></trkpt><trkpt lat="42.22600067368935" lon="14.208771510394042"><ele>303.0</ele><time>2026-05-01T13:43:00Z</time></trkpt><trkpt lat="42.22607371537194" lon="14.208745609668814"><ele>303.0</ele><time>2026-05-01T13:43:01Z</time></trkpt><trkpt lat="42.22613337288084" lon="14.20869511588914"><ele>303.0</ele><time>2026-05-01T13:43:02Z</time></trkpt><trkpt lat="42.22619115731268" lon="14.208644984726433"><ele>303.0</ele><time>2026-05-01T13:43:03Z</time></trkpt><trkpt lat="42.22624798158524" lon="14.208594171781625"><ele>303.0</ele><time>2026-05-01T13:43:04Z</time></trkpt><trkpt lat="42.22629048255728" lon="14.208477903708463"><ele>303.0</ele><time>2026-05-01T13:43:05Z</time></trkpt><trkpt lat="42.22633803288476" lon="14.208358825197621"><ele>303.0</ele><time>2026-05-01T13:43:06Z</time></trkpt><trkpt lat="42.226385583214594" lon="14.208229109038104"><ele>302.6</ele><time>2026-05-01T13:43:07Z</time></trkpt><trkpt lat="42.2264264406043" lon="14.208112807600775"><ele>302.20000000000005</ele><time>2026-05-01T13:43:08Z</time></trkpt><trkpt lat="42.22646528461429" lon="14.208004487979037"><ele>301.8</ele><time>2026-05-01T13:43:09Z</time></trkpt><trkpt lat="42.22649991653201" lon="14.207918681754792"><ele>301.40000000000003</ele><time>2026-05-01T13:43:10Z</time></trkpt><trkpt lat="42.22653514714271" lon="14.20784268575939"><ele>301.0</ele><time>2026-05-01T13:43:11Z</time></trkpt><trkpt lat="42.22661193561489" lon="14.20770549863117"><ele>300.6</ele><time>2026-05-01T13:43:13Z</time></trkpt><trkpt lat="42.22666623714402" lon="14.207622374761907"><ele>300.20000000000005</ele><time>2026-05-01T13:43:14Z</time></trkpt><trkpt lat="42.2267366590224" lon="14.207526771822021"><ele>299.79999999999995</ele><time>2026-05-01T13:43:15Z</time></trkpt><trkpt lat="42.226835481044766" lon="14.207425707834425"><ele>299.4</ele><time>2026-05-01T13:43:16Z</time></trkpt><trkpt lat="42.22695936948768" lon="14.207341979450618"><ele>299.0</ele><time>2026-05-01T13:43:17Z</time></trkpt><trkpt lat="42.22705918259857" lon="14.207278034569656"><ele>298.83333333333337</ele><time>2026-05-01T13:43:18Z</time></trkpt><trkpt lat="42.22714829390956" lon="14.20722484740549"><ele>298.6666666666667</ele><time>2026-05-01T13:43:19Z</time></trkpt><trkpt lat="42.22722760141964" lon="14.207159302057192"><ele>298.5</ele><time>2026-05-01T13:43:20Z</time></trkpt><trkpt lat="42.22730707448021" lon="14.20712690236111"><ele>298.3333333333333</ele><time>2026-05-01T13:43:21Z</time></trkpt><trkpt lat="42.22737428109385" lon="14.207073112127071"><ele>298.16666666666663</ele><time>2026-05-01T13:43:22Z</time></trkpt><trkpt lat="42.227429138629546" lon="14.20702598930161"><ele>298.0</ele><time>2026-05-01T13:43:23Z</time></trkpt><trkpt lat="42.227481144598364" lon="14.206954816977428"><ele>297.2</ele><time>2026-05-01T13:43:24Z</time></trkpt><trkpt lat="42.227540621437264" lon="14.206898493240491"><ele>296.4</ele><time>2026-05-01T13:43:25Z</time></trkpt><trkpt lat="42.227597168985604" lon="14.206833305469221"><ele>295.59999999999997</ele><time>2026-05-01T13:43:26Z</time></trkpt><trkpt lat="42.22763780333779" lon="14.206717544349237"><ele>294.8</ele><time>2026-05-01T13:43:27Z</time></trkpt><trkpt lat="42.22765828822764" lon="14.206581588530046"><ele>294.0</ele><time>2026-05-01T13:43:28Z</time></trkpt><trkpt lat="42.22770078919013" lon="14.206449835408968"><ele>293.5</ele><time>2026-05-01T13:43:29Z</time></trkpt><trkpt lat="42.22774094474664" lon="14.206321691459543"><ele>293.0</ele><time>2026-05-01T13:43:30Z</time></trkpt><trkpt lat="42.22776560170078" lon="14.206227601118133"><ele>292.5</ele><time>2026-05-01T13:43:31Z</time></trkpt><trkpt lat="42.22778875936471" lon="14.206145741443152"><ele>292.0</ele><time>2026-05-01T13:43:32Z</time></trkpt><trkpt lat="42.22783206262812" lon="14.20599233137458"><ele>291.5</ele><time>2026-05-01T13:43:34Z</time></trkpt><trkpt lat="42.22783344296714" lon="14.20589677968422"><ele>291.0</ele><time>2026-05-01T13:43:35Z</time></trkpt><trkpt lat="42.22783799376253" lon="14.20579883265385"><ele>291.0</ele><time>2026-05-01T13:43:36Z</time></trkpt><trkpt lat="42.227804614424215" lon="14.205702186241949"><ele>291.0</ele><time>2026-05-01T13:43:37Z</time></trkpt><trkpt lat="42.22776376034295" lon="14.205610341072132"><ele>291.0</ele><time>2026-05-01T13:43:38Z</time></trkpt><trkpt lat="42.22772584971845" lon="14.20547874576205"><ele>291.0</ele><time>2026-05-01T13:43:40Z</time></trkpt><trkpt lat="42.22771284781961" lon="14.205318703373043"><ele>291.0</ele><time>2026-05-01T13:43:42Z</time></trkpt><trkpt lat="42.22774636118579" lon="14.205190468858918"><ele>290.8333333333333</ele><time>2026-05-01T13:43:44Z</time></trkpt><trkpt lat="42.22780728186643" lon="14.2050518347486"><ele>290.6666666666667</ele><time>2026-05-01T13:43:46Z</time></trkpt><trkpt lat="42.227891736189974" lon="14.204980589502075"><ele>290.5</ele><time>2026-05-01T13:43:48Z</time></trkpt><trkpt lat="42.227958462679865" lon="14.204982987684184"><ele>290.33333333333337</ele><time>2026-05-01T13:43:49Z</time></trkpt><trkpt lat="42.22802974194681" lon="14.204944054002304"><ele>290.1666666666667</ele><time>2026-05-01T13:43:50Z</time></trkpt><trkpt lat="42.228094086103404" lon="14.20489840706278"><ele>290.0</ele><time>2026-05-01T13:43:51Z</time></trkpt><trkpt lat="42.228192416352066" lon="14.204806288278842"><ele>290.0</ele><time>2026-05-01T13:43:53Z</time></trkpt><trkpt lat="42.22824733862996" lon="14.204743325200576"><ele>290.0</ele><time>2026-05-01T13:43:54Z</time></trkpt><trkpt lat="42.22831662122569" lon="14.20468621015659"><ele>290.0</ele><time>2026-05-01T13:43:55Z</time></trkpt><trkpt lat="42.22838043791267" lon="14.204578075498235"><ele>290.0</ele><time>2026-05-01T13:43:56Z</time></trkpt><trkpt lat="42.2284231333526" lon="14.204456270058628"><ele>290.0</ele><time>2026-05-01T13:43:57Z</time></trkpt><trkpt lat="42.22847984534081" lon="14.204300262498528"><ele>290.0</ele><time>2026-05-01T13:43:59Z</time></trkpt><trkpt lat="42.22852064796132" lon="14.20422435368921"><ele>290.0</ele><time>2026-05-01T13:44:00Z</time></trkpt><trkpt lat="42.22859601592685" lon="14.204109135473095"><ele>290.0</ele><time>2026-05-01T13:44:02Z</time></trkpt><trkpt lat="42.22863696898001" lon="14.20403362870375"><ele>290.0</ele><time>2026-05-01T13:44:03Z</time></trkpt><trkpt lat="42.22871750878706" lon="14.203970358658134"><ele>290.0</ele><time>2026-05-01T13:44:04Z</time></trkpt><trkpt lat="42.22881351733395" lon="14.20394144203879"><ele>290.0</ele><time>2026-05-01T13:44:05Z</time></trkpt><trkpt lat="42.228899740850814" lon="14.203879444902249"><ele>289.6</ele><time>2026-05-01T13:44:06Z</time></trkpt><trkpt lat="42.22900016061287" lon="14.203831134007922"><ele>289.2</ele><time>2026-05-01T13:44:07Z</time></trkpt><trkpt lat="42.229100675160744" lon="14.203773930428286"><ele>288.8</ele><time>2026-05-01T13:44:08Z</time></trkpt><trkpt lat="42.22918748447704" lon="14.203711381004851"><ele>288.4</ele><time>2026-05-01T13:44:09Z</time></trkpt><trkpt lat="42.22927560667196" lon="14.203647173827894"><ele>288.0</ele><time>2026-05-01T13:44:10Z</time></trkpt><trkpt lat="42.22936580655022" lon="14.203599823464506"><ele>288.0</ele><time>2026-05-01T13:44:11Z</time></trkpt><trkpt lat="42.22943113453498" lon="14.2035081319098"><ele>288.0</ele><time>2026-05-01T13:44:12Z</time></trkpt><trkpt lat="42.229490747253536" lon="14.203433525278895"><ele>288.0</ele><time>2026-05-01T13:44:13Z</time></trkpt><trkpt lat="42.229541883103806" lon="14.20334012322223"><ele>288.0</ele><time>2026-05-01T13:44:14Z</time></trkpt><trkpt lat="42.22957440079036" lon="14.203231890324737"><ele>288.0</ele><time>2026-05-01T13:44:15Z</time></trkpt><trkpt lat="42.22961863802352" lon="14.203108895624533"><ele>288.0</ele><time>2026-05-01T13:44:16Z</time></trkpt><trkpt lat="42.229597101464485" lon="14.202963116202127"><ele>287.3333333333333</ele><time>2026-05-01T13:44:17Z</time></trkpt><trkpt lat="42.229611499438526" lon="14.202838052505495"><ele>286.6666666666667</ele><time>2026-05-01T13:44:18Z</time></trkpt><trkpt lat="42.22962565035461" lon="14.202711238521115"><ele>286.0</ele><time>2026-05-01T13:44:19Z</time></trkpt><trkpt lat="42.229641706172124" lon="14.202593678199252"><ele>285.33333333333337</ele><time>2026-05-01T13:44:20Z</time></trkpt><trkpt lat="42.22966387158587" lon="14.202482034654208"><ele>284.6666666666667</ele><time>2026-05-01T13:44:21Z</time></trkpt><trkpt lat="42.22968491277462" lon="14.202372072137099"><ele>284.0</ele><time>2026-05-01T13:44:22Z</time></trkpt><trkpt lat="42.22974361488111" lon="14.202255923238189"><ele>283.75</ele><time>2026-05-01T13:44:23Z</time></trkpt><trkpt lat="42.22981268756213" lon="14.202137274238803"><ele>283.5</ele><time>2026-05-01T13:44:24Z</time></trkpt><trkpt lat="42.229892608179306" lon="14.20201310720804"><ele>283.25</ele><time>2026-05-01T13:44:25Z</time></trkpt><trkpt lat="42.22999654623717" lon="14.201915829302976"><ele>283.0</ele><time>2026-05-01T13:44:26Z</time></trkpt><trkpt lat="42.23011444840127" lon="14.201813779587136"><ele>283.0</ele><time>2026-05-01T13:44:27Z</time></trkpt><trkpt lat="42.230243089323395" lon="14.201690655444251"><ele>283.0</ele><time>2026-05-01T13:44:28Z</time></trkpt><trkpt lat="42.23039383799121" lon="14.2016289787215"><ele>283.0</ele><time>2026-05-01T13:44:29Z</time></trkpt><trkpt lat="42.23051606125842" lon="14.201542909389694"><ele>282.66666666666663</ele><time>2026-05-01T13:44:30Z</time></trkpt><trkpt lat="42.23061702029891" lon="14.201403962195966"><ele>282.3333333333333</ele><time>2026-05-01T13:44:31Z</time></trkpt><trkpt lat="42.23073254954589" lon="14.201264723002627"><ele>282.0</ele><time>2026-05-01T13:44:32Z</time></trkpt><trkpt lat="42.23083995686197" lon="14.20107209832452"><ele>282.0</ele><time>2026-05-01T13:44:33Z</time></trkpt><trkpt lat="42.23091125793842" lon="14.200893498914308"><ele>282.0</ele><time>2026-05-01T13:44:34Z</time></trkpt><trkpt lat="42.23097546349861" lon="14.200754988965738"><ele>282.0</ele><time>2026-05-01T13:44:35Z</time></trkpt><trkpt lat="42.23105366985522" lon="14.200653917379478"><ele>282.0</ele><time>2026-05-01T13:44:36Z</time></trkpt><trkpt lat="42.23115685924638" lon="14.200546341533336"><ele>281.25</ele><time>2026-05-01T13:44:37Z</time></trkpt><trkpt lat="42.23126838965892" lon="14.200432787775412"><ele>280.5</ele><time>2026-05-01T13:44:38Z</time></trkpt><trkpt lat="42.23136099985338" lon="14.200311140704923"><ele>279.75</ele><time>2026-05-01T13:44:39Z</time></trkpt><trkpt lat="42.23143780503804" lon="14.200198891770086"><ele>279.0</ele><time>2026-05-01T13:44:40Z</time></trkpt><trkpt lat="42.23151703944533" lon="14.200082558143688"><ele>279.0</ele><time>2026-05-01T13:44:41Z</time></trkpt><trkpt lat="42.23160539378219" lon="14.199957573426305"><ele>279.0</ele><time>2026-05-01T13:44:42Z</time></trkpt><trkpt lat="42.231691700520834" lon="14.199837892113397"><ele>279.0</ele><time>2026-05-01T13:44:43Z</time></trkpt><trkpt lat="42.23177210508304" lon="14.199740377579555"><ele>279.0</ele><time>2026-05-01T13:44:44Z</time></trkpt><trkpt lat="42.231841929169" lon="14.199664611707286"><ele>279.0</ele><time>2026-05-01T13:44:45Z</time></trkpt><trkpt lat="42.231896063629065" lon="14.199599307753004"><ele>278.4</ele><time>2026-05-01T13:44:46Z</time></trkpt><trkpt lat="42.2319517552139" lon="14.199514433831792"><ele>277.79999999999995</ele><time>2026-05-01T13:44:47Z</time></trkpt><trkpt lat="42.232009971004224" lon="14.199405447181425"><ele>277.20000000000005</ele><time>2026-05-01T13:44:48Z</time></trkpt><trkpt lat="42.23207300500813" lon="14.19927974832029"><ele>276.6</ele><time>2026-05-01T13:44:49Z</time></trkpt><trkpt lat="42.2321514511948" lon="14.199140036498575"><ele>276.0</ele><time>2026-05-01T13:44:50Z</time></trkpt><trkpt lat="42.232223952850866" lon="14.199019911342438"><ele>275.0</ele><time>2026-05-01T13:44:51Z</time></trkpt><trkpt lat="42.23229826334562" lon="14.198901706876843"><ele>274.0</ele><time>2026-05-01T13:44:52Z</time></trkpt><trkpt lat="42.23238250269092" lon="14.1987742568965"><ele>273.0</ele><time>2026-05-01T13:44:53Z</time></trkpt><trkpt lat="42.232467462739145" lon="14.198656893601836"><ele>272.0</ele><time>2026-05-01T13:44:54Z</time></trkpt><trkpt lat="42.23254962916381" lon="14.19854748057252"><ele>272.0</ele><time>2026-05-01T13:44:55Z</time></trkpt><trkpt lat="42.232629310774875" lon="14.198440574912555"><ele>272.0</ele><time>2026-05-01T13:44:56Z</time></trkpt><trkpt lat="42.23270854902262" lon="14.198330015118284"><ele>272.0</ele><time>2026-05-01T13:44:57Z</time></trkpt><trkpt lat="42.23278121219932" lon="14.198223115524348"><ele>272.0</ele><time>2026-05-01T13:44:58Z</time></trkpt><trkpt lat="42.23282998137896" lon="14.19812479763488"><ele>272.0</ele><time>2026-05-01T13:44:59Z</time></trkpt><trkpt lat="42.23286332115154" lon="14.198040545413212"><ele>271.1666666666667</ele><time>2026-05-01T13:45:00Z</time></trkpt><trkpt lat="42.23289986347945" lon="14.197929649157006"><ele>270.33333333333337</ele><time>2026-05-01T13:45:02Z</time></trkpt><trkpt lat="42.232924175691466" lon="14.19783435446954"><ele>269.5</ele><time>2026-05-01T13:45:04Z</time></trkpt><trkpt lat="42.23295985035492" lon="14.197759846592204"><ele>268.6666666666667</ele><time>2026-05-01T13:45:08Z</time></trkpt><trkpt lat="42.233066687203674" lon="14.197785180100386"><ele>267.8333333333333</ele><time>2026-05-01T13:45:09Z</time></trkpt><trkpt lat="42.233159261429556" lon="14.197743630446453"><ele>267.0</ele><time>2026-05-01T13:45:12Z</time></trkpt><trkpt lat="42.23324846305751" lon="14.197703857016503"><ele>267.0</ele><time>2026-05-01T13:45:14Z</time></trkpt><trkpt lat="42.233332578466594" lon="14.197654214111335"><ele>267.0</ele><time>2026-05-01T13:45:16Z</time></trkpt><trkpt lat="42.23344446758779" lon="14.197575692338994"><ele>267.0</ele><time>2026-05-01T13:45:18Z</time></trkpt><trkpt lat="42.23355840942099" lon="14.197480205244883"><ele>267.0</ele><time>2026-05-01T13:45:20Z</time></trkpt><trkpt lat="42.23361299122289" lon="14.197423400429619"><ele>267.0</ele><time>2026-05-01T13:45:21Z</time></trkpt><trkpt lat="42.233701544649385" lon="14.197306456332958"><ele>267.0</ele><time>2026-05-01T13:45:23Z</time></trkpt><trkpt lat="42.23375135870921" lon="14.197219874468956"><ele>267.0</ele><time>2026-05-01T13:45:24Z</time></trkpt><trkpt lat="42.233796521256906" lon="14.197125428792248"><ele>267.0</ele><time>2026-05-01T13:45:25Z</time></trkpt><trkpt lat="42.23383121139124" lon="14.197041232255957"><ele>267.0</ele><time>2026-05-01T13:45:26Z</time></trkpt><trkpt lat="42.23389131322839" lon="14.196881577419886"><ele>267.0</ele><time>2026-05-01T13:45:28Z</time></trkpt><trkpt lat="42.233919035287144" lon="14.19680350581498"><ele>267.0</ele><time>2026-05-01T13:45:29Z</time></trkpt><trkpt lat="42.233958686449874" lon="14.196666490539117"><ele>266.8571428571429</ele><time>2026-05-01T13:45:31Z</time></trkpt><trkpt lat="42.2339784243673" lon="14.196581991710527"><ele>266.7142857142857</ele><time>2026-05-01T13:45:32Z</time></trkpt><trkpt lat="42.23399976025235" lon="14.196495679583027"><ele>266.57142857142856</ele><time>2026-05-01T13:45:33Z</time></trkpt><trkpt lat="42.23402880078468" lon="14.196400643566424"><ele>266.42857142857144</ele><time>2026-05-01T13:45:34Z</time></trkpt><trkpt lat="42.23404968052106" lon="14.19630119034305"><ele>266.2857142857143</ele><time>2026-05-01T13:45:35Z</time></trkpt><trkpt lat="42.23409021927405" lon="14.196218109290067"><ele>266.14285714285717</ele><time>2026-05-01T13:45:36Z</time></trkpt><trkpt lat="42.234133251303014" lon="14.196134739911281"><ele>266.0</ele><time>2026-05-01T13:45:37Z</time></trkpt><trkpt lat="42.234173522352535" lon="14.196054209515353"><ele>266.0</ele><time>2026-05-01T13:45:38Z</time></trkpt><trkpt lat="42.23421065212097" lon="14.195962207734874"><ele>266.0</ele><time>2026-05-01T13:45:39Z</time></trkpt><trkpt lat="42.23425139238216" lon="14.195867985954798"><ele>266.0</ele><time>2026-05-01T13:45:40Z</time></trkpt><trkpt lat="42.23431246898711" lon="14.195791326486843"><ele>266.0</ele><time>2026-05-01T13:45:41Z</time></trkpt><trkpt lat="42.23436617618969" lon="14.195716635051397"><ele>266.0</ele><time>2026-05-01T13:45:42Z</time></trkpt><trkpt lat="42.23442358839115" lon="14.195639108667393"><ele>266.0</ele><time>2026-05-01T13:45:43Z</time></trkpt><trkpt lat="42.23448404283873" lon="14.19556155330638"><ele>266.0</ele><time>2026-05-01T13:45:44Z</time></trkpt><trkpt lat="42.23454029932742" lon="14.195491707195968"><ele>266.0</ele><time>2026-05-01T13:45:45Z</time></trkpt><trkpt lat="42.23458357251521" lon="14.195415186826681"><ele>266.0</ele><time>2026-05-01T13:45:46Z</time></trkpt><trkpt lat="42.23464457693829" lon="14.195344717525996"><ele>266.0</ele><time>2026-05-01T13:45:47Z</time></trkpt><trkpt lat="42.234701212805255" lon="14.195301433744163"><ele>266.0</ele><time>2026-05-01T13:45:48Z</time></trkpt><trkpt lat="42.23479362525448" lon="14.195169775510518"><ele>266.0</ele><time>2026-05-01T13:45:50Z</time></trkpt><trkpt lat="42.23485801029585" lon="14.195115468370775"><ele>266.0</ele><time>2026-05-01T13:45:51Z</time></trkpt><trkpt lat="42.23493175696027" lon="14.195057956561419"><ele>266.0</ele><time>2026-05-01T13:45:52Z</time></trkpt><trkpt lat="42.235005909012465" lon="14.194984610250183"><ele>266.0</ele><time>2026-05-01T13:45:53Z</time></trkpt><trkpt lat="42.23507942822825" lon="14.19488681932778"><ele>266.0</ele><time>2026-05-01T13:45:54Z</time></trkpt><trkpt lat="42.23515452288585" lon="14.194799768944334"><ele>266.0</ele><time>2026-05-01T13:45:55Z</time></trkpt><trkpt lat="42.23522490156046" lon="14.194723371177885"><ele>265.85714285714283</ele><time>2026-05-01T13:45:56Z</time></trkpt><trkpt lat="42.235296580981014" lon="14.19467564015746"><ele>265.7142857142857</ele><time>2026-05-01T13:45:57Z</time></trkpt><trkpt lat="42.23534885946496" lon="14.19462456652554"><ele>265.57142857142856</ele><time>2026-05-01T13:45:58Z</time></trkpt><trkpt lat="42.23540786962428" lon="14.194567945724083"><ele>265.42857142857144</ele><time>2026-05-01T13:45:59Z</time></trkpt><trkpt lat="42.23547102120954" lon="14.194508999737"><ele>265.2857142857143</ele><time>2026-05-01T13:46:00Z</time></trkpt><trkpt lat="42.2355310069468" lon="14.194457431566901"><ele>265.1428571428571</ele><time>2026-05-01T13:46:01Z</time></trkpt><trkpt lat="42.23559355831328" lon="14.194407342414321"><ele>265.0</ele><time>2026-05-01T13:46:02Z</time></trkpt><trkpt lat="42.235660896217496" lon="14.194348676455371"><ele>265.0</ele><time>2026-05-01T13:46:03Z</time></trkpt><trkpt lat="42.23574846962565" lon="14.194307232028905"><ele>265.0</ele><time>2026-05-01T13:46:04Z</time></trkpt><trkpt lat="42.23584492640424" lon="14.194278690244305"><ele>265.0</ele><time>2026-05-01T13:46:05Z</time></trkpt><trkpt lat="42.23592551219385" lon="14.194230192910245"><ele>265.0</ele><time>2026-05-01T13:46:06Z</time></trkpt><trkpt lat="42.235997165219715" lon="14.194157781303513"><ele>265.0</ele><time>2026-05-01T13:46:07Z</time></trkpt><trkpt lat="42.23607575299395" lon="14.194044877149544"><ele>264.25</ele><time>2026-05-01T13:46:08Z</time></trkpt><trkpt lat="42.23614479128389" lon="14.193905835578835"><ele>263.5</ele><time>2026-05-01T13:46:09Z</time></trkpt><trkpt lat="42.236201407545444" lon="14.193766147220087"><ele>262.75</ele><time>2026-05-01T13:46:10Z</time></trkpt><trkpt lat="42.23624777093682" lon="14.19361641501956"><ele>262.0</ele><time>2026-05-01T13:46:11Z</time></trkpt><trkpt lat="42.236279668722915" lon="14.193486222121903"><ele>262.0</ele><time>2026-05-01T13:46:12Z</time></trkpt><trkpt lat="42.23630924775307" lon="14.193359377976085"><ele>262.0</ele><time>2026-05-01T13:46:13Z</time></trkpt><trkpt lat="42.23633924318691" lon="14.193226464466663"><ele>262.0</ele><time>2026-05-01T13:46:14Z</time></trkpt><trkpt lat="42.236368655021366" lon="14.193096136984575"><ele>262.0</ele><time>2026-05-01T13:46:15Z</time></trkpt><trkpt lat="42.23639521483514" lon="14.192964978984552"><ele>262.0</ele><time>2026-05-01T13:46:16Z</time></trkpt><trkpt lat="42.236415736018365" lon="14.192861651905995"><ele>262.2</ele><time>2026-05-01T13:46:17Z</time></trkpt><trkpt lat="42.2364350041237" lon="14.192764634303462"><ele>262.4</ele><time>2026-05-01T13:46:18Z</time></trkpt><trkpt lat="42.23645989007824" lon="14.192657388444536"><ele>262.6</ele><time>2026-05-01T13:46:19Z</time></trkpt><trkpt lat="42.23648779098582" lon="14.192506699869357"><ele>262.8</ele><time>2026-05-01T13:46:20Z</time></trkpt><trkpt lat="42.23656456367537" lon="14.192330314519884"><ele>263.0</ele><time>2026-05-01T13:46:21Z</time></trkpt><trkpt lat="42.23662148620098" lon="14.192166221094764"><ele>261.8</ele><time>2026-05-01T13:46:22Z</time></trkpt><trkpt lat="42.23666306445125" lon="14.192038461009918"><ele>260.6</ele><time>2026-05-01T13:46:23Z</time></trkpt><trkpt lat="42.23670246096163" lon="14.1919233072771"><ele>259.4</ele><time>2026-05-01T13:46:24Z</time></trkpt><trkpt lat="42.236747826011865" lon="14.191804387269752"><ele>258.2</ele><time>2026-05-01T13:46:25Z</time></trkpt><trkpt lat="42.23681662733124" lon="14.191678597893857"><ele>257.0</ele><time>2026-05-01T13:46:26Z</time></trkpt><trkpt lat="42.236913080309385" lon="14.19155708232274"><ele>256.0</ele><time>2026-05-01T13:46:27Z</time></trkpt><trkpt lat="42.23700325667653" lon="14.191432426909934"><ele>255.0</ele><time>2026-05-01T13:46:28Z</time></trkpt><trkpt lat="42.23707692689381" lon="14.191330410927316"><ele>254.0</ele><time>2026-05-01T13:46:29Z</time></trkpt><trkpt lat="42.237142088413755" lon="14.191230465853371"><ele>253.0</ele><time>2026-05-01T13:46:30Z</time></trkpt><trkpt lat="42.23718827050522" lon="14.191123644159713"><ele>252.0</ele><time>2026-05-01T13:46:31Z</time></trkpt><trkpt lat="42.23721689474699" lon="14.190991485862382"><ele>252.0</ele><time>2026-05-01T13:46:32Z</time></trkpt><trkpt lat="42.237235569680514" lon="14.190841809719492"><ele>252.0</ele><time>2026-05-01T13:46:33Z</time></trkpt><trkpt lat="42.23726659583523" lon="14.190708316321247"><ele>252.0</ele><time>2026-05-01T13:46:34Z</time></trkpt><trkpt lat="42.23730784048145" lon="14.190598116417231"><ele>252.0</ele><time>2026-05-01T13:46:35Z</time></trkpt><trkpt lat="42.23735022302591" lon="14.19050217599668"><ele>252.0</ele><time>2026-05-01T13:46:36Z</time></trkpt><trkpt lat="42.237388513595874" lon="14.190389943270587"><ele>252.2</ele><time>2026-05-01T13:46:37Z</time></trkpt><trkpt lat="42.23746087501445" lon="14.190305419344487"><ele>252.39999999999998</ele><time>2026-05-01T13:46:38Z</time></trkpt><trkpt lat="42.237544474519474" lon="14.190240806650483"><ele>252.60000000000002</ele><time>2026-05-01T13:46:39Z</time></trkpt><trkpt lat="42.237654711893946" lon="14.190210386800203"><ele>252.8</ele><time>2026-05-01T13:46:40Z</time></trkpt><trkpt lat="42.23774504893422" lon="14.19009347381242"><ele>253.0</ele><time>2026-05-01T13:46:41Z</time></trkpt><trkpt lat="42.23781999285567" lon="14.189945560680561"><ele>251.75</ele><time>2026-05-01T13:46:42Z</time></trkpt><trkpt lat="42.23788114464115" lon="14.189779580999913"><ele>250.5</ele><time>2026-05-01T13:46:43Z</time></trkpt><trkpt lat="42.237905133581606" lon="14.189614348601355"><ele>249.25</ele><time>2026-05-01T13:46:44Z</time></trkpt><trkpt lat="42.2379349436343" lon="14.189445995805691"><ele>248.0</ele><time>2026-05-01T13:46:45Z</time></trkpt><trkpt lat="42.23795074408275" lon="14.189261004980048"><ele>248.0</ele><time>2026-05-01T13:46:46Z</time></trkpt><trkpt lat="42.23795083619923" lon="14.189094105842512"><ele>248.0</ele><time>2026-05-01T13:46:47Z</time></trkpt><trkpt lat="42.23796748562178" lon="14.188947763826349"><ele>248.0</ele><time>2026-05-01T13:46:48Z</time></trkpt><trkpt lat="42.23796405803232" lon="14.18880103376498"><ele>248.0</ele><time>2026-05-01T13:46:49Z</time></trkpt><trkpt lat="42.23794450637211" lon="14.188673958391526"><ele>248.0</ele><time>2026-05-01T13:46:50Z</time></trkpt><trkpt lat="42.23797272926924" lon="14.188539481878882"><ele>247.4</ele><time>2026-05-01T13:46:51Z</time></trkpt><trkpt lat="42.238023515157614" lon="14.188404088715314"><ele>246.8</ele><time>2026-05-01T13:46:52Z</time></trkpt><trkpt lat="42.238083108584256" lon="14.18830152643222"><ele>246.2</ele><time>2026-05-01T13:46:53Z</time></trkpt><trkpt lat="42.23815535302698" lon="14.188240493623901"><ele>245.6</ele><time>2026-05-01T13:46:54Z</time></trkpt><trkpt lat="42.2382197131253" lon="14.18816720369851"><ele>245.0</ele><time>2026-05-01T13:46:55Z</time></trkpt><trkpt lat="42.23826956056957" lon="14.188071408309721"><ele>244.71428571428572</ele><time>2026-05-01T13:46:56Z</time></trkpt><trkpt lat="42.238325080998244" lon="14.187991660312747"><ele>244.42857142857144</ele><time>2026-05-01T13:46:57Z</time></trkpt><trkpt lat="42.23835778145605" lon="14.187906872649183"><ele>244.14285714285714</ele><time>2026-05-01T13:46:58Z</time></trkpt><trkpt lat="42.238379294111" lon="14.187816785957407"><ele>243.85714285714286</ele><time>2026-05-01T13:46:59Z</time></trkpt><trkpt lat="42.23837562176828" lon="14.187706787613878"><ele>243.57142857142858</ele><time>2026-05-01T13:47:00Z</time></trkpt><trkpt lat="42.23837499392815" lon="14.187598986668531"><ele>243.28571428571428</ele><time>2026-05-01T13:47:01Z</time></trkpt><trkpt lat="42.23836010906543" lon="14.187512711691257"><ele>243.0</ele><time>2026-05-01T13:47:02Z</time></trkpt><trkpt lat="42.23841883128372" lon="14.187396134852918"><ele>243.0</ele><time>2026-05-01T13:47:04Z</time></trkpt><trkpt lat="42.2384730752049" lon="14.187344312589738"><ele>243.0</ele><time>2026-05-01T13:47:05Z</time></trkpt><trkpt lat="42.23854917910518" lon="14.187330371276524"><ele>243.0</ele><time>2026-05-01T13:47:06Z</time></trkpt><trkpt lat="42.23863061696514" lon="14.187281270292287"><ele>243.0</ele><time>2026-05-01T13:47:07Z</time></trkpt><trkpt lat="42.238722954740254" lon="14.187259877912446"><ele>243.0</ele><time>2026-05-01T13:47:08Z</time></trkpt><trkpt lat="42.23882005242877" lon="14.187263753471388"><ele>243.0</ele><time>2026-05-01T13:47:09Z</time></trkpt><trkpt lat="42.238919415233795" lon="14.187227930599311"><ele>244.5</ele><time>2026-05-01T13:47:10Z</time></trkpt><trkpt lat="42.238991593135616" lon="14.187156741460473"><ele>246.0</ele><time>2026-05-01T13:47:11Z</time></trkpt><trkpt lat="42.23903308386998" lon="14.187017764748331"><ele>247.5</ele><time>2026-05-01T13:47:12Z</time></trkpt><trkpt lat="42.239112044097524" lon="14.186884692069652"><ele>249.0</ele><time>2026-05-01T13:47:13Z</time></trkpt><trkpt lat="42.239164300993124" lon="14.186706470795595"><ele>249.0</ele><time>2026-05-01T13:47:14Z</time></trkpt><trkpt lat="42.23922949146551" lon="14.18656530142797"><ele>248.99999999999997</ele><time>2026-05-01T13:47:15Z</time></trkpt><trkpt lat="42.23928525098939" lon="14.186464606944806"><ele>248.99999999999997</ele><time>2026-05-01T13:47:16Z</time></trkpt><trkpt lat="42.23932253314821" lon="14.18638249209661"><ele>249.0</ele><time>2026-05-01T13:47:17Z</time></trkpt><trkpt lat="42.23940062608187" lon="14.186252413394504"><ele>249.0</ele><time>2026-05-01T13:47:19Z</time></trkpt><trkpt lat="42.23952053692302" lon="14.18613103884473"><ele>249.25</ele><time>2026-05-01T13:47:20Z</time></trkpt><trkpt lat="42.23961907256605" lon="14.186015806178219"><ele>249.5</ele><time>2026-05-01T13:47:21Z</time></trkpt><trkpt lat="42.23971502052968" lon="14.185895567407309"><ele>249.75</ele><time>2026-05-01T13:47:22Z</time></trkpt><trkpt lat="42.23980507770058" lon="14.185763816218085"><ele>250.0</ele><time>2026-05-01T13:47:23Z</time></trkpt><trkpt lat="42.239864174683994" lon="14.185641350801486"><ele>250.75</ele><time>2026-05-01T13:47:24Z</time></trkpt><trkpt lat="42.23991744485875" lon="14.18551488615738"><ele>251.5</ele><time>2026-05-01T13:47:25Z</time></trkpt><trkpt lat="42.23996724360422" lon="14.185373041883778"><ele>252.25</ele><time>2026-05-01T13:47:26Z</time></trkpt><trkpt lat="42.24004208526824" lon="14.185255690818753"><ele>253.0</ele><time>2026-05-01T13:47:27Z</time></trkpt><trkpt lat="42.24014106356089" lon="14.185172550453395"><ele>253.0</ele><time>2026-05-01T13:47:28Z</time></trkpt><trkpt lat="42.24022382070737" lon="14.185076947555016"><ele>253.0</ele><time>2026-05-01T13:47:29Z</time></trkpt><trkpt lat="42.240283731436435" lon="14.184986686832689"><ele>253.0</ele><time>2026-05-01T13:47:30Z</time></trkpt><trkpt lat="42.240349336833475" lon="14.184910657476701"><ele>253.0</ele><time>2026-05-01T13:47:31Z</time></trkpt><trkpt lat="42.24041967674878" lon="14.184832280790086"><ele>253.0</ele><time>2026-05-01T13:47:32Z</time></trkpt><trkpt lat="42.24048597078364" lon="14.184769235620342"><ele>253.0</ele><time>2026-05-01T13:47:33Z</time></trkpt><trkpt lat="42.24056909832657" lon="14.184692787622778"><ele>253.0</ele><time>2026-05-01T13:47:35Z</time></trkpt><trkpt lat="42.24062853522908" lon="14.184657043294797"><ele>253.0</ele><time>2026-05-01T13:47:37Z</time></trkpt><trkpt lat="42.240736498253504" lon="14.184781423665713"><ele>253.0</ele><time>2026-05-01T13:47:38Z</time></trkpt><trkpt lat="42.240845154780224" lon="14.184835270639661"><ele>253.0</ele><time>2026-05-01T13:47:39Z</time></trkpt><trkpt lat="42.24096808483961" lon="14.184931096686107"><ele>252.0</ele><time>2026-05-01T13:47:40Z</time></trkpt><trkpt lat="42.2410838146193" lon="14.185001511272127"><ele>251.0</ele><time>2026-05-01T13:47:41Z</time></trkpt><trkpt lat="42.241181542697234" lon="14.185058162452533"><ele>250.0</ele><time>2026-05-01T13:47:42Z</time></trkpt><trkpt lat="42.24128345319242" lon="14.185119005295643"><ele>249.0</ele><time>2026-05-01T13:47:43Z</time></trkpt><trkpt lat="42.241382302730635" lon="14.18517903208442"><ele>248.39999999999998</ele><time>2026-05-01T13:47:44Z</time></trkpt><trkpt lat="42.24148068943814" lon="14.185212551884387"><ele>247.79999999999998</ele><time>2026-05-01T13:47:45Z</time></trkpt><trkpt lat="42.241571836408" lon="14.185174865680047"><ele>247.20000000000002</ele><time>2026-05-01T13:47:46Z</time></trkpt><trkpt lat="42.24164801352116" lon="14.1851014681974"><ele>246.60000000000002</ele><time>2026-05-01T13:47:47Z</time></trkpt><trkpt lat="42.24174166626793" lon="14.185008027528022"><ele>246.0</ele><time>2026-05-01T13:47:48Z</time></trkpt><trkpt lat="42.24182048697491" lon="14.18487017238129"><ele>246.0</ele><time>2026-05-01T13:47:49Z</time></trkpt><trkpt lat="42.24189125124047" lon="14.184748452228197"><ele>246.00000000000003</ele><time>2026-05-01T13:47:50Z</time></trkpt><trkpt lat="42.24194253978359" lon="14.184690063123305"><ele>246.00000000000003</ele><time>2026-05-01T13:47:51Z</time></trkpt><trkpt lat="42.24200434944828" lon="14.18458490242359"><ele>246.0</ele><time>2026-05-01T13:47:52Z</time></trkpt><trkpt lat="42.242033117449125" lon="14.18446382463482"><ele>246.0</ele><time>2026-05-01T13:47:53Z</time></trkpt><trkpt lat="42.24203498950785" lon="14.184339469847478"><ele>246.0</ele><time>2026-05-01T13:47:54Z</time></trkpt><trkpt lat="42.2420319683699" lon="14.184201619585522"><ele>246.00000000000003</ele><time>2026-05-01T13:47:55Z</time></trkpt><trkpt lat="42.24203525512617" lon="14.184071048973982"><ele>246.00000000000003</ele><time>2026-05-01T13:47:56Z</time></trkpt><trkpt lat="42.2420532813674" lon="14.183953325894482"><ele>246.0</ele><time>2026-05-01T13:47:57Z</time></trkpt><trkpt lat="42.24208654868106" lon="14.183846054896838"><ele>246.0</ele><time>2026-05-01T13:47:58Z</time></trkpt><trkpt lat="42.24216701109183" lon="14.183753270695826"><ele>246.0</ele><time>2026-05-01T13:47:59Z</time></trkpt><trkpt lat="42.242207356591216" lon="14.183620206895533"><ele>246.00000000000003</ele><time>2026-05-01T13:48:00Z</time></trkpt><trkpt lat="42.24226643668683" lon="14.183515998366827"><ele>246.00000000000003</ele><time>2026-05-01T13:48:01Z</time></trkpt><trkpt lat="42.242330358416055" lon="14.183417153602356"><ele>246.0</ele><time>2026-05-01T13:48:02Z</time></trkpt><trkpt lat="42.24240753392683" lon="14.18334231478217"><ele>246.0</ele><time>2026-05-01T13:48:03Z</time></trkpt><trkpt lat="42.24250616070403" lon="14.183304804940763"><ele>246.20000000000002</ele><time>2026-05-01T13:48:04Z</time></trkpt><trkpt lat="42.242611523994434" lon="14.183304628783942"><ele>246.40000000000003</ele><time>2026-05-01T13:48:05Z</time></trkpt><trkpt lat="42.2427084717687" lon="14.183328200221023"><ele>246.6</ele><time>2026-05-01T13:48:06Z</time></trkpt><trkpt lat="42.24280940630793" lon="14.183341554219524"><ele>246.8</ele><time>2026-05-01T13:48:07Z</time></trkpt><trkpt lat="42.24290332770065" lon="14.183360142200623"><ele>247.0</ele><time>2026-05-01T13:48:08Z</time></trkpt><trkpt lat="42.24298120009771" lon="14.18338460681577"><ele>247.0</ele><time>2026-05-01T13:48:09Z</time></trkpt><trkpt lat="42.243064528653846" lon="14.183385747688348"><ele>247.0</ele><time>2026-05-01T13:48:10Z</time></trkpt><trkpt lat="42.243130255016126" lon="14.183426707564522"><ele>247.0</ele><time>2026-05-01T13:48:11Z</time></trkpt><trkpt lat="42.24324624421019" lon="14.183414842776028"><ele>247.0</ele><time>2026-05-01T13:48:13Z</time></trkpt><trkpt lat="42.24333537504323" lon="14.183343120884262"><ele>247.0</ele><time>2026-05-01T13:48:15Z</time></trkpt><trkpt lat="42.24336680249691" lon="14.183228242305018"><ele>246.99999999999997</ele><time>2026-05-01T13:48:19Z</time></trkpt><trkpt lat="42.24331208301216" lon="14.183159949024382"><ele>247.0</ele><time>2026-05-01T13:48:20Z</time></trkpt><trkpt lat="42.243237486195184" lon="14.183114606165331"><ele>247.0</ele><time>2026-05-01T13:48:21Z</time></trkpt><trkpt lat="42.2431572525094" lon="14.183093179144947"><ele>247.0</ele><time>2026-05-01T13:48:22Z</time></trkpt><trkpt lat="42.24306708410395" lon="14.183042671845453"><ele>246.99999999999997</ele><time>2026-05-01T13:48:23Z</time></trkpt><trkpt lat="42.24297470387696" lon="14.182991415703066"><ele>247.0</ele><time>2026-05-01T13:48:24Z</time></trkpt><trkpt lat="42.24288139865059" lon="14.182923068941042"><ele>247.39999999999998</ele><time>2026-05-01T13:48:25Z</time></trkpt><trkpt lat="42.242778699285765" lon="14.182864890119362"><ele>247.79999999999998</ele><time>2026-05-01T13:48:26Z</time></trkpt><trkpt lat="42.24267240963592" lon="14.182792941221907"><ele>248.2</ele><time>2026-05-01T13:48:27Z</time></trkpt><trkpt lat="42.242579847728834" lon="14.182711535695562"><ele>248.6</ele><time>2026-05-01T13:48:28Z</time></trkpt><trkpt lat="42.24250646806511" lon="14.182628170221783"><ele>249.0</ele><time>2026-05-01T13:48:29Z</time></trkpt><trkpt lat="42.242448378108215" lon="14.182559024070468"><ele>249.0</ele><time>2026-05-01T13:48:30Z</time></trkpt><trkpt lat="42.24235716183305" lon="14.182465326864843"><ele>248.99999999999997</ele><time>2026-05-01T13:48:32Z</time></trkpt><trkpt lat="42.242402877310944" lon="14.18230626788681"><ele>248.99999999999997</ele><time>2026-05-01T13:48:35Z</time></trkpt><trkpt lat="42.24252524031468" lon="14.18227206572791"><ele>249.0</ele><time>2026-05-01T13:48:37Z</time></trkpt><trkpt lat="42.24260686758031" lon="14.18224749274328"><ele>249.0</ele><time>2026-05-01T13:48:38Z</time></trkpt><trkpt lat="42.2427054743463" lon="14.18220980803204"><ele>249.33333333333334</ele><time>2026-05-01T13:48:39Z</time></trkpt><trkpt lat="42.24279383294963" lon="14.18214706810737"><ele>249.66666666666669</ele><time>2026-05-01T13:48:40Z</time></trkpt><trkpt lat="42.2428722047212" lon="14.182081977145254"><ele>250.0</ele><time>2026-05-01T13:48:41Z</time></trkpt><trkpt lat="42.24293625988983" lon="14.182037803449711"><ele>250.33333333333334</ele><time>2026-05-01T13:48:42Z</time></trkpt><trkpt lat="42.243002621599125" lon="14.182001729139799"><ele>250.66666666666669</ele><time>2026-05-01T13:48:43Z</time></trkpt><trkpt lat="42.24308540220235" lon="14.181964193513213"><ele>251.0</ele><time>2026-05-01T13:48:44Z</time></trkpt><trkpt lat="42.24317155235116" lon="14.181926194872537"><ele>250.0</ele><time>2026-05-01T13:48:45Z</time></trkpt><trkpt lat="42.24324734638736" lon="14.181890892935947"><ele>249.00000000000003</ele><time>2026-05-01T13:48:46Z</time></trkpt><trkpt lat="42.24332256538934" lon="14.181847725814846"><ele>248.00000000000003</ele><time>2026-05-01T13:48:47Z</time></trkpt><trkpt lat="42.2434094463681" lon="14.181793634428391"><ele>247.0</ele><time>2026-05-01T13:48:48Z</time></trkpt><trkpt lat="42.24349745379556" lon="14.181736100448099"><ele>246.0</ele><time>2026-05-01T13:48:49Z</time></trkpt><trkpt lat="42.24359032629491" lon="14.181680467258639"><ele>246.0</ele><time>2026-05-01T13:48:50Z</time></trkpt><trkpt lat="42.24368916723241" lon="14.18162779278598"><ele>246.00000000000003</ele><time>2026-05-01T13:48:51Z</time></trkpt><trkpt lat="42.24378470746524" lon="14.18158180103379"><ele>246.00000000000003</ele><time>2026-05-01T13:48:52Z</time></trkpt><trkpt lat="42.24387483355873" lon="14.181546608786473"><ele>246.0</ele><time>2026-05-01T13:48:53Z</time></trkpt><trkpt lat="42.243957200977746" lon="14.181495993064942"><ele>246.0</ele><time>2026-05-01T13:48:54Z</time></trkpt><trkpt lat="42.244055548200876" lon="14.181442100897295"><ele>245.0</ele><time>2026-05-01T13:48:55Z</time></trkpt><trkpt lat="42.24415735659242" lon="14.181386459832776"><ele>244.00000000000003</ele><time>2026-05-01T13:48:56Z</time></trkpt><trkpt lat="42.24425126990618" lon="14.181331153713582"><ele>243.00000000000003</ele><time>2026-05-01T13:48:57Z</time></trkpt><trkpt lat="42.24433827965278" lon="14.181277027276348"><ele>242.0</ele><time>2026-05-01T13:48:58Z</time></trkpt><trkpt lat="42.24442608882187" lon="14.181218342061662"><ele>241.0</ele><time>2026-05-01T13:48:59Z</time></trkpt><trkpt lat="42.24452192814346" lon="14.181155958827395"><ele>240.99999999999997</ele><time>2026-05-01T13:49:00Z</time></trkpt><trkpt lat="42.24460897536536" lon="14.181106170905032"><ele>241.0</ele><time>2026-05-01T13:49:01Z</time></trkpt><trkpt lat="42.24469044831313" lon="14.181054336789423"><ele>241.0</ele><time>2026-05-01T13:49:02Z</time></trkpt><trkpt lat="42.24477156559012" lon="14.181048665681633"><ele>241.0</ele><time>2026-05-01T13:49:03Z</time></trkpt><trkpt lat="42.244843856145124" lon="14.181026174240799"><ele>240.99999999999997</ele><time>2026-05-01T13:49:04Z</time></trkpt><trkpt lat="42.24490468172993" lon="14.18108326701311"><ele>241.0</ele><time>2026-05-01T13:49:05Z</time></trkpt><trkpt lat="42.24497411149147" lon="14.18109054398596"><ele>240.4</ele><time>2026-05-01T13:49:06Z</time></trkpt><trkpt lat="42.24505585515877" lon="14.18113730755936"><ele>239.8</ele><time>2026-05-01T13:49:07Z</time></trkpt><trkpt lat="42.24514027825399" lon="14.181204717118375"><ele>239.20000000000002</ele><time>2026-05-01T13:49:08Z</time></trkpt><trkpt lat="42.245227297564504" lon="14.181289412245949"><ele>238.60000000000002</ele><time>2026-05-01T13:49:09Z</time></trkpt><trkpt lat="42.24532831795847" lon="14.181378436976546"><ele>238.0</ele><time>2026-05-01T13:49:10Z</time></trkpt><trkpt lat="42.245434181907754" lon="14.181452001960281"><ele>238.0</ele><time>2026-05-01T13:49:11Z</time></trkpt><trkpt lat="42.24553332072546" lon="14.181504465634047"><ele>238.0</ele><time>2026-05-01T13:49:12Z</time></trkpt><trkpt lat="42.24562990250657" lon="14.181537322004678"><ele>238.0</ele><time>2026-05-01T13:49:13Z</time></trkpt><trkpt lat="42.24573116897605" lon="14.181577396402139"><ele>238.0</ele><time>2026-05-01T13:49:14Z</time></trkpt><trkpt lat="42.24583476928614" lon="14.181643129554645"><ele>238.0</ele><time>2026-05-01T13:49:15Z</time></trkpt><trkpt lat="42.24593210761548" lon="14.181731734979225"><ele>237.75</ele><time>2026-05-01T13:49:16Z</time></trkpt><trkpt lat="42.246026437462255" lon="14.181824742130967"><ele>237.5</ele><time>2026-05-01T13:49:17Z</time></trkpt><trkpt lat="42.24612957894826" lon="14.181898916684126"><ele>237.25</ele><time>2026-05-01T13:49:18Z</time></trkpt><trkpt lat="42.246249374997575" lon="14.181935580769574"><ele>237.0</ele><time>2026-05-01T13:49:19Z</time></trkpt><trkpt lat="42.24638831121832" lon="14.181926443213992"><ele>235.75</ele><time>2026-05-01T13:49:20Z</time></trkpt><trkpt lat="42.24652172503693" lon="14.181913157317515"><ele>234.5</ele><time>2026-05-01T13:49:21Z</time></trkpt><trkpt lat="42.246644076593064" lon="14.181905426521675"><ele>233.25</ele><time>2026-05-01T13:49:22Z</time></trkpt><trkpt lat="42.24676212629512" lon="14.181911857960058"><ele>232.0</ele><time>2026-05-01T13:49:23Z</time></trkpt><trkpt lat="42.24687818776018" lon="14.181945392276155"><ele>232.0</ele><time>2026-05-01T13:49:24Z</time></trkpt><trkpt lat="42.24698465471995" lon="14.182016124831394"><ele>232.0</ele><time>2026-05-01T13:49:25Z</time></trkpt><trkpt lat="42.24707304991991" lon="14.182081239308609"><ele>232.0</ele><time>2026-05-01T13:49:26Z</time></trkpt><trkpt lat="42.247156791842166" lon="14.18214714515846"><ele>232.0</ele><time>2026-05-01T13:49:27Z</time></trkpt><trkpt lat="42.247231320800985" lon="14.18222657579043"><ele>232.0</ele><time>2026-05-01T13:49:28Z</time></trkpt><trkpt lat="42.24729791001072" lon="14.182328769364874"><ele>232.0</ele><time>2026-05-01T13:49:29Z</time></trkpt><trkpt lat="42.24735265312481" lon="14.182448119286551"><ele>232.0</ele><time>2026-05-01T13:49:30Z</time></trkpt><trkpt lat="42.247396407141515" lon="14.18256202219005"><ele>232.0</ele><time>2026-05-01T13:49:31Z</time></trkpt><trkpt lat="42.24741959443968" lon="14.182660954585137"><ele>232.0</ele><time>2026-05-01T13:49:32Z</time></trkpt><trkpt lat="42.24741561985231" lon="14.182761013071755"><ele>232.0</ele><time>2026-05-01T13:49:33Z</time></trkpt><trkpt lat="42.24756784000254" lon="14.182888335800454"><ele>231.99999999999997</ele><time>2026-05-01T13:49:35Z</time></trkpt><trkpt lat="42.24763579974385" lon="14.182939572908298"><ele>232.0</ele><time>2026-05-01T13:49:36Z</time></trkpt><trkpt lat="42.24769112744515" lon="14.182981206933786"><ele>232.0</ele><time>2026-05-01T13:49:37Z</time></trkpt><trkpt lat="42.247802494265336" lon="14.183047693542097"><ele>232.0</ele><time>2026-05-01T13:49:39Z</time></trkpt><trkpt lat="42.2478671137481" lon="14.1831017793149"><ele>231.99999999999997</ele><time>2026-05-01T13:49:40Z</time></trkpt><trkpt lat="42.24791847130137" lon="14.183171513825787"><ele>232.0</ele><time>2026-05-01T13:49:41Z</time></trkpt><trkpt lat="42.2479576583411" lon="14.183250071362547"><ele>232.39999999999998</ele><time>2026-05-01T13:49:42Z</time></trkpt><trkpt lat="42.247991766068175" lon="14.183330539709168"><ele>232.79999999999998</ele><time>2026-05-01T13:49:43Z</time></trkpt><trkpt lat="42.24802417991041" lon="14.183419173284983"><ele>233.2</ele><time>2026-05-01T13:49:44Z</time></trkpt><trkpt lat="42.24805502611886" lon="14.18357167020696"><ele>233.6</ele><time>2026-05-01T13:49:46Z</time></trkpt><trkpt lat="42.24806458616869" lon="14.183704729502901"><ele>234.0</ele><time>2026-05-01T13:49:48Z</time></trkpt><trkpt lat="42.24804488669875" lon="14.183828784225229"><ele>234.0</ele><time>2026-05-01T13:49:50Z</time></trkpt><trkpt lat="42.24802594809692" lon="14.183910751339937"><ele>234.0</ele><time>2026-05-01T13:49:52Z</time></trkpt><trkpt lat="42.2480046412515" lon="14.183990995734707"><ele>234.0</ele><time>2026-05-01T13:49:54Z</time></trkpt><trkpt lat="42.24813685069291" lon="14.183941414914313"><ele>234.0</ele><time>2026-05-01T13:49:58Z</time></trkpt><trkpt lat="42.24816493720513" lon="14.183841203176188"><ele>234.0</ele><time>2026-05-01T13:49:59Z</time></trkpt><trkpt lat="42.24819408649646" lon="14.183740721370343"><ele>234.0</ele><time>2026-05-01T13:50:00Z</time></trkpt><trkpt lat="42.24823637318856" lon="14.183628540782177"><ele>232.39999999999998</ele><time>2026-05-01T13:50:01Z</time></trkpt><trkpt lat="42.248275402649256" lon="14.183535725061144"><ele>230.79999999999998</ele><time>2026-05-01T13:50:02Z</time></trkpt><trkpt lat="42.24832805184835" lon="14.183428604181115"><ele>229.20000000000002</ele><time>2026-05-01T13:50:05Z</time></trkpt><trkpt lat="42.24838826895092" lon="14.183353055760675"><ele>227.60000000000002</ele><time>2026-05-01T13:50:08Z</time></trkpt><trkpt lat="42.24845576339095" lon="14.183290659687476"><ele>226.0</ele><time>2026-05-01T13:50:12Z</time></trkpt><trkpt lat="42.24835352825369" lon="14.183219964757516"><ele>225.99999999999997</ele><time>2026-05-01T13:50:17Z</time></trkpt><trkpt lat="42.248312156711094" lon="14.183334835955893"><ele>226.0</ele><time>2026-05-01T13:50:18Z</time></trkpt><trkpt lat="42.24828227874592" lon="14.183427991905692"><ele>226.0</ele><time>2026-05-01T13:50:19Z</time></trkpt><trkpt lat="42.24825616498384" lon="14.183517720716575"><ele>226.0</ele><time>2026-05-01T13:50:20Z</time></trkpt><trkpt lat="42.248229529102574" lon="14.183604435948657"><ele>225.99999999999997</ele><time>2026-05-01T13:50:21Z</time></trkpt><trkpt lat="42.248189598739835" lon="14.183716982297968"><ele>226.0</ele><time>2026-05-01T13:50:22Z</time></trkpt><trkpt lat="42.24814046433717" lon="14.183837140158486"><ele>226.33333333333331</ele><time>2026-05-01T13:50:23Z</time></trkpt><trkpt lat="42.248093247779664" lon="14.183921940119319"><ele>226.66666666666666</ele><time>2026-05-01T13:50:24Z</time></trkpt><trkpt lat="42.248044746817094" lon="14.183998178918179"><ele>227.0</ele><time>2026-05-01T13:50:26Z</time></trkpt><trkpt lat="42.24798190782891" lon="14.184056602719963"><ele>227.33333333333331</ele><time>2026-05-01T13:50:28Z</time></trkpt><trkpt lat="42.24790071068826" lon="14.184109159187933"><ele>227.66666666666666</ele><time>2026-05-01T13:50:30Z</time></trkpt><trkpt lat="42.247810516491064" lon="14.184189838178055"><ele>228.0</ele><time>2026-05-01T13:50:32Z</time></trkpt><trkpt lat="42.247715025193465" lon="14.184198706115062"><ele>228.0</ele><time>2026-05-01T13:50:34Z</time></trkpt><trkpt lat="42.24763289574208" lon="14.184121594288678"><ele>228.0</ele><time>2026-05-01T13:50:36Z</time></trkpt><trkpt lat="42.24754296811465" lon="14.184003621440423"><ele>228.0</ele><time>2026-05-01T13:50:38Z</time></trkpt><trkpt lat="42.24749413199329" lon="14.183941795520791"><ele>228.0</ele><time>2026-05-01T13:50:39Z</time></trkpt><trkpt lat="42.24741578010843" lon="14.183849361745267"><ele>228.0</ele><time>2026-05-01T13:50:41Z</time></trkpt><trkpt lat="42.24738151173265" lon="14.183763012551953"><ele>229.0</ele><time>2026-05-01T13:50:46Z</time></trkpt><trkpt lat="42.24744338398643" lon="14.183733578031017"><ele>230.0</ele><time>2026-05-01T13:50:52Z</time></trkpt><trkpt lat="42.24751349082172" lon="14.183835545551226"><ele>231.0</ele><time>2026-05-01T13:51:36Z</time></trkpt><trkpt lat="42.24757073391335" lon="14.183944755317013"><ele>232.0</ele><time>2026-05-01T13:51:38Z</time></trkpt><trkpt lat="42.24763025442275" lon="14.18390465600359"><ele>233.0</ele><time>2026-05-01T13:51:41Z</time></trkpt><trkpt lat="42.247561465630376" lon="14.183834198491784"><ele>234.0</ele><time>2026-05-01T13:51:44Z</time></trkpt><trkpt lat="42.24747515247027" lon="14.183792703232522"><ele>234.0</ele><time>2026-05-01T13:51:46Z</time></trkpt><trkpt lat="42.24740101684205" lon="14.18381066240898"><ele>234.0</ele><time>2026-05-01T13:51:49Z</time></trkpt><trkpt lat="42.24742574536384" lon="14.183915085181692"><ele>234.0</ele><time>2026-05-01T13:51:52Z</time></trkpt><trkpt lat="42.24748151693187" lon="14.183967642686486"><ele>234.0</ele><time>2026-05-01T13:51:53Z</time></trkpt><trkpt lat="42.24754903545778" lon="14.184024864685965"><ele>234.0</ele><time>2026-05-01T13:51:54Z</time></trkpt><trkpt lat="42.24759626678976" lon="14.184084313512379"><ele>234.0</ele><time>2026-05-01T13:51:55Z</time></trkpt><trkpt lat="42.247679714576094" lon="14.18417935268789"><ele>232.5</ele><time>2026-05-01T13:51:57Z</time></trkpt><trkpt lat="42.24776683405461" lon="14.184217692038946"><ele>231.0</ele><time>2026-05-01T13:51:59Z</time></trkpt><trkpt lat="42.247911936349084" lon="14.184320092495614"><ele>229.5</ele><time>2026-05-01T13:52:01Z</time></trkpt><trkpt lat="42.2480206979653" lon="14.184161794683318"><ele>228.0</ele><time>2026-05-01T13:52:04Z</time></trkpt><trkpt lat="42.24796591457563" lon="14.184228898918981"><ele>228.0</ele><time>2026-05-01T13:52:07Z</time></trkpt><trkpt lat="42.24789157388557" lon="14.184305894450834"><ele>228.0</ele><time>2026-05-01T13:52:08Z</time></trkpt><trkpt lat="42.24779763073622" lon="14.184345496550208"><ele>228.0</ele><time>2026-05-01T13:52:09Z</time></trkpt><trkpt lat="42.24771003805386" lon="14.184373137975323"><ele>228.0</ele><time>2026-05-01T13:52:10Z</time></trkpt><trkpt lat="42.24763796670433" lon="14.184551483830436"><ele>228.0</ele><time>2026-05-01T13:52:11Z</time></trkpt><trkpt lat="42.24755623214981" lon="14.184542483165904"><ele>228.0</ele><time>2026-05-01T13:52:12Z</time></trkpt><trkpt lat="42.247470881103176" lon="14.1844985323985"><ele>228.0</ele><time>2026-05-01T13:52:13Z</time></trkpt><trkpt lat="42.247437343064625" lon="14.184385050550139"><ele>228.0</ele><time>2026-05-01T13:52:14Z</time></trkpt><trkpt lat="42.24742138012171" lon="14.184558854324198"><ele>228.0</ele><time>2026-05-01T13:52:18Z</time></trkpt><trkpt lat="42.24748522366526" lon="14.18461770168917"><ele>228.0</ele><time>2026-05-01T13:52:19Z</time></trkpt><trkpt lat="42.24754641695871" lon="14.184688033541258"><ele>228.0</ele><time>2026-05-01T13:52:20Z</time></trkpt><trkpt lat="42.24759501504049" lon="14.18476686403606"><ele>228.0</ele><time>2026-05-01T13:52:21Z</time></trkpt><trkpt lat="42.247630732781715" lon="14.184848417052704"><ele>228.0</ele><time>2026-05-01T13:52:22Z</time></trkpt><trkpt lat="42.24766019551278" lon="14.184938301113926"><ele>228.0</ele><time>2026-05-01T13:52:23Z</time></trkpt><trkpt lat="42.24768136555348" lon="14.185046541934746"><ele>228.0</ele><time>2026-05-01T13:52:24Z</time></trkpt><trkpt lat="42.24770001885391" lon="14.185173406471522"><ele>228.0</ele><time>2026-05-01T13:52:25Z</time></trkpt><trkpt lat="42.24772820861381" lon="14.18532199889528"><ele>226.25</ele><time>2026-05-01T13:52:26Z</time></trkpt><trkpt lat="42.24777767228695" lon="14.185473120357761"><ele>224.5</ele><time>2026-05-01T13:52:27Z</time></trkpt><trkpt lat="42.24784918578759" lon="14.185623301243423"><ele>222.75</ele><time>2026-05-01T13:52:28Z</time></trkpt><trkpt lat="42.24791664141347" lon="14.185761174617726"><ele>221.0</ele><time>2026-05-01T13:52:29Z</time></trkpt><trkpt lat="42.24797411267198" lon="14.185884822939496"><ele>221.0</ele><time>2026-05-01T13:52:30Z</time></trkpt><trkpt lat="42.248030975568" lon="14.186006896651476"><ele>221.00000000000003</ele><time>2026-05-01T13:52:31Z</time></trkpt><trkpt lat="42.24809124888333" lon="14.186121862273133"><ele>221.00000000000003</ele><time>2026-05-01T13:52:32Z</time></trkpt><trkpt lat="42.24815640436427" lon="14.186210255153766"><ele>221.0</ele><time>2026-05-01T13:52:33Z</time></trkpt><trkpt lat="42.24823857252766" lon="14.186282800944149"><ele>221.0</ele><time>2026-05-01T13:52:34Z</time></trkpt><trkpt lat="42.24833550355331" lon="14.186339202050013"><ele>221.0</ele><time>2026-05-01T13:52:35Z</time></trkpt><trkpt lat="42.24844332562027" lon="14.18638590646783"><ele>221.0</ele><time>2026-05-01T13:52:36Z</time></trkpt><trkpt lat="42.2485568012918" lon="14.186439225733633"><ele>221.0</ele><time>2026-05-01T13:52:37Z</time></trkpt><trkpt lat="42.24866752109979" lon="14.186501007227323"><ele>221.0</ele><time>2026-05-01T13:52:38Z</time></trkpt><trkpt lat="42.24876537187149" lon="14.186566704519521"><ele>221.00000000000003</ele><time>2026-05-01T13:52:39Z</time></trkpt><trkpt lat="42.2488617905121" lon="14.186592998601823"><ele>221.0</ele><time>2026-05-01T13:52:40Z</time></trkpt><trkpt lat="42.248949355938045" lon="14.186594290059828"><ele>221.0</ele><time>2026-05-01T13:52:41Z</time></trkpt><trkpt lat="42.24904096827657" lon="14.186577551291247"><ele>221.0</ele><time>2026-05-01T13:52:42Z</time></trkpt><trkpt lat="42.249107293901126" lon="14.186552087883534"><ele>221.00000000000003</ele><time>2026-05-01T13:52:43Z</time></trkpt><trkpt lat="42.24917636267589" lon="14.186553159300207"><ele>221.0</ele><time>2026-05-01T13:52:46Z</time></trkpt><trkpt lat="42.24917465489447" lon="14.186716152826053"><ele>221.0</ele><time>2026-05-01T13:52:47Z</time></trkpt><trkpt lat="42.249164106377975" lon="14.186855287115748"><ele>221.0</ele><time>2026-05-01T13:52:48Z</time></trkpt><trkpt lat="42.249152746759165" lon="14.18700901578264"><ele>221.0</ele><time>2026-05-01T13:52:49Z</time></trkpt><trkpt lat="42.249153896716436" lon="14.187176877289314"><ele>221.0</ele><time>2026-05-01T13:52:50Z</time></trkpt><trkpt lat="42.24913245358433" lon="14.187343066015314"><ele>220.5</ele><time>2026-05-01T13:52:51Z</time></trkpt><trkpt lat="42.24912523280497" lon="14.187507893384755"><ele>220.0</ele><time>2026-05-01T13:52:52Z</time></trkpt><trkpt lat="42.24911132248397" lon="14.187657024159037"><ele>219.5</ele><time>2026-05-01T13:52:53Z</time></trkpt><trkpt lat="42.249096703212956" lon="14.18780370116451"><ele>219.0</ele><time>2026-05-01T13:52:54Z</time></trkpt><trkpt lat="42.24907847209856" lon="14.18794870619675"><ele>219.0</ele><time>2026-05-01T13:52:55Z</time></trkpt><trkpt lat="42.249065948151795" lon="14.188067757531538"><ele>219.0</ele><time>2026-05-01T13:52:56Z</time></trkpt><trkpt lat="42.249002813229446" lon="14.18818169930042"><ele>219.0</ele><time>2026-05-01T13:52:57Z</time></trkpt><trkpt lat="42.24896278244286" lon="14.188274630776458"><ele>219.0</ele><time>2026-05-01T13:52:58Z</time></trkpt><trkpt lat="42.24894888925649" lon="14.18837938447118"><ele>219.0</ele><time>2026-05-01T13:52:59Z</time></trkpt><trkpt lat="42.24897547057321" lon="14.188468946721049"><ele>219.0</ele><time>2026-05-01T13:53:00Z</time></trkpt><trkpt lat="42.249029418789" lon="14.188530756890941"><ele>219.75</ele><time>2026-05-01T13:53:01Z</time></trkpt><trkpt lat="42.24911668302641" lon="14.188578505326875"><ele>220.5</ele><time>2026-05-01T13:53:02Z</time></trkpt><trkpt lat="42.249246771880934" lon="14.1886130576728"><ele>221.25</ele><time>2026-05-01T13:53:03Z</time></trkpt><trkpt lat="42.24938877570182" lon="14.1886295692266"><ele>222.0</ele><time>2026-05-01T13:53:04Z</time></trkpt><trkpt lat="42.24953883250465" lon="14.18866447408405"><ele>222.0</ele><time>2026-05-01T13:53:05Z</time></trkpt><trkpt lat="42.249702701439944" lon="14.188721012870795"><ele>222.0</ele><time>2026-05-01T13:53:06Z</time></trkpt><trkpt lat="42.249868076249655" lon="14.188802311275097"><ele>222.0</ele><time>2026-05-01T13:53:07Z</time></trkpt><trkpt lat="42.25002996912937" lon="14.188901551425403"><ele>223.66666666666669</ele><time>2026-05-01T13:53:08Z</time></trkpt><trkpt lat="42.250182126998055" lon="14.189017965627075"><ele>225.33333333333334</ele><time>2026-05-01T13:53:09Z</time></trkpt><trkpt lat="42.25031467065875" lon="14.189128358986604"><ele>227.0</ele><time>2026-05-01T13:53:10Z</time></trkpt><trkpt lat="42.25044135671449" lon="14.189225847212182"><ele>227.0</ele><time>2026-05-01T13:53:11Z</time></trkpt><trkpt lat="42.25057911488253" lon="14.189289474344658"><ele>227.0</ele><time>2026-05-01T13:53:12Z</time></trkpt><trkpt lat="42.25072864772183" lon="14.189302472148796"><ele>227.0</ele><time>2026-05-01T13:53:13Z</time></trkpt><trkpt lat="42.25087773655013" lon="14.189258434761406"><ele>227.0</ele><time>2026-05-01T13:53:14Z</time></trkpt><trkpt lat="42.25101242584004" lon="14.189156376596861"><ele>226.5</ele><time>2026-05-01T13:53:15Z</time></trkpt><trkpt lat="42.25113210351826" lon="14.189047223397404"><ele>226.0</ele><time>2026-05-01T13:53:16Z</time></trkpt><trkpt lat="42.25124005504" lon="14.188944817294182"><ele>225.5</ele><time>2026-05-01T13:53:17Z</time></trkpt><trkpt lat="42.25134439122471" lon="14.188849372845565"><ele>225.0</ele><time>2026-05-01T13:53:18Z</time></trkpt><trkpt lat="42.25144943615846" lon="14.188779157950586"><ele>224.8</ele><time>2026-05-01T13:53:19Z</time></trkpt><trkpt lat="42.25154384691913" lon="14.188708380504206"><ele>224.6</ele><time>2026-05-01T13:53:20Z</time></trkpt><trkpt lat="42.25163536905884" lon="14.188641006562715"><ele>224.39999999999998</ele><time>2026-05-01T13:53:21Z</time></trkpt><trkpt lat="42.25170500698172" lon="14.188576520603922"><ele>224.2</ele><time>2026-05-01T13:53:22Z</time></trkpt><trkpt lat="42.2517821227617" lon="14.188540117672932"><ele>224.0</ele><time>2026-05-01T13:53:24Z</time></trkpt><trkpt lat="42.25172672218648" lon="14.188375297722207"><ele>224.00000000000003</ele><time>2026-05-01T13:53:25Z</time></trkpt><trkpt lat="42.251702695267035" lon="14.188291292739704"><ele>224.0</ele><time>2026-05-01T13:53:26Z</time></trkpt><trkpt lat="42.25170084536177" lon="14.18819970679323"><ele>224.0</ele><time>2026-05-01T13:53:27Z</time></trkpt><trkpt lat="42.25174589292833" lon="14.188139700807005"><ele>224.0</ele><time>2026-05-01T13:53:28Z</time></trkpt><trkpt lat="42.25181534715807" lon="14.18799191123418"><ele>224.00000000000003</ele><time>2026-05-01T13:53:30Z</time></trkpt><trkpt lat="42.25186866335304" lon="14.187897885190809"><ele>224.0</ele><time>2026-05-01T13:53:31Z</time></trkpt><trkpt lat="42.2519428122005" lon="14.187806095975242"><ele>223.39999999999998</ele><time>2026-05-01T13:53:32Z</time></trkpt><trkpt lat="42.2520243403559" lon="14.187721622661158"><ele>222.79999999999998</ele><time>2026-05-01T13:53:33Z</time></trkpt><trkpt lat="42.25207791142388" lon="14.187630513979828"><ele>222.20000000000002</ele><time>2026-05-01T13:53:34Z</time></trkpt><trkpt lat="42.25213775079412" lon="14.18755049545441"><ele>221.60000000000002</ele><time>2026-05-01T13:53:35Z</time></trkpt><trkpt lat="42.25218846667667" lon="14.187451814238505"><ele>221.0</ele><time>2026-05-01T13:53:36Z</time></trkpt><trkpt lat="42.252221894969054" lon="14.18734163936631"><ele>220.8</ele><time>2026-05-01T13:53:37Z</time></trkpt><trkpt lat="42.25222039438655" lon="14.187241238200771"><ele>220.60000000000002</ele><time>2026-05-01T13:53:38Z</time></trkpt><trkpt lat="42.252230314353405" lon="14.187153118176704"><ele>220.4</ele><time>2026-05-01T13:53:42Z</time></trkpt><trkpt lat="42.252233820581615" lon="14.187067796410576"><ele>220.2</ele><time>2026-05-01T13:53:49Z</time></trkpt><trkpt lat="42.25232168190863" lon="14.187016074114718"><ele>220.0</ele><time>2026-05-01T13:53:52Z</time></trkpt><trkpt lat="42.252682429125755" lon="14.187210769182737"><ele>220.0</ele><time>2026-05-01T13:53:56Z</time></trkpt><trkpt lat="42.25243067560193" lon="14.18680308561889"><ele>220.0</ele><time>2026-05-01T13:53:58Z</time></trkpt><trkpt lat="42.252473418046996" lon="14.186725005992638"><ele>220.0</ele><time>2026-05-01T13:54:00Z</time></trkpt><trkpt lat="42.2528165090441" lon="14.186917297769098"><ele>220.0</ele><time>2026-05-01T13:54:02Z</time></trkpt><trkpt lat="42.252880295736745" lon="14.18680242764937"><ele>220.0</ele><time>2026-05-01T13:54:04Z</time></trkpt><trkpt lat="42.25296329920083" lon="14.186670649221881"><ele>220.0</ele><time>2026-05-01T13:54:06Z</time></trkpt><trkpt lat="42.25303625426272" lon="14.1865533636436"><ele>220.0</ele><time>2026-05-01T13:54:08Z</time></trkpt><trkpt lat="42.2530930697667" lon="14.186455965606463"><ele>220.0</ele><time>2026-05-01T13:54:10Z</time></trkpt><trkpt lat="42.25314463142483" lon="14.186367573001561"><ele>220.0</ele><time>2026-05-01T13:54:12Z</time></trkpt><trkpt lat="42.25295780186433" lon="14.1857188943215"><ele>218.16666666666666</ele><time>2026-05-01T13:54:17Z</time></trkpt><trkpt lat="42.253003051673964" lon="14.185612010774351"><ele>216.33333333333331</ele><time>2026-05-01T13:54:19Z</time></trkpt><trkpt lat="42.25303290053712" lon="14.185512190477446"><ele>214.5</ele><time>2026-05-01T13:54:21Z</time></trkpt><trkpt lat="42.25308836093243" lon="14.185432151401505"><ele>212.66666666666669</ele><time>2026-05-01T13:54:23.999Z</time></trkpt><trkpt lat="42.253174175148715" lon="14.185467430851245"><ele>210.83333333333334</ele><time>2026-05-01T13:54:26.999Z</time></trkpt><trkpt lat="42.253250973405926" lon="14.185538352151339"><ele>209.0</ele><time>2026-05-01T13:54:29.999Z</time></trkpt><trkpt lat="42.25333075192031" lon="14.185578920655951"><ele>209.00000000000003</ele><time>2026-05-01T13:54:31.999Z</time></trkpt><trkpt lat="42.25340667778739" lon="14.185622716563916"><ele>209.0</ele><time>2026-05-01T13:54:33.999Z</time></trkpt><trkpt lat="42.253485116211635" lon="14.185667997661625"><ele>209.0</ele><time>2026-05-01T13:54:36.999Z</time></trkpt><trkpt lat="42.253571849612946" lon="14.185729797396416"><ele>209.0</ele><time>2026-05-01T13:54:38.999Z</time></trkpt><trkpt lat="42.25367175375644" lon="14.185794081549762"><ele>209.00000000000003</ele><time>2026-05-01T13:54:40.999Z</time></trkpt><trkpt lat="42.25370085968818" lon="14.185882198491312"><ele>209.0</ele><time>2026-05-01T13:54:43.999Z</time></trkpt><trkpt lat="42.25369325580146" lon="14.185999364070145"><ele>208.50000000000003</ele><time>2026-05-01T13:54:45.999Z</time></trkpt><trkpt lat="42.253698261374794" lon="14.186129933756437"><ele>208.0</ele><time>2026-05-01T13:54:47.999Z</time></trkpt><trkpt lat="42.25374809735659" lon="14.18619102829742"><ele>207.5</ele><time>2026-05-01T13:54:51.999Z</time></trkpt><trkpt lat="42.25383520692091" lon="14.186175453335217"><ele>207.0</ele><time>2026-05-01T13:54:53.999Z</time></trkpt><trkpt lat="42.25391951320311" lon="14.18616782220084"><ele>206.50000000000003</ele><time>2026-05-01T13:54:55.999Z</time></trkpt><trkpt lat="42.25397957588377" lon="14.186233204170218"><ele>206.0</ele><time>2026-05-01T13:54:58.999Z</time></trkpt><trkpt lat="42.25404589778744" lon="14.186305952806038"><ele>206.00000000000003</ele><time>2026-05-01T13:55:01.999Z</time></trkpt><trkpt lat="42.25411169303531" lon="14.186352050696371"><ele>206.0</ele><time>2026-05-01T13:55:04.999Z</time></trkpt><trkpt lat="42.25417716550477" lon="14.18634184045466"><ele>206.0</ele><time>2026-05-01T13:55:10.999Z</time></trkpt><trkpt lat="42.2541613705567" lon="14.186248110442007"><ele>206.0</ele><time>2026-05-01T13:55:15.999Z</time></trkpt><trkpt lat="42.25415946620967" lon="14.186123645530863"><ele>206.00000000000003</ele><time>2026-05-01T13:55:19.999Z</time></trkpt><trkpt lat="42.25420804755299" lon="14.186058006652368"><ele>206.0</ele><time>2026-05-01T13:55:21.999Z</time></trkpt><trkpt lat="42.25426602451979" lon="14.185985057379666"><ele>206.0</ele><time>2026-05-01T13:55:24.999Z</time></trkpt><trkpt lat="42.25435073499499" lon="14.185992571812225"><ele>206.0</ele><time>2026-05-01T13:55:28.999Z</time></trkpt><trkpt lat="42.25444225634458" lon="14.186062515282577"><ele>206.0</ele><time>2026-05-01T13:55:30.999Z</time></trkpt><trkpt lat="42.25453419395922" lon="14.186132650409048"><ele>206.0</ele><time>2026-05-01T13:55:32.999Z</time></trkpt><trkpt lat="42.254637262573915" lon="14.186195312484463"><ele>206.0</ele><time>2026-05-01T13:55:34.999Z</time></trkpt><trkpt lat="42.254738600391896" lon="14.186259961013295"><ele>206.0</ele><time>2026-05-01T13:55:36.999Z</time></trkpt><trkpt lat="42.254808773166815" lon="14.186322081279014"><ele>206.0</ele><time>2026-05-01T13:55:38.999Z</time></trkpt><trkpt lat="42.25474915152843" lon="14.186258390289948"><ele>206.0</ele><time>2026-05-01T14:03:23Z</time></trkpt><trkpt lat="42.25462763929285" lon="14.186187634895136"><ele>206.0</ele><time>2026-05-01T14:03:25Z</time></trkpt><trkpt lat="42.25452294872682" lon="14.186131266561532"><ele>206.0</ele><time>2026-05-01T14:03:27Z</time></trkpt><trkpt lat="42.254422659781646" lon="14.186076116863154"><ele>206.00000000000003</ele><time>2026-05-01T14:03:29Z</time></trkpt><trkpt lat="42.25433200760256" lon="14.186005577142318"><ele>206.0</ele><time>2026-05-01T14:03:31Z</time></trkpt><trkpt lat="42.254253779333546" lon="14.18599906598094"><ele>206.0</ele><time>2026-05-01T14:03:34Z</time></trkpt><trkpt lat="42.25419634531599" lon="14.186056784711527"><ele>206.0</ele><time>2026-05-01T14:03:36Z</time></trkpt><trkpt lat="42.25415145687945" lon="14.186161661133639"><ele>206.00000000000003</ele><time>2026-05-01T14:03:38Z</time></trkpt><trkpt lat="42.254137829038264" lon="14.18625441081756"><ele>206.0</ele><time>2026-05-01T14:03:41Z</time></trkpt><trkpt lat="42.25418954776857" lon="14.18631823573396"><ele>206.00000000000003</ele><time>2026-05-01T14:03:52Z</time></trkpt><trkpt lat="42.254114984933246" lon="14.186347205208419"><ele>206.0</ele><time>2026-05-01T14:04:03Z</time></trkpt><trkpt lat="42.254021928268784" lon="14.186283803407754"><ele>206.0</ele><time>2026-05-01T14:04:06Z</time></trkpt><trkpt lat="42.25395454685891" lon="14.186219744844797"><ele>206.0</ele><time>2026-05-01T14:04:08Z</time></trkpt><trkpt lat="42.25389022789363" lon="14.186182973192112"><ele>206.00000000000003</ele><time>2026-05-01T14:04:10Z</time></trkpt><trkpt lat="42.25381765843662" lon="14.186179233390124"><ele>206.0</ele><time>2026-05-01T14:04:12Z</time></trkpt><trkpt lat="42.253755487828194" lon="14.186154550452114"><ele>207.50000000000003</ele><time>2026-05-01T14:04:14Z</time></trkpt><trkpt lat="42.25369854926388" lon="14.186074010909117"><ele>209.0</ele><time>2026-05-01T14:04:16Z</time></trkpt><trkpt lat="42.25369573796471" lon="14.185967117257574"><ele>210.5</ele><time>2026-05-01T14:04:18Z</time></trkpt><trkpt lat="42.2536996621485" lon="14.185855763498935"><ele>212.0</ele><time>2026-05-01T14:04:20Z</time></trkpt><trkpt lat="42.25364499599886" lon="14.185798515736556"><ele>213.50000000000003</ele><time>2026-05-01T14:04:23Z</time></trkpt><trkpt lat="42.253585239036916" lon="14.185769619163977"><ele>215.0</ele><time>2026-05-01T14:04:25Z</time></trkpt><trkpt lat="42.25351864440951" lon="14.185709566446286"><ele>215.0</ele><time>2026-05-01T14:04:27Z</time></trkpt><trkpt lat="42.2534591629318" lon="14.185681325873182"><ele>215.0</ele><time>2026-05-01T14:04:30Z</time></trkpt><trkpt lat="42.25333269958423" lon="14.185605100947003"><ele>215.0</ele><time>2026-05-01T14:04:31Z</time></trkpt><trkpt lat="42.253223346099865" lon="14.185534186496698"><ele>215.0</ele><time>2026-05-01T14:04:33Z</time></trkpt><trkpt lat="42.25313799515648" lon="14.185453348451773"><ele>215.0</ele><time>2026-05-01T14:04:35Z</time></trkpt><trkpt lat="42.25307341629776" lon="14.185442061115113"><ele>214.83333333333334</ele><time>2026-05-01T14:04:37Z</time></trkpt><trkpt lat="42.25301749489983" lon="14.185499354767382"><ele>214.66666666666669</ele><time>2026-05-01T14:04:40Z</time></trkpt><trkpt lat="42.2529978655263" lon="14.185613647589772"><ele>214.5</ele><time>2026-05-01T14:04:43Z</time></trkpt><trkpt lat="42.252959854698744" lon="14.185713818235376"><ele>214.33333333333331</ele><time>2026-05-01T14:04:45Z</time></trkpt><trkpt lat="42.25292496759893" lon="14.185785156033248"><ele>214.16666666666666</ele><time>2026-05-01T14:04:46Z</time></trkpt><trkpt lat="42.252862972840504" lon="14.185917222740821"><ele>214.0</ele><time>2026-05-01T14:04:48Z</time></trkpt><trkpt lat="42.25280748443035" lon="14.186028419169178"><ele>214.00000000000003</ele><time>2026-05-01T14:04:50Z</time></trkpt><trkpt lat="42.25276851034293" lon="14.186097691467353"><ele>214.0</ele><time>2026-05-01T14:04:51Z</time></trkpt><trkpt lat="42.25273027387141" lon="14.186177471799127"><ele>214.0</ele><time>2026-05-01T14:04:52Z</time></trkpt><trkpt lat="42.252696782913695" lon="14.186254741678672"><ele>214.0</ele><time>2026-05-01T14:04:53Z</time></trkpt><trkpt lat="42.25266820542853" lon="14.186334331915432"><ele>214.0</ele><time>2026-05-01T14:04:53.999Z</time></trkpt><trkpt lat="42.25262262646674" lon="14.186436843118381"><ele>214.00000000000003</ele><time>2026-05-01T14:04:54.999Z</time></trkpt><trkpt lat="42.2525917169939" lon="14.186511222166878"><ele>214.0</ele><time>2026-05-01T14:04:55.999Z</time></trkpt><trkpt lat="42.25256042328376" lon="14.186585803566878"><ele>214.49999999999997</ele><time>2026-05-01T14:04:56.999Z</time></trkpt><trkpt lat="42.252515747339395" lon="14.186687337623793"><ele>215.0</ele><time>2026-05-01T14:04:57.999Z</time></trkpt><trkpt lat="42.25246553696267" lon="14.186774073481878"><ele>215.5</ele><time>2026-05-01T14:04:58.999Z</time></trkpt><trkpt lat="42.25240557666484" lon="14.186904147636728"><ele>216.0</ele><time>2026-05-01T14:05:00.999Z</time></trkpt><trkpt lat="42.25237358368953" lon="14.186993646857726"><ele>216.49999999999997</ele><time>2026-05-01T14:05:02.999Z</time></trkpt><trkpt lat="42.252315242295666" lon="14.18702964743103"><ele>217.0</ele><time>2026-05-01T14:05:05.999Z</time></trkpt><trkpt lat="42.25227723042543" lon="14.186952051065974"><ele>217.0</ele><time>2026-05-01T14:05:07.999Z</time></trkpt><trkpt lat="42.2522077874231" lon="14.187106229049071"><ele>217.0</ele><time>2026-05-01T14:05:11.999Z</time></trkpt><trkpt lat="42.252185710475985" lon="14.187243636605762"><ele>217.0</ele><time>2026-05-01T14:05:13.999Z</time></trkpt><trkpt lat="42.25216922583282" lon="14.187352422031157"><ele>217.0</ele><time>2026-05-01T14:05:14.999Z</time></trkpt><trkpt lat="42.25213941727999" lon="14.187462797258084"><ele>217.0</ele><time>2026-05-01T14:05:15.999Z</time></trkpt><trkpt lat="42.25209640698952" lon="14.187547377712091"><ele>217.66666666666666</ele><time>2026-05-01T14:05:16.999Z</time></trkpt><trkpt lat="42.252044951962574" lon="14.187626452447883"><ele>218.33333333333331</ele><time>2026-05-01T14:05:17.999Z</time></trkpt><trkpt lat="42.25199815299628" lon="14.187693310416952"><ele>219.0</ele><time>2026-05-01T14:05:18.999Z</time></trkpt><trkpt lat="42.25191490205466" lon="14.187780755189744"><ele>219.66666666666669</ele><time>2026-05-01T14:05:20.999Z</time></trkpt><trkpt lat="42.251831930827166" lon="14.187887851070617"><ele>220.33333333333334</ele><time>2026-05-01T14:05:23Z</time></trkpt><trkpt lat="42.251782431400045" lon="14.187974666599883"><ele>221.0</ele><time>2026-05-01T14:05:24Z</time></trkpt><trkpt lat="42.251739308567316" lon="14.18806841093939"><ele>221.0</ele><time>2026-05-01T14:05:25Z</time></trkpt><trkpt lat="42.251704966264526" lon="14.188159169266504"><ele>221.00000000000003</ele><time>2026-05-01T14:05:26Z</time></trkpt><trkpt lat="42.25167681410253" lon="14.188311687381242"><ele>221.00000000000003</ele><time>2026-05-01T14:05:28Z</time></trkpt><trkpt lat="42.25168520048929" lon="14.188450273967364"><ele>221.0</ele><time>2026-05-01T14:05:30Z</time></trkpt><trkpt lat="42.25168930389517" lon="14.18854726822673"><ele>221.0</ele><time>2026-05-01T14:05:32Z</time></trkpt><trkpt lat="42.25161660581662" lon="14.18861984903048"><ele>220.5</ele><time>2026-05-01T14:05:33Z</time></trkpt><trkpt lat="42.25148495901931" lon="14.188694327943766"><ele>220.0</ele><time>2026-05-01T14:05:34Z</time></trkpt><trkpt lat="42.251365513310915" lon="14.188803671915398"><ele>219.5</ele><time>2026-05-01T14:05:35Z</time></trkpt><trkpt lat="42.25122292297182" lon="14.18890448920594"><ele>219.0</ele><time>2026-05-01T14:05:36Z</time></trkpt><trkpt lat="42.25110039428818" lon="14.189039686550027"><ele>220.5</ele><time>2026-05-01T14:05:37Z</time></trkpt><trkpt lat="42.25097025459845" lon="14.189133338831963"><ele>222.0</ele><time>2026-05-01T14:05:38Z</time></trkpt><trkpt lat="42.25084061508423" lon="14.18921026082494"><ele>223.5</ele><time>2026-05-01T14:05:39Z</time></trkpt><trkpt lat="42.25070429001166" lon="14.189267082435778"><ele>225.0</ele><time>2026-05-01T14:05:40Z</time></trkpt><trkpt lat="42.25057278785579" lon="14.189264992148088"><ele>225.5</ele><time>2026-05-01T14:05:41Z</time></trkpt><trkpt lat="42.25045294440835" lon="14.18918415097618"><ele>226.0</ele><time>2026-05-01T14:05:42Z</time></trkpt><trkpt lat="42.25031873418509" lon="14.189108898037555"><ele>226.5</ele><time>2026-05-01T14:05:43Z</time></trkpt><trkpt lat="42.25018593782649" lon="14.188990832476886"><ele>227.0</ele><time>2026-05-01T14:05:44Z</time></trkpt><trkpt lat="42.25005465258945" lon="14.188881926172195"><ele>225.75</ele><time>2026-05-01T14:05:45Z</time></trkpt><trkpt lat="42.249928851251234" lon="14.188801345950889"><ele>224.5</ele><time>2026-05-01T14:05:46Z</time></trkpt><trkpt lat="42.24980896391936" lon="14.188740577756457"><ele>223.25</ele><time>2026-05-01T14:05:47Z</time></trkpt><trkpt lat="42.249689664045874" lon="14.188678203811543"><ele>222.0</ele><time>2026-05-01T14:05:48Z</time></trkpt><trkpt lat="42.249577673000665" lon="14.188620734345584"><ele>222.0</ele><time>2026-05-01T14:05:49Z</time></trkpt><trkpt lat="42.249476614921754" lon="14.188561152002949"><ele>222.0</ele><time>2026-05-01T14:05:50Z</time></trkpt><trkpt lat="42.24938566647103" lon="14.18849723685137"><ele>222.0</ele><time>2026-05-01T14:05:51Z</time></trkpt><trkpt lat="42.24930861598361" lon="14.18840878252822"><ele>222.0</ele><time>2026-05-01T14:05:52Z</time></trkpt><trkpt lat="42.24924556296894" lon="14.18829731832495"><ele>222.0</ele><time>2026-05-01T14:05:53Z</time></trkpt><trkpt lat="42.24918612321861" lon="14.188152379921123"><ele>221.25</ele><time>2026-05-01T14:05:54Z</time></trkpt><trkpt lat="42.249096925222254" lon="14.188028544288645"><ele>220.5</ele><time>2026-05-01T14:05:55Z</time></trkpt><trkpt lat="42.24911286116724" lon="14.187789068481905"><ele>219.75</ele><time>2026-05-01T14:05:56Z</time></trkpt><trkpt lat="42.249138655813766" lon="14.18760215183443"><ele>219.0</ele><time>2026-05-01T14:05:57Z</time></trkpt><trkpt lat="42.2491503029233" lon="14.187434321902911"><ele>219.39999999999998</ele><time>2026-05-01T14:05:58Z</time></trkpt><trkpt lat="42.24915086074235" lon="14.187286269830848"><ele>219.79999999999998</ele><time>2026-05-01T14:05:59Z</time></trkpt><trkpt lat="42.24916592872417" lon="14.187146926920152"><ele>220.20000000000002</ele><time>2026-05-01T14:06:00Z</time></trkpt><trkpt lat="42.24917574577261" lon="14.187021282869576"><ele>220.60000000000002</ele><time>2026-05-01T14:06:01Z</time></trkpt><trkpt lat="42.249186507010364" lon="14.186905119730636"><ele>221.0</ele><time>2026-05-01T14:06:02Z</time></trkpt><trkpt lat="42.24919660859848" lon="14.186799483671988"><ele>221.0</ele><time>2026-05-01T14:06:03Z</time></trkpt><trkpt lat="42.24920636635913" lon="14.186699320743282"><ele>221.00000000000003</ele><time>2026-05-01T14:06:04Z</time></trkpt><trkpt lat="42.2492162111692" lon="14.186592411316715"><ele>221.00000000000003</ele><time>2026-05-01T14:06:06Z</time></trkpt><trkpt lat="42.24922643967354" lon="14.186425432559261"><ele>221.0</ele><time>2026-05-01T14:06:23Z</time></trkpt><trkpt lat="42.249240935988375" lon="14.186316365296038"><ele>221.0</ele><time>2026-05-01T14:06:24Z</time></trkpt><trkpt lat="42.24927681634366" lon="14.186198967333949"><ele>221.4</ele><time>2026-05-01T14:06:25Z</time></trkpt><trkpt lat="42.249327861059314" lon="14.186119025067708"><ele>221.8</ele><time>2026-05-01T14:06:26Z</time></trkpt><trkpt lat="42.24939783841037" lon="14.186057365208317"><ele>222.20000000000002</ele><time>2026-05-01T14:06:27Z</time></trkpt><trkpt lat="42.24947098404566" lon="14.186032928878067"><ele>222.60000000000002</ele><time>2026-05-01T14:06:28Z</time></trkpt><trkpt lat="42.24956350644682" lon="14.186058235311505"><ele>223.0</ele><time>2026-05-01T14:06:29Z</time></trkpt><trkpt lat="42.24968603767812" lon="14.186120410635803"><ele>221.0</ele><time>2026-05-01T14:06:30Z</time></trkpt><trkpt lat="42.24983585090529" lon="14.186220401726873"><ele>219.0</ele><time>2026-05-01T14:06:31Z</time></trkpt><trkpt lat="42.24996020209474" lon="14.18629707611728"><ele>217.0</ele><time>2026-05-01T14:06:32Z</time></trkpt><trkpt lat="42.2500611159856" lon="14.186332512654298"><ele>215.0</ele><time>2026-05-01T14:06:33Z</time></trkpt><trkpt lat="42.250145770672106" lon="14.186306942036053"><ele>215.0</ele><time>2026-05-01T14:06:34Z</time></trkpt><trkpt lat="42.250205809562594" lon="14.18622811887386"><ele>215.0</ele><time>2026-05-01T14:06:35Z</time></trkpt><trkpt lat="42.25026308650562" lon="14.186099832833166"><ele>215.0</ele><time>2026-05-01T14:06:36Z</time></trkpt><trkpt lat="42.25030947602366" lon="14.185922387927228"><ele>215.0</ele><time>2026-05-01T14:06:37Z</time></trkpt><trkpt lat="42.250343046366076" lon="14.18571833309114"><ele>214.25</ele><time>2026-05-01T14:06:38Z</time></trkpt><trkpt lat="42.25035248703202" lon="14.185509485846984"><ele>213.5</ele><time>2026-05-01T14:06:39Z</time></trkpt><trkpt lat="42.2503477081689" lon="14.18531340861862"><ele>212.75</ele><time>2026-05-01T14:06:40Z</time></trkpt><trkpt lat="42.25030603343672" lon="14.1851624773777"><ele>212.0</ele><time>2026-05-01T14:06:41Z</time></trkpt><trkpt lat="42.25025323330361" lon="14.185014485464167"><ele>212.0</ele><time>2026-05-01T14:06:42Z</time></trkpt><trkpt lat="42.250191942510995" lon="14.184869297412204"><ele>212.0</ele><time>2026-05-01T14:06:43Z</time></trkpt><trkpt lat="42.250088268152794" lon="14.184744782592645"><ele>212.0</ele><time>2026-05-01T14:06:44Z</time></trkpt><trkpt lat="42.24997510188771" lon="14.184649506186634"><ele>212.0</ele><time>2026-05-01T14:06:45Z</time></trkpt><trkpt lat="42.249855313195525" lon="14.184575662183642"><ele>212.75</ele><time>2026-05-01T14:06:46Z</time></trkpt><trkpt lat="42.249733222842565" lon="14.184503967289787"><ele>213.5</ele><time>2026-05-01T14:06:47Z</time></trkpt><trkpt lat="42.24962385037258" lon="14.1844023377099"><ele>214.25</ele><time>2026-05-01T14:06:48Z</time></trkpt><trkpt lat="42.249502969721014" lon="14.184327949415081"><ele>215.0</ele><time>2026-05-01T14:06:49Z</time></trkpt><trkpt lat="42.249406763079456" lon="14.184221567148576"><ele>215.0</ele><time>2026-05-01T14:06:50Z</time></trkpt><trkpt lat="42.249356967089916" lon="14.18407748463455"><ele>215.0</ele><time>2026-05-01T14:06:51Z</time></trkpt><trkpt lat="42.24929907281613" lon="14.183949552231667"><ele>215.0</ele><time>2026-05-01T14:06:52Z</time></trkpt><trkpt lat="42.2492554829393" lon="14.183819461767117"><ele>215.0</ele><time>2026-05-01T14:06:53Z</time></trkpt><trkpt lat="42.24921361429144" lon="14.183713345791304"><ele>215.0</ele><time>2026-05-01T14:06:54Z</time></trkpt><trkpt lat="42.24919028557545" lon="14.183622381634555"><ele>215.8</ele><time>2026-05-01T14:06:55Z</time></trkpt><trkpt lat="42.249170566550475" lon="14.183504345026524"><ele>216.6</ele><time>2026-05-01T14:06:57Z</time></trkpt><trkpt lat="42.249293422196985" lon="14.183432798981528"><ele>217.39999999999998</ele><time>2026-05-01T14:06:58Z</time></trkpt><trkpt lat="42.249358220710086" lon="14.183357031443515"><ele>218.2</ele><time>2026-05-01T14:06:59Z</time></trkpt><trkpt lat="42.24944480931964" lon="14.183298182579701"><ele>219.0</ele><time>2026-05-01T14:06:59.999Z</time></trkpt><trkpt lat="42.24953132855288" lon="14.183216721798047"><ele>218.79999999999998</ele><time>2026-05-01T14:07:00.999Z</time></trkpt><trkpt lat="42.24961501769663" lon="14.1831146595144"><ele>218.59999999999997</ele><time>2026-05-01T14:07:01.999Z</time></trkpt><trkpt lat="42.24968701979284" lon="14.183000783312979"><ele>218.4</ele><time>2026-05-01T14:07:02.999Z</time></trkpt><trkpt lat="42.24974769901679" lon="14.182880382961159"><ele>218.2</ele><time>2026-05-01T14:07:03.999Z</time></trkpt><trkpt lat="42.24980771787014" lon="14.182759475290284"><ele>218.0</ele><time>2026-05-01T14:07:04.999Z</time></trkpt><trkpt lat="42.2498696428165" lon="14.182637945429258"><ele>218.0</ele><time>2026-05-01T14:07:05.999Z</time></trkpt><trkpt lat="42.24993507893721" lon="14.18251203517593"><ele>218.0</ele><time>2026-05-01T14:07:06.999Z</time></trkpt><trkpt lat="42.25000343648401" lon="14.182386503177687"><ele>218.0</ele><time>2026-05-01T14:07:07.999Z</time></trkpt><trkpt lat="42.250069213349484" lon="14.182258494555622"><ele>218.0</ele><time>2026-05-01T14:07:08.999Z</time></trkpt><trkpt lat="42.250135845550695" lon="14.182133831288125"><ele>219.25</ele><time>2026-05-01T14:07:09.999Z</time></trkpt><trkpt lat="42.25020574354338" lon="14.182012802590119"><ele>220.5</ele><time>2026-05-01T14:07:10.999Z</time></trkpt><trkpt lat="42.25028619245022" lon="14.181900933923133"><ele>221.75</ele><time>2026-05-01T14:07:11.999Z</time></trkpt><trkpt lat="42.25037462800875" lon="14.181805111678784"><ele>223.0</ele><time>2026-05-01T14:07:12.999Z</time></trkpt><trkpt lat="42.25048173809152" lon="14.18172795464538"><ele>223.0</ele><time>2026-05-01T14:07:13.999Z</time></trkpt><trkpt lat="42.250604558356166" lon="14.181655635577927"><ele>223.0</ele><time>2026-05-01T14:07:14.999Z</time></trkpt><trkpt lat="42.250748586011014" lon="14.181594116880134"><ele>223.0</ele><time>2026-05-01T14:07:15.999Z</time></trkpt><trkpt lat="42.250894416852695" lon="14.181531756245201"><ele>223.0</ele><time>2026-05-01T14:07:17Z</time></trkpt><trkpt lat="42.251027559514" lon="14.181465813621003"><ele>222.75</ele><time>2026-05-01T14:07:18Z</time></trkpt><trkpt lat="42.25114127694433" lon="14.18140840957993"><ele>222.5</ele><time>2026-05-01T14:07:19Z</time></trkpt><trkpt lat="42.25124675335068" lon="14.181357236598958"><ele>222.25</ele><time>2026-05-01T14:07:20Z</time></trkpt><trkpt lat="42.25135496592127" lon="14.181305836349317"><ele>222.0</ele><time>2026-05-01T14:07:21Z</time></trkpt><trkpt lat="42.251451389818634" lon="14.181253902619739"><ele>222.39999999999998</ele><time>2026-05-01T14:07:22Z</time></trkpt><trkpt lat="42.251523364554835" lon="14.181228639070813"><ele>222.79999999999998</ele><time>2026-05-01T14:07:23Z</time></trkpt><trkpt lat="42.251589555051545" lon="14.181230425283246"><ele>223.2</ele><time>2026-05-01T14:07:25Z</time></trkpt><trkpt lat="42.25170694889422" lon="14.181354225995022"><ele>223.6</ele><time>2026-05-01T14:07:27Z</time></trkpt><trkpt lat="42.251781231303006" lon="14.181408623695411"><ele>224.0</ele><time>2026-05-01T14:07:28Z</time></trkpt><trkpt lat="42.25184562490876" lon="14.18149467195015"><ele>222.0</ele><time>2026-05-01T14:07:29Z</time></trkpt><trkpt lat="42.25192498571102" lon="14.181557516775824"><ele>219.99999999999997</ele><time>2026-05-01T14:07:30Z</time></trkpt><trkpt lat="42.25198858054205" lon="14.181642375165765"><ele>217.99999999999997</ele><time>2026-05-01T14:07:31Z</time></trkpt><trkpt lat="42.25206204106025" lon="14.181721928926509"><ele>216.0</ele><time>2026-05-01T14:07:32Z</time></trkpt><trkpt lat="42.25213914694505" lon="14.181799314456253"><ele>214.0</ele><time>2026-05-01T14:07:33Z</time></trkpt><trkpt lat="42.25222581447265" lon="14.181868020228702"><ele>213.79999999999998</ele><time>2026-05-01T14:07:34Z</time></trkpt><trkpt lat="42.25232088721205" lon="14.181915681701648"><ele>213.59999999999997</ele><time>2026-05-01T14:07:35Z</time></trkpt><trkpt lat="42.252424095367" lon="14.18194121357566"><ele>213.4</ele><time>2026-05-01T14:07:36Z</time></trkpt><trkpt lat="42.25252727171649" lon="14.181936508979797"><ele>213.2</ele><time>2026-05-01T14:07:37Z</time></trkpt><trkpt lat="42.25262952221707" lon="14.181908488126636"><ele>213.0</ele><time>2026-05-01T14:07:38Z</time></trkpt><trkpt lat="42.25273668184303" lon="14.181875455645018"><ele>213.0</ele><time>2026-05-01T14:07:39Z</time></trkpt><trkpt lat="42.252847978884056" lon="14.181848331144915"><ele>213.0</ele><time>2026-05-01T14:07:40Z</time></trkpt><trkpt lat="42.25297050745822" lon="14.181822932799111"><ele>213.0</ele><time>2026-05-01T14:07:41Z</time></trkpt><trkpt lat="42.253096703101214" lon="14.18179952752669"><ele>213.0</ele><time>2026-05-01T14:07:42Z</time></trkpt><trkpt lat="42.253223459222056" lon="14.181781809977794"><ele>214.5</ele><time>2026-05-01T14:07:43Z</time></trkpt><trkpt lat="42.25335272967261" lon="14.181782233311855"><ele>216.0</ele><time>2026-05-01T14:07:44Z</time></trkpt><trkpt lat="42.25347661870127" lon="14.181800431678017"><ele>217.5</ele><time>2026-05-01T14:07:45Z</time></trkpt><trkpt lat="42.25358314668384" lon="14.181839747898517"><ele>219.0</ele><time>2026-05-01T14:07:46Z</time></trkpt><trkpt lat="42.25369655277236" lon="14.181912262707344"><ele>219.0</ele><time>2026-05-01T14:07:47Z</time></trkpt><trkpt lat="42.25380976741111" lon="14.182004921129442"><ele>219.0</ele><time>2026-05-01T14:07:48Z</time></trkpt><trkpt lat="42.2539226683997" lon="14.182104804297117"><ele>219.0</ele><time>2026-05-01T14:07:49Z</time></trkpt><trkpt lat="42.25403076149738" lon="14.182193601131326"><ele>219.0</ele><time>2026-05-01T14:07:50Z</time></trkpt><trkpt lat="42.25414209307996" lon="14.182280547557129"><ele>219.25</ele><time>2026-05-01T14:07:51Z</time></trkpt><trkpt lat="42.254260700004124" lon="14.182368281678498"><ele>219.5</ele><time>2026-05-01T14:07:52Z</time></trkpt><trkpt lat="42.25438368784016" lon="14.182463211177797"><ele>219.75</ele><time>2026-05-01T14:07:53Z</time></trkpt><trkpt lat="42.25449167456347" lon="14.182554607633584"><ele>220.0</ele><time>2026-05-01T14:07:54Z</time></trkpt><trkpt lat="42.25458496634038" lon="14.18264131539675"><ele>220.0</ele><time>2026-05-01T14:07:55Z</time></trkpt><trkpt lat="42.254676448468096" lon="14.18273237766223"><ele>220.0</ele><time>2026-05-01T14:07:56Z</time></trkpt><trkpt lat="42.25476122597411" lon="14.182835635858186"><ele>220.0</ele><time>2026-05-01T14:07:57Z</time></trkpt><trkpt lat="42.25484242404662" lon="14.182952568329116"><ele>220.0</ele><time>2026-05-01T14:07:58Z</time></trkpt><trkpt lat="42.254930227533045" lon="14.18308363949802"><ele>220.33333333333331</ele><time>2026-05-01T14:07:59Z</time></trkpt><trkpt lat="42.255028920255455" lon="14.183223723173219"><ele>220.66666666666669</ele><time>2026-05-01T14:08:00Z</time></trkpt><trkpt lat="42.25514361199466" lon="14.183373759995863"><ele>221.0</ele><time>2026-05-01T14:08:01Z</time></trkpt><trkpt lat="42.25524927073415" lon="14.1835183281867"><ele>221.0</ele><time>2026-05-01T14:08:02Z</time></trkpt><trkpt lat="42.25535174234005" lon="14.18365618815297"><ele>221.0</ele><time>2026-05-01T14:08:03Z</time></trkpt><trkpt lat="42.255459086915224" lon="14.183798781761649"><ele>221.0</ele><time>2026-05-01T14:08:04Z</time></trkpt><trkpt lat="42.25556228066107" lon="14.1839428420011"><ele>221.0</ele><time>2026-05-01T14:08:05Z</time></trkpt><trkpt lat="42.25565366430551" lon="14.18408154758014"><ele>221.0</ele><time>2026-05-01T14:08:06Z</time></trkpt><trkpt lat="42.255732880547065" lon="14.18422115386824"><ele>221.0</ele><time>2026-05-01T14:08:07Z</time></trkpt><trkpt lat="42.25580969739365" lon="14.18435413140059"><ele>221.0</ele><time>2026-05-01T14:08:08Z</time></trkpt><trkpt lat="42.255894315880006" lon="14.184467159321935"><ele>221.0</ele><time>2026-05-01T14:08:09Z</time></trkpt><trkpt lat="42.255989815332114" lon="14.184556934420248"><ele>221.0</ele><time>2026-05-01T14:08:10Z</time></trkpt><trkpt lat="42.25609396445086" lon="14.184630732362415"><ele>221.00000000000003</ele><time>2026-05-01T14:08:11Z</time></trkpt><trkpt lat="42.25619412394624" lon="14.184694774078741"><ele>221.00000000000003</ele><time>2026-05-01T14:08:12Z</time></trkpt><trkpt lat="42.256285060376996" lon="14.184764384328737"><ele>221.0</ele><time>2026-05-01T14:08:13Z</time></trkpt><trkpt lat="42.25636973064401" lon="14.18483110952019"><ele>221.0</ele><time>2026-05-01T14:08:14Z</time></trkpt><trkpt lat="42.25644564700848" lon="14.184896312968872"><ele>221.0</ele><time>2026-05-01T14:08:15Z</time></trkpt><trkpt lat="42.2565129321401" lon="14.184953864505255"><ele>221.00000000000003</ele><time>2026-05-01T14:08:16Z</time></trkpt><trkpt lat="42.25657046726539" lon="14.185001456744166"><ele>221.00000000000003</ele><time>2026-05-01T14:08:17Z</time></trkpt><trkpt lat="42.2566248115263" lon="14.18505733132966"><ele>221.0</ele><time>2026-05-01T14:08:20Z</time></trkpt><trkpt lat="42.2566817912858" lon="14.185095491686806"><ele>221.0</ele><time>2026-05-01T14:08:35Z</time></trkpt><trkpt lat="42.25686434611157" lon="14.184750072048052"><ele>222.00000000000003</ele><time>2026-05-01T14:08:40Z</time></trkpt><trkpt lat="42.2569203038317" lon="14.184682980141917"><ele>223.0</ele><time>2026-05-01T14:08:41Z</time></trkpt><trkpt lat="42.25698352711308" lon="14.184627702025056"><ele>224.0</ele><time>2026-05-01T14:08:42.001Z</time></trkpt><trkpt lat="42.25705193522435" lon="14.184581352200683"><ele>225.0</ele><time>2026-05-01T14:08:43.001Z</time></trkpt><trkpt lat="42.25712097574875" lon="14.18453322475271"><ele>226.00000000000003</ele><time>2026-05-01T14:08:44.001Z</time></trkpt><trkpt lat="42.2571876889518" lon="14.184479647095385"><ele>227.0</ele><time>2026-05-01T14:08:45.001Z</time></trkpt><trkpt lat="42.25724557030687" lon="14.184424339298129"><ele>227.33333333333334</ele><time>2026-05-01T14:08:46.001Z</time></trkpt><trkpt lat="42.25730743031531" lon="14.184371601050445"><ele>227.66666666666669</ele><time>2026-05-01T14:08:47.001Z</time></trkpt><trkpt lat="42.25736695886312" lon="14.184313833414167"><ele>228.0</ele><time>2026-05-01T14:08:48.001Z</time></trkpt><trkpt lat="42.25741929005573" lon="14.184255786359609"><ele>228.33333333333331</ele><time>2026-05-01T14:08:49.001Z</time></trkpt><trkpt lat="42.25746740216435" lon="14.184198901026999"><ele>228.66666666666666</ele><time>2026-05-01T14:08:50.001Z</time></trkpt><trkpt lat="42.25753564135919" lon="14.184091174080812"><ele>229.0</ele><time>2026-05-01T14:08:52.001Z</time></trkpt><trkpt lat="42.25754999145467" lon="14.183945434502341"><ele>229.99999999999997</ele><time>2026-05-01T14:08:54.001Z</time></trkpt><trkpt lat="42.25756631244695" lon="14.18385292582423"><ele>231.0</ele><time>2026-05-01T14:08:55.001Z</time></trkpt><trkpt lat="42.257575763740654" lon="14.18376301309423"><ele>232.0</ele><time>2026-05-01T14:08:56.001Z</time></trkpt><trkpt lat="42.25756411900539" lon="14.183632692362941"><ele>233.0</ele><time>2026-05-01T14:08:58.001Z</time></trkpt><trkpt lat="42.25754689664648" lon="14.183515103297498"><ele>233.99999999999997</ele><time>2026-05-01T14:09:00.001Z</time></trkpt><trkpt lat="42.25752246791284" lon="14.183370914362895"><ele>235.0</ele><time>2026-05-01T14:09:02.001Z</time></trkpt><trkpt lat="42.25748300129409" lon="14.183226037442497"><ele>236.83333333333331</ele><time>2026-05-01T14:09:04.001Z</time></trkpt><trkpt lat="42.2574682831098" lon="14.18312756039113"><ele>238.66666666666666</ele><time>2026-05-01T14:09:05.001Z</time></trkpt><trkpt lat="42.25745901008185" lon="14.183042419597529"><ele>240.5</ele><time>2026-05-01T14:09:06Z</time></trkpt><trkpt lat="42.25742766744924" lon="14.182920807992447"><ele>242.33333333333331</ele><time>2026-05-01T14:09:08Z</time></trkpt><trkpt lat="42.25735239381385" lon="14.182830075975115"><ele>244.16666666666666</ele><time>2026-05-01T14:09:10Z</time></trkpt><trkpt lat="42.2572900120449" lon="14.18279251639945"><ele>246.0</ele><time>2026-05-01T14:09:11Z</time></trkpt><trkpt lat="42.2572087808771" lon="14.182750781502909"><ele>246.33333333333334</ele><time>2026-05-01T14:09:12Z</time></trkpt><trkpt lat="42.25713113240466" lon="14.182736610898582"><ele>246.66666666666669</ele><time>2026-05-01T14:09:13Z</time></trkpt><trkpt lat="42.25706911237217" lon="14.182697673654912"><ele>247.0</ele><time>2026-05-01T14:09:15Z</time></trkpt><trkpt lat="42.25701806985614" lon="14.182607815515803"><ele>247.33333333333334</ele><time>2026-05-01T14:09:18Z</time></trkpt><trkpt lat="42.25703303016934" lon="14.182507053979105"><ele>247.66666666666669</ele><time>2026-05-01T14:09:20Z</time></trkpt><trkpt lat="42.25706446760729" lon="14.182355444802063"><ele>248.0</ele><time>2026-05-01T14:09:22Z</time></trkpt><trkpt lat="42.25707857906075" lon="14.182218415086291"><ele>249.16666666666669</ele><time>2026-05-01T14:09:25Z</time></trkpt><trkpt lat="42.2571433789645" lon="14.182129917838292"><ele>250.33333333333334</ele><time>2026-05-01T14:09:27Z</time></trkpt><trkpt lat="42.25720754786339" lon="14.182067714965044"><ele>251.5</ele><time>2026-05-01T14:09:28Z</time></trkpt><trkpt lat="42.25725032390769" lon="14.182003574781218"><ele>252.66666666666669</ele><time>2026-05-01T14:09:29Z</time></trkpt><trkpt lat="42.25729465732094" lon="14.181928419270712"><ele>253.83333333333334</ele><time>2026-05-01T14:09:30Z</time></trkpt><trkpt lat="42.257328156055436" lon="14.181834701651107"><ele>255.0</ele><time>2026-05-01T14:09:31Z</time></trkpt><trkpt lat="42.25735967388685" lon="14.181705943736754"><ele>255.0</ele><time>2026-05-01T14:09:32Z</time></trkpt><trkpt lat="42.25740195064603" lon="14.181557186153436"><ele>255.0</ele><time>2026-05-01T14:09:33Z</time></trkpt><trkpt lat="42.257434320629656" lon="14.181427704342093"><ele>255.0</ele><time>2026-05-01T14:09:34Z</time></trkpt><trkpt lat="42.25747678289334" lon="14.181269814625468"><ele>255.0</ele><time>2026-05-01T14:09:36Z</time></trkpt><trkpt lat="42.257545288776925" lon="14.181158083852667"><ele>256.8</ele><time>2026-05-01T14:09:38Z</time></trkpt><trkpt lat="42.257586951653956" lon="14.181088767058787"><ele>258.6</ele><time>2026-05-01T14:09:39Z</time></trkpt><trkpt lat="42.25764405009891" lon="14.180967518362408"><ele>260.4</ele><time>2026-05-01T14:09:41Z</time></trkpt><trkpt lat="42.25770396281563" lon="14.180855037803989"><ele>262.2</ele><time>2026-05-01T14:09:43Z</time></trkpt><trkpt lat="42.25776085803337" lon="14.180743579428832"><ele>264.0</ele><time>2026-05-01T14:09:45Z</time></trkpt><trkpt lat="42.25781165684035" lon="14.180604923898395"><ele>267.25</ele><time>2026-05-01T14:09:47Z</time></trkpt><trkpt lat="42.25785431456171" lon="14.18039775762891"><ele>270.5</ele><time>2026-05-01T14:09:49Z</time></trkpt><trkpt lat="42.25786834951269" lon="14.180250466174295"><ele>273.75</ele><time>2026-05-01T14:09:50Z</time></trkpt><trkpt lat="42.25788028926877" lon="14.180074107576395"><ele>277.0</ele><time>2026-05-01T14:09:51Z</time></trkpt><trkpt lat="42.25788957267732" lon="14.179932701625958"><ele>278.8333333333333</ele><time>2026-05-01T14:09:52Z</time></trkpt><trkpt lat="42.257903329317884" lon="14.17981580049427"><ele>280.66666666666663</ele><time>2026-05-01T14:09:53Z</time></trkpt><trkpt lat="42.257912055369694" lon="14.179694859041662"><ele>282.5</ele><time>2026-05-01T14:09:54Z</time></trkpt><trkpt lat="42.25790850699545" lon="14.179588683006575"><ele>284.3333333333333</ele><time>2026-05-01T14:09:55.001Z</time></trkpt><trkpt lat="42.25789945898253" lon="14.179481812941901"><ele>286.1666666666667</ele><time>2026-05-01T14:09:56.001Z</time></trkpt><trkpt lat="42.25789653395144" lon="14.17939207638928"><ele>288.0</ele><time>2026-05-01T14:09:57.001Z</time></trkpt><trkpt lat="42.25790650810473" lon="14.1792911175762"><ele>288.0</ele><time>2026-05-01T14:09:58.001Z</time></trkpt><trkpt lat="42.2579245841383" lon="14.179198480346864"><ele>288.0</ele><time>2026-05-01T14:09:59.001Z</time></trkpt><trkpt lat="42.257961555409736" lon="14.179048913817661"><ele>288.0</ele><time>2026-05-01T14:10:01.001Z</time></trkpt><trkpt lat="42.257970227051736" lon="14.178889930469012"><ele>288.0</ele><time>2026-05-01T14:10:03.001Z</time></trkpt><trkpt lat="42.25800239731327" lon="14.178811308413804"><ele>288.0</ele><time>2026-05-01T14:10:04.001Z</time></trkpt><trkpt lat="42.25803911756189" lon="14.178735426648592"><ele>288.0</ele><time>2026-05-01T14:10:05.001Z</time></trkpt><trkpt lat="42.25805515977893" lon="14.178563728713202"><ele>289.6666666666667</ele><time>2026-05-01T14:10:07.001Z</time></trkpt><trkpt lat="42.25806014725723" lon="14.178464199243905"><ele>291.3333333333333</ele><time>2026-05-01T14:10:08.001Z</time></trkpt><trkpt lat="42.25807510674995" lon="14.178333903000626"><ele>293.0</ele><time>2026-05-01T14:10:10.001Z</time></trkpt><trkpt lat="42.258104070055985" lon="14.178234167024186"><ele>294.66666666666663</ele><time>2026-05-01T14:10:12.001Z</time></trkpt><trkpt lat="42.25809455010276" lon="14.178133960651497"><ele>296.3333333333333</ele><time>2026-05-01T14:10:14.001Z</time></trkpt><trkpt lat="42.25809525663091" lon="14.177998556671945"><ele>298.0</ele><time>2026-05-01T14:10:16.001Z</time></trkpt><trkpt lat="42.25807061700052" lon="14.177901317782634"><ele>299.16666666666663</ele><time>2026-05-01T14:10:18.001Z</time></trkpt><trkpt lat="42.25796594370502" lon="14.17783791093266"><ele>300.3333333333333</ele><time>2026-05-01T14:10:20.001Z</time></trkpt><trkpt lat="42.25790656243473" lon="14.17780064103152"><ele>301.5</ele><time>2026-05-01T14:10:21.001Z</time></trkpt><trkpt lat="42.257847435087626" lon="14.177724820836323"><ele>302.6666666666667</ele><time>2026-05-01T14:10:23.001Z</time></trkpt><trkpt lat="42.25775116961265" lon="14.177729354659348"><ele>303.83333333333337</ele><time>2026-05-01T14:10:25.001Z</time></trkpt><trkpt lat="42.25767308032035" lon="14.177752975604255"><ele>305.0</ele><time>2026-05-01T14:10:26.001Z</time></trkpt><trkpt lat="42.25760265753793" lon="14.177772394474676"><ele>305.0</ele><time>2026-05-01T14:10:27.001Z</time></trkpt><trkpt lat="42.257526076987354" lon="14.177702421198807"><ele>305.0</ele><time>2026-05-01T14:10:29.001Z</time></trkpt><trkpt lat="42.25740606176691" lon="14.177711771650428"><ele>305.0</ele><time>2026-05-01T14:10:31.001Z</time></trkpt><trkpt lat="42.2573316385867" lon="14.177762991274964"><ele>305.0</ele><time>2026-05-01T14:10:32.001Z</time></trkpt><trkpt lat="42.2572504866288" lon="14.177802942731086"><ele>305.0</ele><time>2026-05-01T14:10:33.001Z</time></trkpt><trkpt lat="42.25717458885817" lon="14.177874721479752"><ele>307.2</ele><time>2026-05-01T14:10:35.001Z</time></trkpt><trkpt lat="42.25713279677202" lon="14.177970723966453"><ele>309.4</ele><time>2026-05-01T14:10:37.001Z</time></trkpt><trkpt lat="42.257045071017195" lon="14.177955933802366"><ele>311.6</ele><time>2026-05-01T14:10:40.001Z</time></trkpt><trkpt lat="42.25702741363875" lon="14.177839771840985"><ele>313.8</ele><time>2026-05-01T14:10:43.001Z</time></trkpt><trkpt lat="42.25707444519594" lon="14.17764624846377"><ele>316.0</ele><time>2026-05-01T14:10:45.001Z</time></trkpt><trkpt lat="42.257099533947695" lon="14.17751274890784"><ele>316.00000000000006</ele><time>2026-05-01T14:10:46.001Z</time></trkpt><trkpt lat="42.25712855467699" lon="14.177425202277925"><ele>316.0</ele><time>2026-05-01T14:10:47.001Z</time></trkpt><trkpt lat="42.25715762575948" lon="14.177341725565341"><ele>316.0</ele><time>2026-05-01T14:10:48.001Z</time></trkpt><trkpt lat="42.25720749891318" lon="14.177256550088268"><ele>316.0</ele><time>2026-05-01T14:10:49.001Z</time></trkpt><trkpt lat="42.25725345229806" lon="14.177183454533703"><ele>316.0</ele><time>2026-05-01T14:10:50.001Z</time></trkpt><trkpt lat="42.25728946821191" lon="14.177113478872002"><ele>316.00000000000006</ele><time>2026-05-01T14:10:51.001Z</time></trkpt><trkpt lat="42.25732593484387" lon="14.177038581401577"><ele>316.0</ele><time>2026-05-01T14:10:52.001Z</time></trkpt><trkpt lat="42.25736254093412" lon="14.176954738597292"><ele>315.8333333333333</ele><time>2026-05-01T14:10:53.001Z</time></trkpt><trkpt lat="42.25739493469051" lon="14.176855399143037"><ele>315.66666666666663</ele><time>2026-05-01T14:10:54.001Z</time></trkpt><trkpt lat="42.25741942604857" lon="14.176763103367676"><ele>315.5</ele><time>2026-05-01T14:10:55.001Z</time></trkpt><trkpt lat="42.257454734265636" lon="14.176607803430516"><ele>315.3333333333333</ele><time>2026-05-01T14:10:57.001Z</time></trkpt><trkpt lat="42.257483804028254" lon="14.17652832481005"><ele>315.1666666666667</ele><time>2026-05-01T14:10:58.001Z</time></trkpt><trkpt lat="42.25752928197438" lon="14.176424910941146"><ele>315.0</ele><time>2026-05-01T14:11:00.001Z</time></trkpt><trkpt lat="42.25755749500117" lon="14.176342551831146"><ele>316.8</ele><time>2026-05-01T14:11:02.001Z</time></trkpt><trkpt lat="42.25756748902519" lon="14.176223626825122"><ele>318.6</ele><time>2026-05-01T14:11:05.001Z</time></trkpt><trkpt lat="42.257498437712634" lon="14.17612347364433"><ele>320.4</ele><time>2026-05-01T14:11:08.001Z</time></trkpt><trkpt lat="42.25736206453354" lon="14.176023747958805"><ele>322.2</ele><time>2026-05-01T14:11:10.001Z</time></trkpt><trkpt lat="42.25729488147193" lon="14.17596239978039"><ele>324.0</ele><time>2026-05-01T14:11:11.001Z</time></trkpt><trkpt lat="42.25724488910727" lon="14.175862925667992"><ele>325.0</ele><time>2026-05-01T14:11:13.001Z</time></trkpt><trkpt lat="42.257232343703" lon="14.17572487082915"><ele>326.0</ele><time>2026-05-01T14:11:15.001Z</time></trkpt><trkpt lat="42.25721732521367" lon="14.175639167722343"><ele>327.0</ele><time>2026-05-01T14:11:16.001Z</time></trkpt><trkpt lat="42.25718513651473" lon="14.17554129462598"><ele>328.0</ele><time>2026-05-01T14:11:17.001Z</time></trkpt><trkpt lat="42.25714089788481" lon="14.175384553032846"><ele>329.0</ele><time>2026-05-01T14:11:19.001Z</time></trkpt><trkpt lat="42.257163109913606" lon="14.175265515018074"><ele>329.0</ele><time>2026-05-01T14:11:20.001Z</time></trkpt><trkpt lat="42.25720734019822" lon="14.175148034219827"><ele>329.0</ele><time>2026-05-01T14:11:21.001Z</time></trkpt><trkpt lat="42.25725499649424" lon="14.175040543623087"><ele>329.0</ele><time>2026-05-01T14:11:22.001Z</time></trkpt><trkpt lat="42.25730450886131" lon="14.174929610365275"><ele>329.0</ele><time>2026-05-01T14:11:23.001Z</time></trkpt><trkpt lat="42.25735340021212" lon="14.174821230451272"><ele>329.0</ele><time>2026-05-01T14:11:24.001Z</time></trkpt><trkpt lat="42.257405456733544" lon="14.174703327483881"><ele>331.5</ele><time>2026-05-01T14:11:25.001Z</time></trkpt><trkpt lat="42.257458598035306" lon="14.1745773766466"><ele>334.0</ele><time>2026-05-01T14:11:26.001Z</time></trkpt><trkpt lat="42.25750933291217" lon="14.174444091418184"><ele>336.5</ele><time>2026-05-01T14:11:27.001Z</time></trkpt><trkpt lat="42.257563746635405" lon="14.174304595619263"><ele>339.0</ele><time>2026-05-01T14:11:28.001Z</time></trkpt><trkpt lat="42.25761979785272" lon="14.174168813679033"><ele>339.0</ele><time>2026-05-01T14:11:29.001Z</time></trkpt><trkpt lat="42.25767994668424" lon="14.174029675081266"><ele>339.0</ele><time>2026-05-01T14:11:30.001Z</time></trkpt><trkpt lat="42.25774185939677" lon="14.173891572417391"><ele>339.0</ele><time>2026-05-01T14:11:31.001Z</time></trkpt><trkpt lat="42.257822066579585" lon="14.17373732754006"><ele>339.0</ele><time>2026-05-01T14:11:32.001Z</time></trkpt><trkpt lat="42.25791684391111" lon="14.173579882605505"><ele>340.25</ele><time>2026-05-01T14:11:33.001Z</time></trkpt><trkpt lat="42.25802004422432" lon="14.173438932711576"><ele>341.5</ele><time>2026-05-01T14:11:34.001Z</time></trkpt><trkpt lat="42.25812062865714" lon="14.173336017402097"><ele>342.75</ele><time>2026-05-01T14:11:35.001Z</time></trkpt><trkpt lat="42.258228696900524" lon="14.17324024663819"><ele>344.0</ele><time>2026-05-01T14:11:36.001Z</time></trkpt><trkpt lat="42.25833261054276" lon="14.173146872870632"><ele>346.0</ele><time>2026-05-01T14:11:37.001Z</time></trkpt><trkpt lat="42.258434598395816" lon="14.173070950177083"><ele>348.0</ele><time>2026-05-01T14:11:38.001Z</time></trkpt><trkpt lat="42.258546186655146" lon="14.173024131980432"><ele>350.0</ele><time>2026-05-01T14:11:39.001Z</time></trkpt><trkpt lat="42.26035250094519" lon="14.173566149360415"><ele>350.0</ele><time>2026-05-01T14:12:53.001Z</time></trkpt><trkpt lat="42.26025793041254" lon="14.173452194629858"><ele>350.0</ele><time>2026-05-01T14:12:54.001Z</time></trkpt><trkpt lat="42.260144635942346" lon="14.173336137936998"><ele>350.0</ele><time>2026-05-01T14:12:55.001Z</time></trkpt><trkpt lat="42.260029275846364" lon="14.173237320125942"><ele>350.0</ele><time>2026-05-01T14:12:56.001Z</time></trkpt><trkpt lat="42.259927668679126" lon="14.173163478360664"><ele>352.5</ele><time>2026-05-01T14:12:57.001Z</time></trkpt><trkpt lat="42.259820628032685" lon="14.173105796253848"><ele>355.0</ele><time>2026-05-01T14:12:58.001Z</time></trkpt><trkpt lat="42.259701453130255" lon="14.17306487140914"><ele>357.5</ele><time>2026-05-01T14:12:59.001Z</time></trkpt><trkpt lat="42.25956732734952" lon="14.173048111287263"><ele>360.0</ele><time>2026-05-01T14:13:00.001Z</time></trkpt><trkpt lat="42.25942773754624" lon="14.173052452358869"><ele>360.0</ele><time>2026-05-01T14:13:01.001Z</time></trkpt><trkpt lat="42.259308065455514" lon="14.173054484266265"><ele>360.0</ele><time>2026-05-01T14:13:02.001Z</time></trkpt><trkpt lat="42.25920356871219" lon="14.173045654896988"><ele>360.0</ele><time>2026-05-01T14:13:03.001Z</time></trkpt><trkpt lat="42.25910135736356" lon="14.173034182601853"><ele>360.0</ele><time>2026-05-01T14:13:04.001Z</time></trkpt><trkpt lat="42.25899455988489" lon="14.17302730646356"><ele>360.0</ele><time>2026-05-01T14:13:05.001Z</time></trkpt><trkpt lat="42.25889495859239" lon="14.173019971605992"><ele>359.5</ele><time>2026-05-01T14:13:06.001Z</time></trkpt><trkpt lat="42.25880827916523" lon="14.173017253101445"><ele>359.0</ele><time>2026-05-01T14:13:07.001Z</time></trkpt><trkpt lat="42.258723068649466" lon="14.17301784423702"><ele>358.5</ele><time>2026-05-01T14:13:08.001Z</time></trkpt><trkpt lat="42.25864971817492" lon="14.173024696445879"><ele>358.0</ele><time>2026-05-01T14:13:09.001Z</time></trkpt><trkpt lat="42.258578032855866" lon="14.173024744555585"><ele>357.5</ele><time>2026-05-01T14:13:10.001Z</time></trkpt><trkpt lat="42.25846872212906" lon="14.173021044237457"><ele>357.0</ele><time>2026-05-01T14:13:12.001Z</time></trkpt><trkpt lat="42.25842603398069" lon="14.172931823813926"><ele>357.0</ele><time>2026-05-01T14:13:15.001Z</time></trkpt><trkpt lat="42.2585290815819" lon="14.172794361273123"><ele>357.0</ele><time>2026-05-01T14:13:17.001Z</time></trkpt><trkpt lat="42.25858866165116" lon="14.172679839886857"><ele>357.0</ele><time>2026-05-01T14:13:18.001Z</time></trkpt><trkpt lat="42.258673743832986" lon="14.172564585300988"><ele>357.0</ele><time>2026-05-01T14:13:19.001Z</time></trkpt><trkpt lat="42.25876379314113" lon="14.172436777036648"><ele>360.0</ele><time>2026-05-01T14:13:20.001Z</time></trkpt><trkpt lat="42.25885170359041" lon="14.17232279478928"><ele>363.0</ele><time>2026-05-01T14:13:21.001Z</time></trkpt><trkpt lat="42.25893686931053" lon="14.172225001800367"><ele>366.0</ele><time>2026-05-01T14:13:22.001Z</time></trkpt><trkpt lat="42.25901386568903" lon="14.172149542702451"><ele>369.0</ele><time>2026-05-01T14:13:23.001Z</time></trkpt><trkpt lat="42.25908375964424" lon="14.172082840093205"><ele>372.0</ele><time>2026-05-01T14:13:24.001Z</time></trkpt><trkpt lat="42.259148779072696" lon="14.172012830420213"><ele>372.20000000000005</ele><time>2026-05-01T14:13:25.001Z</time></trkpt><trkpt lat="42.2592198478683" lon="14.171938397578327"><ele>372.4</ele><time>2026-05-01T14:13:26.001Z</time></trkpt><trkpt lat="42.259292166953735" lon="14.171860997260888"><ele>372.6</ele><time>2026-05-01T14:13:27.001Z</time></trkpt><trkpt lat="42.25936036233696" lon="14.1717760920572"><ele>372.79999999999995</ele><time>2026-05-01T14:13:28.001Z</time></trkpt><trkpt lat="42.25942349408211" lon="14.17168213805928"><ele>373.0</ele><time>2026-05-01T14:13:29.001Z</time></trkpt><trkpt lat="42.25947610670153" lon="14.171576242899974"><ele>374.4</ele><time>2026-05-01T14:13:30.001Z</time></trkpt><trkpt lat="42.25951784673441" lon="14.171468483501368"><ele>375.79999999999995</ele><time>2026-05-01T14:13:31.001Z</time></trkpt><trkpt lat="42.25956708484191" lon="14.171405018803956"><ele>377.2</ele><time>2026-05-01T14:13:32.001Z</time></trkpt><trkpt lat="42.25962047436461" lon="14.1712972583241"><ele>378.6</ele><time>2026-05-01T14:13:34.001Z</time></trkpt><trkpt lat="42.2596580528824" lon="14.171190251710591"><ele>380.0</ele><time>2026-05-01T14:13:36.001Z</time></trkpt><trkpt lat="42.25976263130265" lon="14.171112635153941"><ele>378.33333333333337</ele><time>2026-05-01T14:13:38.001Z</time></trkpt><trkpt lat="42.259813745192375" lon="14.171039225943309"><ele>376.6666666666667</ele><time>2026-05-01T14:13:39.001Z</time></trkpt><trkpt lat="42.25987932074849" lon="14.170975788520037"><ele>375.0</ele><time>2026-05-01T14:13:40.001Z</time></trkpt><trkpt lat="42.259950376405286" lon="14.170904899637328"><ele>373.3333333333333</ele><time>2026-05-01T14:13:41.001Z</time></trkpt><trkpt lat="42.260038414560704" lon="14.170840418016194"><ele>371.66666666666663</ele><time>2026-05-01T14:13:42.001Z</time></trkpt><trkpt lat="42.26010934010412" lon="14.17074335284249"><ele>370.0</ele><time>2026-05-01T14:13:43.001Z</time></trkpt><trkpt lat="42.2601935487788" lon="14.170665008866044"><ele>369.4</ele><time>2026-05-01T14:13:44.001Z</time></trkpt><trkpt lat="42.260282486363074" lon="14.170584090081013"><ele>368.8</ele><time>2026-05-01T14:13:45.001Z</time></trkpt><trkpt lat="42.26037052107634" lon="14.170500522995413"><ele>368.20000000000005</ele><time>2026-05-01T14:13:46.001Z</time></trkpt><trkpt lat="42.260456247858556" lon="14.170414359817196"><ele>367.6</ele><time>2026-05-01T14:13:47.001Z</time></trkpt><trkpt lat="42.26054158651357" lon="14.170329319719665"><ele>367.0</ele><time>2026-05-01T14:13:48.001Z</time></trkpt><trkpt lat="42.26062337050734" lon="14.170241820506412"><ele>364.6</ele><time>2026-05-01T14:13:49.001Z</time></trkpt><trkpt lat="42.260701290395076" lon="14.17014855833369"><ele>362.20000000000005</ele><time>2026-05-01T14:13:50.001Z</time></trkpt><trkpt lat="42.26077578883651" lon="14.170049374567629"><ele>359.8</ele><time>2026-05-01T14:13:51.001Z</time></trkpt><trkpt lat="42.260841630603196" lon="14.169963231364775"><ele>357.4</ele><time>2026-05-01T14:13:52.001Z</time></trkpt><trkpt lat="42.26089500492995" lon="14.169899828892477"><ele>355.0</ele><time>2026-05-01T14:13:53.001Z</time></trkpt><trkpt lat="42.26096213552706" lon="14.1697779041595"><ele>353.8333333333333</ele><time>2026-05-01T14:13:55.001Z</time></trkpt><trkpt lat="42.261004659655036" lon="14.169641213119306"><ele>352.66666666666663</ele><time>2026-05-01T14:13:57.001Z</time></trkpt><trkpt lat="42.26101461595961" lon="14.169490028248479"><ele>351.5</ele><time>2026-05-01T14:13:59.001Z</time></trkpt><trkpt lat="42.26102378679845" lon="14.169394826226407"><ele>350.3333333333333</ele><time>2026-05-01T14:14:01.001Z</time></trkpt><trkpt lat="42.26103229643337" lon="14.169306659938869"><ele>349.1666666666667</ele><time>2026-05-01T14:14:03.001Z</time></trkpt><trkpt lat="42.2610423594446" lon="14.169202707658046"><ele>348.0</ele><time>2026-05-01T14:14:05.001Z</time></trkpt><trkpt lat="42.26105310831577" lon="14.169047248020622"><ele>347.1666666666667</ele><time>2026-05-01T14:14:07.001Z</time></trkpt><trkpt lat="42.26103145127758" lon="14.168949972300933"><ele>346.3333333333333</ele><time>2026-05-01T14:14:08.001Z</time></trkpt><trkpt lat="42.26102679913358" lon="14.16885832504392"><ele>345.5</ele><time>2026-05-01T14:14:09.001Z</time></trkpt><trkpt lat="42.26102015402988" lon="14.168686990420621"><ele>344.66666666666663</ele><time>2026-05-01T14:14:11.001Z</time></trkpt><trkpt lat="42.26102528082551" lon="14.168575973008386"><ele>343.8333333333333</ele><time>2026-05-01T14:14:12.001Z</time></trkpt><trkpt lat="42.26104061677001" lon="14.168467962772437"><ele>343.0</ele><time>2026-05-01T14:14:13.001Z</time></trkpt><trkpt lat="42.261061590670906" lon="14.168362746328318"><ele>343.0</ele><time>2026-05-01T14:14:14.001Z</time></trkpt><trkpt lat="42.26107677834366" lon="14.168243629918328"><ele>343.0</ele><time>2026-05-01T14:14:15.001Z</time></trkpt><trkpt lat="42.26111207639337" lon="14.168118567679054"><ele>343.0</ele><time>2026-05-01T14:14:16.001Z</time></trkpt><trkpt lat="42.26114236617501" lon="14.168003117518303"><ele>343.0</ele><time>2026-05-01T14:14:17.001Z</time></trkpt><trkpt lat="42.26116394767252" lon="14.167891887890553"><ele>343.0</ele><time>2026-05-01T14:14:18.001Z</time></trkpt><trkpt lat="42.2611717731099" lon="14.167778988022539"><ele>343.0</ele><time>2026-05-01T14:14:19.001Z</time></trkpt><trkpt lat="42.2611685359529" lon="14.167657656300836"><ele>341.5</ele><time>2026-05-01T14:14:20.001Z</time></trkpt><trkpt lat="42.2611808612933" lon="14.167544077541772"><ele>340.0</ele><time>2026-05-01T14:14:21.001Z</time></trkpt><trkpt lat="42.26117511507156" lon="14.167427989260462"><ele>338.5</ele><time>2026-05-01T14:14:22.001Z</time></trkpt><trkpt lat="42.261166800262195" lon="14.167316010841212"><ele>337.0</ele><time>2026-05-01T14:14:23.001Z</time></trkpt><trkpt lat="42.26115833220221" lon="14.167210854535993"><ele>335.5</ele><time>2026-05-01T14:14:24.001Z</time></trkpt><trkpt lat="42.261137885996824" lon="14.167115457865632"><ele>334.0</ele><time>2026-05-01T14:14:25.001Z</time></trkpt><trkpt lat="42.26115915734432" lon="14.166991512359456"><ele>331.0</ele><time>2026-05-01T14:14:27.001Z</time></trkpt><trkpt lat="42.26125995203143" lon="14.166955240344716"><ele>328.0</ele><time>2026-05-01T14:14:29.001Z</time></trkpt><trkpt lat="42.26134525832489" lon="14.167041775896166"><ele>325.0</ele><time>2026-05-01T14:14:31.001Z</time></trkpt><trkpt lat="42.26145427560986" lon="14.167089599962681"><ele>322.0</ele><time>2026-05-01T14:14:33.001Z</time></trkpt><trkpt lat="42.26155811742345" lon="14.167175376897273"><ele>319.0</ele><time>2026-05-01T14:14:35.001Z</time></trkpt><trkpt lat="42.261610216699175" lon="14.167234947876171"><ele>318.66666666666663</ele><time>2026-05-01T14:14:36.001Z</time></trkpt><trkpt lat="42.261670866450324" lon="14.167303408740018"><ele>318.3333333333333</ele><time>2026-05-01T14:14:37.001Z</time></trkpt><trkpt lat="42.26173050548662" lon="14.167366255458614"><ele>318.0</ele><time>2026-05-01T14:14:38.001Z</time></trkpt><trkpt lat="42.26178776236179" lon="14.16743024310141"><ele>317.6666666666667</ele><time>2026-05-01T14:14:39.001Z</time></trkpt><trkpt lat="42.26184072246187" lon="14.167492137866528"><ele>317.33333333333337</ele><time>2026-05-01T14:14:40.001Z</time></trkpt><trkpt lat="42.26193399235161" lon="14.1676169246082"><ele>317.0</ele><time>2026-05-01T14:14:42.001Z</time></trkpt><trkpt lat="42.261977981745" lon="14.167686801685907"><ele>317.0</ele><time>2026-05-01T14:14:43.001Z</time></trkpt><trkpt lat="42.26201884188588" lon="14.167755652066052"><ele>317.0</ele><time>2026-05-01T14:14:44.001Z</time></trkpt><trkpt lat="42.26208849909205" lon="14.167788916291057"><ele>317.0</ele><time>2026-05-01T14:14:45.001Z</time></trkpt><trkpt lat="42.262159899428795" lon="14.167744444366225"><ele>317.0</ele><time>2026-05-01T14:14:46.001Z</time></trkpt><trkpt lat="42.26223828445536" lon="14.167712580461124"><ele>317.0</ele><time>2026-05-01T14:14:47.001Z</time></trkpt><trkpt lat="42.26231661242517" lon="14.167681210343128"><ele>317.0</ele><time>2026-05-01T14:14:48.001Z</time></trkpt><trkpt lat="42.262391416519286" lon="14.167657971902944"><ele>312.5</ele><time>2026-05-01T14:14:49.001Z</time></trkpt><trkpt lat="42.26246972074124" lon="14.167641463884507"><ele>308.0</ele><time>2026-05-01T14:14:50.001Z</time></trkpt><trkpt lat="42.2625502422896" lon="14.167637917797935"><ele>303.5</ele><time>2026-05-01T14:14:51.001Z</time></trkpt><trkpt lat="42.26262450524682" lon="14.167653186077716"><ele>299.0</ele><time>2026-05-01T14:14:52.001Z</time></trkpt><trkpt lat="42.26269293496044" lon="14.167730358616375"><ele>294.5</ele><time>2026-05-01T14:14:53.001Z</time></trkpt><trkpt lat="42.262782554947265" lon="14.167762156229369"><ele>290.0</ele><time>2026-05-01T14:14:54.001Z</time></trkpt><trkpt lat="42.26287114334259" lon="14.167833014195862"><ele>290.0</ele><time>2026-05-01T14:14:55.001Z</time></trkpt><trkpt lat="42.26296523983824" lon="14.167903414092695"><ele>290.0</ele><time>2026-05-01T14:14:56.001Z</time></trkpt><trkpt lat="42.263054011405" lon="14.167968845321482"><ele>290.0</ele><time>2026-05-01T14:14:57.001Z</time></trkpt><trkpt lat="42.26314260524409" lon="14.168031849377627"><ele>290.0</ele><time>2026-05-01T14:14:58.001Z</time></trkpt><trkpt lat="42.26323414079832" lon="14.168091902057474"><ele>290.0</ele><time>2026-05-01T14:14:59.001Z</time></trkpt><trkpt lat="42.26332404083308" lon="14.168152219308228"><ele>288.1666666666667</ele><time>2026-05-01T14:15:00.001Z</time></trkpt><trkpt lat="42.26340083172268" lon="14.168205443470766"><ele>286.33333333333337</ele><time>2026-05-01T14:15:01.001Z</time></trkpt><trkpt lat="42.26346260150336" lon="14.168255899345393"><ele>284.5</ele><time>2026-05-01T14:15:02.001Z</time></trkpt><trkpt lat="42.26352611187788" lon="14.16831108065545"><ele>282.6666666666667</ele><time>2026-05-01T14:15:03.001Z</time></trkpt><trkpt lat="42.263603867815796" lon="14.168363104023468"><ele>280.8333333333333</ele><time>2026-05-01T14:15:04.001Z</time></trkpt><trkpt lat="42.263689767008785" lon="14.168403136414454"><ele>279.0</ele><time>2026-05-01T14:15:05.001Z</time></trkpt><trkpt lat="42.263780191632726" lon="14.16842868672031"><ele>279.0</ele><time>2026-05-01T14:15:06.001Z</time></trkpt><trkpt lat="42.263862200788054" lon="14.168438373245383"><ele>279.0</ele><time>2026-05-01T14:15:07.001Z</time></trkpt><trkpt lat="42.263940411695714" lon="14.168437271672982"><ele>279.0</ele><time>2026-05-01T14:15:08.001Z</time></trkpt><trkpt lat="42.264014548945916" lon="14.168422376476462"><ele>279.0</ele><time>2026-05-01T14:15:09.001Z</time></trkpt><trkpt lat="42.26408278593302" lon="14.16842866458993"><ele>279.0</ele><time>2026-05-01T14:15:10.001Z</time></trkpt><trkpt lat="42.264155569847475" lon="14.168385585237768"><ele>279.0</ele><time>2026-05-01T14:15:13.001Z</time></trkpt><trkpt lat="42.26424672769796" lon="14.168342353874003"><ele>276.57142857142856</ele><time>2026-05-01T14:15:16.001Z</time></trkpt><trkpt lat="42.26430172785091" lon="14.16827573739073"><ele>274.1428571428571</ele><time>2026-05-01T14:15:18.001Z</time></trkpt><trkpt lat="42.26434170834717" lon="14.168189592108964"><ele>271.7142857142857</ele><time>2026-05-01T14:15:21.001Z</time></trkpt><trkpt lat="42.264364916596094" lon="14.168095087505597"><ele>269.2857142857143</ele><time>2026-05-01T14:15:33.001Z</time></trkpt><trkpt lat="42.26440325613325" lon="14.16802568629002"><ele>266.8571428571429</ele><time>2026-05-01T14:16:38.001Z</time></trkpt><trkpt lat="42.26443310845941" lon="14.167933922321888"><ele>264.42857142857144</ele><time>2026-05-01T14:16:40.001Z</time></trkpt><trkpt lat="42.26448716213025" lon="14.167840027757416"><ele>262.0</ele><time>2026-05-01T14:16:42.001Z</time></trkpt><trkpt lat="42.26454402281109" lon="14.167700785220422"><ele>260.5</ele><time>2026-05-01T14:16:44.001Z</time></trkpt><trkpt lat="42.26457877343133" lon="14.167617519128882"><ele>259.0</ele><time>2026-05-01T14:16:45.001Z</time></trkpt><trkpt lat="42.264617020582705" lon="14.167532046060767"><ele>257.5</ele><time>2026-05-01T14:16:46.001Z</time></trkpt><trkpt lat="42.2646448939035" lon="14.167438805681476"><ele>256.0</ele><time>2026-05-01T14:16:47.001Z</time></trkpt><trkpt lat="42.26470608121157" lon="14.167388698191264"><ele>254.49999999999997</ele><time>2026-05-01T14:16:48.001Z</time></trkpt><trkpt lat="42.26479348613213" lon="14.167316535496239"><ele>253.0</ele><time>2026-05-01T14:16:50.001Z</time></trkpt><trkpt lat="42.264885033121296" lon="14.167307892213001"><ele>248.33333333333331</ele><time>2026-05-01T14:16:53.001Z</time></trkpt><trkpt lat="42.26495421666806" lon="14.167284605219619"><ele>243.66666666666666</ele><time>2026-05-01T14:16:57.001Z</time></trkpt><trkpt lat="42.265012189114344" lon="14.167245133677547"><ele>239.0</ele><time>2026-05-01T14:17:00.001Z</time></trkpt><trkpt lat="42.26506918502394" lon="14.167162322563518"><ele>234.33333333333331</ele><time>2026-05-01T14:17:03.001Z</time></trkpt><trkpt lat="42.26511457014004" lon="14.167098661789668"><ele>229.66666666666666</ele><time>2026-05-01T14:17:05.001Z</time></trkpt><trkpt lat="42.26517401897781" lon="14.167022478930814"><ele>225.0</ele><time>2026-05-01T14:17:07.001Z</time></trkpt><trkpt lat="42.265243722605454" lon="14.166942141314394"><ele>225.0</ele><time>2026-05-01T14:17:09.001Z</time></trkpt><trkpt lat="42.26532082907457" lon="14.16681925085496"><ele>225.0</ele><time>2026-05-01T14:17:11.001Z</time></trkpt><trkpt lat="42.26536511488985" lon="14.166748422014594"><ele>225.0</ele><time>2026-05-01T14:17:12.001Z</time></trkpt><trkpt lat="42.26541089449042" lon="14.166681478277114"><ele>225.0</ele><time>2026-05-01T14:17:13.001Z</time></trkpt><trkpt lat="42.265455891064654" lon="14.166614830272781"><ele>225.0</ele><time>2026-05-01T14:17:14.001Z</time></trkpt><trkpt lat="42.26550415867818" lon="14.166549516928853"><ele>225.0</ele><time>2026-05-01T14:17:15.001Z</time></trkpt><trkpt lat="42.265553773483106" lon="14.16648360235657"><ele>222.16666666666666</ele><time>2026-05-01T14:17:16.001Z</time></trkpt><trkpt lat="42.26560532866719" lon="14.166419978207015"><ele>219.33333333333331</ele><time>2026-05-01T14:17:17.001Z</time></trkpt><trkpt lat="42.26565710510007" lon="14.166355920493157"><ele>216.5</ele><time>2026-05-01T14:17:18.001Z</time></trkpt><trkpt lat="42.26570862775947" lon="14.166300340774768"><ele>213.66666666666666</ele><time>2026-05-01T14:17:19.001Z</time></trkpt><trkpt lat="42.26575666728757" lon="14.166241363907035"><ele>210.83333333333331</ele><time>2026-05-01T14:17:20.001Z</time></trkpt><trkpt lat="42.26582825457756" lon="14.166136002704581"><ele>208.0</ele><time>2026-05-01T14:17:22.001Z</time></trkpt><trkpt lat="42.265868597181" lon="14.166051629892555"><ele>208.0</ele><time>2026-05-01T14:17:24.001Z</time></trkpt><trkpt lat="42.265906938878764" lon="14.16592882276022"><ele>208.0</ele><time>2026-05-01T14:17:45.001Z</time></trkpt><trkpt lat="42.26593682419207" lon="14.16582335317494"><ele>208.0</ele><time>2026-05-01T14:17:47.001Z</time></trkpt><trkpt lat="42.265965439373204" lon="14.165703988915302"><ele>208.0</ele><time>2026-05-01T14:17:49.001Z</time></trkpt><trkpt lat="42.26600665548898" lon="14.165609865860429"><ele>208.0</ele><time>2026-05-01T14:17:51.001Z</time></trkpt><trkpt lat="42.266100983348515" lon="14.165596862273985"><ele>208.0</ele><time>2026-05-01T14:17:54.001Z</time></trkpt><trkpt lat="42.266163878298904" lon="14.165683861321812"><ele>208.0</ele><time>2026-05-01T14:17:56.001Z</time></trkpt><trkpt lat="42.26618406892613" lon="14.16583753243674"><ele>208.0</ele><time>2026-05-01T14:17:58.001Z</time></trkpt><trkpt lat="42.266238406072326" lon="14.165990409829229"><ele>208.0</ele><time>2026-05-01T14:18:00.001Z</time></trkpt><trkpt lat="42.266256913264236" lon="14.16615004205614"><ele>207.99999999999997</ele><time>2026-05-01T14:18:02.001Z</time></trkpt><trkpt lat="42.26627250146143" lon="14.166236513657784"><ele>208.0</ele><time>2026-05-01T14:18:03.001Z</time></trkpt><trkpt lat="42.26629377845985" lon="14.166339500557092"><ele>208.0</ele><time>2026-05-01T14:18:04.001Z</time></trkpt><trkpt lat="42.26631496288207" lon="14.166432010140452"><ele>208.0</ele><time>2026-05-01T14:18:05.001Z</time></trkpt><trkpt lat="42.26634442850083" lon="14.166535061268224"><ele>207.99999999999997</ele><time>2026-05-01T14:18:06.001Z</time></trkpt><trkpt lat="42.266396022957636" lon="14.16661998577221"><ele>208.0</ele><time>2026-05-01T14:18:07.001Z</time></trkpt><trkpt lat="42.26643291030285" lon="14.166707335444226"><ele>206.99999999999997</ele><time>2026-05-01T14:18:08.001Z</time></trkpt><trkpt lat="42.26647128661755" lon="14.16679502842565"><ele>206.0</ele><time>2026-05-01T14:18:09.001Z</time></trkpt><trkpt lat="42.266507397672456" lon="14.166870276131167"><ele>205.0</ele><time>2026-05-01T14:18:10.001Z</time></trkpt><trkpt lat="42.266545336374904" lon="14.166954335638598"><ele>204.0</ele><time>2026-05-01T14:18:11.001Z</time></trkpt><trkpt lat="42.26658940161501" lon="14.167051835288792"><ele>202.99999999999997</ele><time>2026-05-01T14:18:12.001Z</time></trkpt><trkpt lat="42.26663158019524" lon="14.167152750806"><ele>202.0</ele><time>2026-05-01T14:18:13.001Z</time></trkpt><trkpt lat="42.26667215773811" lon="14.167245941165127"><ele>201.99999999999997</ele><time>2026-05-01T14:18:14.001Z</time></trkpt><trkpt lat="42.26670633774314" lon="14.167329202242755"><ele>202.0</ele><time>2026-05-01T14:18:15.001Z</time></trkpt><trkpt lat="42.26674283945388" lon="14.167420434861064"><ele>202.0</ele><time>2026-05-01T14:18:16.001Z</time></trkpt><trkpt lat="42.266777932920284" lon="14.167511487975531"><ele>202.0</ele><time>2026-05-01T14:18:17.001Z</time></trkpt><trkpt lat="42.26681259525179" lon="14.167602772166534"><ele>201.99999999999997</ele><time>2026-05-01T14:18:18.001Z</time></trkpt><trkpt lat="42.26685117046312" lon="14.16768905063733"><ele>202.0</ele><time>2026-05-01T14:18:19.001Z</time></trkpt><trkpt lat="42.26689734848216" lon="14.167771886263628"><ele>202.16666666666666</ele><time>2026-05-01T14:18:20.001Z</time></trkpt><trkpt lat="42.266941430635" lon="14.167849673217797"><ele>202.33333333333331</ele><time>2026-05-01T14:18:21.001Z</time></trkpt><trkpt lat="42.26697966334905" lon="14.1679253487288"><ele>202.5</ele><time>2026-05-01T14:18:22.001Z</time></trkpt><trkpt lat="42.26702453192699" lon="14.167994788700497"><ele>202.66666666666669</ele><time>2026-05-01T14:18:23.001Z</time></trkpt><trkpt lat="42.26709794941501" lon="14.168122717111897"><ele>202.83333333333334</ele><time>2026-05-01T14:18:25.001Z</time></trkpt><trkpt lat="42.2671885403781" lon="14.168231262192757"><ele>203.0</ele><time>2026-05-01T14:18:27.001Z</time></trkpt><trkpt lat="42.267269379367875" lon="14.16835346650171"><ele>200.16666666666669</ele><time>2026-05-01T14:18:29.001Z</time></trkpt><trkpt lat="42.267314909891844" lon="14.168413162078469"><ele>197.33333333333334</ele><time>2026-05-01T14:18:30.001Z</time></trkpt><trkpt lat="42.26736843027156" lon="14.168461970376054"><ele>194.5</ele><time>2026-05-01T14:18:31.001Z</time></trkpt><trkpt lat="42.2674602866644" lon="14.16859489392719"><ele>191.66666666666669</ele><time>2026-05-01T14:18:33.001Z</time></trkpt><trkpt lat="42.267512072888884" lon="14.168667131354592"><ele>188.83333333333334</ele><time>2026-05-01T14:18:34.001Z</time></trkpt><trkpt lat="42.2675934034382" lon="14.168737694100525"><ele>186.0</ele><time>2026-05-01T14:18:36.001Z</time></trkpt><trkpt lat="42.267676572052714" lon="14.168712017971828"><ele>186.0</ele><time>2026-05-01T14:18:39.001Z</time></trkpt><trkpt lat="42.26768603082257" lon="14.168574942918339"><ele>186.0</ele><time>2026-05-01T14:18:42.001Z</time></trkpt><trkpt lat="42.26769172280742" lon="14.168430573417838"><ele>186.0</ele><time>2026-05-01T14:18:44.001Z</time></trkpt><trkpt lat="42.26770094030269" lon="14.16834080048282"><ele>186.0</ele><time>2026-05-01T14:18:45.001Z</time></trkpt><trkpt lat="42.267710584634656" lon="14.168251533151665"><ele>186.0</ele><time>2026-05-01T14:18:46.001Z</time></trkpt><trkpt lat="42.26772233302894" lon="14.168161548608136"><ele>186.0</ele><time>2026-05-01T14:18:47.001Z</time></trkpt><trkpt lat="42.26774084603517" lon="14.168021138855302"><ele>185.20000000000002</ele><time>2026-05-01T14:18:49.001Z</time></trkpt><trkpt lat="42.26774396072722" lon="14.16793007490563"><ele>184.4</ele><time>2026-05-01T14:18:51.001Z</time></trkpt><trkpt lat="42.26774405443741" lon="14.16781574233978"><ele>183.6</ele><time>2026-05-01T14:18:53.001Z</time></trkpt><trkpt lat="42.267741155040696" lon="14.167690701431196"><ele>182.8</ele><time>2026-05-01T14:18:55.001Z</time></trkpt><trkpt lat="42.26772883622984" lon="14.167513198747846"><ele>182.0</ele><time>2026-05-01T14:18:57.001Z</time></trkpt><trkpt lat="42.26772035364056" lon="14.167403453661594"><ele>181.28571428571428</ele><time>2026-05-01T14:18:58.001Z</time></trkpt><trkpt lat="42.267712806689886" lon="14.167305813560102"><ele>180.57142857142856</ele><time>2026-05-01T14:18:59.001Z</time></trkpt><trkpt lat="42.267704705453745" lon="14.167204584924168"><ele>179.85714285714286</ele><time>2026-05-01T14:19:00.001Z</time></trkpt><trkpt lat="42.26769482031448" lon="14.167099688652987"><ele>179.14285714285714</ele><time>2026-05-01T14:19:01.001Z</time></trkpt><trkpt lat="42.26768798261543" lon="14.167004611980502"><ele>178.42857142857142</ele><time>2026-05-01T14:19:02.001Z</time></trkpt><trkpt lat="42.267687911475875" lon="14.166912920705506"><ele>177.71428571428572</ele><time>2026-05-01T14:19:03.001Z</time></trkpt><trkpt lat="42.26767303350076" lon="14.16682595953261"><ele>177.0</ele><time>2026-05-01T14:19:04.001Z</time></trkpt><trkpt lat="42.26768914364446" lon="14.166734733683782"><ele>177.0</ele><time>2026-05-01T14:19:05.001Z</time></trkpt><trkpt lat="42.26768850664411" lon="14.166645871715433"><ele>177.0</ele><time>2026-05-01T14:19:06.001Z</time></trkpt><trkpt lat="42.267702075450295" lon="14.166495002565073"><ele>177.0</ele><time>2026-05-01T14:19:08.001Z</time></trkpt><trkpt lat="42.267731727024206" lon="14.166340207644724"><ele>177.0</ele><time>2026-05-01T14:19:10.001Z</time></trkpt><trkpt lat="42.26777231180608" lon="14.166212962039483"><ele>177.0</ele><time>2026-05-01T14:19:12.001Z</time></trkpt><trkpt lat="42.26783596683662" lon="14.166110706463542"><ele>176.6</ele><time>2026-05-01T14:19:14.001Z</time></trkpt><trkpt lat="42.26790935429287" lon="14.166037706806534"><ele>176.2</ele><time>2026-05-01T14:19:16.001Z</time></trkpt><trkpt lat="42.26798981126877" lon="14.16596651955178"><ele>175.8</ele><time>2026-05-01T14:19:18.001Z</time></trkpt><trkpt lat="42.26805192746048" lon="14.16585455757692"><ele>175.4</ele><time>2026-05-01T14:19:20.001Z</time></trkpt><trkpt lat="42.26811948427077" lon="14.16573079330063"><ele>175.0</ele><time>2026-05-01T14:19:22.001Z</time></trkpt><trkpt lat="42.268126054837055" lon="14.16558074767188"><ele>174.16666666666669</ele><time>2026-05-01T14:19:24.001Z</time></trkpt><trkpt lat="42.26812091674496" lon="14.165477497218468"><ele>173.33333333333334</ele><time>2026-05-01T14:19:26.001Z</time></trkpt><trkpt lat="42.268117325444564" lon="14.165375958921487"><ele>172.5</ele><time>2026-05-01T14:19:28.001Z</time></trkpt><trkpt lat="42.2681135705331" lon="14.16526979482625"><ele>171.66666666666666</ele><time>2026-05-01T14:19:32.001Z</time></trkpt><trkpt lat="42.26811045157894" lon="14.165180499360265"><ele>170.83333333333331</ele><time>2026-05-01T14:19:36.001Z</time></trkpt><trkpt lat="42.268104591360846" lon="14.165067109994215"><ele>170.0</ele><time>2026-05-01T14:20:09.001Z</time></trkpt><trkpt lat="42.2680985230725" lon="14.164949694686461"><ele>167.8</ele><time>2026-05-01T14:20:11.001Z</time></trkpt><trkpt lat="42.26809394703147" lon="14.164833325505834"><ele>165.6</ele><time>2026-05-01T14:20:13.001Z</time></trkpt><trkpt lat="42.26809046921635" lon="14.164700951085498"><ele>163.4</ele><time>2026-05-01T14:20:15.001Z</time></trkpt><trkpt lat="42.26808755024146" lon="14.16458853967138"><ele>161.2</ele><time>2026-05-01T14:20:17.001Z</time></trkpt><trkpt lat="42.26808260313418" lon="14.164458626084066"><ele>159.0</ele><time>2026-05-01T14:20:19.001Z</time></trkpt><trkpt lat="42.26807721175257" lon="14.164317045554595"><ele>159.0</ele><time>2026-05-01T14:20:21.001Z</time></trkpt><trkpt lat="42.26807145936932" lon="14.164204709113177"><ele>159.0</ele><time>2026-05-01T14:20:23.001Z</time></trkpt><trkpt lat="42.26806188929166" lon="14.16407517872198"><ele>159.0</ele><time>2026-05-01T14:20:25.001Z</time></trkpt><trkpt lat="42.26804206876221" lon="14.163949322878526"><ele>159.0</ele><time>2026-05-01T14:20:27.001Z</time></trkpt><trkpt lat="42.268037766490586" lon="14.16383271378093"><ele>159.0</ele><time>2026-05-01T14:20:30.001Z</time></trkpt><trkpt lat="42.26806537557352" lon="14.163705487226505"><ele>156.4</ele><time>2026-05-01T14:20:42.001Z</time></trkpt><trkpt lat="42.268090833710716" lon="14.16359059658007"><ele>153.8</ele><time>2026-05-01T14:20:44.001Z</time></trkpt><trkpt lat="42.26811805419484" lon="14.163450086089737"><ele>151.2</ele><time>2026-05-01T14:20:46.001Z</time></trkpt><trkpt lat="42.26815680183199" lon="14.163324726868288"><ele>148.6</ele><time>2026-05-01T14:20:48.001Z</time></trkpt><trkpt lat="42.2682141654949" lon="14.163196976837858"><ele>146.0</ele><time>2026-05-01T14:20:50.001Z</time></trkpt><trkpt lat="42.26824914456636" lon="14.163103945759483"><ele>146.0</ele><time>2026-05-01T14:20:52.001Z</time></trkpt><trkpt lat="42.26829452381543" lon="14.162970184180573"><ele>146.0</ele><time>2026-05-01T14:20:54.001Z</time></trkpt><trkpt lat="42.26833219039223" lon="14.162882177641988"><ele>146.0</ele><time>2026-05-01T14:20:55.001Z</time></trkpt><trkpt lat="42.26837456151836" lon="14.162777382658865"><ele>146.0</ele><time>2026-05-01T14:20:56.001Z</time></trkpt><trkpt lat="42.268423263194826" lon="14.16266800455391"><ele>146.0</ele><time>2026-05-01T14:20:57.001Z</time></trkpt><trkpt lat="42.268475329890464" lon="14.162558552425434"><ele>146.0</ele><time>2026-05-01T14:20:58.001Z</time></trkpt><trkpt lat="42.2685484061316" lon="14.162466292973548"><ele>146.0</ele><time>2026-05-01T14:20:59.001Z</time></trkpt><trkpt lat="42.26859614428156" lon="14.162374745506101"><ele>146.0</ele><time>2026-05-01T14:21:00.001Z</time></trkpt><trkpt lat="42.268656567971895" lon="14.162327365066426"><ele>146.0</ele><time>2026-05-01T14:21:01.001Z</time></trkpt><trkpt lat="42.26872700603485" lon="14.16228858814646"><ele>146.0</ele><time>2026-05-01T14:21:02.001Z</time></trkpt><trkpt lat="42.26879945616997" lon="14.162301739537849"><ele>146.0</ele><time>2026-05-01T14:21:03.001Z</time></trkpt><trkpt lat="42.26887752195435" lon="14.162307895652782"><ele>148.0</ele><time>2026-05-01T14:21:04.001Z</time></trkpt><trkpt lat="42.268939001855955" lon="14.16232750061467"><ele>150.0</ele><time>2026-05-01T14:21:05.001Z</time></trkpt><trkpt lat="42.26904824579203" lon="14.16233626171088"><ele>152.0</ele><time>2026-05-01T14:21:07.001Z</time></trkpt><trkpt lat="42.269148829412124" lon="14.16230492655038"><ele>154.0</ele><time>2026-05-01T14:21:09.001Z</time></trkpt><trkpt lat="42.269228296668125" lon="14.162168640702147"><ele>156.0</ele><time>2026-05-01T14:21:11.001Z</time></trkpt><trkpt lat="42.26926528221277" lon="14.162050571684885"><ele>156.0</ele><time>2026-05-01T14:21:12.001Z</time></trkpt><trkpt lat="42.26925934907319" lon="14.161908966146225"><ele>156.0</ele><time>2026-05-01T14:21:13.001Z</time></trkpt><trkpt lat="42.269249221685634" lon="14.161796379790477"><ele>156.0</ele><time>2026-05-01T14:21:14.001Z</time></trkpt><trkpt lat="42.26923978854738" lon="14.16169688425277"><ele>156.0</ele><time>2026-05-01T14:21:15.001Z</time></trkpt><trkpt lat="42.269226405296635" lon="14.161523171852707"><ele>156.0</ele><time>2026-05-01T14:21:17.001Z</time></trkpt><trkpt lat="42.26921760524538" lon="14.16140894861928"><ele>157.4</ele><time>2026-05-01T14:21:18.001Z</time></trkpt><trkpt lat="42.26920968662347" lon="14.161308451081695"><ele>158.8</ele><time>2026-05-01T14:21:19.001Z</time></trkpt><trkpt lat="42.26920280113314" lon="14.16122206050324"><ele>160.20000000000002</ele><time>2026-05-01T14:21:20.001Z</time></trkpt><trkpt lat="42.26918116854973" lon="14.161063281595103"><ele>161.6</ele><time>2026-05-01T14:21:22.001Z</time></trkpt><trkpt lat="42.26913778806123" lon="14.160889728858518"><ele>163.0</ele><time>2026-05-01T14:21:24.001Z</time></trkpt><trkpt lat="42.2690599052532" lon="14.160772225258421"><ele>163.0</ele><time>2026-05-01T14:21:26.001Z</time></trkpt><trkpt lat="42.268984159149326" lon="14.160778664969326"><ele>163.0</ele><time>2026-05-01T14:21:27.001Z</time></trkpt><trkpt lat="42.26891778624635" lon="14.160766668199804"><ele>163.0</ele><time>2026-05-01T14:21:28.001Z</time></trkpt><trkpt lat="42.26883201962563" lon="14.160772776710653"><ele>163.0</ele><time>2026-05-01T14:21:29.001Z</time></trkpt><trkpt lat="42.26874458326062" lon="14.16078261504556"><ele>163.0</ele><time>2026-05-01T14:21:30.001Z</time></trkpt><trkpt lat="42.26866106944332" lon="14.160791083805053"><ele>163.0</ele><time>2026-05-01T14:21:31.001Z</time></trkpt><trkpt lat="42.26859139236913" lon="14.160805125562087"><ele>164.5</ele><time>2026-05-01T14:21:32.001Z</time></trkpt><trkpt lat="42.26846910569571" lon="14.160820704530956"><ele>166.0</ele><time>2026-05-01T14:21:34.001Z</time></trkpt><trkpt lat="42.268402569497646" lon="14.160836655922331"><ele>167.5</ele><time>2026-05-01T14:21:35.001Z</time></trkpt><trkpt lat="42.26833706159713" lon="14.160871617507569"><ele>169.0</ele><time>2026-05-01T14:21:36.001Z</time></trkpt><trkpt lat="42.26826916569792" lon="14.16087441880234"><ele>170.5</ele><time>2026-05-01T14:21:37.001Z</time></trkpt><trkpt lat="42.26816112834892" lon="14.160906390294434"><ele>172.0</ele><time>2026-05-01T14:21:39.001Z</time></trkpt><trkpt lat="42.268097709037235" lon="14.160926660259152"><ele>172.0</ele><time>2026-05-01T14:21:40.001Z</time></trkpt><trkpt lat="42.26803370902181" lon="14.160940222172272"><ele>172.0</ele><time>2026-05-01T14:21:41.001Z</time></trkpt><trkpt lat="42.26791392917645" lon="14.160947058054603"><ele>172.0</ele><time>2026-05-01T14:21:43.001Z</time></trkpt><trkpt lat="42.26779151431878" lon="14.16093486562046"><ele>172.0</ele><time>2026-05-01T14:21:45.001Z</time></trkpt><trkpt lat="42.26768842112122" lon="14.160891547665871"><ele>172.0</ele><time>2026-05-01T14:21:47.001Z</time></trkpt><trkpt lat="42.26763396331205" lon="14.160835942028951"><ele>172.0</ele><time>2026-05-01T14:21:49.001Z</time></trkpt><trkpt lat="42.26766587861376" lon="14.160741987811873"><ele>172.0</ele><time>2026-05-01T14:21:52.001Z</time></trkpt><trkpt lat="42.267750588889164" lon="14.160626575901825"><ele>172.0</ele><time>2026-05-01T14:21:54.001Z</time></trkpt><trkpt lat="42.26782391051665" lon="14.160533177439872"><ele>172.0</ele><time>2026-05-01T14:21:55.001Z</time></trkpt><trkpt lat="42.26788998838736" lon="14.160448052584538"><ele>172.0</ele><time>2026-05-01T14:21:56.001Z</time></trkpt><trkpt lat="42.26794475308041" lon="14.160367583942191"><ele>174.66666666666669</ele><time>2026-05-01T14:21:57.001Z</time></trkpt><trkpt lat="42.26799261824717" lon="14.160303794403715"><ele>177.33333333333334</ele><time>2026-05-01T14:21:58.001Z</time></trkpt><trkpt lat="42.26806832287735" lon="14.160168764375406"><ele>180.0</ele><time>2026-05-01T14:22:00.001Z</time></trkpt><trkpt lat="42.26810908667051" lon="14.160082711518177"><ele>182.66666666666666</ele><time>2026-05-01T14:22:01Z</time></trkpt><trkpt lat="42.26817086563419" lon="14.160011990763449"><ele>185.33333333333331</ele><time>2026-05-01T14:22:02Z</time></trkpt><trkpt lat="42.26821867309296" lon="14.159921829190584"><ele>188.0</ele><time>2026-05-01T14:22:03Z</time></trkpt><trkpt lat="42.26824866456574" lon="14.159825141410852"><ele>190.0</ele><time>2026-05-01T14:22:04Z</time></trkpt><trkpt lat="42.2682893371071" lon="14.159738909587993"><ele>192.0</ele><time>2026-05-01T14:22:05Z</time></trkpt><trkpt lat="42.268326994834744" lon="14.159653383032625"><ele>194.0</ele><time>2026-05-01T14:22:06Z</time></trkpt><trkpt lat="42.26835555411486" lon="14.159566619234933"><ele>196.0</ele><time>2026-05-01T14:22:07Z</time></trkpt><trkpt lat="42.268376923744576" lon="14.159481113875106"><ele>198.0</ele><time>2026-05-01T14:22:08Z</time></trkpt><trkpt lat="42.26840892597335" lon="14.159389169755501"><ele>200.0</ele><time>2026-05-01T14:22:09Z</time></trkpt><trkpt lat="42.26841870665642" lon="14.159285192041954"><ele>202.0</ele><time>2026-05-01T14:22:10Z</time></trkpt><trkpt lat="42.268418807234376" lon="14.159176093390322"><ele>201.99999999999997</ele><time>2026-05-01T14:22:11Z</time></trkpt><trkpt lat="42.26840491520219" lon="14.159060166817595"><ele>202.0</ele><time>2026-05-01T14:22:12Z</time></trkpt><trkpt lat="42.268389617320786" lon="14.158950334082235"><ele>202.0</ele><time>2026-05-01T14:22:13Z</time></trkpt><trkpt lat="42.26837786890428" lon="14.158852116883093"><ele>202.0</ele><time>2026-05-01T14:22:14Z</time></trkpt><trkpt lat="42.268364779513696" lon="14.158753965384479"><ele>201.99999999999997</ele><time>2026-05-01T14:22:15Z</time></trkpt><trkpt lat="42.268350351352744" lon="14.158645774983869"><ele>202.0</ele><time>2026-05-01T14:22:16Z</time></trkpt><trkpt lat="42.26833646314232" lon="14.158527726875995"><ele>203.83333333333331</ele><time>2026-05-01T14:22:17Z</time></trkpt><trkpt lat="42.26832774309317" lon="14.158417070337268"><ele>205.66666666666666</ele><time>2026-05-01T14:22:18Z</time></trkpt><trkpt lat="42.26832465435539" lon="14.15832130201124"><ele>207.5</ele><time>2026-05-01T14:22:19Z</time></trkpt><trkpt lat="42.26832675496457" lon="14.15820509034667"><ele>209.33333333333331</ele><time>2026-05-01T14:22:20Z</time></trkpt><trkpt lat="42.268322281453756" lon="14.15810157528286"><ele>211.16666666666666</ele><time>2026-05-01T14:22:21Z</time></trkpt><trkpt lat="42.26832592492467" lon="14.15799778509663"><ele>213.0</ele><time>2026-05-01T14:22:22Z</time></trkpt><trkpt lat="42.268348182146546" lon="14.157903908228809"><ele>214.8</ele><time>2026-05-01T14:22:23Z</time></trkpt><trkpt lat="42.26836760804581" lon="14.157740633248041"><ele>216.60000000000002</ele><time>2026-05-01T14:22:25Z</time></trkpt><trkpt lat="42.26838318694833" lon="14.157652304511926"><ele>218.39999999999998</ele><time>2026-05-01T14:22:26Z</time></trkpt><trkpt lat="42.26841242146982" lon="14.157491035662709"><ele>220.2</ele><time>2026-05-01T14:22:28Z</time></trkpt><trkpt lat="42.26847463850379" lon="14.157347479554096"><ele>222.0</ele><time>2026-05-01T14:22:30Z</time></trkpt><trkpt lat="42.26855621693948" lon="14.157264560759035"><ele>224.66666666666666</ele><time>2026-05-01T14:22:32Z</time></trkpt><trkpt lat="42.268639641137874" lon="14.157202947569608"><ele>227.33333333333331</ele><time>2026-05-01T14:22:34Z</time></trkpt><trkpt lat="42.268708437065236" lon="14.157205292658363"><ele>230.0</ele><time>2026-05-01T14:22:35Z</time></trkpt><trkpt lat="42.26879964373323" lon="14.157206334611192"><ele>232.66666666666666</ele><time>2026-05-01T14:22:36Z</time></trkpt><trkpt lat="42.26889276044447" lon="14.157209371587157"><ele>235.33333333333331</ele><time>2026-05-01T14:22:37Z</time></trkpt><trkpt lat="42.26897133267714" lon="14.157232801410693"><ele>238.0</ele><time>2026-05-01T14:22:38Z</time></trkpt><trkpt lat="42.26904524043023" lon="14.157257503304098"><ele>238.16666666666666</ele><time>2026-05-01T14:22:39Z</time></trkpt><trkpt lat="42.26911805410368" lon="14.157272964320622"><ele>238.33333333333331</ele><time>2026-05-01T14:22:40Z</time></trkpt><trkpt lat="42.26919385320495" lon="14.157281242820256"><ele>238.5</ele><time>2026-05-01T14:22:41Z</time></trkpt><trkpt lat="42.26926506068388" lon="14.157294244477681"><ele>238.66666666666669</ele><time>2026-05-01T14:22:42Z</time></trkpt><trkpt lat="42.269333050717776" lon="14.157305950105117"><ele>238.83333333333334</ele><time>2026-05-01T14:22:43Z</time></trkpt><trkpt lat="42.269454738895696" lon="14.157333025366883"><ele>239.0</ele><time>2026-05-01T14:22:45Z</time></trkpt><trkpt lat="42.26956535778862" lon="14.15732818737977"><ele>239.0</ele><time>2026-05-01T14:22:47Z</time></trkpt><trkpt lat="42.26963065630354" lon="14.157263345911273"><ele>238.99999999999997</ele><time>2026-05-01T14:22:48Z</time></trkpt><trkpt lat="42.26970867953515" lon="14.157203520544693"><ele>238.99999999999997</ele><time>2026-05-01T14:22:49Z</time></trkpt><trkpt lat="42.2697867072159" lon="14.157122030010255"><ele>239.0</ele><time>2026-05-01T14:22:50Z</time></trkpt><trkpt lat="42.269868491330456" lon="14.157049664354258"><ele>239.0</ele><time>2026-05-01T14:22:51Z</time></trkpt><trkpt lat="42.26991199492604" lon="14.15693590443541"><ele>238.50000000000003</ele><time>2026-05-01T14:22:52Z</time></trkpt><trkpt lat="42.26995632794814" lon="14.156839810788012"><ele>238.0</ele><time>2026-05-01T14:22:53Z</time></trkpt><trkpt lat="42.26999297526248" lon="14.156727183607025"><ele>237.5</ele><time>2026-05-01T14:22:54Z</time></trkpt><trkpt lat="42.2700279759018" lon="14.156622695315807"><ele>237.0</ele><time>2026-05-01T14:22:55Z</time></trkpt><trkpt lat="42.27004853744644" lon="14.156513934452756"><ele>236.50000000000003</ele><time>2026-05-01T14:22:56Z</time></trkpt><trkpt lat="42.270066569118505" lon="14.156418323531435"><ele>236.0</ele><time>2026-05-01T14:22:57Z</time></trkpt><trkpt lat="42.27009037226224" lon="14.156317240420915"><ele>237.50000000000003</ele><time>2026-05-01T14:22:58Z</time></trkpt><trkpt lat="42.27012199108145" lon="14.15621054892479"><ele>239.0</ele><time>2026-05-01T14:22:59Z</time></trkpt><trkpt lat="42.27015610412304" lon="14.156114122809345"><ele>240.5</ele><time>2026-05-01T14:23:00Z</time></trkpt><trkpt lat="42.270194830198506" lon="14.156020967740885"><ele>242.0</ele><time>2026-05-01T14:23:01Z</time></trkpt><trkpt lat="42.2702337522851" lon="14.155930145570732"><ele>243.50000000000003</ele><time>2026-05-01T14:23:02Z</time></trkpt><trkpt lat="42.2702551947037" lon="14.15582890546007"><ele>245.0</ele><time>2026-05-01T14:23:03Z</time></trkpt><trkpt lat="42.27028518601489" lon="14.155740447761822"><ele>246.4</ele><time>2026-05-01T14:23:04Z</time></trkpt><trkpt lat="42.270306027309864" lon="14.155590290197605"><ele>247.8</ele><time>2026-05-01T14:23:06Z</time></trkpt><trkpt lat="42.27025080620144" lon="14.15547603194541"><ele>249.2</ele><time>2026-05-01T14:23:08Z</time></trkpt><trkpt lat="42.270133724361386" lon="14.155482895008253"><ele>250.6</ele><time>2026-05-01T14:23:31Z</time></trkpt><trkpt lat="42.270023659449194" lon="14.155493282594584"><ele>252.0</ele><time>2026-05-01T14:23:33Z</time></trkpt><trkpt lat="42.26993656119306" lon="14.15552396927327"><ele>252.0</ele><time>2026-05-01T14:23:35Z</time></trkpt><trkpt lat="42.26987256234851" lon="14.15554047368605"><ele>252.0</ele><time>2026-05-01T14:23:37Z</time></trkpt><trkpt lat="42.269783318731676" lon="14.155533198938146"><ele>252.0</ele><time>2026-05-01T14:23:39Z</time></trkpt><trkpt lat="42.26972682678161" lon="14.155440844789313"><ele>252.0</ele><time>2026-05-01T14:23:41Z</time></trkpt><trkpt lat="42.26969646186037" lon="14.155360618674898"><ele>252.0</ele><time>2026-05-01T14:23:42Z</time></trkpt><trkpt lat="42.269734846701894" lon="14.155278241217054"><ele>252.0</ele><time>2026-05-01T14:23:43Z</time></trkpt><trkpt lat="42.26976941759495" lon="14.155202664930384"><ele>252.0</ele><time>2026-05-01T14:23:44Z</time></trkpt><trkpt lat="42.26982308728534" lon="14.155118211371233"><ele>252.0</ele><time>2026-05-01T14:23:45Z</time></trkpt><trkpt lat="42.2698580306748" lon="14.15502344509866"><ele>252.0</ele><time>2026-05-01T14:23:46Z</time></trkpt><trkpt lat="42.26991604222471" lon="14.154952758587008"><ele>252.0</ele><time>2026-05-01T14:23:47Z</time></trkpt><trkpt lat="42.26995868743655" lon="14.154872166495128"><ele>252.0</ele><time>2026-05-01T14:23:48Z</time></trkpt><trkpt lat="42.270007098356494" lon="14.154774517447127"><ele>252.0</ele><time>2026-05-01T14:23:49Z</time></trkpt><trkpt lat="42.27005147257422" lon="14.15467913949919"><ele>252.0</ele><time>2026-05-01T14:23:50Z</time></trkpt><trkpt lat="42.27009229615622" lon="14.154589865954245"><ele>253.71428571428572</ele><time>2026-05-01T14:23:51Z</time></trkpt><trkpt lat="42.270131731590524" lon="14.154503628014524"><ele>255.42857142857144</ele><time>2026-05-01T14:23:52Z</time></trkpt><trkpt lat="42.270155877155155" lon="14.154415038024133"><ele>257.1428571428571</ele><time>2026-05-01T14:23:53Z</time></trkpt><trkpt lat="42.2701964426668" lon="14.154340845724652"><ele>258.8571428571429</ele><time>2026-05-01T14:23:54Z</time></trkpt><trkpt lat="42.270234438882426" lon="14.154267191929973"><ele>260.57142857142856</ele><time>2026-05-01T14:23:55Z</time></trkpt><trkpt lat="42.27027998268695" lon="14.154183629254263"><ele>262.2857142857143</ele><time>2026-05-01T14:23:56Z</time></trkpt><trkpt lat="42.270337027259956" lon="14.154089270505045"><ele>264.0</ele><time>2026-05-01T14:23:57Z</time></trkpt><trkpt lat="42.27039478218491" lon="14.15399211017119"><ele>265.0</ele><time>2026-05-01T14:23:58Z</time></trkpt><trkpt lat="42.27047078250261" lon="14.153913684779514"><ele>266.0</ele><time>2026-05-01T14:23:59Z</time></trkpt><trkpt lat="42.27053123418122" lon="14.153839830101614"><ele>267.0</ele><time>2026-05-01T14:24:00Z</time></trkpt><trkpt lat="42.27057485466333" lon="14.153756827665452"><ele>268.0</ele><time>2026-05-01T14:24:01Z</time></trkpt><trkpt lat="42.270624592280285" lon="14.153696257766098"><ele>269.0</ele><time>2026-05-01T14:24:02Z</time></trkpt><trkpt lat="42.27068335519382" lon="14.153642973272913"><ele>270.0</ele><time>2026-05-01T14:24:03Z</time></trkpt><trkpt lat="42.27072783230672" lon="14.153556124961906"><ele>270.0</ele><time>2026-05-01T14:24:04Z</time></trkpt><trkpt lat="42.270785642988216" lon="14.153479130136411"><ele>270.0</ele><time>2026-05-01T14:24:05Z</time></trkpt><trkpt lat="42.270839033283" lon="14.15339442366932"><ele>270.0</ele><time>2026-05-01T14:24:06Z</time></trkpt><trkpt lat="42.27088626956687" lon="14.153312080220548"><ele>270.0</ele><time>2026-05-01T14:24:07Z</time></trkpt><trkpt lat="42.27093298996239" lon="14.1532311420039"><ele>270.0</ele><time>2026-05-01T14:24:08Z</time></trkpt><trkpt lat="42.27097846201564" lon="14.153157376571958"><ele>270.0</ele><time>2026-05-01T14:24:09Z</time></trkpt><trkpt lat="42.27101529871873" lon="14.15307845225482"><ele>271.5</ele><time>2026-05-01T14:24:10Z</time></trkpt><trkpt lat="42.27104439361914" lon="14.152993153235489"><ele>273.0</ele><time>2026-05-01T14:24:11Z</time></trkpt><trkpt lat="42.27106501959419" lon="14.152903339858979"><ele>274.5</ele><time>2026-05-01T14:24:12Z</time></trkpt><trkpt lat="42.27110181628706" lon="14.152768886724212"><ele>276.0</ele><time>2026-05-01T14:24:14Z</time></trkpt><trkpt lat="42.27108743870753" lon="14.152682122660678"><ele>277.5</ele><time>2026-05-01T14:24:17Z</time></trkpt><trkpt lat="42.271130752381545" lon="14.152611290266409"><ele>279.0</ele><time>2026-05-01T14:24:24Z</time></trkpt><trkpt lat="42.271248993711794" lon="14.152596544864702"><ele>279.0</ele><time>2026-05-01T14:24:25Z</time></trkpt><trkpt lat="42.27130901791536" lon="14.152565336976961"><ele>279.0</ele><time>2026-05-01T14:24:27Z</time></trkpt><trkpt lat="42.27137398355784" lon="14.152535765875193"><ele>279.0</ele><time>2026-05-01T14:24:29Z</time></trkpt><trkpt lat="42.27147341341941" lon="14.152485296175547"><ele>279.0</ele><time>2026-05-01T14:24:31Z</time></trkpt><trkpt lat="42.271537442106926" lon="14.152450810489853"><ele>279.0</ele><time>2026-05-01T14:24:32Z</time></trkpt><trkpt lat="42.271608172505125" lon="14.152415626938348"><ele>279.0</ele><time>2026-05-01T14:24:33Z</time></trkpt><trkpt lat="42.27168831827344" lon="14.15238050851776"><ele>276.3333333333333</ele><time>2026-05-01T14:24:34Z</time></trkpt><trkpt lat="42.27176915276895" lon="14.152357682574374"><ele>273.6666666666667</ele><time>2026-05-01T14:24:35Z</time></trkpt><trkpt lat="42.27185242737507" lon="14.152340464743618"><ele>271.0</ele><time>2026-05-01T14:24:36Z</time></trkpt><trkpt lat="42.27192126172158" lon="14.152316824339064"><ele>268.33333333333337</ele><time>2026-05-01T14:24:37Z</time></trkpt><trkpt lat="42.27198731280353" lon="14.152287063495695"><ele>265.6666666666667</ele><time>2026-05-01T14:24:38Z</time></trkpt><trkpt lat="42.27205585851724" lon="14.152256178610648"><ele>263.0</ele><time>2026-05-01T14:24:39Z</time></trkpt><trkpt lat="42.272146703763546" lon="14.152321120532353"><ele>263.0</ele><time>2026-05-01T14:24:40Z</time></trkpt><trkpt lat="42.27221865889294" lon="14.152301418103198"><ele>263.0</ele><time>2026-05-01T14:24:41Z</time></trkpt><trkpt lat="42.27229422827722" lon="14.152278449276226"><ele>263.0</ele><time>2026-05-01T14:24:42Z</time></trkpt><trkpt lat="42.27237000117755" lon="14.15225707913804"><ele>263.0</ele><time>2026-05-01T14:24:43Z</time></trkpt><trkpt lat="42.27244266917974" lon="14.152235023459978"><ele>263.0</ele><time>2026-05-01T14:24:44Z</time></trkpt><trkpt lat="42.27252110980945" lon="14.152211835711165"><ele>263.0</ele><time>2026-05-01T14:24:45Z</time></trkpt><trkpt lat="42.27259479558188" lon="14.15218965355436"><ele>261.4</ele><time>2026-05-01T14:24:46Z</time></trkpt><trkpt lat="42.27271041117971" lon="14.152157898853453"><ele>259.8</ele><time>2026-05-01T14:24:48Z</time></trkpt><trkpt lat="42.27282411402591" lon="14.15215079897603"><ele>258.2</ele><time>2026-05-01T14:24:50Z</time></trkpt><trkpt lat="42.272935878288756" lon="14.152163118242738"><ele>256.6</ele><time>2026-05-01T14:24:52Z</time></trkpt><trkpt lat="42.273039032166224" lon="14.152182439143596"><ele>255.0</ele><time>2026-05-01T14:24:54Z</time></trkpt><trkpt lat="42.27313572416627" lon="14.15219678989942"><ele>254.4</ele><time>2026-05-01T14:24:56Z</time></trkpt><trkpt lat="42.273236182193706" lon="14.152211976909562"><ele>253.8</ele><time>2026-05-01T14:24:58Z</time></trkpt><trkpt lat="42.273348398178335" lon="14.152241677229068"><ele>253.2</ele><time>2026-05-01T14:25:00Z</time></trkpt><trkpt lat="42.27346481959494" lon="14.152275168211755"><ele>252.6</ele><time>2026-05-01T14:25:02Z</time></trkpt><trkpt lat="42.273532551110435" lon="14.152296981860172"><ele>252.0</ele><time>2026-05-01T14:25:03Z</time></trkpt><trkpt lat="42.27360129410088" lon="14.152326035501536"><ele>252.0</ele><time>2026-05-01T14:25:04Z</time></trkpt><trkpt lat="42.27369360317486" lon="14.152379752693244"><ele>252.0</ele><time>2026-05-01T14:25:06Z</time></trkpt><trkpt lat="42.27358271398606" lon="14.1522740940168"><ele>252.0</ele><time>2026-05-01T14:25:15Z</time></trkpt><trkpt lat="42.2734645378304" lon="14.152239719940383"><ele>252.0</ele><time>2026-05-01T14:25:16Z</time></trkpt><trkpt lat="42.27336430397513" lon="14.152194809783731"><ele>252.0</ele><time>2026-05-01T14:25:17Z</time></trkpt><trkpt lat="42.27321439625528" lon="14.152140577587478"><ele>252.0</ele><time>2026-05-01T14:25:18Z</time></trkpt><trkpt lat="42.273035457963516" lon="14.15212317445789"><ele>252.0</ele><time>2026-05-01T14:25:19Z</time></trkpt><trkpt lat="42.2728457164997" lon="14.15212731283634"><ele>252.75</ele><time>2026-05-01T14:25:20Z</time></trkpt><trkpt lat="42.272668029064434" lon="14.152143259635581"><ele>253.5</ele><time>2026-05-01T14:25:21Z</time></trkpt><trkpt lat="42.27253659093406" lon="14.152177441076857"><ele>254.25</ele><time>2026-05-01T14:25:22Z</time></trkpt><trkpt lat="42.27242945394392" lon="14.152210703303792"><ele>255.0</ele><time>2026-05-01T14:25:23Z</time></trkpt><trkpt lat="42.27232049149596" lon="14.152252696074155"><ele>256.6</ele><time>2026-05-01T14:25:24Z</time></trkpt><trkpt lat="42.27220640090367" lon="14.152275461699691"><ele>258.2</ele><time>2026-05-01T14:25:25Z</time></trkpt><trkpt lat="42.27209233476983" lon="14.152297884900296"><ele>259.8</ele><time>2026-05-01T14:25:26Z</time></trkpt><trkpt lat="42.27199091490223" lon="14.152316527691037"><ele>261.4</ele><time>2026-05-01T14:25:27Z</time></trkpt><trkpt lat="42.271912791123256" lon="14.152322427317038"><ele>263.0</ele><time>2026-05-01T14:25:28Z</time></trkpt><trkpt lat="42.27184881258622" lon="14.152325243203395"><ele>263.0</ele><time>2026-05-01T14:25:29Z</time></trkpt><trkpt lat="42.27177672710246" lon="14.152294293844342"><ele>263.0</ele><time>2026-05-01T14:25:30Z</time></trkpt><trkpt lat="42.271683248018135" lon="14.152346833729897"><ele>263.0</ele><time>2026-05-01T14:25:31Z</time></trkpt><trkpt lat="42.271573157700644" lon="14.152393431381928"><ele>263.0</ele><time>2026-05-01T14:25:32Z</time></trkpt><trkpt lat="42.27146072991512" lon="14.152456027867252"><ele>263.0</ele><time>2026-05-01T14:25:33Z</time></trkpt><trkpt lat="42.27135062928414" lon="14.152508927858653"><ele>265.6666666666667</ele><time>2026-05-01T14:25:34Z</time></trkpt><trkpt lat="42.271242143225976" lon="14.15255579833477"><ele>268.33333333333337</ele><time>2026-05-01T14:25:35Z</time></trkpt><trkpt lat="42.27115103787833" lon="14.152597285660576"><ele>271.0</ele><time>2026-05-01T14:25:36Z</time></trkpt><trkpt lat="42.27108882096737" lon="14.152628848210462"><ele>273.6666666666667</ele><time>2026-05-01T14:25:37Z</time></trkpt><trkpt lat="42.27101971366206" lon="14.152653822441614"><ele>276.3333333333333</ele><time>2026-05-01T14:25:39Z</time></trkpt><trkpt lat="42.27107044582642" lon="14.152744275357248"><ele>279.0</ele><time>2026-05-01T14:25:43Z</time></trkpt><trkpt lat="42.27121088871034" lon="14.152712136424844"><ele>279.0</ele><time>2026-05-01T14:25:45Z</time></trkpt><trkpt lat="42.27130118668361" lon="14.152688643977964"><ele>279.0</ele><time>2026-05-01T14:25:48Z</time></trkpt><trkpt lat="42.27138420645247" lon="14.152696975967968"><ele>279.0</ele><time>2026-05-01T14:25:50Z</time></trkpt><trkpt lat="42.271468352873335" lon="14.152697887534035"><ele>279.0</ele><time>2026-05-01T14:25:52Z</time></trkpt><trkpt lat="42.27155088052061" lon="14.152697034866005"><ele>279.0</ele><time>2026-05-01T14:25:54Z</time></trkpt><trkpt lat="42.271641473082646" lon="14.152674009035639"><ele>279.0</ele><time>2026-05-01T14:25:56Z</time></trkpt><trkpt lat="42.27172583854509" lon="14.15265622762916"><ele>276.6666666666667</ele><time>2026-05-01T14:25:58Z</time></trkpt><trkpt lat="42.271798011722204" lon="14.152680450874838"><ele>274.3333333333333</ele><time>2026-05-01T14:26:00Z</time></trkpt><trkpt lat="42.271865425393145" lon="14.152725027180908"><ele>272.0</ele><time>2026-05-01T14:26:02Z</time></trkpt><trkpt lat="42.27193634007116" lon="14.152798816843283"><ele>269.66666666666663</ele><time>2026-05-01T14:26:04Z</time></trkpt><trkpt lat="42.27199418544781" lon="14.152884009733521"><ele>267.3333333333333</ele><time>2026-05-01T14:26:06Z</time></trkpt><trkpt lat="42.272056366306984" lon="14.152968777144489"><ele>265.0</ele><time>2026-05-01T14:26:08Z</time></trkpt><trkpt lat="42.2721005389674" lon="14.15303282171636"><ele>265.0</ele><time>2026-05-01T14:26:10Z</time></trkpt><trkpt lat="42.27213884808624" lon="14.153108074052751"><ele>265.0</ele><time>2026-05-01T14:26:12Z</time></trkpt><trkpt lat="42.27218937447775" lon="14.153208999655655"><ele>265.0</ele><time>2026-05-01T14:26:15Z</time></trkpt><trkpt lat="42.27223419006772" lon="14.153280927095718"><ele>265.0</ele><time>2026-05-01T14:26:17Z</time></trkpt><trkpt lat="42.27228953447886" lon="14.153354602033547"><ele>265.0</ele><time>2026-05-01T14:26:19Z</time></trkpt><trkpt lat="42.27236212450981" lon="14.15344114993086"><ele>265.0</ele><time>2026-05-01T14:26:21Z</time></trkpt><trkpt lat="42.27240845824928" lon="14.153512554503926"><ele>261.71428571428567</ele><time>2026-05-01T14:26:23Z</time></trkpt><trkpt lat="42.27245572691464" lon="14.153581352591885"><ele>258.42857142857144</ele><time>2026-05-01T14:26:25Z</time></trkpt><trkpt lat="42.27250658568835" lon="14.1536645428729"><ele>255.1428571428571</ele><time>2026-05-01T14:26:27Z</time></trkpt><trkpt lat="42.272549518239536" lon="14.153741457433052"><ele>251.85714285714283</ele><time>2026-05-01T14:26:29Z</time></trkpt><trkpt lat="42.27259712820829" lon="14.153825970927643"><ele>248.57142857142856</ele><time>2026-05-01T14:26:31Z</time></trkpt><trkpt lat="42.27264548155752" lon="14.153894614029207"><ele>245.28571428571428</ele><time>2026-05-01T14:26:33Z</time></trkpt><trkpt lat="42.27270736216186" lon="14.153950419507145"><ele>242.0</ele><time>2026-05-01T14:26:35Z</time></trkpt><trkpt lat="42.272774422586764" lon="14.153999646918454"><ele>239.39999999999998</ele><time>2026-05-01T14:26:37Z</time></trkpt><trkpt lat="42.272839290434284" lon="14.154074997787188"><ele>236.79999999999998</ele><time>2026-05-01T14:26:39Z</time></trkpt><trkpt lat="42.27292239867855" lon="14.154136680636064"><ele>234.2</ele><time>2026-05-01T14:26:41Z</time></trkpt><trkpt lat="42.273014126859145" lon="14.154186171873826"><ele>231.6</ele><time>2026-05-01T14:26:43Z</time></trkpt><trkpt lat="42.27310213906797" lon="14.154240371308035"><ele>229.0</ele><time>2026-05-01T14:26:45Z</time></trkpt><trkpt lat="42.27316986254062" lon="14.154289016314037"><ele>226.49999999999997</ele><time>2026-05-01T14:26:47Z</time></trkpt><trkpt lat="42.27323918615928" lon="14.154320020206693"><ele>224.0</ele><time>2026-05-01T14:26:49Z</time></trkpt><trkpt lat="42.27330855196216" lon="14.154391211053618"><ele>221.5</ele><time>2026-05-01T14:26:51Z</time></trkpt><trkpt lat="42.27334568582129" lon="14.154489316001747"><ele>219.0</ele><time>2026-05-01T14:26:53Z</time></trkpt><trkpt lat="42.27337523542641" lon="14.15458365838511"><ele>216.49999999999997</ele><time>2026-05-01T14:26:55Z</time></trkpt><trkpt lat="42.27340425236998" lon="14.154675082407756"><ele>214.0</ele><time>2026-05-01T14:26:57Z</time></trkpt><trkpt lat="42.2734226227264" lon="14.154767643401938"><ele>213.99999999999997</ele><time>2026-05-01T14:26:59Z</time></trkpt><trkpt lat="42.27343638330714" lon="14.154851714896315"><ele>214.0</ele><time>2026-05-01T14:27:01Z</time></trkpt><trkpt lat="42.273457278067454" lon="14.154939897619746"><ele>214.0</ele><time>2026-05-01T14:27:04Z</time></trkpt><trkpt lat="42.27350727132546" lon="14.155034154434663"><ele>214.0</ele><time>2026-05-01T14:27:07Z</time></trkpt><trkpt lat="42.27356431504067" lon="14.155088788288381"><ele>213.99999999999997</ele><time>2026-05-01T14:27:09Z</time></trkpt><trkpt lat="42.27364404395889" lon="14.155143239339042"><ele>214.0</ele><time>2026-05-01T14:27:11Z</time></trkpt><trkpt lat="42.2737165783837" lon="14.155191956135832"><ele>211.49999999999997</ele><time>2026-05-01T14:27:13Z</time></trkpt><trkpt lat="42.27380248302246" lon="14.155241380141382"><ele>209.0</ele><time>2026-05-01T14:27:15Z</time></trkpt><trkpt lat="42.273861080960174" lon="14.155324006351648"><ele>206.5</ele><time>2026-05-01T14:27:17Z</time></trkpt><trkpt lat="42.27391553993011" lon="14.155431187575847"><ele>204.0</ele><time>2026-05-01T14:27:19Z</time></trkpt><trkpt lat="42.27396287834033" lon="14.155528251394378"><ele>201.49999999999997</ele><time>2026-05-01T14:27:21Z</time></trkpt><trkpt lat="42.2740075257389" lon="14.155596715728954"><ele>199.0</ele><time>2026-05-01T14:27:23Z</time></trkpt><trkpt lat="42.27408870645836" lon="14.155611599984908"><ele>197.83333333333331</ele><time>2026-05-01T14:27:25Z</time></trkpt><trkpt lat="42.27415339040969" lon="14.155648575628698"><ele>196.66666666666666</ele><time>2026-05-01T14:27:27Z</time></trkpt><trkpt lat="42.27419222555808" lon="14.155723230793729"><ele>195.5</ele><time>2026-05-01T14:27:29Z</time></trkpt><trkpt lat="42.274224695594356" lon="14.15584379109066"><ele>194.33333333333331</ele><time>2026-05-01T14:27:31Z</time></trkpt><trkpt lat="42.27425346806879" lon="14.155992424383207"><ele>193.16666666666666</ele><time>2026-05-01T14:27:33Z</time></trkpt><trkpt lat="42.274283198495816" lon="14.156090648208753"><ele>192.0</ele><time>2026-05-01T14:27:35Z</time></trkpt><trkpt lat="42.27431706515579" lon="14.156171631292475"><ele>191.0</ele><time>2026-05-01T14:27:37Z</time></trkpt><trkpt lat="42.27434887644007" lon="14.156251927820861"><ele>190.0</ele><time>2026-05-01T14:27:39Z</time></trkpt><trkpt lat="42.27439482915423" lon="14.156356272160693"><ele>189.0</ele><time>2026-05-01T14:27:42Z</time></trkpt><trkpt lat="42.274419616425504" lon="14.156456180307625"><ele>188.0</ele><time>2026-05-01T14:27:45Z</time></trkpt><trkpt lat="42.27446992472776" lon="14.156542901314866"><ele>187.0</ele><time>2026-05-01T14:27:49Z</time></trkpt><trkpt lat="42.274543074262056" lon="14.15659540549101"><ele>186.0</ele><time>2026-05-01T14:27:53Z</time></trkpt><trkpt lat="42.2745973818692" lon="14.156655395234113"><ele>180.33333333333334</ele><time>2026-05-01T14:27:57Z</time></trkpt><trkpt lat="42.27468173926946" lon="14.1566716520073"><ele>174.66666666666669</ele><time>2026-05-01T14:28:01Z</time></trkpt><trkpt lat="42.274884177675276" lon="14.157050976769913"><ele>169.0</ele><time>2026-05-01T14:28:04Z</time></trkpt><trkpt lat="42.274959552755675" lon="14.157003309089612"><ele>168.0</ele><time>2026-05-01T14:28:08Z</time></trkpt><trkpt lat="42.275026417415724" lon="14.156961023463628"><ele>167.0</ele><time>2026-05-01T14:28:12Z</time></trkpt><trkpt lat="42.27508438922229" lon="14.156924381467688"><ele>166.0</ele><time>2026-05-01T14:28:18Z</time></trkpt><trkpt lat="42.275143935834095" lon="14.15688676392207"><ele>165.0</ele><time>2026-05-01T14:28:22Z</time></trkpt><trkpt lat="42.275201772507984" lon="14.15685022657216"><ele>164.0</ele><time>2026-05-01T14:28:27Z</time></trkpt><trkpt lat="42.275268901334634" lon="14.156807819072618"><ele>163.0</ele><time>2026-05-01T14:28:33Z</time></trkpt><trkpt lat="42.275332274774925" lon="14.156767783974239"><ele>162.0</ele><time>2026-05-01T14:28:36Z</time></trkpt><trkpt lat="42.27539224123544" lon="14.156729901174263"><ele>162.0</ele><time>2026-05-01T14:28:39Z</time></trkpt><trkpt lat="42.27546370656622" lon="14.15668475415148"><ele>162.0</ele><time>2026-05-01T14:28:43Z</time></trkpt><trkpt lat="42.275512820006156" lon="14.15662734900373"><ele>162.0</ele><time>2026-05-01T14:28:46Z</time></trkpt><trkpt lat="42.27555229214329" lon="14.156695838168602"><ele>162.0</ele><time>2026-05-01T14:28:53Z</time></trkpt><trkpt lat="42.27559524374032" lon="14.156765936771793"><ele>162.0</ele><time>2026-05-01T14:28:55Z</time></trkpt><trkpt lat="42.27566494669509" lon="14.156823855345651"><ele>162.0</ele><time>2026-05-01T14:28:58Z</time></trkpt><trkpt lat="42.27570243528749" lon="14.15667163787185"><ele>162.66666666666666</ele><time>2026-05-01T14:29:00Z</time></trkpt><trkpt lat="42.27576383312276" lon="14.156633391410091"><ele>163.33333333333334</ele><time>2026-05-01T14:29:02Z</time></trkpt><trkpt lat="42.27586191793952" lon="14.156572291530848"><ele>164.0</ele><time>2026-05-01T14:31:12Z</time></trkpt><trkpt lat="42.27592077488545" lon="14.156535627893069"><ele>164.66666666666669</ele><time>2026-05-01T14:31:14Z</time></trkpt><trkpt lat="42.27597886228385" lon="14.156499443579866"><ele>165.33333333333334</ele><time>2026-05-01T14:31:17Z</time></trkpt><trkpt lat="42.27603752865121" lon="14.156462898548398"><ele>166.0</ele><time>2026-05-01T14:31:30Z</time></trkpt><trkpt lat="42.27611721484804" lon="14.156413221632338"><ele>166.0</ele><time>2026-05-01T14:31:32Z</time></trkpt><trkpt lat="42.27620817935914" lon="14.156356500704748"><ele>166.0</ele><time>2026-05-01T14:31:34Z</time></trkpt><trkpt lat="42.27632390661311" lon="14.156304271930578"><ele>166.0</ele><time>2026-05-01T14:31:36Z</time></trkpt><trkpt lat="42.276381861232366" lon="14.156259032238994"><ele>166.0</ele><time>2026-05-01T14:31:37Z</time></trkpt><trkpt lat="42.276491193544224" lon="14.156176824034695"><ele>166.0</ele><time>2026-05-01T14:31:39Z</time></trkpt><trkpt lat="42.276554071068134" lon="14.15612934926678"><ele>164.57142857142856</ele><time>2026-05-01T14:31:40Z</time></trkpt><trkpt lat="42.276620215809224" lon="14.156093566723985"><ele>163.14285714285717</ele><time>2026-05-01T14:31:41Z</time></trkpt><trkpt lat="42.27668095607138" lon="14.156057057130848"><ele>161.71428571428572</ele><time>2026-05-01T14:31:42Z</time></trkpt><trkpt lat="42.27673980713074" lon="14.156026692428803"><ele>160.28571428571428</ele><time>2026-05-01T14:31:43Z</time></trkpt><trkpt lat="42.27680469561719" lon="14.155989799069788"><ele>158.85714285714283</ele><time>2026-05-01T14:31:44Z</time></trkpt><trkpt lat="42.2768801237032" lon="14.15594635808571"><ele>157.42857142857144</ele><time>2026-05-01T14:31:45Z</time></trkpt><trkpt lat="42.27696576734281" lon="14.155901279773065"><ele>156.0</ele><time>2026-05-01T14:31:46Z</time></trkpt><trkpt lat="42.27704683447894" lon="14.155856721701934"><ele>156.0</ele><time>2026-05-01T14:31:47Z</time></trkpt><trkpt lat="42.27710781969624" lon="14.15581889116531"><ele>156.0</ele><time>2026-05-01T14:31:48Z</time></trkpt><trkpt lat="42.277167870275946" lon="14.15575679752111"><ele>156.0</ele><time>2026-05-01T14:31:49Z</time></trkpt><trkpt lat="42.277232559796566" lon="14.15574061611973"><ele>156.0</ele><time>2026-05-01T14:31:50Z</time></trkpt><trkpt lat="42.27732454432115" lon="14.155658531050912"><ele>156.0</ele><time>2026-05-01T14:31:52Z</time></trkpt><trkpt lat="42.277439023965755" lon="14.155586676319519"><ele>156.0</ele><time>2026-05-01T14:31:54Z</time></trkpt><trkpt lat="42.27755667978019" lon="14.155512808846947"><ele>156.0</ele><time>2026-05-01T14:31:56Z</time></trkpt><trkpt lat="42.27768413861161" lon="14.15543278674066"><ele>156.0</ele><time>2026-05-01T14:31:58Z</time></trkpt><trkpt lat="42.277765150953144" lon="14.155381925018855"><ele>156.0</ele><time>2026-05-01T14:31:59Z</time></trkpt><trkpt lat="42.27783427849812" lon="14.155338524869075"><ele>156.0</ele><time>2026-05-01T14:32:00Z</time></trkpt><trkpt lat="42.27789521338188" lon="14.155300268368057"><ele>156.0</ele><time>2026-05-01T14:32:01Z</time></trkpt><trkpt lat="42.277959996987896" lon="14.155259595423436"><ele>156.0</ele><time>2026-05-01T14:32:02Z</time></trkpt><trkpt lat="42.27802857943937" lon="14.155216537438003"><ele>156.0</ele><time>2026-05-01T14:32:03Z</time></trkpt><trkpt lat="42.27810130824765" lon="14.15517097231275"><ele>156.0</ele><time>2026-05-01T14:32:04Z</time></trkpt><trkpt lat="42.27816891357943" lon="14.155128662447723"><ele>156.0</ele><time>2026-05-01T14:32:05Z</time></trkpt><trkpt lat="42.27824034576687" lon="14.15508395746972"><ele>156.0</ele><time>2026-05-01T14:32:06Z</time></trkpt><trkpt lat="42.278315901983824" lon="14.155036671629485"><ele>156.0</ele><time>2026-05-01T14:32:07Z</time></trkpt><trkpt lat="42.27838246100073" lon="14.15499501645169"><ele>156.0</ele><time>2026-05-01T14:32:08Z</time></trkpt><trkpt lat="42.27844735754948" lon="14.1549544017173"><ele>155.0</ele><time>2026-05-01T14:32:09Z</time></trkpt><trkpt lat="42.278513746006816" lon="14.154912853338452"><ele>154.0</ele><time>2026-05-01T14:32:10Z</time></trkpt><trkpt lat="42.27859109850488" lon="14.154864443195176"><ele>153.0</ele><time>2026-05-01T14:32:11Z</time></trkpt><trkpt lat="42.278660542207476" lon="14.154820982777316"><ele>152.0</ele><time>2026-05-01T14:32:12Z</time></trkpt><trkpt lat="42.27872904785589" lon="14.154778109391922"><ele>151.0</ele><time>2026-05-01T14:32:13Z</time></trkpt><trkpt lat="42.27880717406251" lon="14.154729215108686"><ele>150.0</ele><time>2026-05-01T14:32:14Z</time></trkpt><trkpt lat="42.278895751888264" lon="14.154673779317173"><ele>148.5</ele><time>2026-05-01T14:32:15Z</time></trkpt><trkpt lat="42.278975958331294" lon="14.154623582102658"><ele>147.0</ele><time>2026-05-01T14:32:16Z</time></trkpt><trkpt lat="42.2790605854609" lon="14.154570618163737"><ele>145.5</ele><time>2026-05-01T14:32:17Z</time></trkpt><trkpt lat="42.279136133711276" lon="14.15452333628894"><ele>144.0</ele><time>2026-05-01T14:32:18Z</time></trkpt><trkpt lat="42.279212588513786" lon="14.154475460195185"><ele>142.5</ele><time>2026-05-01T14:32:19Z</time></trkpt><trkpt lat="42.279291924138676" lon="14.154425760957183"><ele>141.0</ele><time>2026-05-01T14:32:20Z</time></trkpt><trkpt lat="42.27937138982449" lon="14.154375979996955"><ele>141.0</ele><time>2026-05-01T14:32:21Z</time></trkpt><trkpt lat="42.27943924674357" lon="14.154333126116272"><ele>141.0</ele><time>2026-05-01T14:32:22Z</time></trkpt><trkpt lat="42.279507980945084" lon="14.15428963798606"><ele>141.0</ele><time>2026-05-01T14:32:23Z</time></trkpt><trkpt lat="42.2795923569729" lon="14.154236518845805"><ele>141.0</ele><time>2026-05-01T14:32:24Z</time></trkpt><trkpt lat="42.27967133851487" lon="14.15418715266792"><ele>141.0</ele><time>2026-05-01T14:32:25Z</time></trkpt><trkpt lat="42.279749708386476" lon="14.154138168914832"><ele>141.0</ele><time>2026-05-01T14:32:26Z</time></trkpt><trkpt lat="42.27983443196123" lon="14.15408521384712"><ele>141.4</ele><time>2026-05-01T14:32:27Z</time></trkpt><trkpt lat="42.279916855163265" lon="14.15403369654839"><ele>141.8</ele><time>2026-05-01T14:32:28Z</time></trkpt><trkpt lat="42.28000625481056" lon="14.153979295964968"><ele>142.20000000000002</ele><time>2026-05-01T14:32:29Z</time></trkpt><trkpt lat="42.280095827766175" lon="14.153924959141419"><ele>142.6</ele><time>2026-05-01T14:32:30Z</time></trkpt><trkpt lat="42.28017613768703" lon="14.153876241381452"><ele>143.0</ele><time>2026-05-01T14:32:31Z</time></trkpt><trkpt lat="42.2802594102779" lon="14.15382693707665"><ele>143.0</ele><time>2026-05-01T14:32:32Z</time></trkpt><trkpt lat="42.28033506630869" lon="14.153782746900239"><ele>143.0</ele><time>2026-05-01T14:32:33Z</time></trkpt><trkpt lat="42.28040540460563" lon="14.153741662854243"><ele>143.0</ele><time>2026-05-01T14:32:34Z</time></trkpt><trkpt lat="42.280485386550346" lon="14.153698170915924"><ele>143.0</ele><time>2026-05-01T14:32:35Z</time></trkpt><trkpt lat="42.28056549394221" lon="14.153657505583638"><ele>143.0</ele><time>2026-05-01T14:32:36Z</time></trkpt><trkpt lat="42.28064650110291" lon="14.153617924286806"><ele>143.0</ele><time>2026-05-01T14:32:37Z</time></trkpt><trkpt lat="42.280739842015706" lon="14.153572620602185"><ele>141.33333333333331</ele><time>2026-05-01T14:32:38Z</time></trkpt><trkpt lat="42.28082405310237" lon="14.153533683841157"><ele>139.66666666666666</ele><time>2026-05-01T14:32:39Z</time></trkpt><trkpt lat="42.280900152866664" lon="14.15349865937414"><ele>138.0</ele><time>2026-05-01T14:32:40Z</time></trkpt><trkpt lat="42.280962214856196" lon="14.153470564799857"><ele>136.33333333333334</ele><time>2026-05-01T14:32:41Z</time></trkpt><trkpt lat="42.28108186800665" lon="14.153415916911099"><ele>134.66666666666669</ele><time>2026-05-01T14:32:43Z</time></trkpt><trkpt lat="42.28114265925473" lon="14.153391383698388"><ele>133.0</ele><time>2026-05-01T14:32:44Z</time></trkpt><trkpt lat="42.28120923522721" lon="14.153364516213328"><ele>133.0</ele><time>2026-05-01T14:32:45Z</time></trkpt><trkpt lat="42.28127609377915" lon="14.153338204590304"><ele>133.0</ele><time>2026-05-01T14:32:46Z</time></trkpt><trkpt lat="42.28134129888142" lon="14.153313688415095"><ele>133.0</ele><time>2026-05-01T14:32:47Z</time></trkpt><trkpt lat="42.2814053531943" lon="14.15329045900536"><ele>133.0</ele><time>2026-05-01T14:32:48Z</time></trkpt><trkpt lat="42.28151516593375" lon="14.153252444144982"><ele>133.0</ele><time>2026-05-01T14:32:50Z</time></trkpt><trkpt lat="42.281638057786324" lon="14.153177739375813"><ele>130.83333333333334</ele><time>2026-05-01T14:32:52Z</time></trkpt><trkpt lat="42.28172144565316" lon="14.153138034856026"><ele>128.66666666666669</ele><time>2026-05-01T14:32:53Z</time></trkpt><trkpt lat="42.28181344225052" lon="14.15311305398688"><ele>126.5</ele><time>2026-05-01T14:32:54Z</time></trkpt><trkpt lat="42.28189523995837" lon="14.153087848097105"><ele>124.33333333333334</ele><time>2026-05-01T14:32:55Z</time></trkpt><trkpt lat="42.281959644648765" lon="14.153072951302182"><ele>122.16666666666667</ele><time>2026-05-01T14:32:56Z</time></trkpt><trkpt lat="42.28204932788935" lon="14.15304280036115"><ele>120.0</ele><time>2026-05-01T14:32:57Z</time></trkpt><trkpt lat="42.282133636167764" lon="14.1530224669653"><ele>120.0</ele><time>2026-05-01T14:32:58Z</time></trkpt><trkpt lat="42.28220319427878" lon="14.152995334237486"><ele>120.0</ele><time>2026-05-01T14:32:59Z</time></trkpt><trkpt lat="42.28226795776039" lon="14.152981321880478"><ele>120.0</ele><time>2026-05-01T14:33:00Z</time></trkpt><trkpt lat="42.28234030642951" lon="14.152971407873864"><ele>120.0</ele><time>2026-05-01T14:33:01Z</time></trkpt><trkpt lat="42.28241093677107" lon="14.152979275166812"><ele>120.0</ele><time>2026-05-01T14:33:03Z</time></trkpt><trkpt lat="42.28249810784835" lon="14.152909416303757"><ele>120.0</ele><time>2026-05-01T14:33:10Z</time></trkpt><trkpt lat="42.28245786431914" lon="14.152602470215149"><ele>119.83333333333333</ele><time>2026-05-01T14:33:17Z</time></trkpt><trkpt lat="42.28243680432902" lon="14.152480656283489"><ele>119.66666666666666</ele><time>2026-05-01T14:33:19Z</time></trkpt><trkpt lat="42.282409596902575" lon="14.152385642228301"><ele>119.5</ele><time>2026-05-01T14:33:21Z</time></trkpt><trkpt lat="42.282375612460676" lon="14.152306236407517"><ele>119.33333333333333</ele><time>2026-05-01T14:33:23Z</time></trkpt><trkpt lat="42.28233155160813" lon="14.152209595956204"><ele>119.16666666666666</ele><time>2026-05-01T14:33:25Z</time></trkpt><trkpt lat="42.2822993885172" lon="14.152129828254168"><ele>119.0</ele><time>2026-05-01T14:33:27Z</time></trkpt><trkpt lat="42.282353636481" lon="14.152073148961131"><ele>119.0</ele><time>2026-05-01T14:33:30Z</time></trkpt><trkpt lat="42.2824173036962" lon="14.1520745084468"><ele>119.0</ele><time>2026-05-01T14:33:31Z</time></trkpt><trkpt lat="42.28252594966853" lon="14.152116810366303"><ele>119.0</ele><time>2026-05-01T14:33:32Z</time></trkpt><trkpt lat="42.282631949686234" lon="14.152144428433406"><ele>119.0</ele><time>2026-05-01T14:33:33Z</time></trkpt><trkpt lat="42.28272391066898" lon="14.152145720836756"><ele>119.0</ele><time>2026-05-01T14:33:34Z</time></trkpt><trkpt lat="42.282811103530236" lon="14.152141559108337"><ele>118.99999999999999</ele><time>2026-05-01T14:33:35Z</time></trkpt><trkpt lat="42.28289095946288" lon="14.152136232426614"><ele>119.0</ele><time>2026-05-01T14:33:36Z</time></trkpt><trkpt lat="42.28296179834906" lon="14.152114194521307"><ele>119.0</ele><time>2026-05-01T14:33:37Z</time></trkpt><trkpt lat="42.28302157335831" lon="14.152053493862779"><ele>119.0</ele><time>2026-05-01T14:33:38Z</time></trkpt><trkpt lat="42.28305505520383" lon="14.151954618123543"><ele>118.99999999999999</ele><time>2026-05-01T14:33:39Z</time></trkpt><trkpt lat="42.283066565633725" lon="14.151835595320645"><ele>119.0</ele><time>2026-05-01T14:33:40Z</time></trkpt><trkpt lat="42.28307186597464" lon="14.151711220403426"><ele>119.0</ele><time>2026-05-01T14:33:41Z</time></trkpt><trkpt lat="42.283090048727686" lon="14.151592369738417"><ele>119.0</ele><time>2026-05-01T14:33:42Z</time></trkpt><trkpt lat="42.283117313054525" lon="14.151457663814146"><ele>119.0</ele><time>2026-05-01T14:33:43Z</time></trkpt><trkpt lat="42.28313365854553" lon="14.151341717807348"><ele>119.0</ele><time>2026-05-01T14:33:44Z</time></trkpt><trkpt lat="42.28318142406403" lon="14.151218599049441"><ele>119.0</ele><time>2026-05-01T14:33:46Z</time></trkpt><trkpt lat="42.28321710568577" lon="14.151114156693993"><ele>120.0</ele><time>2026-05-01T14:33:49Z</time></trkpt><trkpt lat="42.283091268774115" lon="14.150967211377228"><ele>121.0</ele><time>2026-05-01T14:33:52Z</time></trkpt><trkpt lat="42.28299249452819" lon="14.15092786955983"><ele>122.0</ele><time>2026-05-01T14:33:53Z</time></trkpt><trkpt lat="42.28287933755364" lon="14.150857276564949"><ele>123.0</ele><time>2026-05-01T14:33:54Z</time></trkpt><trkpt lat="42.282752110364605" lon="14.150748011176187"><ele>126.0</ele><time>2026-05-01T14:33:55Z</time></trkpt><trkpt lat="42.28262467786697" lon="14.150606330775927"><ele>129.0</ele><time>2026-05-01T14:33:56Z</time></trkpt><trkpt lat="42.282525070028235" lon="14.150421796132013"><ele>132.0</ele><time>2026-05-01T14:33:57Z</time></trkpt><trkpt lat="42.28242478132919" lon="14.15023665886072"><ele>132.0</ele><time>2026-05-01T14:33:58Z</time></trkpt><trkpt lat="42.28231009493491" lon="14.150049706579168"><ele>132.0</ele><time>2026-05-01T14:33:59Z</time></trkpt><trkpt lat="42.28221341263619" lon="14.14984751489782"><ele>132.0</ele><time>2026-05-01T14:34:00Z</time></trkpt><trkpt lat="42.28211430991367" lon="14.149652811786817"><ele>129.33333333333334</ele><time>2026-05-01T14:34:01Z</time></trkpt><trkpt lat="42.28200961261551" lon="14.149454133942996"><ele>126.66666666666667</ele><time>2026-05-01T14:34:02Z</time></trkpt><trkpt lat="42.28190586320547" lon="14.149250688369717"><ele>124.0</ele><time>2026-05-01T14:34:03Z</time></trkpt><trkpt lat="42.28180944457307" lon="14.14905857331947"><ele>125.33333333333334</ele><time>2026-05-01T14:34:04Z</time></trkpt><trkpt lat="42.281718197789274" lon="14.148877578983079"><ele>126.66666666666666</ele><time>2026-05-01T14:34:05Z</time></trkpt><trkpt lat="42.28163506558021" lon="14.148708237901962"><ele>128.0</ele><time>2026-05-01T14:34:06Z</time></trkpt><trkpt lat="42.28155580698987" lon="14.14854301949864"><ele>128.0</ele><time>2026-05-01T14:34:07Z</time></trkpt><trkpt lat="42.28148244118641" lon="14.148385025276955"><ele>128.0</ele><time>2026-05-01T14:34:08Z</time></trkpt><trkpt lat="42.28141243509904" lon="14.148227168950037"><ele>128.0</ele><time>2026-05-01T14:34:09Z</time></trkpt><trkpt lat="42.28134647028822" lon="14.148071706880149"><ele>128.0</ele><time>2026-05-01T14:34:10Z</time></trkpt><trkpt lat="42.281285321944225" lon="14.147916586557438"><ele>126.80000000000001</ele><time>2026-05-01T14:34:11Z</time></trkpt><trkpt lat="42.28124160864823" lon="14.147803959264273"><ele>125.60000000000001</ele><time>2026-05-01T14:34:12Z</time></trkpt><trkpt lat="42.281191468713416" lon="14.147706122970659"><ele>124.39999999999999</ele><time>2026-05-01T14:34:14Z</time></trkpt><trkpt lat="42.281207656078465" lon="14.147611726224659"><ele>123.19999999999999</ele><time>2026-05-01T14:34:19Z</time></trkpt><trkpt lat="42.28131200667732" lon="14.147519075403048"><ele>122.0</ele><time>2026-05-01T14:34:25Z</time></trkpt><trkpt lat="42.28138892516025" lon="14.147449970720315"><ele>123.39999999999999</ele><time>2026-05-01T14:34:28Z</time></trkpt><trkpt lat="42.281447917106945" lon="14.147379605961087"><ele>124.79999999999998</ele><time>2026-05-01T14:34:30Z</time></trkpt><trkpt lat="42.28151827133984" lon="14.147256734019269"><ele>126.2</ele><time>2026-05-01T14:34:32Z</time></trkpt><trkpt lat="42.28154514171664" lon="14.14717966382523"><ele>127.6</ele><time>2026-05-01T14:34:33Z</time></trkpt><trkpt lat="42.28159506149766" lon="14.14703437404691"><ele>129.0</ele><time>2026-05-01T14:34:35Z</time></trkpt><trkpt lat="42.28161188157285" lon="14.146887913608257"><ele>129.33333333333334</ele><time>2026-05-01T14:34:37Z</time></trkpt><trkpt lat="42.28157547146931" lon="14.146746803988709"><ele>129.66666666666666</ele><time>2026-05-01T14:34:39Z</time></trkpt><trkpt lat="42.28157172389069" lon="14.146651165890978"><ele>130.0</ele><time>2026-05-01T14:34:41Z</time></trkpt><trkpt lat="42.28156245389159" lon="14.146546512151167"><ele>130.33333333333331</ele><time>2026-05-01T14:34:42Z</time></trkpt><trkpt lat="42.28154254192003" lon="14.146429952489905"><ele>130.66666666666666</ele><time>2026-05-01T14:34:43Z</time></trkpt><trkpt lat="42.281512313991094" lon="14.146320945379488"><ele>131.0</ele><time>2026-05-01T14:34:44Z</time></trkpt><trkpt lat="42.281485590786545" lon="14.146204856486387"><ele>131.16666666666666</ele><time>2026-05-01T14:34:45Z</time></trkpt><trkpt lat="42.281461699434345" lon="14.14609606609632"><ele>131.33333333333331</ele><time>2026-05-01T14:34:46Z</time></trkpt><trkpt lat="42.28142943536237" lon="14.145944688608182"><ele>131.5</ele><time>2026-05-01T14:34:48Z</time></trkpt><trkpt lat="42.281403426161624" lon="14.145859859246771"><ele>131.66666666666666</ele><time>2026-05-01T14:34:49Z</time></trkpt><trkpt lat="42.281380779489" lon="14.145775582701457"><ele>131.83333333333334</ele><time>2026-05-01T14:34:50Z</time></trkpt><trkpt lat="42.28134355120697" lon="14.145673659882263"><ele>132.0</ele><time>2026-05-01T14:34:51Z</time></trkpt><trkpt lat="42.28130420103645" lon="14.145599470672774"><ele>134.0</ele><time>2026-05-01T14:34:52Z</time></trkpt><trkpt lat="42.28122349348149" lon="14.145457268889848"><ele>136.0</ele><time>2026-05-01T14:34:54Z</time></trkpt><trkpt lat="42.28119551207039" lon="14.145374851374683"><ele>138.0</ele><time>2026-05-01T14:34:55Z</time></trkpt><trkpt lat="42.281187907669334" lon="14.145214578554336"><ele>140.0</ele><time>2026-05-01T14:34:57Z</time></trkpt><trkpt lat="42.281193261769495" lon="14.145121525824887"><ele>142.0</ele><time>2026-05-01T14:34:58Z</time></trkpt><trkpt lat="42.281200392350236" lon="14.14501840683909"><ele>142.0</ele><time>2026-05-01T14:34:59Z</time></trkpt><trkpt lat="42.28121013288333" lon="14.144910426866556"><ele>142.0</ele><time>2026-05-01T14:35:00Z</time></trkpt><trkpt lat="42.28122070807467" lon="14.144807376485648"><ele>142.0</ele><time>2026-05-01T14:35:01Z</time></trkpt><trkpt lat="42.28123068488756" lon="14.144716998154628"><ele>142.0</ele><time>2026-05-01T14:35:02Z</time></trkpt><trkpt lat="42.28123950737499" lon="14.14462974979018"><ele>142.0</ele><time>2026-05-01T14:35:03Z</time></trkpt><trkpt lat="42.28124787558763" lon="14.144543581595746"><ele>142.0</ele><time>2026-05-01T14:35:04Z</time></trkpt><trkpt lat="42.28125619281581" lon="14.144450402758645"><ele>142.0</ele><time>2026-05-01T14:35:05Z</time></trkpt><trkpt lat="42.281270930650145" lon="14.144291460327146"><ele>143.14285714285714</ele><time>2026-05-01T14:35:07Z</time></trkpt><trkpt lat="42.28127928716537" lon="14.144199272744652"><ele>144.28571428571428</ele><time>2026-05-01T14:35:08Z</time></trkpt><trkpt lat="42.28129084535922" lon="14.144113647478052"><ele>145.42857142857142</ele><time>2026-05-01T14:35:09Z</time></trkpt><trkpt lat="42.28130005862371" lon="14.14402671911008"><ele>146.57142857142856</ele><time>2026-05-01T14:35:10Z</time></trkpt><trkpt lat="42.281311148453185" lon="14.143935995832098"><ele>147.71428571428572</ele><time>2026-05-01T14:35:11Z</time></trkpt><trkpt lat="42.28131987380267" lon="14.143850486481654"><ele>148.85714285714283</ele><time>2026-05-01T14:35:12Z</time></trkpt><trkpt lat="42.281335887956196" lon="14.143717518961479"><ele>150.0</ele><time>2026-05-01T14:35:14Z</time></trkpt><trkpt lat="42.28135051938357" lon="14.143589383026685"><ele>152.2</ele><time>2026-05-01T14:35:16Z</time></trkpt><trkpt lat="42.28134683263284" lon="14.143463277212023"><ele>154.4</ele><time>2026-05-01T14:35:18Z</time></trkpt><trkpt lat="42.281317911758386" lon="14.143348767452895"><ele>156.60000000000002</ele><time>2026-05-01T14:35:20Z</time></trkpt><trkpt lat="42.28128484703025" lon="14.143224223740857"><ele>158.8</ele><time>2026-05-01T14:35:22Z</time></trkpt><trkpt lat="42.28125982240828" lon="14.143098352272105"><ele>161.0</ele><time>2026-05-01T14:35:24Z</time></trkpt><trkpt lat="42.28122525415398" lon="14.142998075505787"><ele>162.8</ele><time>2026-05-01T14:35:26Z</time></trkpt><trkpt lat="42.281265400911195" lon="14.142901731088774"><ele>164.60000000000002</ele><time>2026-05-01T14:35:28Z</time></trkpt><trkpt lat="42.281349215367534" lon="14.142815337347109"><ele>166.4</ele><time>2026-05-01T14:35:30Z</time></trkpt><trkpt lat="42.281427431338074" lon="14.142710614239505"><ele>168.2</ele><time>2026-05-01T14:35:32Z</time></trkpt><trkpt lat="42.2814858101089" lon="14.142616708685885"><ele>170.0</ele><time>2026-05-01T14:35:34Z</time></trkpt><trkpt lat="42.28155709376332" lon="14.142538274777488"><ele>170.0</ele><time>2026-05-01T14:35:36Z</time></trkpt><trkpt lat="42.28158812259305" lon="14.142458276433217"><ele>170.0</ele><time>2026-05-01T14:35:38Z</time></trkpt><trkpt lat="42.28154351799266" lon="14.142389475111118"><ele>170.0</ele><time>2026-05-01T14:35:41Z</time></trkpt><trkpt lat="42.28145497720714" lon="14.14238326804292"><ele>170.0</ele><time>2026-05-01T14:35:43Z</time></trkpt><trkpt lat="42.281389742654284" lon="14.142380834939386"><ele>170.0</ele><time>2026-05-01T14:35:44Z</time></trkpt><trkpt lat="42.28132466716792" lon="14.142346581850509"><ele>170.0</ele><time>2026-05-01T14:35:45Z</time></trkpt><trkpt lat="42.28123583319365" lon="14.142312538364742"><ele>173.66666666666666</ele><time>2026-05-01T14:35:47Z</time></trkpt><trkpt lat="42.281165930410175" lon="14.142291566849158"><ele>177.33333333333331</ele><time>2026-05-01T14:35:49Z</time></trkpt><trkpt lat="42.28107745255944" lon="14.142237576954242"><ele>181.0</ele><time>2026-05-01T14:35:51Z</time></trkpt><trkpt lat="42.28099530289789" lon="14.142174706128012"><ele>184.66666666666666</ele><time>2026-05-01T14:35:53Z</time></trkpt><trkpt lat="42.280942973388576" lon="14.142085274412645"><ele>188.33333333333334</ele><time>2026-05-01T14:35:55Z</time></trkpt><trkpt lat="42.28093246531646" lon="14.14197347760437"><ele>192.0</ele><time>2026-05-01T14:35:58Z</time></trkpt><trkpt lat="42.280919626010444" lon="14.141878755041681"><ele>192.0</ele><time>2026-05-01T14:36:00Z</time></trkpt><trkpt lat="42.28089425735409" lon="14.141764578656229"><ele>192.0</ele><time>2026-05-01T14:36:02Z</time></trkpt><trkpt lat="42.280873459523065" lon="14.141623761585471"><ele>192.0</ele><time>2026-05-01T14:36:04Z</time></trkpt><trkpt lat="42.28085543824425" lon="14.141539632858422"><ele>192.0</ele><time>2026-05-01T14:36:05Z</time></trkpt><trkpt lat="42.28084169275664" lon="14.141423221894215"><ele>192.0</ele><time>2026-05-01T14:36:07Z</time></trkpt><trkpt lat="42.28082962290171" lon="14.14133248883124"><ele>192.0</ele><time>2026-05-01T14:36:11Z</time></trkpt><trkpt lat="42.280795383107694" lon="14.141184934293607"><ele>192.0</ele><time>2026-05-01T14:36:28Z</time></trkpt><trkpt lat="42.28077136014467" lon="14.141045725888219"><ele>192.0</ele><time>2026-05-01T14:36:30Z</time></trkpt><trkpt lat="42.28078605341063" lon="14.140962740960896"><ele>192.0</ele><time>2026-05-01T14:36:32Z</time></trkpt><trkpt lat="42.280861026344" lon="14.140912500120583"><ele>192.0</ele><time>2026-05-01T14:36:34Z</time></trkpt><trkpt lat="42.28098984009308" lon="14.140857041942944"><ele>192.0</ele><time>2026-05-01T14:36:36Z</time></trkpt><trkpt lat="42.28106187256618" lon="14.140809688662547"><ele>192.0</ele><time>2026-05-01T14:36:37Z</time></trkpt><trkpt lat="42.28113922343971" lon="14.140760090838517"><ele>192.0</ele><time>2026-05-01T14:36:38Z</time></trkpt><trkpt lat="42.281220459722924" lon="14.140709688483069"><ele>192.0</ele><time>2026-05-01T14:36:39Z</time></trkpt><trkpt lat="42.281296005835195" lon="14.140675767907153"><ele>192.0</ele><time>2026-05-01T14:36:40Z</time></trkpt><trkpt lat="42.28138088640366" lon="14.140642171839602"><ele>192.0</ele><time>2026-05-01T14:36:41Z</time></trkpt><trkpt lat="42.281455259698745" lon="14.140611085858197"><ele>192.0</ele><time>2026-05-01T14:36:42Z</time></trkpt><trkpt lat="42.281525946442606" lon="14.140580332850073"><ele>194.83333333333334</ele><time>2026-05-01T14:36:43Z</time></trkpt><trkpt lat="42.281595409672526" lon="14.14053500228369"><ele>197.66666666666669</ele><time>2026-05-01T14:36:44Z</time></trkpt><trkpt lat="42.281667396614885" lon="14.14046955678738"><ele>200.5</ele><time>2026-05-01T14:36:45Z</time></trkpt><trkpt lat="42.28172931204839" lon="14.140386017988988"><ele>203.33333333333334</ele><time>2026-05-01T14:36:46Z</time></trkpt><trkpt lat="42.28179074207161" lon="14.140299201762558"><ele>206.16666666666669</ele><time>2026-05-01T14:36:47Z</time></trkpt><trkpt lat="42.281846373936084" lon="14.14023409672255"><ele>209.0</ele><time>2026-05-01T14:36:48Z</time></trkpt><trkpt lat="42.28189453847672" lon="14.14017464783825"><ele>209.00000000000003</ele><time>2026-05-01T14:36:49Z</time></trkpt><trkpt lat="42.281936790454836" lon="14.140108247580004"><ele>209.0</ele><time>2026-05-01T14:36:50Z</time></trkpt><trkpt lat="42.28197412307464" lon="14.140031149500421"><ele>209.0</ele><time>2026-05-01T14:36:51Z</time></trkpt><trkpt lat="42.28202938909806" lon="14.139965174713163"><ele>209.0</ele><time>2026-05-01T14:36:52Z</time></trkpt><trkpt lat="42.28209097540087" lon="14.139881551413108"><ele>209.00000000000003</ele><time>2026-05-01T14:36:53Z</time></trkpt><trkpt lat="42.28215933990726" lon="14.13981279228253"><ele>209.0</ele><time>2026-05-01T14:36:54Z</time></trkpt><trkpt lat="42.2822214977549" lon="14.139731653069049"><ele>209.79999999999998</ele><time>2026-05-01T14:36:55Z</time></trkpt><trkpt lat="42.28229876508566" lon="14.139655156644844"><ele>210.6</ele><time>2026-05-01T14:36:56Z</time></trkpt><trkpt lat="42.28236996353456" lon="14.139585471708813"><ele>211.4</ele><time>2026-05-01T14:36:57Z</time></trkpt><trkpt lat="42.28243764347301" lon="14.139511301883099"><ele>212.2</ele><time>2026-05-01T14:36:58Z</time></trkpt><trkpt lat="42.28251185635036" lon="14.139431202282978"><ele>213.0</ele><time>2026-05-01T14:36:59Z</time></trkpt><trkpt lat="42.28257444594204" lon="14.139336328199379"><ele>213.0</ele><time>2026-05-01T14:37:00Z</time></trkpt><trkpt lat="42.28263503566624" lon="14.139246015185247"><ele>213.0</ele><time>2026-05-01T14:37:01Z</time></trkpt><trkpt lat="42.282696221664935" lon="14.139160655111796"><ele>213.0</ele><time>2026-05-01T14:37:02Z</time></trkpt><trkpt lat="42.282758884878525" lon="14.139066726838594"><ele>213.0</ele><time>2026-05-01T14:37:03Z</time></trkpt><trkpt lat="42.28282681976036" lon="14.138971234686899"><ele>213.0</ele><time>2026-05-01T14:37:04Z</time></trkpt><trkpt lat="42.282888428242074" lon="14.138862936137908"><ele>213.66666666666666</ele><time>2026-05-01T14:37:05Z</time></trkpt><trkpt lat="42.282951785475404" lon="14.138769229281365"><ele>214.33333333333331</ele><time>2026-05-01T14:37:06Z</time></trkpt><trkpt lat="42.28300716775318" lon="14.138680964919885"><ele>215.0</ele><time>2026-05-01T14:37:07Z</time></trkpt><trkpt lat="42.28306570118516" lon="14.138603924664766"><ele>215.66666666666666</ele><time>2026-05-01T14:37:08Z</time></trkpt><trkpt lat="42.283135454307676" lon="14.138530521376437"><ele>216.33333333333331</ele><time>2026-05-01T14:37:09Z</time></trkpt><trkpt lat="42.28319358856891" lon="14.138449203943084"><ele>217.0</ele><time>2026-05-01T14:37:10Z</time></trkpt><trkpt lat="42.28325944993729" lon="14.138380338433727"><ele>217.0</ele><time>2026-05-01T14:37:11Z</time></trkpt><trkpt lat="42.283330984219354" lon="14.138326590758624"><ele>217.0</ele><time>2026-05-01T14:37:12Z</time></trkpt><trkpt lat="42.28339384958882" lon="14.138257618950092"><ele>217.0</ele><time>2026-05-01T14:37:14Z</time></trkpt><trkpt lat="42.28319467840371" lon="14.138198194872857"><ele>217.0</ele><time>2026-05-01T14:37:24Z</time></trkpt><trkpt lat="42.283130403037084" lon="14.138188410559133"><ele>217.0</ele><time>2026-05-01T14:37:25Z</time></trkpt><trkpt lat="42.2830263331208" lon="14.138136438552978"><ele>213.0</ele><time>2026-05-01T14:37:27Z</time></trkpt><trkpt lat="42.28291176345925" lon="14.138114078260227"><ele>209.0</ele><time>2026-05-01T14:37:29Z</time></trkpt><trkpt lat="42.28280168447122" lon="14.138082249809662"><ele>205.0</ele><time>2026-05-01T14:37:31Z</time></trkpt><trkpt lat="42.282720436202936" lon="14.13808366108028"><ele>201.0</ele><time>2026-05-01T14:37:34Z</time></trkpt><trkpt lat="42.2828100444549" lon="14.137877828135922"><ele>201.0</ele><time>2026-05-01T14:37:42Z</time></trkpt><trkpt lat="42.282894196447856" lon="14.13779023975909"><ele>201.0</ele><time>2026-05-01T14:37:44Z</time></trkpt><trkpt lat="42.282930232517614" lon="14.137690723467887"><ele>201.0</ele><time>2026-05-01T14:37:46Z</time></trkpt><trkpt lat="42.282925884893714" lon="14.13754215945623"><ele>201.0</ele><time>2026-05-01T14:37:48Z</time></trkpt><trkpt lat="42.28289414371884" lon="14.13740917411581"><ele>201.0</ele><time>2026-05-01T14:37:50Z</time></trkpt><trkpt lat="42.28285104295783" lon="14.137327440153515"><ele>202.20000000000002</ele><time>2026-05-01T14:37:52Z</time></trkpt><trkpt lat="42.28281548546855" lon="14.137237052928835"><ele>203.4</ele><time>2026-05-01T14:37:54Z</time></trkpt><trkpt lat="42.28278245372977" lon="14.1371134217505"><ele>204.6</ele><time>2026-05-01T14:37:56Z</time></trkpt><trkpt lat="42.282772334826184" lon="14.136980279776875"><ele>205.8</ele><time>2026-05-01T14:37:58Z</time></trkpt><trkpt lat="42.28276499042101" lon="14.13685401940849"><ele>207.0</ele><time>2026-05-01T14:38:00Z</time></trkpt><trkpt lat="42.28275824707569" lon="14.13672719189067"><ele>207.0</ele><time>2026-05-01T14:38:02Z</time></trkpt><trkpt lat="42.28274776097338" lon="14.136600362117438"><ele>207.0</ele><time>2026-05-01T14:38:04Z</time></trkpt><trkpt lat="42.28270874662397" lon="14.136450727226427"><ele>207.0</ele><time>2026-05-01T14:38:06Z</time></trkpt><trkpt lat="42.282667255372516" lon="14.136288049592478"><ele>207.0</ele><time>2026-05-01T14:38:08Z</time></trkpt><trkpt lat="42.28263962450719" lon="14.136208540043238"><ele>207.0</ele><time>2026-05-01T14:38:09Z</time></trkpt><trkpt lat="42.28256701617298" lon="14.136088450483824"><ele>206.85714285714286</ele><time>2026-05-01T14:38:11Z</time></trkpt><trkpt lat="42.282478472789776" lon="14.135988610118844"><ele>206.71428571428572</ele><time>2026-05-01T14:38:13Z</time></trkpt><trkpt lat="42.28243535493748" lon="14.135925686902677"><ele>206.57142857142856</ele><time>2026-05-01T14:38:14Z</time></trkpt><trkpt lat="42.28239280400854" lon="14.135859039546375"><ele>206.42857142857144</ele><time>2026-05-01T14:38:15Z</time></trkpt><trkpt lat="42.282360260684285" lon="14.135782756469968"><ele>206.28571428571428</ele><time>2026-05-01T14:38:16Z</time></trkpt><trkpt lat="42.28232959185291" lon="14.135705127451823"><ele>206.14285714285714</ele><time>2026-05-01T14:38:17Z</time></trkpt><trkpt lat="42.2822975515667" lon="14.135629571687861"><ele>206.0</ele><time>2026-05-01T14:38:18Z</time></trkpt><trkpt lat="42.282261699372626" lon="14.135514809505235"><ele>206.00000000000003</ele><time>2026-05-01T14:38:20Z</time></trkpt><trkpt lat="42.282259345049724" lon="14.135361798039153"><ele>206.0</ele><time>2026-05-01T14:38:22Z</time></trkpt><trkpt lat="42.28225589745781" lon="14.135274991916383"><ele>206.0</ele><time>2026-05-01T14:38:23Z</time></trkpt><trkpt lat="42.28224776927392" lon="14.135184446565464"><ele>206.0</ele><time>2026-05-01T14:38:24Z</time></trkpt><trkpt lat="42.282224591591856" lon="14.135009550595418"><ele>206.00000000000003</ele><time>2026-05-01T14:38:26Z</time></trkpt><trkpt lat="42.28221641786918" lon="14.134919833450551"><ele>206.0</ele><time>2026-05-01T14:38:27Z</time></trkpt><trkpt lat="42.28220177869108" lon="14.134828050979683"><ele>207.28571428571428</ele><time>2026-05-01T14:38:28Z</time></trkpt><trkpt lat="42.28218398526813" lon="14.134738658174168"><ele>208.57142857142856</ele><time>2026-05-01T14:38:29Z</time></trkpt><trkpt lat="42.282171649551245" lon="14.134649848643335"><ele>209.85714285714283</ele><time>2026-05-01T14:38:30Z</time></trkpt><trkpt lat="42.28216208043886" lon="14.134559857534436"><ele>211.14285714285714</ele><time>2026-05-01T14:38:31Z</time></trkpt><trkpt lat="42.28215006578498" lon="14.134469159148793"><ele>212.42857142857144</ele><time>2026-05-01T14:38:32Z</time></trkpt><trkpt lat="42.282133320199655" lon="14.134384820426916"><ele>213.7142857142857</ele><time>2026-05-01T14:38:33Z</time></trkpt><trkpt lat="42.28211534873499" lon="14.134301742487757"><ele>215.0</ele><time>2026-05-01T14:38:34Z</time></trkpt><trkpt lat="42.282098686153326" lon="14.134209455864525"><ele>215.00000000000003</ele><time>2026-05-01T14:38:35Z</time></trkpt><trkpt lat="42.282082141527354" lon="14.134112728091246"><ele>215.0</ele><time>2026-05-01T14:38:36Z</time></trkpt><trkpt lat="42.28206931624583" lon="14.134012856421156"><ele>215.0</ele><time>2026-05-01T14:38:37Z</time></trkpt><trkpt lat="42.28205529582567" lon="14.133914770007467"><ele>215.0</ele><time>2026-05-01T14:38:38Z</time></trkpt><trkpt lat="42.28203921334257" lon="14.133817548692326"><ele>215.00000000000003</ele><time>2026-05-01T14:38:39Z</time></trkpt><trkpt lat="42.282024367452664" lon="14.133708903164145"><ele>215.0</ele><time>2026-05-01T14:38:40Z</time></trkpt><trkpt lat="42.28201367325331" lon="14.133606950815233"><ele>216.0</ele><time>2026-05-01T14:38:41Z</time></trkpt><trkpt lat="42.28200106362262" lon="14.133461210316344"><ele>217.0</ele><time>2026-05-01T14:38:43Z</time></trkpt><trkpt lat="42.281988643045025" lon="14.133319884344532"><ele>218.0</ele><time>2026-05-01T14:38:45Z</time></trkpt><trkpt lat="42.28194716574984" lon="14.1332259212006"><ele>219.0</ele><time>2026-05-01T14:38:47Z</time></trkpt><trkpt lat="42.28185517670595" lon="14.1331866284347"><ele>220.0</ele><time>2026-05-01T14:38:49Z</time></trkpt><trkpt lat="42.28175223929819" lon="14.133138436139564"><ele>220.8</ele><time>2026-05-01T14:38:51Z</time></trkpt><trkpt lat="42.281669434236115" lon="14.133046448981363"><ele>221.6</ele><time>2026-05-01T14:38:53Z</time></trkpt><trkpt lat="42.281578373891705" lon="14.132966890365786"><ele>222.39999999999998</ele><time>2026-05-01T14:38:55Z</time></trkpt><trkpt lat="42.2814614399552" lon="14.13300105800209"><ele>223.2</ele><time>2026-05-01T14:38:57Z</time></trkpt><trkpt lat="42.281365310952" lon="14.133031814071618"><ele>224.0</ele><time>2026-05-01T14:38:58Z</time></trkpt><trkpt lat="42.28127297073169" lon="14.133053573271612"><ele>224.00000000000003</ele><time>2026-05-01T14:38:59Z</time></trkpt><trkpt lat="42.281203024632646" lon="14.13307478953975"><ele>224.0</ele><time>2026-05-01T14:39:00Z</time></trkpt><trkpt lat="42.281141929032955" lon="14.133114176550183"><ele>224.0</ele><time>2026-05-01T14:39:01Z</time></trkpt><trkpt lat="42.28108245373988" lon="14.133144186564339"><ele>224.0</ele><time>2026-05-01T14:39:02Z</time></trkpt><trkpt lat="42.280976408130215" lon="14.133178682048761"><ele>224.00000000000003</ele><time>2026-05-01T14:39:04Z</time></trkpt><trkpt lat="42.280875035806865" lon="14.13311256188517"><ele>224.0</ele><time>2026-05-01T14:39:06Z</time></trkpt><trkpt lat="42.28081427198099" lon="14.13304381504599"><ele>224.00000000000003</ele><time>2026-05-01T14:39:07Z</time></trkpt><trkpt lat="42.28074516939462" lon="14.132955029733747"><ele>224.0</ele><time>2026-05-01T14:39:08Z</time></trkpt><trkpt lat="42.28068057984984" lon="14.132875135430652"><ele>224.0</ele><time>2026-05-01T14:39:09Z</time></trkpt><trkpt lat="42.28061652064483" lon="14.132814384383755"><ele>224.0</ele><time>2026-05-01T14:39:10Z</time></trkpt><trkpt lat="42.280548823194835" lon="14.132770084008614"><ele>224.00000000000003</ele><time>2026-05-01T14:39:11Z</time></trkpt><trkpt lat="42.28047309121971" lon="14.132738583386088"><ele>224.0</ele><time>2026-05-01T14:39:12Z</time></trkpt><trkpt lat="42.28039803004342" lon="14.13269959197417"><ele>224.83333333333334</ele><time>2026-05-01T14:39:13Z</time></trkpt><trkpt lat="42.280316047184556" lon="14.132645556465091"><ele>225.66666666666669</ele><time>2026-05-01T14:39:14Z</time></trkpt><trkpt lat="42.280247161142505" lon="14.132566252452328"><ele>226.5</ele><time>2026-05-01T14:39:15Z</time></trkpt><trkpt lat="42.28016518709342" lon="14.13251795916189"><ele>227.33333333333331</ele><time>2026-05-01T14:39:16Z</time></trkpt><trkpt lat="42.28007645959302" lon="14.132462558799794"><ele>228.16666666666666</ele><time>2026-05-01T14:39:17Z</time></trkpt><trkpt lat="42.28000606186256" lon="14.132417973479246"><ele>229.0</ele><time>2026-05-01T14:39:18Z</time></trkpt><trkpt lat="42.27994916147929" lon="14.132380856199537"><ele>229.0</ele><time>2026-05-01T14:39:19Z</time></trkpt><trkpt lat="42.27989245551861" lon="14.132343866178555"><ele>228.99999999999997</ele><time>2026-05-01T14:39:20Z</time></trkpt><trkpt lat="42.279833616654756" lon="14.132240130227819"><ele>228.99999999999997</ele><time>2026-05-01T14:39:22Z</time></trkpt><trkpt lat="42.27986472362673" lon="14.1321127952435"><ele>229.0</ele><time>2026-05-01T14:39:23Z</time></trkpt><trkpt lat="42.27981127995644" lon="14.131976550483994"><ele>229.0</ele><time>2026-05-01T14:39:24Z</time></trkpt><trkpt lat="42.279775980798505" lon="14.131811157042835"><ele>227.79999999999998</ele><time>2026-05-01T14:39:25Z</time></trkpt><trkpt lat="42.27973886191493" lon="14.131679265911458"><ele>226.59999999999997</ele><time>2026-05-01T14:39:26Z</time></trkpt><trkpt lat="42.27971769459411" lon="14.13157471195004"><ele>225.4</ele><time>2026-05-01T14:39:27Z</time></trkpt><trkpt lat="42.27970967545313" lon="14.131466452403561"><ele>224.2</ele><time>2026-05-01T14:39:29Z</time></trkpt><trkpt lat="42.27982845416207" lon="14.131481726356572"><ele>223.0</ele><time>2026-05-01T14:39:33Z</time></trkpt><trkpt lat="42.27990602397972" lon="14.131497132563469"><ele>227.2</ele><time>2026-05-01T14:39:34Z</time></trkpt><trkpt lat="42.2799769231456" lon="14.131511663356157"><ele>231.4</ele><time>2026-05-01T14:39:35Z</time></trkpt><trkpt lat="42.280044263044104" lon="14.131520100448244"><ele>235.59999999999997</ele><time>2026-05-01T14:39:36Z</time></trkpt><trkpt lat="42.28016036539068" lon="14.13152717968873"><ele>239.79999999999998</ele><time>2026-05-01T14:39:38Z</time></trkpt><trkpt lat="42.280266741479444" lon="14.131523095745019"><ele>244.0</ele><time>2026-05-01T14:39:40Z</time></trkpt><trkpt lat="42.28036917788182" lon="14.131507852162654"><ele>243.99999999999997</ele><time>2026-05-01T14:39:42Z</time></trkpt><trkpt lat="42.280480913511184" lon="14.131476300248815"><ele>244.0</ele><time>2026-05-01T14:39:44Z</time></trkpt><trkpt lat="42.28056144503123" lon="14.131454398728685"><ele>244.0</ele><time>2026-05-01T14:39:45Z</time></trkpt><trkpt lat="42.28063558521417" lon="14.131432034930175"><ele>244.0</ele><time>2026-05-01T14:39:46Z</time></trkpt><trkpt lat="42.2807037415497" lon="14.131384111915994"><ele>243.99999999999997</ele><time>2026-05-01T14:39:47Z</time></trkpt><trkpt lat="42.28076489253383" lon="14.131316308077162"><ele>244.0</ele><time>2026-05-01T14:39:48Z</time></trkpt><trkpt lat="42.28081467666643" lon="14.13122772909847"><ele>243.66666666666666</ele><time>2026-05-01T14:39:49Z</time></trkpt><trkpt lat="42.28085340685777" lon="14.1311278838293"><ele>243.33333333333331</ele><time>2026-05-01T14:39:50Z</time></trkpt><trkpt lat="42.28089031988509" lon="14.131019522243589"><ele>243.0</ele><time>2026-05-01T14:39:51Z</time></trkpt><trkpt lat="42.28092565558268" lon="14.130904530952245"><ele>242.66666666666669</ele><time>2026-05-01T14:39:52Z</time></trkpt><trkpt lat="42.280954961613645" lon="14.13079438555587"><ele>242.33333333333334</ele><time>2026-05-01T14:39:53Z</time></trkpt><trkpt lat="42.280979352447105" lon="14.1306989857859"><ele>242.0</ele><time>2026-05-01T14:39:54Z</time></trkpt><trkpt lat="42.28099930317184" lon="14.130605908695498"><ele>243.00000000000003</ele><time>2026-05-01T14:39:55Z</time></trkpt><trkpt lat="42.281019050631464" lon="14.130499022361"><ele>244.0</ele><time>2026-05-01T14:39:56Z</time></trkpt><trkpt lat="42.28103542227341" lon="14.130387183915385"><ele>245.0</ele><time>2026-05-01T14:39:57Z</time></trkpt><trkpt lat="42.28105102065121" lon="14.13027826687495"><ele>246.0</ele><time>2026-05-01T14:39:58Z</time></trkpt><trkpt lat="42.28106434204685" lon="14.13016961013751"><ele>247.00000000000003</ele><time>2026-05-01T14:39:59Z</time></trkpt><trkpt lat="42.28105332911208" lon="14.13005644064015"><ele>248.0</ele><time>2026-05-01T14:40:00Z</time></trkpt><trkpt lat="42.28101269958523" lon="14.129954792509011"><ele>248.0</ele><time>2026-05-01T14:40:01Z</time></trkpt><trkpt lat="42.280943007063875" lon="14.129882478817235"><ele>248.0</ele><time>2026-05-01T14:40:02Z</time></trkpt><trkpt lat="42.28085726125682" lon="14.129855810852172"><ele>248.0</ele><time>2026-05-01T14:40:03Z</time></trkpt><trkpt lat="42.28077031964806" lon="14.129881958165955"><ele>248.0</ele><time>2026-05-01T14:40:04Z</time></trkpt><trkpt lat="42.280693514045396" lon="14.129950344067595"><ele>248.0</ele><time>2026-05-01T14:40:05Z</time></trkpt><trkpt lat="42.28062705373894" lon="14.130039881108086"><ele>249.2</ele><time>2026-05-01T14:40:06Z</time></trkpt><trkpt lat="42.28056109044559" lon="14.130130592024948"><ele>250.4</ele><time>2026-05-01T14:40:07Z</time></trkpt><trkpt lat="42.280487491673476" lon="14.130221504511052"><ele>251.59999999999997</ele><time>2026-05-01T14:40:08Z</time></trkpt><trkpt lat="42.28040898612243" lon="14.130309314454099"><ele>252.79999999999998</ele><time>2026-05-01T14:40:09Z</time></trkpt><trkpt lat="42.28033984239593" lon="14.130387853382883"><ele>254.0</ele><time>2026-05-01T14:40:10Z</time></trkpt><trkpt lat="42.28027212514345" lon="14.130444736435496"><ele>254.00000000000003</ele><time>2026-05-01T14:40:11Z</time></trkpt><trkpt lat="42.280199651958476" lon="14.130484745357757"><ele>254.0</ele><time>2026-05-01T14:40:12Z</time></trkpt><trkpt lat="42.28012160466094" lon="14.130498516110586"><ele>254.0</ele><time>2026-05-01T14:40:13Z</time></trkpt><trkpt lat="42.28004335649836" lon="14.130484223736222"><ele>254.0</ele><time>2026-05-01T14:40:14Z</time></trkpt><trkpt lat="42.279961529206794" lon="14.13044627221777"><ele>254.00000000000003</ele><time>2026-05-01T14:40:15Z</time></trkpt><trkpt lat="42.27987849016465" lon="14.130396368434113"><ele>254.0</ele><time>2026-05-01T14:40:16Z</time></trkpt><trkpt lat="42.27979270863104" lon="14.130341764218247"><ele>253.66666666666669</ele><time>2026-05-01T14:40:17Z</time></trkpt><trkpt lat="42.27970126846043" lon="14.13029110896887"><ele>253.33333333333334</ele><time>2026-05-01T14:40:18Z</time></trkpt><trkpt lat="42.279615630816465" lon="14.130245296614167"><ele>253.0</ele><time>2026-05-01T14:40:19Z</time></trkpt><trkpt lat="42.279539522514376" lon="14.130199271404706"><ele>252.66666666666669</ele><time>2026-05-01T14:40:20Z</time></trkpt><trkpt lat="42.27947004150673" lon="14.13015018224314"><ele>252.33333333333334</ele><time>2026-05-01T14:40:21Z</time></trkpt><trkpt lat="42.27940314707498" lon="14.130094504297935"><ele>252.0</ele><time>2026-05-01T14:40:22Z</time></trkpt><trkpt lat="42.27934468941016" lon="14.1300223333519"><ele>252.0</ele><time>2026-05-01T14:40:23Z</time></trkpt><trkpt lat="42.27930567892556" lon="14.12992884118659"><ele>252.0</ele><time>2026-05-01T14:40:24Z</time></trkpt><trkpt lat="42.279290945268876" lon="14.129820606617814"><ele>252.0</ele><time>2026-05-01T14:40:25Z</time></trkpt><trkpt lat="42.27930751062142" lon="14.12971452363944"><ele>252.0</ele><time>2026-05-01T14:40:26Z</time></trkpt><trkpt lat="42.27935787376944" lon="14.129632313729665"><ele>252.0</ele><time>2026-05-01T14:40:27Z</time></trkpt><trkpt lat="42.27943105821683" lon="14.129592574943592"><ele>252.0</ele><time>2026-05-01T14:40:28Z</time></trkpt><trkpt lat="42.279512246038536" lon="14.129593837501506"><ele>253.33333333333334</ele><time>2026-05-01T14:40:29Z</time></trkpt><trkpt lat="42.279595384311975" lon="14.129598247936611"><ele>254.66666666666669</ele><time>2026-05-01T14:40:30Z</time></trkpt><trkpt lat="42.279681025485274" lon="14.129587396486443"><ele>256.0</ele><time>2026-05-01T14:40:31Z</time></trkpt><trkpt lat="42.2797631498382" lon="14.129552281594828"><ele>257.33333333333337</ele><time>2026-05-01T14:40:32Z</time></trkpt><trkpt lat="42.27983276944557" lon="14.129497834653153"><ele>258.6666666666667</ele><time>2026-05-01T14:40:33Z</time></trkpt><trkpt lat="42.2798861801867" lon="14.129426007222616"><ele>260.0</ele><time>2026-05-01T14:40:34Z</time></trkpt><trkpt lat="42.27992513046106" lon="14.129343460847638"><ele>260.0</ele><time>2026-05-01T14:40:35Z</time></trkpt><trkpt lat="42.27996145535989" lon="14.129255258857487"><ele>260.0</ele><time>2026-05-01T14:40:36Z</time></trkpt><trkpt lat="42.27999931731944" lon="14.12915571558346"><ele>260.0</ele><time>2026-05-01T14:40:37Z</time></trkpt><trkpt lat="42.2800422706498" lon="14.129044374327243"><ele>260.0</ele><time>2026-05-01T14:40:38Z</time></trkpt><trkpt lat="42.28008460896926" lon="14.128927258426712"><ele>260.0</ele><time>2026-05-01T14:40:39Z</time></trkpt><trkpt lat="42.280126934099236" lon="14.128810326144007"><ele>260.0</ele><time>2026-05-01T14:40:40Z</time></trkpt><trkpt lat="42.28016651410337" lon="14.12870576360343"><ele>261.83333333333337</ele><time>2026-05-01T14:40:41Z</time></trkpt><trkpt lat="42.280203256104926" lon="14.128610692648158"><ele>263.6666666666667</ele><time>2026-05-01T14:40:42Z</time></trkpt><trkpt lat="42.28023807963092" lon="14.128526496702374"><ele>265.5</ele><time>2026-05-01T14:40:43Z</time></trkpt><trkpt lat="42.28027969068603" lon="14.128431097856117"><ele>267.3333333333333</ele><time>2026-05-01T14:40:44Z</time></trkpt><trkpt lat="42.280328033136" lon="14.128337077702335"><ele>269.16666666666663</ele><time>2026-05-01T14:40:45Z</time></trkpt><trkpt lat="42.28039282601524" lon="14.128254598075566"><ele>271.0</ele><time>2026-05-01T14:40:46Z</time></trkpt><trkpt lat="42.28047144045049" lon="14.128194248193912"><ele>272.0</ele><time>2026-05-01T14:40:47Z</time></trkpt><trkpt lat="42.28055759002033" lon="14.12815001730506"><ele>273.0</ele><time>2026-05-01T14:40:48Z</time></trkpt><trkpt lat="42.28064853021518" lon="14.128107611476077"><ele>274.0</ele><time>2026-05-01T14:40:49Z</time></trkpt><trkpt lat="42.280732052728624" lon="14.128063713094052"><ele>275.0</ele><time>2026-05-01T14:40:50Z</time></trkpt><trkpt lat="42.280811883694874" lon="14.128026444154584"><ele>276.0</ele><time>2026-05-01T14:40:51Z</time></trkpt><trkpt lat="42.280886558596606" lon="14.12798918842134"><ele>277.0</ele><time>2026-05-01T14:40:52Z</time></trkpt><trkpt lat="42.280955473223834" lon="14.127944627502204"><ele>277.0</ele><time>2026-05-01T14:40:53Z</time></trkpt><trkpt lat="42.281020700621866" lon="14.127874119110222"><ele>277.0</ele><time>2026-05-01T14:40:54Z</time></trkpt><trkpt lat="42.281063667971" lon="14.127781365538931"><ele>277.0</ele><time>2026-05-01T14:40:55Z</time></trkpt><trkpt lat="42.28108231097771" lon="14.12767151544131"><ele>277.0</ele><time>2026-05-01T14:40:56Z</time></trkpt><trkpt lat="42.28107273162297" lon="14.127559405867283"><ele>277.0</ele><time>2026-05-01T14:40:57Z</time></trkpt><trkpt lat="42.28103802895111" lon="14.127454600566367"><ele>277.0</ele><time>2026-05-01T14:40:58Z</time></trkpt><trkpt lat="42.2809828182652" lon="14.127371647023464"><ele>279.2</ele><time>2026-05-01T14:40:59Z</time></trkpt><trkpt lat="42.280907441828155" lon="14.127317901717893"><ele>281.4</ele><time>2026-05-01T14:41:00Z</time></trkpt><trkpt lat="42.28082194801704" lon="14.12729447579275"><ele>283.6</ele><time>2026-05-01T14:41:01Z</time></trkpt><trkpt lat="42.28072883178458" lon="14.127295770074914"><ele>285.8</ele><time>2026-05-01T14:41:02Z</time></trkpt><trkpt lat="42.28062739209204" lon="14.12732349470355"><ele>288.0</ele><time>2026-05-01T14:41:03Z</time></trkpt><trkpt lat="42.28049034540355" lon="14.127323019633002"><ele>288.0</ele><time>2026-05-01T14:41:04Z</time></trkpt><trkpt lat="42.28033475680253" lon="14.127339091039197"><ele>288.0</ele><time>2026-05-01T14:41:05Z</time></trkpt><trkpt lat="42.28017126185435" lon="14.127356118239916"><ele>288.0</ele><time>2026-05-01T14:41:06Z</time></trkpt><trkpt lat="42.28000594952164" lon="14.1273738097535"><ele>286.0</ele><time>2026-05-01T14:41:07Z</time></trkpt><trkpt lat="42.27982802334122" lon="14.127413442704436"><ele>284.0</ele><time>2026-05-01T14:41:08Z</time></trkpt><trkpt lat="42.27963448666285" lon="14.127431435084608"><ele>282.0</ele><time>2026-05-01T14:41:09Z</time></trkpt><trkpt lat="42.27943263940574" lon="14.127450510472638"><ele>282.0</ele><time>2026-05-01T14:41:10Z</time></trkpt><trkpt lat="42.27923824390233" lon="14.12747280141906"><ele>282.0</ele><time>2026-05-01T14:41:11Z</time></trkpt><trkpt lat="42.279054209947745" lon="14.127493325916818"><ele>282.0</ele><time>2026-05-01T14:41:12Z</time></trkpt><trkpt lat="42.27887882008602" lon="14.12751289108014"><ele>282.5</ele><time>2026-05-01T14:41:13Z</time></trkpt><trkpt lat="42.2787291093098" lon="14.127517482087523"><ele>283.0</ele><time>2026-05-01T14:41:14Z</time></trkpt><trkpt lat="42.27861315930659" lon="14.127478366609212"><ele>283.5</ele><time>2026-05-01T14:41:15Z</time></trkpt><trkpt lat="42.27850780867059" lon="14.127389640746063"><ele>284.0</ele><time>2026-05-01T14:41:16Z</time></trkpt><trkpt lat="42.278453720161615" lon="14.127226279947784"><ele>285.0</ele><time>2026-05-01T14:41:17Z</time></trkpt><trkpt lat="42.27842342867252" lon="14.127069249792152"><ele>286.0</ele><time>2026-05-01T14:41:18Z</time></trkpt><trkpt lat="42.27842005410019" lon="14.126905461593445"><ele>287.0</ele><time>2026-05-01T14:41:19Z</time></trkpt><trkpt lat="42.278469961710904" lon="14.126737338952498"><ele>288.0</ele><time>2026-05-01T14:41:20Z</time></trkpt><trkpt lat="42.27855551516728" lon="14.126612044632862"><ele>290.0</ele><time>2026-05-01T14:41:21Z</time></trkpt><trkpt lat="42.278675890182086" lon="14.126542605587808"><ele>292.0</ele><time>2026-05-01T14:41:22Z</time></trkpt><trkpt lat="42.27881357467053" lon="14.126518871602267"><ele>294.0</ele><time>2026-05-01T14:41:23Z</time></trkpt><trkpt lat="42.27892033004777" lon="14.126505942376061"><ele>296.0</ele><time>2026-05-01T14:41:24Z</time></trkpt><trkpt lat="42.27901120405969" lon="14.126481922412717"><ele>296.14285714285717</ele><time>2026-05-01T14:41:25Z</time></trkpt><trkpt lat="42.27909273101237" lon="14.126461489876048"><ele>296.2857142857143</ele><time>2026-05-01T14:41:26Z</time></trkpt><trkpt lat="42.27916524662084" lon="14.126450813384475"><ele>296.42857142857144</ele><time>2026-05-01T14:41:27Z</time></trkpt><trkpt lat="42.279232933891606" lon="14.126447039192014"><ele>296.57142857142856</ele><time>2026-05-01T14:41:28Z</time></trkpt><trkpt lat="42.27930969174854" lon="14.126437251975176"><ele>296.7142857142857</ele><time>2026-05-01T14:41:29Z</time></trkpt><trkpt lat="42.279379289413264" lon="14.126416998315197"><ele>296.8571428571429</ele><time>2026-05-01T14:41:30Z</time></trkpt><trkpt lat="42.27944838342819" lon="14.126410225440837"><ele>297.0</ele><time>2026-05-01T14:41:32Z</time></trkpt><trkpt lat="42.27933952270759" lon="14.126420540400808"><ele>297.0</ele><time>2026-05-01T14:41:45Z</time></trkpt><trkpt lat="42.279263663283146" lon="14.12643913026786"><ele>297.0</ele><time>2026-05-01T14:41:46Z</time></trkpt><trkpt lat="42.279184591280426" lon="14.1264155261048"><ele>297.0</ele><time>2026-05-01T14:41:47Z</time></trkpt><trkpt lat="42.2790983097479" lon="14.126436404112093"><ele>297.0</ele><time>2026-05-01T14:41:48Z</time></trkpt><trkpt lat="42.279000552742545" lon="14.12645661271288"><ele>297.0</ele><time>2026-05-01T14:41:49Z</time></trkpt><trkpt lat="42.27889643692959" lon="14.126475613578497"><ele>296.8</ele><time>2026-05-01T14:41:50Z</time></trkpt><trkpt lat="42.27877834551424" lon="14.12649249736156"><ele>296.6</ele><time>2026-05-01T14:41:51Z</time></trkpt><trkpt lat="42.27865862821037" lon="14.126522295468"><ele>296.40000000000003</ele><time>2026-05-01T14:41:52Z</time></trkpt><trkpt lat="42.278559998572035" lon="14.126575704457128"><ele>296.2</ele><time>2026-05-01T14:41:53Z</time></trkpt><trkpt lat="42.2784831888193" lon="14.126656660153621"><ele>296.0</ele><time>2026-05-01T14:41:54Z</time></trkpt><trkpt lat="42.27842952871012" lon="14.126758506814715"><ele>294.40000000000003</ele><time>2026-05-01T14:41:55Z</time></trkpt><trkpt lat="42.2783972206936" lon="14.126871716445713"><ele>292.8</ele><time>2026-05-01T14:41:56Z</time></trkpt><trkpt lat="42.278382844394216" lon="14.126989080642542"><ele>291.20000000000005</ele><time>2026-05-01T14:41:57Z</time></trkpt><trkpt lat="42.27838963383286" lon="14.127105309884172"><ele>289.6</ele><time>2026-05-01T14:41:58Z</time></trkpt><trkpt lat="42.27842113255619" lon="14.127225407329076"><ele>288.0</ele><time>2026-05-01T14:41:59Z</time></trkpt><trkpt lat="42.278471416475014" lon="14.127346192729956"><ele>287.0</ele><time>2026-05-01T14:42:00Z</time></trkpt><trkpt lat="42.278618880735095" lon="14.127488502268427"><ele>286.0</ele><time>2026-05-01T14:42:02Z</time></trkpt><trkpt lat="42.27870222910942" lon="14.127526666401074"><ele>285.0</ele><time>2026-05-01T14:42:03Z</time></trkpt><trkpt lat="42.278794055661756" lon="14.12754597586768"><ele>284.0</ele><time>2026-05-01T14:42:04Z</time></trkpt><trkpt lat="42.27888926192642" lon="14.127543850498293"><ele>283.6666666666667</ele><time>2026-05-01T14:42:05Z</time></trkpt><trkpt lat="42.278986181677496" lon="14.127528457497101"><ele>283.33333333333337</ele><time>2026-05-01T14:42:06Z</time></trkpt><trkpt lat="42.27908507004798" lon="14.127514145765067"><ele>283.0</ele><time>2026-05-01T14:42:07Z</time></trkpt><trkpt lat="42.27918240782804" lon="14.127503602623156"><ele>282.6666666666667</ele><time>2026-05-01T14:42:08Z</time></trkpt><trkpt lat="42.27926568406093" lon="14.127494514695988"><ele>282.3333333333333</ele><time>2026-05-01T14:42:09Z</time></trkpt><trkpt lat="42.27933448067703" lon="14.127509227898463"><ele>282.0</ele><time>2026-05-01T14:42:11Z</time></trkpt><trkpt lat="42.279328371632474" lon="14.127594386356078"><ele>282.0</ele><time>2026-05-01T14:42:14Z</time></trkpt><trkpt lat="42.27926164838365" lon="14.127596283555867"><ele>282.0</ele><time>2026-05-01T14:42:24Z</time></trkpt><trkpt lat="42.27917652705954" lon="14.127615540741015"><ele>282.0</ele><time>2026-05-01T14:42:26Z</time></trkpt><trkpt lat="42.27908843364007" lon="14.127625231441323"><ele>282.0</ele><time>2026-05-01T14:42:28Z</time></trkpt><trkpt lat="42.279025501361815" lon="14.127634150517762"><ele>282.0</ele><time>2026-05-01T14:42:32Z</time></trkpt><trkpt lat="42.27895682548059" lon="14.127642142889497"><ele>282.0</ele><time>2026-05-01T14:42:45Z</time></trkpt><trkpt lat="42.27882080987896" lon="14.127637911732513"><ele>282.3333333333333</ele><time>2026-05-01T14:42:47Z</time></trkpt><trkpt lat="42.27874949078527" lon="14.12763145642092"><ele>282.6666666666667</ele><time>2026-05-01T14:42:48Z</time></trkpt><trkpt lat="42.27866762877662" lon="14.127624504834106"><ele>283.0</ele><time>2026-05-01T14:42:49Z</time></trkpt><trkpt lat="42.278581813094256" lon="14.127619631861004"><ele>283.33333333333337</ele><time>2026-05-01T14:42:50Z</time></trkpt><trkpt lat="42.2784858245097" lon="14.127614775979564"><ele>283.6666666666667</ele><time>2026-05-01T14:42:51Z</time></trkpt><trkpt lat="42.27838755730961" lon="14.127585763251846"><ele>284.0</ele><time>2026-05-01T14:42:52Z</time></trkpt><trkpt lat="42.27828488621378" lon="14.127580804895262"><ele>284.0</ele><time>2026-05-01T14:42:53Z</time></trkpt><trkpt lat="42.278177632466594" lon="14.127569892949031"><ele>284.0</ele><time>2026-05-01T14:42:54Z</time></trkpt><trkpt lat="42.27808151749166" lon="14.127553062485891"><ele>284.0</ele><time>2026-05-01T14:42:55Z</time></trkpt><trkpt lat="42.27798314053833" lon="14.12751634757822"><ele>284.0</ele><time>2026-05-01T14:42:56Z</time></trkpt><trkpt lat="42.2778779213847" lon="14.127476755384714"><ele>284.0</ele><time>2026-05-01T14:42:57Z</time></trkpt><trkpt lat="42.27776192468376" lon="14.127433375091657"><ele>284.5</ele><time>2026-05-01T14:42:58Z</time></trkpt><trkpt lat="42.277641608863206" lon="14.127412882693003"><ele>285.0</ele><time>2026-05-01T14:42:59Z</time></trkpt><trkpt lat="42.27752831438093" lon="14.127382083832023"><ele>285.5</ele><time>2026-05-01T14:43:00Z</time></trkpt><trkpt lat="42.27741939992229" lon="14.127345372806843"><ele>286.0</ele><time>2026-05-01T14:43:01Z</time></trkpt><trkpt lat="42.27731849588495" lon="14.127386363583623"><ele>287.0</ele><time>2026-05-01T14:43:02Z</time></trkpt><trkpt lat="42.27722198159094" lon="14.127398492062992"><ele>288.0</ele><time>2026-05-01T14:43:03Z</time></trkpt><trkpt lat="42.27713124404263" lon="14.127400123175411"><ele>289.0</ele><time>2026-05-01T14:43:04Z</time></trkpt><trkpt lat="42.27704552270472" lon="14.12738550093559"><ele>290.0</ele><time>2026-05-01T14:43:05Z</time></trkpt><trkpt lat="42.27698025533578" lon="14.12733268673591"><ele>291.0</ele><time>2026-05-01T14:43:06Z</time></trkpt><trkpt lat="42.27689436148455" lon="14.127284839410711"><ele>292.0</ele><time>2026-05-01T14:43:08Z</time></trkpt><trkpt lat="42.27680059590335" lon="14.127264699570784"><ele>293.0</ele><time>2026-05-01T14:43:10Z</time></trkpt><trkpt lat="42.276694908383625" lon="14.127217192544418"><ele>294.0</ele><time>2026-05-01T14:43:12Z</time></trkpt><trkpt lat="42.27660427486167" lon="14.12717028228825"><ele>295.0</ele><time>2026-05-01T14:43:14Z</time></trkpt><trkpt lat="42.2765113161013" lon="14.127262761581463"><ele>296.0</ele><time>2026-05-01T14:43:16Z</time></trkpt><trkpt lat="42.27646166433542" lon="14.127332120701784"><ele>297.0</ele><time>2026-05-01T14:43:17Z</time></trkpt><trkpt lat="42.276399087309514" lon="14.127386430926608"><ele>296.8</ele><time>2026-05-01T14:43:18Z</time></trkpt><trkpt lat="42.276342448341346" lon="14.127473967338291"><ele>296.6</ele><time>2026-05-01T14:43:19Z</time></trkpt><trkpt lat="42.27629312590584" lon="14.127587920800508"><ele>296.40000000000003</ele><time>2026-05-01T14:43:20Z</time></trkpt><trkpt lat="42.27622699326934" lon="14.12769641139034"><ele>296.2</ele><time>2026-05-01T14:43:21Z</time></trkpt><trkpt lat="42.27615480247224" lon="14.12779658449881"><ele>296.0</ele><time>2026-05-01T14:43:22Z</time></trkpt><trkpt lat="42.276074824400396" lon="14.127870556348599"><ele>296.0</ele><time>2026-05-01T14:43:23Z</time></trkpt><trkpt lat="42.27599238554836" lon="14.12792742599158"><ele>296.0</ele><time>2026-05-01T14:43:24Z</time></trkpt><trkpt lat="42.27590223226835" lon="14.127961398906573"><ele>296.0</ele><time>2026-05-01T14:43:25Z</time></trkpt><trkpt lat="42.2758071627984" lon="14.127986455428855"><ele>296.0</ele><time>2026-05-01T14:43:26Z</time></trkpt><trkpt lat="42.27570519192339" lon="14.128013869727095"><ele>296.0</ele><time>2026-05-01T14:43:27Z</time></trkpt><trkpt lat="42.27559508138427" lon="14.128021761369242"><ele>296.8</ele><time>2026-05-01T14:43:28Z</time></trkpt><trkpt lat="42.275489890454054" lon="14.128074356930087"><ele>297.6</ele><time>2026-05-01T14:43:29Z</time></trkpt><trkpt lat="42.27539864773704" lon="14.128140197849113"><ele>298.4</ele><time>2026-05-01T14:43:30Z</time></trkpt><trkpt lat="42.27532479293692" lon="14.128202054328835"><ele>299.2</ele><time>2026-05-01T14:43:31Z</time></trkpt><trkpt lat="42.27522836251808" lon="14.12827008880428"><ele>300.0</ele><time>2026-05-01T14:43:33Z</time></trkpt><trkpt lat="42.27516130569524" lon="14.128241934907573"><ele>300.75</ele><time>2026-05-01T14:43:35Z</time></trkpt><trkpt lat="42.27513954658795" lon="14.128121507487458"><ele>301.5</ele><time>2026-05-01T14:43:36Z</time></trkpt><trkpt lat="42.27509589923873" lon="14.127972604904937"><ele>302.25</ele><time>2026-05-01T14:43:37Z</time></trkpt><trkpt lat="42.27504171098847" lon="14.127846061444137"><ele>303.0</ele><time>2026-05-01T14:43:38Z</time></trkpt><trkpt lat="42.27498264268508" lon="14.127666796048318"><ele>303.0</ele><time>2026-05-01T14:43:39Z</time></trkpt><trkpt lat="42.274919882132956" lon="14.127483264178522"><ele>303.0</ele><time>2026-05-01T14:43:40Z</time></trkpt><trkpt lat="42.274875682495264" lon="14.127298519109031"><ele>303.0</ele><time>2026-05-01T14:43:41Z</time></trkpt><trkpt lat="42.27481363868184" lon="14.127149854472336"><ele>303.0</ele><time>2026-05-01T14:43:42Z</time></trkpt><trkpt lat="42.27476765105004" lon="14.127007567816742"><ele>302.2</ele><time>2026-05-01T14:43:43Z</time></trkpt><trkpt lat="42.27472629208394" lon="14.126861783979926"><ele>301.4</ele><time>2026-05-01T14:43:44Z</time></trkpt><trkpt lat="42.27469099642051" lon="14.126716662016852"><ele>300.59999999999997</ele><time>2026-05-01T14:43:45Z</time></trkpt><trkpt lat="42.274674285630006" lon="14.126567730923972"><ele>299.8</ele><time>2026-05-01T14:43:46Z</time></trkpt><trkpt lat="42.27464628417826" lon="14.1264278389155"><ele>299.0</ele><time>2026-05-01T14:43:47Z</time></trkpt><trkpt lat="42.274608784427286" lon="14.126291326930197"><ele>297.25</ele><time>2026-05-01T14:43:48Z</time></trkpt><trkpt lat="42.27461080031407" lon="14.126149266721075"><ele>295.5</ele><time>2026-05-01T14:43:49Z</time></trkpt><trkpt lat="42.274633529962884" lon="14.125986854735963"><ele>293.75</ele><time>2026-05-01T14:43:50Z</time></trkpt><trkpt lat="42.27468961931627" lon="14.125827097654264"><ele>292.0</ele><time>2026-05-01T14:43:51Z</time></trkpt><trkpt lat="42.27473684368765" lon="14.125662024724821"><ele>298.75</ele><time>2026-05-01T14:43:52Z</time></trkpt><trkpt lat="42.274782854272324" lon="14.125498934640943"><ele>305.5</ele><time>2026-05-01T14:43:53Z</time></trkpt><trkpt lat="42.2748095086527" lon="14.125336179915116"><ele>312.25</ele><time>2026-05-01T14:43:54Z</time></trkpt><trkpt lat="42.27485193496462" lon="14.125188589495416"><ele>319.0</ele><time>2026-05-01T14:43:55Z</time></trkpt><trkpt lat="42.27490104657196" lon="14.125039750064774"><ele>321.0</ele><time>2026-05-01T14:43:56Z</time></trkpt><trkpt lat="42.27494825406652" lon="14.124888638103679"><ele>323.0</ele><time>2026-05-01T14:43:57Z</time></trkpt><trkpt lat="42.27500979164305" lon="14.124743994766561"><ele>325.0</ele><time>2026-05-01T14:43:58Z</time></trkpt><trkpt lat="42.27507548404719" lon="14.124601919251091"><ele>327.0</ele><time>2026-05-01T14:43:59Z</time></trkpt><trkpt lat="42.27513209614178" lon="14.124481376244288"><ele>327.0</ele><time>2026-05-01T14:44:00Z</time></trkpt><trkpt lat="42.27518433052123" lon="14.124374533132462"><ele>327.0</ele><time>2026-05-01T14:44:01Z</time></trkpt><trkpt lat="42.27524280553549" lon="14.124294849006326"><ele>327.0</ele><time>2026-05-01T14:44:02Z</time></trkpt><trkpt lat="42.275330557396806" lon="14.124273879207614"><ele>327.0</ele><time>2026-05-01T14:44:03Z</time></trkpt><trkpt lat="42.27544345681522" lon="14.124257621355675"><ele>327.0</ele><time>2026-05-01T14:44:04Z</time></trkpt><trkpt lat="42.27556477003854" lon="14.124229920831814"><ele>325.5</ele><time>2026-05-01T14:44:05Z</time></trkpt><trkpt lat="42.27567902045143" lon="14.124223484640945"><ele>324.0</ele><time>2026-05-01T14:44:06Z</time></trkpt><trkpt lat="42.275790052379705" lon="14.124213327851598"><ele>322.5</ele><time>2026-05-01T14:44:07Z</time></trkpt><trkpt lat="42.275900605824425" lon="14.124222381909155"><ele>321.0</ele><time>2026-05-01T14:44:08Z</time></trkpt><trkpt lat="42.276026242100116" lon="14.124206644307597"><ele>321.0</ele><time>2026-05-01T14:44:09Z</time></trkpt><trkpt lat="42.27614317664319" lon="14.124143428635529"><ele>321.0</ele><time>2026-05-01T14:44:10Z</time></trkpt><trkpt lat="42.276257037838384" lon="14.12414046532615"><ele>321.0</ele><time>2026-05-01T14:44:11Z</time></trkpt><trkpt lat="42.27635971251973" lon="14.124131503288552"><ele>321.0</ele><time>2026-05-01T14:44:12Z</time></trkpt><trkpt lat="42.276435211359775" lon="14.124108065531725"><ele>321.0</ele><time>2026-05-01T14:44:13Z</time></trkpt><trkpt lat="42.276516061400585" lon="14.124117362547656"><ele>321.0</ele><time>2026-05-01T14:44:15Z</time></trkpt><trkpt lat="42.27658125751303" lon="14.124129936686469"><ele>321.0</ele><time>2026-05-01T14:44:19Z</time></trkpt><trkpt lat="42.276518270191524" lon="14.124127822246718"><ele>321.0</ele><time>2026-05-01T14:44:24Z</time></trkpt><trkpt lat="42.276419139899204" lon="14.124128503573075"><ele>321.0</ele><time>2026-05-01T14:44:26Z</time></trkpt><trkpt lat="42.27631498169656" lon="14.12384473793997"><ele>320.3333333333333</ele><time>2026-05-01T14:44:27Z</time></trkpt><trkpt lat="42.276262999952685" lon="14.123752181435549"><ele>319.6666666666667</ele><time>2026-05-01T14:44:28Z</time></trkpt><trkpt lat="42.27621552350982" lon="14.123661009620758"><ele>319.0</ele><time>2026-05-01T14:44:29Z</time></trkpt><trkpt lat="42.27617260546559" lon="14.123572597793903"><ele>318.33333333333337</ele><time>2026-05-01T14:44:30Z</time></trkpt><trkpt lat="42.27613186481947" lon="14.123489740646177"><ele>317.6666666666667</ele><time>2026-05-01T14:44:31Z</time></trkpt><trkpt lat="42.276080513524725" lon="14.123421598943931"><ele>317.0</ele><time>2026-05-01T14:44:32Z</time></trkpt><trkpt lat="42.27601309479809" lon="14.123383084412888"><ele>317.0</ele><time>2026-05-01T14:44:33Z</time></trkpt><trkpt lat="42.27593208986141" lon="14.123360838335715"><ele>317.0</ele><time>2026-05-01T14:44:34Z</time></trkpt><trkpt lat="42.275835637122654" lon="14.12333667849922"><ele>317.0</ele><time>2026-05-01T14:44:35Z</time></trkpt><trkpt lat="42.27573935151696" lon="14.123304974401773"><ele>317.0</ele><time>2026-05-01T14:44:36Z</time></trkpt><trkpt lat="42.275645540170544" lon="14.123279555115026"><ele>317.0</ele><time>2026-05-01T14:44:37Z</time></trkpt><trkpt lat="42.2755606038928" lon="14.123233372430803"><ele>316.5</ele><time>2026-05-01T14:44:38Z</time></trkpt><trkpt lat="42.27548493294164" lon="14.123211799927565"><ele>316.0</ele><time>2026-05-01T14:44:39Z</time></trkpt><trkpt lat="42.27539522413057" lon="14.123206702472228"><ele>315.5</ele><time>2026-05-01T14:44:40Z</time></trkpt><trkpt lat="42.275308791307346" lon="14.123174006600639"><ele>315.0</ele><time>2026-05-01T14:44:41Z</time></trkpt><trkpt lat="42.275223769624404" lon="14.123157065781202"><ele>314.5</ele><time>2026-05-01T14:44:42Z</time></trkpt><trkpt lat="42.27514533139966" lon="14.123112598835105"><ele>314.0</ele><time>2026-05-01T14:44:43Z</time></trkpt><trkpt lat="42.275066002977304" lon="14.123113048521633"><ele>314.0</ele><time>2026-05-01T14:44:44Z</time></trkpt><trkpt lat="42.27498217198676" lon="14.123105363206346"><ele>314.0</ele><time>2026-05-01T14:44:45Z</time></trkpt><trkpt lat="42.27489118297163" lon="14.123090174317902"><ele>314.0</ele><time>2026-05-01T14:44:46Z</time></trkpt><trkpt lat="42.27480801232813" lon="14.123075608669284"><ele>314.0</ele><time>2026-05-01T14:44:47Z</time></trkpt><trkpt lat="42.27473977756897" lon="14.123087592372366"><ele>314.0</ele><time>2026-05-01T14:44:48Z</time></trkpt><trkpt lat="42.27461982654426" lon="14.123050651278282"><ele>315.2</ele><time>2026-05-01T14:44:50Z</time></trkpt><trkpt lat="42.274519532251645" lon="14.123025162595075"><ele>316.4</ele><time>2026-05-01T14:44:52Z</time></trkpt><trkpt lat="42.274416834050754" lon="14.122979907585389"><ele>317.6</ele><time>2026-05-01T14:44:54Z</time></trkpt><trkpt lat="42.274326279071296" lon="14.122921010075187"><ele>318.8</ele><time>2026-05-01T14:44:56Z</time></trkpt><trkpt lat="42.27422679288034" lon="14.122846184152666"><ele>320.0</ele><time>2026-05-01T14:44:58Z</time></trkpt><trkpt lat="42.27414211004843" lon="14.122782553636576"><ele>320.0</ele><time>2026-05-01T14:45:00Z</time></trkpt><trkpt lat="42.274070883755904" lon="14.122694343190336"><ele>320.0</ele><time>2026-05-01T14:45:02Z</time></trkpt><trkpt lat="42.27404173945777" lon="14.122596286552398"><ele>320.0</ele><time>2026-05-01T14:45:04Z</time></trkpt><trkpt lat="42.27398369784258" lon="14.122487236068784"><ele>320.0</ele><time>2026-05-01T14:45:06Z</time></trkpt><trkpt lat="42.27397983462538" lon="14.122398780546632"><ele>320.0</ele><time>2026-05-01T14:45:08Z</time></trkpt><trkpt lat="42.27390884886561" lon="14.122382467830413"><ele>320.0</ele><time>2026-05-01T14:49:10Z</time></trkpt><trkpt lat="42.273853025011476" lon="14.122320647146253"><ele>316.2</ele><time>2026-05-01T14:49:12Z</time></trkpt><trkpt lat="42.27378433424188" lon="14.122259186019505"><ele>312.4</ele><time>2026-05-01T14:49:14Z</time></trkpt><trkpt lat="42.273723047851504" lon="14.122189122542574"><ele>308.6</ele><time>2026-05-01T14:49:16Z</time></trkpt><trkpt lat="42.27367769904185" lon="14.122080140463037"><ele>304.8</ele><time>2026-05-01T14:49:18Z</time></trkpt><trkpt lat="42.273646775512226" lon="14.12191253273154"><ele>301.0</ele><time>2026-05-01T14:49:20Z</time></trkpt><trkpt lat="42.27365247028472" lon="14.121808213530542"><ele>301.0</ele><time>2026-05-01T14:49:21Z</time></trkpt><trkpt lat="42.273592546480096" lon="14.121655418420824"><ele>301.0</ele><time>2026-05-01T14:49:23Z</time></trkpt><trkpt lat="42.273544261107915" lon="14.121576219096186"><ele>301.0</ele><time>2026-05-01T14:49:24Z</time></trkpt><trkpt lat="42.27349146026724" lon="14.121515216941274"><ele>301.0</ele><time>2026-05-01T14:49:25Z</time></trkpt><trkpt lat="42.27342827935726" lon="14.121482335577896"><ele>301.0</ele><time>2026-05-01T14:49:26Z</time></trkpt><trkpt lat="42.273344319231725" lon="14.121404668975279"><ele>301.0</ele><time>2026-05-01T14:49:28Z</time></trkpt><trkpt lat="42.27327087208952" lon="14.121319033890506"><ele>300.40000000000003</ele><time>2026-05-01T14:49:30Z</time></trkpt><trkpt lat="42.27327553969862" lon="14.121233002499453"><ele>299.8</ele><time>2026-05-01T14:49:31Z</time></trkpt><trkpt lat="42.27323762318101" lon="14.12112442813568"><ele>299.20000000000005</ele><time>2026-05-01T14:49:33Z</time></trkpt><trkpt lat="42.27314320554188" lon="14.121010747190214"><ele>298.6</ele><time>2026-05-01T14:49:35Z</time></trkpt><trkpt lat="42.27308215873526" lon="14.120966182722917"><ele>298.0</ele><time>2026-05-01T14:49:36Z</time></trkpt><trkpt lat="42.27296214015187" lon="14.120903789743219"><ele>296.8</ele><time>2026-05-01T14:49:38Z</time></trkpt><trkpt lat="42.27290755534515" lon="14.120850407967396"><ele>295.6</ele><time>2026-05-01T14:49:39Z</time></trkpt><trkpt lat="42.272799260472915" lon="14.12079843418077"><ele>294.4</ele><time>2026-05-01T14:49:41Z</time></trkpt><trkpt lat="42.27269999416808" lon="14.120755887832969"><ele>293.2</ele><time>2026-05-01T14:49:43Z</time></trkpt><trkpt lat="42.272601170319575" lon="14.120669596016668"><ele>292.0</ele><time>2026-05-01T14:49:45Z</time></trkpt><trkpt lat="42.27250308006357" lon="14.12058535696347"><ele>289.75</ele><time>2026-05-01T14:49:47Z</time></trkpt><trkpt lat="42.272405207493144" lon="14.120498920776823"><ele>287.5</ele><time>2026-05-01T14:49:49Z</time></trkpt><trkpt lat="42.272304167310935" lon="14.120411709129277"><ele>285.25</ele><time>2026-05-01T14:49:51Z</time></trkpt><trkpt lat="42.272208898258945" lon="14.120330353678893"><ele>283.0</ele><time>2026-05-01T14:49:53Z</time></trkpt><trkpt lat="42.27211023998668" lon="14.120246103941216"><ele>282.5</ele><time>2026-05-01T14:49:55Z</time></trkpt><trkpt lat="42.27201314818246" lon="14.120165885582736"><ele>282.0</ele><time>2026-05-01T14:49:57Z</time></trkpt><trkpt lat="42.27190676415818" lon="14.120081945582818"><ele>281.5</ele><time>2026-05-01T14:49:59Z</time></trkpt><trkpt lat="42.2718058620327" lon="14.120022255255645"><ele>281.0</ele><time>2026-05-01T14:50:01Z</time></trkpt><trkpt lat="42.271708802693475" lon="14.119928637737736"><ele>280.40000000000003</ele><time>2026-05-01T14:50:03Z</time></trkpt><trkpt lat="42.27161644796694" lon="14.11985313557276"><ele>279.8</ele><time>2026-05-01T14:50:05Z</time></trkpt><trkpt lat="42.271529472155045" lon="14.119775273589765"><ele>279.20000000000005</ele><time>2026-05-01T14:50:07Z</time></trkpt><trkpt lat="42.27147685102757" lon="14.119690862873913"><ele>278.6</ele><time>2026-05-01T14:50:09Z</time></trkpt><trkpt lat="42.271436910940395" lon="14.119545952220083"><ele>278.0</ele><time>2026-05-01T14:50:11Z</time></trkpt><trkpt lat="42.27139603176633" lon="14.119462155371933"><ele>278.0</ele><time>2026-05-01T14:50:12Z</time></trkpt><trkpt lat="42.27137024827447" lon="14.119368586921798"><ele>278.0</ele><time>2026-05-01T14:50:13Z</time></trkpt><trkpt lat="42.271342420018186" lon="14.11927792748931"><ele>278.0</ele><time>2026-05-01T14:50:14Z</time></trkpt><trkpt lat="42.2713128694116" lon="14.119202711673067"><ele>278.0</ele><time>2026-05-01T14:50:15Z</time></trkpt><trkpt lat="42.27130080109899" lon="14.1191126060264"><ele>278.0</ele><time>2026-05-01T14:50:16Z</time></trkpt><trkpt lat="42.2712456780282" lon="14.118970204880126"><ele>278.0</ele><time>2026-05-01T14:50:18Z</time></trkpt><trkpt lat="42.271206258801435" lon="14.118877198619625"><ele>277.2</ele><time>2026-05-01T14:50:19Z</time></trkpt><trkpt lat="42.271139870887545" lon="14.118792859974718"><ele>276.4</ele><time>2026-05-01T14:50:20Z</time></trkpt><trkpt lat="42.27106954322629" lon="14.118750349987625"><ele>275.59999999999997</ele><time>2026-05-01T14:50:21Z</time></trkpt><trkpt lat="42.27100159118456" lon="14.118749878886543"><ele>274.8</ele><time>2026-05-01T14:50:22Z</time></trkpt><trkpt lat="42.270856295839025" lon="14.118737019105012"><ele>274.0</ele><time>2026-05-01T14:50:24Z</time></trkpt><trkpt lat="42.270759182841935" lon="14.118748445638984"><ele>274.0</ele><time>2026-05-01T14:50:25Z</time></trkpt><trkpt lat="42.27065435468869" lon="14.118711146934173"><ele>274.0</ele><time>2026-05-01T14:50:26Z</time></trkpt><trkpt lat="42.27055965296244" lon="14.11869660273267"><ele>274.0</ele><time>2026-05-01T14:50:27Z</time></trkpt><trkpt lat="42.27048199500852" lon="14.118707088977576"><ele>274.0</ele><time>2026-05-01T14:50:28Z</time></trkpt><trkpt lat="42.27040970680188" lon="14.11868895343525"><ele>274.0</ele><time>2026-05-01T14:50:29Z</time></trkpt><trkpt lat="42.27033833266127" lon="14.118651972883503"><ele>274.0</ele><time>2026-05-01T14:50:30Z</time></trkpt><trkpt lat="42.27025209893606" lon="14.11863715149718"><ele>275.59999999999997</ele><time>2026-05-01T14:50:31Z</time></trkpt><trkpt lat="42.270162559129744" lon="14.118582532975786"><ele>277.2</ele><time>2026-05-01T14:50:32Z</time></trkpt><trkpt lat="42.27006210215095" lon="14.11851439411811"><ele>278.79999999999995</ele><time>2026-05-01T14:50:33Z</time></trkpt><trkpt lat="42.2699463554081" lon="14.11846187430471"><ele>280.4</ele><time>2026-05-01T14:50:34Z</time></trkpt><trkpt lat="42.26987726927896" lon="14.118391223654207"><ele>282.0</ele><time>2026-05-01T14:50:35Z</time></trkpt><trkpt lat="42.26978199730475" lon="14.118318824914347"><ele>280.4</ele><time>2026-05-01T14:50:37Z</time></trkpt><trkpt lat="42.26969593290101" lon="14.118243321111729"><ele>278.79999999999995</ele><time>2026-05-01T14:50:39Z</time></trkpt><trkpt lat="42.2696122524301" lon="14.118176842949035"><ele>277.2</ele><time>2026-05-01T14:50:41Z</time></trkpt><trkpt lat="42.26955145974731" lon="14.118068183212863"><ele>275.59999999999997</ele><time>2026-05-01T14:50:43Z</time></trkpt><trkpt lat="42.269479826895825" lon="14.117941606968113"><ele>274.0</ele><time>2026-05-01T14:50:45Z</time></trkpt><trkpt lat="42.26944685200394" lon="14.117867876207299"><ele>273.0</ele><time>2026-05-01T14:50:46Z</time></trkpt><trkpt lat="42.269405280475226" lon="14.117718351653405"><ele>272.0</ele><time>2026-05-01T14:50:48Z</time></trkpt><trkpt lat="42.2693946541436" lon="14.117570546649588"><ele>271.0</ele><time>2026-05-01T14:50:50Z</time></trkpt><trkpt lat="42.26942931421176" lon="14.117422269327605"><ele>270.0</ele><time>2026-05-01T14:50:52Z</time></trkpt><trkpt lat="42.269456526283264" lon="14.117344779648871"><ele>269.0</ele><time>2026-05-01T14:50:53Z</time></trkpt><trkpt lat="42.26951070046145" lon="14.117192993540339"><ele>267.57142857142856</ele><time>2026-05-01T14:50:55Z</time></trkpt><trkpt lat="42.26957133531207" lon="14.117057623038114"><ele>266.14285714285717</ele><time>2026-05-01T14:50:57Z</time></trkpt><trkpt lat="42.26959287329355" lon="14.116975045846255"><ele>264.7142857142857</ele><time>2026-05-01T14:50:58Z</time></trkpt><trkpt lat="42.26959758446893" lon="14.11688343302734"><ele>263.2857142857143</ele><time>2026-05-01T14:50:59Z</time></trkpt><trkpt lat="42.269591048500025" lon="14.116794614884682"><ele>261.8571428571429</ele><time>2026-05-01T14:51:00Z</time></trkpt><trkpt lat="42.2696018150865" lon="14.11670935365193"><ele>260.42857142857144</ele><time>2026-05-01T14:51:01Z</time></trkpt><trkpt lat="42.26959996822704" lon="14.116623439390224"><ele>259.0</ele><time>2026-05-01T14:51:02Z</time></trkpt><trkpt lat="42.269598065919425" lon="14.116534945716609"><ele>258.0</ele><time>2026-05-01T14:51:03Z</time></trkpt><trkpt lat="42.26959588408012" lon="14.116433448611179"><ele>257.0</ele><time>2026-05-01T14:51:04Z</time></trkpt><trkpt lat="42.26957920819629" lon="14.116330776604842"><ele>256.0</ele><time>2026-05-01T14:51:05Z</time></trkpt><trkpt lat="42.269580537467995" lon="14.116227786446892"><ele>255.0</ele><time>2026-05-01T14:51:06Z</time></trkpt><trkpt lat="42.26957687418118" lon="14.116122411452881"><ele>253.99999999999997</ele><time>2026-05-01T14:51:07Z</time></trkpt><trkpt lat="42.269564419309816" lon="14.116023019999252"><ele>253.0</ele><time>2026-05-01T14:51:08Z</time></trkpt><trkpt lat="42.2695400721849" lon="14.115936126743364"><ele>253.00000000000003</ele><time>2026-05-01T14:51:09Z</time></trkpt><trkpt lat="42.26950935911802" lon="14.115858567369362"><ele>253.0</ele><time>2026-05-01T14:51:10Z</time></trkpt><trkpt lat="42.26948528341286" lon="14.115778432354809"><ele>253.00000000000003</ele><time>2026-05-01T14:51:11Z</time></trkpt><trkpt lat="42.26943271384902" lon="14.115716973086426"><ele>253.00000000000003</ele><time>2026-05-01T14:51:12Z</time></trkpt><trkpt lat="42.26935769681946" lon="14.115687517651608"><ele>253.0</ele><time>2026-05-01T14:51:13Z</time></trkpt><trkpt lat="42.26929328180073" lon="14.115616584597165"><ele>253.00000000000003</ele><time>2026-05-01T14:51:14Z</time></trkpt><trkpt lat="42.26923684780381" lon="14.115566871450534"><ele>253.00000000000003</ele><time>2026-05-01T14:51:15Z</time></trkpt><trkpt lat="42.26915429106225" lon="14.115471215600394"><ele>251.99999999999997</ele><time>2026-05-01T14:51:17Z</time></trkpt><trkpt lat="42.26909130153914" lon="14.115334293346974"><ele>251.0</ele><time>2026-05-01T14:51:19Z</time></trkpt><trkpt lat="42.26905412536874" lon="14.115244523201195"><ele>250.0</ele><time>2026-05-01T14:51:20Z</time></trkpt><trkpt lat="42.2690226800001" lon="14.115158247626436"><ele>249.0</ele><time>2026-05-01T14:51:21Z</time></trkpt><trkpt lat="42.26898066126788" lon="14.115072589403958"><ele>247.99999999999997</ele><time>2026-05-01T14:51:59Z</time></trkpt><trkpt lat="42.268948023667434" lon="14.114956559336925"><ele>247.0</ele><time>2026-05-01T14:52:02Z</time></trkpt><trkpt lat="42.26891056303908" lon="14.114873322726083"><ele>243.99999999999997</ele><time>2026-05-01T14:52:04Z</time></trkpt><trkpt lat="42.26889250441096" lon="14.114763520243617"><ele>241.0</ele><time>2026-05-01T14:52:06Z</time></trkpt><trkpt lat="42.268865829600976" lon="14.114671165456288"><ele>238.0</ele><time>2026-05-01T14:52:08Z</time></trkpt><trkpt lat="42.26884286363051" lon="14.114575623190841"><ele>235.0</ele><time>2026-05-01T14:52:10Z</time></trkpt><trkpt lat="42.268821758492436" lon="14.114459255931122"><ele>231.99999999999997</ele><time>2026-05-01T14:52:12Z</time></trkpt><trkpt lat="42.26880725577058" lon="14.114356108809819"><ele>229.0</ele><time>2026-05-01T14:52:14Z</time></trkpt><trkpt lat="42.268794720958915" lon="14.11426789924237"><ele>228.99999999999997</ele><time>2026-05-01T14:52:15Z</time></trkpt><trkpt lat="42.268773580392526" lon="14.11416836687785"><ele>229.0</ele><time>2026-05-01T14:52:16Z</time></trkpt><trkpt lat="42.26874321312367" lon="14.114077635321387"><ele>229.0</ele><time>2026-05-01T14:52:17Z</time></trkpt><trkpt lat="42.26870151822922" lon="14.114012005286122"><ele>229.0</ele><time>2026-05-01T14:52:18Z</time></trkpt><trkpt lat="42.26862850561322" lon="14.113867106781987"><ele>228.99999999999997</ele><time>2026-05-01T14:52:20Z</time></trkpt><trkpt lat="42.268554345703464" lon="14.113820971541704"><ele>229.0</ele><time>2026-05-01T14:52:21Z</time></trkpt><trkpt lat="42.268475966278885" lon="14.113761277757872"><ele>228.99999999999997</ele><time>2026-05-01T14:52:22Z</time></trkpt><trkpt lat="42.26838650730496" lon="14.113714641411995"><ele>229.0</ele><time>2026-05-01T14:52:23Z</time></trkpt><trkpt lat="42.26832029558651" lon="14.113661966234263"><ele>229.0</ele><time>2026-05-01T14:52:24Z</time></trkpt><trkpt lat="42.26826634672631" lon="14.113592518170936"><ele>229.0</ele><time>2026-05-01T14:52:25Z</time></trkpt><trkpt lat="42.26815836741651" lon="14.1135112572327"><ele>228.99999999999997</ele><time>2026-05-01T14:52:27Z</time></trkpt><trkpt lat="42.26809871288742" lon="14.113467876309558"><ele>229.0</ele><time>2026-05-01T14:52:28Z</time></trkpt><trkpt lat="42.26804109949367" lon="14.113405545347039"><ele>228.66666666666666</ele><time>2026-05-01T14:52:29Z</time></trkpt><trkpt lat="42.26797508488246" lon="14.113341618715848"><ele>228.33333333333331</ele><time>2026-05-01T14:52:30Z</time></trkpt><trkpt lat="42.267920491824924" lon="14.113246641842839"><ele>228.0</ele><time>2026-05-01T14:52:31Z</time></trkpt><trkpt lat="42.26788734833754" lon="14.113151246002012"><ele>227.66666666666669</ele><time>2026-05-01T14:52:32Z</time></trkpt><trkpt lat="42.26786027971311" lon="14.113064710462496"><ele>227.33333333333334</ele><time>2026-05-01T14:52:33Z</time></trkpt><trkpt lat="42.26782700208535" lon="14.112972156303679"><ele>227.0</ele><time>2026-05-01T14:52:34Z</time></trkpt><trkpt lat="42.26778879350498" lon="14.112884768435384"><ele>228.00000000000003</ele><time>2026-05-01T14:52:35Z</time></trkpt><trkpt lat="42.26774083481372" lon="14.112819883500412"><ele>229.0</ele><time>2026-05-01T14:52:36Z</time></trkpt><trkpt lat="42.267689459944656" lon="14.112761940164685"><ele>230.0</ele><time>2026-05-01T14:52:37Z</time></trkpt><trkpt lat="42.26763770805996" lon="14.112703383344535"><ele>231.0</ele><time>2026-05-01T14:52:38Z</time></trkpt><trkpt lat="42.267585922466246" lon="14.112636058039477"><ele>232.00000000000003</ele><time>2026-05-01T14:52:39Z</time></trkpt><trkpt lat="42.267537907153915" lon="14.112575188017454"><ele>233.0</ele><time>2026-05-01T14:52:40Z</time></trkpt><trkpt lat="42.267459557111174" lon="14.112458686913723"><ele>232.0</ele><time>2026-05-01T14:52:42Z</time></trkpt><trkpt lat="42.26739346862492" lon="14.11227123651439"><ele>231.0</ele><time>2026-05-01T14:52:44Z</time></trkpt><trkpt lat="42.26735467623742" lon="14.112096167960255"><ele>230.0</ele><time>2026-05-01T14:52:45Z</time></trkpt><trkpt lat="42.26732028452549" lon="14.111935836495702"><ele>229.0</ele><time>2026-05-01T14:52:46Z</time></trkpt><trkpt lat="42.267275486889574" lon="14.111808721992263"><ele>232.0</ele><time>2026-05-01T14:52:47Z</time></trkpt><trkpt lat="42.26723540030302" lon="14.111687194407764"><ele>234.99999999999997</ele><time>2026-05-01T14:52:48Z</time></trkpt><trkpt lat="42.26719501773262" lon="14.111551474326541"><ele>237.99999999999997</ele><time>2026-05-01T14:52:49Z</time></trkpt><trkpt lat="42.26715129032947" lon="14.111409032002443"><ele>241.0</ele><time>2026-05-01T14:52:50Z</time></trkpt><trkpt lat="42.26711370156891" lon="14.111274143480598"><ele>244.0</ele><time>2026-05-01T14:52:51Z</time></trkpt><trkpt lat="42.26707343790147" lon="14.111151098507623"><ele>243.99999999999997</ele><time>2026-05-01T14:52:52Z</time></trkpt><trkpt lat="42.267042982375756" lon="14.111015877608498"><ele>244.0</ele><time>2026-05-01T14:52:53Z</time></trkpt><trkpt lat="42.26700165959556" lon="14.110893226572639"><ele>244.0</ele><time>2026-05-01T14:52:54Z</time></trkpt><trkpt lat="42.26696665016544" lon="14.110789314509075"><ele>244.0</ele><time>2026-05-01T14:52:55Z</time></trkpt><trkpt lat="42.26693659613724" lon="14.110698342266181"><ele>243.99999999999997</ele><time>2026-05-01T14:52:56Z</time></trkpt><trkpt lat="42.26688893007649" lon="14.110600477456263"><ele>244.0</ele><time>2026-05-01T14:52:56.999Z</time></trkpt><trkpt lat="42.26686753204658" lon="14.11048832595177"><ele>244.49999999999997</ele><time>2026-05-01T14:52:57.999Z</time></trkpt><trkpt lat="42.266840663748404" lon="14.11035246676748"><ele>245.0</ele><time>2026-05-01T14:52:58.999Z</time></trkpt><trkpt lat="42.266833788743824" lon="14.110215432484555"><ele>245.5</ele><time>2026-05-01T14:52:59.999Z</time></trkpt><trkpt lat="42.26682347916508" lon="14.110108626779583"><ele>246.0</ele><time>2026-05-01T14:53:00.999Z</time></trkpt><trkpt lat="42.26679282093816" lon="14.110014026722894"><ele>246.49999999999997</ele><time>2026-05-01T14:53:01.999Z</time></trkpt><trkpt lat="42.266772393846956" lon="14.109901740691251"><ele>247.0</ele><time>2026-05-01T14:53:02.999Z</time></trkpt><trkpt lat="42.266744721919274" lon="14.109741841828578"><ele>248.66666666666666</ele><time>2026-05-01T14:53:04.999Z</time></trkpt><trkpt lat="42.26671869451598" lon="14.109658827491236"><ele>250.33333333333331</ele><time>2026-05-01T14:53:05.999Z</time></trkpt><trkpt lat="42.26668441072416" lon="14.109568239482687"><ele>252.0</ele><time>2026-05-01T14:53:06.999Z</time></trkpt><trkpt lat="42.26663696059199" lon="14.109458002917671"><ele>253.66666666666669</ele><time>2026-05-01T14:53:08Z</time></trkpt><trkpt lat="42.2665693201884" lon="14.109335459370065"><ele>255.33333333333334</ele><time>2026-05-01T14:53:09Z</time></trkpt><trkpt lat="42.26651814675272" lon="14.109261084294157"><ele>257.0</ele><time>2026-05-01T14:53:10Z</time></trkpt><trkpt lat="42.266477981415186" lon="14.109187248327924"><ele>256.1666666666667</ele><time>2026-05-01T14:53:11Z</time></trkpt><trkpt lat="42.266437542436655" lon="14.10909817043948"><ele>255.33333333333334</ele><time>2026-05-01T14:53:12Z</time></trkpt><trkpt lat="42.26639165412693" lon="14.109029668094085"><ele>254.5</ele><time>2026-05-01T14:53:13Z</time></trkpt><trkpt lat="42.26634778929756" lon="14.108954350901387"><ele>253.66666666666669</ele><time>2026-05-01T14:53:14Z</time></trkpt><trkpt lat="42.26630548491613" lon="14.108879038756388"><ele>252.83333333333334</ele><time>2026-05-01T14:53:15Z</time></trkpt><trkpt lat="42.266249791916785" lon="14.108793448002181"><ele>252.0</ele><time>2026-05-01T14:53:16Z</time></trkpt><trkpt lat="42.26620331309514" lon="14.108688875782272"><ele>255.0</ele><time>2026-05-01T14:53:17Z</time></trkpt><trkpt lat="42.26614250480211" lon="14.108587168190224"><ele>258.0</ele><time>2026-05-01T14:53:18Z</time></trkpt><trkpt lat="42.266080013640966" lon="14.108482645863107"><ele>261.0</ele><time>2026-05-01T14:53:19Z</time></trkpt><trkpt lat="42.26602165966295" lon="14.108385043430756"><ele>264.0</ele><time>2026-05-01T14:53:20Z</time></trkpt><trkpt lat="42.26596437030688" lon="14.108289221630796"><ele>267.0</ele><time>2026-05-01T14:53:21Z</time></trkpt><trkpt lat="42.265917548616144" lon="14.108210907870662"><ele>267.3333333333333</ele><time>2026-05-01T14:53:22Z</time></trkpt><trkpt lat="42.26586652603766" lon="14.108122439120956"><ele>267.6666666666667</ele><time>2026-05-01T14:53:23Z</time></trkpt><trkpt lat="42.26580868066387" lon="14.108048784944382"><ele>268.0</ele><time>2026-05-01T14:53:24Z</time></trkpt><trkpt lat="42.26577192736944" lon="14.10793845350043"><ele>268.33333333333337</ele><time>2026-05-01T14:53:25Z</time></trkpt><trkpt lat="42.26571501267809" lon="14.107834475578851"><ele>268.6666666666667</ele><time>2026-05-01T14:53:26Z</time></trkpt><trkpt lat="42.265682477261706" lon="14.107726850634817"><ele>269.0</ele><time>2026-05-01T14:53:27Z</time></trkpt><trkpt lat="42.265651419493736" lon="14.107601948115372"><ele>269.1666666666667</ele><time>2026-05-01T14:53:28Z</time></trkpt><trkpt lat="42.265605963276904" lon="14.107516952263621"><ele>269.33333333333337</ele><time>2026-05-01T14:53:29Z</time></trkpt><trkpt lat="42.265539640798" lon="14.107402301151259"><ele>269.5</ele><time>2026-05-01T14:53:30Z</time></trkpt><trkpt lat="42.265481292344106" lon="14.107295052892631"><ele>269.6666666666667</ele><time>2026-05-01T14:53:31Z</time></trkpt><trkpt lat="42.2654471851591" lon="14.107219684816231"><ele>269.8333333333333</ele><time>2026-05-01T14:53:32Z</time></trkpt><trkpt lat="42.265403767532106" lon="14.10710822839906"><ele>270.0</ele><time>2026-05-01T14:53:34Z</time></trkpt><trkpt lat="42.26535608274386" lon="14.106997310326111"><ele>270.0</ele><time>2026-05-01T14:53:47Z</time></trkpt><trkpt lat="42.26541957457104" lon="14.106877219572217"><ele>270.0</ele><time>2026-05-01T14:53:52Z</time></trkpt><trkpt lat="42.26546133016934" lon="14.10678509891366"><ele>270.0</ele><time>2026-05-01T14:53:55Z</time></trkpt><trkpt lat="42.26549898621857" lon="14.106712260078089"><ele>270.0</ele><time>2026-05-01T14:53:57Z</time></trkpt><trkpt lat="42.26555129410376" lon="14.106600468437016"><ele>270.0</ele><time>2026-05-01T14:54:00Z</time></trkpt><trkpt lat="42.265592023997606" lon="14.106524126178883"><ele>270.0</ele><time>2026-05-01T14:54:02Z</time></trkpt><trkpt lat="42.26564514078507" lon="14.106468755521849"><ele>265.8333333333333</ele><time>2026-05-01T14:54:04Z</time></trkpt><trkpt lat="42.26570923047588" lon="14.106425268770089"><ele>261.6666666666667</ele><time>2026-05-01T14:54:07Z</time></trkpt><trkpt lat="42.265779022427616" lon="14.106380594533869"><ele>257.5</ele><time>2026-05-01T14:54:10Z</time></trkpt><trkpt lat="42.26585169050158" lon="14.106333473972805"><ele>253.33333333333334</ele><time>2026-05-01T14:54:13Z</time></trkpt><trkpt lat="42.26591704024692" lon="14.10628284142036"><ele>249.16666666666669</ele><time>2026-05-01T14:54:16Z</time></trkpt><trkpt lat="42.26598508815138" lon="14.106213263038367"><ele>245.0</ele><time>2026-05-01T14:54:19Z</time></trkpt><trkpt lat="42.26603076987472" lon="14.106153594850214"><ele>245.00000000000003</ele><time>2026-05-01T14:54:21Z</time></trkpt><trkpt lat="42.266077557860875" lon="14.106073366555606"><ele>245.0</ele><time>2026-05-01T14:54:23.999Z</time></trkpt><trkpt lat="42.26612013620838" lon="14.105983973153823"><ele>245.0</ele><time>2026-05-01T14:54:27.999Z</time></trkpt><trkpt lat="42.26615202892764" lon="14.105904454661172"><ele>245.0</ele><time>2026-05-01T14:54:35.999Z</time></trkpt><trkpt lat="42.26617851496556" lon="14.10579742833017"><ele>245.00000000000003</ele><time>2026-05-01T14:54:50.999Z</time></trkpt><trkpt lat="42.26620378951783" lon="14.105684057718868"><ele>245.0</ele><time>2026-05-01T14:54:53.999Z</time></trkpt><trkpt lat="42.26622879602606" lon="14.105566453349397"><ele>241.16666666666669</ele><time>2026-05-01T14:54:56.999Z</time></trkpt><trkpt lat="42.26624249528491" lon="14.105482741606217"><ele>237.33333333333334</ele><time>2026-05-01T14:54:58.999Z</time></trkpt><trkpt lat="42.26626566479802" lon="14.105394726417138"><ele>233.5</ele><time>2026-05-01T14:55:01.999Z</time></trkpt><trkpt lat="42.266295329130855" lon="14.105286307724533"><ele>229.66666666666669</ele><time>2026-05-01T14:55:04.999Z</time></trkpt><trkpt lat="42.266325873783856" lon="14.105173002786783"><ele>225.83333333333334</ele><time>2026-05-01T14:55:07.999Z</time></trkpt><trkpt lat="42.2663592225914" lon="14.1050813428506"><ele>222.0</ele><time>2026-05-01T14:55:09.999Z</time></trkpt><trkpt lat="42.26640807316805" lon="14.104994384437935"><ele>222.39999999999998</ele><time>2026-05-01T14:55:11.999Z</time></trkpt><trkpt lat="42.266477821588474" lon="14.104920141364563"><ele>222.79999999999998</ele><time>2026-05-01T14:55:13.999Z</time></trkpt><trkpt lat="42.26654278046917" lon="14.104865319985787"><ele>223.2</ele><time>2026-05-01T14:55:15.999Z</time></trkpt><trkpt lat="42.26662761693956" lon="14.104798194581855"><ele>223.6</ele><time>2026-05-01T14:55:17.999Z</time></trkpt><trkpt lat="42.2667289863208" lon="14.104749691121711"><ele>224.0</ele><time>2026-05-01T14:55:19.999Z</time></trkpt><trkpt lat="42.26682943490692" lon="14.104734284522731"><ele>221.0</ele><time>2026-05-01T14:55:21.999Z</time></trkpt><trkpt lat="42.26694527971826" lon="14.1047275281662"><ele>217.99999999999997</ele><time>2026-05-01T14:55:23.999Z</time></trkpt><trkpt lat="42.267067249641514" lon="14.104704483804255"><ele>215.0</ele><time>2026-05-01T14:55:25.999Z</time></trkpt><trkpt lat="42.267132159917814" lon="14.104690980634906"><ele>212.0</ele><time>2026-05-01T14:55:26.999Z</time></trkpt><trkpt lat="42.267209644614056" lon="14.104672342024536"><ele>209.0</ele><time>2026-05-01T14:55:27.999Z</time></trkpt><trkpt lat="42.267288607376614" lon="14.104654233604736"><ele>209.00000000000003</ele><time>2026-05-01T14:55:28.999Z</time></trkpt><trkpt lat="42.26736457704931" lon="14.104630035385895"><ele>209.0</ele><time>2026-05-01T14:55:29.999Z</time></trkpt><trkpt lat="42.267431207324464" lon="14.104609239867111"><ele>209.0</ele><time>2026-05-01T14:55:30.999Z</time></trkpt><trkpt lat="42.26749978847706" lon="14.104593379861466"><ele>209.0</ele><time>2026-05-01T14:55:31.999Z</time></trkpt><trkpt lat="42.26757450797021" lon="14.10458579356374"><ele>209.00000000000003</ele><time>2026-05-01T14:55:32.999Z</time></trkpt><trkpt lat="42.267653002539454" lon="14.104578579531966"><ele>209.0</ele><time>2026-05-01T14:55:33.999Z</time></trkpt><trkpt lat="42.26774024952425" lon="14.104567430809043"><ele>209.0</ele><time>2026-05-01T14:55:34.999Z</time></trkpt><trkpt lat="42.26782620898596" lon="14.104557859258136"><ele>209.0</ele><time>2026-05-01T14:55:35.999Z</time></trkpt><trkpt lat="42.26792719492486" lon="14.104543532810654"><ele>209.0</ele><time>2026-05-01T14:55:36.999Z</time></trkpt><trkpt lat="42.268027993997514" lon="14.10452808611833"><ele>209.0</ele><time>2026-05-01T14:55:37.999Z</time></trkpt><trkpt lat="42.26812534330693" lon="14.10450689041561"><ele>209.0</ele><time>2026-05-01T14:55:38.999Z</time></trkpt><trkpt lat="42.268234180869925" lon="14.104479966779445"><ele>210.0</ele><time>2026-05-01T14:55:39.999Z</time></trkpt><trkpt lat="42.26834184758275" lon="14.104445201610575"><ele>211.0</ele><time>2026-05-01T14:55:40.999Z</time></trkpt><trkpt lat="42.26842196252205" lon="14.104418997969777"><ele>211.99999999999997</ele><time>2026-05-01T14:55:41.999Z</time></trkpt><trkpt lat="42.26848705371818" lon="14.104398740995926"><ele>213.0</ele><time>2026-05-01T14:55:42.999Z</time></trkpt><trkpt lat="42.26859713498968" lon="14.104384225381377"><ele>214.0</ele><time>2026-05-01T14:55:44.999Z</time></trkpt><trkpt lat="42.26871021811995" lon="14.10440202444596"><ele>213.99999999999997</ele><time>2026-05-01T14:55:46.999Z</time></trkpt><trkpt lat="42.268834480068286" lon="14.104433754112069"><ele>214.0</ele><time>2026-05-01T14:55:48.999Z</time></trkpt><trkpt lat="42.26890150951334" lon="14.104448775566047"><ele>214.0</ele><time>2026-05-01T14:55:49.999Z</time></trkpt><trkpt lat="42.268977838525046" lon="14.104472745040296"><ele>214.0</ele><time>2026-05-01T14:55:50.999Z</time></trkpt><trkpt lat="42.26905612824565" lon="14.104491806478626"><ele>213.99999999999997</ele><time>2026-05-01T14:55:51.999Z</time></trkpt><trkpt lat="42.26913923478635" lon="14.10451732242938"><ele>214.0</ele><time>2026-05-01T14:55:52.999Z</time></trkpt><trkpt lat="42.269213913508246" lon="14.104529690974525"><ele>213.83333333333331</ele><time>2026-05-01T14:55:53.999Z</time></trkpt><trkpt lat="42.26932936411095" lon="14.104589126294046"><ele>213.66666666666666</ele><time>2026-05-01T14:55:55.999Z</time></trkpt><trkpt lat="42.269391483444856" lon="14.1046178928752"><ele>213.5</ele><time>2026-05-01T14:55:56.999Z</time></trkpt><trkpt lat="42.269458462143035" lon="14.104633066336977"><ele>213.33333333333331</ele><time>2026-05-01T14:55:57.999Z</time></trkpt><trkpt lat="42.26952357927894" lon="14.104631271550648"><ele>213.16666666666666</ele><time>2026-05-01T14:55:58.999Z</time></trkpt><trkpt lat="42.26958855628965" lon="14.104621899287254"><ele>213.0</ele><time>2026-05-01T14:55:59.999Z</time></trkpt><trkpt lat="42.269690935289354" lon="14.10458470703974"><ele>214.0</ele><time>2026-05-01T14:56:01.999Z</time></trkpt><trkpt lat="42.26979579914642" lon="14.104575724024093"><ele>215.0</ele><time>2026-05-01T14:56:03.999Z</time></trkpt><trkpt lat="42.26987937758899" lon="14.104578495351562"><ele>216.0</ele><time>2026-05-01T14:56:05.999Z</time></trkpt><trkpt lat="42.269983893845186" lon="14.104586334460294"><ele>217.0</ele><time>2026-05-01T14:56:07.999Z</time></trkpt><trkpt lat="42.2700667186471" lon="14.104598430834216"><ele>218.0</ele><time>2026-05-01T14:56:09.999Z</time></trkpt><trkpt lat="42.27016765907465" lon="14.104608903723948"><ele>218.0</ele><time>2026-05-01T14:56:11.999Z</time></trkpt><trkpt lat="42.270255873599226" lon="14.104618806808135"><ele>218.0</ele><time>2026-05-01T14:56:13.999Z</time></trkpt><trkpt lat="42.27035811473875" lon="14.104621292385984"><ele>218.0</ele><time>2026-05-01T14:56:15.999Z</time></trkpt><trkpt lat="42.27047511148227" lon="14.104613604729197"><ele>218.0</ele><time>2026-05-01T14:56:17.999Z</time></trkpt><trkpt lat="42.270573492857814" lon="14.10460701516345"><ele>218.0</ele><time>2026-05-01T14:56:19.999Z</time></trkpt><trkpt lat="42.27063737869798" lon="14.104600190633985"><ele>217.60000000000002</ele><time>2026-05-01T14:56:21.999Z</time></trkpt><trkpt lat="42.27076111112686" lon="14.104571782756228"><ele>217.20000000000002</ele><time>2026-05-01T14:56:23.999Z</time></trkpt><trkpt lat="42.270861784390036" lon="14.104559374311597"><ele>216.8</ele><time>2026-05-01T14:56:25.999Z</time></trkpt><trkpt lat="42.270943679147265" lon="14.104545817837161"><ele>216.4</ele><time>2026-05-01T14:56:27.999Z</time></trkpt><trkpt lat="42.2710213284537" lon="14.104549874565244"><ele>216.0</ele><time>2026-05-01T14:56:29.999Z</time></trkpt><trkpt lat="42.271113093839816" lon="14.104487713560802"><ele>216.0</ele><time>2026-05-01T14:56:40.999Z</time></trkpt><trkpt lat="42.27117787590648" lon="14.104468139778481"><ele>216.0</ele><time>2026-05-01T14:56:41.999Z</time></trkpt><trkpt lat="42.271253915025255" lon="14.104452537542517"><ele>216.0</ele><time>2026-05-01T14:56:42.999Z</time></trkpt><trkpt lat="42.27132960754051" lon="14.104444877908044"><ele>216.0</ele><time>2026-05-01T14:56:43.999Z</time></trkpt><trkpt lat="42.27140007957597" lon="14.104438572854209"><ele>216.0</ele><time>2026-05-01T14:56:44.999Z</time></trkpt><trkpt lat="42.27146473242949" lon="14.104434698940477"><ele>216.0</ele><time>2026-05-01T14:56:45.999Z</time></trkpt><trkpt lat="42.27158604009159" lon="14.104443484098073"><ele>214.83333333333334</ele><time>2026-05-01T14:56:47.999Z</time></trkpt><trkpt lat="42.27164918371313" lon="14.104415183403905"><ele>213.66666666666669</ele><time>2026-05-01T14:56:48.999Z</time></trkpt><trkpt lat="42.271708049532975" lon="14.104361894049797"><ele>212.5</ele><time>2026-05-01T14:56:49.999Z</time></trkpt><trkpt lat="42.27176874859359" lon="14.104296148058053"><ele>211.33333333333334</ele><time>2026-05-01T14:56:50.999Z</time></trkpt><trkpt lat="42.27182893360468" lon="14.104230480010756"><ele>210.16666666666669</ele><time>2026-05-01T14:56:51.999Z</time></trkpt><trkpt lat="42.271917884719905" lon="14.104135954580899"><ele>209.0</ele><time>2026-05-01T14:56:53.999Z</time></trkpt><trkpt lat="42.2719623883316" lon="14.104072698214559"><ele>206.66666666666669</ele><time>2026-05-01T14:56:54.999Z</time></trkpt><trkpt lat="42.2720053912034" lon="14.103988278427849"><ele>204.33333333333334</ele><time>2026-05-01T14:56:55.999Z</time></trkpt><trkpt lat="42.27205029847493" lon="14.103891113047268"><ele>202.0</ele><time>2026-05-01T14:56:56.999Z</time></trkpt><trkpt lat="42.272086101814494" lon="14.10378835951572"><ele>199.66666666666669</ele><time>2026-05-01T14:56:57.999Z</time></trkpt><trkpt lat="42.27210191297179" lon="14.103689492019996"><ele>197.33333333333334</ele><time>2026-05-01T14:56:58.999Z</time></trkpt><trkpt lat="42.2721366817634" lon="14.103602992288376"><ele>195.0</ele><time>2026-05-01T14:56:59.999Z</time></trkpt><trkpt lat="42.27214427890424" lon="14.103509250657089"><ele>195.0</ele><time>2026-05-01T14:57:00.999Z</time></trkpt><trkpt lat="42.27217129897895" lon="14.103402851030596"><ele>195.0</ele><time>2026-05-01T14:57:01.999Z</time></trkpt><trkpt lat="42.27219078314263" lon="14.10328528078549"><ele>195.0</ele><time>2026-05-01T14:57:02.999Z</time></trkpt><trkpt lat="42.27219992002421" lon="14.103153520053986"><ele>195.0</ele><time>2026-05-01T14:57:03.999Z</time></trkpt><trkpt lat="42.272220354315166" lon="14.103022797488691"><ele>195.0</ele><time>2026-05-01T14:57:04.999Z</time></trkpt><trkpt lat="42.27220646095084" lon="14.10290861875101"><ele>193.16666666666666</ele><time>2026-05-01T14:57:05.999Z</time></trkpt><trkpt lat="42.27223915388631" lon="14.102821916884936"><ele>191.33333333333334</ele><time>2026-05-01T14:57:06.999Z</time></trkpt><trkpt lat="42.27226354365678" lon="14.10273788114715"><ele>189.5</ele><time>2026-05-01T14:57:07.999Z</time></trkpt><trkpt lat="42.27231490906833" lon="14.102686759815011"><ele>187.66666666666669</ele><time>2026-05-01T14:57:08.999Z</time></trkpt><trkpt lat="42.27237440709596" lon="14.102632302604325"><ele>185.83333333333334</ele><time>2026-05-01T14:57:09.999Z</time></trkpt><trkpt lat="42.27244722933771" lon="14.102548136325881"><ele>184.0</ele><time>2026-05-01T14:57:10.999Z</time></trkpt><trkpt lat="42.27253961025529" lon="14.102484471664017"><ele>185.33333333333334</ele><time>2026-05-01T14:57:11.999Z</time></trkpt><trkpt lat="42.2726144980827" lon="14.102421167558111"><ele>186.66666666666669</ele><time>2026-05-01T14:57:12.999Z</time></trkpt><trkpt lat="42.27268203948485" lon="14.102354296156845"><ele>188.0</ele><time>2026-05-01T14:57:13.999Z</time></trkpt><trkpt lat="42.27273547579487" lon="14.10228718909667"><ele>189.33333333333334</ele><time>2026-05-01T14:57:14.999Z</time></trkpt><trkpt lat="42.27278269998365" lon="14.10220901178782"><ele>190.66666666666666</ele><time>2026-05-01T14:57:15.999Z</time></trkpt><trkpt lat="42.272827934900064" lon="14.102114683567184"><ele>192.0</ele><time>2026-05-01T14:57:16.999Z</time></trkpt><trkpt lat="42.272859580958546" lon="14.101995754001278"><ele>192.0</ele><time>2026-05-01T14:57:17.999Z</time></trkpt><trkpt lat="42.27290043729183" lon="14.101876408186767"><ele>192.0</ele><time>2026-05-01T14:57:18.999Z</time></trkpt><trkpt lat="42.27294079792939" lon="14.101758363891227"><ele>192.0</ele><time>2026-05-01T14:57:19.999Z</time></trkpt><trkpt lat="42.2729869885964" lon="14.101651349797462"><ele>192.0</ele><time>2026-05-01T14:57:20.999Z</time></trkpt><trkpt lat="42.273030296618344" lon="14.101552834119305"><ele>192.0</ele><time>2026-05-01T14:57:21.999Z</time></trkpt><trkpt lat="42.27309519447705" lon="14.101481903538595"><ele>191.8</ele><time>2026-05-01T14:57:22.999Z</time></trkpt><trkpt lat="42.273175771930305" lon="14.101440266855251"><ele>191.6</ele><time>2026-05-01T14:57:23.999Z</time></trkpt><trkpt lat="42.27326171054715" lon="14.101430501545792"><ele>191.4</ele><time>2026-05-01T14:57:24.999Z</time></trkpt><trkpt lat="42.27333945976926" lon="14.101478991391676"><ele>191.20000000000002</ele><time>2026-05-01T14:57:25.999Z</time></trkpt><trkpt lat="42.27343150466536" lon="14.101490615227123"><ele>191.0</ele><time>2026-05-01T14:57:26.999Z</time></trkpt><trkpt lat="42.273532470600884" lon="14.10153102950583"><ele>191.0</ele><time>2026-05-01T14:57:27.999Z</time></trkpt><trkpt lat="42.273636539388455" lon="14.101573951475196"><ele>191.0</ele><time>2026-05-01T14:57:28.999Z</time></trkpt><trkpt lat="42.27373574049272" lon="14.101617160341464"><ele>191.0</ele><time>2026-05-01T14:57:29.999Z</time></trkpt><trkpt lat="42.27382904102482" lon="14.10166286818778"><ele>191.0</ele><time>2026-05-01T14:57:30.999Z</time></trkpt><trkpt lat="42.2739231110678" lon="14.101701262507"><ele>191.0</ele><time>2026-05-01T14:57:31.999Z</time></trkpt><trkpt lat="42.27402379691195" lon="14.101738101221546"><ele>189.8</ele><time>2026-05-01T14:57:32.999Z</time></trkpt><trkpt lat="42.27413608925644" lon="14.101775432292895"><ele>188.60000000000002</ele><time>2026-05-01T14:57:33.999Z</time></trkpt><trkpt lat="42.27422507224046" lon="14.10179810408031"><ele>187.4</ele><time>2026-05-01T14:57:34.999Z</time></trkpt><trkpt lat="42.27433795453602" lon="14.101796244473057"><ele>186.2</ele><time>2026-05-01T14:57:35.999Z</time></trkpt><trkpt lat="42.27444526535417" lon="14.101768802124397"><ele>185.0</ele><time>2026-05-01T14:57:36.999Z</time></trkpt><trkpt lat="42.27454948307334" lon="14.101717872427239"><ele>185.0</ele><time>2026-05-01T14:57:37.999Z</time></trkpt><trkpt lat="42.27463634281133" lon="14.10165281486025"><ele>185.0</ele><time>2026-05-01T14:57:38.999Z</time></trkpt><trkpt lat="42.27473059145305" lon="14.10155829053292"><ele>185.0</ele><time>2026-05-01T14:57:39.999Z</time></trkpt><trkpt lat="42.27483874241974" lon="14.10141693169306"><ele>185.0</ele><time>2026-05-01T14:57:40.999Z</time></trkpt><trkpt lat="42.27490945489085" lon="14.10127905783586"><ele>183.5</ele><time>2026-05-01T14:57:41.999Z</time></trkpt><trkpt lat="42.2749610184829" lon="14.101155004081047"><ele>182.0</ele><time>2026-05-01T14:57:42.999Z</time></trkpt><trkpt lat="42.27500308481491" lon="14.101004706110828"><ele>180.5</ele><time>2026-05-01T14:57:43.999Z</time></trkpt><trkpt lat="42.275055346817666" lon="14.100826290734304"><ele>179.0</ele><time>2026-05-01T14:57:44.999Z</time></trkpt><trkpt lat="42.2751135027272" lon="14.100674911728955"><ele>177.75</ele><time>2026-05-01T14:57:45.999Z</time></trkpt><trkpt lat="42.27517311867529" lon="14.100528797547511"><ele>176.5</ele><time>2026-05-01T14:57:46.999Z</time></trkpt><trkpt lat="42.275232773779166" lon="14.100378456435303"><ele>175.25</ele><time>2026-05-01T14:57:47.999Z</time></trkpt><trkpt lat="42.275299025078986" lon="14.100216247426317"><ele>174.0</ele><time>2026-05-01T14:57:48.999Z</time></trkpt><trkpt lat="42.27537165135876" lon="14.100047649765058"><ele>174.25</ele><time>2026-05-01T14:57:49.999Z</time></trkpt><trkpt lat="42.2754410671696" lon="14.099875735336411"><ele>174.5</ele><time>2026-05-01T14:57:50.999Z</time></trkpt><trkpt lat="42.275494368813334" lon="14.099709299928817"><ele>174.75</ele><time>2026-05-01T14:57:51.999Z</time></trkpt><trkpt lat="42.27552634260613" lon="14.099525172736957"><ele>175.0</ele><time>2026-05-01T14:57:52.999Z</time></trkpt><trkpt lat="42.275526736879584" lon="14.099326581564796"><ele>175.0</ele><time>2026-05-01T14:57:53.999Z</time></trkpt><trkpt lat="42.27548803667855" lon="14.099117927764148"><ele>175.0</ele><time>2026-05-01T14:57:54.999Z</time></trkpt><trkpt lat="42.27544170658308" lon="14.098914292242958"><ele>175.0</ele><time>2026-05-01T14:57:55.999Z</time></trkpt><trkpt lat="42.27540216294791" lon="14.09873811046726"><ele>176.25</ele><time>2026-05-01T14:57:56.999Z</time></trkpt><trkpt lat="42.27537462272394" lon="14.09857969517628"><ele>177.5</ele><time>2026-05-01T14:57:57.999Z</time></trkpt><trkpt lat="42.27535317852898" lon="14.098416470148438"><ele>178.75</ele><time>2026-05-01T14:57:58.999Z</time></trkpt><trkpt lat="42.275334689351126" lon="14.098251670609312"><ele>180.0</ele><time>2026-05-01T14:57:59.999Z</time></trkpt><trkpt lat="42.27532330255155" lon="14.098101778711227"><ele>180.0</ele><time>2026-05-01T14:58:00.999Z</time></trkpt><trkpt lat="42.27531112902849" lon="14.097958681299769"><ele>180.0</ele><time>2026-05-01T14:58:01.999Z</time></trkpt><trkpt lat="42.27530683094162" lon="14.097789864596555"><ele>180.0</ele><time>2026-05-01T14:58:02.999Z</time></trkpt><trkpt lat="42.27531628774741" lon="14.097610610982285"><ele>180.0</ele><time>2026-05-01T14:58:03.999Z</time></trkpt><trkpt lat="42.27533089797025" lon="14.09743041881343"><ele>178.75</ele><time>2026-05-01T14:58:04.999Z</time></trkpt><trkpt lat="42.27535177573921" lon="14.097245544889653"><ele>177.5</ele><time>2026-05-01T14:58:05.999Z</time></trkpt><trkpt lat="42.27536767057821" lon="14.097078383786544"><ele>176.25</ele><time>2026-05-01T14:58:06.999Z</time></trkpt><trkpt lat="42.275390370548244" lon="14.09692092176224"><ele>175.0</ele><time>2026-05-01T14:58:07.999Z</time></trkpt><trkpt lat="42.275404699702406" lon="14.096761036491172"><ele>175.0</ele><time>2026-05-01T14:58:08.999Z</time></trkpt><trkpt lat="42.27541935719819" lon="14.09659506966944"><ele>175.0</ele><time>2026-05-01T14:58:09.999Z</time></trkpt><trkpt lat="42.275441282920994" lon="14.096424274612808"><ele>175.0</ele><time>2026-05-01T14:58:10.999Z</time></trkpt><trkpt lat="42.27545867470666" lon="14.096256317427088"><ele>175.0</ele><time>2026-05-01T14:58:11.999Z</time></trkpt><trkpt lat="42.27549406562115" lon="14.096090677001621"><ele>173.25</ele><time>2026-05-01T14:58:12.999Z</time></trkpt><trkpt lat="42.27552069133572" lon="14.095924525818367"><ele>171.5</ele><time>2026-05-01T14:58:13.999Z</time></trkpt><trkpt lat="42.27554078762653" lon="14.095760383540386"><ele>169.75</ele><time>2026-05-01T14:58:14.999Z</time></trkpt><trkpt lat="42.27559424653645" lon="14.095622096328455"><ele>168.0</ele><time>2026-05-01T14:58:15.999Z</time></trkpt><trkpt lat="42.27559377477651" lon="14.095481770082065"><ele>167.4</ele><time>2026-05-01T14:58:16.999Z</time></trkpt><trkpt lat="42.27559530912001" lon="14.095363953021872"><ele>166.8</ele><time>2026-05-01T14:58:17.999Z</time></trkpt><trkpt lat="42.27559812436853" lon="14.095265876261294"><ele>166.2</ele><time>2026-05-01T14:58:18.999Z</time></trkpt><trkpt lat="42.27565895861443" lon="14.095137836240061"><ele>165.6</ele><time>2026-05-01T14:58:20.999Z</time></trkpt><trkpt lat="42.27575360113621" lon="14.095125294263774"><ele>165.0</ele><time>2026-05-01T14:58:21.999Z</time></trkpt><trkpt lat="42.27585630285875" lon="14.095055109971428"><ele>165.0</ele><time>2026-05-01T14:58:22.999Z</time></trkpt><trkpt lat="42.27598336084467" lon="14.094998258180969"><ele>165.0</ele><time>2026-05-01T14:58:23.999Z</time></trkpt><trkpt lat="42.27611540527711" lon="14.094928182813405"><ele>165.0</ele><time>2026-05-01T14:58:24.999Z</time></trkpt><trkpt lat="42.27624174231625" lon="14.094853313152319"><ele>165.0</ele><time>2026-05-01T14:58:25.999Z</time></trkpt><trkpt lat="42.27636505640568" lon="14.094779282975495"><ele>162.25</ele><time>2026-05-01T14:58:26.999Z</time></trkpt><trkpt lat="42.276488763713054" lon="14.094708221650553"><ele>159.5</ele><time>2026-05-01T14:58:27.999Z</time></trkpt><trkpt lat="42.27660184717099" lon="14.09463434103252"><ele>156.75</ele><time>2026-05-01T14:58:28.999Z</time></trkpt><trkpt lat="42.27670135505597" lon="14.094538895653843"><ele>154.0</ele><time>2026-05-01T14:58:29.999Z</time></trkpt><trkpt lat="42.27678971698986" lon="14.094419580054137"><ele>154.0</ele><time>2026-05-01T14:58:30.999Z</time></trkpt><trkpt lat="42.27685776890129" lon="14.094269030211665"><ele>154.0</ele><time>2026-05-01T14:58:31.999Z</time></trkpt><trkpt lat="42.276896162291656" lon="14.094091844622614"><ele>154.0</ele><time>2026-05-01T14:58:32.999Z</time></trkpt><trkpt lat="42.27691931332953" lon="14.093901867131095"><ele>154.0</ele><time>2026-05-01T14:58:33.999Z</time></trkpt><trkpt lat="42.27695336933979" lon="14.09369195095333"><ele>151.75</ele><time>2026-05-01T14:58:34.999Z</time></trkpt><trkpt lat="42.276993470979434" lon="14.093496422171306"><ele>149.5</ele><time>2026-05-01T14:58:35.999Z</time></trkpt><trkpt lat="42.27702858908259" lon="14.093322003646067"><ele>147.25</ele><time>2026-05-01T14:58:36.999Z</time></trkpt><trkpt lat="42.27706281339431" lon="14.093147339964762"><ele>145.0</ele><time>2026-05-01T14:58:37.999Z</time></trkpt><trkpt lat="42.27709380072036" lon="14.092985070419868"><ele>142.75</ele><time>2026-05-01T14:58:38.999Z</time></trkpt><trkpt lat="42.27711932065349" lon="14.09283401350683"><ele>140.5</ele><time>2026-05-01T14:58:39.999Z</time></trkpt><trkpt lat="42.27713423632845" lon="14.09268969663021"><ele>138.25</ele><time>2026-05-01T14:58:40.999Z</time></trkpt><trkpt lat="42.27713832470363" lon="14.092536100645184"><ele>136.0</ele><time>2026-05-01T14:58:41.999Z</time></trkpt><trkpt lat="42.27715549214759" lon="14.092368005180752"><ele>133.75</ele><time>2026-05-01T14:58:42.999Z</time></trkpt><trkpt lat="42.27715739307185" lon="14.092189538805343"><ele>131.5</ele><time>2026-05-01T14:58:43.999Z</time></trkpt><trkpt lat="42.27715926031141" lon="14.092014234356784"><ele>129.25</ele><time>2026-05-01T14:58:44.999Z</time></trkpt><trkpt lat="42.27716106412839" lon="14.091844884574634"><ele>127.0</ele><time>2026-05-01T14:58:45.999Z</time></trkpt><trkpt lat="42.27716698998724" lon="14.091682620621482"><ele>128.2</ele><time>2026-05-01T14:58:46.999Z</time></trkpt><trkpt lat="42.27718403340663" lon="14.091523404571443"><ele>129.39999999999998</ele><time>2026-05-01T14:58:47.999Z</time></trkpt><trkpt lat="42.277211315428545" lon="14.091367567697626"><ele>130.60000000000002</ele><time>2026-05-01T14:58:48.999Z</time></trkpt><trkpt lat="42.27725340339271" lon="14.091229938987532"><ele>131.8</ele><time>2026-05-01T14:58:49.999Z</time></trkpt><trkpt lat="42.27730179248993" lon="14.091124211796622"><ele>133.0</ele><time>2026-05-01T14:58:50.999Z</time></trkpt><trkpt lat="42.277345663655694" lon="14.091046524266742"><ele>133.0</ele><time>2026-05-01T14:58:51.999Z</time></trkpt><trkpt lat="42.2774157538516" lon="14.09099634190878"><ele>133.0</ele><time>2026-05-01T14:58:52.999Z</time></trkpt><trkpt lat="42.277507425859035" lon="14.09103459977916"><ele>133.0</ele><time>2026-05-01T14:58:53.999Z</time></trkpt><trkpt lat="42.27760044692528" lon="14.091090674152866"><ele>133.0</ele><time>2026-05-01T14:58:54.999Z</time></trkpt><trkpt lat="42.277722084058354" lon="14.091151228233272"><ele>133.0</ele><time>2026-05-01T14:58:55.999Z</time></trkpt><trkpt lat="42.277816406923925" lon="14.09124143199851"><ele>133.0</ele><time>2026-05-01T14:58:56.999Z</time></trkpt><trkpt lat="42.277898713385724" lon="14.091272375170622"><ele>133.0</ele><time>2026-05-01T14:58:57.999Z</time></trkpt><trkpt lat="42.27797223428188" lon="14.091266068103058"><ele>133.0</ele><time>2026-05-01T14:58:58.999Z</time></trkpt><trkpt lat="42.2780335250335" lon="14.09122501593613"><ele>133.0</ele><time>2026-05-01T14:58:59.999Z</time></trkpt><trkpt lat="42.27806722596725" lon="14.091127795898066"><ele>133.0</ele><time>2026-05-01T14:59:00.999Z</time></trkpt><trkpt lat="42.27806187380055" lon="14.091008283658656"><ele>133.0</ele><time>2026-05-01T14:59:01.999Z</time></trkpt><trkpt lat="42.27803831054097" lon="14.090884401674105"><ele>133.0</ele><time>2026-05-01T14:59:02.999Z</time></trkpt><trkpt lat="42.27803594413925" lon="14.090762485139754"><ele>133.0</ele><time>2026-05-01T14:59:03.999Z</time></trkpt><trkpt lat="42.27802511457371" lon="14.09066818384984"><ele>133.0</ele><time>2026-05-01T14:59:04.999Z</time></trkpt><trkpt lat="42.2780058590985" lon="14.090573892898435"><ele>133.0</ele><time>2026-05-01T14:59:06.999Z</time></trkpt><trkpt lat="42.27806053540532" lon="14.090638324036027"><ele>133.0</ele><time>2026-05-01T14:59:09.999Z</time></trkpt><trkpt lat="42.27813180535678" lon="14.090758236150863"><ele>133.0</ele><time>2026-05-01T14:59:11.999Z</time></trkpt><trkpt lat="42.27817063181212" lon="14.090891357209609"><ele>130.4</ele><time>2026-05-01T14:59:12.999Z</time></trkpt><trkpt lat="42.278220277559136" lon="14.091010338001857"><ele>127.80000000000001</ele><time>2026-05-01T14:59:13.999Z</time></trkpt><trkpt lat="42.27827131387097" lon="14.09112274807786"><ele>125.2</ele><time>2026-05-01T14:59:14.999Z</time></trkpt><trkpt lat="42.278306631393754" lon="14.091235617045724"><ele>122.6</ele><time>2026-05-01T14:59:15.999Z</time></trkpt><trkpt lat="42.278336351589054" lon="14.09135682815357"><ele>120.0</ele><time>2026-05-01T14:59:16.999Z</time></trkpt><trkpt lat="42.27837296207647" lon="14.091506937798718"><ele>121.0</ele><time>2026-05-01T14:59:17.999Z</time></trkpt><trkpt lat="42.27841505671954" lon="14.091687498231133"><ele>122.0</ele><time>2026-05-01T14:59:18.999Z</time></trkpt><trkpt lat="42.27844523069422" lon="14.091856503022964"><ele>123.0</ele><time>2026-05-01T14:59:19.999Z</time></trkpt><trkpt lat="42.27847631274622" lon="14.092035723527747"><ele>124.0</ele><time>2026-05-01T14:59:20.999Z</time></trkpt><trkpt lat="42.27848682112001" lon="14.092202351648718"><ele>124.0</ele><time>2026-05-01T14:59:21.999Z</time></trkpt><trkpt lat="42.2785203079562" lon="14.092348892109001"><ele>124.0</ele><time>2026-05-01T14:59:22.999Z</time></trkpt><trkpt lat="42.278536393583984" lon="14.092507963455683"><ele>124.0</ele><time>2026-05-01T14:59:23.999Z</time></trkpt><trkpt lat="42.27855620020373" lon="14.09266464466527"><ele>124.0</ele><time>2026-05-01T14:59:24.999Z</time></trkpt><trkpt lat="42.278588126357356" lon="14.092802278680063"><ele>124.2</ele><time>2026-05-01T14:59:25.999Z</time></trkpt><trkpt lat="42.278638638626624" lon="14.092923604790808"><ele>124.4</ele><time>2026-05-01T14:59:26.999Z</time></trkpt><trkpt lat="42.27870800594621" lon="14.093050933016151"><ele>124.6</ele><time>2026-05-01T14:59:27.999Z</time></trkpt><trkpt lat="42.27879147756642" lon="14.093157802743951"><ele>124.8</ele><time>2026-05-01T14:59:28.999Z</time></trkpt><trkpt lat="42.278886997817864" lon="14.093228127982961"><ele>125.0</ele><time>2026-05-01T14:59:29.999Z</time></trkpt><trkpt lat="42.27899201648483" lon="14.093237139588828"><ele>122.0</ele><time>2026-05-01T14:59:30.999Z</time></trkpt><trkpt lat="42.27909522686441" lon="14.093189045641603"><ele>119.0</ele><time>2026-05-01T14:59:31.999Z</time></trkpt><trkpt lat="42.27920854835863" lon="14.093152556757786"><ele>116.0</ele><time>2026-05-01T14:59:32.999Z</time></trkpt><trkpt lat="42.279316909884486" lon="14.093140906279773"><ele>113.0</ele><time>2026-05-01T14:59:33.999Z</time></trkpt><trkpt lat="42.27941702676291" lon="14.093162447173874"><ele>110.0</ele><time>2026-05-01T14:59:34.999Z</time></trkpt><trkpt lat="42.2794928182888" lon="14.09324345173593"><ele>111.5</ele><time>2026-05-01T14:59:35.999Z</time></trkpt><trkpt lat="42.27957260462198" lon="14.093340407072082"><ele>113.0</ele><time>2026-05-01T14:59:36.999Z</time></trkpt><trkpt lat="42.279661809298595" lon="14.093462367333803"><ele>114.5</ele><time>2026-05-01T14:59:37.999Z</time></trkpt><trkpt lat="42.279760038792304" lon="14.09357861027444"><ele>116.0</ele><time>2026-05-01T14:59:38.999Z</time></trkpt><trkpt lat="42.279854118649496" lon="14.093693783379244"><ele>113.0</ele><time>2026-05-01T14:59:39.999Z</time></trkpt><trkpt lat="42.27994719322806" lon="14.093794704452815"><ele>110.0</ele><time>2026-05-01T14:59:40.999Z</time></trkpt><trkpt lat="42.280034309956044" lon="14.093872934619327"><ele>107.0</ele><time>2026-05-01T14:59:41.999Z</time></trkpt><trkpt lat="42.28010143066229" lon="14.093946460867338"><ele>104.0</ele><time>2026-05-01T14:59:42.999Z</time></trkpt><trkpt lat="42.2801355101107" lon="14.094043064003"><ele>101.0</ele><time>2026-05-01T14:59:43.999Z</time></trkpt><trkpt lat="42.28012194706875" lon="14.09417471914371"><ele>100.75</ele><time>2026-05-01T14:59:44.999Z</time></trkpt><trkpt lat="42.280127828909976" lon="14.094347460578067"><ele>100.5</ele><time>2026-05-01T14:59:45.999Z</time></trkpt><trkpt lat="42.28014660594702" lon="14.094544903280351"><ele>100.25</ele><time>2026-05-01T14:59:46.999Z</time></trkpt><trkpt lat="42.2801430672672" lon="14.094730505080793"><ele>100.0</ele><time>2026-05-01T14:59:47.999Z</time></trkpt><trkpt lat="42.280155426915805" lon="14.094903396831116"><ele>99.5</ele><time>2026-05-01T14:59:48.999Z</time></trkpt><trkpt lat="42.28016907699173" lon="14.09507794092443"><ele>99.0</ele><time>2026-05-01T14:59:49.999Z</time></trkpt><trkpt lat="42.2801849042004" lon="14.095266289492375"><ele>98.5</ele><time>2026-05-01T14:59:50.999Z</time></trkpt><trkpt lat="42.280198965744425" lon="14.095469621715583"><ele>98.0</ele><time>2026-05-01T14:59:51.999Z</time></trkpt><trkpt lat="42.2802110974423" lon="14.095681897473337"><ele>98.66666666666666</ele><time>2026-05-01T14:59:52.999Z</time></trkpt><trkpt lat="42.280226449786596" lon="14.095901663677022"><ele>99.33333333333334</ele><time>2026-05-01T14:59:53.999Z</time></trkpt><trkpt lat="42.28025191867172" lon="14.096118347455633"><ele>100.0</ele><time>2026-05-01T14:59:54.999Z</time></trkpt><trkpt lat="42.280287166727646" lon="14.096330599899291"><ele>100.0</ele><time>2026-05-01T14:59:55.999Z</time></trkpt><trkpt lat="42.28032880774963" lon="14.096518068191093"><ele>100.0</ele><time>2026-05-01T14:59:56.999Z</time></trkpt><trkpt lat="42.280373202437396" lon="14.096682276100514"><ele>100.0</ele><time>2026-05-01T14:59:57.999Z</time></trkpt><trkpt lat="42.28041218524924" lon="14.096846291711774"><ele>100.0</ele><time>2026-05-01T14:59:58.999Z</time></trkpt><trkpt lat="42.28042085196124" lon="14.097008837552398"><ele>100.75</ele><time>2026-05-01T14:59:59.999Z</time></trkpt><trkpt lat="42.28043102196211" lon="14.09717992653413"><ele>101.5</ele><time>2026-05-01T15:00:00.999Z</time></trkpt><trkpt lat="42.28045513324526" lon="14.097368303304297"><ele>102.25</ele><time>2026-05-01T15:00:01.999Z</time></trkpt><trkpt lat="42.28046290099307" lon="14.097562747883327"><ele>103.0</ele><time>2026-05-01T15:00:02.999Z</time></trkpt><trkpt lat="42.280494514509876" lon="14.097764415947442"><ele>103.0</ele><time>2026-05-01T15:00:03.999Z</time></trkpt><trkpt lat="42.280533796360714" lon="14.09796429272052"><ele>103.0</ele><time>2026-05-01T15:00:04.999Z</time></trkpt><trkpt lat="42.28057202418853" lon="14.09816142462326"><ele>103.0</ele><time>2026-05-01T15:00:05.999Z</time></trkpt><trkpt lat="42.28060907849956" lon="14.098351484642919"><ele>103.0</ele><time>2026-05-01T15:00:06.999Z</time></trkpt><trkpt lat="42.2806480940409" lon="14.09853095932771"><ele>104.75</ele><time>2026-05-01T15:00:07.999Z</time></trkpt><trkpt lat="42.28068414302135" lon="14.09871367697964"><ele>106.5</ele><time>2026-05-01T15:00:08.999Z</time></trkpt><trkpt lat="42.28071858563635" lon="14.098886167588972"><ele>108.25</ele><time>2026-05-01T15:00:09.999Z</time></trkpt><trkpt lat="42.28075304633554" lon="14.099056664549853"><ele>110.0</ele><time>2026-05-01T15:00:10.999Z</time></trkpt><trkpt lat="42.28078961406321" lon="14.099216231003407"><ele>111.75</ele><time>2026-05-01T15:00:11.999Z</time></trkpt><trkpt lat="42.280825897655504" lon="14.099372526613696"><ele>113.5</ele><time>2026-05-01T15:00:12.999Z</time></trkpt><trkpt lat="42.280864548452804" lon="14.099526903645568"><ele>115.25</ele><time>2026-05-01T15:00:13.999Z</time></trkpt><trkpt lat="42.280900716748654" lon="14.099677547306253"><ele>117.0</ele><time>2026-05-01T15:00:14.999Z</time></trkpt><trkpt lat="42.2809340549391" lon="14.099823692666597"><ele>118.39999999999999</ele><time>2026-05-01T15:00:15.999Z</time></trkpt><trkpt lat="42.28096758911934" lon="14.099958421965344"><ele>119.79999999999998</ele><time>2026-05-01T15:00:16.999Z</time></trkpt><trkpt lat="42.28098080060365" lon="14.100061385421697"><ele>121.2</ele><time>2026-05-01T15:00:17.999Z</time></trkpt><trkpt lat="42.28099947022535" lon="14.10020424411663"><ele>122.6</ele><time>2026-05-01T15:00:19.999Z</time></trkpt><trkpt lat="42.28101757884501" lon="14.100372875679215"><ele>124.0</ele><time>2026-05-01T15:00:21.999Z</time></trkpt><trkpt lat="42.28102826186135" lon="14.10045682256954"><ele>124.0</ele><time>2026-05-01T15:00:22.999Z</time></trkpt><trkpt lat="42.28103717843996" lon="14.100577563628704"><ele>124.0</ele><time>2026-05-01T15:00:24.999Z</time></trkpt><trkpt lat="42.28103561454109" lon="14.100688565081553"><ele>124.0</ele><time>2026-05-01T15:00:26.999Z</time></trkpt><trkpt lat="42.28103154120752" lon="14.100814599403673"><ele>124.0</ele><time>2026-05-01T15:00:28.999Z</time></trkpt><trkpt lat="42.281041013249805" lon="14.10093123302766"><ele>124.0</ele><time>2026-05-01T15:00:30.999Z</time></trkpt><trkpt lat="42.2815350808352" lon="14.101080207306357"><ele>124.00000000000001</ele><time>2026-05-01T15:00:32.999Z</time></trkpt><trkpt lat="42.281601120502316" lon="14.101222212756191"><ele>124.0</ele><time>2026-05-01T15:00:34.999Z</time></trkpt><trkpt lat="42.28163511683551" lon="14.101306705967158"><ele>124.0</ele><time>2026-05-01T15:00:35.999Z</time></trkpt><trkpt lat="42.28166783068605" lon="14.101380889964362"><ele>124.0</ele><time>2026-05-01T15:00:36.999Z</time></trkpt><trkpt lat="42.28173508872664" lon="14.101511121513454"><ele>124.00000000000001</ele><time>2026-05-01T15:00:38.999Z</time></trkpt><trkpt lat="42.28177253678512" lon="14.10158899493882"><ele>124.0</ele><time>2026-05-01T15:00:39.999Z</time></trkpt><trkpt lat="42.281810138294475" lon="14.101666609787921"><ele>125.28571428571429</ele><time>2026-05-01T15:00:40.999Z</time></trkpt><trkpt lat="42.28184807848763" lon="14.101748712400031"><ele>126.57142857142858</ele><time>2026-05-01T15:00:41.999Z</time></trkpt><trkpt lat="42.28188438768604" lon="14.10183463681948"><ele>127.85714285714286</ele><time>2026-05-01T15:00:42.999Z</time></trkpt><trkpt lat="42.28192111673102" lon="14.101921576811861"><ele>129.14285714285714</ele><time>2026-05-01T15:00:43.999Z</time></trkpt><trkpt lat="42.281959428185594" lon="14.102005500375448"><ele>130.42857142857144</ele><time>2026-05-01T15:00:44.999Z</time></trkpt><trkpt lat="42.28199928357335" lon="14.102094651168002"><ele>131.71428571428572</ele><time>2026-05-01T15:00:45.999Z</time></trkpt><trkpt lat="42.28202620715856" lon="14.10217547170793"><ele>133.0</ele><time>2026-05-01T15:00:46.999Z</time></trkpt><trkpt lat="42.282064643447214" lon="14.102255216907574"><ele>133.0</ele><time>2026-05-01T15:00:47.999Z</time></trkpt><trkpt lat="42.28210370337804" lon="14.102343593665346"><ele>133.0</ele><time>2026-05-01T15:00:48.999Z</time></trkpt><trkpt lat="42.282140303416924" lon="14.102425604345596"><ele>133.0</ele><time>2026-05-01T15:00:49.999Z</time></trkpt><trkpt lat="42.28217788258543" lon="14.102506423261154"><ele>133.0</ele><time>2026-05-01T15:00:50.999Z</time></trkpt><trkpt lat="42.28221163544555" lon="14.102585785085758"><ele>133.0</ele><time>2026-05-01T15:00:51.999Z</time></trkpt><trkpt lat="42.28224242126303" lon="14.102660257877037"><ele>133.0</ele><time>2026-05-01T15:00:52.999Z</time></trkpt><trkpt lat="42.282280896393424" lon="14.102754847260888"><ele>133.0</ele><time>2026-05-01T15:00:53.999Z</time></trkpt><trkpt lat="42.282328894848625" lon="14.102854316614378"><ele>132.33333333333334</ele><time>2026-05-01T15:00:54.999Z</time></trkpt><trkpt lat="42.28237581793167" lon="14.102960446247886"><ele>131.66666666666669</ele><time>2026-05-01T15:00:55.999Z</time></trkpt><trkpt lat="42.28241895753014" lon="14.103061882225466"><ele>131.0</ele><time>2026-05-01T15:00:56.999Z</time></trkpt><trkpt lat="42.282461421352046" lon="14.10316239897775"><ele>130.33333333333334</ele><time>2026-05-01T15:00:57.999Z</time></trkpt><trkpt lat="42.28250349483448" lon="14.103267604556807"><ele>129.66666666666666</ele><time>2026-05-01T15:00:58.999Z</time></trkpt><trkpt lat="42.28255390581624" lon="14.10337365606492"><ele>129.0</ele><time>2026-05-01T15:00:59.999Z</time></trkpt><trkpt lat="42.28259603361185" lon="14.103486088626404"><ele>129.0</ele><time>2026-05-01T15:01:00.999Z</time></trkpt><trkpt lat="42.28263070695513" lon="14.103583708633579"><ele>129.0</ele><time>2026-05-01T15:01:01.999Z</time></trkpt><trkpt lat="42.282669465491196" lon="14.103678430226998"><ele>129.0</ele><time>2026-05-01T15:01:02.999Z</time></trkpt><trkpt lat="42.28271018862781" lon="14.103780492540594"><ele>129.0</ele><time>2026-05-01T15:01:03.999Z</time></trkpt><trkpt lat="42.28275202600488" lon="14.103882827464044"><ele>129.0</ele><time>2026-05-01T15:01:04.999Z</time></trkpt><trkpt lat="42.282781260212744" lon="14.10396712599311"><ele>129.0</ele><time>2026-05-01T15:01:05.999Z</time></trkpt><trkpt lat="42.28281623883066" lon="14.104042921861344"><ele>130.16666666666666</ele><time>2026-05-01T15:01:06.999Z</time></trkpt><trkpt lat="42.28286717670283" lon="14.104176439080524"><ele>131.33333333333334</ele><time>2026-05-01T15:01:08.999Z</time></trkpt><trkpt lat="42.282889659118126" lon="14.10425770807927"><ele>132.5</ele><time>2026-05-01T15:01:09.999Z</time></trkpt><trkpt lat="42.28291706574484" lon="14.104347612503826"><ele>133.66666666666669</ele><time>2026-05-01T15:01:10.999Z</time></trkpt><trkpt lat="42.282948389552026" lon="14.10443787633556"><ele>134.83333333333334</ele><time>2026-05-01T15:01:11.999Z</time></trkpt><trkpt lat="42.28297853759599" lon="14.104523127151475"><ele>136.0</ele><time>2026-05-01T15:01:12.999Z</time></trkpt><trkpt lat="42.28300894541751" lon="14.10461878643222"><ele>136.0</ele><time>2026-05-01T15:01:13.999Z</time></trkpt><trkpt lat="42.283038001107606" lon="14.104707191378136"><ele>136.0</ele><time>2026-05-01T15:01:14.999Z</time></trkpt><trkpt lat="42.283097447458786" lon="14.104844341017232"><ele>136.0</ele><time>2026-05-01T15:01:16.999Z</time></trkpt><trkpt lat="42.2831220477397" lon="14.104923070739623"><ele>136.0</ele><time>2026-05-01T15:01:17.999Z</time></trkpt><trkpt lat="42.28315110439883" lon="14.105016646347853"><ele>136.0</ele><time>2026-05-01T15:01:18.999Z</time></trkpt><trkpt lat="42.28319467525845" lon="14.105106148161594"><ele>136.0</ele><time>2026-05-01T15:01:19.999Z</time></trkpt><trkpt lat="42.28324025492363" lon="14.105210310827115"><ele>134.66666666666669</ele><time>2026-05-01T15:01:20.999Z</time></trkpt><trkpt lat="42.283276217459075" lon="14.105315550772088"><ele>133.33333333333334</ele><time>2026-05-01T15:01:21.999Z</time></trkpt><trkpt lat="42.28330555295801" lon="14.105407768250178"><ele>132.0</ele><time>2026-05-01T15:01:22.999Z</time></trkpt><trkpt lat="42.28335616822559" lon="14.105545307516387"><ele>130.66666666666666</ele><time>2026-05-01T15:01:24.999Z</time></trkpt><trkpt lat="42.28338524356586" lon="14.105639520505623"><ele>129.33333333333331</ele><time>2026-05-01T15:01:25.999Z</time></trkpt><trkpt lat="42.28341743716593" lon="14.105734784792768"><ele>128.0</ele><time>2026-05-01T15:01:26.999Z</time></trkpt><trkpt lat="42.2834513400816" lon="14.105832305208859"><ele>128.0</ele><time>2026-05-01T15:01:27.999Z</time></trkpt><trkpt lat="42.28347715596634" lon="14.105910530717154"><ele>127.99999999999999</ele><time>2026-05-01T15:01:28.999Z</time></trkpt><trkpt lat="42.283507395674434" lon="14.105991047775671"><ele>128.0</ele><time>2026-05-01T15:01:29.999Z</time></trkpt><trkpt lat="42.28354486495624" lon="14.106081383870986"><ele>128.0</ele><time>2026-05-01T15:01:30.999Z</time></trkpt><trkpt lat="42.28358207140268" lon="14.106167440625725"><ele>127.99999999999999</ele><time>2026-05-01T15:01:31.999Z</time></trkpt><trkpt lat="42.28361085756713" lon="14.106247160218407"><ele>128.0</ele><time>2026-05-01T15:01:32.999Z</time></trkpt><trkpt lat="42.28364037317688" lon="14.10633517435325"><ele>128.0</ele><time>2026-05-01T15:01:33.999Z</time></trkpt><trkpt lat="42.28366995826143" lon="14.106433873836494"><ele>127.99999999999999</ele><time>2026-05-01T15:01:34.999Z</time></trkpt><trkpt lat="42.28370096783101" lon="14.106535407919331"><ele>128.0</ele><time>2026-05-01T15:01:35.999Z</time></trkpt><trkpt lat="42.28374100702258" lon="14.106645927587396"><ele>128.0</ele><time>2026-05-01T15:01:36.999Z</time></trkpt><trkpt lat="42.283780476633126" lon="14.106762201095018"><ele>128.0</ele><time>2026-05-01T15:01:37.999Z</time></trkpt><trkpt lat="42.283812335590206" lon="14.106864492257355"><ele>127.99999999999999</ele><time>2026-05-01T15:01:38.999Z</time></trkpt><trkpt lat="42.28384202334513" lon="14.106959406628164"><ele>128.0</ele><time>2026-05-01T15:01:39.999Z</time></trkpt><trkpt lat="42.28387091844363" lon="14.10704391954525"><ele>128.16666666666666</ele><time>2026-05-01T15:01:40.999Z</time></trkpt><trkpt lat="42.283898433253576" lon="14.107125901072392"><ele>128.33333333333331</ele><time>2026-05-01T15:01:41.999Z</time></trkpt><trkpt lat="42.28392509902455" lon="14.107208487837786"><ele>128.5</ele><time>2026-05-01T15:01:42.999Z</time></trkpt><trkpt lat="42.28395359822207" lon="14.107297011924237"><ele>128.66666666666666</ele><time>2026-05-01T15:01:43.999Z</time></trkpt><trkpt lat="42.283978530522646" lon="14.1073837101066"><ele>128.83333333333334</ele><time>2026-05-01T15:01:44.999Z</time></trkpt><trkpt lat="42.28400303044743" lon="14.107463664474633"><ele>129.0</ele><time>2026-05-01T15:01:45.999Z</time></trkpt><trkpt lat="42.28405169560934" lon="14.10761073923719"><ele>129.0</ele><time>2026-05-01T15:01:47.999Z</time></trkpt><trkpt lat="42.28407358204" lon="14.107693476703488"><ele>129.0</ele><time>2026-05-01T15:01:48.999Z</time></trkpt><trkpt lat="42.28411934071642" lon="14.107864653804068"><ele>129.0</ele><time>2026-05-01T15:01:50.999Z</time></trkpt><trkpt lat="42.28415093477711" lon="14.10796220230455"><ele>129.0</ele><time>2026-05-01T15:01:51.999Z</time></trkpt><trkpt lat="42.28418148852014" lon="14.108043843917164"><ele>129.0</ele><time>2026-05-01T15:01:52.999Z</time></trkpt><trkpt lat="42.28421087645283" lon="14.108119343175211"><ele>129.0</ele><time>2026-05-01T15:01:53.999Z</time></trkpt><trkpt lat="42.28425369521336" lon="14.108239605005492"><ele>129.5</ele><time>2026-05-01T15:01:55.999Z</time></trkpt><trkpt lat="42.28428732152865" lon="14.108358673649871"><ele>130.0</ele><time>2026-05-01T15:01:57.999Z</time></trkpt><trkpt lat="42.2843136484212" lon="14.108442400754539"><ele>130.5</ele><time>2026-05-01T15:01:59.999Z</time></trkpt><trkpt lat="42.28434169874248" lon="14.108520772020452"><ele>131.0</ele><time>2026-05-01T15:02:18.999Z</time></trkpt><trkpt lat="42.284380370788675" lon="14.108612771216036"><ele>131.5</ele><time>2026-05-01T15:02:23.999Z</time></trkpt><trkpt lat="42.28441238511048" lon="14.108709120591572"><ele>132.0</ele><time>2026-05-01T15:02:28Z</time></trkpt><trkpt lat="42.2844392077325" lon="14.108800778106158"><ele>132.0</ele><time>2026-05-01T15:02:32Z</time></trkpt><trkpt lat="42.28447024171446" lon="14.10888440062642"><ele>132.0</ele><time>2026-05-01T15:07:39Z</time></trkpt><trkpt lat="42.284506471989" lon="14.108961623588698"><ele>132.0</ele><time>2026-05-01T15:07:51.999Z</time></trkpt><trkpt lat="42.28447024171446" lon="14.10888440062642"><ele>132.0</ele><time>2026-05-01T15:07:39Z</time></trkpt><trkpt lat="42.284506471989" lon="14.108961623588698"><ele>132.0</ele><time>2026-05-01T15:07:51.999Z</time></trkpt><trkpt lat="42.28453678100799" lon="14.109048517917763"><ele>132.0</ele><time>2026-05-01T15:07:55.999Z</time></trkpt><trkpt lat="42.284557428296665" lon="14.10914311657465"><ele>132.0</ele><time>2026-05-01T15:07:58.999Z</time></trkpt><trkpt lat="42.28461293138568" lon="14.10923918407259"><ele>132.83333333333334</ele><time>2026-05-01T15:08:01.999Z</time></trkpt><trkpt lat="42.28463305778275" lon="14.109327731426866"><ele>133.66666666666666</ele><time>2026-05-01T15:08:04.999Z</time></trkpt><trkpt lat="42.284671363570375" lon="14.109445067213866"><ele>134.5</ele><time>2026-05-01T15:08:06.999Z</time></trkpt><trkpt lat="42.28470356840059" lon="14.109537709629578"><ele>135.33333333333331</ele><time>2026-05-01T15:08:08.999Z</time></trkpt><trkpt lat="42.284747858707824" lon="14.109631200083742"><ele>136.16666666666666</ele><time>2026-05-01T15:08:10.999Z</time></trkpt><trkpt lat="42.28479644088" lon="14.109751077791712"><ele>137.0</ele><time>2026-05-01T15:08:12.999Z</time></trkpt><trkpt lat="42.2848682125044" lon="14.109931764535018"><ele>135.33333333333331</ele><time>2026-05-01T15:08:14.999Z</time></trkpt><trkpt lat="42.284902374645476" lon="14.110030268747463"><ele>133.66666666666666</ele><time>2026-05-01T15:08:15.999Z</time></trkpt><trkpt lat="42.284929747712766" lon="14.110108010545137"><ele>132.0</ele><time>2026-05-01T15:08:16.999Z</time></trkpt><trkpt lat="42.284970074501246" lon="14.110234710407514"><ele>130.33333333333334</ele><time>2026-05-01T15:08:18.999Z</time></trkpt><trkpt lat="42.284993358697704" lon="14.110315984451185"><ele>128.66666666666669</ele><time>2026-05-01T15:08:19.999Z</time></trkpt><trkpt lat="42.28501754455664" lon="14.110395046609298"><ele>127.0</ele><time>2026-05-01T15:08:20.999Z</time></trkpt><trkpt lat="42.28505881314584" lon="14.11052063093808"><ele>127.00000000000001</ele><time>2026-05-01T15:08:22.999Z</time></trkpt><trkpt lat="42.28509731060873" lon="14.110664751037637"><ele>127.0</ele><time>2026-05-01T15:08:24.999Z</time></trkpt><trkpt lat="42.285121902343874" lon="14.110752723242136"><ele>127.0</ele><time>2026-05-01T15:08:25.999Z</time></trkpt><trkpt lat="42.285148844176994" lon="14.11084893602366"><ele>127.0</ele><time>2026-05-01T15:08:26.999Z</time></trkpt><trkpt lat="42.285173081502" lon="14.110943464531527"><ele>127.00000000000001</ele><time>2026-05-01T15:08:27.999Z</time></trkpt><trkpt lat="42.28520010150959" lon="14.111063109969637"><ele>127.0</ele><time>2026-05-01T15:08:28.999Z</time></trkpt><trkpt lat="42.28523776890737" lon="14.111213576574013"><ele>128.33333333333334</ele><time>2026-05-01T15:08:29.999Z</time></trkpt><trkpt lat="42.2852659034346" lon="14.111327872626049"><ele>129.66666666666669</ele><time>2026-05-01T15:08:30.999Z</time></trkpt><trkpt lat="42.28528529652963" lon="14.111412332585841"><ele>131.0</ele><time>2026-05-01T15:08:31.999Z</time></trkpt><trkpt lat="42.28532333698921" lon="14.111557511898805"><ele>132.33333333333334</ele><time>2026-05-01T15:08:33.999Z</time></trkpt><trkpt lat="42.28535681950833" lon="14.111662734352768"><ele>133.66666666666666</ele><time>2026-05-01T15:08:35.999Z</time></trkpt><trkpt lat="42.28539017296643" lon="14.111741987170538"><ele>135.0</ele><time>2026-05-01T15:08:37.999Z</time></trkpt><trkpt lat="42.28540310486339" lon="14.11183704267709"><ele>135.66666666666666</ele><time>2026-05-01T15:08:39.999Z</time></trkpt><trkpt lat="42.285428671178735" lon="14.111955946385237"><ele>136.33333333333334</ele><time>2026-05-01T15:08:41.999Z</time></trkpt><trkpt lat="42.285494871684286" lon="14.11207815849175"><ele>137.0</ele><time>2026-05-01T15:08:43.999Z</time></trkpt><trkpt lat="42.285537964508585" lon="14.112164928388452"><ele>137.66666666666669</ele><time>2026-05-01T15:08:44.999Z</time></trkpt><trkpt lat="42.28558895385781" lon="14.112243279229533"><ele>138.33333333333334</ele><time>2026-05-01T15:08:45.999Z</time></trkpt><trkpt lat="42.28563508207776" lon="14.112317927801419"><ele>139.0</ele><time>2026-05-01T15:08:46.999Z</time></trkpt><trkpt lat="42.285700706780375" lon="14.11243775389106"><ele>137.5</ele><time>2026-05-01T15:08:48.999Z</time></trkpt><trkpt lat="42.285744135918804" lon="14.112502752948359"><ele>136.0</ele><time>2026-05-01T15:08:49.999Z</time></trkpt><trkpt lat="42.28579438555933" lon="14.112571375013125"><ele>134.5</ele><time>2026-05-01T15:08:50.999Z</time></trkpt><trkpt lat="42.28584259048158" lon="14.112639262305386"><ele>133.0</ele><time>2026-05-01T15:08:51.999Z</time></trkpt><trkpt lat="42.28589793516474" lon="14.112719836789745"><ele>131.5</ele><time>2026-05-01T15:08:52.999Z</time></trkpt><trkpt lat="42.28595875647762" lon="14.112816354016276"><ele>130.0</ele><time>2026-05-01T15:08:53.999Z</time></trkpt><trkpt lat="42.28602854266278" lon="14.11291818813706"><ele>130.0</ele><time>2026-05-01T15:08:54.999Z</time></trkpt><trkpt lat="42.2860896128469" lon="14.113007819007969"><ele>130.0</ele><time>2026-05-01T15:08:55.999Z</time></trkpt><trkpt lat="42.28612951511919" lon="14.113082013048615"><ele>130.0</ele><time>2026-05-01T15:08:56.999Z</time></trkpt><trkpt lat="42.28619217093714" lon="14.113222174570373"><ele>130.0</ele><time>2026-05-01T15:08:58.999Z</time></trkpt><trkpt lat="42.2862298650331" lon="14.11335584637598"><ele>130.0</ele><time>2026-05-01T15:09:00.999Z</time></trkpt><trkpt lat="42.28624284686536" lon="14.113440838992018"><ele>130.0</ele><time>2026-05-01T15:09:01.999Z</time></trkpt><trkpt lat="42.28625301318048" lon="14.113536034147247"><ele>131.5</ele><time>2026-05-01T15:09:02.999Z</time></trkpt><trkpt lat="42.28625917584583" lon="14.113634945060333"><ele>133.0</ele><time>2026-05-01T15:09:03.999Z</time></trkpt><trkpt lat="42.28626530556561" lon="14.113745283761395"><ele>134.5</ele><time>2026-05-01T15:09:04.999Z</time></trkpt><trkpt lat="42.286279888718525" lon="14.113864269371161"><ele>136.0</ele><time>2026-05-01T15:09:05.999Z</time></trkpt><trkpt lat="42.28629008793263" lon="14.113969553837668"><ele>137.5</ele><time>2026-05-01T15:09:06.999Z</time></trkpt><trkpt lat="42.28629819100886" lon="14.114069977592386"><ele>139.0</ele><time>2026-05-01T15:09:07.999Z</time></trkpt><trkpt lat="42.28630597245678" lon="14.114164610320453"><ele>139.83333333333334</ele><time>2026-05-01T15:09:08.999Z</time></trkpt><trkpt lat="42.286321603153084" lon="14.11433267682783"><ele>140.66666666666669</ele><time>2026-05-01T15:09:10.999Z</time></trkpt><trkpt lat="42.28633863254526" lon="14.114429707557541"><ele>141.5</ele><time>2026-05-01T15:09:11.999Z</time></trkpt><trkpt lat="42.286343969394316" lon="14.114535447918652"><ele>142.33333333333334</ele><time>2026-05-01T15:09:12.999Z</time></trkpt><trkpt lat="42.28635128166574" lon="14.114649357162666"><ele>143.16666666666666</ele><time>2026-05-01T15:09:13.999Z</time></trkpt><trkpt lat="42.28636291040201" lon="14.114753086357107"><ele>144.0</ele><time>2026-05-01T15:09:14.999Z</time></trkpt><trkpt lat="42.28637259917758" lon="14.114851229711993"><ele>145.4</ele><time>2026-05-01T15:09:15.999Z</time></trkpt><trkpt lat="42.28639982406621" lon="14.11501104964993"><ele>146.8</ele><time>2026-05-01T15:09:17.999Z</time></trkpt><trkpt lat="42.286434392071094" lon="14.11518233061823"><ele>148.2</ele><time>2026-05-01T15:09:19.999Z</time></trkpt><trkpt lat="42.28645658767768" lon="14.115266488991463"><ele>149.6</ele><time>2026-05-01T15:09:20.999Z</time></trkpt><trkpt lat="42.28647715854778" lon="14.115360508902492"><ele>151.0</ele><time>2026-05-01T15:09:21.999Z</time></trkpt><trkpt lat="42.286503768114855" lon="14.11544888273856"><ele>148.2</ele><time>2026-05-01T15:09:22.999Z</time></trkpt><trkpt lat="42.28652924455516" lon="14.11553465975997"><ele>145.39999999999998</ele><time>2026-05-01T15:09:23.999Z</time></trkpt><trkpt lat="42.28656184499192" lon="14.115674903570067"><ele>142.6</ele><time>2026-05-01T15:09:25.999Z</time></trkpt><trkpt lat="42.28655145581146" lon="14.115785869072344"><ele>139.79999999999998</ele><time>2026-05-01T15:09:27.999Z</time></trkpt><trkpt lat="42.286528124930605" lon="14.115935223270652"><ele>137.0</ele><time>2026-05-01T15:09:29.999Z</time></trkpt><trkpt lat="42.28648039560949" lon="14.116085128470598"><ele>137.0</ele><time>2026-05-01T15:09:31.999Z</time></trkpt><trkpt lat="42.28644289715578" lon="14.11616292740221"><ele>137.0</ele><time>2026-05-01T15:09:32.999Z</time></trkpt><trkpt lat="42.28639814244061" lon="14.116245885848464"><ele>137.0</ele><time>2026-05-01T15:09:33.999Z</time></trkpt><trkpt lat="42.28635180963485" lon="14.1163313076506"><ele>137.0</ele><time>2026-05-01T15:09:34.999Z</time></trkpt><trkpt lat="42.28630595252135" lon="14.116407466203036"><ele>137.0</ele><time>2026-05-01T15:09:35.999Z</time></trkpt><trkpt lat="42.28626292050882" lon="14.116473558104929"><ele>137.0</ele><time>2026-05-01T15:09:36.999Z</time></trkpt><trkpt lat="42.28620075724097" lon="14.116590401264409"><ele>139.4</ele><time>2026-05-01T15:09:38.999Z</time></trkpt><trkpt lat="42.28615972336638" lon="14.116745916337965"><ele>141.79999999999998</ele><time>2026-05-01T15:09:40.999Z</time></trkpt><trkpt lat="42.28614809883339" lon="14.116903372382602"><ele>144.2</ele><time>2026-05-01T15:09:42.999Z</time></trkpt><trkpt lat="42.286143493335445" lon="14.117031187979315"><ele>146.6</ele><time>2026-05-01T15:09:43.999Z</time></trkpt><trkpt lat="42.28613600525591" lon="14.117175314521685"><ele>149.0</ele><time>2026-05-01T15:09:44.999Z</time></trkpt><trkpt lat="42.28612621063668" lon="14.117303660539216"><ele>149.33333333333331</ele><time>2026-05-01T15:09:45.999Z</time></trkpt><trkpt lat="42.286120746723036" lon="14.117421362188306"><ele>149.66666666666666</ele><time>2026-05-01T15:09:46.999Z</time></trkpt><trkpt lat="42.28611264402241" lon="14.11752346990155"><ele>150.0</ele><time>2026-05-01T15:09:47.999Z</time></trkpt><trkpt lat="42.286111273737774" lon="14.117620145202642"><ele>150.33333333333334</ele><time>2026-05-01T15:09:48.999Z</time></trkpt><trkpt lat="42.28610519919926" lon="14.117717488932906"><ele>150.66666666666669</ele><time>2026-05-01T15:09:49.999Z</time></trkpt><trkpt lat="42.28608746460156" lon="14.117821324430562"><ele>151.0</ele><time>2026-05-01T15:09:50.999Z</time></trkpt><trkpt lat="42.28606864405274" lon="14.117916926753217"><ele>151.0</ele><time>2026-05-01T15:09:51.999Z</time></trkpt><trkpt lat="42.28604833061253" lon="14.118005377967206"><ele>151.0</ele><time>2026-05-01T15:09:52.999Z</time></trkpt><trkpt lat="42.28601897293472" lon="14.118096478923718"><ele>151.0</ele><time>2026-05-01T15:09:53.998Z</time></trkpt><trkpt lat="42.285985899132825" lon="14.118189520628828"><ele>151.0</ele><time>2026-05-01T15:09:54.998Z</time></trkpt><trkpt lat="42.28595326841996" lon="14.118294780632931"><ele>151.0</ele><time>2026-05-01T15:09:55.998Z</time></trkpt><trkpt lat="42.28592845602043" lon="14.118398247652982"><ele>151.0</ele><time>2026-05-01T15:09:56.999Z</time></trkpt><trkpt lat="42.28591685899135" lon="14.118497148258223"><ele>151.8</ele><time>2026-05-01T15:09:57.999Z</time></trkpt><trkpt lat="42.28587261466849" lon="14.118638195931815"><ele>152.6</ele><time>2026-05-01T15:09:59.999Z</time></trkpt><trkpt lat="42.285864604979395" lon="14.11879241385937"><ele>153.4</ele><time>2026-05-01T15:10:01.999Z</time></trkpt><trkpt lat="42.28586361572787" lon="14.11890185007082"><ele>154.2</ele><time>2026-05-01T15:10:02.999Z</time></trkpt><trkpt lat="42.285847951553585" lon="14.11899772686535"><ele>155.0</ele><time>2026-05-01T15:10:03.999Z</time></trkpt><trkpt lat="42.28582112104319" lon="14.119085136428929"><ele>155.83333333333331</ele><time>2026-05-01T15:10:04.999Z</time></trkpt><trkpt lat="42.28579172038546" lon="14.119166967275712"><ele>156.66666666666666</ele><time>2026-05-01T15:10:05.999Z</time></trkpt><trkpt lat="42.285752500048375" lon="14.119234208558893"><ele>157.5</ele><time>2026-05-01T15:10:06.999Z</time></trkpt><trkpt lat="42.285660019118865" lon="14.11935928987153"><ele>158.33333333333334</ele><time>2026-05-01T15:10:08.999Z</time></trkpt><trkpt lat="42.28560632178713" lon="14.119426837150051"><ele>159.16666666666669</ele><time>2026-05-01T15:10:09.999Z</time></trkpt><trkpt lat="42.285550365901145" lon="14.11948427121496"><ele>160.0</ele><time>2026-05-01T15:10:10.999Z</time></trkpt><trkpt lat="42.28548332301302" lon="14.119546854466625"><ele>162.0</ele><time>2026-05-01T15:10:11.999Z</time></trkpt><trkpt lat="42.28540376663114" lon="14.11963315756558"><ele>164.0</ele><time>2026-05-01T15:10:12.999Z</time></trkpt><trkpt lat="42.28533861673466" lon="14.119693949031335"><ele>166.0</ele><time>2026-05-01T15:10:13.999Z</time></trkpt><trkpt lat="42.28527312085233" lon="14.11975253956766"><ele>168.0</ele><time>2026-05-01T15:10:15Z</time></trkpt><trkpt lat="42.285209910112066" lon="14.11981504217563"><ele>170.0</ele><time>2026-05-01T15:10:16Z</time></trkpt><trkpt lat="42.28513588558671" lon="14.119870771427285"><ele>172.0</ele><time>2026-05-01T15:10:17Z</time></trkpt><trkpt lat="42.28507041126724" lon="14.119914962864014"><ele>172.0</ele><time>2026-05-01T15:10:18Z</time></trkpt><trkpt lat="42.28500396604491" lon="14.119966255888349"><ele>172.0</ele><time>2026-05-01T15:10:19Z</time></trkpt><trkpt lat="42.284942422883866" lon="14.120016814961552"><ele>172.0</ele><time>2026-05-01T15:10:20Z</time></trkpt><trkpt lat="42.28487041794107" lon="14.120075936044488"><ele>172.0</ele><time>2026-05-01T15:10:21Z</time></trkpt><trkpt lat="42.284810153198066" lon="14.120125589749005"><ele>172.0</ele><time>2026-05-01T15:10:22Z</time></trkpt><trkpt lat="42.28475275282032" lon="14.120173988308716"><ele>172.0</ele><time>2026-05-01T15:10:23Z</time></trkpt><trkpt lat="42.28466233172106" lon="14.120263068658177"><ele>174.66666666666669</ele><time>2026-05-01T15:10:25Z</time></trkpt><trkpt lat="42.28458816381225" lon="14.120397943587388"><ele>177.33333333333334</ele><time>2026-05-01T15:10:27Z</time></trkpt><trkpt lat="42.284552613844966" lon="14.120476313205694"><ele>180.0</ele><time>2026-05-01T15:10:28Z</time></trkpt><trkpt lat="42.284521054535276" lon="14.120559391520523"><ele>182.66666666666666</ele><time>2026-05-01T15:10:29Z</time></trkpt><trkpt lat="42.28449927523886" lon="14.12064592156659"><ele>185.33333333333331</ele><time>2026-05-01T15:10:30Z</time></trkpt><trkpt lat="42.284475252742006" lon="14.120739387647063"><ele>188.0</ele><time>2026-05-01T15:10:31Z</time></trkpt><trkpt lat="42.28445455642475" lon="14.120827519987214"><ele>188.0</ele><time>2026-05-01T15:10:32Z</time></trkpt><trkpt lat="42.284437917540444" lon="14.120910454701214"><ele>188.0</ele><time>2026-05-01T15:10:33Z</time></trkpt><trkpt lat="42.28442144707241" lon="14.12110134649625"><ele>188.0</ele><time>2026-05-01T15:10:35Z</time></trkpt><trkpt lat="42.284409551453024" lon="14.121238534264636"><ele>188.0</ele><time>2026-05-01T15:10:36Z</time></trkpt><trkpt lat="42.28439748985068" lon="14.121372368946618"><ele>188.0</ele><time>2026-05-01T15:10:37Z</time></trkpt><trkpt lat="42.28439147999088" lon="14.121459879578596"><ele>188.2</ele><time>2026-05-01T15:10:38Z</time></trkpt><trkpt lat="42.28438017053633" lon="14.121593050536617"><ele>188.4</ele><time>2026-05-01T15:10:41Z</time></trkpt><trkpt lat="42.284360697096645" lon="14.121722475400295"><ele>188.6</ele><time>2026-05-01T15:10:43Z</time></trkpt><trkpt lat="42.284344214902376" lon="14.121808801584056"><ele>188.79999999999998</ele><time>2026-05-01T15:10:44Z</time></trkpt><trkpt lat="42.284297552662345" lon="14.121963179177255"><ele>189.0</ele><time>2026-05-01T15:10:46Z</time></trkpt><trkpt lat="42.284246012532925" lon="14.122046425947778"><ele>189.0</ele><time>2026-05-01T15:10:48Z</time></trkpt><trkpt lat="42.284180285845444" lon="14.12209301814973"><ele>189.0</ele><time>2026-05-01T15:11:15Z</time></trkpt><trkpt lat="42.28406494348501" lon="14.122126270666303"><ele>189.0</ele><time>2026-05-01T15:11:17Z</time></trkpt><trkpt lat="42.283994102192565" lon="14.122133514748484"><ele>189.0</ele><time>2026-05-01T15:11:19Z</time></trkpt><trkpt lat="42.28391543679441" lon="14.12210819691836"><ele>189.0</ele><time>2026-05-01T15:11:21Z</time></trkpt><trkpt lat="42.28383246356879" lon="14.122043837244785"><ele>189.0</ele><time>2026-05-01T15:11:23Z</time></trkpt><trkpt lat="42.283760220021264" lon="14.12193783524054"><ele>194.2</ele><time>2026-05-01T15:11:25Z</time></trkpt><trkpt lat="42.2836983440855" lon="14.121826905378896"><ele>199.39999999999998</ele><time>2026-05-01T15:11:27Z</time></trkpt><trkpt lat="42.283621483727224" lon="14.121698761279406"><ele>204.6</ele><time>2026-05-01T15:11:29Z</time></trkpt><trkpt lat="42.28354477723268" lon="14.121604458035085"><ele>209.8</ele><time>2026-05-01T15:11:30Z</time></trkpt><trkpt lat="42.283466856438345" lon="14.121483194083563"><ele>215.0</ele><time>2026-05-01T15:11:31Z</time></trkpt><trkpt lat="42.283412241690215" lon="14.121391906533992"><ele>215.0</ele><time>2026-05-01T15:11:32Z</time></trkpt><trkpt lat="42.2833583864035" lon="14.12124062799674"><ele>215.0</ele><time>2026-05-01T15:11:34Z</time></trkpt><trkpt lat="42.28331362646124" lon="14.12114541387232"><ele>215.0</ele><time>2026-05-01T15:11:35Z</time></trkpt><trkpt lat="42.283262204742456" lon="14.12103868139194"><ele>215.0</ele><time>2026-05-01T15:11:37Z</time></trkpt><trkpt lat="42.28320750486959" lon="14.120893497034904"><ele>215.0</ele><time>2026-05-01T15:11:39Z</time></trkpt><trkpt lat="42.28318713185958" lon="14.120807204647173"><ele>214.0</ele><time>2026-05-01T15:11:40Z</time></trkpt><trkpt lat="42.283150245480336" lon="14.12064076021238"><ele>213.0</ele><time>2026-05-01T15:11:42Z</time></trkpt><trkpt lat="42.28311313010075" lon="14.12052631447413"><ele>212.0</ele><time>2026-05-01T15:11:43Z</time></trkpt><trkpt lat="42.28307254847292" lon="14.120394735057179"><ele>211.0</ele><time>2026-05-01T15:11:44Z</time></trkpt><trkpt lat="42.28302632329145" lon="14.120233918855925"><ele>215.75</ele><time>2026-05-01T15:11:45Z</time></trkpt><trkpt lat="42.282968730158636" lon="14.1200415324002"><ele>220.5</ele><time>2026-05-01T15:11:46Z</time></trkpt><trkpt lat="42.2829228799069" lon="14.119878225272583"><ele>225.25</ele><time>2026-05-01T15:11:47Z</time></trkpt><trkpt lat="42.28288880088861" lon="14.119748241305961"><ele>230.0</ele><time>2026-05-01T15:11:48Z</time></trkpt><trkpt lat="42.282855011559846" lon="14.11962678638514"><ele>230.0</ele><time>2026-05-01T15:11:49Z</time></trkpt><trkpt lat="42.282820261000055" lon="14.119502503619117"><ele>230.0</ele><time>2026-05-01T15:11:50Z</time></trkpt><trkpt lat="42.28278718788832" lon="14.119393128522939"><ele>230.0</ele><time>2026-05-01T15:11:51Z</time></trkpt><trkpt lat="42.28276035924064" lon="14.119287814254852"><ele>230.0</ele><time>2026-05-01T15:11:52Z</time></trkpt><trkpt lat="42.28272854245453" lon="14.119172585641001"><ele>230.0</ele><time>2026-05-01T15:11:53Z</time></trkpt><trkpt lat="42.28269400290279" lon="14.119058984612648"><ele>229.2</ele><time>2026-05-01T15:11:54Z</time></trkpt><trkpt lat="42.28265545140345" lon="14.118936663270812"><ele>228.4</ele><time>2026-05-01T15:11:55Z</time></trkpt><trkpt lat="42.2826151170296" lon="14.118796238571973"><ele>227.60000000000002</ele><time>2026-05-01T15:11:56Z</time></trkpt><trkpt lat="42.282570618398275" lon="14.118659361323159"><ele>226.8</ele><time>2026-05-01T15:11:57Z</time></trkpt><trkpt lat="42.282530429966684" lon="14.118534177917118"><ele>226.0</ele><time>2026-05-01T15:11:58Z</time></trkpt><trkpt lat="42.28249332985206" lon="14.118410925412027"><ele>226.0</ele><time>2026-05-01T15:11:59Z</time></trkpt><trkpt lat="42.28246213844323" lon="14.11829360615781"><ele>226.00000000000003</ele><time>2026-05-01T15:11:59.999Z</time></trkpt><trkpt lat="42.28242162180818" lon="14.11818901915761"><ele>226.00000000000003</ele><time>2026-05-01T15:12:00.999Z</time></trkpt><trkpt lat="42.28237634847051" lon="14.118075290685095"><ele>226.0</ele><time>2026-05-01T15:12:01.999Z</time></trkpt><trkpt lat="42.28232416241217" lon="14.117963464360692"><ele>226.0</ele><time>2026-05-01T15:12:02.999Z</time></trkpt><trkpt lat="42.282271887595215" lon="14.11785033378508"><ele>225.57142857142858</ele><time>2026-05-01T15:12:03.999Z</time></trkpt><trkpt lat="42.28222139867258" lon="14.117755863061957"><ele>225.14285714285714</ele><time>2026-05-01T15:12:04.999Z</time></trkpt><trkpt lat="42.282172985566426" lon="14.117680637813502"><ele>224.71428571428572</ele><time>2026-05-01T15:12:05.999Z</time></trkpt><trkpt lat="42.28212269599004" lon="14.117612387656363"><ele>224.28571428571428</ele><time>2026-05-01T15:12:06.999Z</time></trkpt><trkpt lat="42.28205421757933" lon="14.117549562465454"><ele>223.85714285714283</ele><time>2026-05-01T15:12:08.999Z</time></trkpt><trkpt lat="42.28201443112909" lon="14.11762099583858"><ele>223.42857142857142</ele><time>2026-05-01T15:12:11.999Z</time></trkpt><trkpt lat="42.2820135485694" lon="14.117711731716172"><ele>223.0</ele><time>2026-05-01T15:12:12.999Z</time></trkpt><trkpt lat="42.28204177893621" lon="14.117893188186885"><ele>223.0</ele><time>2026-05-01T15:12:13.999Z</time></trkpt><trkpt lat="42.282046499425476" lon="14.118091979220605"><ele>223.0</ele><time>2026-05-01T15:12:14.999Z</time></trkpt><trkpt lat="42.28201972246307" lon="14.11828481375517"><ele>223.0</ele><time>2026-05-01T15:12:15.999Z</time></trkpt><trkpt lat="42.282017704666735" lon="14.118498995684577"><ele>224.25</ele><time>2026-05-01T15:12:16.999Z</time></trkpt><trkpt lat="42.281994292896336" lon="14.118685699764733"><ele>225.5</ele><time>2026-05-01T15:12:17.999Z</time></trkpt><trkpt lat="42.28196647515883" lon="14.118889041805629"><ele>226.75</ele><time>2026-05-01T15:12:18.999Z</time></trkpt><trkpt lat="42.281936756048616" lon="14.11907889262094"><ele>228.0</ele><time>2026-05-01T15:12:19.999Z</time></trkpt><trkpt lat="42.28191555678552" lon="14.119252558306716"><ele>230.0</ele><time>2026-05-01T15:12:20.999Z</time></trkpt><trkpt lat="42.28189678155218" lon="14.11941913092953"><ele>232.0</ele><time>2026-05-01T15:12:21.999Z</time></trkpt><trkpt lat="42.281889845667045" lon="14.119586580620602"><ele>234.0</ele><time>2026-05-01T15:12:22.999Z</time></trkpt><trkpt lat="42.281895603690664" lon="14.119757857557673"><ele>236.0</ele><time>2026-05-01T15:12:23.999Z</time></trkpt><trkpt lat="42.281920112393806" lon="14.11993429632322"><ele>237.5</ele><time>2026-05-01T15:12:24.999Z</time></trkpt><trkpt lat="42.28196582766714" lon="14.120119854775735"><ele>239.0</ele><time>2026-05-01T15:12:25.999Z</time></trkpt><trkpt lat="42.28201964177321" lon="14.120302216150044"><ele>240.5</ele><time>2026-05-01T15:12:26.999Z</time></trkpt><trkpt lat="42.282063903982454" lon="14.120479213930928"><ele>242.0</ele><time>2026-05-01T15:12:27.999Z</time></trkpt><trkpt lat="42.28209069484835" lon="14.120652107451248"><ele>243.5</ele><time>2026-05-01T15:12:28.999Z</time></trkpt><trkpt lat="42.28209988166387" lon="14.120836481963575"><ele>245.0</ele><time>2026-05-01T15:12:29.999Z</time></trkpt><trkpt lat="42.28209595672795" lon="14.121033661645129"><ele>246.5</ele><time>2026-05-01T15:12:30.999Z</time></trkpt><trkpt lat="42.28207773990971" lon="14.121226362833637"><ele>248.0</ele><time>2026-05-01T15:12:31.999Z</time></trkpt><trkpt lat="42.28202560914652" lon="14.12141533659728"><ele>249.0</ele><time>2026-05-01T15:12:32.999Z</time></trkpt><trkpt lat="42.28200109696693" lon="14.121619220573384"><ele>250.0</ele><time>2026-05-01T15:12:33.999Z</time></trkpt><trkpt lat="42.28198388909629" lon="14.121803676980878"><ele>251.0</ele><time>2026-05-01T15:12:34.999Z</time></trkpt><trkpt lat="42.28198724606755" lon="14.121975023981001"><ele>252.0</ele><time>2026-05-01T15:12:35.999Z</time></trkpt><trkpt lat="42.282015777039156" lon="14.12217040681683"><ele>252.0</ele><time>2026-05-01T15:12:36.999Z</time></trkpt><trkpt lat="42.28204972345308" lon="14.122374143758886"><ele>252.0</ele><time>2026-05-01T15:12:37.999Z</time></trkpt><trkpt lat="42.28208702688761" lon="14.122569181011212"><ele>252.0</ele><time>2026-05-01T15:12:38.999Z</time></trkpt><trkpt lat="42.282116330919436" lon="14.122758482042572"><ele>252.0</ele><time>2026-05-01T15:12:39.999Z</time></trkpt><trkpt lat="42.28211435381814" lon="14.122953660809346"><ele>253.75</ele><time>2026-05-01T15:12:40.999Z</time></trkpt><trkpt lat="42.28212213944377" lon="14.123141646950703"><ele>255.5</ele><time>2026-05-01T15:12:41.999Z</time></trkpt><trkpt lat="42.28214493978484" lon="14.123337161962098"><ele>257.25</ele><time>2026-05-01T15:12:42.999Z</time></trkpt><trkpt lat="42.282150097489065" lon="14.123528507189556"><ele>259.0</ele><time>2026-05-01T15:12:43.999Z</time></trkpt><trkpt lat="42.28215422470028" lon="14.123714545541766"><ele>262.0</ele><time>2026-05-01T15:12:44.999Z</time></trkpt><trkpt lat="42.28215874461176" lon="14.123906250609632"><ele>265.0</ele><time>2026-05-01T15:12:45.999Z</time></trkpt><trkpt lat="42.28216131830793" lon="14.124097660802969"><ele>268.0</ele><time>2026-05-01T15:12:46.999Z</time></trkpt><trkpt lat="42.28216939455893" lon="14.124296673229626"><ele>271.0</ele><time>2026-05-01T15:12:47.999Z</time></trkpt><trkpt lat="42.282180666534316" lon="14.12449107785855"><ele>273.0</ele><time>2026-05-01T15:12:48.999Z</time></trkpt><trkpt lat="42.282199832786034" lon="14.124678518665549"><ele>275.0</ele><time>2026-05-01T15:12:50Z</time></trkpt><trkpt lat="42.282221639346105" lon="14.124873123503573"><ele>277.0</ele><time>2026-05-01T15:12:51Z</time></trkpt><trkpt lat="42.28223775111279" lon="14.125069626441421"><ele>279.0</ele><time>2026-05-01T15:12:52Z</time></trkpt><trkpt lat="42.282253251998924" lon="14.12526868290137"><ele>279.5</ele><time>2026-05-01T15:12:53Z</time></trkpt><trkpt lat="42.282271742854874" lon="14.125445016017595"><ele>280.0</ele><time>2026-05-01T15:12:54Z</time></trkpt><trkpt lat="42.28228352842592" lon="14.12560049624603"><ele>280.5</ele><time>2026-05-01T15:12:55Z</time></trkpt><trkpt lat="42.282297630548825" lon="14.125753434079824"><ele>281.0</ele><time>2026-05-01T15:12:56Z</time></trkpt><trkpt lat="42.282311739989055" lon="14.125900503833495"><ele>283.0</ele><time>2026-05-01T15:12:57Z</time></trkpt><trkpt lat="42.28233213425484" lon="14.126051836232264"><ele>285.0</ele><time>2026-05-01T15:12:58Z</time></trkpt><trkpt lat="42.28236087284145" lon="14.126207854224697"><ele>287.0</ele><time>2026-05-01T15:12:59Z</time></trkpt><trkpt lat="42.28240355124449" lon="14.126368725331893"><ele>289.0</ele><time>2026-05-01T15:13:00Z</time></trkpt><trkpt lat="42.28245697463454" lon="14.126520053969758"><ele>290.8333333333333</ele><time>2026-05-01T15:13:01Z</time></trkpt><trkpt lat="42.28250475475703" lon="14.126651535363125"><ele>292.66666666666663</ele><time>2026-05-01T15:13:02Z</time></trkpt><trkpt lat="42.28254558353193" lon="14.12675391926697"><ele>294.5</ele><time>2026-05-01T15:13:03Z</time></trkpt><trkpt lat="42.282580376051186" lon="14.126830529572782"><ele>296.3333333333333</ele><time>2026-05-01T15:13:04Z</time></trkpt><trkpt lat="42.282624539180304" lon="14.126958969415114"><ele>298.1666666666667</ele><time>2026-05-01T15:13:06Z</time></trkpt><trkpt lat="42.28264092181854" lon="14.127049490060163"><ele>300.0</ele><time>2026-05-01T15:13:08Z</time></trkpt><trkpt lat="42.28266119547415" lon="14.12713343915175"><ele>300.0</ele><time>2026-05-01T15:13:09Z</time></trkpt><trkpt lat="42.28272144220777" lon="14.127236850948737"><ele>300.0</ele><time>2026-05-01T15:13:10Z</time></trkpt><trkpt lat="42.28279540460116" lon="14.127349978668647"><ele>300.0</ele><time>2026-05-01T15:13:11Z</time></trkpt><trkpt lat="42.28288161624256" lon="14.127494724169836"><ele>300.0</ele><time>2026-05-01T15:13:12Z</time></trkpt><trkpt lat="42.28297179718243" lon="14.127649889741177"><ele>300.25</ele><time>2026-05-01T15:13:13Z</time></trkpt><trkpt lat="42.283067297069145" lon="14.127814396987244"><ele>300.5</ele><time>2026-05-01T15:13:14Z</time></trkpt><trkpt lat="42.28315104277531" lon="14.127961147021596"><ele>300.75</ele><time>2026-05-01T15:13:15Z</time></trkpt><trkpt lat="42.28322506589197" lon="14.128100275521723"><ele>301.0</ele><time>2026-05-01T15:13:16Z</time></trkpt><trkpt lat="42.28330553471277" lon="14.128245164255768"><ele>301.25</ele><time>2026-05-01T15:13:17Z</time></trkpt><trkpt lat="42.28339185720828" lon="14.128392248907224"><ele>301.5</ele><time>2026-05-01T15:13:18Z</time></trkpt><trkpt lat="42.2834846599671" lon="14.128531534251165"><ele>301.75</ele><time>2026-05-01T15:13:19Z</time></trkpt><trkpt lat="42.2835836642478" lon="14.128633886482145"><ele>302.0</ele><time>2026-05-01T15:13:20Z</time></trkpt><trkpt lat="42.28368625346842" lon="14.128695541738129"><ele>302.0</ele><time>2026-05-01T15:13:21Z</time></trkpt><trkpt lat="42.28380374396179" lon="14.128719103249104"><ele>302.0</ele><time>2026-05-01T15:13:22Z</time></trkpt><trkpt lat="42.283925866596945" lon="14.128706270590287"><ele>302.0</ele><time>2026-05-01T15:13:23Z</time></trkpt><trkpt lat="42.28403329247851" lon="14.128703046893415"><ele>302.0</ele><time>2026-05-01T15:13:24Z</time></trkpt><trkpt lat="42.28412669231621" lon="14.1287203396063"><ele>302.0</ele><time>2026-05-01T15:13:25Z</time></trkpt><trkpt lat="42.28421756491507" lon="14.128758578668453"><ele>302.4</ele><time>2026-05-01T15:13:26Z</time></trkpt><trkpt lat="42.28430909648028" lon="14.128818992770999"><ele>302.79999999999995</ele><time>2026-05-01T15:13:27Z</time></trkpt><trkpt lat="42.28439645546714" lon="14.128895771848944"><ele>303.2</ele><time>2026-05-01T15:13:28Z</time></trkpt><trkpt lat="42.28447343069371" lon="14.12897724669863"><ele>303.59999999999997</ele><time>2026-05-01T15:13:29Z</time></trkpt><trkpt lat="42.2845564000692" lon="14.129058988202255"><ele>304.0</ele><time>2026-05-01T15:13:30Z</time></trkpt><trkpt lat="42.28464551062676" lon="14.129142343964352"><ele>303.5</ele><time>2026-05-01T15:13:31Z</time></trkpt><trkpt lat="42.284728934056986" lon="14.129231337416357"><ele>303.0</ele><time>2026-05-01T15:13:32Z</time></trkpt><trkpt lat="42.28482204960564" lon="14.129325388046885"><ele>302.5</ele><time>2026-05-01T15:13:33Z</time></trkpt><trkpt lat="42.28491696143613" lon="14.129422148550702"><ele>302.0</ele><time>2026-05-01T15:13:34Z</time></trkpt><trkpt lat="42.28501727203931" lon="14.129534050313264"><ele>302.0</ele><time>2026-05-01T15:13:35Z</time></trkpt><trkpt lat="42.28511247206482" lon="14.129656913110912"><ele>302.0</ele><time>2026-05-01T15:13:36Z</time></trkpt><trkpt lat="42.28520990478928" lon="14.129787914200595"><ele>302.0</ele><time>2026-05-01T15:13:37Z</time></trkpt><trkpt lat="42.28531125135691" lon="14.12992911326756"><ele>302.0</ele><time>2026-05-01T15:13:38Z</time></trkpt><trkpt lat="42.28541507670682" lon="14.130073430641103"><ele>303.6666666666667</ele><time>2026-05-01T15:13:39Z</time></trkpt><trkpt lat="42.285516044274" lon="14.130229386801167"><ele>305.3333333333333</ele><time>2026-05-01T15:13:40Z</time></trkpt><trkpt lat="42.28560689026601" lon="14.130391480367347"><ele>307.0</ele><time>2026-05-01T15:13:41Z</time></trkpt><trkpt lat="42.28568981080112" lon="14.130566233668732"><ele>304.0</ele><time>2026-05-01T15:13:42Z</time></trkpt><trkpt lat="42.28577109476801" lon="14.130742074240347"><ele>301.0</ele><time>2026-05-01T15:13:43Z</time></trkpt><trkpt lat="42.285852974175384" lon="14.130915925470198"><ele>298.0</ele><time>2026-05-01T15:13:44Z</time></trkpt><trkpt lat="42.28594080588834" lon="14.131078398079362"><ele>298.0</ele><time>2026-05-01T15:13:45Z</time></trkpt><trkpt lat="42.286027170119" lon="14.131230305106952"><ele>298.0</ele><time>2026-05-01T15:13:46Z</time></trkpt><trkpt lat="42.28612092852653" lon="14.131373926624148"><ele>298.0</ele><time>2026-05-01T15:13:47Z</time></trkpt><trkpt lat="42.286217111850455" lon="14.131518220213076"><ele>298.0</ele><time>2026-05-01T15:13:48Z</time></trkpt><trkpt lat="42.286309248970696" lon="14.13166099127979"><ele>299.0</ele><time>2026-05-01T15:13:49Z</time></trkpt><trkpt lat="42.28639751067202" lon="14.131807385289031"><ele>300.0</ele><time>2026-05-01T15:13:50Z</time></trkpt><trkpt lat="42.28647624711016" lon="14.131946235894995"><ele>301.0</ele><time>2026-05-01T15:13:51Z</time></trkpt><trkpt lat="42.28654671889668" lon="14.132080933628549"><ele>302.0</ele><time>2026-05-01T15:13:52Z</time></trkpt><trkpt lat="42.2866103077353" lon="14.132214061795535"><ele>299.5</ele><time>2026-05-01T15:13:53Z</time></trkpt><trkpt lat="42.28666692875288" lon="14.132352983673742"><ele>297.0</ele><time>2026-05-01T15:13:54Z</time></trkpt><trkpt lat="42.28671072335322" lon="14.13251124834584"><ele>294.5</ele><time>2026-05-01T15:13:55Z</time></trkpt><trkpt lat="42.28674478069015" lon="14.132683250929757"><ele>292.0</ele><time>2026-05-01T15:13:56Z</time></trkpt><trkpt lat="42.28677963388653" lon="14.132853298830497"><ele>292.0</ele><time>2026-05-01T15:13:57Z</time></trkpt><trkpt lat="42.28681047485932" lon="14.133015978593052"><ele>292.0</ele><time>2026-05-01T15:13:58Z</time></trkpt><trkpt lat="42.28684770969045" lon="14.133170206726803"><ele>292.0</ele><time>2026-05-01T15:13:59Z</time></trkpt><trkpt lat="42.2869075482985" lon="14.133293876759954"><ele>292.0</ele><time>2026-05-01T15:14:00Z</time></trkpt><trkpt lat="42.287001104280236" lon="14.133378055727809"><ele>291.25</ele><time>2026-05-01T15:14:01Z</time></trkpt><trkpt lat="42.28711671576453" lon="14.133431296193521"><ele>290.5</ele><time>2026-05-01T15:14:02Z</time></trkpt><trkpt lat="42.28724539239511" lon="14.133481124939756"><ele>289.75</ele><time>2026-05-01T15:14:03Z</time></trkpt><trkpt lat="42.287384992644355" lon="14.133536231985412"><ele>289.0</ele><time>2026-05-01T15:14:04Z</time></trkpt><trkpt lat="42.28752784319001" lon="14.133589983030571"><ele>289.0</ele><time>2026-05-01T15:14:05Z</time></trkpt><trkpt lat="42.28766159309245" lon="14.133637095619717"><ele>289.0</ele><time>2026-05-01T15:14:05.999Z</time></trkpt><trkpt lat="42.287779597746955" lon="14.133679801866823"><ele>289.0</ele><time>2026-05-01T15:14:06.999Z</time></trkpt><trkpt lat="42.28788843821442" lon="14.133743234618732"><ele>289.0</ele><time>2026-05-01T15:14:07.999Z</time></trkpt><trkpt lat="42.28798850268749" lon="14.133840842912996"><ele>289.0</ele><time>2026-05-01T15:14:08.999Z</time></trkpt><trkpt lat="42.28807286835297" lon="14.133966253236773"><ele>289.0</ele><time>2026-05-01T15:14:09.999Z</time></trkpt><trkpt lat="42.28814925495367" lon="14.134116982280592"><ele>289.0</ele><time>2026-05-01T15:14:10.999Z</time></trkpt><trkpt lat="42.28822945939014" lon="14.134274624023396"><ele>289.0</ele><time>2026-05-01T15:14:11.999Z</time></trkpt><trkpt lat="42.28831884228637" lon="14.134431986464493"><ele>291.25</ele><time>2026-05-01T15:14:12.999Z</time></trkpt><trkpt lat="42.2884166604417" lon="14.134574997815646"><ele>293.5</ele><time>2026-05-01T15:14:13.999Z</time></trkpt><trkpt lat="42.28852601189439" lon="14.134697618689247"><ele>295.75</ele><time>2026-05-01T15:14:14.999Z</time></trkpt><trkpt lat="42.28864201826458" lon="14.134797550491061"><ele>298.0</ele><time>2026-05-01T15:14:15.999Z</time></trkpt><trkpt lat="42.28876131264033" lon="14.134883884027245"><ele>297.5</ele><time>2026-05-01T15:14:16.999Z</time></trkpt><trkpt lat="42.28887481251465" lon="14.134979410510919"><ele>297.0</ele><time>2026-05-01T15:14:17.999Z</time></trkpt><trkpt lat="42.28898446901085" lon="14.135090665715436"><ele>296.5</ele><time>2026-05-01T15:14:18.999Z</time></trkpt><trkpt lat="42.289095317677884" lon="14.135210378447603"><ele>296.0</ele><time>2026-05-01T15:14:19.999Z</time></trkpt><trkpt lat="42.28920943013216" lon="14.135329653532096"><ele>299.5</ele><time>2026-05-01T15:14:20.999Z</time></trkpt><trkpt lat="42.289326126977855" lon="14.135448042251895"><ele>303.0</ele><time>2026-05-01T15:14:21.999Z</time></trkpt><trkpt lat="42.28944254670549" lon="14.135563864374273"><ele>306.5</ele><time>2026-05-01T15:14:22.999Z</time></trkpt><trkpt lat="42.289552807557065" lon="14.135653614956686"><ele>310.0</ele><time>2026-05-01T15:14:23.999Z</time></trkpt><trkpt lat="42.28966021695133" lon="14.135717098919681"><ele>310.25</ele><time>2026-05-01T15:14:24.999Z</time></trkpt><trkpt lat="42.28977114227321" lon="14.135764169928242"><ele>310.5</ele><time>2026-05-01T15:14:26Z</time></trkpt><trkpt lat="42.28988932750542" lon="14.135801899084184"><ele>310.75</ele><time>2026-05-01T15:14:27Z</time></trkpt><trkpt lat="42.29000360037259" lon="14.135827619053062"><ele>311.0</ele><time>2026-05-01T15:14:28Z</time></trkpt><trkpt lat="42.2901112992883" lon="14.135878158484486"><ele>311.0</ele><time>2026-05-01T15:14:29Z</time></trkpt><trkpt lat="42.290218975003214" lon="14.135911440418024"><ele>311.0</ele><time>2026-05-01T15:14:30Z</time></trkpt><trkpt lat="42.29032746600497" lon="14.135922726116693"><ele>311.0</ele><time>2026-05-01T15:14:31Z</time></trkpt><trkpt lat="42.29043280061443" lon="14.135958030803883"><ele>311.0</ele><time>2026-05-01T15:14:32Z</time></trkpt><trkpt lat="42.290535506136564" lon="14.135996523015844"><ele>311.0</ele><time>2026-05-01T15:14:33Z</time></trkpt><trkpt lat="42.29063925544304" lon="14.136032009901005"><ele>312.2</ele><time>2026-05-01T15:14:34Z</time></trkpt><trkpt lat="42.29074592195872" lon="14.13606640389818"><ele>313.40000000000003</ele><time>2026-05-01T15:14:35Z</time></trkpt><trkpt lat="42.29085501847325" lon="14.13610097485774"><ele>314.6</ele><time>2026-05-01T15:14:36Z</time></trkpt><trkpt lat="42.2909560747836" lon="14.136120127133418"><ele>315.8</ele><time>2026-05-01T15:14:37Z</time></trkpt><trkpt lat="42.29104564437839" lon="14.136118536994413"><ele>317.0</ele><time>2026-05-01T15:14:38Z</time></trkpt><trkpt lat="42.29112255544256" lon="14.136096941873266"><ele>317.0</ele><time>2026-05-01T15:14:39Z</time></trkpt><trkpt lat="42.291189016780635" lon="14.136073404966849"><ele>317.0</ele><time>2026-05-01T15:14:40Z</time></trkpt><trkpt lat="42.29127684043501" lon="14.136048091663278"><ele>317.0</ele><time>2026-05-01T15:14:42Z</time></trkpt><trkpt lat="42.29136944923885" lon="14.136025167600003"><ele>317.0</ele><time>2026-05-01T15:14:44Z</time></trkpt><trkpt lat="42.291429090477955" lon="14.135951472394737"><ele>317.0</ele><time>2026-05-01T15:14:46Z</time></trkpt><trkpt lat="42.291459539147866" lon="14.135864631011671"><ele>317.0</ele><time>2026-05-01T15:14:48Z</time></trkpt><trkpt lat="42.29141249797673" lon="14.13580776905376"><ele>317.0</ele><time>2026-05-01T15:14:49Z</time></trkpt><trkpt lat="42.291372420082986" lon="14.135721769991667"><ele>317.0</ele><time>2026-05-01T15:14:51Z</time></trkpt><trkpt lat="42.29133232314417" lon="14.135648325819604"><ele>317.0</ele><time>2026-05-01T15:14:53Z</time></trkpt><trkpt lat="42.29129791883321" lon="14.135536526499637"><ele>317.0</ele><time>2026-05-01T15:14:55Z</time></trkpt><trkpt lat="42.29128269187472" lon="14.13536645720755"><ele>317.0</ele><time>2026-05-01T15:14:57Z</time></trkpt><trkpt lat="42.29126262123581" lon="14.135270514538652"><ele>317.0</ele><time>2026-05-01T15:14:58Z</time></trkpt><trkpt lat="42.29123914452915" lon="14.135171239824846"><ele>317.57142857142856</ele><time>2026-05-01T15:14:59Z</time></trkpt><trkpt lat="42.29121533667563" lon="14.135074311063375"><ele>318.1428571428571</ele><time>2026-05-01T15:15:00Z</time></trkpt><trkpt lat="42.29119418883533" lon="14.13498432893704"><ele>318.71428571428567</ele><time>2026-05-01T15:15:01Z</time></trkpt><trkpt lat="42.29117320302349" lon="14.134895845120278"><ele>319.2857142857143</ele><time>2026-05-01T15:15:02Z</time></trkpt><trkpt lat="42.291148008915194" lon="14.13481030417575"><ele>319.85714285714283</ele><time>2026-05-01T15:15:03Z</time></trkpt><trkpt lat="42.291118746198215" lon="14.134727109716081"><ele>320.4285714285714</ele><time>2026-05-01T15:15:04Z</time></trkpt><trkpt lat="42.291082484356096" lon="14.134647666389473"><ele>321.0</ele><time>2026-05-01T15:15:05Z</time></trkpt><trkpt lat="42.291041758969364" lon="14.134560768255666"><ele>321.0</ele><time>2026-05-01T15:15:06Z</time></trkpt><trkpt lat="42.29099755441095" lon="14.134486565202913"><ele>321.0</ele><time>2026-05-01T15:15:07Z</time></trkpt><trkpt lat="42.290956834687094" lon="14.134413189178819"><ele>321.0</ele><time>2026-05-01T15:15:08Z</time></trkpt><trkpt lat="42.290915622083155" lon="14.134342675124445"><ele>321.0</ele><time>2026-05-01T15:15:09Z</time></trkpt><trkpt lat="42.29087221637492" lon="14.134266977435821"><ele>321.0</ele><time>2026-05-01T15:15:10Z</time></trkpt><trkpt lat="42.2908041189076" lon="14.134154663387596"><ele>321.0</ele><time>2026-05-01T15:15:12Z</time></trkpt><trkpt lat="42.290746247175484" lon="14.134090652979308"><ele>321.0</ele><time>2026-05-01T15:15:14Z</time></trkpt><trkpt lat="42.29067798230199" lon="14.134091712582084"><ele>321.0</ele><time>2026-05-01T15:15:15Z</time></trkpt><trkpt lat="42.290634278976796" lon="14.134024283795656"><ele>321.0</ele><time>2026-05-01T15:15:16Z</time></trkpt><trkpt lat="42.29055796854949" lon="14.13398579197543"><ele>321.0</ele><time>2026-05-01T15:15:17Z</time></trkpt><trkpt lat="42.29047595954614" lon="14.133948393902044"><ele>321.0</ele><time>2026-05-01T15:15:18Z</time></trkpt><trkpt lat="42.2903850168568" lon="14.133908112960372"><ele>321.0</ele><time>2026-05-01T15:15:19Z</time></trkpt><trkpt lat="42.29029021234154" lon="14.133867911260229"><ele>320.6</ele><time>2026-05-01T15:15:20Z</time></trkpt><trkpt lat="42.29019360055669" lon="14.133821354025397"><ele>320.20000000000005</ele><time>2026-05-01T15:15:21Z</time></trkpt><trkpt lat="42.29010534491696" lon="14.13375594928045"><ele>319.79999999999995</ele><time>2026-05-01T15:15:22Z</time></trkpt><trkpt lat="42.290034266538996" lon="14.133671846738421"><ele>319.4</ele><time>2026-05-01T15:15:23.001Z</time></trkpt><trkpt lat="42.28997939490192" lon="14.133580050124612"><ele>319.0</ele><time>2026-05-01T15:15:24.001Z</time></trkpt><trkpt lat="42.2899312998264" lon="14.13348455285847"><ele>319.0</ele><time>2026-05-01T15:15:25.001Z</time></trkpt><trkpt lat="42.289886478827924" lon="14.13338701619784"><ele>319.0</ele><time>2026-05-01T15:15:26.001Z</time></trkpt><trkpt lat="42.28984423812096" lon="14.133294606936133"><ele>319.0</ele><time>2026-05-01T15:15:27.001Z</time></trkpt><trkpt lat="42.289798519504345" lon="14.1332127105091"><ele>319.0</ele><time>2026-05-01T15:15:28.001Z</time></trkpt><trkpt lat="42.289748897892686" lon="14.133146802136308"><ele>319.0</ele><time>2026-05-01T15:15:29.001Z</time></trkpt><trkpt lat="42.289697699214194" lon="14.13309686457456"><ele>319.0</ele><time>2026-05-01T15:15:30.001Z</time></trkpt><trkpt lat="42.2896182323779" lon="14.13298563203325"><ele>318.16666666666663</ele><time>2026-05-01T15:15:32.001Z</time></trkpt><trkpt lat="42.28960374943144" lon="14.132806967190936"><ele>317.3333333333333</ele><time>2026-05-01T15:15:34.001Z</time></trkpt><trkpt lat="42.28961731770245" lon="14.132705720009518"><ele>316.5</ele><time>2026-05-01T15:15:35.001Z</time></trkpt><trkpt lat="42.28963029928752" lon="14.132603725476118"><ele>315.6666666666667</ele><time>2026-05-01T15:15:36.001Z</time></trkpt><trkpt lat="42.28964471982739" lon="14.132510200874504"><ele>314.83333333333337</ele><time>2026-05-01T15:15:37.001Z</time></trkpt><trkpt lat="42.28965970827533" lon="14.132418990644046"><ele>314.0</ele><time>2026-05-01T15:15:38.001Z</time></trkpt><trkpt lat="42.28967838014279" lon="14.132328412114363"><ele>313.0</ele><time>2026-05-01T15:15:39.001Z</time></trkpt><trkpt lat="42.28971070207907" lon="14.132175223321783"><ele>312.0</ele><time>2026-05-01T15:15:41.001Z</time></trkpt><trkpt lat="42.289773120152994" lon="14.132035034903371"><ele>311.0</ele><time>2026-05-01T15:15:43.001Z</time></trkpt><trkpt lat="42.289818159485506" lon="14.131893704671608"><ele>310.0</ele><time>2026-05-01T15:15:45.001Z</time></trkpt><trkpt lat="42.28986753142024" lon="14.131782462376236"><ele>309.0</ele><time>2026-05-01T15:15:47.001Z</time></trkpt><trkpt lat="42.28992076810409" lon="14.131670444694109"><ele>309.0</ele><time>2026-05-01T15:15:49.001Z</time></trkpt><trkpt lat="42.28997055709058" lon="14.131569362408069"><ele>309.0</ele><time>2026-05-01T15:15:51.001Z</time></trkpt><trkpt lat="42.290021427137646" lon="14.131477190048294"><ele>309.0</ele><time>2026-05-01T15:15:54.001Z</time></trkpt><trkpt lat="42.29006590457876" lon="14.131403209016037"><ele>309.0</ele><time>2026-05-01T15:15:58.001Z</time></trkpt><trkpt lat="42.290102363276155" lon="14.131307039059491"><ele>309.0</ele><time>2026-05-01T15:16:01.001Z</time></trkpt><trkpt lat="42.29013564866776" lon="14.131217947857783"><ele>309.0</ele><time>2026-05-01T15:16:04.001Z</time></trkpt><trkpt lat="42.290169153087966" lon="14.131115900865057"><ele>306.3333333333333</ele><time>2026-05-01T15:16:07.001Z</time></trkpt><trkpt lat="42.29019421118258" lon="14.131017787837873"><ele>303.6666666666667</ele><time>2026-05-01T15:16:10.001Z</time></trkpt><trkpt lat="42.29021640306078" lon="14.13091388501681"><ele>301.0</ele><time>2026-05-01T15:16:13Z</time></trkpt><trkpt lat="42.29024155537772" lon="14.130824165643892"><ele>298.33333333333337</ele><time>2026-05-01T15:16:15Z</time></trkpt><trkpt lat="42.29027540856105" lon="14.130733842745808"><ele>295.6666666666667</ele><time>2026-05-01T15:16:17Z</time></trkpt><trkpt lat="42.29030228189194" lon="14.130610217958544"><ele>293.0</ele><time>2026-05-01T15:16:19Z</time></trkpt><trkpt lat="42.29031774132562" lon="14.130468441860593"><ele>289.8</ele><time>2026-05-01T15:16:21Z</time></trkpt><trkpt lat="42.290342583387876" lon="14.130348607925198"><ele>286.6</ele><time>2026-05-01T15:16:23Z</time></trkpt><trkpt lat="42.290368187494195" lon="14.130247212917405"><ele>283.4</ele><time>2026-05-01T15:16:25Z</time></trkpt><trkpt lat="42.29038220517009" lon="14.130101142511524"><ele>280.2</ele><time>2026-05-01T15:16:27Z</time></trkpt><trkpt lat="42.29038038517552" lon="14.129945539477575"><ele>277.0</ele><time>2026-05-01T15:16:29Z</time></trkpt><trkpt lat="42.290368046764414" lon="14.129797130859673"><ele>275.4</ele><time>2026-05-01T15:16:31Z</time></trkpt><trkpt lat="42.29037961908203" lon="14.129654075355774"><ele>273.79999999999995</ele><time>2026-05-01T15:16:33Z</time></trkpt><trkpt lat="42.29037395831032" lon="14.12951678728192"><ele>272.2</ele><time>2026-05-01T15:16:35Z</time></trkpt><trkpt lat="42.29036887953034" lon="14.129374710970918"><ele>270.59999999999997</ele><time>2026-05-01T15:16:37Z</time></trkpt><trkpt lat="42.290370245477064" lon="14.129221344530167"><ele>269.0</ele><time>2026-05-01T15:16:39Z</time></trkpt><trkpt lat="42.2903727803074" lon="14.129135577862746"><ele>265.0</ele><time>2026-05-01T15:16:40Z</time></trkpt><trkpt lat="42.290381416241395" lon="14.128982166534918"><ele>261.0</ele><time>2026-05-01T15:16:42Z</time></trkpt><trkpt lat="42.29039259689796" lon="14.128823704944095"><ele>257.0</ele><time>2026-05-01T15:16:44Z</time></trkpt><trkpt lat="42.290387609616026" lon="14.128733846551283"><ele>253.0</ele><time>2026-05-01T15:16:45Z</time></trkpt><trkpt lat="42.290409258727585" lon="14.128572968464594"><ele>249.0</ele><time>2026-05-01T15:16:47Z</time></trkpt><trkpt lat="42.29044217367871" lon="14.128421183902486"><ele>249.0</ele><time>2026-05-01T15:16:49.001Z</time></trkpt><trkpt lat="42.290471994672615" lon="14.128267713495251"><ele>249.0</ele><time>2026-05-01T15:16:51.001Z</time></trkpt><trkpt lat="42.29049288483386" lon="14.128104162442403"><ele>249.0</ele><time>2026-05-01T15:16:53.001Z</time></trkpt><trkpt lat="42.290512686691265" lon="14.127949131839578"><ele>249.0</ele><time>2026-05-01T15:16:55.001Z</time></trkpt><trkpt lat="42.290531762725216" lon="14.12779978379753"><ele>244.79999999999998</ele><time>2026-05-01T15:16:57.001Z</time></trkpt><trkpt lat="42.290550594625955" lon="14.127652347040607"><ele>240.59999999999997</ele><time>2026-05-01T15:16:59.001Z</time></trkpt><trkpt lat="42.29055360634307" lon="14.127499537866699"><ele>236.4</ele><time>2026-05-01T15:17:01.001Z</time></trkpt><trkpt lat="42.29057397978671" lon="14.127376407991019"><ele>232.2</ele><time>2026-05-01T15:17:03.001Z</time></trkpt><trkpt lat="42.29058936094516" lon="14.127250341856989"><ele>228.0</ele><time>2026-05-01T15:17:05.001Z</time></trkpt><trkpt lat="42.290605986745334" lon="14.127118284949262"><ele>227.2</ele><time>2026-05-01T15:17:07.001Z</time></trkpt><trkpt lat="42.290629056812776" lon="14.126981965631973"><ele>226.4</ele><time>2026-05-01T15:17:09.001Z</time></trkpt><trkpt lat="42.290639722507194" lon="14.12683589329925"><ele>225.59999999999997</ele><time>2026-05-01T15:17:11.001Z</time></trkpt><trkpt lat="42.29063352085432" lon="14.126687658548093"><ele>224.79999999999998</ele><time>2026-05-01T15:17:13.001Z</time></trkpt><trkpt lat="42.29064249198846" lon="14.126536517205999"><ele>224.0</ele><time>2026-05-01T15:17:15.001Z</time></trkpt><trkpt lat="42.29063061838233" lon="14.126375283555182"><ele>222.2</ele><time>2026-05-01T15:17:17.001Z</time></trkpt><trkpt lat="42.290618864488444" lon="14.126220877154235"><ele>220.39999999999998</ele><time>2026-05-01T15:17:19.001Z</time></trkpt><trkpt lat="42.290605279279" lon="14.126062182150283"><ele>218.6</ele><time>2026-05-01T15:17:21.001Z</time></trkpt><trkpt lat="42.29059232523985" lon="14.125910860120245"><ele>216.8</ele><time>2026-05-01T15:17:23.001Z</time></trkpt><trkpt lat="42.29058455499757" lon="14.125820092406858"><ele>215.0</ele><time>2026-05-01T15:17:24.001Z</time></trkpt><trkpt lat="42.2905716816996" lon="14.125669713557846"><ele>211.8</ele><time>2026-05-01T15:17:26.001Z</time></trkpt><trkpt lat="42.29056057125298" lon="14.125518777334413"><ele>208.6</ele><time>2026-05-01T15:17:28.001Z</time></trkpt><trkpt lat="42.29055129447146" lon="14.12537041348409"><ele>205.39999999999998</ele><time>2026-05-01T15:17:30.001Z</time></trkpt><trkpt lat="42.29054481071194" lon="14.125239328854294"><ele>202.2</ele><time>2026-05-01T15:17:32.001Z</time></trkpt><trkpt lat="42.290526688685645" lon="14.125086026957648"><ele>199.0</ele><time>2026-05-01T15:17:34.001Z</time></trkpt><trkpt lat="42.2905376960166" lon="14.124949666251807"><ele>197.75</ele><time>2026-05-01T15:17:36.001Z</time></trkpt><trkpt lat="42.29057182431377" lon="14.124875521699035"><ele>196.5</ele><time>2026-05-01T15:17:39.001Z</time></trkpt><trkpt lat="42.29061420826381" lon="14.124790738553795"><ele>195.25</ele><time>2026-05-01T15:17:42.001Z</time></trkpt><trkpt lat="42.29065329809971" lon="14.124704481375813"><ele>194.0</ele><time>2026-05-01T15:17:45.001Z</time></trkpt><trkpt lat="42.29078343587916" lon="14.124420486162219"><ele>194.00000000000003</ele><time>2026-05-01T15:17:53.001Z</time></trkpt><trkpt lat="42.29083654819693" lon="14.124347343240203"><ele>194.0</ele><time>2026-05-01T15:17:55.001Z</time></trkpt><trkpt lat="42.290872799167396" lon="14.124265900180667"><ele>194.0</ele><time>2026-05-01T15:17:57.001Z</time></trkpt><trkpt lat="42.290906902793125" lon="14.12416319413278"><ele>194.0</ele><time>2026-05-01T15:17:59.001Z</time></trkpt><trkpt lat="42.29091994654672" lon="14.124047474624073"><ele>194.00000000000003</ele><time>2026-05-01T15:18:01.001Z</time></trkpt><trkpt lat="42.29094609089194" lon="14.123923319278319"><ele>194.0</ele><time>2026-05-01T15:18:03.001Z</time></trkpt><trkpt lat="42.290974785640884" lon="14.123790916173249"><ele>190.39999999999998</ele><time>2026-05-01T15:18:05.001Z</time></trkpt><trkpt lat="42.29100126753251" lon="14.123654084260936"><ele>186.8</ele><time>2026-05-01T15:18:07.001Z</time></trkpt><trkpt lat="42.29098592063974" lon="14.123523967278752"><ele>183.2</ele><time>2026-05-01T15:18:09.001Z</time></trkpt><trkpt lat="42.2909576000658" lon="14.123377608580133"><ele>179.60000000000002</ele><time>2026-05-01T15:18:11.001Z</time></trkpt><trkpt lat="42.29090516750125" lon="14.123239703854884"><ele>176.0</ele><time>2026-05-01T15:18:13.001Z</time></trkpt><trkpt lat="42.290867958349914" lon="14.123142954561349"><ele>173.85714285714286</ele><time>2026-05-01T15:18:15.001Z</time></trkpt><trkpt lat="42.290829332178085" lon="14.123057868196318"><ele>171.71428571428572</ele><time>2026-05-01T15:18:17.001Z</time></trkpt><trkpt lat="42.29081391245156" lon="14.122963531277485"><ele>169.57142857142856</ele><time>2026-05-01T15:18:19.001Z</time></trkpt><trkpt lat="42.29078929220206" lon="14.122868426456616"><ele>167.42857142857144</ele><time>2026-05-01T15:18:21.001Z</time></trkpt><trkpt lat="42.290767367953535" lon="14.122770796232555"><ele>165.28571428571428</ele><time>2026-05-01T15:18:24.001Z</time></trkpt><trkpt lat="42.29074774091307" lon="14.12265596702884"><ele>163.14285714285714</ele><time>2026-05-01T15:18:27.001Z</time></trkpt><trkpt lat="42.2907425413098" lon="14.122568273635656"><ele>161.0</ele><time>2026-05-01T15:18:30.001Z</time></trkpt><trkpt lat="42.29076412833285" lon="14.122463197226429"><ele>161.0</ele><time>2026-05-01T15:18:33.001Z</time></trkpt><trkpt lat="42.290818630636444" lon="14.12239599046315"><ele>161.0</ele><time>2026-05-01T15:18:35.001Z</time></trkpt><trkpt lat="42.29088319355296" lon="14.122335666233925"><ele>161.0</ele><time>2026-05-01T15:18:37.001Z</time></trkpt><trkpt lat="42.29092929686266" lon="14.122268709732255"><ele>161.0</ele><time>2026-05-01T15:18:39.001Z</time></trkpt><trkpt lat="42.29098323169305" lon="14.122180316690653"><ele>161.0</ele><time>2026-05-01T15:18:42.001Z</time></trkpt><trkpt lat="42.29101368172876" lon="14.122079760886406"><ele>161.0</ele><time>2026-05-01T15:18:44.001Z</time></trkpt><trkpt lat="42.291004103710186" lon="14.121976155564802"><ele>161.0</ele><time>2026-05-01T15:18:45.001Z</time></trkpt><trkpt lat="42.29100503357912" lon="14.12186552366363"><ele>161.0</ele><time>2026-05-01T15:18:47.001Z</time></trkpt><trkpt lat="42.291033846188355" lon="14.121771726782093"><ele>161.0</ele><time>2026-05-01T15:18:49.001Z</time></trkpt><trkpt lat="42.29111317745812" lon="14.121637875901255"><ele>161.0</ele><time>2026-05-01T15:18:51.001Z</time></trkpt><trkpt lat="42.29116366295675" lon="14.121539457405472"><ele>161.0</ele><time>2026-05-01T15:18:52.001Z</time></trkpt><trkpt lat="42.291220322836594" lon="14.121458607678896"><ele>162.66666666666666</ele><time>2026-05-01T15:18:53.001Z</time></trkpt><trkpt lat="42.291251140978694" lon="14.12135477681394"><ele>164.33333333333331</ele><time>2026-05-01T15:18:54.001Z</time></trkpt><trkpt lat="42.291302619156426" lon="14.121259647819633"><ele>166.0</ele><time>2026-05-01T15:18:55.001Z</time></trkpt><trkpt lat="42.291344347505664" lon="14.121170757805757"><ele>167.66666666666666</ele><time>2026-05-01T15:18:56.001Z</time></trkpt><trkpt lat="42.29138219838589" lon="14.121078748746047"><ele>169.33333333333334</ele><time>2026-05-01T15:18:57.001Z</time></trkpt><trkpt lat="42.29143542048918" lon="14.121003466856742"><ele>171.0</ele><time>2026-05-01T15:18:58.001Z</time></trkpt><trkpt lat="42.291475746598685" lon="14.120917045738922"><ele>172.5</ele><time>2026-05-01T15:18:59.001Z</time></trkpt><trkpt lat="42.29152008533273" lon="14.120821822064295"><ele>174.0</ele><time>2026-05-01T15:19:00.001Z</time></trkpt><trkpt lat="42.29154561075402" lon="14.120723303193687"><ele>175.5</ele><time>2026-05-01T15:19:01.001Z</time></trkpt><trkpt lat="42.29159432293513" lon="14.120630748511912"><ele>177.0</ele><time>2026-05-01T15:19:02.001Z</time></trkpt><trkpt lat="42.29163628472963" lon="14.120541352148447"><ele>178.5</ele><time>2026-05-01T15:19:03.001Z</time></trkpt><trkpt lat="42.29167917204484" lon="14.120452620165361"><ele>180.0</ele><time>2026-05-01T15:19:04.001Z</time></trkpt><trkpt lat="42.291714078130134" lon="14.120378228006636"><ele>183.4</ele><time>2026-05-01T15:19:05.001Z</time></trkpt><trkpt lat="42.291787093909" lon="14.120251711373026"><ele>186.8</ele><time>2026-05-01T15:19:07.001Z</time></trkpt><trkpt lat="42.291819479088005" lon="14.120145383537333"><ele>190.2</ele><time>2026-05-01T15:19:09.001Z</time></trkpt><trkpt lat="42.291825618354935" lon="14.120000313231365"><ele>193.6</ele><time>2026-05-01T15:19:11.001Z</time></trkpt><trkpt lat="42.291811681901386" lon="14.119897468080437"><ele>197.0</ele><time>2026-05-01T15:19:12.001Z</time></trkpt><trkpt lat="42.29180455164659" lon="14.119804222253952"><ele>200.00000000000003</ele><time>2026-05-01T15:19:13.001Z</time></trkpt><trkpt lat="42.29179696218334" lon="14.119698637999937"><ele>203.0</ele><time>2026-05-01T15:19:14.001Z</time></trkpt><trkpt lat="42.291762158662166" lon="14.119557055879618"><ele>206.0</ele><time>2026-05-01T15:19:16.001Z</time></trkpt><trkpt lat="42.291735088135574" lon="14.119458103466949"><ele>209.0</ele><time>2026-05-01T15:19:18.001Z</time></trkpt><trkpt lat="42.291819285312386" lon="14.119500675227268"><ele>212.00000000000003</ele><time>2026-05-01T15:19:23.001Z</time></trkpt><trkpt lat="42.29188278138028" lon="14.11951647464911"><ele>215.0</ele><time>2026-05-01T15:19:24.001Z</time></trkpt><trkpt lat="42.291993926195524" lon="14.119537491147359"><ele>215.0</ele><time>2026-05-01T15:19:26.001Z</time></trkpt><trkpt lat="42.29210566469767" lon="14.11949040334975"><ele>215.0</ele><time>2026-05-01T15:19:28.001Z</time></trkpt><trkpt lat="42.29216724436074" lon="14.119449483726987"><ele>215.0</ele><time>2026-05-01T15:19:29.001Z</time></trkpt><trkpt lat="42.29222452561388" lon="14.119411003187768"><ele>215.0</ele><time>2026-05-01T15:19:30.001Z</time></trkpt><trkpt lat="42.292337712222555" lon="14.11933211966343"><ele>215.0</ele><time>2026-05-01T15:19:32.001Z</time></trkpt><trkpt lat="42.292444536766496" lon="14.11926035446883"><ele>218.0</ele><time>2026-05-01T15:19:34.001Z</time></trkpt><trkpt lat="42.292551333176974" lon="14.119187165364444"><ele>221.0</ele><time>2026-05-01T15:19:36.001Z</time></trkpt><trkpt lat="42.29263544227014" lon="14.119094119958833"><ele>224.0</ele><time>2026-05-01T15:19:38.001Z</time></trkpt><trkpt lat="42.292715046228864" lon="14.11898294371305"><ele>227.0</ele><time>2026-05-01T15:19:40.001Z</time></trkpt><trkpt lat="42.292764131005995" lon="14.118925322842962"><ele>230.0</ele><time>2026-05-01T15:19:41.001Z</time></trkpt><trkpt lat="42.29282109304597" lon="14.11885768137075"><ele>232.83333333333334</ele><time>2026-05-01T15:19:42.001Z</time></trkpt><trkpt lat="42.29287549227508" lon="14.118804632369326"><ele>235.66666666666669</ele><time>2026-05-01T15:19:43.001Z</time></trkpt><trkpt lat="42.29294855578789" lon="14.11876616117974"><ele>238.5</ele><time>2026-05-01T15:19:44.001Z</time></trkpt><trkpt lat="42.29300349259393" lon="14.118711885384188"><ele>241.33333333333331</ele><time>2026-05-01T15:19:45.001Z</time></trkpt><trkpt lat="42.293073806716144" lon="14.118620120662724"><ele>244.16666666666666</ele><time>2026-05-01T15:19:47.001Z</time></trkpt><trkpt lat="42.293064533294874" lon="14.118535118749488"><ele>247.0</ele><time>2026-05-01T15:19:49.001Z</time></trkpt><trkpt lat="42.29302725695126" lon="14.118354680752292"><ele>246.99999999999997</ele><time>2026-05-01T15:19:51.001Z</time></trkpt><trkpt lat="42.29300875660419" lon="14.118262644545327"><ele>247.0</ele><time>2026-05-01T15:19:52.001Z</time></trkpt><trkpt lat="42.292981901760406" lon="14.118159159309341"><ele>247.0</ele><time>2026-05-01T15:19:54.001Z</time></trkpt><trkpt lat="42.292887668030566" lon="14.118085477941381"><ele>247.0</ele><time>2026-05-01T15:19:57.001Z</time></trkpt><trkpt lat="42.29281041047868" lon="14.118069699494603"><ele>246.99999999999997</ele><time>2026-05-01T15:19:58.001Z</time></trkpt><trkpt lat="42.29273023194352" lon="14.118050007142084"><ele>247.0</ele><time>2026-05-01T15:19:59.001Z</time></trkpt><trkpt lat="42.29265551785751" lon="14.118027509688863"><ele>246.0</ele><time>2026-05-01T15:20:00.001Z</time></trkpt><trkpt lat="42.29259220489136" lon="14.117996736803631"><ele>245.0</ele><time>2026-05-01T15:20:01.001Z</time></trkpt><trkpt lat="42.2924781941292" lon="14.117933457836568"><ele>244.0</ele><time>2026-05-01T15:20:03.001Z</time></trkpt><trkpt lat="42.2923788924342" lon="14.117823059476821"><ele>243.0</ele><time>2026-05-01T15:20:05.001Z</time></trkpt><trkpt lat="42.29235089653309" lon="14.1177374213035"><ele>242.0</ele><time>2026-05-01T15:20:06.001Z</time></trkpt><trkpt lat="42.292363290470774" lon="14.117647564075673"><ele>242.0</ele><time>2026-05-01T15:20:07.001Z</time></trkpt><trkpt lat="42.29240375637763" lon="14.11756421156877"><ele>242.0</ele><time>2026-05-01T15:20:08.001Z</time></trkpt><trkpt lat="42.2924672617708" lon="14.11751683591152"><ele>242.0</ele><time>2026-05-01T15:20:09.001Z</time></trkpt><trkpt lat="42.29254893059086" lon="14.117512673045102"><ele>242.0</ele><time>2026-05-01T15:20:10.001Z</time></trkpt><trkpt lat="42.292639344338745" lon="14.117593040520727"><ele>242.0</ele><time>2026-05-01T15:20:11.001Z</time></trkpt><trkpt lat="42.29275563495325" lon="14.117698519301587"><ele>242.0</ele><time>2026-05-01T15:20:12.001Z</time></trkpt><trkpt lat="42.2928695267127" lon="14.117763105132672"><ele>242.0</ele><time>2026-05-01T15:20:13.001Z</time></trkpt><trkpt lat="42.29294539331134" lon="14.117815834293348"><ele>242.0</ele><time>2026-05-01T15:20:14.001Z</time></trkpt><trkpt lat="42.29305531653372" lon="14.117836363555423"><ele>242.0</ele><time>2026-05-01T15:20:16.001Z</time></trkpt><trkpt lat="42.29315126589851" lon="14.117767910419534"><ele>242.0</ele><time>2026-05-01T15:20:18.001Z</time></trkpt><trkpt lat="42.29317088326087" lon="14.117622856321274"><ele>242.0</ele><time>2026-05-01T15:20:20.001Z</time></trkpt><trkpt lat="42.29313567252997" lon="14.117550873485678"><ele>241.99999999999997</ele><time>2026-05-01T15:20:21.001Z</time></trkpt><trkpt lat="42.29308197034204" lon="14.117502110780205"><ele>242.0</ele><time>2026-05-01T15:20:22.001Z</time></trkpt><trkpt lat="42.29302299904534" lon="14.11745948493585"><ele>242.0</ele><time>2026-05-01T15:20:23.001Z</time></trkpt><trkpt lat="42.29296266147829" lon="14.11740795908367"><ele>241.99999999999997</ele><time>2026-05-01T15:20:24.001Z</time></trkpt><trkpt lat="42.29290626033235" lon="14.117350988566951"><ele>242.0</ele><time>2026-05-01T15:20:25.001Z</time></trkpt><trkpt lat="42.292850200321105" lon="14.117288169069873"><ele>242.0</ele><time>2026-05-01T15:20:26.001Z</time></trkpt><trkpt lat="42.29279087697412" lon="14.117213219608828"><ele>239.83333333333334</ele><time>2026-05-01T15:20:27.001Z</time></trkpt><trkpt lat="42.292733522876084" lon="14.117123941468947"><ele>237.66666666666669</ele><time>2026-05-01T15:20:28.001Z</time></trkpt><trkpt lat="42.2926815498146" lon="14.117025748771423"><ele>235.5</ele><time>2026-05-01T15:20:29.001Z</time></trkpt><trkpt lat="42.29263606129899" lon="14.11693270656666"><ele>233.33333333333331</ele><time>2026-05-01T15:20:30.001Z</time></trkpt><trkpt lat="42.292592808338284" lon="14.116839013705434"><ele>231.16666666666666</ele><time>2026-05-01T15:20:31.001Z</time></trkpt><trkpt lat="42.292547462250994" lon="14.116745287099958"><ele>229.0</ele><time>2026-05-01T15:20:32.001Z</time></trkpt><trkpt lat="42.29249775726643" lon="14.116652552774564"><ele>225.5</ele><time>2026-05-01T15:20:33.001Z</time></trkpt><trkpt lat="42.29243586458886" lon="14.116552877018826"><ele>222.0</ele><time>2026-05-01T15:20:34.001Z</time></trkpt><trkpt lat="42.292366494200984" lon="14.116445549752585"><ele>218.5</ele><time>2026-05-01T15:20:35.001Z</time></trkpt><trkpt lat="42.29228118565668" lon="14.116324220556203"><ele>215.0</ele><time>2026-05-01T15:20:36.001Z</time></trkpt><trkpt lat="42.29218620881281" lon="14.116200105458196"><ele>215.0</ele><time>2026-05-01T15:20:37.001Z</time></trkpt><trkpt lat="42.29208652834541" lon="14.116066981014447"><ele>215.0</ele><time>2026-05-01T15:20:38.001Z</time></trkpt><trkpt lat="42.291972557764545" lon="14.115954196020127"><ele>215.0</ele><time>2026-05-01T15:20:39.001Z</time></trkpt><trkpt lat="42.291890697612544" lon="14.11581694222145"><ele>215.0</ele><time>2026-05-01T15:20:40.001Z</time></trkpt><trkpt lat="42.29179338273321" lon="14.115707116430151"><ele>214.25</ele><time>2026-05-01T15:20:41.001Z</time></trkpt><trkpt lat="42.2917158873448" lon="14.115583734833157"><ele>213.5</ele><time>2026-05-01T15:20:42.001Z</time></trkpt><trkpt lat="42.29164067397086" lon="14.115461168319225"><ele>212.75</ele><time>2026-05-01T15:20:43.001Z</time></trkpt><trkpt lat="42.291558756356366" lon="14.11533646099946"><ele>212.0</ele><time>2026-05-01T15:20:44.001Z</time></trkpt><trkpt lat="42.29148826627799" lon="14.11522280225782"><ele>212.0</ele><time>2026-05-01T15:20:45.001Z</time></trkpt><trkpt lat="42.291432034843055" lon="14.115117471095594"><ele>212.0</ele><time>2026-05-01T15:20:46.001Z</time></trkpt><trkpt lat="42.291379151254816" lon="14.115017675457414"><ele>212.0</ele><time>2026-05-01T15:20:47.001Z</time></trkpt><trkpt lat="42.29132074850075" lon="14.114915906274774"><ele>212.0</ele><time>2026-05-01T15:20:48.001Z</time></trkpt><trkpt lat="42.29126694840477" lon="14.114804946667356"><ele>212.0</ele><time>2026-05-01T15:20:49.001Z</time></trkpt><trkpt lat="42.291214317362765" lon="14.114690736378083"><ele>212.39999999999998</ele><time>2026-05-01T15:20:50.001Z</time></trkpt><trkpt lat="42.29116173357259" lon="14.114569575588645"><ele>212.79999999999998</ele><time>2026-05-01T15:20:51.001Z</time></trkpt><trkpt lat="42.29110528923845" lon="14.114446527341691"><ele>213.2</ele><time>2026-05-01T15:20:52.001Z</time></trkpt><trkpt lat="42.291044962689654" lon="14.11431894160309"><ele>213.6</ele><time>2026-05-01T15:20:53.001Z</time></trkpt><trkpt lat="42.29099251112458" lon="14.114196149774857"><ele>214.0</ele><time>2026-05-01T15:20:54.001Z</time></trkpt><trkpt lat="42.290935188998496" lon="14.114065815676991"><ele>214.0</ele><time>2026-05-01T15:20:55.001Z</time></trkpt><trkpt lat="42.2908703080766" lon="14.113933775168539"><ele>214.0</ele><time>2026-05-01T15:20:56.001Z</time></trkpt><trkpt lat="42.29080532389889" lon="14.113794672246147"><ele>214.0</ele><time>2026-05-01T15:20:57.001Z</time></trkpt><trkpt lat="42.29074513144105" lon="14.113658393908782"><ele>214.0</ele><time>2026-05-01T15:20:58.001Z</time></trkpt><trkpt lat="42.2906850319725" lon="14.113521739032526"><ele>214.0</ele><time>2026-05-01T15:20:59.001Z</time></trkpt><trkpt lat="42.29062618956125" lon="14.113381246657875"><ele>214.0</ele><time>2026-05-01T15:21:00.001Z</time></trkpt><trkpt lat="42.29056840330699" lon="14.113236537029985"><ele>214.0</ele><time>2026-05-01T15:21:01.001Z</time></trkpt><trkpt lat="42.290518560309394" lon="14.11308453364669"><ele>214.0</ele><time>2026-05-01T15:21:02.001Z</time></trkpt><trkpt lat="42.290472641267506" lon="14.11292290315039"><ele>215.25</ele><time>2026-05-01T15:21:03.001Z</time></trkpt><trkpt lat="42.29043010285367" lon="14.11275921471088"><ele>216.5</ele><time>2026-05-01T15:21:04.001Z</time></trkpt><trkpt lat="42.29038503375803" lon="14.112594281009363"><ele>217.75</ele><time>2026-05-01T15:21:05.001Z</time></trkpt><trkpt lat="42.290344423906056" lon="14.112419180481222"><ele>219.0</ele><time>2026-05-01T15:21:06.001Z</time></trkpt><trkpt lat="42.29030714205074" lon="14.112242981482096"><ele>219.0</ele><time>2026-05-01T15:21:07.001Z</time></trkpt><trkpt lat="42.29027167584266" lon="14.112064693296743"><ele>219.0</ele><time>2026-05-01T15:21:08.001Z</time></trkpt><trkpt lat="42.29023285310761" lon="14.111881712785198"><ele>219.0</ele><time>2026-05-01T15:21:09.001Z</time></trkpt><trkpt lat="42.29019545451054" lon="14.111684415254073"><ele>219.0</ele><time>2026-05-01T15:21:10.001Z</time></trkpt><trkpt lat="42.29016228846484" lon="14.11149429538409"><ele>217.25</ele><time>2026-05-01T15:21:11.001Z</time></trkpt><trkpt lat="42.29014590763681" lon="14.111310348539138"><ele>215.5</ele><time>2026-05-01T15:21:12.001Z</time></trkpt><trkpt lat="42.29014714321656" lon="14.111124632341609"><ele>213.75</ele><time>2026-05-01T15:21:13.001Z</time></trkpt><trkpt lat="42.290165154706" lon="14.110949449555312"><ele>212.0</ele><time>2026-05-01T15:21:14.001Z</time></trkpt><trkpt lat="42.29020963027892" lon="14.110792223007598"><ele>209.25</ele><time>2026-05-01T15:21:15.001Z</time></trkpt><trkpt lat="42.290266202241526" lon="14.11062669898143"><ele>206.5</ele><time>2026-05-01T15:21:16.001Z</time></trkpt><trkpt lat="42.29032705392207" lon="14.110479316608002"><ele>203.75</ele><time>2026-05-01T15:21:17.001Z</time></trkpt><trkpt lat="42.29040424310973" lon="14.110359111379246"><ele>201.0</ele><time>2026-05-01T15:21:18.001Z</time></trkpt><trkpt lat="42.29049746886229" lon="14.11026078187102"><ele>202.5</ele><time>2026-05-01T15:21:19.001Z</time></trkpt><trkpt lat="42.290614132974774" lon="14.110173457921112"><ele>204.0</ele><time>2026-05-01T15:21:20.001Z</time></trkpt><trkpt lat="42.290734386603894" lon="14.110083938719734"><ele>205.5</ele><time>2026-05-01T15:21:21.001Z</time></trkpt><trkpt lat="42.29085356458995" lon="14.109976990737069"><ele>207.0</ele><time>2026-05-01T15:21:22.001Z</time></trkpt><trkpt lat="42.29096421839575" lon="14.109863902408968"><ele>207.0</ele><time>2026-05-01T15:21:23.001Z</time></trkpt><trkpt lat="42.291074045925086" lon="14.109740543384842"><ele>207.0</ele><time>2026-05-01T15:21:24.001Z</time></trkpt><trkpt lat="42.291181960351054" lon="14.109598742594969"><ele>207.0</ele><time>2026-05-01T15:21:25.001Z</time></trkpt><trkpt lat="42.291294863876246" lon="14.109459095505617"><ele>207.0</ele><time>2026-05-01T15:21:26.001Z</time></trkpt><trkpt lat="42.29141364159303" lon="14.109335380780632"><ele>211.25</ele><time>2026-05-01T15:21:27.001Z</time></trkpt><trkpt lat="42.291540205144415" lon="14.109234132866904"><ele>215.5</ele><time>2026-05-01T15:21:28.001Z</time></trkpt><trkpt lat="42.291670465797615" lon="14.109166344436927"><ele>219.75</ele><time>2026-05-01T15:21:29.001Z</time></trkpt><trkpt lat="42.29178450127166" lon="14.109107513829388"><ele>224.0</ele><time>2026-05-01T15:21:30.001Z</time></trkpt><trkpt lat="42.291897856677686" lon="14.109034185753957"><ele>223.5</ele><time>2026-05-01T15:21:31.001Z</time></trkpt><trkpt lat="42.292008868851724" lon="14.108940648640171"><ele>223.0</ele><time>2026-05-01T15:21:32.001Z</time></trkpt><trkpt lat="42.29212802968751" lon="14.10882962903366"><ele>222.5</ele><time>2026-05-01T15:21:33.001Z</time></trkpt><trkpt lat="42.29224346666505" lon="14.108705808681911"><ele>222.0</ele><time>2026-05-01T15:21:34.001Z</time></trkpt><trkpt lat="42.29234769174769" lon="14.108549615815418"><ele>222.0</ele><time>2026-05-01T15:21:35.001Z</time></trkpt><trkpt lat="42.29243696684208" lon="14.108382825821138"><ele>222.0</ele><time>2026-05-01T15:21:36.001Z</time></trkpt><trkpt lat="42.29251801045692" lon="14.108201220243545"><ele>222.0</ele><time>2026-05-01T15:21:37.001Z</time></trkpt><trkpt lat="42.292575634759714" lon="14.108027634669396"><ele>223.25</ele><time>2026-05-01T15:21:38.001Z</time></trkpt><trkpt lat="42.292639274252615" lon="14.107854211225924"><ele>224.5</ele><time>2026-05-01T15:21:39.001Z</time></trkpt><trkpt lat="42.29271249197983" lon="14.107681837866727"><ele>225.75</ele><time>2026-05-01T15:21:40.001Z</time></trkpt><trkpt lat="42.292780870433" lon="14.107504396122012"><ele>227.0</ele><time>2026-05-01T15:21:41.001Z</time></trkpt><trkpt lat="42.292849880063464" lon="14.107325013879208"><ele>227.75</ele><time>2026-05-01T15:21:42.001Z</time></trkpt><trkpt lat="42.29291720201653" lon="14.107142782173234"><ele>228.5</ele><time>2026-05-01T15:21:43.001Z</time></trkpt><trkpt lat="42.292980049535146" lon="14.106959085853013"><ele>229.25</ele><time>2026-05-01T15:21:44.001Z</time></trkpt><trkpt lat="42.293044283750454" lon="14.106778851732976"><ele>230.0</ele><time>2026-05-01T15:21:45.001Z</time></trkpt><trkpt lat="42.29310651943753" lon="14.10661605153273"><ele>226.75</ele><time>2026-05-01T15:21:46.001Z</time></trkpt><trkpt lat="42.29316344444951" lon="14.10646616541672"><ele>223.5</ele><time>2026-05-01T15:21:47.001Z</time></trkpt><trkpt lat="42.29322063184532" lon="14.106321878762712"><ele>220.25</ele><time>2026-05-01T15:21:48.001Z</time></trkpt><trkpt lat="42.293284956033695" lon="14.106177038390994"><ele>217.0</ele><time>2026-05-01T15:21:49.001Z</time></trkpt><trkpt lat="42.29336578715081" lon="14.106031839397886"><ele>217.0</ele><time>2026-05-01T15:21:50.001Z</time></trkpt><trkpt lat="42.29346069373046" lon="14.105889931730195"><ele>217.0</ele><time>2026-05-01T15:21:51.001Z</time></trkpt><trkpt lat="42.29355983858132" lon="14.105746785410425"><ele>217.0</ele><time>2026-05-01T15:21:52.001Z</time></trkpt><trkpt lat="42.29366919753022" lon="14.10560060337351"><ele>217.0</ele><time>2026-05-01T15:21:53.001Z</time></trkpt><trkpt lat="42.2937718282792" lon="14.105450380087285"><ele>218.0</ele><time>2026-05-01T15:21:54.001Z</time></trkpt><trkpt lat="42.29386856765854" lon="14.105290039326352"><ele>219.0</ele><time>2026-05-01T15:21:55.001Z</time></trkpt><trkpt lat="42.293960607348275" lon="14.105122115933192"><ele>220.0</ele><time>2026-05-01T15:21:56.001Z</time></trkpt><trkpt lat="42.29404809724536" lon="14.104945722901212"><ele>216.33333333333331</ele><time>2026-05-01T15:21:57.001Z</time></trkpt><trkpt lat="42.294135682060826" lon="14.104768823566857"><ele>212.66666666666669</ele><time>2026-05-01T15:21:58.001Z</time></trkpt><trkpt lat="42.29422147776064" lon="14.104598082233371"><ele>209.0</ele><time>2026-05-01T15:21:59.001Z</time></trkpt><trkpt lat="42.29430796841921" lon="14.10442651037234"><ele>209.0</ele><time>2026-05-01T15:22:00.001Z</time></trkpt><trkpt lat="42.294391693149734" lon="14.1042615845149"><ele>209.0</ele><time>2026-05-01T15:22:01.001Z</time></trkpt><trkpt lat="42.29447509013902" lon="14.104100567274767"><ele>209.0</ele><time>2026-05-01T15:22:02.001Z</time></trkpt><trkpt lat="42.294559037320184" lon="14.103938233837155"><ele>209.0</ele><time>2026-05-01T15:22:03.001Z</time></trkpt><trkpt lat="42.294638811133225" lon="14.103774976430115"><ele>209.0</ele><time>2026-05-01T15:22:04.001Z</time></trkpt><trkpt lat="42.29471787791603" lon="14.103607250955003"><ele>209.0</ele><time>2026-05-01T15:22:05.001Z</time></trkpt><trkpt lat="42.29479764799193" lon="14.103440569682599"><ele>209.0</ele><time>2026-05-01T15:22:06.001Z</time></trkpt><trkpt lat="42.294877169954574" lon="14.103275344851935"><ele>209.0</ele><time>2026-05-01T15:22:07.001Z</time></trkpt><trkpt lat="42.29495583480569" lon="14.103110075112584"><ele>207.75</ele><time>2026-05-01T15:22:08.001Z</time></trkpt><trkpt lat="42.29503302267378" lon="14.102946522571626"><ele>206.5</ele><time>2026-05-01T15:22:09.001Z</time></trkpt><trkpt lat="42.29511642432575" lon="14.102787835056697"><ele>205.25</ele><time>2026-05-01T15:22:10.001Z</time></trkpt><trkpt lat="42.295202883246155" lon="14.102636150198064"><ele>204.0</ele><time>2026-05-01T15:22:11.001Z</time></trkpt><trkpt lat="42.295288508610575" lon="14.102485178122457"><ele>203.75</ele><time>2026-05-01T15:22:12.001Z</time></trkpt><trkpt lat="42.29537961535427" lon="14.102338553503259"><ele>203.5</ele><time>2026-05-01T15:22:13.001Z</time></trkpt><trkpt lat="42.29547727342392" lon="14.102203607766809"><ele>203.25</ele><time>2026-05-01T15:22:14.001Z</time></trkpt><trkpt lat="42.295583027057766" lon="14.102070612395709"><ele>203.0</ele><time>2026-05-01T15:22:15.001Z</time></trkpt><trkpt lat="42.29568763477271" lon="14.1019479497307"><ele>202.75</ele><time>2026-05-01T15:22:16.001Z</time></trkpt><trkpt lat="42.295785266858395" lon="14.101833445343768"><ele>202.5</ele><time>2026-05-01T15:22:17.001Z</time></trkpt><trkpt lat="42.2958834696339" lon="14.101722648722767"><ele>202.25</ele><time>2026-05-01T15:22:18.001Z</time></trkpt><trkpt lat="42.29597858017259" lon="14.10160122776507"><ele>202.0</ele><time>2026-05-01T15:22:19.001Z</time></trkpt><trkpt lat="42.296074387418074" lon="14.101460446713217"><ele>202.75</ele><time>2026-05-01T15:22:20.001Z</time></trkpt><trkpt lat="42.296169486609614" lon="14.101316833465125"><ele>203.5</ele><time>2026-05-01T15:22:21.001Z</time></trkpt><trkpt lat="42.29626413538984" lon="14.10117578340965"><ele>204.25</ele><time>2026-05-01T15:22:22.001Z</time></trkpt><trkpt lat="42.29636321940353" lon="14.101034625693948"><ele>205.0</ele><time>2026-05-01T15:22:23.001Z</time></trkpt><trkpt lat="42.29646468005657" lon="14.100896767154248"><ele>203.75</ele><time>2026-05-01T15:22:24.001Z</time></trkpt><trkpt lat="42.29657398385851" lon="14.1007663782246"><ele>202.5</ele><time>2026-05-01T15:22:25.001Z</time></trkpt><trkpt lat="42.29669096837679" lon="14.100649619624333"><ele>201.25</ele><time>2026-05-01T15:22:26.001Z</time></trkpt><trkpt lat="42.296815089814544" lon="14.100542574754723"><ele>200.0</ele><time>2026-05-01T15:22:27.001Z</time></trkpt><trkpt lat="42.29694013199743" lon="14.100434652170566"><ele>200.0</ele><time>2026-05-01T15:22:28.001Z</time></trkpt><trkpt lat="42.29706203916036" lon="14.10030756423774"><ele>200.0</ele><time>2026-05-01T15:22:29.001Z</time></trkpt><trkpt lat="42.297165591205065" lon="14.100174092157534"><ele>200.0</ele><time>2026-05-01T15:22:30.001Z</time></trkpt><trkpt lat="42.29726002885722" lon="14.100036187956869"><ele>200.0</ele><time>2026-05-01T15:22:31.001Z</time></trkpt><trkpt lat="42.29735072319769" lon="14.099892163429178"><ele>196.0</ele><time>2026-05-01T15:22:32.001Z</time></trkpt><trkpt lat="42.29743560364074" lon="14.099743057703307"><ele>192.0</ele><time>2026-05-01T15:22:33.001Z</time></trkpt><trkpt lat="42.29750519668251" lon="14.099588530913573"><ele>188.0</ele><time>2026-05-01T15:22:34.001Z</time></trkpt><trkpt lat="42.29756170071956" lon="14.099423351769445"><ele>184.0</ele><time>2026-05-01T15:22:35.001Z</time></trkpt><trkpt lat="42.29759564349683" lon="14.099248379137864"><ele>182.75</ele><time>2026-05-01T15:22:36.001Z</time></trkpt><trkpt lat="42.297618309772005" lon="14.099076668220743"><ele>181.5</ele><time>2026-05-01T15:22:37.001Z</time></trkpt><trkpt lat="42.297628657011316" lon="14.09890384227466"><ele>180.25</ele><time>2026-05-01T15:22:38.001Z</time></trkpt><trkpt lat="42.297629358400876" lon="14.098735222295161"><ele>179.0</ele><time>2026-05-01T15:22:39.001Z</time></trkpt><trkpt lat="42.297628522691625" lon="14.098568952921164"><ele>179.0</ele><time>2026-05-01T15:22:40.001Z</time></trkpt><trkpt lat="42.29762612881978" lon="14.098407632796377"><ele>179.0</ele><time>2026-05-01T15:22:41.001Z</time></trkpt><trkpt lat="42.29762712516304" lon="14.098253557733928"><ele>179.0</ele><time>2026-05-01T15:22:42.001Z</time></trkpt><trkpt lat="42.29763212164833" lon="14.09811300213013"><ele>179.0</ele><time>2026-05-01T15:22:43.001Z</time></trkpt><trkpt lat="42.29764534421201" lon="14.097984787856287"><ele>179.0</ele><time>2026-05-01T15:22:44.001Z</time></trkpt><trkpt lat="42.29766164928348" lon="14.097877807325293"><ele>179.2</ele><time>2026-05-01T15:22:45.001Z</time></trkpt><trkpt lat="42.29767964104436" lon="14.097789467473026"><ele>179.39999999999998</ele><time>2026-05-01T15:22:46.001Z</time></trkpt><trkpt lat="42.297718261599165" lon="14.09766837458872"><ele>179.6</ele><time>2026-05-01T15:22:48.001Z</time></trkpt><trkpt lat="42.29776994564986" lon="14.097842847191028"><ele>179.8</ele><time>2026-05-01T15:22:53.001Z</time></trkpt><trkpt lat="42.29778192562943" lon="14.097948499802447"><ele>180.0</ele><time>2026-05-01T15:22:54.001Z</time></trkpt><trkpt lat="42.2978325040681" lon="14.098043001367747"><ele>180.0</ele><time>2026-05-01T15:22:55.001Z</time></trkpt><trkpt lat="42.297913507072984" lon="14.09810342216904"><ele>180.0</ele><time>2026-05-01T15:22:56.001Z</time></trkpt><trkpt lat="42.298002862259736" lon="14.09811960923645"><ele>180.0</ele><time>2026-05-01T15:22:57.001Z</time></trkpt><trkpt lat="42.298083288569124" lon="14.098165866770188"><ele>180.0</ele><time>2026-05-01T15:22:58.001Z</time></trkpt><trkpt lat="42.29815345456603" lon="14.098225990099953"><ele>180.0</ele><time>2026-05-01T15:22:59.001Z</time></trkpt><trkpt lat="42.29818703283357" lon="14.098318402774812"><ele>180.0</ele><time>2026-05-01T15:23:00.001Z</time></trkpt><trkpt lat="42.29824470061027" lon="14.098378802318509"><ele>176.66666666666666</ele><time>2026-05-01T15:23:01.001Z</time></trkpt><trkpt lat="42.29831328250629" lon="14.098417386941886"><ele>173.33333333333334</ele><time>2026-05-01T15:23:02.001Z</time></trkpt><trkpt lat="42.29837473326854" lon="14.098485406594124"><ele>170.0</ele><time>2026-05-01T15:23:03.001Z</time></trkpt><trkpt lat="42.29844901989744" lon="14.098540367425155"><ele>166.66666666666669</ele><time>2026-05-01T15:23:04.001Z</time></trkpt><trkpt lat="42.29852320920414" lon="14.098588353726461"><ele>163.33333333333334</ele><time>2026-05-01T15:23:05.001Z</time></trkpt><trkpt lat="42.29860852297909" lon="14.098601723628516"><ele>160.0</ele><time>2026-05-01T15:23:06.001Z</time></trkpt><trkpt lat="42.2986850815434" lon="14.098627148975348"><ele>160.0</ele><time>2026-05-01T15:23:07.001Z</time></trkpt><trkpt lat="42.298763523156715" lon="14.098644045867239"><ele>160.0</ele><time>2026-05-01T15:23:08.001Z</time></trkpt><trkpt lat="42.298840947626026" lon="14.09868153420983"><ele>160.0</ele><time>2026-05-01T15:23:09.001Z</time></trkpt><trkpt lat="42.29892098941025" lon="14.098701665583459"><ele>160.0</ele><time>2026-05-01T15:23:10.001Z</time></trkpt><trkpt lat="42.299007710429514" lon="14.098723476818448"><ele>160.0</ele><time>2026-05-01T15:23:11.001Z</time></trkpt><trkpt lat="42.29910343929203" lon="14.098728678247545"><ele>160.0</ele><time>2026-05-01T15:23:12.001Z</time></trkpt><trkpt lat="42.29920337900028" lon="14.098754989810788"><ele>155.8</ele><time>2026-05-01T15:23:13.001Z</time></trkpt><trkpt lat="42.299304593327406" lon="14.098775633147056"><ele>151.6</ele><time>2026-05-01T15:23:14.001Z</time></trkpt><trkpt lat="42.29940591643563" lon="14.0987862251939"><ele>147.4</ele><time>2026-05-01T15:23:15.001Z</time></trkpt><trkpt lat="42.29950735835259" lon="14.098787617588775"><ele>143.2</ele><time>2026-05-01T15:23:16.001Z</time></trkpt><trkpt lat="42.299606762692214" lon="14.098775215042993"><ele>139.0</ele><time>2026-05-01T15:23:17.001Z</time></trkpt><trkpt lat="42.299702032312645" lon="14.098757310924762"><ele>136.4</ele><time>2026-05-01T15:23:18.001Z</time></trkpt><trkpt lat="42.29979660631502" lon="14.098737287805712"><ele>133.8</ele><time>2026-05-01T15:23:19.001Z</time></trkpt><trkpt lat="42.299888272679034" lon="14.098714544079245"><ele>131.2</ele><time>2026-05-01T15:23:20.001Z</time></trkpt><trkpt lat="42.299978536672484" lon="14.098691207205821"><ele>128.6</ele><time>2026-05-01T15:23:21.001Z</time></trkpt><trkpt lat="42.3000694185319" lon="14.0986612603803"><ele>126.0</ele><time>2026-05-01T15:23:22.001Z</time></trkpt><trkpt lat="42.300162282339265" lon="14.098620643406187"><ele>126.0</ele><time>2026-05-01T15:23:23.001Z</time></trkpt><trkpt lat="42.30025868528822" lon="14.09856676479462"><ele>126.0</ele><time>2026-05-01T15:23:24.001Z</time></trkpt><trkpt lat="42.30035382854691" lon="14.098499114947813"><ele>126.0</ele><time>2026-05-01T15:23:25.001Z</time></trkpt><trkpt lat="42.30045642972519" lon="14.098441278911185"><ele>126.0</ele><time>2026-05-01T15:23:26.001Z</time></trkpt><trkpt lat="42.30054619883829" lon="14.098352780342198"><ele>126.0</ele><time>2026-05-01T15:23:27.001Z</time></trkpt><trkpt lat="42.300613287777246" lon="14.098235395404132"><ele>123.0</ele><time>2026-05-01T15:23:28.001Z</time></trkpt><trkpt lat="42.300695524031006" lon="14.098142672301194"><ele>120.0</ele><time>2026-05-01T15:23:29.001Z</time></trkpt><trkpt lat="42.3007775656384" lon="14.09805668953118"><ele>117.0</ele><time>2026-05-01T15:23:30.001Z</time></trkpt><trkpt lat="42.30086856122773" lon="14.09798573630654"><ele>114.0</ele><time>2026-05-01T15:23:31.001Z</time></trkpt><trkpt lat="42.30097008176065" lon="14.09793362621704"><ele>111.0</ele><time>2026-05-01T15:23:32.001Z</time></trkpt><trkpt lat="42.3010741099365" lon="14.097888556997388"><ele>111.0</ele><time>2026-05-01T15:23:33.001Z</time></trkpt><trkpt lat="42.30117982016445" lon="14.097849207282938"><ele>111.0</ele><time>2026-05-01T15:23:34.001Z</time></trkpt><trkpt lat="42.30128508336029" lon="14.097818827781891"><ele>111.0</ele><time>2026-05-01T15:23:35.001Z</time></trkpt><trkpt lat="42.301385615066856" lon="14.09780902990072"><ele>111.0</ele><time>2026-05-01T15:23:36.001Z</time></trkpt><trkpt lat="42.30147545352432" lon="14.097817861998191"><ele>111.0</ele><time>2026-05-01T15:23:37.001Z</time></trkpt><trkpt lat="42.30155739307296" lon="14.09783593935693"><ele>110.0</ele><time>2026-05-01T15:23:38.001Z</time></trkpt><trkpt lat="42.30163703310195" lon="14.097831865200314"><ele>109.0</ele><time>2026-05-01T15:23:40.001Z</time></trkpt><trkpt lat="42.301671669641024" lon="14.097661940179908"><ele>108.0</ele><time>2026-05-01T15:23:43.001Z</time></trkpt><trkpt lat="42.30167576893448" lon="14.097556087122797"><ele>107.0</ele><time>2026-05-01T15:23:44.001Z</time></trkpt><trkpt lat="42.30169617128804" lon="14.097448142360435"><ele>106.0</ele><time>2026-05-01T15:23:45.001Z</time></trkpt><trkpt lat="42.30172017800828" lon="14.097305583688435"><ele>105.75</ele><time>2026-05-01T15:23:46.001Z</time></trkpt><trkpt lat="42.30174639516138" lon="14.097152715889493"><ele>105.5</ele><time>2026-05-01T15:23:47.001Z</time></trkpt><trkpt lat="42.30177488701853" lon="14.09698295598305"><ele>105.25</ele><time>2026-05-01T15:23:48.001Z</time></trkpt><trkpt lat="42.30180417272291" lon="14.09681116491025"><ele>105.0</ele><time>2026-05-01T15:23:49.001Z</time></trkpt><trkpt lat="42.30185469792896" lon="14.096620328400846"><ele>106.0</ele><time>2026-05-01T15:23:50.001Z</time></trkpt><trkpt lat="42.3018921215163" lon="14.096410348611718"><ele>107.0</ele><time>2026-05-01T15:23:51.001Z</time></trkpt><trkpt lat="42.30192185053451" lon="14.096204270955653"><ele>108.0</ele><time>2026-05-01T15:23:52.001Z</time></trkpt><trkpt lat="42.301945290550705" lon="14.096014303447987"><ele>108.0</ele><time>2026-05-01T15:23:53.001Z</time></trkpt><trkpt lat="42.30194999279447" lon="14.095827805262452"><ele>108.0</ele><time>2026-05-01T15:23:54.001Z</time></trkpt><trkpt lat="42.30197296087365" lon="14.095644599480186"><ele>108.0</ele><time>2026-05-01T15:23:55.001Z</time></trkpt><trkpt lat="42.30199424382043" lon="14.095459766618085"><ele>108.0</ele><time>2026-05-01T15:23:56.001Z</time></trkpt><trkpt lat="42.302014675997924" lon="14.095286533824142"><ele>107.5</ele><time>2026-05-01T15:23:57.001Z</time></trkpt><trkpt lat="42.30203454580336" lon="14.095121457505114"><ele>107.0</ele><time>2026-05-01T15:23:58.001Z</time></trkpt><trkpt lat="42.30205603575074" lon="14.094961952569642"><ele>106.5</ele><time>2026-05-01T15:23:59.001Z</time></trkpt><trkpt lat="42.30207314181509" lon="14.0948080205116"><ele>106.0</ele><time>2026-05-01T15:24:00.001Z</time></trkpt><trkpt lat="42.30207490694878" lon="14.09465930608252"><ele>106.0</ele><time>2026-05-01T15:24:01.001Z</time></trkpt><trkpt lat="42.302039236833636" lon="14.094523220324461"><ele>106.0</ele><time>2026-05-01T15:24:02.001Z</time></trkpt><trkpt lat="42.30199117739961" lon="14.094381417899813"><ele>106.0</ele><time>2026-05-01T15:24:03.001Z</time></trkpt><trkpt lat="42.301984068743685" lon="14.094224898540517"><ele>106.0</ele><time>2026-05-01T15:24:04.001Z</time></trkpt><trkpt lat="42.30196624593064" lon="14.094065016065114"><ele>106.0</ele><time>2026-05-01T15:24:05.001Z</time></trkpt><trkpt lat="42.301907005419224" lon="14.093909269763026"><ele>106.0</ele><time>2026-05-01T15:24:06.001Z</time></trkpt><trkpt lat="42.30181627102926" lon="14.093780806544142"><ele>106.0</ele><time>2026-05-01T15:24:07.001Z</time></trkpt><trkpt lat="42.30173647211499" lon="14.093671226446798"><ele>106.0</ele><time>2026-05-01T15:24:08.001Z</time></trkpt><trkpt lat="42.30168414247533" lon="14.093566466153492"><ele>106.0</ele><time>2026-05-01T15:24:09.001Z</time></trkpt><trkpt lat="42.301653873924856" lon="14.093475752551717"><ele>106.0</ele><time>2026-05-01T15:24:10.001Z</time></trkpt><trkpt lat="42.30168532835423" lon="14.09339141307268"><ele>106.0</ele><time>2026-05-01T15:24:11.001Z</time></trkpt><trkpt lat="42.30175815988832" lon="14.093329628992635"><ele>106.0</ele><time>2026-05-01T15:24:12.001Z</time></trkpt><trkpt lat="42.30186997258262" lon="14.093275451808266"><ele>106.0</ele><time>2026-05-01T15:24:13.001Z</time></trkpt><trkpt lat="42.30200002579314" lon="14.093217142917874"><ele>108.25</ele><time>2026-05-01T15:24:14.001Z</time></trkpt><trkpt lat="42.30212332952544" lon="14.09314945609685"><ele>110.5</ele><time>2026-05-01T15:24:15.001Z</time></trkpt><trkpt lat="42.302252929453545" lon="14.09308039555903"><ele>112.75</ele><time>2026-05-01T15:24:16.001Z</time></trkpt><trkpt lat="42.30237224327213" lon="14.093018470589156"><ele>115.0</ele><time>2026-05-01T15:24:17.001Z</time></trkpt><trkpt lat="42.30247740812227" lon="14.092961946368382"><ele>115.0</ele><time>2026-05-01T15:24:18.001Z</time></trkpt><trkpt lat="42.302568501039644" lon="14.09291372794962"><ele>115.0</ele><time>2026-05-01T15:24:19.001Z</time></trkpt><trkpt lat="42.30265538196207" lon="14.092864510899016"><ele>115.0</ele><time>2026-05-01T15:24:20.001Z</time></trkpt><trkpt lat="42.30274233439996" lon="14.092812174253218"><ele>115.0</ele><time>2026-05-01T15:24:21.001Z</time></trkpt><trkpt lat="42.302832214351106" lon="14.09274734952655"><ele>115.0</ele><time>2026-05-01T15:24:22.001Z</time></trkpt><trkpt lat="42.30292235049436" lon="14.092657775443922"><ele>115.0</ele><time>2026-05-01T15:24:23.001Z</time></trkpt><trkpt lat="42.30301088884594" lon="14.092543189978347"><ele>115.0</ele><time>2026-05-01T15:24:24.001Z</time></trkpt><trkpt lat="42.30310358640367" lon="14.09241319598528"><ele>115.0</ele><time>2026-05-01T15:24:25.001Z</time></trkpt><trkpt lat="42.303199874887596" lon="14.092272680699319"><ele>115.0</ele><time>2026-05-01T15:24:26.001Z</time></trkpt><trkpt lat="42.30329539967401" lon="14.09214310361733"><ele>114.0</ele><time>2026-05-01T15:24:27.001Z</time></trkpt><trkpt lat="42.3033885722117" lon="14.092025930871946"><ele>113.0</ele><time>2026-05-01T15:24:28.001Z</time></trkpt><trkpt lat="42.303482773088646" lon="14.091919758324147"><ele>112.0</ele><time>2026-05-01T15:24:29.001Z</time></trkpt><trkpt lat="42.30358627989967" lon="14.091833035730849"><ele>111.0</ele><time>2026-05-01T15:24:30.001Z</time></trkpt><trkpt lat="42.30370396719646" lon="14.09176066146441"><ele>111.0</ele><time>2026-05-01T15:24:31.001Z</time></trkpt><trkpt lat="42.303825112621965" lon="14.091700105805955"><ele>111.0</ele><time>2026-05-01T15:24:32.001Z</time></trkpt><trkpt lat="42.30394621605499" lon="14.091640063521355"><ele>111.0</ele><time>2026-05-01T15:24:33.001Z</time></trkpt><trkpt lat="42.30407400230607" lon="14.091572694313514"><ele>111.0</ele><time>2026-05-01T15:24:34.001Z</time></trkpt><trkpt lat="42.30419245367609" lon="14.091507663829132"><ele>111.25</ele><time>2026-05-01T15:24:35.001Z</time></trkpt><trkpt lat="42.304303788447726" lon="14.091443681675178"><ele>111.5</ele><time>2026-05-01T15:24:36.001Z</time></trkpt><trkpt lat="42.30441201923694" lon="14.091386158528488"><ele>111.75</ele><time>2026-05-01T15:24:37.001Z</time></trkpt><trkpt lat="42.30451681126634" lon="14.091329309224657"><ele>112.0</ele><time>2026-05-01T15:24:38.001Z</time></trkpt><trkpt lat="42.30462809671331" lon="14.091266369201064"><ele>112.0</ele><time>2026-05-01T15:24:39.001Z</time></trkpt><trkpt lat="42.304745609805124" lon="14.091193064456615"><ele>112.0</ele><time>2026-05-01T15:24:40.001Z</time></trkpt><trkpt lat="42.30485391733649" lon="14.091125471218021"><ele>112.0</ele><time>2026-05-01T15:24:41.001Z</time></trkpt><trkpt lat="42.30496006740543" lon="14.091062270554279"><ele>112.0</ele><time>2026-05-01T15:24:42.001Z</time></trkpt><trkpt lat="42.305062169879086" lon="14.09099953134833"><ele>111.0</ele><time>2026-05-01T15:24:43.001Z</time></trkpt><trkpt lat="42.30516207221718" lon="14.090931402870684"><ele>110.0</ele><time>2026-05-01T15:24:44.001Z</time></trkpt><trkpt lat="42.305269269299544" lon="14.090859342135923"><ele>109.0</ele><time>2026-05-01T15:24:45.001Z</time></trkpt><trkpt lat="42.30538348674744" lon="14.090789996146567"><ele>108.0</ele><time>2026-05-01T15:24:46.001Z</time></trkpt><trkpt lat="42.30549977499343" lon="14.09070853394085"><ele>105.0</ele><time>2026-05-01T15:24:47.001Z</time></trkpt><trkpt lat="42.30561655884243" lon="14.090641601849715"><ele>102.0</ele><time>2026-05-01T15:24:48.001Z</time></trkpt><trkpt lat="42.30572963410524" lon="14.090571666075302"><ele>99.0</ele><time>2026-05-01T15:24:49.001Z</time></trkpt><trkpt lat="42.30583614205431" lon="14.090494543730806"><ele>96.0</ele><time>2026-05-01T15:24:50.001Z</time></trkpt><trkpt lat="42.30593545237187" lon="14.090414362346252"><ele>96.0</ele><time>2026-05-01T15:24:51.001Z</time></trkpt><trkpt lat="42.30604095297769" lon="14.090326429170108"><ele>96.0</ele><time>2026-05-01T15:24:52.001Z</time></trkpt><trkpt lat="42.30614306809826" lon="14.090237468562998"><ele>96.0</ele><time>2026-05-01T15:24:53.001Z</time></trkpt><trkpt lat="42.30624348166161" lon="14.09013719144988"><ele>96.0</ele><time>2026-05-01T15:24:54.001Z</time></trkpt><trkpt lat="42.30633964694733" lon="14.090008355321144"><ele>95.25</ele><time>2026-05-01T15:24:55.001Z</time></trkpt><trkpt lat="42.30641926810142" lon="14.089854633337582"><ele>94.5</ele><time>2026-05-01T15:24:56.001Z</time></trkpt><trkpt lat="42.306476628236574" lon="14.089692002887771"><ele>93.75</ele><time>2026-05-01T15:24:57.001Z</time></trkpt><trkpt lat="42.306523205050695" lon="14.089556088131463"><ele>93.0</ele><time>2026-05-01T15:24:58.001Z</time></trkpt><trkpt lat="42.306580439746824" lon="14.089449764419577"><ele>93.0</ele><time>2026-05-01T15:24:59.001Z</time></trkpt><trkpt lat="42.306655455139726" lon="14.089379450143602"><ele>93.0</ele><time>2026-05-01T15:25:00.001Z</time></trkpt><trkpt lat="42.306743791836695" lon="14.08935283991286"><ele>93.0</ele><time>2026-05-01T15:25:01.001Z</time></trkpt><trkpt lat="42.306834621854726" lon="14.089372707163964"><ele>93.0</ele><time>2026-05-01T15:25:02.001Z</time></trkpt><trkpt lat="42.30691612695925" lon="14.089450975667184"><ele>93.0</ele><time>2026-05-01T15:25:03.001Z</time></trkpt><trkpt lat="42.30701518430322" lon="14.089503457893748"><ele>93.0</ele><time>2026-05-01T15:25:04.001Z</time></trkpt><trkpt lat="42.307122508097976" lon="14.089548450964106"><ele>93.0</ele><time>2026-05-01T15:25:05.001Z</time></trkpt><trkpt lat="42.30721355793817" lon="14.089595223875985"><ele>93.0</ele><time>2026-05-01T15:25:06.001Z</time></trkpt><trkpt lat="42.307300274188485" lon="14.089618028682022"><ele>93.0</ele><time>2026-05-01T15:25:07.001Z</time></trkpt><trkpt lat="42.307382664821404" lon="14.089620169518286"><ele>93.0</ele><time>2026-05-01T15:25:08.001Z</time></trkpt><trkpt lat="42.30746017352282" lon="14.08961872008633"><ele>92.80000000000001</ele><time>2026-05-01T15:25:09.001Z</time></trkpt><trkpt lat="42.30752075911869" lon="14.089652989461058"><ele>92.6</ele><time>2026-05-01T15:25:10.001Z</time></trkpt><trkpt lat="42.307649199454865" lon="14.08967977311179"><ele>92.4</ele><time>2026-05-01T15:25:12.001Z</time></trkpt><trkpt lat="42.307728194467195" lon="14.089712327485865"><ele>92.19999999999999</ele><time>2026-05-01T15:25:13.001Z</time></trkpt><trkpt lat="42.30781298558376" lon="14.08977121240852"><ele>92.0</ele><time>2026-05-01T15:25:14.001Z</time></trkpt><trkpt lat="42.30791327255776" lon="14.089807336866782"><ele>92.0</ele><time>2026-05-01T15:25:15.001Z</time></trkpt><trkpt lat="42.3080139365519" lon="14.089841138593746"><ele>92.0</ele><time>2026-05-01T15:25:16.001Z</time></trkpt><trkpt lat="42.30811523746718" lon="14.089874987649996"><ele>92.0</ele><time>2026-05-01T15:25:17.001Z</time></trkpt><trkpt lat="42.30821345189292" lon="14.08990414342903"><ele>92.0</ele><time>2026-05-01T15:25:18.001Z</time></trkpt><trkpt lat="42.30831799300671" lon="14.089912339522364"><ele>92.0</ele><time>2026-05-01T15:25:19.001Z</time></trkpt><trkpt lat="42.30840934151153" lon="14.089945718909973"><ele>90.33333333333334</ele><time>2026-05-01T15:25:20.001Z</time></trkpt><trkpt lat="42.308492620925946" lon="14.089973669051322"><ele>88.66666666666667</ele><time>2026-05-01T15:25:21.001Z</time></trkpt><trkpt lat="42.30856986725364" lon="14.089994495968119"><ele>87.0</ele><time>2026-05-01T15:25:22.001Z</time></trkpt><trkpt lat="42.30863774960377" lon="14.09001902342567"><ele>85.33333333333333</ele><time>2026-05-01T15:25:23.001Z</time></trkpt><trkpt lat="42.3087016001615" lon="14.090040016863806"><ele>83.66666666666666</ele><time>2026-05-01T15:25:24.001Z</time></trkpt><trkpt lat="42.30878147900625" lon="14.090071644078552"><ele>82.0</ele><time>2026-05-01T15:25:26.001Z</time></trkpt><trkpt lat="42.30884930283128" lon="14.090090270083737"><ele>81.33333333333333</ele><time>2026-05-01T15:25:38.001Z</time></trkpt><trkpt lat="42.30891306890548" lon="14.09014073892588"><ele>80.66666666666666</ele><time>2026-05-01T15:25:42.001Z</time></trkpt><trkpt lat="42.30897056832396" lon="14.090180482412316"><ele>80.0</ele><time>2026-05-01T15:25:45.001Z</time></trkpt><trkpt lat="42.309045926056896" lon="14.090232694228888"><ele>79.33333333333333</ele><time>2026-05-01T15:25:49.001Z</time></trkpt><trkpt lat="42.30912138708011" lon="14.090284977612848"><ele>78.66666666666667</ele><time>2026-05-01T15:25:51.001Z</time></trkpt><trkpt lat="42.309191146383434" lon="14.09032199641939"><ele>78.0</ele><time>2026-05-01T15:25:53.001Z</time></trkpt><trkpt lat="42.309243624217636" lon="14.09039490012504"><ele>78.0</ele><time>2026-05-01T15:25:55.001Z</time></trkpt><trkpt lat="42.309236448884754" lon="14.090493866170913"><ele>78.0</ele><time>2026-05-01T15:25:56.001Z</time></trkpt><trkpt lat="42.3092541595976" lon="14.090579488879102"><ele>78.0</ele><time>2026-05-01T15:25:58.001Z</time></trkpt><trkpt lat="42.30927332107718" lon="14.090688639048107"><ele>78.0</ele><time>2026-05-01T15:26:00.001Z</time></trkpt><trkpt lat="42.30929987227942" lon="14.090816491171013"><ele>78.0</ele><time>2026-05-01T15:26:02.001Z</time></trkpt><trkpt lat="42.30936509463959" lon="14.090911367635666"><ele>78.0</ele><time>2026-05-01T15:26:04.001Z</time></trkpt><trkpt lat="42.309462561330314" lon="14.090987193574"><ele>77.66666666666667</ele><time>2026-05-01T15:26:06.001Z</time></trkpt><trkpt lat="42.30954398728658" lon="14.091056363824132"><ele>77.33333333333333</ele><time>2026-05-01T15:26:08.001Z</time></trkpt><trkpt lat="42.309612257242854" lon="14.091135573428572"><ele>77.0</ele><time>2026-05-01T15:26:10.001Z</time></trkpt><trkpt lat="42.30967324310878" lon="14.09122246270009"><ele>76.66666666666666</ele><time>2026-05-01T15:26:12.001Z</time></trkpt><trkpt lat="42.30973018970516" lon="14.091305619724723"><ele>76.33333333333333</ele><time>2026-05-01T15:26:13.001Z</time></trkpt><trkpt lat="42.30979139453332" lon="14.091375994701512"><ele>76.0</ele><time>2026-05-01T15:26:14.001Z</time></trkpt><trkpt lat="42.309859045503956" lon="14.09146511188507"><ele>77.0</ele><time>2026-05-01T15:26:16.001Z</time></trkpt><trkpt lat="42.30992893328729" lon="14.091588008927156"><ele>78.0</ele><time>2026-05-01T15:26:18.001Z</time></trkpt><trkpt lat="42.30996702023053" lon="14.091658494984163"><ele>79.0</ele><time>2026-05-01T15:26:19.001Z</time></trkpt><trkpt lat="42.31003793176922" lon="14.091790467316814"><ele>80.0</ele><time>2026-05-01T15:26:21.001Z</time></trkpt><trkpt lat="42.31011237829764" lon="14.091926000081989"><ele>81.0</ele><time>2026-05-01T15:26:23.001Z</time></trkpt><trkpt lat="42.310156342356414" lon="14.091994989084816"><ele>81.83333333333333</ele><time>2026-05-01T15:26:24.001Z</time></trkpt><trkpt lat="42.31024417873741" lon="14.092126591509501"><ele>82.66666666666667</ele><time>2026-05-01T15:26:26.001Z</time></trkpt><trkpt lat="42.31029466828729" lon="14.092194596054192"><ele>83.5</ele><time>2026-05-01T15:26:27.001Z</time></trkpt><trkpt lat="42.31033991969487" lon="14.092259320230044"><ele>84.33333333333334</ele><time>2026-05-01T15:26:28.001Z</time></trkpt><trkpt lat="42.31038342912801" lon="14.092328881167795"><ele>85.16666666666667</ele><time>2026-05-01T15:26:29.001Z</time></trkpt><trkpt lat="42.31042740868308" lon="14.092408764472093"><ele>86.0</ele><time>2026-05-01T15:26:30.001Z</time></trkpt><trkpt lat="42.3104624632402" lon="14.092481991100152"><ele>87.0</ele><time>2026-05-01T15:26:31.001Z</time></trkpt><trkpt lat="42.310507352670854" lon="14.092563563310565"><ele>88.0</ele><time>2026-05-01T15:26:32.001Z</time></trkpt><trkpt lat="42.310556525387256" lon="14.092640796576797"><ele>89.0</ele><time>2026-05-01T15:26:33.001Z</time></trkpt><trkpt lat="42.31060158148602" lon="14.09271448220916"><ele>90.0</ele><time>2026-05-01T15:26:34.001Z</time></trkpt><trkpt lat="42.31068507176915" lon="14.092845476890394"><ele>91.0</ele><time>2026-05-01T15:26:36.001Z</time></trkpt><trkpt lat="42.31073003005045" lon="14.092921431243898"><ele>92.0</ele><time>2026-05-01T15:26:37.001Z</time></trkpt><trkpt lat="42.31077514864728" lon="14.092995361930049"><ele>92.0</ele><time>2026-05-01T15:26:38.001Z</time></trkpt><trkpt lat="42.310822635529604" lon="14.093069739869666"><ele>92.0</ele><time>2026-05-01T15:26:39.001Z</time></trkpt><trkpt lat="42.31087067499947" lon="14.093141300184877"><ele>92.0</ele><time>2026-05-01T15:26:40.001Z</time></trkpt><trkpt lat="42.31091998905077" lon="14.093215543412619"><ele>92.0</ele><time>2026-05-01T15:26:41.001Z</time></trkpt><trkpt lat="42.31096798100563" lon="14.093285412265496"><ele>92.0</ele><time>2026-05-01T15:26:42.001Z</time></trkpt><trkpt lat="42.31101859733098" lon="14.093352488981775"><ele>92.0</ele><time>2026-05-01T15:26:43.001Z</time></trkpt><trkpt lat="42.31106576717896" lon="14.09341419223194"><ele>92.0</ele><time>2026-05-01T15:26:44.001Z</time></trkpt><trkpt lat="42.31111131557979" lon="14.093476537024731"><ele>92.66666666666667</ele><time>2026-05-01T15:26:45.001Z</time></trkpt><trkpt lat="42.311186351160565" lon="14.093613735923455"><ele>93.33333333333334</ele><time>2026-05-01T15:26:47.001Z</time></trkpt><trkpt lat="42.311227017225505" lon="14.093692698285283"><ele>94.0</ele><time>2026-05-01T15:26:48.001Z</time></trkpt><trkpt lat="42.31126883388949" lon="14.093757360283128"><ele>94.66666666666667</ele><time>2026-05-01T15:26:49.001Z</time></trkpt><trkpt lat="42.311310563511604" lon="14.09382155460191"><ele>95.33333333333333</ele><time>2026-05-01T15:26:50.001Z</time></trkpt><trkpt lat="42.31137193072471" lon="14.093901663901951"><ele>96.0</ele><time>2026-05-01T15:26:52.001Z</time></trkpt><trkpt lat="42.311457441647306" lon="14.09387525106272"><ele>96.0</ele><time>2026-05-01T15:26:55.001Z</time></trkpt><trkpt lat="42.31150801447532" lon="14.09371828726782"><ele>96.0</ele><time>2026-05-01T15:26:57.001Z</time></trkpt><trkpt lat="42.311543514758306" lon="14.0936131346533"><ele>96.0</ele><time>2026-05-01T15:26:58.001Z</time></trkpt><trkpt lat="42.31158449006318" lon="14.093517003363463"><ele>96.0</ele><time>2026-05-01T15:26:59.001Z</time></trkpt><trkpt lat="42.31163223218892" lon="14.093414898308934"><ele>96.0</ele><time>2026-05-01T15:27:00.001Z</time></trkpt><trkpt lat="42.31169101864581" lon="14.093299332775832"><ele>95.19999999999999</ele><time>2026-05-01T15:27:01.001Z</time></trkpt><trkpt lat="42.31176317170693" lon="14.0931816538606"><ele>94.39999999999999</ele><time>2026-05-01T15:27:02.001Z</time></trkpt><trkpt lat="42.31183208638333" lon="14.093077201571923"><ele>93.6</ele><time>2026-05-01T15:27:03.001Z</time></trkpt><trkpt lat="42.31189649061952" lon="14.092969737363845"><ele>92.8</ele><time>2026-05-01T15:27:04.001Z</time></trkpt><trkpt lat="42.311959488377305" lon="14.092857195639041"><ele>92.0</ele><time>2026-05-01T15:27:05.001Z</time></trkpt><trkpt lat="42.31202200721375" lon="14.092747405559019"><ele>92.0</ele><time>2026-05-01T15:27:06.001Z</time></trkpt><trkpt lat="42.31207855669569" lon="14.092637873404636"><ele>92.0</ele><time>2026-05-01T15:27:07.001Z</time></trkpt><trkpt lat="42.312133141205386" lon="14.092529197933173"><ele>92.0</ele><time>2026-05-01T15:27:08.001Z</time></trkpt><trkpt lat="42.312187069078874" lon="14.09241715170751"><ele>92.0</ele><time>2026-05-01T15:27:09.001Z</time></trkpt><trkpt lat="42.31223628770967" lon="14.092321571108469"><ele>92.0</ele><time>2026-05-01T15:27:10.001Z</time></trkpt><trkpt lat="42.312293321479494" lon="14.092227967675433"><ele>92.33333333333334</ele><time>2026-05-01T15:27:11.001Z</time></trkpt><trkpt lat="42.31235233788202" lon="14.09214439167605"><ele>92.66666666666667</ele><time>2026-05-01T15:27:12.001Z</time></trkpt><trkpt lat="42.31241124207982" lon="14.092068532371767"><ele>93.0</ele><time>2026-05-01T15:27:13.001Z</time></trkpt><trkpt lat="42.31247285201139" lon="14.092000042411506"><ele>93.33333333333333</ele><time>2026-05-01T15:27:14.001Z</time></trkpt><trkpt lat="42.31254343933482" lon="14.09193304336033"><ele>93.66666666666666</ele><time>2026-05-01T15:27:15.001Z</time></trkpt><trkpt lat="42.312619474064014" lon="14.091875366112527"><ele>94.0</ele><time>2026-05-01T15:27:16.001Z</time></trkpt><trkpt lat="42.31269985104035" lon="14.091818160709053"><ele>94.0</ele><time>2026-05-01T15:27:17.001Z</time></trkpt><trkpt lat="42.31277935122324" lon="14.091758288079939"><ele>94.0</ele><time>2026-05-01T15:27:18.001Z</time></trkpt><trkpt lat="42.31285448736551" lon="14.091692388143544"><ele>94.0</ele><time>2026-05-01T15:27:19.001Z</time></trkpt><trkpt lat="42.31291960904014" lon="14.091623578675971"><ele>94.0</ele><time>2026-05-01T15:27:20.001Z</time></trkpt><trkpt lat="42.31298339026188" lon="14.091536706775495"><ele>94.0</ele><time>2026-05-01T15:27:21.001Z</time></trkpt><trkpt lat="42.313029244131485" lon="14.0914429600792"><ele>94.0</ele><time>2026-05-01T15:27:22.001Z</time></trkpt><trkpt lat="42.31305705923993" lon="14.091338392754764"><ele>94.0</ele><time>2026-05-01T15:27:23.001Z</time></trkpt><trkpt lat="42.31307149019201" lon="14.091223961218937"><ele>94.0</ele><time>2026-05-01T15:27:24.001Z</time></trkpt><trkpt lat="42.313084428115076" lon="14.091095819709366"><ele>94.0</ele><time>2026-05-01T15:27:25.001Z</time></trkpt><trkpt lat="42.31310769355988" lon="14.090955676421322"><ele>94.0</ele><time>2026-05-01T15:27:26.001Z</time></trkpt><trkpt lat="42.31313057031544" lon="14.090810302439534"><ele>94.0</ele><time>2026-05-01T15:27:27.001Z</time></trkpt><trkpt lat="42.313157009116544" lon="14.090662587502598"><ele>94.0</ele><time>2026-05-01T15:27:28.001Z</time></trkpt><trkpt lat="42.31318270773321" lon="14.090514994808448"><ele>94.0</ele><time>2026-05-01T15:27:29.001Z</time></trkpt><trkpt lat="42.313204363512284" lon="14.090368276197443"><ele>94.0</ele><time>2026-05-01T15:27:30.001Z</time></trkpt><trkpt lat="42.31322196546187" lon="14.090227806676845"><ele>94.0</ele><time>2026-05-01T15:27:31.001Z</time></trkpt><trkpt lat="42.313236866545026" lon="14.090088341374157"><ele>94.0</ele><time>2026-05-01T15:27:32.001Z</time></trkpt><trkpt lat="42.31325803843221" lon="14.089947072795937"><ele>93.6</ele><time>2026-05-01T15:27:33.001Z</time></trkpt><trkpt lat="42.31328004528422" lon="14.089804223752736"><ele>93.2</ele><time>2026-05-01T15:27:34.001Z</time></trkpt><trkpt lat="42.31330314744485" lon="14.089657556525665"><ele>92.8</ele><time>2026-05-01T15:27:35.001Z</time></trkpt><trkpt lat="42.313329706143186" lon="14.089514816748473"><ele>92.39999999999999</ele><time>2026-05-01T15:27:36.001Z</time></trkpt><trkpt lat="42.31336792257295" lon="14.089372758785412"><ele>92.0</ele><time>2026-05-01T15:27:37.001Z</time></trkpt><trkpt lat="42.313412642046714" lon="14.089232780921519"><ele>92.0</ele><time>2026-05-01T15:27:38.001Z</time></trkpt><trkpt lat="42.31345915262224" lon="14.089096534817468"><ele>92.0</ele><time>2026-05-01T15:27:39.001Z</time></trkpt><trkpt lat="42.31350413109867" lon="14.088963633558894"><ele>92.0</ele><time>2026-05-01T15:27:40.001Z</time></trkpt><trkpt lat="42.31354149995252" lon="14.088845947436003"><ele>92.0</ele><time>2026-05-01T15:27:41.001Z</time></trkpt><trkpt lat="42.31357967507985" lon="14.088730121872226"><ele>92.0</ele><time>2026-05-01T15:27:42.001Z</time></trkpt><trkpt lat="42.31362001877365" lon="14.088609600260412"><ele>91.5</ele><time>2026-05-01T15:27:43.001Z</time></trkpt><trkpt lat="42.31367581461206" lon="14.088494592584032"><ele>91.0</ele><time>2026-05-01T15:27:44.001Z</time></trkpt><trkpt lat="42.31374798876504" lon="14.088376327901265"><ele>90.5</ele><time>2026-05-01T15:27:45.001Z</time></trkpt><trkpt lat="42.31383417316103" lon="14.088258630335432"><ele>90.0</ele><time>2026-05-01T15:27:46.001Z</time></trkpt><trkpt lat="42.313926616568885" lon="14.088139095897072"><ele>88.5</ele><time>2026-05-01T15:27:47.001Z</time></trkpt><trkpt lat="42.31401803493233" lon="14.088019377461787"><ele>87.0</ele><time>2026-05-01T15:27:48.001Z</time></trkpt><trkpt lat="42.31410153390152" lon="14.087908617417222"><ele>85.5</ele><time>2026-05-01T15:27:49.001Z</time></trkpt><trkpt lat="42.31417803475754" lon="14.087806966668639"><ele>84.0</ele><time>2026-05-01T15:27:50.001Z</time></trkpt><trkpt lat="42.31426002235124" lon="14.087700459709326"><ele>84.0</ele><time>2026-05-01T15:27:51.001Z</time></trkpt><trkpt lat="42.31434374961028" lon="14.087593171600782"><ele>84.0</ele><time>2026-05-01T15:27:52.001Z</time></trkpt><trkpt lat="42.31442985984954" lon="14.087479783120912"><ele>84.0</ele><time>2026-05-01T15:27:53.001Z</time></trkpt><trkpt lat="42.31451886244709" lon="14.08736154201314"><ele>84.0</ele><time>2026-05-01T15:27:54.001Z</time></trkpt><trkpt lat="42.31460332138799" lon="14.087258644492895"><ele>83.6</ele><time>2026-05-01T15:27:55.001Z</time></trkpt><trkpt lat="42.314691050689355" lon="14.087156950853235"><ele>83.2</ele><time>2026-05-01T15:27:56.001Z</time></trkpt><trkpt lat="42.31478290765322" lon="14.087063462110365"><ele>82.8</ele><time>2026-05-01T15:27:57.001Z</time></trkpt><trkpt lat="42.31487789527804" lon="14.086977341248861"><ele>82.39999999999999</ele><time>2026-05-01T15:27:58.001Z</time></trkpt><trkpt lat="42.31496386055989" lon="14.086902915816983"><ele>82.0</ele><time>2026-05-01T15:27:59.001Z</time></trkpt><trkpt lat="42.31504718092696" lon="14.086843137654702"><ele>81.39999999999999</ele><time>2026-05-01T15:28:00.001Z</time></trkpt><trkpt lat="42.31513729072793" lon="14.086784919260683"><ele>80.8</ele><time>2026-05-01T15:28:01.001Z</time></trkpt><trkpt lat="42.31522913182892" lon="14.086739442935762"><ele>80.2</ele><time>2026-05-01T15:28:02.001Z</time></trkpt><trkpt lat="42.31532233835754" lon="14.086713007086745"><ele>79.6</ele><time>2026-05-01T15:28:03.001Z</time></trkpt><trkpt lat="42.31541896278676" lon="14.086705886885513"><ele>79.0</ele><time>2026-05-01T15:28:04.001Z</time></trkpt><trkpt lat="42.31552578538623" lon="14.086720118217073"><ele>79.25</ele><time>2026-05-01T15:28:05.001Z</time></trkpt><trkpt lat="42.31565519376623" lon="14.086749401272717"><ele>79.5</ele><time>2026-05-01T15:28:06.001Z</time></trkpt><trkpt lat="42.31578847079411" lon="14.086778616705365"><ele>79.75</ele><time>2026-05-01T15:28:07.001Z</time></trkpt><trkpt lat="42.31592376748721" lon="14.08680248158344"><ele>80.0</ele><time>2026-05-01T15:28:08.001Z</time></trkpt><trkpt lat="42.31604621663951" lon="14.086814666879555"><ele>80.0</ele><time>2026-05-01T15:28:09.001Z</time></trkpt><trkpt lat="42.31615585039618" lon="14.086823175171725"><ele>80.0</ele><time>2026-05-01T15:28:10.001Z</time></trkpt><trkpt lat="42.31625917009949" lon="14.086840676412015"><ele>80.0</ele><time>2026-05-01T15:28:11.001Z</time></trkpt><trkpt lat="42.316362977424966" lon="14.086872408207052"><ele>80.0</ele><time>2026-05-01T15:28:12.001Z</time></trkpt><trkpt lat="42.316461442536614" lon="14.086921102202316"><ele>80.0</ele><time>2026-05-01T15:28:13.001Z</time></trkpt><trkpt lat="42.31657241337091" lon="14.086995784532279"><ele>79.25</ele><time>2026-05-01T15:28:14.001Z</time></trkpt><trkpt lat="42.31669890200644" lon="14.08708068898279"><ele>78.5</ele><time>2026-05-01T15:28:15.001Z</time></trkpt><trkpt lat="42.316823361030416" lon="14.087160348527865"><ele>77.75</ele><time>2026-05-01T15:28:16.001Z</time></trkpt><trkpt lat="42.31693294420007" lon="14.087225929729113"><ele>77.0</ele><time>2026-05-01T15:28:17.001Z</time></trkpt><trkpt lat="42.31703402361513" lon="14.08728571528649"><ele>77.0</ele><time>2026-05-01T15:28:18.001Z</time></trkpt><trkpt lat="42.317136718344344" lon="14.087341902533662"><ele>77.0</ele><time>2026-05-01T15:28:19.001Z</time></trkpt><trkpt lat="42.317239235278095" lon="14.087401629356547"><ele>77.0</ele><time>2026-05-01T15:28:20.001Z</time></trkpt><trkpt lat="42.31733231363612" lon="14.087454799848965"><ele>77.0</ele><time>2026-05-01T15:28:21.001Z</time></trkpt><trkpt lat="42.31741918174706" lon="14.087508986013113"><ele>77.0</ele><time>2026-05-01T15:28:22.001Z</time></trkpt><trkpt lat="42.31751238155534" lon="14.087568625804982"><ele>75.0</ele><time>2026-05-01T15:28:23.001Z</time></trkpt><trkpt lat="42.31759786944444" lon="14.087631200639038"><ele>73.0</ele><time>2026-05-01T15:28:24.001Z</time></trkpt><trkpt lat="42.31767732643482" lon="14.087695051727659"><ele>71.0</ele><time>2026-05-01T15:28:25.001Z</time></trkpt><trkpt lat="42.317765166994036" lon="14.08777480518823"><ele>69.0</ele><time>2026-05-01T15:28:26.001Z</time></trkpt><trkpt lat="42.31784349648124" lon="14.087865326571022"><ele>67.0</ele><time>2026-05-01T15:28:27.001Z</time></trkpt><trkpt lat="42.317921604051875" lon="14.087963682404618"><ele>67.0</ele><time>2026-05-01T15:28:28.001Z</time></trkpt><trkpt lat="42.31797444498617" lon="14.088076513748376"><ele>67.0</ele><time>2026-05-01T15:28:29.001Z</time></trkpt><trkpt lat="42.31804377384473" lon="14.088175261779696"><ele>67.0</ele><time>2026-05-01T15:28:30.001Z</time></trkpt><trkpt lat="42.31812672991089" lon="14.088240264997205"><ele>67.0</ele><time>2026-05-01T15:28:31.001Z</time></trkpt><trkpt lat="42.318210660191376" lon="14.088286487600483"><ele>67.0</ele><time>2026-05-01T15:28:32.001Z</time></trkpt><trkpt lat="42.31830164492884" lon="14.088320990627448"><ele>66.25</ele><time>2026-05-01T15:28:33.001Z</time></trkpt><trkpt lat="42.31840595562563" lon="14.088338285561681"><ele>65.5</ele><time>2026-05-01T15:28:34.001Z</time></trkpt><trkpt lat="42.31852330742665" lon="14.088339594825525"><ele>64.75</ele><time>2026-05-01T15:28:35.001Z</time></trkpt><trkpt lat="42.318658246040734" lon="14.088352352570025"><ele>64.0</ele><time>2026-05-01T15:28:36.001Z</time></trkpt><trkpt lat="42.318800952950745" lon="14.088410568589635"><ele>63.33333333333333</ele><time>2026-05-01T15:28:37.001Z</time></trkpt><trkpt lat="42.31894708410469" lon="14.088482978432816"><ele>62.66666666666667</ele><time>2026-05-01T15:28:38.001Z</time></trkpt><trkpt lat="42.31910440806703" lon="14.088545194717218"><ele>62.0</ele><time>2026-05-01T15:28:39.001Z</time></trkpt><trkpt lat="42.31924011772256" lon="14.08858701762724"><ele>62.0</ele><time>2026-05-01T15:28:40.001Z</time></trkpt><trkpt lat="42.31935312491427" lon="14.088615926681808"><ele>62.0</ele><time>2026-05-01T15:28:41.001Z</time></trkpt><trkpt lat="42.31943788790086" lon="14.088643978639718"><ele>62.0</ele><time>2026-05-01T15:28:42.001Z</time></trkpt><trkpt lat="42.31952322295987" lon="14.088701338921753"><ele>62.0</ele><time>2026-05-01T15:28:44.001Z</time></trkpt><trkpt lat="42.319559830828474" lon="14.088583277088176"><ele>62.0</ele><time>2026-05-01T15:28:45.001Z</time></trkpt><trkpt lat="42.31960313948974" lon="14.088463588440774"><ele>62.0</ele><time>2026-05-01T15:28:46.001Z</time></trkpt><trkpt lat="42.31968517509165" lon="14.088348329545513"><ele>62.0</ele><time>2026-05-01T15:28:47.001Z</time></trkpt><trkpt lat="42.3197596272444" lon="14.08820963704916"><ele>62.0</ele><time>2026-05-01T15:28:48.001Z</time></trkpt><trkpt lat="42.319820493545755" lon="14.088057754581753"><ele>62.0</ele><time>2026-05-01T15:28:49.001Z</time></trkpt><trkpt lat="42.31989023546487" lon="14.087932102012928"><ele>61.8</ele><time>2026-05-01T15:28:50.001Z</time></trkpt><trkpt lat="42.31995573194902" lon="14.087801629439006"><ele>61.6</ele><time>2026-05-01T15:28:51.001Z</time></trkpt><trkpt lat="42.32002854337127" lon="14.08765753786745"><ele>61.39999999999999</ele><time>2026-05-01T15:28:52.001Z</time></trkpt><trkpt lat="42.32010491043737" lon="14.087559938304357"><ele>61.199999999999996</ele><time>2026-05-01T15:28:53.001Z</time></trkpt><trkpt lat="42.320159238439665" lon="14.087496180788795"><ele>61.0</ele><time>2026-05-01T15:28:54.001Z</time></trkpt><trkpt lat="42.32021531469819" lon="14.087438900083065"><ele>61.0</ele><time>2026-05-01T15:28:56.001Z</time></trkpt><trkpt lat="42.32029392219673" lon="14.087373207365523"><ele>60.99999999999999</ele><time>2026-05-01T15:29:03.001Z</time></trkpt><trkpt lat="42.3203737750143" lon="14.08735483861928"><ele>60.99999999999999</ele><time>2026-05-01T15:29:10.001Z</time></trkpt><trkpt lat="42.32045687666879" lon="14.08755103744868"><ele>61.0</ele><time>2026-05-01T15:29:12.001Z</time></trkpt><trkpt lat="42.320517162295495" lon="14.087673548111907"><ele>61.0</ele><time>2026-05-01T15:29:13.001Z</time></trkpt><trkpt lat="42.32058985917092" lon="14.08781355323008"><ele>60.75</ele><time>2026-05-01T15:29:14.001Z</time></trkpt><trkpt lat="42.320671283369656" lon="14.087970925625406"><ele>60.5</ele><time>2026-05-01T15:29:15.001Z</time></trkpt><trkpt lat="42.320754175210844" lon="14.08813440842855"><ele>60.25</ele><time>2026-05-01T15:29:16.001Z</time></trkpt><trkpt lat="42.320829171087546" lon="14.088289262905617"><ele>60.0</ele><time>2026-05-01T15:29:17.001Z</time></trkpt><trkpt lat="42.32089314194703" lon="14.088426531312166"><ele>60.0</ele><time>2026-05-01T15:29:18.001Z</time></trkpt><trkpt lat="42.3209525532551" lon="14.08855019096654"><ele>60.0</ele><time>2026-05-01T15:29:19.001Z</time></trkpt><trkpt lat="42.32099930275013" lon="14.088658072407192"><ele>60.0</ele><time>2026-05-01T15:29:20.001Z</time></trkpt><trkpt lat="42.32103555431216" lon="14.088748873420654"><ele>60.0</ele><time>2026-05-01T15:29:21.001Z</time></trkpt><trkpt lat="42.321073663214136" lon="14.08883357358813"><ele>60.0</ele><time>2026-05-01T15:29:22.001Z</time></trkpt><trkpt lat="42.32111262821496" lon="14.088911812745838"><ele>60.0</ele><time>2026-05-01T15:29:23.001Z</time></trkpt><trkpt lat="42.32114680493507" lon="14.088991084148345"><ele>59.8</ele><time>2026-05-01T15:29:24.001Z</time></trkpt><trkpt lat="42.32120965202999" lon="14.08913364364438"><ele>59.6</ele><time>2026-05-01T15:29:26.001Z</time></trkpt><trkpt lat="42.32125740977771" lon="14.08923325969397"><ele>59.400000000000006</ele><time>2026-05-01T15:29:27.001Z</time></trkpt><trkpt lat="42.32131642394668" lon="14.089354054225298"><ele>59.2</ele><time>2026-05-01T15:29:28.001Z</time></trkpt><trkpt lat="42.321369905908206" lon="14.08944012079808"><ele>59.0</ele><time>2026-05-01T15:29:29.001Z</time></trkpt><trkpt lat="42.32140802363845" lon="14.089509892108836"><ele>59.00000000000001</ele><time>2026-05-01T15:29:30.001Z</time></trkpt><trkpt lat="42.321473068820154" lon="14.089637752098723"><ele>59.0</ele><time>2026-05-01T15:29:32.001Z</time></trkpt><trkpt lat="42.32153720753163" lon="14.08977613690395"><ele>59.0</ele><time>2026-05-01T15:29:34.001Z</time></trkpt><trkpt lat="42.321569694720516" lon="14.089849362308568"><ele>59.0</ele><time>2026-05-01T15:29:35.001Z</time></trkpt><trkpt lat="42.32160055753417" lon="14.089925866924363"><ele>59.00000000000001</ele><time>2026-05-01T15:29:36.001Z</time></trkpt><trkpt lat="42.32163586398909" lon="14.090003713497707"><ele>59.0</ele><time>2026-05-01T15:29:37.001Z</time></trkpt><trkpt lat="42.32167006180531" lon="14.090075495723767"><ele>58.800000000000004</ele><time>2026-05-01T15:29:38.001Z</time></trkpt><trkpt lat="42.32173710361655" lon="14.090211654636375"><ele>58.60000000000001</ele><time>2026-05-01T15:29:40.001Z</time></trkpt><trkpt lat="42.32177523338834" lon="14.090292950140553"><ele>58.4</ele><time>2026-05-01T15:29:41.001Z</time></trkpt><trkpt lat="42.32181901818987" lon="14.090386606531217"><ele>58.2</ele><time>2026-05-01T15:29:42.001Z</time></trkpt><trkpt lat="42.32186952070846" lon="14.0904906675189"><ele>58.0</ele><time>2026-05-01T15:29:43.001Z</time></trkpt><trkpt lat="42.321923624227985" lon="14.090599909471635"><ele>58.0</ele><time>2026-05-01T15:29:44.001Z</time></trkpt><trkpt lat="42.321980696574094" lon="14.090714569138209"><ele>58.0</ele><time>2026-05-01T15:29:45.001Z</time></trkpt><trkpt lat="42.32203221580589" lon="14.090821486664147"><ele>58.0</ele><time>2026-05-01T15:29:46.001Z</time></trkpt><trkpt lat="42.32208400440775" lon="14.090926978269106"><ele>58.0</ele><time>2026-05-01T15:29:47.001Z</time></trkpt><trkpt lat="42.322134706238124" lon="14.091030474900887"><ele>58.0</ele><time>2026-05-01T15:29:48.001Z</time></trkpt><trkpt lat="42.32218372607974" lon="14.091135141935816"><ele>58.0</ele><time>2026-05-01T15:29:49.001Z</time></trkpt><trkpt lat="42.32223045848204" lon="14.091238217069865"><ele>58.0</ele><time>2026-05-01T15:29:50.001Z</time></trkpt><trkpt lat="42.322278435972166" lon="14.091338870264414"><ele>58.0</ele><time>2026-05-01T15:29:51.001Z</time></trkpt><trkpt lat="42.32232975840802" lon="14.091441263179053"><ele>58.0</ele><time>2026-05-01T15:29:52.001Z</time></trkpt><trkpt lat="42.32238009707934" lon="14.09154719282674"><ele>58.0</ele><time>2026-05-01T15:29:53.001Z</time></trkpt><trkpt lat="42.32243499651801" lon="14.091669131610473"><ele>58.25</ele><time>2026-05-01T15:29:54.001Z</time></trkpt><trkpt lat="42.32249766534343" lon="14.09179565232244"><ele>58.5</ele><time>2026-05-01T15:29:55.001Z</time></trkpt><trkpt lat="42.322570256771705" lon="14.091933691087661"><ele>58.75</ele><time>2026-05-01T15:29:56.001Z</time></trkpt><trkpt lat="42.32264845499893" lon="14.092088575687029"><ele>59.0</ele><time>2026-05-01T15:29:57.001Z</time></trkpt><trkpt lat="42.32271156412747" lon="14.092231174588695"><ele>59.0</ele><time>2026-05-01T15:29:58.001Z</time></trkpt><trkpt lat="42.32276972749792" lon="14.092366122745693"><ele>59.0</ele><time>2026-05-01T15:29:59.001Z</time></trkpt><trkpt lat="42.32282962679407" lon="14.092498323467055"><ele>59.0</ele><time>2026-05-01T15:30:00.001Z</time></trkpt><trkpt lat="42.322890948122385" lon="14.092626927246899"><ele>59.0</ele><time>2026-05-01T15:30:01.001Z</time></trkpt><trkpt lat="42.32295259543408" lon="14.092756889158144"><ele>58.75</ele><time>2026-05-01T15:30:02.001Z</time></trkpt><trkpt lat="42.32301822763473" lon="14.092889803188012"><ele>58.5</ele><time>2026-05-01T15:30:03.001Z</time></trkpt><trkpt lat="42.323086929098764" lon="14.093028292612667"><ele>58.25</ele><time>2026-05-01T15:30:04.001Z</time></trkpt><trkpt lat="42.3231576335712" lon="14.093174112336122"><ele>58.0</ele><time>2026-05-01T15:30:05.001Z</time></trkpt><trkpt lat="42.32322666159607" lon="14.093319992826165"><ele>58.0</ele><time>2026-05-01T15:30:06.001Z</time></trkpt><trkpt lat="42.323297473895146" lon="14.093463148274779"><ele>58.0</ele><time>2026-05-01T15:30:07.001Z</time></trkpt><trkpt lat="42.323359008965156" lon="14.093592741795053"><ele>58.0</ele><time>2026-05-01T15:30:08.001Z</time></trkpt><trkpt lat="42.32341373005944" lon="14.093713915408292"><ele>58.0</ele><time>2026-05-01T15:30:09.001Z</time></trkpt><trkpt lat="42.32346301693224" lon="14.093823452425239"><ele>58.0</ele><time>2026-05-01T15:30:10.001Z</time></trkpt><trkpt lat="42.32351654944341" lon="14.093938928829495"><ele>58.0</ele><time>2026-05-01T15:30:11.001Z</time></trkpt><trkpt lat="42.32355856456194" lon="14.09405648786436"><ele>58.0</ele><time>2026-05-01T15:30:12.001Z</time></trkpt><trkpt lat="42.3235944198557" lon="14.09417504118926"><ele>58.0</ele><time>2026-05-01T15:30:13.001Z</time></trkpt><trkpt lat="42.323623628146365" lon="14.09429668789126"><ele>58.0</ele><time>2026-05-01T15:30:14.001Z</time></trkpt><trkpt lat="42.32365265609718" lon="14.09442828788366"><ele>58.0</ele><time>2026-05-01T15:30:15.001Z</time></trkpt><trkpt lat="42.32368123091764" lon="14.094570208361846"><ele>58.0</ele><time>2026-05-01T15:30:16.001Z</time></trkpt><trkpt lat="42.32371229673533" lon="14.094716483214173"><ele>58.0</ele><time>2026-05-01T15:30:17.001Z</time></trkpt><trkpt lat="42.323738738891606" lon="14.094862056527946"><ele>58.0</ele><time>2026-05-01T15:30:18.001Z</time></trkpt><trkpt lat="42.32376846246313" lon="14.09500576934453"><ele>58.0</ele><time>2026-05-01T15:30:19.001Z</time></trkpt><trkpt lat="42.323801518400714" lon="14.095147664633325"><ele>58.0</ele><time>2026-05-01T15:30:20.001Z</time></trkpt><trkpt lat="42.32383527651178" lon="14.095294050079515"><ele>58.0</ele><time>2026-05-01T15:30:21.001Z</time></trkpt><trkpt lat="42.323853096073876" lon="14.095461333163485"><ele>58.0</ele><time>2026-05-01T15:30:22.001Z</time></trkpt><trkpt lat="42.323886621286704" lon="14.095624033141592"><ele>58.0</ele><time>2026-05-01T15:30:23.001Z</time></trkpt><trkpt lat="42.32391714887749" lon="14.095773617327415"><ele>58.0</ele><time>2026-05-01T15:30:24.001Z</time></trkpt><trkpt lat="42.32394485046696" lon="14.095910294757273"><ele>58.0</ele><time>2026-05-01T15:30:25.001Z</time></trkpt><trkpt lat="42.32397456059076" lon="14.096056882197198"><ele>58.0</ele><time>2026-05-01T15:30:26.001Z</time></trkpt><trkpt lat="42.32400792330156" lon="14.096221491174866"><ele>58.0</ele><time>2026-05-01T15:30:27.001Z</time></trkpt><trkpt lat="42.32404805287942" lon="14.096419525875955"><ele>58.0</ele><time>2026-05-01T15:30:28.001Z</time></trkpt><trkpt lat="42.32408438072684" lon="14.096599532298008"><ele>58.0</ele><time>2026-05-01T15:30:29.001Z</time></trkpt><trkpt lat="42.32412303002959" lon="14.096791041059738"><ele>58.0</ele><time>2026-05-01T15:30:30.001Z</time></trkpt><trkpt lat="42.324171307588635" lon="14.096959829082833"><ele>58.0</ele><time>2026-05-01T15:30:31.001Z</time></trkpt><trkpt lat="42.32420269969272" lon="14.09712511211341"><ele>58.0</ele><time>2026-05-01T15:30:32.001Z</time></trkpt><trkpt lat="42.32423615250095" lon="14.09728022716107"><ele>57.75</ele><time>2026-05-01T15:30:33.001Z</time></trkpt><trkpt lat="42.324269196780556" lon="14.097431699796726"><ele>57.5</ele><time>2026-05-01T15:30:34.001Z</time></trkpt><trkpt lat="42.32430461038138" lon="14.097581456518107"><ele>57.25</ele><time>2026-05-01T15:30:35.001Z</time></trkpt><trkpt lat="42.3243486267936" lon="14.097738601690791"><ele>57.0</ele><time>2026-05-01T15:30:36.001Z</time></trkpt><trkpt lat="42.3244064899435" lon="14.097898781074353"><ele>57.0</ele><time>2026-05-01T15:30:37.001Z</time></trkpt><trkpt lat="42.32446312578809" lon="14.09807014187958"><ele>57.0</ele><time>2026-05-01T15:30:38.001Z</time></trkpt><trkpt lat="42.32455773882494" lon="14.09821346799126"><ele>57.0</ele><time>2026-05-01T15:30:39.001Z</time></trkpt><trkpt lat="42.32463985707436" lon="14.09836061511457"><ele>57.0</ele><time>2026-05-01T15:30:40.001Z</time></trkpt><trkpt lat="42.324720262789285" lon="14.098492027242463"><ele>56.2</ele><time>2026-05-01T15:30:41.001Z</time></trkpt><trkpt lat="42.32479453245124" lon="14.098610791868339"><ele>55.400000000000006</ele><time>2026-05-01T15:30:42.001Z</time></trkpt><trkpt lat="42.324866223785925" lon="14.098725489882732"><ele>54.599999999999994</ele><time>2026-05-01T15:30:43.001Z</time></trkpt><trkpt lat="42.32493699161116" lon="14.098836834642048"><ele>53.8</ele><time>2026-05-01T15:30:44.001Z</time></trkpt><trkpt lat="42.32500228003095" lon="14.098943510905334"><ele>53.0</ele><time>2026-05-01T15:30:45.001Z</time></trkpt><trkpt lat="42.325069538947936" lon="14.099055855660104"><ele>53.599999999999994</ele><time>2026-05-01T15:30:46.001Z</time></trkpt><trkpt lat="42.325140354081825" lon="14.09917452408194"><ele>54.199999999999996</ele><time>2026-05-01T15:30:47.001Z</time></trkpt><trkpt lat="42.32521126659235" lon="14.099292783252059"><ele>54.8</ele><time>2026-05-01T15:30:48.001Z</time></trkpt><trkpt lat="42.32527918116601" lon="14.099403601680844"><ele>55.4</ele><time>2026-05-01T15:30:49.001Z</time></trkpt><trkpt lat="42.325351238270606" lon="14.09951886718108"><ele>56.0</ele><time>2026-05-01T15:30:50.001Z</time></trkpt><trkpt lat="42.32542776360045" lon="14.099635874150907"><ele>56.0</ele><time>2026-05-01T15:30:51.001Z</time></trkpt><trkpt lat="42.32549849042516" lon="14.099747598622573"><ele>55.99999999999999</ele><time>2026-05-01T15:30:52.001Z</time></trkpt><trkpt lat="42.32556627413919" lon="14.099855170426263"><ele>55.99999999999999</ele><time>2026-05-01T15:30:53.001Z</time></trkpt><trkpt lat="42.32563423348401" lon="14.099958651423693"><ele>56.0</ele><time>2026-05-01T15:30:54Z</time></trkpt><trkpt lat="42.32570520111275" lon="14.100064061591874"><ele>56.0</ele><time>2026-05-01T15:30:55Z</time></trkpt><trkpt lat="42.32577283297498" lon="14.100168766174992"><ele>55.4</ele><time>2026-05-01T15:30:56Z</time></trkpt><trkpt lat="42.32584134134016" lon="14.100275146708446"><ele>54.8</ele><time>2026-05-01T15:30:57Z</time></trkpt><trkpt lat="42.32590450547816" lon="14.100377431988367"><ele>54.199999999999996</ele><time>2026-05-01T15:30:58Z</time></trkpt><trkpt lat="42.325962648858926" lon="14.10047489078634"><ele>53.599999999999994</ele><time>2026-05-01T15:30:59Z</time></trkpt><trkpt lat="42.32601903926044" lon="14.10056485290477"><ele>53.0</ele><time>2026-05-01T15:31:00Z</time></trkpt><trkpt lat="42.32607258208567" lon="14.100652315977873"><ele>53.0</ele><time>2026-05-01T15:31:01Z</time></trkpt><trkpt lat="42.326114203747004" lon="14.100737986079164"><ele>53.0</ele><time>2026-05-01T15:31:02Z</time></trkpt><trkpt lat="42.32613805594385" lon="14.10083444283147"><ele>53.0</ele><time>2026-05-01T15:31:03Z</time></trkpt><trkpt lat="42.32614989522396" lon="14.100923232420632"><ele>53.0</ele><time>2026-05-01T15:31:04Z</time></trkpt><trkpt lat="42.32615466799893" lon="14.10101019545287"><ele>53.0</ele><time>2026-05-01T15:31:05Z</time></trkpt><trkpt lat="42.326162634350524" lon="14.101104202235664"><ele>53.0</ele><time>2026-05-01T15:31:06Z</time></trkpt><trkpt lat="42.32620010215205" lon="14.101181568988482"><ele>53.0</ele><time>2026-05-01T15:31:07Z</time></trkpt><trkpt lat="42.326262679500026" lon="14.101232990646647"><ele>53.333333333333336</ele><time>2026-05-01T15:31:08Z</time></trkpt><trkpt lat="42.32634157462987" lon="14.10126014411185"><ele>53.66666666666667</ele><time>2026-05-01T15:31:09Z</time></trkpt><trkpt lat="42.32642094224374" lon="14.101285825795113"><ele>54.0</ele><time>2026-05-01T15:31:10Z</time></trkpt><trkpt lat="42.326482209044634" lon="14.101330407689742"><ele>54.33333333333333</ele><time>2026-05-01T15:31:11Z</time></trkpt><trkpt lat="42.326549124246796" lon="14.10141504678667"><ele>54.666666666666664</ele><time>2026-05-01T15:31:12Z</time></trkpt><trkpt lat="42.32662573852072" lon="14.101529731946368"><ele>55.0</ele><time>2026-05-01T15:31:13Z</time></trkpt><trkpt lat="42.3267009242349" lon="14.101653304243545"><ele>55.0</ele><time>2026-05-01T15:31:14Z</time></trkpt><trkpt lat="42.32677854806264" lon="14.101777869775342"><ele>55.0</ele><time>2026-05-01T15:31:15Z</time></trkpt><trkpt lat="42.3268533360966" lon="14.10189829385965"><ele>55.0</ele><time>2026-05-01T15:31:16Z</time></trkpt><trkpt lat="42.326927614651254" lon="14.102022473247033"><ele>55.0</ele><time>2026-05-01T15:31:17Z</time></trkpt><trkpt lat="42.327002468122366" lon="14.102147925683873"><ele>55.0</ele><time>2026-05-01T15:31:18Z</time></trkpt><trkpt lat="42.327074107115145" lon="14.102279270505504"><ele>55.0</ele><time>2026-05-01T15:31:19Z</time></trkpt><trkpt lat="42.32713769645735" lon="14.102417163875657"><ele>55.0</ele><time>2026-05-01T15:31:20Z</time></trkpt><trkpt lat="42.32719546650833" lon="14.102564317566351"><ele>55.0</ele><time>2026-05-01T15:31:21Z</time></trkpt><trkpt lat="42.327249990899546" lon="14.102712581813266"><ele>53.8</ele><time>2026-05-01T15:31:22Z</time></trkpt><trkpt lat="42.327300874628705" lon="14.10286208009025"><ele>52.6</ele><time>2026-05-01T15:31:23Z</time></trkpt><trkpt lat="42.32734485727777" lon="14.103006313774461"><ele>51.400000000000006</ele><time>2026-05-01T15:31:24Z</time></trkpt><trkpt lat="42.32738685357807" lon="14.10313591990762"><ele>50.2</ele><time>2026-05-01T15:31:25Z</time></trkpt><trkpt lat="42.32742916053271" lon="14.10326898310093"><ele>49.0</ele><time>2026-05-01T15:31:26Z</time></trkpt><trkpt lat="42.32746980974957" lon="14.10339438101905"><ele>49.0</ele><time>2026-05-01T15:31:27Z</time></trkpt><trkpt lat="42.327508589592796" lon="14.103514605325566"><ele>49.0</ele><time>2026-05-01T15:31:28Z</time></trkpt><trkpt lat="42.327548014548604" lon="14.103640406656666"><ele>49.0</ele><time>2026-05-01T15:31:29Z</time></trkpt><trkpt lat="42.32759289110073" lon="14.10377745295478"><ele>49.0</ele><time>2026-05-01T15:31:30Z</time></trkpt><trkpt lat="42.32764012635524" lon="14.103929262378713"><ele>49.0</ele><time>2026-05-01T15:31:31Z</time></trkpt><trkpt lat="42.32769084223495" lon="14.104088588967917"><ele>48.5</ele><time>2026-05-01T15:31:32Z</time></trkpt><trkpt lat="42.32774251596368" lon="14.104248593706698"><ele>48.0</ele><time>2026-05-01T15:31:33Z</time></trkpt><trkpt lat="42.32779006643405" lon="14.104396762221464"><ele>47.5</ele><time>2026-05-01T15:31:34Z</time></trkpt><trkpt lat="42.32783128061681" lon="14.104538853997632"><ele>47.0</ele><time>2026-05-01T15:31:35Z</time></trkpt><trkpt lat="42.32787174160767" lon="14.104675799893895"><ele>47.0</ele><time>2026-05-01T15:31:36Z</time></trkpt><trkpt lat="42.32791573833233" lon="14.104813845892894"><ele>47.0</ele><time>2026-05-01T15:31:37Z</time></trkpt><trkpt lat="42.32796277738122" lon="14.104963007685914"><ele>47.0</ele><time>2026-05-01T15:31:38Z</time></trkpt><trkpt lat="42.32800857184858" lon="14.105112915911759"><ele>47.0</ele><time>2026-05-01T15:31:39Z</time></trkpt><trkpt lat="42.328057441251175" lon="14.10525907674253"><ele>46.8</ele><time>2026-05-01T15:31:40Z</time></trkpt><trkpt lat="42.32810237536842" lon="14.105401387854188"><ele>46.6</ele><time>2026-05-01T15:31:41Z</time></trkpt><trkpt lat="42.32814466824842" lon="14.105536936499176"><ele>46.4</ele><time>2026-05-01T15:31:42Z</time></trkpt><trkpt lat="42.32818336096121" lon="14.105664197099275"><ele>46.199999999999996</ele><time>2026-05-01T15:31:43Z</time></trkpt><trkpt lat="42.32822717253401" lon="14.10578442589257"><ele>46.0</ele><time>2026-05-01T15:31:44Z</time></trkpt><trkpt lat="42.32827370941932" lon="14.105923583392366"><ele>46.0</ele><time>2026-05-01T15:31:45Z</time></trkpt><trkpt lat="42.328318107473685" lon="14.106059312372485"><ele>46.0</ele><time>2026-05-01T15:31:46Z</time></trkpt><trkpt lat="42.32835840824711" lon="14.106190121396912"><ele>46.0</ele><time>2026-05-01T15:31:47Z</time></trkpt><trkpt lat="42.328396160335124" lon="14.106313269692132"><ele>46.0</ele><time>2026-05-01T15:31:48Z</time></trkpt><trkpt lat="42.32843096482343" lon="14.10642755397275"><ele>46.0</ele><time>2026-05-01T15:31:49Z</time></trkpt><trkpt lat="42.32846475366069" lon="14.106538075243266"><ele>46.0</ele><time>2026-05-01T15:31:50Z</time></trkpt><trkpt lat="42.32849171319006" lon="14.106643795452154"><ele>46.0</ele><time>2026-05-01T15:31:51Z</time></trkpt><trkpt lat="42.32852118075112" lon="14.106757959814114"><ele>46.0</ele><time>2026-05-01T15:31:52Z</time></trkpt><trkpt lat="42.32855939610949" lon="14.106883572193631"><ele>46.0</ele><time>2026-05-01T15:31:53Z</time></trkpt><trkpt lat="42.32860077090793" lon="14.10700906633898"><ele>46.0</ele><time>2026-05-01T15:31:54Z</time></trkpt><trkpt lat="42.328644206763514" lon="14.107147699325118"><ele>46.0</ele><time>2026-05-01T15:31:55Z</time></trkpt><trkpt lat="42.32869340769162" lon="14.10729347664171"><ele>46.0</ele><time>2026-05-01T15:31:56Z</time></trkpt><trkpt lat="42.328743478166984" lon="14.107447615159435"><ele>46.0</ele><time>2026-05-01T15:31:57Z</time></trkpt><trkpt lat="42.32879535607452" lon="14.107599214164125"><ele>46.0</ele><time>2026-05-01T15:31:58Z</time></trkpt><trkpt lat="42.32884308892973" lon="14.107746456129675"><ele>46.0</ele><time>2026-05-01T15:31:59Z</time></trkpt><trkpt lat="42.328888762086" lon="14.107882961292743"><ele>46.0</ele><time>2026-05-01T15:32:00Z</time></trkpt><trkpt lat="42.3289314914304" lon="14.10802080698376"><ele>46.0</ele><time>2026-05-01T15:32:01Z</time></trkpt><trkpt lat="42.32897572696875" lon="14.108162852019879"><ele>46.0</ele><time>2026-05-01T15:32:02Z</time></trkpt><trkpt lat="42.329020470430855" lon="14.108302793056708"><ele>46.0</ele><time>2026-05-01T15:32:03Z</time></trkpt><trkpt lat="42.32906399249925" lon="14.108439498196677"><ele>45.4</ele><time>2026-05-01T15:32:04Z</time></trkpt><trkpt lat="42.32910572627492" lon="14.108574417103155"><ele>44.8</ele><time>2026-05-01T15:32:05Z</time></trkpt><trkpt lat="42.32914306297141" lon="14.108707352873811"><ele>44.199999999999996</ele><time>2026-05-01T15:32:06Z</time></trkpt><trkpt lat="42.329184655741955" lon="14.10883998461775"><ele>43.599999999999994</ele><time>2026-05-01T15:32:07Z</time></trkpt><trkpt lat="42.32923143228553" lon="14.108976477082198"><ele>43.0</ele><time>2026-05-01T15:32:08Z</time></trkpt><trkpt lat="42.32927943416604" lon="14.109116101312344"><ele>43.0</ele><time>2026-05-01T15:32:09Z</time></trkpt><trkpt lat="42.329327230923525" lon="14.109272298393735"><ele>43.0</ele><time>2026-05-01T15:32:10Z</time></trkpt><trkpt lat="42.329376962943385" lon="14.10943104821168"><ele>43.0</ele><time>2026-05-01T15:32:11Z</time></trkpt><trkpt lat="42.329422318659034" lon="14.109585543983629"><ele>43.0</ele><time>2026-05-01T15:32:12Z</time></trkpt><trkpt lat="42.3294703829503" lon="14.10972759354443"><ele>43.0</ele><time>2026-05-01T15:32:13Z</time></trkpt><trkpt lat="42.329513160308736" lon="14.109866004445424"><ele>43.0</ele><time>2026-05-01T15:32:14Z</time></trkpt><trkpt lat="42.32956062899306" lon="14.110013134707108"><ele>43.0</ele><time>2026-05-01T15:32:15Z</time></trkpt><trkpt lat="42.32962107733714" lon="14.11020048911548"><ele>43.0</ele><time>2026-05-01T15:32:16Z</time></trkpt><trkpt lat="42.32968500829157" lon="14.110403585916684"><ele>42.75</ele><time>2026-05-01T15:32:17Z</time></trkpt><trkpt lat="42.32974382477745" lon="14.11060580470599"><ele>42.5</ele><time>2026-05-01T15:32:18Z</time></trkpt><trkpt lat="42.329793427557775" lon="14.110784857268694"><ele>42.25</ele><time>2026-05-01T15:32:19Z</time></trkpt><trkpt lat="42.32984260555569" lon="14.11095556534027"><ele>42.0</ele><time>2026-05-01T15:32:20Z</time></trkpt><trkpt lat="42.329883541646204" lon="14.111113453056447"><ele>42.0</ele><time>2026-05-01T15:32:21Z</time></trkpt><trkpt lat="42.32996623648625" lon="14.111284746968117"><ele>42.0</ele><time>2026-05-01T15:32:22Z</time></trkpt><trkpt lat="42.33000467572434" lon="14.111430196509028"><ele>42.0</ele><time>2026-05-01T15:32:23Z</time></trkpt><trkpt lat="42.33004980520101" lon="14.1115682873645"><ele>42.0</ele><time>2026-05-01T15:32:24Z</time></trkpt><trkpt lat="42.33009047671778" lon="14.111714726702694"><ele>42.25</ele><time>2026-05-01T15:32:25Z</time></trkpt><trkpt lat="42.33013537366358" lon="14.111861239533473"><ele>42.5</ele><time>2026-05-01T15:32:26Z</time></trkpt><trkpt lat="42.33018289413014" lon="14.112012024885727"><ele>42.75</ele><time>2026-05-01T15:32:27Z</time></trkpt><trkpt lat="42.330228089687" lon="14.112161013683902"><ele>43.0</ele><time>2026-05-01T15:32:28Z</time></trkpt><trkpt lat="42.3302734615287" lon="14.11228408332055"><ele>43.0</ele><time>2026-05-01T15:32:29Z</time></trkpt><trkpt lat="42.33031030780397" lon="14.112411906827342"><ele>43.0</ele><time>2026-05-01T15:32:30Z</time></trkpt><trkpt lat="42.33035477067252" lon="14.112529892338333"><ele>43.0</ele><time>2026-05-01T15:32:31Z</time></trkpt><trkpt lat="42.33038719910619" lon="14.112639980043806"><ele>43.0</ele><time>2026-05-01T15:32:32Z</time></trkpt><trkpt lat="42.330415091376196" lon="14.112742507566146"><ele>43.0</ele><time>2026-05-01T15:32:33Z</time></trkpt><trkpt lat="42.330444674761495" lon="14.112853791860031"><ele>43.0</ele><time>2026-05-01T15:32:34Z</time></trkpt><trkpt lat="42.3304649004986" lon="14.112984844500097"><ele>43.0</ele><time>2026-05-01T15:32:35Z</time></trkpt><trkpt lat="42.33045851113486" lon="14.113120533265938"><ele>43.0</ele><time>2026-05-01T15:32:36Z</time></trkpt><trkpt lat="42.33046258457937" lon="14.113251296620389"><ele>43.0</ele><time>2026-05-01T15:32:37Z</time></trkpt><trkpt lat="42.330513863813756" lon="14.11335487591156"><ele>43.0</ele><time>2026-05-01T15:32:38Z</time></trkpt><trkpt lat="42.33058810784605" lon="14.113415444186803"><ele>42.0</ele><time>2026-05-01T15:32:39Z</time></trkpt><trkpt lat="42.33066446509381" lon="14.113489354706507"><ele>41.0</ele><time>2026-05-01T15:32:40Z</time></trkpt><trkpt lat="42.33070818385185" lon="14.113611551133376"><ele>40.0</ele><time>2026-05-01T15:32:41Z</time></trkpt><trkpt lat="42.33074419767806" lon="14.113754702450231"><ele>39.0</ele><time>2026-05-01T15:32:42Z</time></trkpt><trkpt lat="42.330788994140065" lon="14.113899546629254"><ele>38.0</ele><time>2026-05-01T15:32:43Z</time></trkpt><trkpt lat="42.33083411527234" lon="14.114058496993453"><ele>38.0</ele><time>2026-05-01T15:32:44Z</time></trkpt><trkpt lat="42.330880384687546" lon="14.114223607627448"><ele>38.0</ele><time>2026-05-01T15:32:45Z</time></trkpt><trkpt lat="42.33092611653271" lon="14.114406063796853"><ele>38.0</ele><time>2026-05-01T15:32:46Z</time></trkpt><trkpt lat="42.33098515620982" lon="14.11458532512007"><ele>38.0</ele><time>2026-05-01T15:32:47Z</time></trkpt><trkpt lat="42.33104478658568" lon="14.114764415554001"><ele>38.0</ele><time>2026-05-01T15:32:48Z</time></trkpt><trkpt lat="42.331101981908525" lon="14.1149455591873"><ele>38.0</ele><time>2026-05-01T15:32:49Z</time></trkpt><trkpt lat="42.33116217596872" lon="14.11513161798625"><ele>38.0</ele><time>2026-05-01T15:32:50Z</time></trkpt><trkpt lat="42.331218524876235" lon="14.115307848587046"><ele>38.0</ele><time>2026-05-01T15:32:51Z</time></trkpt><trkpt lat="42.33127360592193" lon="14.11548080726525"><ele>38.0</ele><time>2026-05-01T15:32:52Z</time></trkpt><trkpt lat="42.331327895890055" lon="14.11564615449578"><ele>38.0</ele><time>2026-05-01T15:32:53Z</time></trkpt><trkpt lat="42.33137784711225" lon="14.115809860170494"><ele>38.0</ele><time>2026-05-01T15:32:54Z</time></trkpt><trkpt lat="42.33142759491568" lon="14.115961857531921"><ele>38.0</ele><time>2026-05-01T15:32:55Z</time></trkpt><trkpt lat="42.33148157820535" lon="14.116127377265226"><ele>38.0</ele><time>2026-05-01T15:32:56Z</time></trkpt><trkpt lat="42.33152417266384" lon="14.11629384624855"><ele>38.0</ele><time>2026-05-01T15:32:57Z</time></trkpt><trkpt lat="42.33158419167227" lon="14.116484739343152"><ele>38.0</ele><time>2026-05-01T15:32:58Z</time></trkpt><trkpt lat="42.33165819083844" lon="14.116675399986452"><ele>38.0</ele><time>2026-05-01T15:32:59Z</time></trkpt><trkpt lat="42.331716885976704" lon="14.11684834894203"><ele>38.0</ele><time>2026-05-01T15:33:00Z</time></trkpt><trkpt lat="42.33176257087618" lon="14.117024381971405"><ele>38.0</ele><time>2026-05-01T15:33:01Z</time></trkpt><trkpt lat="42.33181062955171" lon="14.117159765307383"><ele>38.0</ele><time>2026-05-01T15:33:02Z</time></trkpt><trkpt lat="42.33185194371229" lon="14.117303065872141"><ele>38.0</ele><time>2026-05-01T15:33:03Z</time></trkpt><trkpt lat="42.33189785296053" lon="14.11745070821779"><ele>38.4</ele><time>2026-05-01T15:33:04Z</time></trkpt><trkpt lat="42.331942645046816" lon="14.117592749163109"><ele>38.8</ele><time>2026-05-01T15:33:05Z</time></trkpt><trkpt lat="42.331988453954814" lon="14.117724769849174"><ele>39.2</ele><time>2026-05-01T15:33:06Z</time></trkpt><trkpt lat="42.33202578517938" lon="14.11785838883728"><ele>39.6</ele><time>2026-05-01T15:33:07Z</time></trkpt><trkpt lat="42.33205720710274" lon="14.117971603004445"><ele>40.0</ele><time>2026-05-01T15:33:08Z</time></trkpt><trkpt lat="42.332089103674214" lon="14.11807596634044"><ele>40.0</ele><time>2026-05-01T15:33:09Z</time></trkpt><trkpt lat="42.33212259054635" lon="14.118182486654058"><ele>40.0</ele><time>2026-05-01T15:33:10Z</time></trkpt><trkpt lat="42.33215836721087" lon="14.118292393552952"><ele>40.0</ele><time>2026-05-01T15:33:11Z</time></trkpt><trkpt lat="42.33219490921598" lon="14.118415024421079"><ele>40.0</ele><time>2026-05-01T15:33:12Z</time></trkpt><trkpt lat="42.33223663845265" lon="14.118540178137906"><ele>40.0</ele><time>2026-05-01T15:33:13Z</time></trkpt><trkpt lat="42.33227834227782" lon="14.118669855459318"><ele>39.5</ele><time>2026-05-01T15:33:14Z</time></trkpt><trkpt lat="42.33232069564997" lon="14.118803271701678"><ele>39.0</ele><time>2026-05-01T15:33:15Z</time></trkpt><trkpt lat="42.33236177439486" lon="14.11894535748121"><ele>38.5</ele><time>2026-05-01T15:33:16Z</time></trkpt><trkpt lat="42.332409691137116" lon="14.119079663846032"><ele>38.0</ele><time>2026-05-01T15:33:17Z</time></trkpt><trkpt lat="42.33245591697411" lon="14.119230656534253"><ele>37.75</ele><time>2026-05-01T15:33:18Z</time></trkpt><trkpt lat="42.332506833537636" lon="14.119383425150447"><ele>37.5</ele><time>2026-05-01T15:33:19Z</time></trkpt><trkpt lat="42.332551416041035" lon="14.119530235360738"><ele>37.25</ele><time>2026-05-01T15:33:20Z</time></trkpt><trkpt lat="42.332595314459226" lon="14.119674942167055"><ele>37.0</ele><time>2026-05-01T15:33:21Z</time></trkpt><trkpt lat="42.332644184655734" lon="14.119819256565547"><ele>37.6</ele><time>2026-05-01T15:33:22Z</time></trkpt><trkpt lat="42.33268586267742" lon="14.119957252506019"><ele>38.2</ele><time>2026-05-01T15:33:23Z</time></trkpt><trkpt lat="42.33272544713024" lon="14.120093405087138"><ele>38.8</ele><time>2026-05-01T15:33:24Z</time></trkpt><trkpt lat="42.332764915787116" lon="14.1202467044437"><ele>39.4</ele><time>2026-05-01T15:33:25Z</time></trkpt><trkpt lat="42.33281649037867" lon="14.120374638099738"><ele>40.0</ele><time>2026-05-01T15:33:26Z</time></trkpt><trkpt lat="42.33285792040184" lon="14.12051292615146"><ele>40.0</ele><time>2026-05-01T15:33:27Z</time></trkpt><trkpt lat="42.33290058775383" lon="14.12065288494261"><ele>40.0</ele><time>2026-05-01T15:33:28Z</time></trkpt><trkpt lat="42.33295402520098" lon="14.120795604061673"><ele>40.0</ele><time>2026-05-01T15:33:29Z</time></trkpt><trkpt lat="42.3329818307516" lon="14.120917687483313"><ele>40.0</ele><time>2026-05-01T15:33:30Z</time></trkpt><trkpt lat="42.333025455436946" lon="14.121038219840944"><ele>40.0</ele><time>2026-05-01T15:33:31Z</time></trkpt><trkpt lat="42.33306732244165" lon="14.121190513595359"><ele>40.4</ele><time>2026-05-01T15:33:32Z</time></trkpt><trkpt lat="42.333109959718286" lon="14.121326726374567"><ele>40.8</ele><time>2026-05-01T15:33:33Z</time></trkpt><trkpt lat="42.33314777752089" lon="14.12145700008894"><ele>41.2</ele><time>2026-05-01T15:33:34Z</time></trkpt><trkpt lat="42.33319272439012" lon="14.121586308999968"><ele>41.6</ele><time>2026-05-01T15:33:35Z</time></trkpt><trkpt lat="42.333231587084214" lon="14.121718452430436"><ele>42.0</ele><time>2026-05-01T15:33:36Z</time></trkpt><trkpt lat="42.33327246825833" lon="14.1218455733279"><ele>42.0</ele><time>2026-05-01T15:33:37Z</time></trkpt><trkpt lat="42.3333137242607" lon="14.121978193733929"><ele>42.0</ele><time>2026-05-01T15:33:38Z</time></trkpt><trkpt lat="42.33335541394413" lon="14.122105077293932"><ele>42.0</ele><time>2026-05-01T15:33:39Z</time></trkpt><trkpt lat="42.333391955218644" lon="14.122234208723288"><ele>42.0</ele><time>2026-05-01T15:33:40Z</time></trkpt><trkpt lat="42.33343338473788" lon="14.122361859681877"><ele>42.0</ele><time>2026-05-01T15:33:41Z</time></trkpt><trkpt lat="42.33347427615462" lon="14.122490835657882"><ele>42.400000000000006</ele><time>2026-05-01T15:33:42Z</time></trkpt><trkpt lat="42.333518026292" lon="14.122624173705415"><ele>42.800000000000004</ele><time>2026-05-01T15:33:43Z</time></trkpt><trkpt lat="42.333554480409354" lon="14.122756670699772"><ele>43.2</ele><time>2026-05-01T15:33:44Z</time></trkpt><trkpt lat="42.33359647085845" lon="14.122892437998743"><ele>43.6</ele><time>2026-05-01T15:33:45Z</time></trkpt><trkpt lat="42.33363510735005" lon="14.1230219319514"><ele>44.0</ele><time>2026-05-01T15:33:46Z</time></trkpt><trkpt lat="42.333680302041586" lon="14.123157521684258"><ele>43.800000000000004</ele><time>2026-05-01T15:33:47Z</time></trkpt><trkpt lat="42.33372384703565" lon="14.123290156121671"><ele>43.6</ele><time>2026-05-01T15:33:48Z</time></trkpt><trkpt lat="42.33376747048429" lon="14.123428601205774"><ele>43.4</ele><time>2026-05-01T15:33:49Z</time></trkpt><trkpt lat="42.333810500022956" lon="14.12356673833891"><ele>43.2</ele><time>2026-05-01T15:33:50Z</time></trkpt><trkpt lat="42.333854462363256" lon="14.123701964512675"><ele>43.0</ele><time>2026-05-01T15:33:51Z</time></trkpt><trkpt lat="42.33390351126937" lon="14.12383284575729"><ele>42.75</ele><time>2026-05-01T15:33:52Z</time></trkpt><trkpt lat="42.333950146191526" lon="14.12396725201579"><ele>42.5</ele><time>2026-05-01T15:33:53Z</time></trkpt><trkpt lat="42.33399157048454" lon="14.124106134958831"><ele>42.25</ele><time>2026-05-01T15:33:54Z</time></trkpt><trkpt lat="42.334035435588866" lon="14.12424234817389"><ele>42.0</ele><time>2026-05-01T15:33:55Z</time></trkpt><trkpt lat="42.33408598677793" lon="14.124396097882721"><ele>41.75</ele><time>2026-05-01T15:33:56Z</time></trkpt><trkpt lat="42.33413591337355" lon="14.124556582119874"><ele>41.5</ele><time>2026-05-01T15:33:57Z</time></trkpt><trkpt lat="42.334186227334754" lon="14.124724146149164"><ele>41.25</ele><time>2026-05-01T15:33:58Z</time></trkpt><trkpt lat="42.334236945558374" lon="14.124891189321449"><ele>41.0</ele><time>2026-05-01T15:33:59Z</time></trkpt><trkpt lat="42.33428430611264" lon="14.125041539674449"><ele>41.5</ele><time>2026-05-01T15:34:00Z</time></trkpt><trkpt lat="42.33432869650257" lon="14.125183605105658"><ele>42.0</ele><time>2026-05-01T15:34:01Z</time></trkpt><trkpt lat="42.33437704557566" lon="14.12532721606246"><ele>42.5</ele><time>2026-05-01T15:34:02Z</time></trkpt><trkpt lat="42.33442388065803" lon="14.125478602040634"><ele>43.0</ele><time>2026-05-01T15:34:03Z</time></trkpt><trkpt lat="42.33447239899685" lon="14.125632086914491"><ele>43.5</ele><time>2026-05-01T15:34:04Z</time></trkpt><trkpt lat="42.33452051500092" lon="14.125781823441432"><ele>44.0</ele><time>2026-05-01T15:34:05Z</time></trkpt><trkpt lat="42.33456916815373" lon="14.125937785517072"><ele>44.5</ele><time>2026-05-01T15:34:06Z</time></trkpt><trkpt lat="42.33461629121174" lon="14.126090905402412"><ele>45.0</ele><time>2026-05-01T15:34:07Z</time></trkpt><trkpt lat="42.334661830853946" lon="14.126243532107367"><ele>45.0</ele><time>2026-05-01T15:34:08Z</time></trkpt><trkpt lat="42.334709749837" lon="14.126397394702789"><ele>45.0</ele><time>2026-05-01T15:34:09Z</time></trkpt><trkpt lat="42.33475540527577" lon="14.126541207569863"><ele>45.0</ele><time>2026-05-01T15:34:10Z</time></trkpt><trkpt lat="42.33479740086631" lon="14.126683160020201"><ele>45.0</ele><time>2026-05-01T15:34:11Z</time></trkpt><trkpt lat="42.334842582868454" lon="14.126822556199937"><ele>45.25</ele><time>2026-05-01T15:34:12Z</time></trkpt><trkpt lat="42.33489023248723" lon="14.126965319502402"><ele>45.5</ele><time>2026-05-01T15:34:13Z</time></trkpt><trkpt lat="42.33493783298991" lon="14.127106670374092"><ele>45.75</ele><time>2026-05-01T15:34:14Z</time></trkpt><trkpt lat="42.33498508545981" lon="14.127258080410934"><ele>46.0</ele><time>2026-05-01T15:34:15Z</time></trkpt><trkpt lat="42.33503243789375" lon="14.127413246746288"><ele>46.5</ele><time>2026-05-01T15:34:16Z</time></trkpt><trkpt lat="42.33508398523572" lon="14.127569814065499"><ele>47.0</ele><time>2026-05-01T15:34:17Z</time></trkpt><trkpt lat="42.335133956386834" lon="14.127727311804058"><ele>47.5</ele><time>2026-05-01T15:34:18Z</time></trkpt><trkpt lat="42.33518349276061" lon="14.127881777305298"><ele>48.0</ele><time>2026-05-01T15:34:19Z</time></trkpt><trkpt lat="42.3352347788612" lon="14.12804545307114"><ele>48.0</ele><time>2026-05-01T15:34:20Z</time></trkpt><trkpt lat="42.3352893231306" lon="14.128214177449602"><ele>48.0</ele><time>2026-05-01T15:34:21Z</time></trkpt><trkpt lat="42.33534809314493" lon="14.128398409454078"><ele>48.0</ele><time>2026-05-01T15:34:22Z</time></trkpt><trkpt lat="42.33539544728027" lon="14.12858154782429"><ele>48.0</ele><time>2026-05-01T15:34:23Z</time></trkpt><trkpt lat="42.33545414599176" lon="14.128765168584962"><ele>48.33333333333333</ele><time>2026-05-01T15:34:24Z</time></trkpt><trkpt lat="42.3355148356945" lon="14.128955017488561"><ele>48.666666666666664</ele><time>2026-05-01T15:34:25Z</time></trkpt><trkpt lat="42.335574299656884" lon="14.129145870594572"><ele>49.0</ele><time>2026-05-01T15:34:26Z</time></trkpt><trkpt lat="42.33563542557867" lon="14.129342031249076"><ele>49.25</ele><time>2026-05-01T15:34:27Z</time></trkpt><trkpt lat="42.33569034303346" lon="14.129521288378237"><ele>49.5</ele><time>2026-05-01T15:34:28Z</time></trkpt><trkpt lat="42.33575404769981" lon="14.129677159038327"><ele>49.75</ele><time>2026-05-01T15:34:29Z</time></trkpt><trkpt lat="42.335802784992076" lon="14.129840115676227"><ele>50.0</ele><time>2026-05-01T15:34:30Z</time></trkpt><trkpt lat="42.33585074631705" lon="14.12999966599292"><ele>50.5</ele><time>2026-05-01T15:34:31Z</time></trkpt><trkpt lat="42.33589788393951" lon="14.13015386972119"><ele>51.0</ele><time>2026-05-01T15:34:32Z</time></trkpt><trkpt lat="42.33594706186461" lon="14.130304178617768"><ele>51.5</ele><time>2026-05-01T15:34:33Z</time></trkpt><trkpt lat="42.33599740493037" lon="14.130465667452608"><ele>52.0</ele><time>2026-05-01T15:34:34Z</time></trkpt><trkpt lat="42.336058324863046" lon="14.130653408537475"><ele>52.0</ele><time>2026-05-01T15:34:35Z</time></trkpt><trkpt lat="42.33611086976923" lon="14.130880541580527"><ele>52.0</ele><time>2026-05-01T15:34:36Z</time></trkpt><trkpt lat="42.33618348938423" lon="14.131111970994631"><ele>52.0</ele><time>2026-05-01T15:34:37Z</time></trkpt><trkpt lat="42.33625476797896" lon="14.131334170352432"><ele>52.0</ele><time>2026-05-01T15:34:38Z</time></trkpt><trkpt lat="42.336340971024086" lon="14.131545784039153"><ele>52.0</ele><time>2026-05-01T15:34:39Z</time></trkpt><trkpt lat="42.33639768323144" lon="14.131743078932358"><ele>52.0</ele><time>2026-05-01T15:34:40Z</time></trkpt><trkpt lat="42.336458181358125" lon="14.13192407735326"><ele>52.0</ele><time>2026-05-01T15:34:41Z</time></trkpt><trkpt lat="42.33653055813916" lon="14.13209096920974"><ele>52.0</ele><time>2026-05-01T15:34:42Z</time></trkpt><trkpt lat="42.33662064157653" lon="14.132251551569192"><ele>52.0</ele><time>2026-05-01T15:34:43Z</time></trkpt><trkpt lat="42.33672933142072" lon="14.132402919644184"><ele>52.0</ele><time>2026-05-01T15:34:44Z</time></trkpt><trkpt lat="42.336851807701045" lon="14.132536547568"><ele>52.666666666666664</ele><time>2026-05-01T15:34:45Z</time></trkpt><trkpt lat="42.33698800782581" lon="14.13266775030974"><ele>53.33333333333333</ele><time>2026-05-01T15:34:46Z</time></trkpt><trkpt lat="42.337133909115856" lon="14.132781518375026"><ele>54.0</ele><time>2026-05-01T15:34:47Z</time></trkpt><trkpt lat="42.33728359465645" lon="14.132870955193713"><ele>54.33333333333333</ele><time>2026-05-01T15:34:48Z</time></trkpt><trkpt lat="42.337428794689714" lon="14.132926975433648"><ele>54.666666666666664</ele><time>2026-05-01T15:34:49Z</time></trkpt><trkpt lat="42.33757845012365" lon="14.132973785464193"><ele>55.0</ele><time>2026-05-01T15:34:50Z</time></trkpt><trkpt lat="42.33773540116242" lon="14.133021193807057"><ele>55.0</ele><time>2026-05-01T15:34:51Z</time></trkpt><trkpt lat="42.337893287459224" lon="14.133066649560876"><ele>55.0</ele><time>2026-05-01T15:34:52Z</time></trkpt><trkpt lat="42.33804255050856" lon="14.133105174997967"><ele>55.0</ele><time>2026-05-01T15:34:53Z</time></trkpt><trkpt lat="42.33817532834888" lon="14.133144062108547"><ele>55.0</ele><time>2026-05-01T15:34:54Z</time></trkpt><trkpt lat="42.33829871566748" lon="14.133182935268005"><ele>55.0</ele><time>2026-05-01T15:34:55Z</time></trkpt><trkpt lat="42.33843237099546" lon="14.133234465655693"><ele>55.0</ele><time>2026-05-01T15:34:56Z</time></trkpt><trkpt lat="42.33857510832554" lon="14.133276334377594"><ele>55.0</ele><time>2026-05-01T15:34:57Z</time></trkpt><trkpt lat="42.338712436959526" lon="14.133308841387375"><ele>55.0</ele><time>2026-05-01T15:34:58Z</time></trkpt><trkpt lat="42.33883459826403" lon="14.13334201559168"><ele>55.25</ele><time>2026-05-01T15:34:59Z</time></trkpt><trkpt lat="42.338963803345614" lon="14.133384013594096"><ele>55.5</ele><time>2026-05-01T15:35:00Z</time></trkpt><trkpt lat="42.33910450693726" lon="14.1334296309888"><ele>55.75</ele><time>2026-05-01T15:35:01Z</time></trkpt><trkpt lat="42.33924981978763" lon="14.133471539217672"><ele>56.0</ele><time>2026-05-01T15:35:02Z</time></trkpt><trkpt lat="42.339392866473005" lon="14.133516052412524"><ele>56.0</ele><time>2026-05-01T15:35:03Z</time></trkpt><trkpt lat="42.339523066889136" lon="14.133561583650438"><ele>56.0</ele><time>2026-05-01T15:35:04Z</time></trkpt><trkpt lat="42.33964390955686" lon="14.133597731445729"><ele>56.0</ele><time>2026-05-01T15:35:05Z</time></trkpt><trkpt lat="42.33976555599231" lon="14.133632003323214"><ele>56.0</ele><time>2026-05-01T15:35:06Z</time></trkpt><trkpt lat="42.33988683879849" lon="14.133667129412965"><ele>55.8</ele><time>2026-05-01T15:35:07Z</time></trkpt><trkpt lat="42.33999828691596" lon="14.133699571399951"><ele>55.599999999999994</ele><time>2026-05-01T15:35:08Z</time></trkpt><trkpt lat="42.34010213051735" lon="14.13372783874007"><ele>55.4</ele><time>2026-05-01T15:35:09Z</time></trkpt><trkpt lat="42.34019895888528" lon="14.13375628036611"><ele>55.2</ele><time>2026-05-01T15:35:10Z</time></trkpt><trkpt lat="42.34027782782885" lon="14.133784756895668"><ele>55.0</ele><time>2026-05-01T15:35:11Z</time></trkpt><trkpt lat="42.34036819939327" lon="14.133820807501928"><ele>54.99999999999999</ele><time>2026-05-01T15:35:13Z</time></trkpt><trkpt lat="42.34043203066813" lon="14.133851612448334"><ele>55.0</ele><time>2026-05-01T15:35:16Z</time></trkpt><trkpt lat="42.34048820119376" lon="14.133938018348188"><ele>55.0</ele><time>2026-05-01T15:35:18Z</time></trkpt><trkpt lat="42.34055229790164" lon="14.134026253092504"><ele>55.0</ele><time>2026-05-01T15:35:20Z</time></trkpt><trkpt lat="42.34063183505197" lon="14.134024954256137"><ele>54.99999999999999</ele><time>2026-05-01T15:35:22Z</time></trkpt><trkpt lat="42.340709851050875" lon="14.133916287418227"><ele>55.0</ele><time>2026-05-01T15:35:24Z</time></trkpt><trkpt lat="42.34070079858017" lon="14.133747963446064"><ele>54.6</ele><time>2026-05-01T15:35:26Z</time></trkpt><trkpt lat="42.34067076340306" lon="14.133665485170132"><ele>54.2</ele><time>2026-05-01T15:35:27Z</time></trkpt><trkpt lat="42.34067602496995" lon="14.133474634632059"><ele>53.8</ele><time>2026-05-01T15:35:29Z</time></trkpt><trkpt lat="42.3407259995009" lon="14.133373096959971"><ele>53.4</ele><time>2026-05-01T15:35:30Z</time></trkpt><trkpt lat="42.34078796982426" lon="14.133261391592884"><ele>53.0</ele><time>2026-05-01T15:35:31Z</time></trkpt><trkpt lat="42.3408411980526" lon="14.133165398073057"><ele>52.599999999999994</ele><time>2026-05-01T15:35:32Z</time></trkpt><trkpt lat="42.340897761339264" lon="14.133067643360027"><ele>52.199999999999996</ele><time>2026-05-01T15:35:33Z</time></trkpt><trkpt lat="42.340959663149164" lon="14.132957230682345"><ele>51.8</ele><time>2026-05-01T15:35:34Z</time></trkpt><trkpt lat="42.34103357117533" lon="14.132834337089978"><ele>51.4</ele><time>2026-05-01T15:35:35Z</time></trkpt><trkpt lat="42.34111182419501" lon="14.132713274791445"><ele>51.0</ele><time>2026-05-01T15:35:36Z</time></trkpt><trkpt lat="42.34118640221353" lon="14.132602518066879"><ele>51.0</ele><time>2026-05-01T15:35:37Z</time></trkpt><trkpt lat="42.341259221885835" lon="14.132496621113996"><ele>51.0</ele><time>2026-05-01T15:35:38Z</time></trkpt><trkpt lat="42.341326534434295" lon="14.132398096349839"><ele>51.0</ele><time>2026-05-01T15:35:39Z</time></trkpt><trkpt lat="42.3413867797292" lon="14.132307661572593"><ele>51.0</ele><time>2026-05-01T15:35:40Z</time></trkpt><trkpt lat="42.34143929689496" lon="14.132223019458623"><ele>51.0</ele><time>2026-05-01T15:35:41Z</time></trkpt><trkpt lat="42.341477179481124" lon="14.132150334166168"><ele>51.0</ele><time>2026-05-01T15:35:42Z</time></trkpt><trkpt lat="42.34152792607558" lon="14.131999629571402"><ele>50.4</ele><time>2026-05-01T15:35:44Z</time></trkpt><trkpt lat="42.34156509645728" lon="14.131844263743735"><ele>49.8</ele><time>2026-05-01T15:35:46Z</time></trkpt><trkpt lat="42.341609139095894" lon="14.131712916633258"><ele>49.199999999999996</ele><time>2026-05-01T15:35:48Z</time></trkpt><trkpt lat="42.341638642261685" lon="14.131607093415179"><ele>48.599999999999994</ele><time>2026-05-01T15:35:49Z</time></trkpt><trkpt lat="42.34167319808478" lon="14.131528057460283"><ele>48.0</ele><time>2026-05-01T15:35:50Z</time></trkpt><trkpt lat="42.34171130251584" lon="14.131382516153385"><ele>47.833333333333336</ele><time>2026-05-01T15:35:52Z</time></trkpt><trkpt lat="42.341778570709984" lon="14.131266962600243"><ele>47.666666666666664</ele><time>2026-05-01T15:35:54Z</time></trkpt><trkpt lat="42.341824229214154" lon="14.131183947735822"><ele>47.5</ele><time>2026-05-01T15:35:55Z</time></trkpt><trkpt lat="42.34185112277637" lon="14.131083174962313"><ele>47.33333333333333</ele><time>2026-05-01T15:35:56Z</time></trkpt><trkpt lat="42.34186756174866" lon="14.130970311985376"><ele>47.166666666666664</ele><time>2026-05-01T15:35:57Z</time></trkpt><trkpt lat="42.341885213811935" lon="14.130846520704845"><ele>47.0</ele><time>2026-05-01T15:35:58Z</time></trkpt><trkpt lat="42.34191037199309" lon="14.130720024960528"><ele>46.83333333333333</ele><time>2026-05-01T15:35:59Z</time></trkpt><trkpt lat="42.34193751535223" lon="14.130597702763387"><ele>46.666666666666664</ele><time>2026-05-01T15:36:00Z</time></trkpt><trkpt lat="42.34196407899477" lon="14.130491273570547"><ele>46.5</ele><time>2026-05-01T15:36:01Z</time></trkpt><trkpt lat="42.34195516781469" lon="14.130387396424352"><ele>46.333333333333336</ele><time>2026-05-01T15:36:02Z</time></trkpt><trkpt lat="42.342010710771" lon="14.130297190002684"><ele>46.16666666666667</ele><time>2026-05-01T15:36:03Z</time></trkpt><trkpt lat="42.342030825524304" lon="14.13020721864373"><ele>46.0</ele><time>2026-05-01T15:36:04Z</time></trkpt><trkpt lat="42.34205008015825" lon="14.130055757101545"><ele>46.0</ele><time>2026-05-01T15:36:06Z</time></trkpt><trkpt lat="42.34205306484965" lon="14.12992376214636"><ele>46.0</ele><time>2026-05-01T15:36:08Z</time></trkpt><trkpt lat="42.34207451667727" lon="14.12978517848508"><ele>46.0</ele><time>2026-05-01T15:36:10Z</time></trkpt><trkpt lat="42.34211345875369" lon="14.129699344313567"><ele>46.0</ele><time>2026-05-01T15:36:11Z</time></trkpt><trkpt lat="42.34216099059643" lon="14.129609937835443"><ele>46.0</ele><time>2026-05-01T15:36:12Z</time></trkpt><trkpt lat="42.34219299388078" lon="14.129517173021657"><ele>46.0</ele><time>2026-05-01T15:36:13Z</time></trkpt><trkpt lat="42.34220366826794" lon="14.129403603137261"><ele>45.66666666666667</ele><time>2026-05-01T15:36:14Z</time></trkpt><trkpt lat="42.34217863349117" lon="14.129293176220793"><ele>45.333333333333336</ele><time>2026-05-01T15:36:15Z</time></trkpt><trkpt lat="42.34212254727783" lon="14.129212961284454"><ele>45.0</ele><time>2026-05-01T15:36:16Z</time></trkpt><trkpt lat="42.34205539695038" lon="14.129169205225306"><ele>44.666666666666664</ele><time>2026-05-01T15:36:17Z</time></trkpt><trkpt lat="42.3419800504029" lon="14.129153545941087"><ele>44.33333333333333</ele><time>2026-05-01T15:36:18Z</time></trkpt><trkpt lat="42.341934096069664" lon="14.129035955508408"><ele>44.0</ele><time>2026-05-01T15:36:19Z</time></trkpt><trkpt lat="42.34189980521863" lon="14.12892422834646"><ele>43.0</ele><time>2026-05-01T15:36:20Z</time></trkpt><trkpt lat="42.341870550989825" lon="14.128796995827654"><ele>42.0</ele><time>2026-05-01T15:36:21Z</time></trkpt><trkpt lat="42.341836364392805" lon="14.128661980585377"><ele>41.0</ele><time>2026-05-01T15:36:22Z</time></trkpt><trkpt lat="42.341803675814845" lon="14.128527090778908"><ele>40.0</ele><time>2026-05-01T15:36:23Z</time></trkpt><trkpt lat="42.34177433656067" lon="14.12839115010798"><ele>39.0</ele><time>2026-05-01T15:36:24Z</time></trkpt><trkpt lat="42.341750561120236" lon="14.128253739165453"><ele>38.6</ele><time>2026-05-01T15:36:25Z</time></trkpt><trkpt lat="42.34172746043779" lon="14.128114703930997"><ele>38.2</ele><time>2026-05-01T15:36:26Z</time></trkpt><trkpt lat="42.34170338000047" lon="14.127971107575025"><ele>37.800000000000004</ele><time>2026-05-01T15:36:27Z</time></trkpt><trkpt lat="42.341678408908344" lon="14.127822845092798"><ele>37.4</ele><time>2026-05-01T15:36:28Z</time></trkpt><trkpt lat="42.341650065127574" lon="14.127665500307973"><ele>37.0</ele><time>2026-05-01T15:36:29Z</time></trkpt><trkpt lat="42.34162146224684" lon="14.127503826231424"><ele>36.5</ele><time>2026-05-01T15:36:30Z</time></trkpt><trkpt lat="42.341594675920994" lon="14.127340042991868"><ele>36.0</ele><time>2026-05-01T15:36:31Z</time></trkpt><trkpt lat="42.34157105812296" lon="14.12717907233756"><ele>35.5</ele><time>2026-05-01T15:36:32Z</time></trkpt><trkpt lat="42.341544515245154" lon="14.127023530490918"><ele>35.0</ele><time>2026-05-01T15:36:33Z</time></trkpt><trkpt lat="42.34151676070725" lon="14.126868672870273"><ele>35.0</ele><time>2026-05-01T15:36:34Z</time></trkpt><trkpt lat="42.34148837490342" lon="14.126708666327312"><ele>35.0</ele><time>2026-05-01T15:36:35Z</time></trkpt><trkpt lat="42.34145954014928" lon="14.126550790399223"><ele>35.0</ele><time>2026-05-01T15:36:36Z</time></trkpt><trkpt lat="42.34143242676449" lon="14.126405341241362"><ele>35.0</ele><time>2026-05-01T15:36:37Z</time></trkpt><trkpt lat="42.34140832313103" lon="14.126267225215635"><ele>35.0</ele><time>2026-05-01T15:36:38Z</time></trkpt><trkpt lat="42.34138495193209" lon="14.126128192414573"><ele>35.0</ele><time>2026-05-01T15:36:39Z</time></trkpt><trkpt lat="42.34136139930761" lon="14.125985341007281"><ele>35.0</ele><time>2026-05-01T15:36:40Z</time></trkpt><trkpt lat="42.34133961842237" lon="14.125845813431066"><ele>35.0</ele><time>2026-05-01T15:36:41Z</time></trkpt><trkpt lat="42.34131397580522" lon="14.125701291172806"><ele>35.0</ele><time>2026-05-01T15:36:42Z</time></trkpt><trkpt lat="42.341288650782225" lon="14.125557872037888"><ele>35.0</ele><time>2026-05-01T15:36:43Z</time></trkpt><trkpt lat="42.341262920794435" lon="14.12541298628952"><ele>35.0</ele><time>2026-05-01T15:36:44Z</time></trkpt><trkpt lat="42.341239114402306" lon="14.125268122226291"><ele>35.0</ele><time>2026-05-01T15:36:45Z</time></trkpt><trkpt lat="42.34121755433258" lon="14.125129392984647"><ele>35.0</ele><time>2026-05-01T15:36:46Z</time></trkpt><trkpt lat="42.34119781144767" lon="14.124995915404982"><ele>35.0</ele><time>2026-05-01T15:36:47Z</time></trkpt><trkpt lat="42.34117453290178" lon="14.124859566205181"><ele>35.0</ele><time>2026-05-01T15:36:48Z</time></trkpt><trkpt lat="42.34114784342572" lon="14.124720283400247"><ele>35.0</ele><time>2026-05-01T15:36:49Z</time></trkpt><trkpt lat="42.34112130171907" lon="14.124571035245818"><ele>35.0</ele><time>2026-05-01T15:36:50Z</time></trkpt><trkpt lat="42.341097495553996" lon="14.124415403355377"><ele>35.0</ele><time>2026-05-01T15:36:51Z</time></trkpt><trkpt lat="42.341070732995824" lon="14.124272020448332"><ele>35.0</ele><time>2026-05-01T15:36:52Z</time></trkpt><trkpt lat="42.34104682225685" lon="14.124134719143099"><ele>35.25</ele><time>2026-05-01T15:36:53Z</time></trkpt><trkpt lat="42.34102148084493" lon="14.12398974838675"><ele>35.5</ele><time>2026-05-01T15:36:54Z</time></trkpt><trkpt lat="42.34099708473182" lon="14.123840588002281"><ele>35.75</ele><time>2026-05-01T15:36:55Z</time></trkpt><trkpt lat="42.3409710594913" lon="14.1236910844275"><ele>36.0</ele><time>2026-05-01T15:36:56Z</time></trkpt><trkpt lat="42.34094803846341" lon="14.1235380339102"><ele>36.0</ele><time>2026-05-01T15:36:57Z</time></trkpt><trkpt lat="42.34092489403552" lon="14.123386391327932"><ele>36.0</ele><time>2026-05-01T15:36:58Z</time></trkpt><trkpt lat="42.340901642466605" lon="14.123236436145092"><ele>36.0</ele><time>2026-05-01T15:36:59Z</time></trkpt><trkpt lat="42.34087990823119" lon="14.123098381401704"><ele>36.0</ele><time>2026-05-01T15:37:00Z</time></trkpt><trkpt lat="42.34085556688203" lon="14.122969860119065"><ele>36.0</ele><time>2026-05-01T15:37:01Z</time></trkpt><trkpt lat="42.34083346903305" lon="14.122848983345259"><ele>35.833333333333336</ele><time>2026-05-01T15:37:02Z</time></trkpt><trkpt lat="42.340817893629115" lon="14.122734310747973"><ele>35.666666666666664</ele><time>2026-05-01T15:37:03Z</time></trkpt><trkpt lat="42.34080392039811" lon="14.122613669818909"><ele>35.5</ele><time>2026-05-01T15:37:04Z</time></trkpt><trkpt lat="42.34079556457641" lon="14.122491830440108"><ele>35.33333333333333</ele><time>2026-05-01T15:37:05Z</time></trkpt><trkpt lat="42.34079217989895" lon="14.122369285706638"><ele>35.166666666666664</ele><time>2026-05-01T15:37:06Z</time></trkpt><trkpt lat="42.340796263730276" lon="14.122246221407893"><ele>35.0</ele><time>2026-05-01T15:37:07Z</time></trkpt><trkpt lat="42.340806612829304" lon="14.122122466015213"><ele>34.83333333333333</ele><time>2026-05-01T15:37:08Z</time></trkpt><trkpt lat="42.340823687880494" lon="14.121998317457312"><ele>34.666666666666664</ele><time>2026-05-01T15:37:09Z</time></trkpt><trkpt lat="42.340848282388336" lon="14.121879352720876"><ele>34.5</ele><time>2026-05-01T15:37:10Z</time></trkpt><trkpt lat="42.34089000117276" lon="14.121773887836662"><ele>34.333333333333336</ele><time>2026-05-01T15:37:11Z</time></trkpt><trkpt lat="42.34094747015427" lon="14.12168752754874"><ele>34.16666666666667</ele><time>2026-05-01T15:37:12Z</time></trkpt><trkpt lat="42.341019790905314" lon="14.12162952956445"><ele>34.0</ele><time>2026-05-01T15:37:13Z</time></trkpt><trkpt lat="42.34109868587053" lon="14.121576904064602"><ele>33.333333333333336</ele><time>2026-05-01T15:37:14Z</time></trkpt><trkpt lat="42.34115886558238" lon="14.121517886623542"><ele>32.66666666666667</ele><time>2026-05-01T15:37:15Z</time></trkpt><trkpt lat="42.34119967489908" lon="14.121431648299975"><ele>32.0</ele><time>2026-05-01T15:37:16Z</time></trkpt><trkpt lat="42.341221173571356" lon="14.121321707559195"><ele>31.333333333333336</ele><time>2026-05-01T15:37:17Z</time></trkpt><trkpt lat="42.34121978615258" lon="14.121209476031531"><ele>30.666666666666668</ele><time>2026-05-01T15:37:18Z</time></trkpt><trkpt lat="42.3412142038356" lon="14.121107617459542"><ele>30.0</ele><time>2026-05-01T15:37:19Z</time></trkpt><trkpt lat="42.34122416915655" lon="14.121009116816843"><ele>30.0</ele><time>2026-05-01T15:37:20Z</time></trkpt><trkpt lat="42.34125937930102" lon="14.120910004392417"><ele>30.0</ele><time>2026-05-01T15:37:21Z</time></trkpt><trkpt lat="42.34131352846237" lon="14.120810640009111"><ele>30.0</ele><time>2026-05-01T15:37:22Z</time></trkpt><trkpt lat="42.34138517314828" lon="14.120696952201724"><ele>30.0</ele><time>2026-05-01T15:37:23Z</time></trkpt><trkpt lat="42.341458571804395" lon="14.120573050592792"><ele>30.0</ele><time>2026-05-01T15:37:24Z</time></trkpt><trkpt lat="42.34152924170721" lon="14.120444832230431"><ele>30.75</ele><time>2026-05-01T15:37:25Z</time></trkpt><trkpt lat="42.341600398650954" lon="14.120312545380234"><ele>31.5</ele><time>2026-05-01T15:37:26Z</time></trkpt><trkpt lat="42.34167209329518" lon="14.120180408203652"><ele>32.25</ele><time>2026-05-01T15:37:27Z</time></trkpt><trkpt lat="42.34174412801783" lon="14.120052566843741"><ele>33.0</ele><time>2026-05-01T15:37:28Z</time></trkpt><trkpt lat="42.34181016302552" lon="14.119936648334324"><ele>32.6</ele><time>2026-05-01T15:37:29Z</time></trkpt><trkpt lat="42.34187563310065" lon="14.119814359500383"><ele>32.199999999999996</ele><time>2026-05-01T15:37:30Z</time></trkpt><trkpt lat="42.341937899139765" lon="14.1196919622158"><ele>31.8</ele><time>2026-05-01T15:37:31Z</time></trkpt><trkpt lat="42.34200131691248" lon="14.119572191550029"><ele>31.4</ele><time>2026-05-01T15:37:32Z</time></trkpt><trkpt lat="42.34206559691274" lon="14.119460494144585"><ele>31.0</ele><time>2026-05-01T15:37:33Z</time></trkpt><trkpt lat="42.34213339166072" lon="14.119342708464297"><ele>31.0</ele><time>2026-05-01T15:37:34Z</time></trkpt><trkpt lat="42.34220177495328" lon="14.119221582261735"><ele>31.0</ele><time>2026-05-01T15:37:35Z</time></trkpt><trkpt lat="42.34226843705141" lon="14.119098264381565"><ele>31.0</ele><time>2026-05-01T15:37:36Z</time></trkpt><trkpt lat="42.342328836069385" lon="14.118974270636055"><ele>31.0</ele><time>2026-05-01T15:37:37Z</time></trkpt><trkpt lat="42.342384612548365" lon="14.118840053083288"><ele>31.0</ele><time>2026-05-01T15:37:38Z</time></trkpt><trkpt lat="42.342440201485765" lon="14.118689490958271"><ele>31.5</ele><time>2026-05-01T15:37:39Z</time></trkpt><trkpt lat="42.342490445596965" lon="14.118527419959932"><ele>32.0</ele><time>2026-05-01T15:37:40Z</time></trkpt><trkpt lat="42.34253118425619" lon="14.118364482428985"><ele>32.5</ele><time>2026-05-01T15:37:41Z</time></trkpt><trkpt lat="42.3425614851648" lon="14.118211178943294"><ele>33.0</ele><time>2026-05-01T15:37:42Z</time></trkpt><trkpt lat="42.34258952371869" lon="14.118067338117049"><ele>34.199999999999996</ele><time>2026-05-01T15:37:43Z</time></trkpt><trkpt lat="42.342616736777714" lon="14.117931780139973"><ele>35.4</ele><time>2026-05-01T15:37:44Z</time></trkpt><trkpt lat="42.34264219712162" lon="14.117784504483861"><ele>36.599999999999994</ele><time>2026-05-01T15:37:45Z</time></trkpt><trkpt lat="42.342667488080856" lon="14.117642699320177"><ele>37.8</ele><time>2026-05-01T15:37:46Z</time></trkpt><trkpt lat="42.342693292371735" lon="14.117503311255495"><ele>39.0</ele><time>2026-05-01T15:37:47Z</time></trkpt><trkpt lat="42.34272003254079" lon="14.117365958783072"><ele>40.5</ele><time>2026-05-01T15:37:48Z</time></trkpt><trkpt lat="42.34274797720407" lon="14.117227301403947"><ele>42.0</ele><time>2026-05-01T15:37:49Z</time></trkpt><trkpt lat="42.342778756072406" lon="14.1170800191025"><ele>43.5</ele><time>2026-05-01T15:37:50Z</time></trkpt><trkpt lat="42.342809652174275" lon="14.116930951365335"><ele>45.0</ele><time>2026-05-01T15:37:51Z</time></trkpt><trkpt lat="42.34284017972326" lon="14.116768799178175"><ele>45.0</ele><time>2026-05-01T15:37:52Z</time></trkpt><trkpt lat="42.342867673095384" lon="14.116602487093669"><ele>45.0</ele><time>2026-05-01T15:37:53Z</time></trkpt><trkpt lat="42.34289419749866" lon="14.116438371993787"><ele>45.0</ele><time>2026-05-01T15:37:54Z</time></trkpt><trkpt lat="42.34292201286643" lon="14.116273496964766"><ele>45.0</ele><time>2026-05-01T15:37:55Z</time></trkpt><trkpt lat="42.34295187634413" lon="14.11610939007247"><ele>45.25</ele><time>2026-05-01T15:37:56Z</time></trkpt><trkpt lat="42.342981195194014" lon="14.115944921638876"><ele>45.5</ele><time>2026-05-01T15:37:57Z</time></trkpt><trkpt lat="42.34301144348915" lon="14.11577975201492"><ele>45.75</ele><time>2026-05-01T15:37:58Z</time></trkpt><trkpt lat="42.34304108698231" lon="14.115611034964571"><ele>46.0</ele><time>2026-05-01T15:37:59Z</time></trkpt><trkpt lat="42.34306784211524" lon="14.115442800757975"><ele>46.5</ele><time>2026-05-01T15:38:00Z</time></trkpt><trkpt lat="42.34309424502971" lon="14.115275263068483"><ele>47.0</ele><time>2026-05-01T15:38:01Z</time></trkpt><trkpt lat="42.34312058562439" lon="14.115105998933926"><ele>47.5</ele><time>2026-05-01T15:38:02Z</time></trkpt><trkpt lat="42.3431459275765" lon="14.114938214809326"><ele>48.0</ele><time>2026-05-01T15:38:03Z</time></trkpt><trkpt lat="42.34316971654855" lon="14.114769686727968"><ele>48.0</ele><time>2026-05-01T15:38:04Z</time></trkpt><trkpt lat="42.343191347430604" lon="14.114599057548443"><ele>48.0</ele><time>2026-05-01T15:38:05Z</time></trkpt><trkpt lat="42.34321229069092" lon="14.114438002566981"><ele>48.0</ele><time>2026-05-01T15:38:06Z</time></trkpt><trkpt lat="42.3432331671481" lon="14.114287424617123"><ele>48.0</ele><time>2026-05-01T15:38:07Z</time></trkpt><trkpt lat="42.34325295019462" lon="14.114147489186587"><ele>47.75</ele><time>2026-05-01T15:38:08Z</time></trkpt><trkpt lat="42.34327104213293" lon="14.113999006208463"><ele>47.5</ele><time>2026-05-01T15:38:09Z</time></trkpt><trkpt lat="42.343290581439256" lon="14.113844907036787"><ele>47.25</ele><time>2026-05-01T15:38:10Z</time></trkpt><trkpt lat="42.34331211655031" lon="14.113683556393234"><ele>47.0</ele><time>2026-05-01T15:38:11Z</time></trkpt><trkpt lat="42.34333530654468" lon="14.113518092809125"><ele>47.0</ele><time>2026-05-01T15:38:12Z</time></trkpt><trkpt lat="42.34335859003142" lon="14.113344231511933"><ele>47.0</ele><time>2026-05-01T15:38:13Z</time></trkpt><trkpt lat="42.3433800330368" lon="14.113172427895378"><ele>47.0</ele><time>2026-05-01T15:38:14Z</time></trkpt><trkpt lat="42.3434012155581" lon="14.113012066322563"><ele>47.0</ele><time>2026-05-01T15:38:15Z</time></trkpt><trkpt lat="42.34342081825086" lon="14.112856758481652"><ele>47.0</ele><time>2026-05-01T15:38:16Z</time></trkpt><trkpt lat="42.343441266466954" lon="14.112708125742401"><ele>47.0</ele><time>2026-05-01T15:38:17Z</time></trkpt><trkpt lat="42.34346077042924" lon="14.112565335666401"><ele>47.0</ele><time>2026-05-01T15:38:18Z</time></trkpt><trkpt lat="42.34347932807896" lon="14.112427363554419"><ele>47.0</ele><time>2026-05-01T15:38:19Z</time></trkpt><trkpt lat="42.34349674312422" lon="14.112295835779328"><ele>47.0</ele><time>2026-05-01T15:38:20Z</time></trkpt><trkpt lat="42.343513218579794" lon="14.112173983102112"><ele>47.0</ele><time>2026-05-01T15:38:21Z</time></trkpt><trkpt lat="42.34352902766898" lon="14.112060771575369"><ele>47.0</ele><time>2026-05-01T15:38:22Z</time></trkpt><trkpt lat="42.343543040830745" lon="14.111954099795442"><ele>47.0</ele><time>2026-05-01T15:38:23Z</time></trkpt><trkpt lat="42.34355440209399" lon="14.111854174394807"><ele>47.0</ele><time>2026-05-01T15:38:24Z</time></trkpt><trkpt lat="42.34356742008666" lon="14.111760290993733"><ele>47.0</ele><time>2026-05-01T15:38:25Z</time></trkpt><trkpt lat="42.34358030814671" lon="14.111670854508365"><ele>47.0</ele><time>2026-05-01T15:38:26Z</time></trkpt><trkpt lat="42.3435961316353" lon="14.11158703570072"><ele>47.0</ele><time>2026-05-01T15:38:27Z</time></trkpt><trkpt lat="42.34363154822386" lon="14.111514171599916"><ele>47.166666666666664</ele><time>2026-05-01T15:38:28Z</time></trkpt><trkpt lat="42.34368543069033" lon="14.111469734226379"><ele>47.33333333333333</ele><time>2026-05-01T15:38:29Z</time></trkpt><trkpt lat="42.343808452201955" lon="14.111500591180668"><ele>47.5</ele><time>2026-05-01T15:38:31Z</time></trkpt><trkpt lat="42.34386779280598" lon="14.111546356317653"><ele>47.666666666666664</ele><time>2026-05-01T15:38:32Z</time></trkpt><trkpt lat="42.34393666491583" lon="14.111598827734364"><ele>47.833333333333336</ele><time>2026-05-01T15:38:33Z</time></trkpt><trkpt lat="42.344018248604435" lon="14.111651111034378"><ele>48.0</ele><time>2026-05-01T15:38:34Z</time></trkpt><trkpt lat="42.34410898425756" lon="14.11170432415074"><ele>48.0</ele><time>2026-05-01T15:38:35Z</time></trkpt><trkpt lat="42.344202884922055" lon="14.111762980409003"><ele>48.0</ele><time>2026-05-01T15:38:36Z</time></trkpt><trkpt lat="42.34430121561499" lon="14.111825994825747"><ele>48.0</ele><time>2026-05-01T15:38:37Z</time></trkpt><trkpt lat="42.34439999580116" lon="14.111891965352706"><ele>48.0</ele><time>2026-05-01T15:38:38Z</time></trkpt><trkpt lat="42.344499056743395" lon="14.111957333578433"><ele>48.0</ele><time>2026-05-01T15:38:39Z</time></trkpt><trkpt lat="42.34459175816455" lon="14.112020652925155"><ele>48.0</ele><time>2026-05-01T15:38:40Z</time></trkpt><trkpt lat="42.344677006908015" lon="14.112076077183014"><ele>48.0</ele><time>2026-05-01T15:38:41Z</time></trkpt><trkpt lat="42.344771886070625" lon="14.112134625733027"><ele>48.0</ele><time>2026-05-01T15:38:42Z</time></trkpt><trkpt lat="42.34487720005233" lon="14.112203218568549"><ele>48.0</ele><time>2026-05-01T15:38:43Z</time></trkpt><trkpt lat="42.344977046224216" lon="14.112262649977737"><ele>48.0</ele><time>2026-05-01T15:38:44Z</time></trkpt><trkpt lat="42.34507124729301" lon="14.112317512215004"><ele>47.599999999999994</ele><time>2026-05-01T15:38:45Z</time></trkpt><trkpt lat="42.345163176659426" lon="14.11236345445562"><ele>47.199999999999996</ele><time>2026-05-01T15:38:46Z</time></trkpt><trkpt lat="42.34526105826266" lon="14.112404537554731"><ele>46.8</ele><time>2026-05-01T15:38:47Z</time></trkpt><trkpt lat="42.34536855792987" lon="14.11244159559342"><ele>46.4</ele><time>2026-05-01T15:38:48Z</time></trkpt><trkpt lat="42.34548150326172" lon="14.112474086308282"><ele>46.0</ele><time>2026-05-01T15:38:49Z</time></trkpt><trkpt lat="42.34559055932568" lon="14.112503386616623"><ele>46.0</ele><time>2026-05-01T15:38:50Z</time></trkpt><trkpt lat="42.345694149390866" lon="14.112530187673839"><ele>46.0</ele><time>2026-05-01T15:38:51Z</time></trkpt><trkpt lat="42.345808604779926" lon="14.112560852728155"><ele>46.0</ele><time>2026-05-01T15:38:52Z</time></trkpt><trkpt lat="42.34593905762661" lon="14.112595936693515"><ele>46.0</ele><time>2026-05-01T15:38:53Z</time></trkpt><trkpt lat="42.34608434863151" lon="14.112641383052791"><ele>46.0</ele><time>2026-05-01T15:38:54Z</time></trkpt><trkpt lat="42.34623753673227" lon="14.112695901193785"><ele>46.0</ele><time>2026-05-01T15:38:55Z</time></trkpt><trkpt lat="42.34638969631532" lon="14.112757287187737"><ele>46.0</ele><time>2026-05-01T15:38:56Z</time></trkpt><trkpt lat="42.346534482981184" lon="14.112846105559111"><ele>45.333333333333336</ele><time>2026-05-01T15:38:57Z</time></trkpt><trkpt lat="42.34671303388807" lon="14.11293610472415"><ele>44.666666666666664</ele><time>2026-05-01T15:38:58Z</time></trkpt><trkpt lat="42.346917881570725" lon="14.113037080864055"><ele>44.0</ele><time>2026-05-01T15:38:59Z</time></trkpt><trkpt lat="42.347130141027826" lon="14.113141710585786"><ele>44.33333333333333</ele><time>2026-05-01T15:39:00Z</time></trkpt><trkpt lat="42.34733297977084" lon="14.113223604479824"><ele>44.666666666666664</ele><time>2026-05-01T15:39:01Z</time></trkpt><trkpt lat="42.34750746375155" lon="14.113323242813655"><ele>45.0</ele><time>2026-05-01T15:39:02Z</time></trkpt><trkpt lat="42.34767474876963" lon="14.113412836425697"><ele>45.0</ele><time>2026-05-01T15:39:03Z</time></trkpt><trkpt lat="42.34782202622433" lon="14.113485136496728"><ele>45.0</ele><time>2026-05-01T15:39:04Z</time></trkpt><trkpt lat="42.347961775055694" lon="14.113552919652934"><ele>45.0</ele><time>2026-05-01T15:39:05Z</time></trkpt><trkpt lat="42.348090000431974" lon="14.113614027792496"><ele>45.0</ele><time>2026-05-01T15:39:06Z</time></trkpt><trkpt lat="42.34821354165951" lon="14.113657523720544"><ele>45.0</ele><time>2026-05-01T15:39:07Z</time></trkpt><trkpt lat="42.348339543115316" lon="14.11370256352645"><ele>45.0</ele><time>2026-05-01T15:39:08Z</time></trkpt><trkpt lat="42.34847104377347" lon="14.113687369599194"><ele>45.0</ele><time>2026-05-01T15:39:09Z</time></trkpt><trkpt lat="42.34858896906925" lon="14.113600320645888"><ele>45.0</ele><time>2026-05-01T15:39:10Z</time></trkpt><trkpt lat="42.34870810896491" lon="14.11351687349329"><ele>45.0</ele><time>2026-05-01T15:39:11Z</time></trkpt><trkpt lat="42.34884389466948" lon="14.113426585258408"><ele>45.0</ele><time>2026-05-01T15:39:12Z</time></trkpt><trkpt lat="42.34898382684833" lon="14.113339415801128"><ele>45.0</ele><time>2026-05-01T15:39:13Z</time></trkpt><trkpt lat="42.34911275808983" lon="14.11325217686176"><ele>45.0</ele><time>2026-05-01T15:39:14Z</time></trkpt><trkpt lat="42.34923638392087" lon="14.113166329190026"><ele>44.0</ele><time>2026-05-01T15:39:15Z</time></trkpt><trkpt lat="42.34935848440073" lon="14.113083003402439"><ele>43.0</ele><time>2026-05-01T15:39:16Z</time></trkpt><trkpt lat="42.34947132406751" lon="14.113006319841565"><ele>42.0</ele><time>2026-05-01T15:39:17Z</time></trkpt><trkpt lat="42.349574410605925" lon="14.112934186232621"><ele>41.0</ele><time>2026-05-01T15:39:18Z</time></trkpt><trkpt lat="42.34967402234281" lon="14.112863344367545"><ele>41.75</ele><time>2026-05-01T15:39:19Z</time></trkpt><trkpt lat="42.34976855459733" lon="14.112795079464755"><ele>42.5</ele><time>2026-05-01T15:39:20Z</time></trkpt><trkpt lat="42.349857068648106" lon="14.112736947433996"><ele>43.25</ele><time>2026-05-01T15:39:21Z</time></trkpt><trkpt lat="42.34996890328684" lon="14.112669955923188"><ele>44.0</ele><time>2026-05-01T15:39:22Z</time></trkpt><trkpt lat="42.3500870691922" lon="14.112616886245686"><ele>44.0</ele><time>2026-05-01T15:39:23Z</time></trkpt><trkpt lat="42.350216245275824" lon="14.112568583845432"><ele>44.0</ele><time>2026-05-01T15:39:24Z</time></trkpt><trkpt lat="42.35035834350129" lon="14.112526111529522"><ele>44.0</ele><time>2026-05-01T15:39:25Z</time></trkpt><trkpt lat="42.35051786103642" lon="14.112499758612673"><ele>44.0</ele><time>2026-05-01T15:39:26Z</time></trkpt><trkpt lat="42.35068500160159" lon="14.112500084201528"><ele>44.0</ele><time>2026-05-01T15:39:27Z</time></trkpt><trkpt lat="42.350856237232335" lon="14.112544620969928"><ele>44.0</ele><time>2026-05-01T15:39:28Z</time></trkpt><trkpt lat="42.35101988507742" lon="14.112587756788319"><ele>44.0</ele><time>2026-05-01T15:39:29Z</time></trkpt><trkpt lat="42.35116881282668" lon="14.112639710379433"><ele>44.0</ele><time>2026-05-01T15:39:30Z</time></trkpt><trkpt lat="42.35131027545645" lon="14.112673030534266"><ele>44.0</ele><time>2026-05-01T15:39:31Z</time></trkpt><trkpt lat="42.35145190599258" lon="14.112732019953565"><ele>44.0</ele><time>2026-05-01T15:39:32Z</time></trkpt><trkpt lat="42.35159514957252" lon="14.11279650941409"><ele>44.0</ele><time>2026-05-01T15:39:33Z</time></trkpt><trkpt lat="42.35173772420267" lon="14.112859790815932"><ele>43.0</ele><time>2026-05-01T15:39:34Z</time></trkpt><trkpt lat="42.3518819486364" lon="14.112920516036274"><ele>42.0</ele><time>2026-05-01T15:39:35Z</time></trkpt><trkpt lat="42.35202395560606" lon="14.112978065077423"><ele>41.0</ele><time>2026-05-01T15:39:36Z</time></trkpt><trkpt lat="42.352166453930046" lon="14.113040541711209"><ele>40.0</ele><time>2026-05-01T15:39:37Z</time></trkpt><trkpt lat="42.35232015141743" lon="14.113097602075996"><ele>38.66666666666667</ele><time>2026-05-01T15:39:38Z</time></trkpt><trkpt lat="42.352473443874004" lon="14.113156623341917"><ele>37.333333333333336</ele><time>2026-05-01T15:39:39Z</time></trkpt><trkpt lat="42.352634270535646" lon="14.113222115252558"><ele>36.0</ele><time>2026-05-01T15:39:40Z</time></trkpt><trkpt lat="42.35279820130305" lon="14.11328749058168"><ele>36.0</ele><time>2026-05-01T15:39:41Z</time></trkpt><trkpt lat="42.352958893083425" lon="14.113350785839145"><ele>36.0</ele><time>2026-05-01T15:39:42Z</time></trkpt><trkpt lat="42.353106509182275" lon="14.113414091516299"><ele>36.0</ele><time>2026-05-01T15:39:43Z</time></trkpt><trkpt lat="42.35326031940952" lon="14.11347815387571"><ele>35.666666666666664</ele><time>2026-05-01T15:39:44Z</time></trkpt><trkpt lat="42.35341391682696" lon="14.113540017351315"><ele>35.33333333333333</ele><time>2026-05-01T15:39:45Z</time></trkpt><trkpt lat="42.35358080739023" lon="14.11360803841739"><ele>35.0</ele><time>2026-05-01T15:39:46Z</time></trkpt><trkpt lat="42.353744718798765" lon="14.113674561990905"><ele>35.33333333333333</ele><time>2026-05-01T15:39:47Z</time></trkpt><trkpt lat="42.353908423979654" lon="14.113736186626484"><ele>35.666666666666664</ele><time>2026-05-01T15:39:48Z</time></trkpt><trkpt lat="42.35406570800816" lon="14.113797474507368"><ele>36.0</ele><time>2026-05-01T15:39:49Z</time></trkpt><trkpt lat="42.35421659506803" lon="14.113861775103338"><ele>36.0</ele><time>2026-05-01T15:39:50Z</time></trkpt><trkpt lat="42.354362324396945" lon="14.113922282039809"><ele>36.0</ele><time>2026-05-01T15:39:51Z</time></trkpt><trkpt lat="42.35451008676262" lon="14.113983681200892"><ele>36.0</ele><time>2026-05-01T15:39:52Z</time></trkpt><trkpt lat="42.35465695475941" lon="14.114045087253437"><ele>36.333333333333336</ele><time>2026-05-01T15:39:53Z</time></trkpt><trkpt lat="42.35480757510994" lon="14.114104882209011"><ele>36.66666666666667</ele><time>2026-05-01T15:39:54Z</time></trkpt><trkpt lat="42.35496112422868" lon="14.114165823195126"><ele>37.0</ele><time>2026-05-01T15:39:55Z</time></trkpt><trkpt lat="42.35511338935692" lon="14.114227270805094"><ele>37.0</ele><time>2026-05-01T15:39:56Z</time></trkpt><trkpt lat="42.35526419882966" lon="14.11429124370879"><ele>37.0</ele><time>2026-05-01T15:39:57Z</time></trkpt><trkpt lat="42.355418743050194" lon="14.114352956146474"><ele>37.0</ele><time>2026-05-01T15:39:58Z</time></trkpt><trkpt lat="42.35557229368234" lon="14.114411919838378"><ele>40.333333333333336</ele><time>2026-05-01T15:39:59Z</time></trkpt><trkpt lat="42.35572629484691" lon="14.11447162872317"><ele>43.666666666666664</ele><time>2026-05-01T15:40:00Z</time></trkpt><trkpt lat="42.35588067817931" lon="14.114537397232537"><ele>47.0</ele><time>2026-05-01T15:40:01Z</time></trkpt><trkpt lat="42.35603681270512" lon="14.114603579540743"><ele>47.0</ele><time>2026-05-01T15:40:02Z</time></trkpt><trkpt lat="42.356197789778264" lon="14.114665634913464"><ele>47.0</ele><time>2026-05-01T15:40:03Z</time></trkpt><trkpt lat="42.35637041447845" lon="14.114730262038135"><ele>47.0</ele><time>2026-05-01T15:40:04Z</time></trkpt><trkpt lat="42.356547409816706" lon="14.114797222681137"><ele>47.666666666666664</ele><time>2026-05-01T15:40:05Z</time></trkpt><trkpt lat="42.3567232322979" lon="14.114866346411622"><ele>48.33333333333333</ele><time>2026-05-01T15:40:06Z</time></trkpt><trkpt lat="42.35689595660889" lon="14.114933370492528"><ele>49.0</ele><time>2026-05-01T15:40:07Z</time></trkpt><trkpt lat="42.357064313125115" lon="14.115002294993689"><ele>46.33333333333333</ele><time>2026-05-01T15:40:08Z</time></trkpt><trkpt lat="42.357225440844765" lon="14.11506952846367"><ele>43.666666666666664</ele><time>2026-05-01T15:40:09Z</time></trkpt><trkpt lat="42.357381012568595" lon="14.11513308504258"><ele>41.0</ele><time>2026-05-01T15:40:10Z</time></trkpt><trkpt lat="42.35752283436819" lon="14.115193054955892"><ele>41.0</ele><time>2026-05-01T15:40:11Z</time></trkpt><trkpt lat="42.35766234580958" lon="14.115250291883747"><ele>41.0</ele><time>2026-05-01T15:40:12Z</time></trkpt><trkpt lat="42.357803241565016" lon="14.115306365345669"><ele>41.0</ele><time>2026-05-01T15:40:13Z</time></trkpt><trkpt lat="42.35795003068503" lon="14.115362284197522"><ele>41.0</ele><time>2026-05-01T15:40:14Z</time></trkpt><trkpt lat="42.358104345848886" lon="14.115424625157441"><ele>41.0</ele><time>2026-05-01T15:40:15Z</time></trkpt><trkpt lat="42.35826843823927" lon="14.115495621449037"><ele>41.0</ele><time>2026-05-01T15:40:16Z</time></trkpt><trkpt lat="42.35843963901805" lon="14.115568699749286"><ele>41.0</ele><time>2026-05-01T15:40:17Z</time></trkpt><trkpt lat="42.358620383340096" lon="14.115643584600319"><ele>41.0</ele><time>2026-05-01T15:40:18Z</time></trkpt><trkpt lat="42.358802267127494" lon="14.115718035970882"><ele>41.0</ele><time>2026-05-01T15:40:19Z</time></trkpt><trkpt lat="42.358985231117" lon="14.115793785099326"><ele>41.0</ele><time>2026-05-01T15:40:20Z</time></trkpt><trkpt lat="42.35916783548178" lon="14.115869609481814"><ele>39.666666666666664</ele><time>2026-05-01T15:40:21Z</time></trkpt><trkpt lat="42.35934608719545" lon="14.115948041118319"><ele>38.333333333333336</ele><time>2026-05-01T15:40:22Z</time></trkpt><trkpt lat="42.35956428310219" lon="14.116022109768217"><ele>37.0</ele><time>2026-05-01T15:40:23Z</time></trkpt><trkpt lat="42.35975657440962" lon="14.116108568390207"><ele>37.0</ele><time>2026-05-01T15:40:24Z</time></trkpt><trkpt lat="42.359944443832696" lon="14.11618856602105"><ele>37.0</ele><time>2026-05-01T15:40:25Z</time></trkpt><trkpt lat="42.36013167056188" lon="14.116268526214368"><ele>37.0</ele><time>2026-05-01T15:40:26Z</time></trkpt><trkpt lat="42.36031352056537" lon="14.116357578475384"><ele>37.0</ele><time>2026-05-01T15:40:27Z</time></trkpt><trkpt lat="42.360495634193285" lon="14.116434682090894"><ele>37.0</ele><time>2026-05-01T15:40:28Z</time></trkpt><trkpt lat="42.36067817330497" lon="14.116523158546151"><ele>37.0</ele><time>2026-05-01T15:40:29Z</time></trkpt><trkpt lat="42.36085961378281" lon="14.116605398704063"><ele>36.66666666666667</ele><time>2026-05-01T15:40:30Z</time></trkpt><trkpt lat="42.36103904868989" lon="14.116681631837688"><ele>36.333333333333336</ele><time>2026-05-01T15:40:31Z</time></trkpt><trkpt lat="42.36121792145267" lon="14.116763146256641"><ele>36.0</ele><time>2026-05-01T15:40:32Z</time></trkpt><trkpt lat="42.361385202333246" lon="14.116837475526523"><ele>36.0</ele><time>2026-05-01T15:40:33Z</time></trkpt><trkpt lat="42.3615417267155" lon="14.116904859511763"><ele>36.0</ele><time>2026-05-01T15:40:34Z</time></trkpt><trkpt lat="42.3617045820564" lon="14.116983212193443"><ele>36.0</ele><time>2026-05-01T15:40:35Z</time></trkpt><trkpt lat="42.36187149397997" lon="14.117048318303434"><ele>36.0</ele><time>2026-05-01T15:40:36Z</time></trkpt><trkpt lat="42.36203574288798" lon="14.117121490256396"><ele>36.0</ele><time>2026-05-01T15:40:37Z</time></trkpt><trkpt lat="42.362200861593465" lon="14.117196978297859"><ele>36.0</ele><time>2026-05-01T15:40:38Z</time></trkpt><trkpt lat="42.36237202346614" lon="14.117271721783862"><ele>33.666666666666664</ele><time>2026-05-01T15:40:39Z</time></trkpt><trkpt lat="42.362549473133306" lon="14.117349395809983"><ele>31.333333333333332</ele><time>2026-05-01T15:40:40Z</time></trkpt><trkpt lat="42.36273462436642" lon="14.117414553672983"><ele>29.0</ele><time>2026-05-01T15:40:41Z</time></trkpt><trkpt lat="42.36292088753556" lon="14.117460894579345"><ele>29.666666666666664</ele><time>2026-05-01T15:40:42Z</time></trkpt><trkpt lat="42.3631019763754" lon="14.11748825970576"><ele>30.333333333333336</ele><time>2026-05-01T15:40:43Z</time></trkpt><trkpt lat="42.36327898789848" lon="14.117487369184936"><ele>31.0</ele><time>2026-05-01T15:40:44Z</time></trkpt><trkpt lat="42.36345210317096" lon="14.117468373064952"><ele>31.0</ele><time>2026-05-01T15:40:45Z</time></trkpt><trkpt lat="42.363622559336854" lon="14.117462837856628"><ele>31.0</ele><time>2026-05-01T15:40:46Z</time></trkpt><trkpt lat="42.363786596379775" lon="14.117460461190413"><ele>31.0</ele><time>2026-05-01T15:40:47Z</time></trkpt><trkpt lat="42.36394763722932" lon="14.117465289879819"><ele>31.666666666666668</ele><time>2026-05-01T15:40:48Z</time></trkpt><trkpt lat="42.36411126180018" lon="14.117479144822855"><ele>32.333333333333336</ele><time>2026-05-01T15:40:49Z</time></trkpt><trkpt lat="42.36426692294106" lon="14.117512674579025"><ele>33.0</ele><time>2026-05-01T15:40:50Z</time></trkpt><trkpt lat="42.364425855625235" lon="14.117565626361912"><ele>33.0</ele><time>2026-05-01T15:40:51Z</time></trkpt><trkpt lat="42.36458010471207" lon="14.117637885829167"><ele>33.0</ele><time>2026-05-01T15:40:52Z</time></trkpt><trkpt lat="42.36474380411503" lon="14.117737103779906"><ele>33.0</ele><time>2026-05-01T15:40:53Z</time></trkpt><trkpt lat="42.36491456164452" lon="14.117854470636264"><ele>32.666666666666664</ele><time>2026-05-01T15:40:54Z</time></trkpt><trkpt lat="42.36507583764287" lon="14.117970532578173"><ele>32.33333333333333</ele><time>2026-05-01T15:40:55Z</time></trkpt><trkpt lat="42.36523791900764" lon="14.118082941146213"><ele>32.0</ele><time>2026-05-01T15:40:56Z</time></trkpt><trkpt lat="42.365403643949875" lon="14.118194662125218"><ele>30.666666666666664</ele><time>2026-05-01T15:40:57Z</time></trkpt><trkpt lat="42.36556984523142" lon="14.118306406740443"><ele>29.333333333333336</ele><time>2026-05-01T15:40:58Z</time></trkpt><trkpt lat="42.365737284831454" lon="14.118416954296665"><ele>28.0</ele><time>2026-05-01T15:40:59Z</time></trkpt><trkpt lat="42.365903028547116" lon="14.118529542370322"><ele>28.0</ele><time>2026-05-01T15:41:00Z</time></trkpt><trkpt lat="42.36607194899724" lon="14.118642653817442"><ele>28.0</ele><time>2026-05-01T15:41:01Z</time></trkpt><trkpt lat="42.36623407370516" lon="14.118758192195191"><ele>28.0</ele><time>2026-05-01T15:41:02Z</time></trkpt><trkpt lat="42.36640333237472" lon="14.118876943571607"><ele>28.0</ele><time>2026-05-01T15:41:03Z</time></trkpt><trkpt lat="42.366564669778974" lon="14.118988152855833"><ele>28.0</ele><time>2026-05-01T15:41:04Z</time></trkpt><trkpt lat="42.366727846402576" lon="14.119108681292504"><ele>28.0</ele><time>2026-05-01T15:41:05Z</time></trkpt><trkpt lat="42.36688858473595" lon="14.119222691174578"><ele>28.0</ele><time>2026-05-01T15:41:06Z</time></trkpt><trkpt lat="42.36705239628859" lon="14.119334417245279"><ele>28.0</ele><time>2026-05-01T15:41:07Z</time></trkpt><trkpt lat="42.3672107345607" lon="14.119447949842488"><ele>28.0</ele><time>2026-05-01T15:41:08Z</time></trkpt><trkpt lat="42.3673741533858" lon="14.119555714297293"><ele>28.0</ele><time>2026-05-01T15:41:09Z</time></trkpt><trkpt lat="42.367533149478334" lon="14.11966755264589"><ele>28.0</ele><time>2026-05-01T15:41:10Z</time></trkpt><trkpt lat="42.36768769124567" lon="14.119776748422515"><ele>28.0</ele><time>2026-05-01T15:41:11Z</time></trkpt><trkpt lat="42.36784600717672" lon="14.119889527927263"><ele>28.0</ele><time>2026-05-01T15:41:12Z</time></trkpt><trkpt lat="42.368001399129284" lon="14.119999524917493"><ele>28.0</ele><time>2026-05-01T15:41:13Z</time></trkpt><trkpt lat="42.368156835016165" lon="14.12010436101587"><ele>28.0</ele><time>2026-05-01T15:41:14Z</time></trkpt><trkpt lat="42.36830808230508" lon="14.120184934739012"><ele>28.333333333333336</ele><time>2026-05-01T15:41:15Z</time></trkpt><trkpt lat="42.36845482432862" lon="14.120247558831448"><ele>28.666666666666664</ele><time>2026-05-01T15:41:16Z</time></trkpt><trkpt lat="42.36861361523474" lon="14.120286637911995"><ele>29.0</ele><time>2026-05-01T15:41:17Z</time></trkpt><trkpt lat="42.36877405192134" lon="14.12030531731908"><ele>31.666666666666664</ele><time>2026-05-01T15:41:18Z</time></trkpt><trkpt lat="42.368945860102485" lon="14.120327326878376"><ele>34.333333333333336</ele><time>2026-05-01T15:41:19Z</time></trkpt><trkpt lat="42.3691191852549" lon="14.12034953941577"><ele>37.0</ele><time>2026-05-01T15:41:20Z</time></trkpt><trkpt lat="42.369287041298804" lon="14.12036956748208"><ele>37.0</ele><time>2026-05-01T15:41:21Z</time></trkpt><trkpt lat="42.36945062258684" lon="14.120385563093743"><ele>37.0</ele><time>2026-05-01T15:41:22Z</time></trkpt><trkpt lat="42.36961314568936" lon="14.120400210829732"><ele>37.0</ele><time>2026-05-01T15:41:23Z</time></trkpt><trkpt lat="42.36977036137858" lon="14.120417420863674"><ele>37.0</ele><time>2026-05-01T15:41:24Z</time></trkpt><trkpt lat="42.369927606158434" lon="14.120435485444572"><ele>37.0</ele><time>2026-05-01T15:41:25Z</time></trkpt><trkpt lat="42.37008258520492" lon="14.120454057640234"><ele>37.0</ele><time>2026-05-01T15:41:26Z</time></trkpt><trkpt lat="42.370239457118004" lon="14.1204738138433"><ele>37.0</ele><time>2026-05-01T15:41:27Z</time></trkpt><trkpt lat="42.37039163636073" lon="14.120494320810998"><ele>37.0</ele><time>2026-05-01T15:41:28Z</time></trkpt><trkpt lat="42.37053453327896" lon="14.120515524581302"><ele>37.0</ele><time>2026-05-01T15:41:29Z</time></trkpt><trkpt lat="42.37067311455978" lon="14.120538691416927"><ele>37.0</ele><time>2026-05-01T15:41:30Z</time></trkpt><trkpt lat="42.37081617896145" lon="14.120571392282237"><ele>37.25</ele><time>2026-05-01T15:41:31Z</time></trkpt><trkpt lat="42.3709584772073" lon="14.120612845803587"><ele>37.5</ele><time>2026-05-01T15:41:32Z</time></trkpt><trkpt lat="42.37109581578833" lon="14.120668380000788"><ele>37.75</ele><time>2026-05-01T15:41:33Z</time></trkpt><trkpt lat="42.37122887330413" lon="14.120730579381364"><ele>38.0</ele><time>2026-05-01T15:41:34Z</time></trkpt><trkpt lat="42.37136386450977" lon="14.120792342196333"><ele>36.75</ele><time>2026-05-01T15:41:35Z</time></trkpt><trkpt lat="42.37149513641312" lon="14.120845286930669"><ele>35.5</ele><time>2026-05-01T15:41:36Z</time></trkpt><trkpt lat="42.371625969771735" lon="14.120900723077206"><ele>34.25</ele><time>2026-05-01T15:41:37Z</time></trkpt><trkpt lat="42.37175745525291" lon="14.120958225915302"><ele>33.0</ele><time>2026-05-01T15:41:38Z</time></trkpt><trkpt lat="42.37188742850767" lon="14.121023332462439"><ele>33.0</ele><time>2026-05-01T15:41:39Z</time></trkpt><trkpt lat="42.37201589429869" lon="14.121096508133276"><ele>33.0</ele><time>2026-05-01T15:41:40Z</time></trkpt><trkpt lat="42.37214416440272" lon="14.121176978289713"><ele>33.0</ele><time>2026-05-01T15:41:41Z</time></trkpt><trkpt lat="42.372269406865954" lon="14.121266277267793"><ele>33.0</ele><time>2026-05-01T15:41:42Z</time></trkpt><trkpt lat="42.37239171315368" lon="14.121360706676896"><ele>33.25</ele><time>2026-05-01T15:41:43Z</time></trkpt><trkpt lat="42.372513034661196" lon="14.121458755651208"><ele>33.5</ele><time>2026-05-01T15:41:44Z</time></trkpt><trkpt lat="42.37262601825533" lon="14.121549789777106"><ele>33.75</ele><time>2026-05-01T15:41:45Z</time></trkpt><trkpt lat="42.37272485016891" lon="14.121632369403791"><ele>34.0</ele><time>2026-05-01T15:41:46Z</time></trkpt><trkpt lat="42.37282411232722" lon="14.121709446805985"><ele>34.0</ele><time>2026-05-01T15:41:47Z</time></trkpt><trkpt lat="42.372917554472174" lon="14.12178079584161"><ele>34.0</ele><time>2026-05-01T15:41:48Z</time></trkpt><trkpt lat="42.373005057277666" lon="14.121849278618404"><ele>34.0</ele><time>2026-05-01T15:41:49Z</time></trkpt><trkpt lat="42.37308547057438" lon="14.121911767484969"><ele>34.0</ele><time>2026-05-01T15:41:50Z</time></trkpt><trkpt lat="42.37316369393832" lon="14.121973683943594"><ele>34.0</ele><time>2026-05-01T15:41:51Z</time></trkpt><trkpt lat="42.37323833763074" lon="14.122028438774608"><ele>34.99999999999999</ele><time>2026-05-01T15:41:52Z</time></trkpt><trkpt lat="42.373308435534376" lon="14.122081132066588"><ele>36.0</ele><time>2026-05-01T15:41:53Z</time></trkpt><trkpt lat="42.37337199984799" lon="14.122129879800397"><ele>37.0</ele><time>2026-05-01T15:41:54Z</time></trkpt><trkpt lat="42.37343371679169" lon="14.122176999170648"><ele>38.0</ele><time>2026-05-01T15:41:55Z</time></trkpt><trkpt lat="42.37349454411827" lon="14.122225404565395"><ele>39.0</ele><time>2026-05-01T15:41:56Z</time></trkpt><trkpt lat="42.37355054370967" lon="14.122270443562591"><ele>39.99999999999999</ele><time>2026-05-01T15:41:57Z</time></trkpt><trkpt lat="42.37360684424621" lon="14.122317947732084"><ele>41.0</ele><time>2026-05-01T15:41:58Z</time></trkpt><trkpt lat="42.37366994541694" lon="14.122367957237094"><ele>41.0</ele><time>2026-05-01T15:41:59Z</time></trkpt><trkpt lat="42.37373604900833" lon="14.122412032784034"><ele>41.0</ele><time>2026-05-01T15:42:00Z</time></trkpt><trkpt lat="42.37379621668467" lon="14.122456372475229"><ele>41.0</ele><time>2026-05-01T15:42:01Z</time></trkpt><trkpt lat="42.37388420012046" lon="14.122547075717378"><ele>41.0</ele><time>2026-05-01T15:42:03Z</time></trkpt><trkpt lat="42.37396957729959" lon="14.122606403757862"><ele>41.0</ele><time>2026-05-01T15:42:05Z</time></trkpt><trkpt lat="42.37405188187712" lon="14.12263979572555"><ele>41.0</ele><time>2026-05-01T15:42:07Z</time></trkpt><trkpt lat="42.37413337311377" lon="14.122698226582115"><ele>41.0</ele><time>2026-05-01T15:42:09Z</time></trkpt><trkpt lat="42.37420532560209" lon="14.122761642118618"><ele>41.0</ele><time>2026-05-01T15:42:10Z</time></trkpt><trkpt lat="42.3742907559639" lon="14.12284849669804"><ele>41.0</ele><time>2026-05-01T15:42:11Z</time></trkpt><trkpt lat="42.37439354841083" lon="14.122946553662997"><ele>41.0</ele><time>2026-05-01T15:42:12Z</time></trkpt><trkpt lat="42.37453560463411" lon="14.123064472635724"><ele>40.33333333333333</ele><time>2026-05-01T15:42:13Z</time></trkpt><trkpt lat="42.374694132091975" lon="14.123185456772744"><ele>39.666666666666664</ele><time>2026-05-01T15:42:14Z</time></trkpt><trkpt lat="42.374850418128446" lon="14.123297452454903"><ele>39.0</ele><time>2026-05-01T15:42:15Z</time></trkpt><trkpt lat="42.37498913537487" lon="14.123404507536973"><ele>39.0</ele><time>2026-05-01T15:42:16Z</time></trkpt><trkpt lat="42.37511750092288" lon="14.123504311559989"><ele>39.0</ele><time>2026-05-01T15:42:17Z</time></trkpt><trkpt lat="42.375240672450644" lon="14.123601494576272"><ele>39.0</ele><time>2026-05-01T15:42:18Z</time></trkpt><trkpt lat="42.37535512712638" lon="14.123691710268297"><ele>39.0</ele><time>2026-05-01T15:42:19Z</time></trkpt><trkpt lat="42.37545734146342" lon="14.123770683845054"><ele>40.0</ele><time>2026-05-01T15:42:20Z</time></trkpt><trkpt lat="42.375549853488224" lon="14.123839948064118"><ele>41.0</ele><time>2026-05-01T15:42:21Z</time></trkpt><trkpt lat="42.375653502623344" lon="14.123904390839748"><ele>42.0</ele><time>2026-05-01T15:42:22Z</time></trkpt><trkpt lat="42.37576889095722" lon="14.123967557693414"><ele>43.0</ele><time>2026-05-01T15:42:23Z</time></trkpt><trkpt lat="42.375882992317" lon="14.124014256590469"><ele>43.0</ele><time>2026-05-01T15:42:24Z</time></trkpt><trkpt lat="42.37599114653082" lon="14.124043536145294"><ele>43.0</ele><time>2026-05-01T15:42:25Z</time></trkpt><trkpt lat="42.37609765386679" lon="14.124067084658806"><ele>43.0</ele><time>2026-05-01T15:42:26Z</time></trkpt><trkpt lat="42.37619366850542" lon="14.12409739852354"><ele>43.0</ele><time>2026-05-01T15:42:27Z</time></trkpt><trkpt lat="42.37627363881082" lon="14.124149562348764"><ele>43.0</ele><time>2026-05-01T15:42:28Z</time></trkpt><trkpt lat="42.3763365659297" lon="14.124225769734016"><ele>42.0</ele><time>2026-05-01T15:42:29Z</time></trkpt><trkpt lat="42.376381889374095" lon="14.124321128737495"><ele>41.0</ele><time>2026-05-01T15:42:30Z</time></trkpt><trkpt lat="42.37641575687879" lon="14.124433616612947"><ele>40.0</ele><time>2026-05-01T15:42:31Z</time></trkpt><trkpt lat="42.37645458538067" lon="14.124517989866243"><ele>39.0</ele><time>2026-05-01T15:42:32Z</time></trkpt><trkpt lat="42.37651418677479" lon="14.124556851721758"><ele>38.0</ele><time>2026-05-01T15:42:33Z</time></trkpt><trkpt lat="42.37658029028229" lon="14.1245456024306"><ele>37.0</ele><time>2026-05-01T15:42:34Z</time></trkpt><trkpt lat="42.376639687160456" lon="14.12448731253148"><ele>37.0</ele><time>2026-05-01T15:42:35Z</time></trkpt><trkpt lat="42.37668822867733" lon="14.124387692258228"><ele>37.0</ele><time>2026-05-01T15:42:36Z</time></trkpt><trkpt lat="42.376732326618466" lon="14.124259011936442"><ele>37.0</ele><time>2026-05-01T15:42:37Z</time></trkpt><trkpt lat="42.376793860791366" lon="14.124132560078202"><ele>37.0</ele><time>2026-05-01T15:42:38Z</time></trkpt><trkpt lat="42.37688654507459" lon="14.124017468766741"><ele>37.0</ele><time>2026-05-01T15:42:39Z</time></trkpt><trkpt lat="42.37698634724926" lon="14.123884084225601"><ele>38.75</ele><time>2026-05-01T15:42:40Z</time></trkpt><trkpt lat="42.37706743176972" lon="14.123732162952367"><ele>40.5</ele><time>2026-05-01T15:42:41Z</time></trkpt><trkpt lat="42.37713630835293" lon="14.123590981352367"><ele>42.25</ele><time>2026-05-01T15:42:42Z</time></trkpt><trkpt lat="42.37721249937317" lon="14.123489054677433"><ele>44.0</ele><time>2026-05-01T15:42:43Z</time></trkpt><trkpt lat="42.37730856256481" lon="14.123427762450573"><ele>44.5</ele><time>2026-05-01T15:42:44Z</time></trkpt><trkpt lat="42.37742369909647" lon="14.123382746220535"><ele>45.0</ele><time>2026-05-01T15:42:45Z</time></trkpt><trkpt lat="42.3775503302915" lon="14.123369627719091"><ele>45.5</ele><time>2026-05-01T15:42:46Z</time></trkpt><trkpt lat="42.3776826943628" lon="14.123395107448772"><ele>46.0</ele><time>2026-05-01T15:42:47Z</time></trkpt><trkpt lat="42.3778284205067" lon="14.123441907768118"><ele>46.0</ele><time>2026-05-01T15:42:48Z</time></trkpt><trkpt lat="42.377980650338465" lon="14.123481025827106"><ele>46.0</ele><time>2026-05-01T15:42:49Z</time></trkpt><trkpt lat="42.37813008884096" lon="14.123507812787834"><ele>46.0</ele><time>2026-05-01T15:42:50Z</time></trkpt><trkpt lat="42.37828643676111" lon="14.123530758292656"><ele>49.0</ele><time>2026-05-01T15:42:51Z</time></trkpt><trkpt lat="42.378446130122704" lon="14.123551072352564"><ele>52.0</ele><time>2026-05-01T15:42:52Z</time></trkpt><trkpt lat="42.37860656261088" lon="14.123576498396462"><ele>55.0</ele><time>2026-05-01T15:42:53Z</time></trkpt><trkpt lat="42.37876490885496" lon="14.123603227078043"><ele>56.0</ele><time>2026-05-01T15:42:54Z</time></trkpt><trkpt lat="42.37891623480809" lon="14.123629674693081"><ele>57.0</ele><time>2026-05-01T15:42:55Z</time></trkpt><trkpt lat="42.37905239761891" lon="14.12365651905207"><ele>58.0</ele><time>2026-05-01T15:42:56Z</time></trkpt><trkpt lat="42.379179391521916" lon="14.123682257960521"><ele>59.0</ele><time>2026-05-01T15:42:57Z</time></trkpt><trkpt lat="42.37929061175423" lon="14.123723672140938"><ele>59.0</ele><time>2026-05-01T15:42:58Z</time></trkpt><trkpt lat="42.379390605290325" lon="14.123780928304724"><ele>59.00000000000001</ele><time>2026-05-01T15:42:59Z</time></trkpt><trkpt lat="42.37947745121734" lon="14.123846682958995"><ele>59.00000000000001</ele><time>2026-05-01T15:43:00Z</time></trkpt><trkpt lat="42.379560096025806" lon="14.1239312568485"><ele>59.0</ele><time>2026-05-01T15:43:01Z</time></trkpt><trkpt lat="42.37965061926328" lon="14.124030670304085"><ele>59.0</ele><time>2026-05-01T15:43:02Z</time></trkpt><trkpt lat="42.37976159179851" lon="14.124139126200202"><ele>56.66666666666667</ele><time>2026-05-01T15:43:03Z</time></trkpt><trkpt lat="42.37988910965193" lon="14.12424916066755"><ele>54.33333333333333</ele><time>2026-05-01T15:43:04Z</time></trkpt><trkpt lat="42.38001937153175" lon="14.12435583857415"><ele>52.0</ele><time>2026-05-01T15:43:05Z</time></trkpt><trkpt lat="42.38015353362131" lon="14.124460541635461"><ele>52.0</ele><time>2026-05-01T15:43:06Z</time></trkpt><trkpt lat="42.38028765119938" lon="14.124559193895225"><ele>52.0</ele><time>2026-05-01T15:43:07Z</time></trkpt><trkpt lat="42.3804215206222" lon="14.124655674028897"><ele>52.0</ele><time>2026-05-01T15:43:08Z</time></trkpt><trkpt lat="42.38055056507031" lon="14.124755103699497"><ele>51.0</ele><time>2026-05-01T15:43:09Z</time></trkpt><trkpt lat="42.38067594002534" lon="14.12485264588806"><ele>50.0</ele><time>2026-05-01T15:43:10Z</time></trkpt><trkpt lat="42.380795424645385" lon="14.124943166042012"><ele>49.0</ele><time>2026-05-01T15:43:11Z</time></trkpt><trkpt lat="42.3809070898215" lon="14.125023300169902"><ele>48.0</ele><time>2026-05-01T15:43:12Z</time></trkpt><trkpt lat="42.38102533360841" lon="14.12510298037277"><ele>48.0</ele><time>2026-05-01T15:43:13Z</time></trkpt><trkpt lat="42.38114987351542" lon="14.12518962442509"><ele>48.0</ele><time>2026-05-01T15:43:14Z</time></trkpt><trkpt lat="42.38127981696109" lon="14.125279428986135"><ele>48.0</ele><time>2026-05-01T15:43:15Z</time></trkpt><trkpt lat="42.38141650615853" lon="14.125375414070607"><ele>48.0</ele><time>2026-05-01T15:43:16Z</time></trkpt><trkpt lat="42.38155507534285" lon="14.12547747860534"><ele>46.666666666666664</ele><time>2026-05-01T15:43:17Z</time></trkpt><trkpt lat="42.381695503665476" lon="14.125582551628334"><ele>45.33333333333333</ele><time>2026-05-01T15:43:18Z</time></trkpt><trkpt lat="42.38183364640519" lon="14.12569339481603"><ele>44.0</ele><time>2026-05-01T15:43:19Z</time></trkpt><trkpt lat="42.381966920577426" lon="14.125811161692658"><ele>44.0</ele><time>2026-05-01T15:43:20Z</time></trkpt><trkpt lat="42.38209921320446" lon="14.125931935053478"><ele>44.0</ele><time>2026-05-01T15:43:21Z</time></trkpt><trkpt lat="42.38222666503823" lon="14.126051934177205"><ele>44.0</ele><time>2026-05-01T15:43:22Z</time></trkpt><trkpt lat="42.38235463828364" lon="14.126165540392654"><ele>47.0</ele><time>2026-05-01T15:43:23Z</time></trkpt><trkpt lat="42.38248690420592" lon="14.126264129738564"><ele>50.0</ele><time>2026-05-01T15:43:24Z</time></trkpt><trkpt lat="42.38262730818776" lon="14.126333596343963"><ele>53.0</ele><time>2026-05-01T15:43:25Z</time></trkpt><trkpt lat="42.38277951672151" lon="14.126382633959768"><ele>53.0</ele><time>2026-05-01T15:43:26Z</time></trkpt><trkpt lat="42.38292830257088" lon="14.126401839210388"><ele>53.0</ele><time>2026-05-01T15:43:27Z</time></trkpt><trkpt lat="42.38307066518713" lon="14.126407345012444"><ele>53.0</ele><time>2026-05-01T15:43:28Z</time></trkpt><trkpt lat="42.38320219063675" lon="14.126410861144967"><ele>53.0</ele><time>2026-05-01T15:43:29Z</time></trkpt><trkpt lat="42.38332395997739" lon="14.12642142922144"><ele>53.0</ele><time>2026-05-01T15:43:30Z</time></trkpt><trkpt lat="42.38343553609452" lon="14.12642834552908"><ele>53.0</ele><time>2026-05-01T15:43:31Z</time></trkpt><trkpt lat="42.38354436658863" lon="14.12647893384008"><ele>53.0</ele><time>2026-05-01T15:43:32Z</time></trkpt><trkpt lat="42.38365751928888" lon="14.126561670315965"><ele>53.0</ele><time>2026-05-01T15:43:33Z</time></trkpt><trkpt lat="42.38378058461042" lon="14.126653828903699"><ele>50.25</ele><time>2026-05-01T15:43:34Z</time></trkpt><trkpt lat="42.383916054962526" lon="14.12673211762601"><ele>47.5</ele><time>2026-05-01T15:43:35Z</time></trkpt><trkpt lat="42.38405639851857" lon="14.126807421782322"><ele>44.75</ele><time>2026-05-01T15:43:36Z</time></trkpt><trkpt lat="42.3841978457996" lon="14.126873670943077"><ele>42.0</ele><time>2026-05-01T15:43:37Z</time></trkpt><trkpt lat="42.38432886412746" lon="14.126935624172647"><ele>42.0</ele><time>2026-05-01T15:43:38Z</time></trkpt><trkpt lat="42.3844631326474" lon="14.12698411265335"><ele>42.0</ele><time>2026-05-01T15:43:39Z</time></trkpt><trkpt lat="42.38459303555582" lon="14.127029694889202"><ele>42.0</ele><time>2026-05-01T15:43:40Z</time></trkpt><trkpt lat="42.38472168716557" lon="14.127072496104379"><ele>42.0</ele><time>2026-05-01T15:43:41Z</time></trkpt><trkpt lat="42.384839944064574" lon="14.127120234817916"><ele>42.75</ele><time>2026-05-01T15:43:42Z</time></trkpt><trkpt lat="42.38495284580238" lon="14.127175072786628"><ele>43.5</ele><time>2026-05-01T15:43:43Z</time></trkpt><trkpt lat="42.38506808517315" lon="14.12725045975307"><ele>44.25</ele><time>2026-05-01T15:43:44Z</time></trkpt><trkpt lat="42.385182386699036" lon="14.127352372740411"><ele>45.0</ele><time>2026-05-01T15:43:45Z</time></trkpt><trkpt lat="42.38530214229446" lon="14.12749496958207"><ele>42.0</ele><time>2026-05-01T15:43:46Z</time></trkpt><trkpt lat="42.38542918474" lon="14.12762275258131"><ele>39.0</ele><time>2026-05-01T15:43:47Z</time></trkpt><trkpt lat="42.38555799705497" lon="14.127763862702905"><ele>36.0</ele><time>2026-05-01T15:43:48Z</time></trkpt><trkpt lat="42.38568842797638" lon="14.127906867616819"><ele>36.0</ele><time>2026-05-01T15:43:49Z</time></trkpt><trkpt lat="42.38581718914922" lon="14.128025473916349"><ele>36.0</ele><time>2026-05-01T15:43:50Z</time></trkpt><trkpt lat="42.385935736430156" lon="14.128135507828302"><ele>36.0</ele><time>2026-05-01T15:43:51Z</time></trkpt><trkpt lat="42.3860509980405" lon="14.128242084779703"><ele>36.0</ele><time>2026-05-01T15:43:52Z</time></trkpt><trkpt lat="42.38616513182268" lon="14.128358259917599"><ele>35.666666666666664</ele><time>2026-05-01T15:43:53Z</time></trkpt><trkpt lat="42.38627627046693" lon="14.128487795183645"><ele>35.33333333333333</ele><time>2026-05-01T15:43:54Z</time></trkpt><trkpt lat="42.386381276281966" lon="14.12863552784095"><ele>35.0</ele><time>2026-05-01T15:43:55Z</time></trkpt><trkpt lat="42.386480120532184" lon="14.128794765031117"><ele>35.5</ele><time>2026-05-01T15:43:56Z</time></trkpt><trkpt lat="42.386571868320026" lon="14.128957561545347"><ele>36.0</ele><time>2026-05-01T15:43:57Z</time></trkpt><trkpt lat="42.3866588656944" lon="14.129110993835733"><ele>36.5</ele><time>2026-05-01T15:43:58Z</time></trkpt><trkpt lat="42.38675029290581" lon="14.129254812845007"><ele>37.0</ele><time>2026-05-01T15:43:59Z</time></trkpt><trkpt lat="42.38684454827902" lon="14.129384967812834"><ele>36.75</ele><time>2026-05-01T15:44:00Z</time></trkpt><trkpt lat="42.38694627161472" lon="14.129504375827919"><ele>36.5</ele><time>2026-05-01T15:44:01Z</time></trkpt><trkpt lat="42.38705423118303" lon="14.129618181091137"><ele>36.25</ele><time>2026-05-01T15:44:02Z</time></trkpt><trkpt lat="42.387165083510766" lon="14.129729611607223"><ele>36.0</ele><time>2026-05-01T15:44:03Z</time></trkpt><trkpt lat="42.38728019506725" lon="14.12983957241975"><ele>35.0</ele><time>2026-05-01T15:44:04Z</time></trkpt><trkpt lat="42.38739910536296" lon="14.12994637811609"><ele>34.0</ele><time>2026-05-01T15:44:05Z</time></trkpt><trkpt lat="42.387510825754354" lon="14.13004627170896"><ele>33.0</ele><time>2026-05-01T15:44:06Z</time></trkpt><trkpt lat="42.38760900759389" lon="14.130141776611579"><ele>32.0</ele><time>2026-05-01T15:44:07Z</time></trkpt><trkpt lat="42.38770162000465" lon="14.130232593413218"><ele>32.0</ele><time>2026-05-01T15:44:08Z</time></trkpt><trkpt lat="42.3877917583763" lon="14.130315756070017"><ele>32.0</ele><time>2026-05-01T15:44:09Z</time></trkpt><trkpt lat="42.387877520791974" lon="14.130391760367264"><ele>32.0</ele><time>2026-05-01T15:44:10Z</time></trkpt><trkpt lat="42.38796134092923" lon="14.130457886764606"><ele>32.0</ele><time>2026-05-01T15:44:11Z</time></trkpt><trkpt lat="42.388045273538424" lon="14.130505430296136"><ele>32.0</ele><time>2026-05-01T15:44:12Z</time></trkpt><trkpt lat="42.3881350955224" lon="14.130548230679157"><ele>32.0</ele><time>2026-05-01T15:44:13Z</time></trkpt><trkpt lat="42.388237108493676" lon="14.130599702168867"><ele>32.0</ele><time>2026-05-01T15:44:14Z</time></trkpt><trkpt lat="42.38834437392466" lon="14.130655356146034"><ele>32.0</ele><time>2026-05-01T15:44:15Z</time></trkpt><trkpt lat="42.38845515052117" lon="14.130716266138746"><ele>32.0</ele><time>2026-05-01T15:44:16Z</time></trkpt><trkpt lat="42.388567377978774" lon="14.130781566889832"><ele>32.0</ele><time>2026-05-01T15:44:17Z</time></trkpt><trkpt lat="42.38867874585947" lon="14.130852717137673"><ele>32.0</ele><time>2026-05-01T15:44:18Z</time></trkpt><trkpt lat="42.388791824173225" lon="14.130925764160233"><ele>32.0</ele><time>2026-05-01T15:44:19Z</time></trkpt><trkpt lat="42.38891036507122" lon="14.13100288432139"><ele>32.0</ele><time>2026-05-01T15:44:20Z</time></trkpt><trkpt lat="42.389030495178574" lon="14.13108219555532"><ele>32.25</ele><time>2026-05-01T15:44:21Z</time></trkpt><trkpt lat="42.38915299320213" lon="14.131165389552876"><ele>32.5</ele><time>2026-05-01T15:44:22Z</time></trkpt><trkpt lat="42.389274165758415" lon="14.131255373519469"><ele>32.75</ele><time>2026-05-01T15:44:23Z</time></trkpt><trkpt lat="42.38939294241765" lon="14.131352518583785"><ele>33.0</ele><time>2026-05-01T15:44:24Z</time></trkpt><trkpt lat="42.38951194465748" lon="14.131453708919517"><ele>32.75</ele><time>2026-05-01T15:44:25Z</time></trkpt><trkpt lat="42.38963277688764" lon="14.131557750863847"><ele>32.5</ele><time>2026-05-01T15:44:26Z</time></trkpt><trkpt lat="42.389753430367975" lon="14.131660643138176"><ele>32.25</ele><time>2026-05-01T15:44:27Z</time></trkpt><trkpt lat="42.389870030521436" lon="14.131765489777765"><ele>32.0</ele><time>2026-05-01T15:44:28Z</time></trkpt><trkpt lat="42.38998550804643" lon="14.131870816162987"><ele>31.75</ele><time>2026-05-01T15:44:29Z</time></trkpt><trkpt lat="42.39010257296876" lon="14.131975908657898"><ele>31.5</ele><time>2026-05-01T15:44:30Z</time></trkpt><trkpt lat="42.39021904269018" lon="14.13207835197934"><ele>31.25</ele><time>2026-05-01T15:44:31Z</time></trkpt><trkpt lat="42.3903347700971" lon="14.132179623614684"><ele>31.0</ele><time>2026-05-01T15:44:32Z</time></trkpt><trkpt lat="42.39045113526247" lon="14.132279720746917"><ele>31.25</ele><time>2026-05-01T15:44:33Z</time></trkpt><trkpt lat="42.39056825854917" lon="14.132385391157309"><ele>31.5</ele><time>2026-05-01T15:44:34Z</time></trkpt><trkpt lat="42.390686831862844" lon="14.132492582570622"><ele>31.75</ele><time>2026-05-01T15:44:35Z</time></trkpt><trkpt lat="42.39080784259921" lon="14.132601206114757"><ele>32.0</ele><time>2026-05-01T15:44:36Z</time></trkpt><trkpt lat="42.39093029884788" lon="14.132711921452598"><ele>31.333333333333332</ele><time>2026-05-01T15:44:37Z</time></trkpt><trkpt lat="42.39105446643666" lon="14.132824169288954"><ele>30.666666666666664</ele><time>2026-05-01T15:44:38Z</time></trkpt><trkpt lat="42.39118083628394" lon="14.132938092624505"><ele>30.0</ele><time>2026-05-01T15:44:39Z</time></trkpt><trkpt lat="42.391307930107935" lon="14.133053759187593"><ele>30.0</ele><time>2026-05-01T15:44:40Z</time></trkpt><trkpt lat="42.39143632025562" lon="14.13317116806741"><ele>30.0</ele><time>2026-05-01T15:44:41Z</time></trkpt><trkpt lat="42.39156715399607" lon="14.133287224129848"><ele>30.0</ele><time>2026-05-01T15:44:42Z</time></trkpt><trkpt lat="42.39169757098187" lon="14.13340291683105"><ele>30.0</ele><time>2026-05-01T15:44:43Z</time></trkpt><trkpt lat="42.391830197824596" lon="14.133523402342817"><ele>30.0</ele><time>2026-05-01T15:44:44Z</time></trkpt><trkpt lat="42.39196443875889" lon="14.133647512309606"><ele>30.0</ele><time>2026-05-01T15:44:45Z</time></trkpt><trkpt lat="42.392104560431555" lon="14.133774107238743"><ele>29.666666666666664</ele><time>2026-05-01T15:44:46Z</time></trkpt><trkpt lat="42.392244518890585" lon="14.133900447758267"><ele>29.333333333333332</ele><time>2026-05-01T15:44:47Z</time></trkpt><trkpt lat="42.39238425695276" lon="14.134025425633556"><ele>29.0</ele><time>2026-05-01T15:44:48Z</time></trkpt><trkpt lat="42.39252158179948" lon="14.134148937753238"><ele>29.0</ele><time>2026-05-01T15:44:49Z</time></trkpt><trkpt lat="42.39265734637822" lon="14.134269002871735"><ele>29.0</ele><time>2026-05-01T15:44:50Z</time></trkpt><trkpt lat="42.39279142553655" lon="14.134389088251586"><ele>29.0</ele><time>2026-05-01T15:44:51Z</time></trkpt><trkpt lat="42.39292654455426" lon="14.134512615880203"><ele>29.333333333333332</ele><time>2026-05-01T15:44:52Z</time></trkpt><trkpt lat="42.39307033912659" lon="14.134651918330801"><ele>29.666666666666664</ele><time>2026-05-01T15:44:53Z</time></trkpt><trkpt lat="42.393221501763854" lon="14.134770717337144"><ele>30.0</ele><time>2026-05-01T15:44:54Z</time></trkpt><trkpt lat="42.39336701740548" lon="14.134904713376425"><ele>29.0</ele><time>2026-05-01T15:44:55Z</time></trkpt><trkpt lat="42.3935132038872" lon="14.135027805241373"><ele>28.0</ele><time>2026-05-01T15:44:56Z</time></trkpt><trkpt lat="42.3936546857154" lon="14.135152627020618"><ele>27.0</ele><time>2026-05-01T15:44:57Z</time></trkpt><trkpt lat="42.393790808707294" lon="14.135272818884594"><ele>27.75</ele><time>2026-05-01T15:44:58Z</time></trkpt><trkpt lat="42.393911115053015" lon="14.1353829660999"><ele>28.5</ele><time>2026-05-01T15:44:59Z</time></trkpt><trkpt lat="42.39402442941277" lon="14.13548265848529"><ele>29.25</ele><time>2026-05-01T15:45:00Z</time></trkpt><trkpt lat="42.39413157151795" lon="14.135581749459732"><ele>30.0</ele><time>2026-05-01T15:45:01Z</time></trkpt><trkpt lat="42.3942367201251" lon="14.13567795060665"><ele>29.0</ele><time>2026-05-01T15:45:02Z</time></trkpt><trkpt lat="42.39434757295569" lon="14.135778282229486"><ele>28.0</ele><time>2026-05-01T15:45:03Z</time></trkpt><trkpt lat="42.39445601366663" lon="14.135875137511958"><ele>27.0</ele><time>2026-05-01T15:45:04Z</time></trkpt><trkpt lat="42.39456196475778" lon="14.135969807277727"><ele>26.0</ele><time>2026-05-01T15:45:05Z</time></trkpt><trkpt lat="42.39466742109389" lon="14.136062727193444"><ele>26.75</ele><time>2026-05-01T15:45:06Z</time></trkpt><trkpt lat="42.394771528511534" lon="14.136155760231649"><ele>27.5</ele><time>2026-05-01T15:45:07Z</time></trkpt><trkpt lat="42.394873864310576" lon="14.13624770546037"><ele>28.25</ele><time>2026-05-01T15:45:08Z</time></trkpt><trkpt lat="42.39497745652047" lon="14.136341822219613"><ele>29.0</ele><time>2026-05-01T15:45:09Z</time></trkpt><trkpt lat="42.39508628939434" lon="14.1364358654908"><ele>29.0</ele><time>2026-05-01T15:45:10Z</time></trkpt><trkpt lat="42.395197574979456" lon="14.136534106809505"><ele>29.0</ele><time>2026-05-01T15:45:11Z</time></trkpt><trkpt lat="42.39531042573638" lon="14.13663376337641"><ele>29.0</ele><time>2026-05-01T15:45:12Z</time></trkpt><trkpt lat="42.395425499469766" lon="14.136737370215641"><ele>29.0</ele><time>2026-05-01T15:45:13Z</time></trkpt><trkpt lat="42.395540487934674" lon="14.136838991756253"><ele>28.25</ele><time>2026-05-01T15:45:14Z</time></trkpt><trkpt lat="42.39565727602501" lon="14.136940153401351"><ele>27.5</ele><time>2026-05-01T15:45:15Z</time></trkpt><trkpt lat="42.395774563434486" lon="14.137041006609373"><ele>26.75</ele><time>2026-05-01T15:45:16Z</time></trkpt><trkpt lat="42.39589136107925" lon="14.13714701723611"><ele>26.0</ele><time>2026-05-01T15:45:17Z</time></trkpt><trkpt lat="42.39600368245182" lon="14.137248951099712"><ele>26.0</ele><time>2026-05-01T15:45:18Z</time></trkpt><trkpt lat="42.39610871132761" lon="14.13734086876379"><ele>26.0</ele><time>2026-05-01T15:45:19Z</time></trkpt><trkpt lat="42.39620625871106" lon="14.137427882996866"><ele>26.0</ele><time>2026-05-01T15:45:20Z</time></trkpt><trkpt lat="42.39630244102887" lon="14.137521833850352"><ele>26.0</ele><time>2026-05-01T15:45:21Z</time></trkpt><trkpt lat="42.39640412906014" lon="14.137615008944001"><ele>26.25</ele><time>2026-05-01T15:45:22Z</time></trkpt><trkpt lat="42.3965095950102" lon="14.137707813698759"><ele>26.5</ele><time>2026-05-01T15:45:23Z</time></trkpt><trkpt lat="42.39661776350617" lon="14.13780350960576"><ele>26.75</ele><time>2026-05-01T15:45:24Z</time></trkpt><trkpt lat="42.39672860075598" lon="14.137902405233765"><ele>27.0</ele><time>2026-05-01T15:45:25Z</time></trkpt><trkpt lat="42.39684233398165" lon="14.138000661718813"><ele>27.0</ele><time>2026-05-01T15:45:26Z</time></trkpt><trkpt lat="42.39695627989067" lon="14.138102228773318"><ele>27.0</ele><time>2026-05-01T15:45:27Z</time></trkpt><trkpt lat="42.397071614934035" lon="14.138207053781485"><ele>27.0</ele><time>2026-05-01T15:45:28Z</time></trkpt><trkpt lat="42.397188834901144" lon="14.138311505774967"><ele>27.0</ele><time>2026-05-01T15:45:29Z</time></trkpt><trkpt lat="42.39730884774262" lon="14.13841895795902"><ele>26.75</ele><time>2026-05-01T15:45:30Z</time></trkpt><trkpt lat="42.39742804776335" lon="14.138527272840816"><ele>26.5</ele><time>2026-05-01T15:45:31Z</time></trkpt><trkpt lat="42.397548705471415" lon="14.138639324727492"><ele>26.25</ele><time>2026-05-01T15:45:32Z</time></trkpt><trkpt lat="42.39767123478589" lon="14.138749000080884"><ele>26.0</ele><time>2026-05-01T15:45:33Z</time></trkpt><trkpt lat="42.397790738130055" lon="14.138858186805969"><ele>26.0</ele><time>2026-05-01T15:45:34Z</time></trkpt><trkpt lat="42.39790997512639" lon="14.138965041125367"><ele>26.0</ele><time>2026-05-01T15:45:35Z</time></trkpt><trkpt lat="42.39802606605322" lon="14.139067501867618"><ele>26.0</ele><time>2026-05-01T15:45:36Z</time></trkpt><trkpt lat="42.39814139734783" lon="14.139172804072663"><ele>26.0</ele><time>2026-05-01T15:45:37Z</time></trkpt><trkpt lat="42.39825589805686" lon="14.13927586273421"><ele>26.0</ele><time>2026-05-01T15:45:38Z</time></trkpt><trkpt lat="42.39836415618775" lon="14.139372324472815"><ele>26.0</ele><time>2026-05-01T15:45:39Z</time></trkpt><trkpt lat="42.3984648964696" lon="14.13945934931422"><ele>26.0</ele><time>2026-05-01T15:45:40Z</time></trkpt><trkpt lat="42.398558936743584" lon="14.13954423210533"><ele>26.0</ele><time>2026-05-01T15:45:41Z</time></trkpt><trkpt lat="42.398651799337365" lon="14.139626742369309"><ele>26.0</ele><time>2026-05-01T15:45:42Z</time></trkpt><trkpt lat="42.3987439162682" lon="14.139713327305206"><ele>26.0</ele><time>2026-05-01T15:45:43Z</time></trkpt><trkpt lat="42.39884311691734" lon="14.13980069251303"><ele>26.0</ele><time>2026-05-01T15:45:44Z</time></trkpt><trkpt lat="42.398945759503164" lon="14.139888607816395"><ele>26.0</ele><time>2026-05-01T15:45:45Z</time></trkpt><trkpt lat="42.39905244475665" lon="14.139982595015352"><ele>25.75</ele><time>2026-05-01T15:45:46Z</time></trkpt><trkpt lat="42.399162260008794" lon="14.140080156526007"><ele>25.5</ele><time>2026-05-01T15:45:47Z</time></trkpt><trkpt lat="42.399275222526086" lon="14.14018463400684"><ele>25.25</ele><time>2026-05-01T15:45:48Z</time></trkpt><trkpt lat="42.39939124862898" lon="14.140291063908485"><ele>25.0</ele><time>2026-05-01T15:45:49Z</time></trkpt><trkpt lat="42.399510562858595" lon="14.140395968677337"><ele>25.0</ele><time>2026-05-01T15:45:50Z</time></trkpt><trkpt lat="42.39962262031024" lon="14.140491526139458"><ele>25.0</ele><time>2026-05-01T15:45:51Z</time></trkpt><trkpt lat="42.399731212108385" lon="14.140586189884818"><ele>25.0</ele><time>2026-05-01T15:45:52Z</time></trkpt><trkpt lat="42.399835536896525" lon="14.14068037794465"><ele>25.0</ele><time>2026-05-01T15:45:53Z</time></trkpt><trkpt lat="42.39993996863129" lon="14.140773945577372"><ele>25.25</ele><time>2026-05-01T15:45:54Z</time></trkpt><trkpt lat="42.40004492525765" lon="14.140866526154584"><ele>25.5</ele><time>2026-05-01T15:45:55Z</time></trkpt><trkpt lat="42.40015096607478" lon="14.14096039957104"><ele>25.75</ele><time>2026-05-01T15:45:56Z</time></trkpt><trkpt lat="42.40025802944357" lon="14.141055510899777"><ele>26.0</ele><time>2026-05-01T15:45:57Z</time></trkpt><trkpt lat="42.40036871906589" lon="14.141153578255524"><ele>26.0</ele><time>2026-05-01T15:45:58Z</time></trkpt><trkpt lat="42.40048187856881" lon="14.141255066332446"><ele>26.0</ele><time>2026-05-01T15:45:59Z</time></trkpt><trkpt lat="42.40059349994199" lon="14.141357306983762"><ele>26.0</ele><time>2026-05-01T15:46:00Z</time></trkpt><trkpt lat="42.400708101699145" lon="14.141463429794836"><ele>26.0</ele><time>2026-05-01T15:46:01Z</time></trkpt><trkpt lat="42.400825800744" lon="14.14156864266144"><ele>25.75</ele><time>2026-05-01T15:46:02Z</time></trkpt><trkpt lat="42.40094460513143" lon="14.141673979629754"><ele>25.5</ele><time>2026-05-01T15:46:03Z</time></trkpt><trkpt lat="42.40106284580433" lon="14.141781343604258"><ele>25.25</ele><time>2026-05-01T15:46:04Z</time></trkpt><trkpt lat="42.40117459042592" lon="14.14188194971996"><ele>25.0</ele><time>2026-05-01T15:46:05Z</time></trkpt><trkpt lat="42.40128466683295" lon="14.14197964403679"><ele>25.0</ele><time>2026-05-01T15:46:06Z</time></trkpt><trkpt lat="42.40139405759805" lon="14.142079380744509"><ele>25.0</ele><time>2026-05-01T15:46:07Z</time></trkpt><trkpt lat="42.40150760332208" lon="14.142176524676684"><ele>25.0</ele><time>2026-05-01T15:46:08Z</time></trkpt><trkpt lat="42.401616982483986" lon="14.142272623027655"><ele>25.0</ele><time>2026-05-01T15:46:09Z</time></trkpt><trkpt lat="42.40171874525024" lon="14.142365742483367"><ele>24.5</ele><time>2026-05-01T15:46:10Z</time></trkpt><trkpt lat="42.401819881913234" lon="14.142458369497643"><ele>24.0</ele><time>2026-05-01T15:46:11Z</time></trkpt><trkpt lat="42.401921913202685" lon="14.142553094493218"><ele>23.5</ele><time>2026-05-01T15:46:12Z</time></trkpt><trkpt lat="42.40202737732905" lon="14.142648056696066"><ele>23.0</ele><time>2026-05-01T15:46:13Z</time></trkpt><trkpt lat="42.40213704805037" lon="14.142743652377414"><ele>23.25</ele><time>2026-05-01T15:46:14Z</time></trkpt><trkpt lat="42.40224789585876" lon="14.14284034253517"><ele>23.5</ele><time>2026-05-01T15:46:15Z</time></trkpt><trkpt lat="42.40236372200075" lon="14.142939756810328"><ele>23.75</ele><time>2026-05-01T15:46:16Z</time></trkpt><trkpt lat="42.40248356528425" lon="14.143042655283999"><ele>24.0</ele><time>2026-05-01T15:46:17Z</time></trkpt><trkpt lat="42.40260780534552" lon="14.143150957333672"><ele>24.0</ele><time>2026-05-01T15:46:18Z</time></trkpt><trkpt lat="42.40273041782942" lon="14.14325715302949"><ele>24.0</ele><time>2026-05-01T15:46:19Z</time></trkpt><trkpt lat="42.40284661323852" lon="14.14335888477766"><ele>24.0</ele><time>2026-05-01T15:46:20Z</time></trkpt><trkpt lat="42.40296220234956" lon="14.143458563845783"><ele>24.0</ele><time>2026-05-01T15:46:21Z</time></trkpt><trkpt lat="42.4030762725504" lon="14.143558646247488"><ele>24.0</ele><time>2026-05-01T15:46:22Z</time></trkpt><trkpt lat="42.403191356332925" lon="14.143660814248202"><ele>24.0</ele><time>2026-05-01T15:46:23Z</time></trkpt><trkpt lat="42.40330996103756" lon="14.143767422300531"><ele>24.0</ele><time>2026-05-01T15:46:24Z</time></trkpt><trkpt lat="42.40343693423428" lon="14.143879991032954"><ele>24.0</ele><time>2026-05-01T15:46:25Z</time></trkpt><trkpt lat="42.40356504936361" lon="14.143993381117083"><ele>24.25</ele><time>2026-05-01T15:46:26Z</time></trkpt><trkpt lat="42.40369112533469" lon="14.144107439985165"><ele>24.5</ele><time>2026-05-01T15:46:27Z</time></trkpt><trkpt lat="42.40381448671185" lon="14.144218840591375"><ele>24.75</ele><time>2026-05-01T15:46:28Z</time></trkpt><trkpt lat="42.40393382166186" lon="14.14432825497224"><ele>25.0</ele><time>2026-05-01T15:46:29Z</time></trkpt><trkpt lat="42.4040519594803" lon="14.144435786241111"><ele>25.0</ele><time>2026-05-01T15:46:30Z</time></trkpt><trkpt lat="42.404161262878944" lon="14.144540278742742"><ele>25.0</ele><time>2026-05-01T15:46:31Z</time></trkpt><trkpt lat="42.404265800700465" lon="14.144637531014348"><ele>25.0</ele><time>2026-05-01T15:46:32Z</time></trkpt><trkpt lat="42.40436191380458" lon="14.144724579694197"><ele>25.0</ele><time>2026-05-01T15:46:33Z</time></trkpt><trkpt lat="42.40445362773645" lon="14.144808140527783"><ele>25.25</ele><time>2026-05-01T15:46:34Z</time></trkpt><trkpt lat="42.404550570272754" lon="14.144895964453609"><ele>25.5</ele><time>2026-05-01T15:46:35Z</time></trkpt><trkpt lat="42.4046528507646" lon="14.144989603183875"><ele>25.75</ele><time>2026-05-01T15:46:36Z</time></trkpt><trkpt lat="42.4047644865086" lon="14.145087734183882"><ele>26.0</ele><time>2026-05-01T15:46:37Z</time></trkpt><trkpt lat="42.404878756013574" lon="14.145189320763091"><ele>25.25</ele><time>2026-05-01T15:46:38Z</time></trkpt><trkpt lat="42.40498749152248" lon="14.145283805183523"><ele>24.5</ele><time>2026-05-01T15:46:39Z</time></trkpt><trkpt lat="42.40508763102774" lon="14.14537649851435"><ele>23.75</ele><time>2026-05-01T15:46:40Z</time></trkpt><trkpt lat="42.40518234092197" lon="14.145461700818986"><ele>23.0</ele><time>2026-05-01T15:46:41Z</time></trkpt><trkpt lat="42.40527111512759" lon="14.145542739621453"><ele>23.0</ele><time>2026-05-01T15:46:42Z</time></trkpt><trkpt lat="42.40535444544079" lon="14.145621230562472"><ele>23.0</ele><time>2026-05-01T15:46:43Z</time></trkpt><trkpt lat="42.40541437226819" lon="14.145705555328716"><ele>23.0</ele><time>2026-05-01T15:46:44Z</time></trkpt><trkpt lat="42.40546412944983" lon="14.145762504164889"><ele>23.0</ele><time>2026-05-01T15:46:45Z</time></trkpt><trkpt lat="42.40544771436451" lon="14.145852882734246"><ele>23.0</ele><time>2026-05-01T15:46:46Z</time></trkpt><trkpt lat="42.40544330776496" lon="14.14594121858761"><ele>23.0</ele><time>2026-05-01T15:46:47Z</time></trkpt><trkpt lat="42.405487993129576" lon="14.14608260321859"><ele>22.799999999999997</ele><time>2026-05-01T15:46:49Z</time></trkpt><trkpt lat="42.405617677824914" lon="14.146104724570957"><ele>22.6</ele><time>2026-05-01T15:46:51Z</time></trkpt><trkpt lat="42.405695397530785" lon="14.146063307828888"><ele>22.4</ele><time>2026-05-01T15:46:52Z</time></trkpt><trkpt lat="42.40578596833533" lon="14.146046096939626"><ele>22.200000000000003</ele><time>2026-05-01T15:46:53Z</time></trkpt><trkpt lat="42.40587714816965" lon="14.146080911756727"><ele>22.0</ele><time>2026-05-01T15:46:54Z</time></trkpt><trkpt lat="42.40595866358754" lon="14.146155507960735"><ele>22.0</ele><time>2026-05-01T15:46:55Z</time></trkpt><trkpt lat="42.40605076066458" lon="14.146258158643011"><ele>22.0</ele><time>2026-05-01T15:46:56Z</time></trkpt><trkpt lat="42.4061502511282" lon="14.146353166913876"><ele>22.0</ele><time>2026-05-01T15:46:57Z</time></trkpt><trkpt lat="42.40626054981276" lon="14.14644813363681"><ele>22.0</ele><time>2026-05-01T15:46:58Z</time></trkpt><trkpt lat="42.406375097908736" lon="14.146544595289205"><ele>22.0</ele><time>2026-05-01T15:46:59Z</time></trkpt><trkpt lat="42.40649311804766" lon="14.146645729886428"><ele>22.0</ele><time>2026-05-01T15:47:00Z</time></trkpt><trkpt lat="42.40660829562447" lon="14.14673931921589"><ele>22.0</ele><time>2026-05-01T15:47:01Z</time></trkpt><trkpt lat="42.40672062116813" lon="14.14682042414321"><ele>22.0</ele><time>2026-05-01T15:47:02Z</time></trkpt><trkpt lat="42.40684023453419" lon="14.14689043298508"><ele>22.0</ele><time>2026-05-01T15:47:03Z</time></trkpt><trkpt lat="42.40697016319102" lon="14.146950647884598"><ele>22.0</ele><time>2026-05-01T15:47:04Z</time></trkpt><trkpt lat="42.407105329035936" lon="14.146994903888874"><ele>22.0</ele><time>2026-05-01T15:47:05Z</time></trkpt><trkpt lat="42.407243354854785" lon="14.147032512252213"><ele>22.0</ele><time>2026-05-01T15:47:06Z</time></trkpt><trkpt lat="42.40738535597646" lon="14.147070261465736"><ele>20.666666666666664</ele><time>2026-05-01T15:47:07Z</time></trkpt><trkpt lat="42.40754258523005" lon="14.147107239092088"><ele>19.333333333333332</ele><time>2026-05-01T15:47:08Z</time></trkpt><trkpt lat="42.40770761965836" lon="14.14713613725982"><ele>18.0</ele><time>2026-05-01T15:47:09Z</time></trkpt><trkpt lat="42.40787599771328" lon="14.147166324323456"><ele>17.666666666666668</ele><time>2026-05-01T15:47:10Z</time></trkpt><trkpt lat="42.40803070228953" lon="14.147199878253463"><ele>17.333333333333336</ele><time>2026-05-01T15:47:11Z</time></trkpt><trkpt lat="42.40817660112864" lon="14.147240183378257"><ele>17.0</ele><time>2026-05-01T15:47:12Z</time></trkpt><trkpt lat="42.40833286264131" lon="14.147296827143045"><ele>17.0</ele><time>2026-05-01T15:47:13Z</time></trkpt><trkpt lat="42.40848720481187" lon="14.147364874330382"><ele>17.0</ele><time>2026-05-01T15:47:14Z</time></trkpt><trkpt lat="42.408632520936095" lon="14.14744066152157"><ele>17.0</ele><time>2026-05-01T15:47:15Z</time></trkpt><trkpt lat="42.408768288858234" lon="14.147525919551576"><ele>17.0</ele><time>2026-05-01T15:47:16Z</time></trkpt><trkpt lat="42.408898051456475" lon="14.147619072556573"><ele>17.0</ele><time>2026-05-01T15:47:17Z</time></trkpt><trkpt lat="42.40902709775952" lon="14.147718762445848"><ele>17.0</ele><time>2026-05-01T15:47:18Z</time></trkpt><trkpt lat="42.409154275885356" lon="14.147817297152598"><ele>17.0</ele><time>2026-05-01T15:47:19Z</time></trkpt><trkpt lat="42.40928334246855" lon="14.147918468429639"><ele>17.0</ele><time>2026-05-01T15:47:20Z</time></trkpt><trkpt lat="42.409415877394075" lon="14.148022819502327"><ele>17.0</ele><time>2026-05-01T15:47:21Z</time></trkpt><trkpt lat="42.4095486577167" lon="14.148125511771413"><ele>17.0</ele><time>2026-05-01T15:47:22Z</time></trkpt><trkpt lat="42.40968260165395" lon="14.148229089043154"><ele>17.666666666666668</ele><time>2026-05-01T15:47:23Z</time></trkpt><trkpt lat="42.40981225761328" lon="14.148330830798994"><ele>18.333333333333332</ele><time>2026-05-01T15:47:24Z</time></trkpt><trkpt lat="42.40994631745881" lon="14.148438163755587"><ele>19.0</ele><time>2026-05-01T15:47:25Z</time></trkpt><trkpt lat="42.41007794997319" lon="14.148546034721587"><ele>19.0</ele><time>2026-05-01T15:47:26Z</time></trkpt><trkpt lat="42.41021202995734" lon="14.14865399877652"><ele>19.0</ele><time>2026-05-01T15:47:27Z</time></trkpt><trkpt lat="42.41034862170084" lon="14.148763303793848"><ele>19.0</ele><time>2026-05-01T15:47:28Z</time></trkpt><trkpt lat="42.41048817342522" lon="14.148875102474761"><ele>19.0</ele><time>2026-05-01T15:47:29Z</time></trkpt><trkpt lat="42.41062888824288" lon="14.148989772278535"><ele>19.0</ele><time>2026-05-01T15:47:30Z</time></trkpt><trkpt lat="42.410775895796675" lon="14.149105441385531"><ele>19.0</ele><time>2026-05-01T15:47:31Z</time></trkpt><trkpt lat="42.41093165770085" lon="14.149224785514038"><ele>19.666666666666664</ele><time>2026-05-01T15:47:32Z</time></trkpt><trkpt lat="42.41109264858244" lon="14.14934913097868"><ele>20.333333333333332</ele><time>2026-05-01T15:47:33Z</time></trkpt><trkpt lat="42.41126696234699" lon="14.149485239481157"><ele>21.0</ele><time>2026-05-01T15:47:34Z</time></trkpt><trkpt lat="42.4114695220641" lon="14.149633259679625"><ele>21.0</ele><time>2026-05-01T15:47:35Z</time></trkpt><trkpt lat="42.41168398312796" lon="14.149792450373004"><ele>21.0</ele><time>2026-05-01T15:47:36Z</time></trkpt><trkpt lat="42.4118866265325" lon="14.149952292974977"><ele>20.0</ele><time>2026-05-01T15:47:37Z</time></trkpt><trkpt lat="42.41206405411541" lon="14.150102372935285"><ele>19.0</ele><time>2026-05-01T15:47:38Z</time></trkpt><trkpt lat="42.412235370838616" lon="14.150245841205761"><ele>18.0</ele><time>2026-05-01T15:47:39Z</time></trkpt><trkpt lat="42.412398708612166" lon="14.150377953177642"><ele>17.0</ele><time>2026-05-01T15:47:40Z</time></trkpt><trkpt lat="42.41255896249529" lon="14.15050569950156"><ele>16.0</ele><time>2026-05-01T15:47:41Z</time></trkpt><trkpt lat="42.41271556586289" lon="14.150629641598563"><ele>15.0</ele><time>2026-05-01T15:47:42Z</time></trkpt><trkpt lat="42.412862326559036" lon="14.150750570453566"><ele>15.0</ele><time>2026-05-01T15:47:43Z</time></trkpt><trkpt lat="42.41299770171586" lon="14.15087575246093"><ele>15.0</ele><time>2026-05-01T15:47:44Z</time></trkpt><trkpt lat="42.41312098182341" lon="14.15100525269734"><ele>15.0</ele><time>2026-05-01T15:47:45Z</time></trkpt><trkpt lat="42.41323778657692" lon="14.151135489026489"><ele>15.0</ele><time>2026-05-01T15:47:46Z</time></trkpt><trkpt lat="42.413358378564325" lon="14.151271649930415"><ele>15.0</ele><time>2026-05-01T15:47:47Z</time></trkpt><trkpt lat="42.413487021545706" lon="14.151409241850862"><ele>15.0</ele><time>2026-05-01T15:47:48Z</time></trkpt><trkpt lat="42.4136254551399" lon="14.15153614481252"><ele>15.333333333333332</ele><time>2026-05-01T15:47:49Z</time></trkpt><trkpt lat="42.41377402439196" lon="14.15165104831149"><ele>15.666666666666666</ele><time>2026-05-01T15:47:50Z</time></trkpt><trkpt lat="42.41393228173326" lon="14.151753628705729"><ele>16.0</ele><time>2026-05-01T15:47:51Z</time></trkpt><trkpt lat="42.414090707871" lon="14.151842382800815"><ele>16.0</ele><time>2026-05-01T15:47:52Z</time></trkpt><trkpt lat="42.4142461805859" lon="14.151914347628887"><ele>16.0</ele><time>2026-05-01T15:47:53Z</time></trkpt><trkpt lat="42.414396190592456" lon="14.151971865126225"><ele>16.0</ele><time>2026-05-01T15:47:53.999Z</time></trkpt><trkpt lat="42.41454466871688" lon="14.152015391378665"><ele>15.666666666666666</ele><time>2026-05-01T15:47:54.999Z</time></trkpt><trkpt lat="42.414693762170145" lon="14.152043721246088"><ele>15.333333333333332</ele><time>2026-05-01T15:47:56Z</time></trkpt><trkpt lat="42.414851603767836" lon="14.152063143081604"><ele>15.0</ele><time>2026-05-01T15:47:57Z</time></trkpt><trkpt lat="42.4150082742944" lon="14.152075582904695"><ele>15.0</ele><time>2026-05-01T15:47:58Z</time></trkpt><trkpt lat="42.4151625158937" lon="14.152083652186077"><ele>15.0</ele><time>2026-05-01T15:47:59Z</time></trkpt><trkpt lat="42.41531351566662" lon="14.152087799759844"><ele>15.0</ele><time>2026-05-01T15:48:00Z</time></trkpt><trkpt lat="42.4154565604475" lon="14.152093926793281"><ele>15.0</ele><time>2026-05-01T15:48:01Z</time></trkpt><trkpt lat="42.415603816802225" lon="14.152108421063781"><ele>15.333333333333332</ele><time>2026-05-01T15:48:02Z</time></trkpt><trkpt lat="42.415752412360504" lon="14.152132560838897"><ele>15.666666666666666</ele><time>2026-05-01T15:48:03Z</time></trkpt><trkpt lat="42.4159060346924" lon="14.152165512958785"><ele>16.0</ele><time>2026-05-01T15:48:04Z</time></trkpt><trkpt lat="42.41606000861446" lon="14.152223779598383"><ele>16.0</ele><time>2026-05-01T15:48:05Z</time></trkpt><trkpt lat="42.41620435472439" lon="14.152314018216002"><ele>16.0</ele><time>2026-05-01T15:48:06Z</time></trkpt><trkpt lat="42.41633707784086" lon="14.152434438135877"><ele>16.0</ele><time>2026-05-01T15:48:07Z</time></trkpt><trkpt lat="42.41645295995295" lon="14.152583912784781"><ele>17.333333333333332</ele><time>2026-05-01T15:48:08Z</time></trkpt><trkpt lat="42.41656151345143" lon="14.15273693418773"><ele>18.666666666666668</ele><time>2026-05-01T15:48:09Z</time></trkpt><trkpt lat="42.41668452454479" lon="14.15289970718032"><ele>20.0</ele><time>2026-05-01T15:48:10Z</time></trkpt><trkpt lat="42.41679290777614" lon="14.153053993666695"><ele>19.666666666666668</ele><time>2026-05-01T15:48:11Z</time></trkpt><trkpt lat="42.41690535171006" lon="14.153208796773646"><ele>19.333333333333332</ele><time>2026-05-01T15:48:12Z</time></trkpt><trkpt lat="42.41702356386783" lon="14.153367791920596"><ele>19.0</ele><time>2026-05-01T15:48:13Z</time></trkpt><trkpt lat="42.41714145546507" lon="14.153527306682118"><ele>19.666666666666664</ele><time>2026-05-01T15:48:14Z</time></trkpt><trkpt lat="42.417258907924754" lon="14.15368566724415"><ele>20.333333333333332</ele><time>2026-05-01T15:48:15Z</time></trkpt><trkpt lat="42.41737994697316" lon="14.153846016778425"><ele>21.0</ele><time>2026-05-01T15:48:16Z</time></trkpt><trkpt lat="42.417495448006385" lon="14.154002556120764"><ele>20.333333333333332</ele><time>2026-05-01T15:48:17Z</time></trkpt><trkpt lat="42.41761145962354" lon="14.154159916930253"><ele>19.666666666666664</ele><time>2026-05-01T15:48:18Z</time></trkpt><trkpt lat="42.41772713530975" lon="14.15431615977138"><ele>19.0</ele><time>2026-05-01T15:48:19Z</time></trkpt><trkpt lat="42.41784252332999" lon="14.154472917566016"><ele>19.0</ele><time>2026-05-01T15:48:20Z</time></trkpt><trkpt lat="42.417958962708035" lon="14.154631019991156"><ele>19.0</ele><time>2026-05-01T15:48:21Z</time></trkpt><trkpt lat="42.41807624770942" lon="14.154794679753167"><ele>19.0</ele><time>2026-05-01T15:48:22Z</time></trkpt><trkpt lat="42.41819617681735" lon="14.154959802606308"><ele>18.333333333333332</ele><time>2026-05-01T15:48:23Z</time></trkpt><trkpt lat="42.418324527954994" lon="14.155130764513999"><ele>17.666666666666668</ele><time>2026-05-01T15:48:24Z</time></trkpt><trkpt lat="42.4184629978566" lon="14.15532395582146"><ele>17.0</ele><time>2026-05-01T15:48:25Z</time></trkpt><trkpt lat="42.41860425755039" lon="14.155513839864122"><ele>17.0</ele><time>2026-05-01T15:48:26Z</time></trkpt><trkpt lat="42.418738591611444" lon="14.155693735341346"><ele>17.0</ele><time>2026-05-01T15:48:27Z</time></trkpt><trkpt lat="42.41886116709825" lon="14.155868609087864"><ele>17.0</ele><time>2026-05-01T15:48:28Z</time></trkpt><trkpt lat="42.418975626410585" lon="14.156030189639715"><ele>18.5</ele><time>2026-05-01T15:48:29Z</time></trkpt><trkpt lat="42.41908207897282" lon="14.156180276810971"><ele>20.0</ele><time>2026-05-01T15:48:30Z</time></trkpt><trkpt lat="42.41919401082603" lon="14.156312287499164"><ele>21.5</ele><time>2026-05-01T15:48:31Z</time></trkpt><trkpt lat="42.419313909054225" lon="14.15641641176817"><ele>23.0</ele><time>2026-05-01T15:48:32Z</time></trkpt><trkpt lat="42.419447434488006" lon="14.156484342551986"><ele>23.0</ele><time>2026-05-01T15:48:33Z</time></trkpt><trkpt lat="42.419607722694145" lon="14.156535404052018"><ele>23.0</ele><time>2026-05-01T15:48:34Z</time></trkpt><trkpt lat="42.41979058541622" lon="14.156584800814635"><ele>23.0</ele><time>2026-05-01T15:48:35Z</time></trkpt><trkpt lat="42.41997689859983" lon="14.156659521720188"><ele>22.0</ele><time>2026-05-01T15:48:36Z</time></trkpt><trkpt lat="42.42015596552807" lon="14.156734828573407"><ele>21.0</ele><time>2026-05-01T15:48:37Z</time></trkpt><trkpt lat="42.420324316966244" lon="14.156809438294381"><ele>20.0</ele><time>2026-05-01T15:48:38Z</time></trkpt><trkpt lat="42.42047304938375" lon="14.156882123234777"><ele>20.333333333333336</ele><time>2026-05-01T15:48:39Z</time></trkpt><trkpt lat="42.42062534397544" lon="14.156944012027246"><ele>20.666666666666668</ele><time>2026-05-01T15:48:40Z</time></trkpt><trkpt lat="42.42078578300591" lon="14.156994988317688"><ele>21.0</ele><time>2026-05-01T15:48:41Z</time></trkpt><trkpt lat="42.42094656992272" lon="14.157078127193255"><ele>21.0</ele><time>2026-05-01T15:48:42Z</time></trkpt><trkpt lat="42.42111042902299" lon="14.157146315849047"><ele>21.0</ele><time>2026-05-01T15:48:43Z</time></trkpt><trkpt lat="42.421274016916534" lon="14.157214391625232"><ele>21.0</ele><time>2026-05-01T15:48:44Z</time></trkpt><trkpt lat="42.421435731946595" lon="14.157261627164928"><ele>21.5</ele><time>2026-05-01T15:48:45Z</time></trkpt><trkpt lat="42.42156644661907" lon="14.157335443555313"><ele>22.0</ele><time>2026-05-01T15:48:46Z</time></trkpt><trkpt lat="42.42168246408822" lon="14.157381088877955"><ele>22.5</ele><time>2026-05-01T15:48:47Z</time></trkpt><trkpt lat="42.42179701902978" lon="14.157417652698781"><ele>23.0</ele><time>2026-05-01T15:48:48Z</time></trkpt><trkpt lat="42.42190471151705" lon="14.157441841817981"><ele>22.5</ele><time>2026-05-01T15:48:49Z</time></trkpt><trkpt lat="42.42200371863861" lon="14.15744029320869"><ele>22.0</ele><time>2026-05-01T15:48:50Z</time></trkpt><trkpt lat="42.42208053563332" lon="14.157414970880954"><ele>21.5</ele><time>2026-05-01T15:48:51Z</time></trkpt><trkpt lat="42.422163831773155" lon="14.157394265699875"><ele>21.0</ele><time>2026-05-01T15:48:53Z</time></trkpt><trkpt lat="42.42223944396024" lon="14.15740265803104"><ele>20.5</ele><time>2026-05-01T15:48:58Z</time></trkpt><trkpt lat="42.42232588573268" lon="14.157454989913564"><ele>20.0</ele><time>2026-05-01T15:49:00Z</time></trkpt><trkpt lat="42.42242528491959" lon="14.15753796593331"><ele>20.0</ele><time>2026-05-01T15:49:02Z</time></trkpt><trkpt lat="42.422534642222196" lon="14.157576950865634"><ele>20.0</ele><time>2026-05-01T15:49:04Z</time></trkpt><trkpt lat="42.42260271931266" lon="14.157623589606228"><ele>20.0</ele><time>2026-05-01T15:49:05Z</time></trkpt><trkpt lat="42.42267272077747" lon="14.15768422438537"><ele>20.0</ele><time>2026-05-01T15:49:06Z</time></trkpt><trkpt lat="42.42274249813546" lon="14.157751613718558"><ele>20.0</ele><time>2026-05-01T15:49:07Z</time></trkpt><trkpt lat="42.422818855678756" lon="14.157807527234064"><ele>20.0</ele><time>2026-05-01T15:49:08Z</time></trkpt><trkpt lat="42.42290947737503" lon="14.15785376552009"><ele>19.666666666666668</ele><time>2026-05-01T15:49:09Z</time></trkpt><trkpt lat="42.42300450468429" lon="14.157892801317272"><ele>19.333333333333336</ele><time>2026-05-01T15:49:10Z</time></trkpt><trkpt lat="42.423091569437446" lon="14.157927317120786"><ele>19.0</ele><time>2026-05-01T15:49:11Z</time></trkpt><trkpt lat="42.42317064759321" lon="14.157958776332059"><ele>18.666666666666668</ele><time>2026-05-01T15:49:12Z</time></trkpt><trkpt lat="42.42324748417397" lon="14.157990246150728"><ele>18.333333333333332</ele><time>2026-05-01T15:49:13Z</time></trkpt><trkpt lat="42.423324328271285" lon="14.158025490650978"><ele>18.0</ele><time>2026-05-01T15:49:14Z</time></trkpt><trkpt lat="42.42340355392346" lon="14.158055727287577"><ele>18.0</ele><time>2026-05-01T15:49:15Z</time></trkpt><trkpt lat="42.42346924698933" lon="14.158074903121951"><ele>18.0</ele><time>2026-05-01T15:49:16Z</time></trkpt><trkpt lat="42.4235418511079" lon="14.158103720595589"><ele>18.0</ele><time>2026-05-01T15:49:18Z</time></trkpt><trkpt lat="42.423609727261905" lon="14.158131714211118"><ele>18.0</ele><time>2026-05-01T15:49:20Z</time></trkpt><trkpt lat="42.42372175419474" lon="14.158177529416498"><ele>18.0</ele><time>2026-05-01T15:49:22Z</time></trkpt><trkpt lat="42.423801562243746" lon="14.158208300011866"><ele>18.0</ele><time>2026-05-01T15:49:23Z</time></trkpt><trkpt lat="42.423879500693864" lon="14.15824429650702"><ele>17.833333333333332</ele><time>2026-05-01T15:49:24Z</time></trkpt><trkpt lat="42.42395355747182" lon="14.15827098334935"><ele>17.666666666666668</ele><time>2026-05-01T15:49:25Z</time></trkpt><trkpt lat="42.42401410453858" lon="14.158299855723888"><ele>17.5</ele><time>2026-05-01T15:49:26Z</time></trkpt><trkpt lat="42.42413195909942" lon="14.158354262223087"><ele>17.333333333333336</ele><time>2026-05-01T15:49:28Z</time></trkpt><trkpt lat="42.424212325368295" lon="14.158386820820022"><ele>17.166666666666668</ele><time>2026-05-01T15:49:30Z</time></trkpt><trkpt lat="42.424277567009185" lon="14.158416501570164"><ele>17.0</ele><time>2026-05-01T15:49:33Z</time></trkpt><trkpt lat="42.42435230427245" lon="14.158435643135086"><ele>17.0</ele><time>2026-05-01T15:49:38Z</time></trkpt><trkpt lat="42.424473946268336" lon="14.158489267846928"><ele>17.0</ele><time>2026-05-01T15:49:40Z</time></trkpt><trkpt lat="42.42455935571609" lon="14.158526466982531"><ele>17.0</ele><time>2026-05-01T15:49:41Z</time></trkpt><trkpt lat="42.424643595210206" lon="14.158562531349297"><ele>17.0</ele><time>2026-05-01T15:49:42Z</time></trkpt><trkpt lat="42.424739745982805" lon="14.15860295945391"><ele>17.0</ele><time>2026-05-01T15:49:43Z</time></trkpt><trkpt lat="42.424841058581826" lon="14.158648396168777"><ele>17.25</ele><time>2026-05-01T15:49:44Z</time></trkpt><trkpt lat="42.4249477363615" lon="14.158698010363645"><ele>17.5</ele><time>2026-05-01T15:49:45Z</time></trkpt><trkpt lat="42.42509299624009" lon="14.158764840174662"><ele>17.75</ele><time>2026-05-01T15:49:46Z</time></trkpt><trkpt lat="42.425224070652014" lon="14.158819552055018"><ele>18.0</ele><time>2026-05-01T15:49:47Z</time></trkpt><trkpt lat="42.42533615061459" lon="14.158869592198336"><ele>18.0</ele><time>2026-05-01T15:49:48Z</time></trkpt><trkpt lat="42.42543928981688" lon="14.15891324215752"><ele>18.0</ele><time>2026-05-01T15:49:49Z</time></trkpt><trkpt lat="42.42553299841244" lon="14.158957037845457"><ele>18.0</ele><time>2026-05-01T15:49:50Z</time></trkpt><trkpt lat="42.42561644872169" lon="14.158996194063755"><ele>18.0</ele><time>2026-05-01T15:49:51Z</time></trkpt><trkpt lat="42.42569350023492" lon="14.159034819718327"><ele>18.0</ele><time>2026-05-01T15:49:52Z</time></trkpt><trkpt lat="42.42575616256491" lon="14.159073357644214"><ele>18.0</ele><time>2026-05-01T15:49:53Z</time></trkpt><trkpt lat="42.42586583998007" lon="14.159133747871607"><ele>18.2</ele><time>2026-05-01T15:49:55Z</time></trkpt><trkpt lat="42.42599040835512" lon="14.15919881630707"><ele>18.4</ele><time>2026-05-01T15:49:57Z</time></trkpt><trkpt lat="42.426064821918395" lon="14.1592458972489"><ele>18.599999999999998</ele><time>2026-05-01T15:49:58Z</time></trkpt><trkpt lat="42.42614474306144" lon="14.159295519208369"><ele>18.8</ele><time>2026-05-01T15:49:59Z</time></trkpt><trkpt lat="42.42622157560573" lon="14.159347806842371"><ele>19.0</ele><time>2026-05-01T15:50:00Z</time></trkpt><trkpt lat="42.42630651753552" lon="14.159405347006329"><ele>19.166666666666664</ele><time>2026-05-01T15:50:01Z</time></trkpt><trkpt lat="42.42638629127157" lon="14.159460384724252"><ele>19.333333333333332</ele><time>2026-05-01T15:50:02Z</time></trkpt><trkpt lat="42.42646250499737" lon="14.159512225503487"><ele>19.5</ele><time>2026-05-01T15:50:03Z</time></trkpt><trkpt lat="42.42652684797077" lon="14.159556913263337"><ele>19.666666666666668</ele><time>2026-05-01T15:50:04Z</time></trkpt><trkpt lat="42.42659055825939" lon="14.159605429282635"><ele>19.833333333333336</ele><time>2026-05-01T15:50:05Z</time></trkpt><trkpt lat="42.4266944261137" lon="14.159687055478518"><ele>20.0</ele><time>2026-05-01T15:50:07Z</time></trkpt><trkpt lat="42.42674875906746" lon="14.159732780231376"><ele>20.0</ele><time>2026-05-01T15:50:08Z</time></trkpt><trkpt lat="42.426808458052484" lon="14.159779291676502"><ele>20.0</ele><time>2026-05-01T15:50:09Z</time></trkpt><trkpt lat="42.42687092346" lon="14.159831681576321"><ele>20.0</ele><time>2026-05-01T15:50:10Z</time></trkpt><trkpt lat="42.42693679565508" lon="14.159882214554212"><ele>20.0</ele><time>2026-05-01T15:50:11Z</time></trkpt><trkpt lat="42.42700751809276" lon="14.159940144383777"><ele>20.0</ele><time>2026-05-01T15:50:12Z</time></trkpt><trkpt lat="42.427081277234095" lon="14.159997700223249"><ele>20.0</ele><time>2026-05-01T15:50:13Z</time></trkpt><trkpt lat="42.4271614711886" lon="14.160065279591795"><ele>19.6</ele><time>2026-05-01T15:50:14Z</time></trkpt><trkpt lat="42.42724979440572" lon="14.160137137875456"><ele>19.2</ele><time>2026-05-01T15:50:15Z</time></trkpt><trkpt lat="42.427340205180265" lon="14.160213590703458"><ele>18.8</ele><time>2026-05-01T15:50:16Z</time></trkpt><trkpt lat="42.42742988600003" lon="14.160291864523895"><ele>18.4</ele><time>2026-05-01T15:50:17Z</time></trkpt><trkpt lat="42.42752240755049" lon="14.16037440000861"><ele>18.0</ele><time>2026-05-01T15:50:18Z</time></trkpt><trkpt lat="42.42760603632209" lon="14.160463576871285"><ele>18.0</ele><time>2026-05-01T15:50:19Z</time></trkpt><trkpt lat="42.427716111288404" lon="14.160550065063628"><ele>18.0</ele><time>2026-05-01T15:50:20Z</time></trkpt><trkpt lat="42.42780701149761" lon="14.160644893759425"><ele>18.0</ele><time>2026-05-01T15:50:21Z</time></trkpt><trkpt lat="42.42789423525589" lon="14.160724212653555"><ele>18.0</ele><time>2026-05-01T15:50:22Z</time></trkpt><trkpt lat="42.427982145025624" lon="14.160806620479232"><ele>17.75</ele><time>2026-05-01T15:50:23Z</time></trkpt><trkpt lat="42.42807753857011" lon="14.160900310794615"><ele>17.5</ele><time>2026-05-01T15:50:24Z</time></trkpt><trkpt lat="42.428172321537396" lon="14.160992809945972"><ele>17.25</ele><time>2026-05-01T15:50:25Z</time></trkpt><trkpt lat="42.42827589002795" lon="14.161091253061429"><ele>17.0</ele><time>2026-05-01T15:50:26Z</time></trkpt><trkpt lat="42.42839307495832" lon="14.16122799270355"><ele>17.0</ele><time>2026-05-01T15:50:27Z</time></trkpt><trkpt lat="42.42852492003852" lon="14.16132996777228"><ele>17.0</ele><time>2026-05-01T15:50:28Z</time></trkpt><trkpt lat="42.42862888366113" lon="14.161457842467106"><ele>17.0</ele><time>2026-05-01T15:50:29Z</time></trkpt><trkpt lat="42.42874601663876" lon="14.16155303838368"><ele>17.0</ele><time>2026-05-01T15:50:30Z</time></trkpt><trkpt lat="42.42884873760652" lon="14.161664339501108"><ele>19.5</ele><time>2026-05-01T15:50:31Z</time></trkpt><trkpt lat="42.42895316058945" lon="14.1617757924301"><ele>22.0</ele><time>2026-05-01T15:50:32Z</time></trkpt><trkpt lat="42.4290635800267" lon="14.161888505291085"><ele>24.5</ele><time>2026-05-01T15:50:33Z</time></trkpt><trkpt lat="42.429177687961605" lon="14.162001677182399"><ele>27.0</ele><time>2026-05-01T15:50:34Z</time></trkpt><trkpt lat="42.42929146945163" lon="14.162115280002842"><ele>27.0</ele><time>2026-05-01T15:50:35Z</time></trkpt><trkpt lat="42.42940658962408" lon="14.162235199181046"><ele>27.0</ele><time>2026-05-01T15:50:36Z</time></trkpt><trkpt lat="42.42952861782356" lon="14.162360905562377"><ele>27.0</ele><time>2026-05-01T15:50:37Z</time></trkpt><trkpt lat="42.42965305170275" lon="14.162479118959995"><ele>25.5</ele><time>2026-05-01T15:50:38Z</time></trkpt><trkpt lat="42.42977620287245" lon="14.162582648786612"><ele>24.0</ele><time>2026-05-01T15:50:39Z</time></trkpt><trkpt lat="42.42989279736412" lon="14.16265683691624"><ele>22.5</ele><time>2026-05-01T15:50:40Z</time></trkpt><trkpt lat="42.43000611203516" lon="14.162710632917504"><ele>21.0</ele><time>2026-05-01T15:50:41Z</time></trkpt><trkpt lat="42.4301174585416" lon="14.162748448740599"><ele>21.0</ele><time>2026-05-01T15:50:42Z</time></trkpt><trkpt lat="42.43022708281769" lon="14.162774041531947"><ele>21.0</ele><time>2026-05-01T15:50:43Z</time></trkpt><trkpt lat="42.43032967584874" lon="14.162789645510248"><ele>21.0</ele><time>2026-05-01T15:50:44Z</time></trkpt><trkpt lat="42.43042682634905" lon="14.16280577652857"><ele>21.0</ele><time>2026-05-01T15:50:45Z</time></trkpt><trkpt lat="42.430498446578945" lon="14.16281485212203"><ele>21.0</ele><time>2026-05-01T15:50:46Z</time></trkpt><trkpt lat="42.43053924392024" lon="14.162676808800843"><ele>21.0</ele><time>2026-05-01T15:50:51Z</time></trkpt><trkpt lat="42.4304617254771" lon="14.162610953694127"><ele>21.0</ele><time>2026-05-01T15:50:54Z</time></trkpt><trkpt lat="42.43038009587737" lon="14.162532654029526"><ele>21.0</ele><time>2026-05-01T15:50:56Z</time></trkpt><trkpt lat="42.43033777961945" lon="14.162388764554109"><ele>21.0</ele><time>2026-05-01T15:50:58Z</time></trkpt><trkpt lat="42.43039185710084" lon="14.16222507714295"><ele>21.0</ele><time>2026-05-01T15:51:00Z</time></trkpt><trkpt lat="42.43043198596116" lon="14.162134793126608"><ele>21.4</ele><time>2026-05-01T15:51:01Z</time></trkpt><trkpt lat="42.430474907820276" lon="14.162025507252224"><ele>21.8</ele><time>2026-05-01T15:51:02Z</time></trkpt><trkpt lat="42.43053005727986" lon="14.161901118451684"><ele>22.2</ele><time>2026-05-01T15:51:03Z</time></trkpt><trkpt lat="42.430586907321626" lon="14.161769298268476"><ele>22.599999999999998</ele><time>2026-05-01T15:51:04Z</time></trkpt><trkpt lat="42.43064503128278" lon="14.161628051860934"><ele>23.0</ele><time>2026-05-01T15:51:05Z</time></trkpt><trkpt lat="42.43069975780716" lon="14.161492319491195"><ele>23.799999999999997</ele><time>2026-05-01T15:51:06Z</time></trkpt><trkpt lat="42.430747229092916" lon="14.161378920302564"><ele>24.6</ele><time>2026-05-01T15:51:07Z</time></trkpt><trkpt lat="42.43079171352574" lon="14.161278647850265"><ele>25.400000000000002</ele><time>2026-05-01T15:51:08Z</time></trkpt><trkpt lat="42.430827430345126" lon="14.161201049632066"><ele>26.200000000000003</ele><time>2026-05-01T15:51:09Z</time></trkpt><trkpt lat="42.43092466327681" lon="14.16112151468885"><ele>27.0</ele><time>2026-05-01T15:51:25Z</time></trkpt><trkpt lat="42.43094986687629" lon="14.16092360040944"><ele>27.0</ele><time>2026-05-01T15:51:26Z</time></trkpt><trkpt lat="42.431016955048165" lon="14.160751186308747"><ele>27.0</ele><time>2026-05-01T15:51:27Z</time></trkpt><trkpt lat="42.43110145424366" lon="14.160535836859225"><ele>27.0</ele><time>2026-05-01T15:51:28Z</time></trkpt><trkpt lat="42.43120606382577" lon="14.160275356401824"><ele>28.5</ele><time>2026-05-01T15:51:29Z</time></trkpt><trkpt lat="42.4313163501465" lon="14.160005360073619"><ele>30.0</ele><time>2026-05-01T15:51:30Z</time></trkpt><trkpt lat="42.431435367548794" lon="14.159714747191487"><ele>31.0</ele><time>2026-05-01T15:51:31Z</time></trkpt><trkpt lat="42.43155823342949" lon="14.159412422792832"><ele>32.0</ele><time>2026-05-01T15:51:32Z</time></trkpt><trkpt lat="42.43167889128136" lon="14.159123176285492"><ele>32.33333333333333</ele><time>2026-05-01T15:51:33Z</time></trkpt><trkpt lat="42.431788557851604" lon="14.158865327996002"><ele>32.666666666666664</ele><time>2026-05-01T15:51:34Z</time></trkpt><trkpt lat="42.431886424018764" lon="14.158630090559136"><ele>33.0</ele><time>2026-05-01T15:51:35Z</time></trkpt><trkpt lat="42.431964174926094" lon="14.158433811602121"><ele>33.0</ele><time>2026-05-01T15:51:36Z</time></trkpt><trkpt lat="42.432020765064856" lon="14.158295731567197"><ele>33.0</ele><time>2026-05-01T15:51:37Z</time></trkpt><trkpt lat="42.432061049453" lon="14.158190824402466"><ele>33.0</ele><time>2026-05-01T15:51:38Z</time></trkpt><trkpt lat="42.432111375843476" lon="14.158076661454748"><ele>33.0</ele><time>2026-05-01T15:51:39Z</time></trkpt><trkpt lat="42.432169636345" lon="14.15795363828491"><ele>33.0</ele><time>2026-05-01T15:51:40Z</time></trkpt><trkpt lat="42.432228611694185" lon="14.157821937323918"><ele>35.0</ele><time>2026-05-01T15:51:41Z</time></trkpt><trkpt lat="42.432285878600894" lon="14.157687121602663"><ele>37.0</ele><time>2026-05-01T15:51:42Z</time></trkpt><trkpt lat="42.43234916157846" lon="14.157551364964794"><ele>39.0</ele><time>2026-05-01T15:51:43Z</time></trkpt><trkpt lat="42.43242184626503" lon="14.157427269240717"><ele>41.0</ele><time>2026-05-01T15:51:44Z</time></trkpt><trkpt lat="42.4325087956685" lon="14.157306606527166"><ele>42.0</ele><time>2026-05-01T15:51:45Z</time></trkpt><trkpt lat="42.43261084669371" lon="14.157185365022046"><ele>43.0</ele><time>2026-05-01T15:51:46Z</time></trkpt><trkpt lat="42.432726428649374" lon="14.1570716710978"><ele>44.0</ele><time>2026-05-01T15:51:47Z</time></trkpt><trkpt lat="42.43285156287825" lon="14.156960961753049"><ele>45.0</ele><time>2026-05-01T15:51:48Z</time></trkpt><trkpt lat="42.432999882049685" lon="14.156839477757213"><ele>46.66666666666667</ele><time>2026-05-01T15:51:49Z</time></trkpt><trkpt lat="42.433160507280995" lon="14.156708194583207"><ele>48.333333333333336</ele><time>2026-05-01T15:51:50Z</time></trkpt><trkpt lat="42.43331215426743" lon="14.156584769068418"><ele>50.0</ele><time>2026-05-01T15:51:51Z</time></trkpt><trkpt lat="42.433455933461694" lon="14.156467812147643"><ele>50.66666666666667</ele><time>2026-05-01T15:51:52Z</time></trkpt><trkpt lat="42.43360173818721" lon="14.156355502196863"><ele>51.33333333333333</ele><time>2026-05-01T15:51:53Z</time></trkpt><trkpt lat="42.43374980597203" lon="14.156244485684317"><ele>52.0</ele><time>2026-05-01T15:51:54Z</time></trkpt><trkpt lat="42.43389742591472" lon="14.156136300159464"><ele>52.666666666666664</ele><time>2026-05-01T15:51:55Z</time></trkpt><trkpt lat="42.434046991602386" lon="14.156024975321955"><ele>53.33333333333333</ele><time>2026-05-01T15:51:56Z</time></trkpt><trkpt lat="42.434193546339735" lon="14.155914518040452"><ele>54.0</ele><time>2026-05-01T15:51:57Z</time></trkpt><trkpt lat="42.434340620495625" lon="14.155803525259897"><ele>54.33333333333333</ele><time>2026-05-01T15:51:58Z</time></trkpt><trkpt lat="42.43448693477053" lon="14.1556974766203"><ele>54.666666666666664</ele><time>2026-05-01T15:51:59Z</time></trkpt><trkpt lat="42.434634504549635" lon="14.155588407339684"><ele>55.0</ele><time>2026-05-01T15:52:00Z</time></trkpt><trkpt lat="42.43477647801798" lon="14.155479251731366"><ele>56.33333333333333</ele><time>2026-05-01T15:52:01Z</time></trkpt><trkpt lat="42.43492116427047" lon="14.155365822240311"><ele>57.66666666666667</ele><time>2026-05-01T15:52:02Z</time></trkpt><trkpt lat="42.43506045663963" lon="14.155259581545456"><ele>59.0</ele><time>2026-05-01T15:52:03Z</time></trkpt><trkpt lat="42.43520978675756" lon="14.155152662788854"><ele>59.0</ele><time>2026-05-01T15:52:04Z</time></trkpt><trkpt lat="42.435350932324795" lon="14.15504968691011"><ele>59.0</ele><time>2026-05-01T15:52:05Z</time></trkpt><trkpt lat="42.43549277105541" lon="14.15494073026419"><ele>59.0</ele><time>2026-05-01T15:52:06Z</time></trkpt><trkpt lat="42.43563890828344" lon="14.154828350168497"><ele>60.333333333333336</ele><time>2026-05-01T15:52:07Z</time></trkpt><trkpt lat="42.43578374686377" lon="14.154718817820426"><ele>61.66666666666667</ele><time>2026-05-01T15:52:08Z</time></trkpt><trkpt lat="42.43592972352674" lon="14.154607558525745"><ele>63.0</ele><time>2026-05-01T15:52:09Z</time></trkpt><trkpt lat="42.43607216441579" lon="14.154492937847174"><ele>63.0</ele><time>2026-05-01T15:52:10Z</time></trkpt><trkpt lat="42.436212650097346" lon="14.154376865050128"><ele>63.0</ele><time>2026-05-01T15:52:11Z</time></trkpt><trkpt lat="42.43634949499105" lon="14.154262290447921"><ele>63.0</ele><time>2026-05-01T15:52:12Z</time></trkpt><trkpt lat="42.43648777175604" lon="14.154149508259021"><ele>65.33333333333333</ele><time>2026-05-01T15:52:13Z</time></trkpt><trkpt lat="42.43662317907817" lon="14.154033059759769"><ele>67.66666666666666</ele><time>2026-05-01T15:52:14Z</time></trkpt><trkpt lat="42.436754163727095" lon="14.153916512488863"><ele>70.0</ele><time>2026-05-01T15:52:15Z</time></trkpt><trkpt lat="42.436882388557954" lon="14.15379866919568"><ele>70.0</ele><time>2026-05-01T15:52:16Z</time></trkpt><trkpt lat="42.4370134167406" lon="14.153683099712477"><ele>70.0</ele><time>2026-05-01T15:52:17Z</time></trkpt><trkpt lat="42.43714585226663" lon="14.153568244999693"><ele>70.0</ele><time>2026-05-01T15:52:18Z</time></trkpt><trkpt lat="42.43727945875754" lon="14.153462726381056"><ele>69.66666666666666</ele><time>2026-05-01T15:52:19Z</time></trkpt><trkpt lat="42.43742042385506" lon="14.153368369990153"><ele>69.33333333333333</ele><time>2026-05-01T15:52:20Z</time></trkpt><trkpt lat="42.43756564652536" lon="14.15330179104317"><ele>69.0</ele><time>2026-05-01T15:52:21Z</time></trkpt><trkpt lat="42.437717978296966" lon="14.153257104926366"><ele>69.0</ele><time>2026-05-01T15:52:22Z</time></trkpt><trkpt lat="42.4378757457503" lon="14.153214745548103"><ele>69.0</ele><time>2026-05-01T15:52:23Z</time></trkpt><trkpt lat="42.43803544478128" lon="14.153173611553683"><ele>69.0</ele><time>2026-05-01T15:52:24Z</time></trkpt><trkpt lat="42.43819788362525" lon="14.153112744369732"><ele>67.0</ele><time>2026-05-01T15:52:25Z</time></trkpt><trkpt lat="42.43834905750939" lon="14.153029408624416"><ele>65.0</ele><time>2026-05-01T15:52:26Z</time></trkpt><trkpt lat="42.43847990373525" lon="14.152923896347854"><ele>63.0</ele><time>2026-05-01T15:52:27Z</time></trkpt><trkpt lat="42.43860493279184" lon="14.152806113187564"><ele>63.0</ele><time>2026-05-01T15:52:28Z</time></trkpt><trkpt lat="42.43873085140903" lon="14.152669082657594"><ele>63.0</ele><time>2026-05-01T15:52:29Z</time></trkpt><trkpt lat="42.438847723568465" lon="14.152516873530857"><ele>63.0</ele><time>2026-05-01T15:52:30Z</time></trkpt><trkpt lat="42.43896167127723" lon="14.152352348929178"><ele>66.33333333333333</ele><time>2026-05-01T15:52:31Z</time></trkpt><trkpt lat="42.43907148452467" lon="14.152184085511184"><ele>69.66666666666666</ele><time>2026-05-01T15:52:32Z</time></trkpt><trkpt lat="42.4391768601261" lon="14.152022638078709"><ele>73.0</ele><time>2026-05-01T15:52:33Z</time></trkpt><trkpt lat="42.439283960553986" lon="14.151870201920401"><ele>73.0</ele><time>2026-05-01T15:52:34Z</time></trkpt><trkpt lat="42.43938900462656" lon="14.151746684514627"><ele>73.0</ele><time>2026-05-01T15:52:35Z</time></trkpt><trkpt lat="42.439494618402975" lon="14.151651412688995"><ele>73.0</ele><time>2026-05-01T15:52:36Z</time></trkpt><trkpt lat="42.43959351117933" lon="14.151584400809751"><ele>73.0</ele><time>2026-05-01T15:52:37Z</time></trkpt><trkpt lat="42.439690838248836" lon="14.151530056163311"><ele>73.75</ele><time>2026-05-01T15:52:38Z</time></trkpt><trkpt lat="42.439792380484725" lon="14.151481257695048"><ele>74.5</ele><time>2026-05-01T15:52:39Z</time></trkpt><trkpt lat="42.43990479361787" lon="14.151430836266995"><ele>75.25</ele><time>2026-05-01T15:52:40Z</time></trkpt><trkpt lat="42.44002517228364" lon="14.151378788742807"><ele>76.0</ele><time>2026-05-01T15:52:41Z</time></trkpt><trkpt lat="42.44015220701527" lon="14.151316641511233"><ele>76.0</ele><time>2026-05-01T15:52:42Z</time></trkpt><trkpt lat="42.44027976668974" lon="14.151241367287083"><ele>76.0</ele><time>2026-05-01T15:52:43Z</time></trkpt><trkpt lat="42.44040852860386" lon="14.151147055598859"><ele>76.0</ele><time>2026-05-01T15:52:44Z</time></trkpt><trkpt lat="42.440542549211" lon="14.151040427965144"><ele>76.0</ele><time>2026-05-01T15:52:45Z</time></trkpt><trkpt lat="42.44067546827188" lon="14.150938648554789"><ele>79.0</ele><time>2026-05-01T15:52:46Z</time></trkpt><trkpt lat="42.44081206083973" lon="14.150857147181636"><ele>82.0</ele><time>2026-05-01T15:52:47Z</time></trkpt><trkpt lat="42.440955550458014" lon="14.15081250950004"><ele>85.0</ele><time>2026-05-01T15:52:48Z</time></trkpt><trkpt lat="42.441090422009054" lon="14.150803254913104"><ele>88.0</ele><time>2026-05-01T15:52:49Z</time></trkpt><trkpt lat="42.44121463178928" lon="14.150818814437484"><ele>88.75</ele><time>2026-05-01T15:52:50Z</time></trkpt><trkpt lat="42.441323407473604" lon="14.15087865172497"><ele>89.5</ele><time>2026-05-01T15:52:51Z</time></trkpt><trkpt lat="42.44143852675122" lon="14.150900273111104"><ele>90.25</ele><time>2026-05-01T15:52:52Z</time></trkpt><trkpt lat="42.4415518301103" lon="14.150947888283005"><ele>91.0</ele><time>2026-05-01T15:52:53Z</time></trkpt><trkpt lat="42.441672162416495" lon="14.150976608673771"><ele>91.0</ele><time>2026-05-01T15:52:54Z</time></trkpt><trkpt lat="42.44179705913904" lon="14.15098486505882"><ele>91.0</ele><time>2026-05-01T15:52:55Z</time></trkpt><trkpt lat="42.4419250157205" lon="14.15096637524649"><ele>91.0</ele><time>2026-05-01T15:52:56Z</time></trkpt><trkpt lat="42.44205163248133" lon="14.150912277944405"><ele>91.0</ele><time>2026-05-01T15:52:57Z</time></trkpt><trkpt lat="42.442169429577895" lon="14.150841631223077"><ele>91.6</ele><time>2026-05-01T15:52:58Z</time></trkpt><trkpt lat="42.44226333391329" lon="14.150755149620231"><ele>92.19999999999999</ele><time>2026-05-01T15:52:59Z</time></trkpt><trkpt lat="42.44233622587386" lon="14.15065489853765"><ele>92.80000000000001</ele><time>2026-05-01T15:53:00Z</time></trkpt><trkpt lat="42.4423797280013" lon="14.150539166812132"><ele>93.4</ele><time>2026-05-01T15:53:01Z</time></trkpt><trkpt lat="42.44240646036402" lon="14.150408914874154"><ele>94.0</ele><time>2026-05-01T15:53:02Z</time></trkpt><trkpt lat="42.44243010589106" lon="14.150275864886106"><ele>94.0</ele><time>2026-05-01T15:53:03Z</time></trkpt><trkpt lat="42.442454952317306" lon="14.150141739402407"><ele>94.0</ele><time>2026-05-01T15:53:04Z</time></trkpt><trkpt lat="42.44248476361113" lon="14.150007445836899"><ele>94.0</ele><time>2026-05-01T15:53:05Z</time></trkpt><trkpt lat="42.442517338842286" lon="14.149872834241298"><ele>94.0</ele><time>2026-05-01T15:53:06Z</time></trkpt><trkpt lat="42.44254951985677" lon="14.1497336451353"><ele>94.0</ele><time>2026-05-01T15:53:07Z</time></trkpt><trkpt lat="42.44258472278698" lon="14.149594618959773"><ele>95.0</ele><time>2026-05-01T15:53:08Z</time></trkpt><trkpt lat="42.44262783901822" lon="14.14944332921947"><ele>96.0</ele><time>2026-05-01T15:53:09Z</time></trkpt><trkpt lat="42.44268114649674" lon="14.149271453330027"><ele>97.0</ele><time>2026-05-01T15:53:10Z</time></trkpt><trkpt lat="42.44274767847158" lon="14.149080880598838"><ele>98.0</ele><time>2026-05-01T15:53:11Z</time></trkpt><trkpt lat="42.442828780137454" lon="14.148879052328454"><ele>100.0</ele><time>2026-05-01T15:53:12Z</time></trkpt><trkpt lat="42.44293257192489" lon="14.148679973655552"><ele>102.0</ele><time>2026-05-01T15:53:13Z</time></trkpt><trkpt lat="42.44306478099089" lon="14.148475026407423"><ele>104.0</ele><time>2026-05-01T15:53:14Z</time></trkpt><trkpt lat="42.443202531255714" lon="14.148273060409347"><ele>109.0</ele><time>2026-05-01T15:53:15Z</time></trkpt><trkpt lat="42.44333026720357" lon="14.148096795838084"><ele>114.0</ele><time>2026-05-01T15:53:16Z</time></trkpt><trkpt lat="42.443460140335176" lon="14.147922752889919"><ele>119.0</ele><time>2026-05-01T15:53:17Z</time></trkpt><trkpt lat="42.443583138052475" lon="14.147759990730371"><ele>119.0</ele><time>2026-05-01T15:53:18Z</time></trkpt><trkpt lat="42.443705504067985" lon="14.147631742748212"><ele>119.0</ele><time>2026-05-01T15:53:19Z</time></trkpt><trkpt lat="42.44384370696498" lon="14.147542789639312"><ele>119.0</ele><time>2026-05-01T15:53:20Z</time></trkpt><trkpt lat="42.444007603281456" lon="14.147480349567907"><ele>117.75</ele><time>2026-05-01T15:53:21Z</time></trkpt><trkpt lat="42.44417374689202" lon="14.147442676632258"><ele>116.5</ele><time>2026-05-01T15:53:22Z</time></trkpt><trkpt lat="42.44430977300557" lon="14.147398839652233"><ele>115.25</ele><time>2026-05-01T15:53:23Z</time></trkpt><trkpt lat="42.44442029651648" lon="14.147322624204048"><ele>114.0</ele><time>2026-05-01T15:53:24Z</time></trkpt><trkpt lat="42.444493858237976" lon="14.147222489778848"><ele>115.4</ele><time>2026-05-01T15:53:25Z</time></trkpt><trkpt lat="42.44453765724912" lon="14.147111700209463"><ele>116.80000000000001</ele><time>2026-05-01T15:53:26Z</time></trkpt><trkpt lat="42.44456937571506" lon="14.147015467109178"><ele>118.19999999999999</ele><time>2026-05-01T15:53:27Z</time></trkpt><trkpt lat="42.44459517069839" lon="14.146870647275364"><ele>119.6</ele><time>2026-05-01T15:53:29Z</time></trkpt><trkpt lat="42.444715185235125" lon="14.146748201809714"><ele>121.0</ele><time>2026-05-01T15:53:31Z</time></trkpt><trkpt lat="42.44477121732617" lon="14.146681035213838"><ele>121.0</ele><time>2026-05-01T15:53:32Z</time></trkpt><trkpt lat="42.44482876183206" lon="14.14658993954467"><ele>121.0</ele><time>2026-05-01T15:53:33Z</time></trkpt><trkpt lat="42.44489034570847" lon="14.146476252056754"><ele>121.0</ele><time>2026-05-01T15:53:34Z</time></trkpt><trkpt lat="42.444956948138476" lon="14.146352774925148"><ele>121.0</ele><time>2026-05-01T15:53:35Z</time></trkpt><trkpt lat="42.445025856159056" lon="14.146227140210343"><ele>121.0</ele><time>2026-05-01T15:53:36Z</time></trkpt><trkpt lat="42.4450868198208" lon="14.146116544693685"><ele>122.0</ele><time>2026-05-01T15:53:37Z</time></trkpt><trkpt lat="42.445150511261446" lon="14.146003640833104"><ele>123.0</ele><time>2026-05-01T15:53:38Z</time></trkpt><trkpt lat="42.445217387397776" lon="14.145889260488353"><ele>124.0</ele><time>2026-05-01T15:53:39Z</time></trkpt><trkpt lat="42.44528808502141" lon="14.145770283962845"><ele>125.0</ele><time>2026-05-01T15:53:40Z</time></trkpt><trkpt lat="42.44535295101371" lon="14.145658427406866"><ele>126.0</ele><time>2026-05-01T15:53:41Z</time></trkpt><trkpt lat="42.44541432686117" lon="14.145547004049613"><ele>124.5</ele><time>2026-05-01T15:53:42Z</time></trkpt><trkpt lat="42.44549058782455" lon="14.145435656398842"><ele>123.0</ele><time>2026-05-01T15:53:43Z</time></trkpt><trkpt lat="42.445585108998415" lon="14.145329333523568"><ele>121.5</ele><time>2026-05-01T15:53:44Z</time></trkpt><trkpt lat="42.44568947644188" lon="14.145225979272158"><ele>120.0</ele><time>2026-05-01T15:53:45Z</time></trkpt><trkpt lat="42.44579939154194" lon="14.145123002698039"><ele>120.0</ele><time>2026-05-01T15:53:46Z</time></trkpt><trkpt lat="42.44591232368408" lon="14.14502787316851"><ele>120.0</ele><time>2026-05-01T15:53:47Z</time></trkpt><trkpt lat="42.446025602280386" lon="14.144944340616544"><ele>120.0</ele><time>2026-05-01T15:53:48Z</time></trkpt><trkpt lat="42.44613901047948" lon="14.144870680883823"><ele>120.0</ele><time>2026-05-01T15:53:49Z</time></trkpt><trkpt lat="42.44625803608735" lon="14.144800585746696"><ele>120.25</ele><time>2026-05-01T15:53:50Z</time></trkpt><trkpt lat="42.44637933581806" lon="14.144744889922789"><ele>120.5</ele><time>2026-05-01T15:53:51Z</time></trkpt><trkpt lat="42.44650772485808" lon="14.144700195667076"><ele>120.75</ele><time>2026-05-01T15:53:52Z</time></trkpt><trkpt lat="42.44663856432289" lon="14.144665293308696"><ele>121.0</ele><time>2026-05-01T15:53:53Z</time></trkpt><trkpt lat="42.44677225294061" lon="14.144630259261133"><ele>121.0</ele><time>2026-05-01T15:53:54Z</time></trkpt><trkpt lat="42.44690931491387" lon="14.14459209107631"><ele>121.0</ele><time>2026-05-01T15:53:55Z</time></trkpt><trkpt lat="42.447042826699885" lon="14.144555341377298"><ele>121.0</ele><time>2026-05-01T15:53:56Z</time></trkpt><trkpt lat="42.447169842388554" lon="14.14452339508418"><ele>121.0</ele><time>2026-05-01T15:53:57Z</time></trkpt><trkpt lat="42.44728352021929" lon="14.144511351024287"><ele>122.0</ele><time>2026-05-01T15:53:58Z</time></trkpt><trkpt lat="42.44738146133169" lon="14.14453716934704"><ele>123.0</ele><time>2026-05-01T15:53:59Z</time></trkpt><trkpt lat="42.447463697739764" lon="14.144594562785022"><ele>124.0</ele><time>2026-05-01T15:54:00Z</time></trkpt><trkpt lat="42.447527750872794" lon="14.144678305824327"><ele>125.0</ele><time>2026-05-01T15:54:01Z</time></trkpt><trkpt lat="42.44755963216775" lon="14.144788128264686"><ele>126.0</ele><time>2026-05-01T15:54:02Z</time></trkpt><trkpt lat="42.44756488962968" lon="14.144917958565996"><ele>126.25</ele><time>2026-05-01T15:54:03Z</time></trkpt><trkpt lat="42.447569729108196" lon="14.14506885309895"><ele>126.5</ele><time>2026-05-01T15:54:04Z</time></trkpt><trkpt lat="42.44757387198097" lon="14.145236993110577"><ele>126.75</ele><time>2026-05-01T15:54:05Z</time></trkpt><trkpt lat="42.44757900015391" lon="14.145413818479842"><ele>127.0</ele><time>2026-05-01T15:54:06Z</time></trkpt><trkpt lat="42.44759380534938" lon="14.145580713443529"><ele>127.39999999999999</ele><time>2026-05-01T15:54:07Z</time></trkpt><trkpt lat="42.44762066113448" lon="14.145714442988325"><ele>127.79999999999998</ele><time>2026-05-01T15:54:08Z</time></trkpt><trkpt lat="42.4476678612093" lon="14.145839187250504"><ele>128.2</ele><time>2026-05-01T15:54:09Z</time></trkpt><trkpt lat="42.447731331253756" lon="14.145952996974215"><ele>128.6</ele><time>2026-05-01T15:54:10Z</time></trkpt><trkpt lat="42.447816030045495" lon="14.146054915262928"><ele>129.0</ele><time>2026-05-01T15:54:11Z</time></trkpt><trkpt lat="42.447912940058046" lon="14.146149111647825"><ele>132.25</ele><time>2026-05-01T15:54:12Z</time></trkpt><trkpt lat="42.44802189684473" lon="14.146236787164243"><ele>135.5</ele><time>2026-05-01T15:54:13Z</time></trkpt><trkpt lat="42.44814362906071" lon="14.146311833401302"><ele>138.75</ele><time>2026-05-01T15:54:14Z</time></trkpt><trkpt lat="42.44827218240564" lon="14.146370571590252"><ele>142.0</ele><time>2026-05-01T15:54:15Z</time></trkpt><trkpt lat="42.44840405715039" lon="14.146419334621772"><ele>142.0</ele><time>2026-05-01T15:54:16Z</time></trkpt><trkpt lat="42.448532159712485" lon="14.146445755415453"><ele>142.0</ele><time>2026-05-01T15:54:17Z</time></trkpt><trkpt lat="42.44865519870481" lon="14.146454591922254"><ele>142.0</ele><time>2026-05-01T15:54:18Z</time></trkpt><trkpt lat="42.44877293281319" lon="14.146442278791504"><ele>142.0</ele><time>2026-05-01T15:54:19Z</time></trkpt><trkpt lat="42.44888155953951" lon="14.146405243203981"><ele>142.5</ele><time>2026-05-01T15:54:20Z</time></trkpt><trkpt lat="42.448982581215475" lon="14.146344329446887"><ele>143.0</ele><time>2026-05-01T15:54:21Z</time></trkpt><trkpt lat="42.44907552096422" lon="14.146258517621408"><ele>143.5</ele><time>2026-05-01T15:54:22Z</time></trkpt><trkpt lat="42.44915736523099" lon="14.146151780649319"><ele>144.0</ele><time>2026-05-01T15:54:23Z</time></trkpt><trkpt lat="42.44923396802498" lon="14.14602527906294"><ele>144.0</ele><time>2026-05-01T15:54:24Z</time></trkpt><trkpt lat="42.449308087525274" lon="14.145886126418128"><ele>144.0</ele><time>2026-05-01T15:54:25Z</time></trkpt><trkpt lat="42.4493866504773" lon="14.145739644509376"><ele>144.0</ele><time>2026-05-01T15:54:26Z</time></trkpt><trkpt lat="42.44946971282588" lon="14.145593742779656"><ele>144.0</ele><time>2026-05-01T15:54:27Z</time></trkpt><trkpt lat="42.44955185855156" lon="14.145444691847155"><ele>142.0</ele><time>2026-05-01T15:54:28Z</time></trkpt><trkpt lat="42.44962567116698" lon="14.145294118851512"><ele>140.0</ele><time>2026-05-01T15:54:29Z</time></trkpt><trkpt lat="42.44968144749874" lon="14.145155197052546"><ele>138.0</ele><time>2026-05-01T15:54:30Z</time></trkpt><trkpt lat="42.449731855631526" lon="14.145024784621047"><ele>136.0</ele><time>2026-05-01T15:54:31Z</time></trkpt><trkpt lat="42.449779153773086" lon="14.144889549296837"><ele>137.5</ele><time>2026-05-01T15:54:32Z</time></trkpt><trkpt lat="42.449827623360854" lon="14.144746032673051"><ele>139.0</ele><time>2026-05-01T15:54:33Z</time></trkpt><trkpt lat="42.4498702290561" lon="14.144592797444853"><ele>140.5</ele><time>2026-05-01T15:54:34Z</time></trkpt><trkpt lat="42.44990555756743" lon="14.144427777842044"><ele>142.0</ele><time>2026-05-01T15:54:35Z</time></trkpt><trkpt lat="42.44993310985788" lon="14.144252080910952"><ele>142.0</ele><time>2026-05-01T15:54:36Z</time></trkpt><trkpt lat="42.4499450339524" lon="14.144069795088537"><ele>142.0</ele><time>2026-05-01T15:54:37Z</time></trkpt><trkpt lat="42.4499446028801" lon="14.143886373747467"><ele>142.0</ele><time>2026-05-01T15:54:38Z</time></trkpt><trkpt lat="42.44993625967984" lon="14.143710939652138"><ele>142.0</ele><time>2026-05-01T15:54:39Z</time></trkpt><trkpt lat="42.449923297300565" lon="14.143539392488217"><ele>141.0</ele><time>2026-05-01T15:54:40Z</time></trkpt><trkpt lat="42.44991115342498" lon="14.143373205824073"><ele>140.0</ele><time>2026-05-01T15:54:41Z</time></trkpt><trkpt lat="42.449895748825874" lon="14.143209077476508"><ele>139.0</ele><time>2026-05-01T15:54:42Z</time></trkpt><trkpt lat="42.44986848841538" lon="14.143052602330796"><ele>138.0</ele><time>2026-05-01T15:54:43Z</time></trkpt><trkpt lat="42.449830143203116" lon="14.142905106910376"><ele>137.8</ele><time>2026-05-01T15:54:44Z</time></trkpt><trkpt lat="42.449786129446274" lon="14.142764641018179"><ele>137.60000000000002</ele><time>2026-05-01T15:54:45Z</time></trkpt><trkpt lat="42.44974217285431" lon="14.142635467200922"><ele>137.39999999999998</ele><time>2026-05-01T15:54:46Z</time></trkpt><trkpt lat="42.44969946920275" lon="14.142513920231911"><ele>137.2</ele><time>2026-05-01T15:54:47Z</time></trkpt><trkpt lat="42.449660369398714" lon="14.142402244217124"><ele>137.0</ele><time>2026-05-01T15:54:48Z</time></trkpt><trkpt lat="42.449622439725474" lon="14.14229803875477"><ele>137.5</ele><time>2026-05-01T15:54:49Z</time></trkpt><trkpt lat="42.4495836454166" lon="14.142192820194046"><ele>138.0</ele><time>2026-05-01T15:54:50Z</time></trkpt><trkpt lat="42.44955341811566" lon="14.14207645653159"><ele>138.5</ele><time>2026-05-01T15:54:51Z</time></trkpt><trkpt lat="42.44955133557955" lon="14.141956418407426"><ele>139.0</ele><time>2026-05-01T15:54:52Z</time></trkpt><trkpt lat="42.44958002413099" lon="14.141844683981343"><ele>139.5</ele><time>2026-05-01T15:54:53Z</time></trkpt><trkpt lat="42.449639370430454" lon="14.141748973220583"><ele>140.0</ele><time>2026-05-01T15:54:54Z</time></trkpt><trkpt lat="42.44972412957697" lon="14.141674585268177"><ele>140.0</ele><time>2026-05-01T15:54:55Z</time></trkpt><trkpt lat="42.44982631599532" lon="14.141598656605778"><ele>140.0</ele><time>2026-05-01T15:54:56Z</time></trkpt><trkpt lat="42.44993810039636" lon="14.141521256937217"><ele>140.0</ele><time>2026-05-01T15:54:57Z</time></trkpt><trkpt lat="42.450060493708285" lon="14.14144919391575"><ele>140.0</ele><time>2026-05-01T15:54:58Z</time></trkpt><trkpt lat="42.45018565303276" lon="14.14138821511376"><ele>141.0</ele><time>2026-05-01T15:54:59Z</time></trkpt><trkpt lat="42.45029924405299" lon="14.141347806149463"><ele>142.0</ele><time>2026-05-01T15:55:00Z</time></trkpt><trkpt lat="42.450393602375634" lon="14.141315893195198"><ele>143.0</ele><time>2026-05-01T15:55:01Z</time></trkpt><trkpt lat="42.450463805015254" lon="14.141283812274173"><ele>144.0</ele><time>2026-05-01T15:55:02Z</time></trkpt><trkpt lat="42.45053244363076" lon="14.141241702754229"><ele>145.0</ele><time>2026-05-01T15:55:03Z</time></trkpt><trkpt lat="42.450645280440206" lon="14.141188429469434"><ele>146.66666666666669</ele><time>2026-05-01T15:55:04Z</time></trkpt><trkpt lat="42.450800717841275" lon="14.141159561435739"><ele>148.33333333333334</ele><time>2026-05-01T15:55:05Z</time></trkpt><trkpt lat="42.450951098857686" lon="14.141090814425235"><ele>150.0</ele><time>2026-05-01T15:55:06Z</time></trkpt><trkpt lat="42.451121771342706" lon="14.141044654433546"><ele>150.0</ele><time>2026-05-01T15:55:07Z</time></trkpt><trkpt lat="42.451290271988036" lon="14.140989801790917"><ele>150.0</ele><time>2026-05-01T15:55:08Z</time></trkpt><trkpt lat="42.45142940548723" lon="14.140947309592047"><ele>150.0</ele><time>2026-05-01T15:55:09Z</time></trkpt><trkpt lat="42.45154510193383" lon="14.140917597715049"><ele>150.0</ele><time>2026-05-01T15:55:10Z</time></trkpt><trkpt lat="42.451644696475825" lon="14.140893090985339"><ele>150.2</ele><time>2026-05-01T15:55:11Z</time></trkpt><trkpt lat="42.451736565614375" lon="14.140896044282325"><ele>150.4</ele><time>2026-05-01T15:55:12Z</time></trkpt><trkpt lat="42.451834386271926" lon="14.140879961201898"><ele>150.6</ele><time>2026-05-01T15:55:13Z</time></trkpt><trkpt lat="42.45192761958072" lon="14.140841624274541"><ele>150.8</ele><time>2026-05-01T15:55:14Z</time></trkpt><trkpt lat="42.45202231877123" lon="14.14082075367829"><ele>151.0</ele><time>2026-05-01T15:55:15Z</time></trkpt><trkpt lat="42.45212427754411" lon="14.14080119002427"><ele>151.0</ele><time>2026-05-01T15:55:16Z</time></trkpt><trkpt lat="42.45222774578065" lon="14.140781434424769"><ele>151.0</ele><time>2026-05-01T15:55:17Z</time></trkpt><trkpt lat="42.452333698657114" lon="14.140757528077115"><ele>151.0</ele><time>2026-05-01T15:55:18Z</time></trkpt><trkpt lat="42.452444887406756" lon="14.140737475077431"><ele>151.0</ele><time>2026-05-01T15:55:19Z</time></trkpt><trkpt lat="42.4525572675801" lon="14.140715244577203"><ele>151.0</ele><time>2026-05-01T15:55:20Z</time></trkpt><trkpt lat="42.45267385742643" lon="14.140690687969387"><ele>151.16666666666669</ele><time>2026-05-01T15:55:21Z</time></trkpt><trkpt lat="42.45278105890283" lon="14.140664377299872"><ele>151.33333333333334</ele><time>2026-05-01T15:55:22Z</time></trkpt><trkpt lat="42.45287635683707" lon="14.14064263150699"><ele>151.5</ele><time>2026-05-01T15:55:23Z</time></trkpt><trkpt lat="42.45294170058176" lon="14.140625250695091"><ele>151.66666666666666</ele><time>2026-05-01T15:55:24Z</time></trkpt><trkpt lat="42.45301728711823" lon="14.14060743180557"><ele>151.83333333333331</ele><time>2026-05-01T15:55:27Z</time></trkpt><trkpt lat="42.45308136903692" lon="14.140602960237686"><ele>152.0</ele><time>2026-05-01T15:55:31Z</time></trkpt><trkpt lat="42.45319836200784" lon="14.140518154575085"><ele>154.83333333333331</ele><time>2026-05-01T15:55:33Z</time></trkpt><trkpt lat="42.45327010996001" lon="14.140461237822398"><ele>157.66666666666666</ele><time>2026-05-01T15:55:34Z</time></trkpt><trkpt lat="42.453349952918934" lon="14.140406624365811"><ele>160.5</ele><time>2026-05-01T15:55:35Z</time></trkpt><trkpt lat="42.453427413722295" lon="14.14035956171769"><ele>163.33333333333334</ele><time>2026-05-01T15:55:36Z</time></trkpt><trkpt lat="42.45350680807952" lon="14.140317072062679"><ele>166.16666666666669</ele><time>2026-05-01T15:55:37Z</time></trkpt><trkpt lat="42.453593150731635" lon="14.14026800273921"><ele>169.0</ele><time>2026-05-01T15:55:38Z</time></trkpt><trkpt lat="42.4536819666926" lon="14.140215965952331"><ele>169.0</ele><time>2026-05-01T15:55:39Z</time></trkpt><trkpt lat="42.453771156799924" lon="14.140157523102465"><ele>169.0</ele><time>2026-05-01T15:55:40Z</time></trkpt><trkpt lat="42.453852231623834" lon="14.140074058235966"><ele>169.0</ele><time>2026-05-01T15:55:41Z</time></trkpt><trkpt lat="42.453921211191535" lon="14.139974346237537"><ele>169.0</ele><time>2026-05-01T15:55:42Z</time></trkpt><trkpt lat="42.45397640774521" lon="14.139866203062237"><ele>169.0</ele><time>2026-05-01T15:55:43Z</time></trkpt><trkpt lat="42.45402902323296" lon="14.139755614301649"><ele>170.0</ele><time>2026-05-01T15:55:44Z</time></trkpt><trkpt lat="42.454084170864625" lon="14.13964495691158"><ele>171.0</ele><time>2026-05-01T15:55:45Z</time></trkpt><trkpt lat="42.454143639000264" lon="14.139534917008271"><ele>172.0</ele><time>2026-05-01T15:55:46Z</time></trkpt><trkpt lat="42.45419901185164" lon="14.139423398680433"><ele>173.0</ele><time>2026-05-01T15:55:47Z</time></trkpt><trkpt lat="42.4542576068371" lon="14.139310327290668"><ele>174.0</ele><time>2026-05-01T15:55:48Z</time></trkpt><trkpt lat="42.45432092219276" lon="14.139191248794987"><ele>171.75</ele><time>2026-05-01T15:55:49Z</time></trkpt><trkpt lat="42.45439749092836" lon="14.139047326673863"><ele>169.5</ele><time>2026-05-01T15:55:50Z</time></trkpt><trkpt lat="42.454471933644655" lon="14.138910597789229"><ele>167.25</ele><time>2026-05-01T15:55:51Z</time></trkpt><trkpt lat="42.454544196559006" lon="14.13878699987318"><ele>165.0</ele><time>2026-05-01T15:55:52Z</time></trkpt><trkpt lat="42.454607765095496" lon="14.138692395495651"><ele>166.0</ele><time>2026-05-01T15:55:53Z</time></trkpt><trkpt lat="42.454662734176374" lon="14.138613293873126"><ele>167.0</ele><time>2026-05-01T15:55:54Z</time></trkpt><trkpt lat="42.454716577919584" lon="14.138538798530025"><ele>168.0</ele><time>2026-05-01T15:55:55Z</time></trkpt><trkpt lat="42.45476811053844" lon="14.138475844677709"><ele>169.0</ele><time>2026-05-01T15:55:56Z</time></trkpt><trkpt lat="42.45486949081969" lon="14.138263186422598"><ele>170.0</ele><time>2026-05-01T15:55:57Z</time></trkpt><trkpt lat="42.45493719318173" lon="14.138151698307343"><ele>170.0</ele><time>2026-05-01T15:55:58Z</time></trkpt><trkpt lat="42.455003265145095" lon="14.138023407724376"><ele>170.0</ele><time>2026-05-01T15:55:59Z</time></trkpt><trkpt lat="42.45505570956106" lon="14.137871368965083"><ele>170.0</ele><time>2026-05-01T15:56:00Z</time></trkpt><trkpt lat="42.45507976406193" lon="14.137721680045983"><ele>170.0</ele><time>2026-05-01T15:56:01Z</time></trkpt><trkpt lat="42.45507999762303" lon="14.137597789483264"><ele>170.0</ele><time>2026-05-01T15:56:02Z</time></trkpt><trkpt lat="42.45507565397383" lon="14.137477723836676"><ele>170.5</ele><time>2026-05-01T15:56:03Z</time></trkpt><trkpt lat="42.45507464603002" lon="14.137380718491158"><ele>171.0</ele><time>2026-05-01T15:56:04Z</time></trkpt><trkpt lat="42.455065684796686" lon="14.137295302388766"><ele>171.5</ele><time>2026-05-01T15:56:05Z</time></trkpt><trkpt lat="42.455059958992216" lon="14.137144137811935"><ele>172.0</ele><time>2026-05-01T15:56:07Z</time></trkpt><trkpt lat="42.45504882390862" lon="14.137008337028046"><ele>172.5</ele><time>2026-05-01T15:56:09Z</time></trkpt><trkpt lat="42.45504015973885" lon="14.13688658154086"><ele>173.0</ele><time>2026-05-01T15:56:11Z</time></trkpt><trkpt lat="42.45503864340795" lon="14.136741967549403"><ele>173.0</ele><time>2026-05-01T15:56:13Z</time></trkpt><trkpt lat="42.45504936840026" lon="14.13658617121443"><ele>173.0</ele><time>2026-05-01T15:56:15Z</time></trkpt><trkpt lat="42.45506932914662" lon="14.136455631727074"><ele>173.0</ele><time>2026-05-01T15:56:17Z</time></trkpt><trkpt lat="42.455176841041805" lon="14.136411342246056"><ele>173.0</ele><time>2026-05-01T15:56:19Z</time></trkpt><trkpt lat="42.45524534344713" lon="14.136385447908316"><ele>173.0</ele><time>2026-05-01T15:56:20Z</time></trkpt><trkpt lat="42.45533896990422" lon="14.136349402624406"><ele>174.4</ele><time>2026-05-01T15:56:21Z</time></trkpt><trkpt lat="42.45541969609167" lon="14.136316049061568"><ele>175.8</ele><time>2026-05-01T15:56:22Z</time></trkpt><trkpt lat="42.45550124463193" lon="14.136265506773523"><ele>177.2</ele><time>2026-05-01T15:56:23Z</time></trkpt><trkpt lat="42.455571012824926" lon="14.136220587011298"><ele>178.6</ele><time>2026-05-01T15:56:24Z</time></trkpt><trkpt lat="42.45567854801395" lon="14.136134033067892"><ele>180.0</ele><time>2026-05-01T15:56:26Z</time></trkpt><trkpt lat="42.455755049994025" lon="14.136086496414547"><ele>180.0</ele><time>2026-05-01T15:56:27Z</time></trkpt><trkpt lat="42.455840538419864" lon="14.136026478413564"><ele>180.0</ele><time>2026-05-01T15:56:28Z</time></trkpt><trkpt lat="42.45591152719504" lon="14.13596162545675"><ele>180.0</ele><time>2026-05-01T15:56:29Z</time></trkpt><trkpt lat="42.455981364521136" lon="14.135889279468069"><ele>180.0</ele><time>2026-05-01T15:56:30Z</time></trkpt><trkpt lat="42.4560473314579" lon="14.135806860268646"><ele>180.0</ele><time>2026-05-01T15:56:31Z</time></trkpt><trkpt lat="42.45608940749161" lon="14.135725410521417"><ele>180.0</ele><time>2026-05-01T15:56:32Z</time></trkpt><trkpt lat="42.456124494139665" lon="14.135635158422994"><ele>184.66666666666669</ele><time>2026-05-01T15:56:33Z</time></trkpt><trkpt lat="42.45618855117894" lon="14.13549897021574"><ele>189.33333333333334</ele><time>2026-05-01T15:56:34Z</time></trkpt><trkpt lat="42.456256902165464" lon="14.135291190758576"><ele>194.0</ele><time>2026-05-01T15:56:35Z</time></trkpt><trkpt lat="42.456321789316746" lon="14.135080542409169"><ele>185.33333333333334</ele><time>2026-05-01T15:56:36Z</time></trkpt><trkpt lat="42.45638586941959" lon="14.134871680589402"><ele>176.66666666666669</ele><time>2026-05-01T15:56:37Z</time></trkpt><trkpt lat="42.45643767353678" lon="14.1346544568234"><ele>168.0</ele><time>2026-05-01T15:56:38Z</time></trkpt><trkpt lat="42.45651665963522" lon="14.13444713679851"><ele>168.0</ele><time>2026-05-01T15:56:39Z</time></trkpt><trkpt lat="42.456582180952815" lon="14.134249703469546"><ele>168.0</ele><time>2026-05-01T15:56:40Z</time></trkpt><trkpt lat="42.4566353237413" lon="14.134060791876209"><ele>168.0</ele><time>2026-05-01T15:56:41Z</time></trkpt><trkpt lat="42.4566849672926" lon="14.13387204000757"><ele>168.0</ele><time>2026-05-01T15:56:42Z</time></trkpt><trkpt lat="42.456729388975255" lon="14.133686751124387"><ele>168.0</ele><time>2026-05-01T15:56:43Z</time></trkpt><trkpt lat="42.45676332146903" lon="14.13350958091102"><ele>168.0</ele><time>2026-05-01T15:56:44Z</time></trkpt><trkpt lat="42.45678303149149" lon="14.133341008660386"><ele>168.0</ele><time>2026-05-01T15:56:45Z</time></trkpt><trkpt lat="42.456799773860396" lon="14.133170455746574"><ele>167.5</ele><time>2026-05-01T15:56:46Z</time></trkpt><trkpt lat="42.456820635325165" lon="14.132999654173881"><ele>167.0</ele><time>2026-05-01T15:56:47Z</time></trkpt><trkpt lat="42.456844958719955" lon="14.13282977054117"><ele>166.5</ele><time>2026-05-01T15:56:48Z</time></trkpt><trkpt lat="42.45687653408884" lon="14.132663118418169"><ele>166.0</ele><time>2026-05-01T15:56:49Z</time></trkpt><trkpt lat="42.45691782661705" lon="14.132495493358189"><ele>166.0</ele><time>2026-05-01T15:56:50Z</time></trkpt><trkpt lat="42.45697232339122" lon="14.13233241157233"><ele>166.0</ele><time>2026-05-01T15:56:51Z</time></trkpt><trkpt lat="42.45703863969209" lon="14.132160503804776"><ele>166.0</ele><time>2026-05-01T15:56:52Z</time></trkpt><trkpt lat="42.45710724141783" lon="14.131987510861222"><ele>166.0</ele><time>2026-05-01T15:56:53Z</time></trkpt><trkpt lat="42.45718414447619" lon="14.131808516004332"><ele>164.0</ele><time>2026-05-01T15:56:54Z</time></trkpt><trkpt lat="42.457259019168596" lon="14.131628763828681"><ele>162.0</ele><time>2026-05-01T15:56:55Z</time></trkpt><trkpt lat="42.45733363394993" lon="14.131437258200167"><ele>160.0</ele><time>2026-05-01T15:56:56Z</time></trkpt><trkpt lat="42.45740691178069" lon="14.13125757210314"><ele>160.0</ele><time>2026-05-01T15:56:57Z</time></trkpt><trkpt lat="42.457487329081616" lon="14.131074247798928"><ele>160.0</ele><time>2026-05-01T15:56:58Z</time></trkpt><trkpt lat="42.45757405196663" lon="14.130910677306142"><ele>160.0</ele><time>2026-05-01T15:56:59Z</time></trkpt><trkpt lat="42.45767533053864" lon="14.130738886888013"><ele>160.33333333333334</ele><time>2026-05-01T15:57:00Z</time></trkpt><trkpt lat="42.45778134218039" lon="14.130586103453123"><ele>160.66666666666666</ele><time>2026-05-01T15:57:01Z</time></trkpt><trkpt lat="42.45790543078647" lon="14.130440547209286"><ele>161.0</ele><time>2026-05-01T15:57:02Z</time></trkpt><trkpt lat="42.45803068983931" lon="14.130316671454848"><ele>160.75</ele><time>2026-05-01T15:57:03Z</time></trkpt><trkpt lat="42.45815724093203" lon="14.130195612700653"><ele>160.5</ele><time>2026-05-01T15:57:04Z</time></trkpt><trkpt lat="42.45826666506333" lon="14.130072132927545"><ele>160.25</ele><time>2026-05-01T15:57:05Z</time></trkpt><trkpt lat="42.45836245059882" lon="14.129947618214665"><ele>160.0</ele><time>2026-05-01T15:57:06Z</time></trkpt><trkpt lat="42.45845324461821" lon="14.129805678555124"><ele>160.0</ele><time>2026-05-01T15:57:07Z</time></trkpt><trkpt lat="42.458536858952286" lon="14.129633337454973"><ele>160.0</ele><time>2026-05-01T15:57:08Z</time></trkpt><trkpt lat="42.45860701097647" lon="14.129449587712573"><ele>160.0</ele><time>2026-05-01T15:57:09Z</time></trkpt><trkpt lat="42.45866825899675" lon="14.129253319549603"><ele>158.75</ele><time>2026-05-01T15:57:10Z</time></trkpt><trkpt lat="42.45871487889082" lon="14.1290547469998"><ele>157.5</ele><time>2026-05-01T15:57:11Z</time></trkpt><trkpt lat="42.45873847244578" lon="14.128867542738469"><ele>156.25</ele><time>2026-05-01T15:57:12Z</time></trkpt><trkpt lat="42.45873844740339" lon="14.128682438200967"><ele>155.0</ele><time>2026-05-01T15:57:13Z</time></trkpt><trkpt lat="42.45871578639578" lon="14.12850474906217"><ele>155.0</ele><time>2026-05-01T15:57:14Z</time></trkpt><trkpt lat="42.45866895143843" lon="14.128330140088684"><ele>155.0</ele><time>2026-05-01T15:57:15Z</time></trkpt><trkpt lat="42.45861265870603" lon="14.128151885798585"><ele>155.0</ele><time>2026-05-01T15:57:16Z</time></trkpt><trkpt lat="42.45854424840173" lon="14.127974183556816"><ele>155.0</ele><time>2026-05-01T15:57:17Z</time></trkpt><trkpt lat="42.45846928612089" lon="14.127800902154545"><ele>157.0</ele><time>2026-05-01T15:57:18Z</time></trkpt><trkpt lat="42.45839753837251" lon="14.127620701960426"><ele>159.0</ele><time>2026-05-01T15:57:19Z</time></trkpt><trkpt lat="42.45833644897793" lon="14.127448683353672"><ele>161.0</ele><time>2026-05-01T15:57:20Z</time></trkpt><trkpt lat="42.45826691618815" lon="14.127306343528186"><ele>163.0</ele><time>2026-05-01T15:57:21Z</time></trkpt><trkpt lat="42.458179345715386" lon="14.127198924037728"><ele>161.25</ele><time>2026-05-01T15:57:22Z</time></trkpt><trkpt lat="42.45806479474276" lon="14.1271097228"><ele>159.5</ele><time>2026-05-01T15:57:23Z</time></trkpt><trkpt lat="42.457958339571725" lon="14.126985578320584"><ele>157.75</ele><time>2026-05-01T15:57:24Z</time></trkpt><trkpt lat="42.45786543231951" lon="14.126830300061654"><ele>156.0</ele><time>2026-05-01T15:57:25Z</time></trkpt><trkpt lat="42.457775056965296" lon="14.126657059065929"><ele>158.75</ele><time>2026-05-01T15:57:26Z</time></trkpt><trkpt lat="42.45767469848952" lon="14.126494336603631"><ele>161.5</ele><time>2026-05-01T15:57:27Z</time></trkpt><trkpt lat="42.45760551836678" lon="14.126337470675848"><ele>164.25</ele><time>2026-05-01T15:57:28Z</time></trkpt><trkpt lat="42.45752954672816" lon="14.126196944603565"><ele>167.0</ele><time>2026-05-01T15:57:29Z</time></trkpt><trkpt lat="42.4574590364875" lon="14.12605196749513"><ele>167.0</ele><time>2026-05-01T15:57:30Z</time></trkpt><trkpt lat="42.457400740918466" lon="14.125914574712592"><ele>167.0</ele><time>2026-05-01T15:57:31Z</time></trkpt><trkpt lat="42.4573488653218" lon="14.125778586894926"><ele>167.0</ele><time>2026-05-01T15:57:32Z</time></trkpt><trkpt lat="42.45731048692168" lon="14.125630797839083"><ele>167.0</ele><time>2026-05-01T15:57:33Z</time></trkpt><trkpt lat="42.45727803834547" lon="14.12546743532469"><ele>168.0</ele><time>2026-05-01T15:57:34Z</time></trkpt><trkpt lat="42.45725063874809" lon="14.125295815924531"><ele>169.0</ele><time>2026-05-01T15:57:35Z</time></trkpt><trkpt lat="42.457232846227114" lon="14.125118475085591"><ele>170.0</ele><time>2026-05-01T15:57:36Z</time></trkpt><trkpt lat="42.45723071368806" lon="14.124936041369986"><ele>171.0</ele><time>2026-05-01T15:57:37Z</time></trkpt><trkpt lat="42.45724068608472" lon="14.124743622410948"><ele>171.0</ele><time>2026-05-01T15:57:38Z</time></trkpt><trkpt lat="42.45726307612737" lon="14.124556660340275"><ele>171.0</ele><time>2026-05-01T15:57:39Z</time></trkpt><trkpt lat="42.45729804882395" lon="14.124364519729669"><ele>171.0</ele><time>2026-05-01T15:57:40Z</time></trkpt><trkpt lat="42.45734278210876" lon="14.124162233399652"><ele>171.0</ele><time>2026-05-01T15:57:41Z</time></trkpt><trkpt lat="42.45739361597792" lon="14.123966448048455"><ele>168.66666666666666</ele><time>2026-05-01T15:57:42Z</time></trkpt><trkpt lat="42.45744522218868" lon="14.123765883005689"><ele>166.33333333333331</ele><time>2026-05-01T15:57:43Z</time></trkpt><trkpt lat="42.45751038441655" lon="14.123548051698615"><ele>164.0</ele><time>2026-05-01T15:57:44Z</time></trkpt><trkpt lat="42.457572454346916" lon="14.123337844857096"><ele>163.5</ele><time>2026-05-01T15:57:45Z</time></trkpt><trkpt lat="42.45763492393563" lon="14.123143233480365"><ele>163.0</ele><time>2026-05-01T15:57:46Z</time></trkpt><trkpt lat="42.457688166913634" lon="14.12296290613701"><ele>162.5</ele><time>2026-05-01T15:57:47Z</time></trkpt><trkpt lat="42.45773773275429" lon="14.122787061013863"><ele>162.0</ele><time>2026-05-01T15:57:48Z</time></trkpt><trkpt lat="42.45779559591127" lon="14.122595706555696"><ele>162.0</ele><time>2026-05-01T15:57:49Z</time></trkpt><trkpt lat="42.457860046795574" lon="14.12240302176839"><ele>162.0</ele><time>2026-05-01T15:57:50Z</time></trkpt><trkpt lat="42.45792775551174" lon="14.122235288938032"><ele>162.0</ele><time>2026-05-01T15:57:51Z</time></trkpt><trkpt lat="42.458002764772836" lon="14.122088308056965"><ele>162.0</ele><time>2026-05-01T15:57:52Z</time></trkpt><trkpt lat="42.45809035829229" lon="14.121945787172242"><ele>161.75</ele><time>2026-05-01T15:57:53Z</time></trkpt><trkpt lat="42.45819272440077" lon="14.12181139320043"><ele>161.5</ele><time>2026-05-01T15:57:54Z</time></trkpt><trkpt lat="42.45830650735854" lon="14.12168864973788"><ele>161.25</ele><time>2026-05-01T15:57:55Z</time></trkpt><trkpt lat="42.45842658938516" lon="14.12157007294222"><ele>161.0</ele><time>2026-05-01T15:57:56Z</time></trkpt><trkpt lat="42.458546366130314" lon="14.121446603638496"><ele>161.0</ele><time>2026-05-01T15:57:57Z</time></trkpt><trkpt lat="42.45866567942464" lon="14.121321009889527"><ele>161.0</ele><time>2026-05-01T15:57:58Z</time></trkpt><trkpt lat="42.4587825732667" lon="14.121193244026658"><ele>161.0</ele><time>2026-05-01T15:57:59Z</time></trkpt><trkpt lat="42.45889409620027" lon="14.121076369120496"><ele>161.0</ele><time>2026-05-01T15:58:00Z</time></trkpt><trkpt lat="42.4590058920096" lon="14.12095592677253"><ele>160.75</ele><time>2026-05-01T15:58:01Z</time></trkpt><trkpt lat="42.45911155304495" lon="14.120842193735403"><ele>160.5</ele><time>2026-05-01T15:58:02Z</time></trkpt><trkpt lat="42.45920832939073" lon="14.120740583738268"><ele>160.25</ele><time>2026-05-01T15:58:03Z</time></trkpt><trkpt lat="42.45929754466047" lon="14.120649363269694"><ele>160.0</ele><time>2026-05-01T15:58:04Z</time></trkpt><trkpt lat="42.45938532019457" lon="14.120560146659908"><ele>160.0</ele><time>2026-05-01T15:58:05Z</time></trkpt><trkpt lat="42.459469413487575" lon="14.12047453140098"><ele>160.0</ele><time>2026-05-01T15:58:06Z</time></trkpt><trkpt lat="42.459551307806684" lon="14.120393410377044"><ele>160.0</ele><time>2026-05-01T15:58:07Z</time></trkpt><trkpt lat="42.459626496456416" lon="14.120317254384679"><ele>160.0</ele><time>2026-05-01T15:58:08Z</time></trkpt><trkpt lat="42.45969821908337" lon="14.120244079093967"><ele>160.0</ele><time>2026-05-01T15:58:09Z</time></trkpt><trkpt lat="42.45976704621029" lon="14.120176645799399"><ele>160.0</ele><time>2026-05-01T15:58:10Z</time></trkpt><trkpt lat="42.45984199198126" lon="14.120110473973089"><ele>160.0</ele><time>2026-05-01T15:58:11Z</time></trkpt><trkpt lat="42.45993071601584" lon="14.120061592125554"><ele>160.0</ele><time>2026-05-01T15:58:12Z</time></trkpt><trkpt lat="42.46002783739008" lon="14.120040753451303"><ele>160.0</ele><time>2026-05-01T15:58:13Z</time></trkpt><trkpt lat="42.4601301003404" lon="14.120025761070524"><ele>160.0</ele><time>2026-05-01T15:58:14Z</time></trkpt><trkpt lat="42.460231577190314" lon="14.120009285776307"><ele>160.0</ele><time>2026-05-01T15:58:15Z</time></trkpt><trkpt lat="42.46033164026952" lon="14.12002306339248"><ele>160.0</ele><time>2026-05-01T15:58:16Z</time></trkpt><trkpt lat="42.460425829435714" lon="14.120064065365588"><ele>160.0</ele><time>2026-05-01T15:58:17Z</time></trkpt><trkpt lat="42.460518995514086" lon="14.12011337457945"><ele>160.0</ele><time>2026-05-01T15:58:18Z</time></trkpt><trkpt lat="42.46062284290965" lon="14.120158097123971"><ele>160.0</ele><time>2026-05-01T15:58:19Z</time></trkpt><trkpt lat="42.46072864746753" lon="14.120199779195532"><ele>160.5</ele><time>2026-05-01T15:58:20Z</time></trkpt><trkpt lat="42.46083833827332" lon="14.120233720677831"><ele>161.0</ele><time>2026-05-01T15:58:21Z</time></trkpt><trkpt lat="42.46096096552733" lon="14.120261505634183"><ele>161.5</ele><time>2026-05-01T15:58:22Z</time></trkpt><trkpt lat="42.46108020370955" lon="14.120292256284685"><ele>162.0</ele><time>2026-05-01T15:58:23Z</time></trkpt><trkpt lat="42.46120650099405" lon="14.120328619503626"><ele>163.75</ele><time>2026-05-01T15:58:24Z</time></trkpt><trkpt lat="42.46133488842736" lon="14.12038436276431"><ele>165.5</ele><time>2026-05-01T15:58:25Z</time></trkpt><trkpt lat="42.4614583849887" lon="14.120458454441279"><ele>167.25</ele><time>2026-05-01T15:58:26Z</time></trkpt><trkpt lat="42.461571677506086" lon="14.120547019410711"><ele>169.0</ele><time>2026-05-01T15:58:27Z</time></trkpt><trkpt lat="42.46169274644184" lon="14.120647952226763"><ele>168.0</ele><time>2026-05-01T15:58:28Z</time></trkpt><trkpt lat="42.46181850678251" lon="14.120748292744576"><ele>167.0</ele><time>2026-05-01T15:58:29Z</time></trkpt><trkpt lat="42.46196611444022" lon="14.120846493573984"><ele>166.0</ele><time>2026-05-01T15:58:30Z</time></trkpt><trkpt lat="42.46213571537973" lon="14.120973710381113"><ele>166.0</ele><time>2026-05-01T15:58:31Z</time></trkpt><trkpt lat="42.46229787947896" lon="14.121089600944673"><ele>166.0</ele><time>2026-05-01T15:58:32Z</time></trkpt><trkpt lat="42.46243850295659" lon="14.121205880775467"><ele>166.0</ele><time>2026-05-01T15:58:33Z</time></trkpt><trkpt lat="42.4625781035494" lon="14.121309342800352"><ele>166.0</ele><time>2026-05-01T15:58:34Z</time></trkpt><trkpt lat="42.462718419425556" lon="14.121405352570267"><ele>166.0</ele><time>2026-05-01T15:58:35Z</time></trkpt><trkpt lat="42.462850967250404" lon="14.121499058984266"><ele>166.0</ele><time>2026-05-01T15:58:36Z</time></trkpt><trkpt lat="42.46298058698522" lon="14.12159522106606"><ele>163.25</ele><time>2026-05-01T15:58:37Z</time></trkpt><trkpt lat="42.46310887264765" lon="14.121690819171217"><ele>160.5</ele><time>2026-05-01T15:58:38Z</time></trkpt><trkpt lat="42.46323247083308" lon="14.121781337514813"><ele>157.75</ele><time>2026-05-01T15:58:39Z</time></trkpt><trkpt lat="42.46335206955698" lon="14.12186422736029"><ele>155.0</ele><time>2026-05-01T15:58:40Z</time></trkpt><trkpt lat="42.46346435180322" lon="14.121944666827863"><ele>155.0</ele><time>2026-05-01T15:58:41Z</time></trkpt><trkpt lat="42.463569813616104" lon="14.122025571695064"><ele>155.0</ele><time>2026-05-01T15:58:42Z</time></trkpt><trkpt lat="42.46367694476226" lon="14.12210901251567"><ele>155.0</ele><time>2026-05-01T15:58:43Z</time></trkpt><trkpt lat="42.46377763436864" lon="14.122194168590408"><ele>155.0</ele><time>2026-05-01T15:58:44Z</time></trkpt><trkpt lat="42.4638723853572" lon="14.122298734603369"><ele>153.5</ele><time>2026-05-01T15:58:45Z</time></trkpt><trkpt lat="42.46396132864216" lon="14.122436266072192"><ele>152.0</ele><time>2026-05-01T15:58:46Z</time></trkpt><trkpt lat="42.46404856596284" lon="14.122604306629814"><ele>150.5</ele><time>2026-05-01T15:58:47Z</time></trkpt><trkpt lat="42.46413427999696" lon="14.122789159494001"><ele>149.0</ele><time>2026-05-01T15:58:48Z</time></trkpt><trkpt lat="42.46421257620254" lon="14.122981998171808"><ele>149.0</ele><time>2026-05-01T15:58:49Z</time></trkpt><trkpt lat="42.464277259659276" lon="14.123177257932598"><ele>149.0</ele><time>2026-05-01T15:58:50Z</time></trkpt><trkpt lat="42.464314193521915" lon="14.123387271518526"><ele>149.0</ele><time>2026-05-01T15:58:51Z</time></trkpt><trkpt lat="42.46436271722575" lon="14.123587030812748"><ele>149.0</ele><time>2026-05-01T15:58:52Z</time></trkpt><trkpt lat="42.46442842265927" lon="14.123770341313369"><ele>149.0</ele><time>2026-05-01T15:58:53Z</time></trkpt><trkpt lat="42.46448384506588" lon="14.123947042906497"><ele>149.0</ele><time>2026-05-01T15:58:54Z</time></trkpt><trkpt lat="42.46454979199467" lon="14.124101377212913"><ele>149.0</ele><time>2026-05-01T15:58:55Z</time></trkpt><trkpt lat="42.464630109116655" lon="14.124234143020145"><ele>147.0</ele><time>2026-05-01T15:58:56Z</time></trkpt><trkpt lat="42.46471877053424" lon="14.12434862884824"><ele>145.0</ele><time>2026-05-01T15:58:57Z</time></trkpt><trkpt lat="42.464811718545775" lon="14.124458777883726"><ele>143.0</ele><time>2026-05-01T15:58:58Z</time></trkpt><trkpt lat="42.46491206063575" lon="14.124574992895417"><ele>141.0</ele><time>2026-05-01T15:58:59Z</time></trkpt><trkpt lat="42.46500420008957" lon="14.124729637528212"><ele>143.33333333333334</ele><time>2026-05-01T15:59:00Z</time></trkpt><trkpt lat="42.46510015143858" lon="14.124896797188926"><ele>145.66666666666669</ele><time>2026-05-01T15:59:01Z</time></trkpt><trkpt lat="42.46520150335427" lon="14.125090868513944"><ele>148.0</ele><time>2026-05-01T15:59:02Z</time></trkpt><trkpt lat="42.465306731353266" lon="14.12528198775666"><ele>148.0</ele><time>2026-05-01T15:59:03Z</time></trkpt><trkpt lat="42.46541756064276" lon="14.125450722197897"><ele>148.0</ele><time>2026-05-01T15:59:04Z</time></trkpt><trkpt lat="42.46553164037259" lon="14.12560515335368"><ele>148.0</ele><time>2026-05-01T15:59:05Z</time></trkpt><trkpt lat="42.46564636612553" lon="14.12575223594096"><ele>146.33333333333334</ele><time>2026-05-01T15:59:06Z</time></trkpt><trkpt lat="42.465773044492614" lon="14.125892371418619"><ele>144.66666666666666</ele><time>2026-05-01T15:59:07Z</time></trkpt><trkpt lat="42.46590071279126" lon="14.126004060910768"><ele>143.0</ele><time>2026-05-01T15:59:08Z</time></trkpt><trkpt lat="42.46603191008377" lon="14.126086097742375"><ele>143.0</ele><time>2026-05-01T15:59:09Z</time></trkpt><trkpt lat="42.46616755988479" lon="14.126127574659925"><ele>143.0</ele><time>2026-05-01T15:59:10Z</time></trkpt><trkpt lat="42.466311869141" lon="14.126140976400842"><ele>143.0</ele><time>2026-05-01T15:59:11Z</time></trkpt><trkpt lat="42.46645135889296" lon="14.126153506618785"><ele>143.0</ele><time>2026-05-01T15:59:12Z</time></trkpt><trkpt lat="42.46658265257952" lon="14.126183453376292"><ele>142.0</ele><time>2026-05-01T15:59:13Z</time></trkpt><trkpt lat="42.466699886520345" lon="14.126238217419251"><ele>141.0</ele><time>2026-05-01T15:59:14Z</time></trkpt><trkpt lat="42.46677781572684" lon="14.126362587566236"><ele>140.0</ele><time>2026-05-01T15:59:15Z</time></trkpt><trkpt lat="42.46684849302306" lon="14.126493791774577"><ele>139.0</ele><time>2026-05-01T15:59:16Z</time></trkpt><trkpt lat="42.46694067882453" lon="14.126645730563027"><ele>139.0</ele><time>2026-05-01T15:59:17Z</time></trkpt><trkpt lat="42.46702581048325" lon="14.126831240128798"><ele>139.0</ele><time>2026-05-01T15:59:18Z</time></trkpt><trkpt lat="42.467119846199154" lon="14.127026888903453"><ele>139.0</ele><time>2026-05-01T15:59:19Z</time></trkpt><trkpt lat="42.46721101616116" lon="14.127224118338528"><ele>141.0</ele><time>2026-05-01T15:59:20Z</time></trkpt><trkpt lat="42.46730127935583" lon="14.127419945486812"><ele>143.0</ele><time>2026-05-01T15:59:21Z</time></trkpt><trkpt lat="42.46737856493418" lon="14.127616894703959"><ele>145.0</ele><time>2026-05-01T15:59:22Z</time></trkpt><trkpt lat="42.46744956310124" lon="14.127815423198463"><ele>145.0</ele><time>2026-05-01T15:59:23Z</time></trkpt><trkpt lat="42.46751321346611" lon="14.127996814872434"><ele>145.0</ele><time>2026-05-01T15:59:24Z</time></trkpt><trkpt lat="42.46757557317675" lon="14.128178514305278"><ele>145.0</ele><time>2026-05-01T15:59:25Z</time></trkpt><trkpt lat="42.46763778172866" lon="14.128350467330208"><ele>145.0</ele><time>2026-05-01T15:59:26Z</time></trkpt><trkpt lat="42.46770067935014" lon="14.128499608947916"><ele>145.5</ele><time>2026-05-01T15:59:27Z</time></trkpt><trkpt lat="42.467773370942794" lon="14.128619221620205"><ele>146.0</ele><time>2026-05-01T15:59:28Z</time></trkpt><trkpt lat="42.4678618405792" lon="14.128713008016222"><ele>146.5</ele><time>2026-05-01T15:59:29Z</time></trkpt><trkpt lat="42.467964126328795" lon="14.128787152061003"><ele>147.0</ele><time>2026-05-01T15:59:30Z</time></trkpt><trkpt lat="42.4680849922075" lon="14.128834306772324"><ele>149.5</ele><time>2026-05-01T15:59:31Z</time></trkpt><trkpt lat="42.46821140434995" lon="14.12887528035823"><ele>152.0</ele><time>2026-05-01T15:59:32Z</time></trkpt><trkpt lat="42.468344287819576" lon="14.128921036160893"><ele>154.5</ele><time>2026-05-01T15:59:33Z</time></trkpt><trkpt lat="42.468490177325755" lon="14.128966201124207"><ele>157.0</ele><time>2026-05-01T15:59:34Z</time></trkpt><trkpt lat="42.46864508313955" lon="14.129020858316524"><ele>154.66666666666669</ele><time>2026-05-01T15:59:35Z</time></trkpt><trkpt lat="42.468799969185255" lon="14.129074154980032"><ele>152.33333333333334</ele><time>2026-05-01T15:59:36Z</time></trkpt><trkpt lat="42.46895593483708" lon="14.12912853400553"><ele>150.0</ele><time>2026-05-01T15:59:37Z</time></trkpt><trkpt lat="42.469095167929325" lon="14.129181172272578"><ele>150.0</ele><time>2026-05-01T15:59:38Z</time></trkpt><trkpt lat="42.469227064428225" lon="14.1292383561604"><ele>150.0</ele><time>2026-05-01T15:59:39Z</time></trkpt><trkpt lat="42.46936238981515" lon="14.129321038845806"><ele>150.0</ele><time>2026-05-01T15:59:40Z</time></trkpt><trkpt lat="42.469492009160334" lon="14.129437705221148"><ele>150.0</ele><time>2026-05-01T15:59:41Z</time></trkpt><trkpt lat="42.46961798376552" lon="14.129576965599965"><ele>150.0</ele><time>2026-05-01T15:59:42Z</time></trkpt><trkpt lat="42.469738347727954" lon="14.129719908313513"><ele>150.0</ele><time>2026-05-01T15:59:43Z</time></trkpt><trkpt lat="42.46985897832125" lon="14.129868517222228"><ele>150.0</ele><time>2026-05-01T15:59:44Z</time></trkpt><trkpt lat="42.469977787487814" lon="14.13001485532861"><ele>150.0</ele><time>2026-05-01T15:59:45Z</time></trkpt><trkpt lat="42.470098833001195" lon="14.13015519629661"><ele>150.0</ele><time>2026-05-01T15:59:46Z</time></trkpt><trkpt lat="42.47021859113593" lon="14.130295785101536"><ele>150.0</ele><time>2026-05-01T15:59:47Z</time></trkpt><trkpt lat="42.47033799552767" lon="14.130442871981241"><ele>148.0</ele><time>2026-05-01T15:59:48Z</time></trkpt><trkpt lat="42.47045514868555" lon="14.130588938204097"><ele>146.0</ele><time>2026-05-01T15:59:49Z</time></trkpt><trkpt lat="42.47057626581429" lon="14.130738177036124"><ele>144.0</ele><time>2026-05-01T15:59:50Z</time></trkpt><trkpt lat="42.47070051525151" lon="14.130891001975767"><ele>144.0</ele><time>2026-05-01T15:59:51Z</time></trkpt><trkpt lat="42.47082359352342" lon="14.13104211012076"><ele>144.0</ele><time>2026-05-01T15:59:52Z</time></trkpt><trkpt lat="42.47094184749445" lon="14.131190149796218"><ele>144.0</ele><time>2026-05-01T15:59:53Z</time></trkpt><trkpt lat="42.47105786480228" lon="14.131333068034959"><ele>144.0</ele><time>2026-05-01T15:59:54Z</time></trkpt><trkpt lat="42.471170588742034" lon="14.131473821172023"><ele>144.0</ele><time>2026-05-01T15:59:55Z</time></trkpt><trkpt lat="42.47128495073547" lon="14.131616026432509"><ele>144.0</ele><time>2026-05-01T15:59:56Z</time></trkpt><trkpt lat="42.47138784475148" lon="14.13175093138722"><ele>143.5</ele><time>2026-05-01T15:59:57Z</time></trkpt><trkpt lat="42.471467442177925" lon="14.131885909463536"><ele>143.0</ele><time>2026-05-01T15:59:58Z</time></trkpt><trkpt lat="42.471524537196956" lon="14.132043396513387"><ele>142.5</ele><time>2026-05-01T15:59:59Z</time></trkpt><trkpt lat="42.47152909368962" lon="14.132238159667112"><ele>142.0</ele><time>2026-05-01T16:00:00Z</time></trkpt><trkpt lat="42.47153506565629" lon="14.132419676488343"><ele>143.5</ele><time>2026-05-01T16:00:01Z</time></trkpt><trkpt lat="42.47154976012042" lon="14.13258327855104"><ele>145.0</ele><time>2026-05-01T16:00:02Z</time></trkpt><trkpt lat="42.47156407684282" lon="14.132754860344297"><ele>146.5</ele><time>2026-05-01T16:00:03Z</time></trkpt><trkpt lat="42.471600080611545" lon="14.132937976331766"><ele>148.0</ele><time>2026-05-01T16:00:04Z</time></trkpt><trkpt lat="42.471661707195054" lon="14.133109120848061"><ele>148.0</ele><time>2026-05-01T16:00:05Z</time></trkpt><trkpt lat="42.471742605625444" lon="14.133241122567934"><ele>148.0</ele><time>2026-05-01T16:00:06Z</time></trkpt><trkpt lat="42.47183843570909" lon="14.133333038447654"><ele>148.0</ele><time>2026-05-01T16:00:07Z</time></trkpt><trkpt lat="42.47195775154483" lon="14.133362946761569"><ele>148.0</ele><time>2026-05-01T16:00:08Z</time></trkpt><trkpt lat="42.47208409071754" lon="14.133382540220184"><ele>150.5</ele><time>2026-05-01T16:00:09Z</time></trkpt><trkpt lat="42.47221912935308" lon="14.133370070947377"><ele>153.0</ele><time>2026-05-01T16:00:10Z</time></trkpt><trkpt lat="42.47234451900844" lon="14.133367360215253"><ele>155.5</ele><time>2026-05-01T16:00:11Z</time></trkpt><trkpt lat="42.472448461699265" lon="14.13339303226654"><ele>158.0</ele><time>2026-05-01T16:00:12Z</time></trkpt><trkpt lat="42.472546156440885" lon="14.133456511873018"><ele>158.0</ele><time>2026-05-01T16:00:13Z</time></trkpt><trkpt lat="42.4726356246203" lon="14.13355433326034"><ele>158.0</ele><time>2026-05-01T16:00:14Z</time></trkpt><trkpt lat="42.47272169482202" lon="14.133677410541786"><ele>158.0</ele><time>2026-05-01T16:00:15Z</time></trkpt><trkpt lat="42.47282715475108" lon="14.133799447164353"><ele>158.0</ele><time>2026-05-01T16:00:16Z</time></trkpt><trkpt lat="42.47294498318836" lon="14.133907157200051"><ele>160.0</ele><time>2026-05-01T16:00:17Z</time></trkpt><trkpt lat="42.47307224256518" lon="14.133992144840155"><ele>162.0</ele><time>2026-05-01T16:00:18Z</time></trkpt><trkpt lat="42.47319960650174" lon="14.134068289522329"><ele>164.0</ele><time>2026-05-01T16:00:19Z</time></trkpt><trkpt lat="42.473315711337115" lon="14.134163601754981"><ele>166.0</ele><time>2026-05-01T16:00:20Z</time></trkpt><trkpt lat="42.47341656770132" lon="14.13428572696882"><ele>166.0</ele><time>2026-05-01T16:00:21Z</time></trkpt><trkpt lat="42.47349868585974" lon="14.134422918400366"><ele>166.0</ele><time>2026-05-01T16:00:22Z</time></trkpt><trkpt lat="42.47354186887286" lon="14.134570974957983"><ele>166.0</ele><time>2026-05-01T16:00:23Z</time></trkpt><trkpt lat="42.47356894376525" lon="14.134709289452259"><ele>166.0</ele><time>2026-05-01T16:00:24Z</time></trkpt><trkpt lat="42.473593681670096" lon="14.134870389632772"><ele>164.0</ele><time>2026-05-01T16:00:25Z</time></trkpt><trkpt lat="42.47362723151323" lon="14.135039717097218"><ele>162.0</ele><time>2026-05-01T16:00:26Z</time></trkpt><trkpt lat="42.47366126586867" lon="14.135194188738927"><ele>160.0</ele><time>2026-05-01T16:00:27Z</time></trkpt><trkpt lat="42.473709540636975" lon="14.135333180912092"><ele>158.0</ele><time>2026-05-01T16:00:28Z</time></trkpt><trkpt lat="42.4737836226287" lon="14.135462513852477"><ele>163.75</ele><time>2026-05-01T16:00:29Z</time></trkpt><trkpt lat="42.47388638899776" lon="14.135560023158368"><ele>169.5</ele><time>2026-05-01T16:00:30Z</time></trkpt><trkpt lat="42.47400177175438" lon="14.13560614596089"><ele>175.25</ele><time>2026-05-01T16:00:31Z</time></trkpt><trkpt lat="42.47412780703437" lon="14.135640013754273"><ele>181.0</ele><time>2026-05-01T16:00:32Z</time></trkpt><trkpt lat="42.47425592453183" lon="14.135688797005866"><ele>181.5</ele><time>2026-05-01T16:00:33Z</time></trkpt><trkpt lat="42.47438198674766" lon="14.135766321511817"><ele>182.0</ele><time>2026-05-01T16:00:34Z</time></trkpt><trkpt lat="42.47448399126166" lon="14.135900049677886"><ele>182.5</ele><time>2026-05-01T16:00:35Z</time></trkpt><trkpt lat="42.474596829059664" lon="14.135992507413942"><ele>183.0</ele><time>2026-05-01T16:00:36Z</time></trkpt><trkpt lat="42.47469168555104" lon="14.136080768236297"><ele>183.0</ele><time>2026-05-01T16:00:37Z</time></trkpt><trkpt lat="42.47480163157482" lon="14.136138431628627"><ele>183.0</ele><time>2026-05-01T16:00:38Z</time></trkpt><trkpt lat="42.474923926933926" lon="14.136176485395431"><ele>183.0</ele><time>2026-05-01T16:00:39Z</time></trkpt><trkpt lat="42.47504372025226" lon="14.13620242119855"><ele>183.0</ele><time>2026-05-01T16:00:40Z</time></trkpt><trkpt lat="42.475134657639195" lon="14.136267022206225"><ele>183.0</ele><time>2026-05-01T16:00:41Z</time></trkpt><trkpt lat="42.475211453546834" lon="14.136343903788495"><ele>183.0</ele><time>2026-05-01T16:00:42Z</time></trkpt><trkpt lat="42.475275757789255" lon="14.136464832951267"><ele>183.0</ele><time>2026-05-01T16:00:43Z</time></trkpt><trkpt lat="42.47535337356644" lon="14.136598443185632"><ele>183.0</ele><time>2026-05-01T16:00:44Z</time></trkpt><trkpt lat="42.475455600276696" lon="14.136710845942295"><ele>183.0</ele><time>2026-05-01T16:00:45Z</time></trkpt><trkpt lat="42.47557861504499" lon="14.136816203465479"><ele>183.0</ele><time>2026-05-01T16:00:46Z</time></trkpt><trkpt lat="42.47572734816288" lon="14.136907978063173"><ele>183.0</ele><time>2026-05-01T16:00:47Z</time></trkpt><trkpt lat="42.4758863372178" lon="14.136999474926675"><ele>183.0</ele><time>2026-05-01T16:00:48Z</time></trkpt><trkpt lat="42.47604473840639" lon="14.137097225505139"><ele>183.0</ele><time>2026-05-01T16:00:49Z</time></trkpt><trkpt lat="42.47619582659231" lon="14.137191962698928"><ele>183.0</ele><time>2026-05-01T16:00:50Z</time></trkpt><trkpt lat="42.476335639770085" lon="14.13727245562369"><ele>182.0</ele><time>2026-05-01T16:00:51Z</time></trkpt><trkpt lat="42.47646068135272" lon="14.13733865689681"><ele>181.0</ele><time>2026-05-01T16:00:52Z</time></trkpt><trkpt lat="42.4765866391394" lon="14.137394553623427"><ele>180.0</ele><time>2026-05-01T16:00:53Z</time></trkpt><trkpt lat="42.476719246921284" lon="14.137435110293831"><ele>179.0</ele><time>2026-05-01T16:00:54Z</time></trkpt><trkpt lat="42.47685324052902" lon="14.13745854387421"><ele>179.0</ele><time>2026-05-01T16:00:55Z</time></trkpt><trkpt lat="42.47698211184449" lon="14.137466925989264"><ele>179.0</ele><time>2026-05-01T16:00:56Z</time></trkpt><trkpt lat="42.47711192032939" lon="14.137472695788547"><ele>179.0</ele><time>2026-05-01T16:00:57Z</time></trkpt><trkpt lat="42.47724662028868" lon="14.137471841522796"><ele>179.0</ele><time>2026-05-01T16:00:58Z</time></trkpt><trkpt lat="42.47738354781342" lon="14.137459091148257"><ele>179.75</ele><time>2026-05-01T16:00:59Z</time></trkpt><trkpt lat="42.47752153150214" lon="14.137420877638188"><ele>180.5</ele><time>2026-05-01T16:01:00Z</time></trkpt><trkpt lat="42.477652290394495" lon="14.137367072362787"><ele>181.25</ele><time>2026-05-01T16:01:01Z</time></trkpt><trkpt lat="42.477772468567665" lon="14.137309898593156"><ele>182.0</ele><time>2026-05-01T16:01:02Z</time></trkpt><trkpt lat="42.477893266903976" lon="14.137260685019518"><ele>178.5</ele><time>2026-05-01T16:01:03Z</time></trkpt><trkpt lat="42.47800996442317" lon="14.137214765638225"><ele>175.0</ele><time>2026-05-01T16:01:04Z</time></trkpt><trkpt lat="42.47812276445862" lon="14.137176189227457"><ele>171.5</ele><time>2026-05-01T16:01:05Z</time></trkpt><trkpt lat="42.47823504964837" lon="14.137192976255553"><ele>168.0</ele><time>2026-05-01T16:01:06Z</time></trkpt><trkpt lat="42.47834323015197" lon="14.13722690127992"><ele>168.0</ele><time>2026-05-01T16:01:07Z</time></trkpt><trkpt lat="42.47846371116343" lon="14.137249983294764"><ele>168.0</ele><time>2026-05-01T16:01:08Z</time></trkpt><trkpt lat="42.478584456003745" lon="14.13729987125609"><ele>168.0</ele><time>2026-05-01T16:01:09Z</time></trkpt><trkpt lat="42.47870236927913" lon="14.137318302322878"><ele>168.0</ele><time>2026-05-01T16:01:10Z</time></trkpt><trkpt lat="42.478825690106774" lon="14.137287519154821"><ele>167.75</ele><time>2026-05-01T16:01:11Z</time></trkpt><trkpt lat="42.47894624198456" lon="14.137223678287949"><ele>167.5</ele><time>2026-05-01T16:01:12Z</time></trkpt><trkpt lat="42.4790586349058" lon="14.137151121243098"><ele>167.25</ele><time>2026-05-01T16:01:13Z</time></trkpt><trkpt lat="42.47916499189111" lon="14.137076808289873"><ele>167.0</ele><time>2026-05-01T16:01:14Z</time></trkpt><trkpt lat="42.47926227386589" lon="14.136985825446397"><ele>167.0</ele><time>2026-05-01T16:01:15Z</time></trkpt><trkpt lat="42.47934270280461" lon="14.136868266326385"><ele>167.0</ele><time>2026-05-01T16:01:16Z</time></trkpt><trkpt lat="42.47941417428562" lon="14.136725476978745"><ele>167.0</ele><time>2026-05-01T16:01:17Z</time></trkpt><trkpt lat="42.479487777510386" lon="14.136580287442278"><ele>167.0</ele><time>2026-05-01T16:01:18Z</time></trkpt><trkpt lat="42.47956420253735" lon="14.136450384759668"><ele>166.5</ele><time>2026-05-01T16:01:19Z</time></trkpt><trkpt lat="42.479646339329435" lon="14.136333084709957"><ele>166.0</ele><time>2026-05-01T16:01:20Z</time></trkpt><trkpt lat="42.47973500643717" lon="14.13622605421654"><ele>165.5</ele><time>2026-05-01T16:01:21Z</time></trkpt><trkpt lat="42.47982624478345" lon="14.136130160326433"><ele>165.0</ele><time>2026-05-01T16:01:22Z</time></trkpt><trkpt lat="42.47990365979476" lon="14.136013226983199"><ele>165.0</ele><time>2026-05-01T16:01:23Z</time></trkpt><trkpt lat="42.4799521776547" lon="14.13587334845355"><ele>165.0</ele><time>2026-05-01T16:01:24Z</time></trkpt><trkpt lat="42.47997743296798" lon="14.135723775207493"><ele>165.0</ele><time>2026-05-01T16:01:25Z</time></trkpt><trkpt lat="42.47999885932073" lon="14.135571337902327"><ele>165.0</ele><time>2026-05-01T16:01:26Z</time></trkpt><trkpt lat="42.48002961851462" lon="14.135423271360626"><ele>163.4</ele><time>2026-05-01T16:01:27Z</time></trkpt><trkpt lat="42.48007962673284" lon="14.135290821558172"><ele>161.8</ele><time>2026-05-01T16:01:28Z</time></trkpt><trkpt lat="42.48014701873536" lon="14.135178739694906"><ele>160.2</ele><time>2026-05-01T16:01:29Z</time></trkpt><trkpt lat="42.48022534224554" lon="14.135081037247431"><ele>158.6</ele><time>2026-05-01T16:01:30Z</time></trkpt><trkpt lat="42.480312106647446" lon="14.134984875379883"><ele>157.0</ele><time>2026-05-01T16:01:31Z</time></trkpt><trkpt lat="42.480414045093895" lon="14.134893985981568"><ele>157.2</ele><time>2026-05-01T16:01:32Z</time></trkpt><trkpt lat="42.4805189371085" lon="14.134817172650692"><ele>157.39999999999998</ele><time>2026-05-01T16:01:33Z</time></trkpt><trkpt lat="42.48062235271419" lon="14.134763990114909"><ele>157.60000000000002</ele><time>2026-05-01T16:01:34Z</time></trkpt><trkpt lat="42.48073028995542" lon="14.134755239011987"><ele>157.8</ele><time>2026-05-01T16:01:35Z</time></trkpt><trkpt lat="42.48082604835781" lon="14.134826529870908"><ele>158.0</ele><time>2026-05-01T16:01:36Z</time></trkpt><trkpt lat="42.4809065219179" lon="14.134909305744383"><ele>158.0</ele><time>2026-05-01T16:01:37Z</time></trkpt><trkpt lat="42.480997903200496" lon="14.13499084848729"><ele>158.0</ele><time>2026-05-01T16:01:38Z</time></trkpt><trkpt lat="42.48107404796899" lon="14.135112325449375"><ele>158.0</ele><time>2026-05-01T16:01:39Z</time></trkpt><trkpt lat="42.48111871574527" lon="14.135262122171746"><ele>158.0</ele><time>2026-05-01T16:01:40Z</time></trkpt><trkpt lat="42.4811671219182" lon="14.135403453095773"><ele>158.0</ele><time>2026-05-01T16:01:41Z</time></trkpt><trkpt lat="42.481228485275686" lon="14.135552954233065"><ele>158.0</ele><time>2026-05-01T16:01:42Z</time></trkpt><trkpt lat="42.48128692430364" lon="14.135731875804932"><ele>158.0</ele><time>2026-05-01T16:01:43Z</time></trkpt><trkpt lat="42.4813356069334" lon="14.13592333454533"><ele>158.0</ele><time>2026-05-01T16:01:44Z</time></trkpt><trkpt lat="42.48139256692925" lon="14.136095707743992"><ele>156.75</ele><time>2026-05-01T16:01:45Z</time></trkpt><trkpt lat="42.481462375621554" lon="14.136244486372203"><ele>155.5</ele><time>2026-05-01T16:01:46Z</time></trkpt><trkpt lat="42.481510143786" lon="14.136387690852128"><ele>154.25</ele><time>2026-05-01T16:01:47Z</time></trkpt><trkpt lat="42.481575950890196" lon="14.136495604719764"><ele>153.0</ele><time>2026-05-01T16:01:48Z</time></trkpt><trkpt lat="42.48166562977229" lon="14.136571566591579"><ele>153.0</ele><time>2026-05-01T16:01:49Z</time></trkpt><trkpt lat="42.4817778751308" lon="14.136600438697782"><ele>153.0</ele><time>2026-05-01T16:01:50Z</time></trkpt><trkpt lat="42.48189533703427" lon="14.136577801808844"><ele>153.0</ele><time>2026-05-01T16:01:51Z</time></trkpt><trkpt lat="42.481996814577826" lon="14.136506778442115"><ele>153.0</ele><time>2026-05-01T16:01:52Z</time></trkpt><trkpt lat="42.48207511415654" lon="14.136390627059495"><ele>150.25</ele><time>2026-05-01T16:01:53Z</time></trkpt><trkpt lat="42.48213892612012" lon="14.136240443595174"><ele>147.5</ele><time>2026-05-01T16:01:54Z</time></trkpt><trkpt lat="42.48218140393611" lon="14.136074473259583"><ele>144.75</ele><time>2026-05-01T16:01:55Z</time></trkpt><trkpt lat="42.48220494022669" lon="14.135899729482873"><ele>142.0</ele><time>2026-05-01T16:01:56Z</time></trkpt><trkpt lat="42.48223475153733" lon="14.135710409587706"><ele>141.25</ele><time>2026-05-01T16:01:57Z</time></trkpt><trkpt lat="42.48227392589912" lon="14.13551855341296"><ele>140.5</ele><time>2026-05-01T16:01:58Z</time></trkpt><trkpt lat="42.48231559803994" lon="14.135327821788323"><ele>139.75</ele><time>2026-05-01T16:01:59Z</time></trkpt><trkpt lat="42.48235505603639" lon="14.135131910061867"><ele>139.0</ele><time>2026-05-01T16:02:00Z</time></trkpt><trkpt lat="42.48239800231699" lon="14.134936650208674"><ele>138.5</ele><time>2026-05-01T16:02:01Z</time></trkpt><trkpt lat="42.48244071846034" lon="14.134747767402025"><ele>138.0</ele><time>2026-05-01T16:02:02Z</time></trkpt><trkpt lat="42.48248039740152" lon="14.134564360749525"><ele>137.5</ele><time>2026-05-01T16:02:03Z</time></trkpt><trkpt lat="42.482518292574575" lon="14.134390083533399"><ele>137.0</ele><time>2026-05-01T16:02:04Z</time></trkpt><trkpt lat="42.48255395159124" lon="14.134226523941415"><ele>137.0</ele><time>2026-05-01T16:02:05Z</time></trkpt><trkpt lat="42.4825880126263" lon="14.134068939133101"><ele>137.0</ele><time>2026-05-01T16:02:06Z</time></trkpt><trkpt lat="42.4826209482203" lon="14.13391651099237"><ele>137.0</ele><time>2026-05-01T16:02:07Z</time></trkpt><trkpt lat="42.482652371858094" lon="14.133766905002329"><ele>137.0</ele><time>2026-05-01T16:02:08Z</time></trkpt><trkpt lat="42.48268650172783" lon="14.133620444301584"><ele>136.2</ele><time>2026-05-01T16:02:09Z</time></trkpt><trkpt lat="42.4827313826329" lon="14.13348145978652"><ele>135.39999999999998</ele><time>2026-05-01T16:02:10Z</time></trkpt><trkpt lat="42.48279405577326" lon="14.133358873209989"><ele>134.60000000000002</ele><time>2026-05-01T16:02:11Z</time></trkpt><trkpt lat="42.482889734580205" lon="14.133285465609887"><ele>133.8</ele><time>2026-05-01T16:02:12Z</time></trkpt><trkpt lat="42.48299277299253" lon="14.133215790798195"><ele>133.0</ele><time>2026-05-01T16:02:13Z</time></trkpt><trkpt lat="42.48310991175299" lon="14.133161256009142"><ele>132.0</ele><time>2026-05-01T16:02:14Z</time></trkpt><trkpt lat="42.483242680709246" lon="14.133097633761954"><ele>131.0</ele><time>2026-05-01T16:02:15Z</time></trkpt><trkpt lat="42.48338213080748" lon="14.133024043988696"><ele>130.0</ele><time>2026-05-01T16:02:16Z</time></trkpt><trkpt lat="42.48352642245232" lon="14.13295009402781"><ele>129.0</ele><time>2026-05-01T16:02:17Z</time></trkpt><trkpt lat="42.48367271092319" lon="14.132880028814688"><ele>127.66666666666666</ele><time>2026-05-01T16:02:18Z</time></trkpt><trkpt lat="42.48381672757306" lon="14.132809600733491"><ele>126.33333333333333</ele><time>2026-05-01T16:02:19Z</time></trkpt><trkpt lat="42.4839618843835" lon="14.132738174748644"><ele>125.0</ele><time>2026-05-01T16:02:20Z</time></trkpt><trkpt lat="42.484107439156595" lon="14.132668712599521"><ele>125.0</ele><time>2026-05-01T16:02:21Z</time></trkpt><trkpt lat="42.48425284628859" lon="14.132599666236802"><ele>125.0</ele><time>2026-05-01T16:02:22Z</time></trkpt><trkpt lat="42.484389935571585" lon="14.132538472350669"><ele>125.0</ele><time>2026-05-01T16:02:23Z</time></trkpt><trkpt lat="42.484520139978876" lon="14.132479396484586"><ele>125.0</ele><time>2026-05-01T16:02:24Z</time></trkpt><trkpt lat="42.48464747040566" lon="14.132416922162863"><ele>123.5</ele><time>2026-05-01T16:02:25Z</time></trkpt><trkpt lat="42.48477120499427" lon="14.132358463332844"><ele>122.0</ele><time>2026-05-01T16:02:26Z</time></trkpt><trkpt lat="42.48488571932847" lon="14.132320820814352"><ele>120.5</ele><time>2026-05-01T16:02:27Z</time></trkpt><trkpt lat="42.48500323164665" lon="14.132305362756112"><ele>119.0</ele><time>2026-05-01T16:02:28Z</time></trkpt><trkpt lat="42.48512433299887" lon="14.13232064351746"><ele>119.0</ele><time>2026-05-01T16:02:29Z</time></trkpt><trkpt lat="42.4852452567579" lon="14.13236508676173"><ele>119.0</ele><time>2026-05-01T16:02:30Z</time></trkpt><trkpt lat="42.485355752944706" lon="14.13244109417692"><ele>119.0</ele><time>2026-05-01T16:02:31Z</time></trkpt><trkpt lat="42.48545555639892" lon="14.132544418193357"><ele>119.0</ele><time>2026-05-01T16:02:32Z</time></trkpt><trkpt lat="42.485551130169895" lon="14.132659092080674"><ele>118.75</ele><time>2026-05-01T16:02:33Z</time></trkpt><trkpt lat="42.48564524821356" lon="14.132778697244817"><ele>118.5</ele><time>2026-05-01T16:02:34Z</time></trkpt><trkpt lat="42.48574013231296" lon="14.132897193464151"><ele>118.25</ele><time>2026-05-01T16:02:35Z</time></trkpt><trkpt lat="42.48583786715877" lon="14.133014590544304"><ele>118.0</ele><time>2026-05-01T16:02:36Z</time></trkpt><trkpt lat="42.485937469291265" lon="14.133131841215523"><ele>117.75</ele><time>2026-05-01T16:02:37Z</time></trkpt><trkpt lat="42.48603706016758" lon="14.133248706372525"><ele>117.5</ele><time>2026-05-01T16:02:38Z</time></trkpt><trkpt lat="42.48613152023004" lon="14.133358365135082"><ele>117.25</ele><time>2026-05-01T16:02:39Z</time></trkpt><trkpt lat="42.486219896919565" lon="14.133461612982655"><ele>117.0</ele><time>2026-05-01T16:02:40Z</time></trkpt><trkpt lat="42.486301175477074" lon="14.133559705907766"><ele>117.0</ele><time>2026-05-01T16:02:41Z</time></trkpt><trkpt lat="42.48637856745065" lon="14.13365310882485"><ele>116.99999999999999</ele><time>2026-05-01T16:02:42Z</time></trkpt><trkpt lat="42.486459663427404" lon="14.133747597376809"><ele>116.99999999999999</ele><time>2026-05-01T16:02:43Z</time></trkpt><trkpt lat="42.48654014327135" lon="14.13384932956123"><ele>117.0</ele><time>2026-05-01T16:02:44Z</time></trkpt><trkpt lat="42.48661132344515" lon="14.133965400937818"><ele>117.0</ele><time>2026-05-01T16:02:45Z</time></trkpt><trkpt lat="42.486643331400984" lon="14.134107990280258"><ele>117.0</ele><time>2026-05-01T16:02:46Z</time></trkpt><trkpt lat="42.486674092003405" lon="14.134257524900361"><ele>117.0</ele><time>2026-05-01T16:02:47Z</time></trkpt><trkpt lat="42.486714932854305" lon="14.134426213438966"><ele>117.0</ele><time>2026-05-01T16:02:48Z</time></trkpt><trkpt lat="42.48674394865714" lon="14.134612531374158"><ele>117.0</ele><time>2026-05-01T16:02:49Z</time></trkpt><trkpt lat="42.48677805818627" lon="14.134803026527173"><ele>117.0</ele><time>2026-05-01T16:02:50Z</time></trkpt><trkpt lat="42.486809267066015" lon="14.134987994276706"><ele>117.0</ele><time>2026-05-01T16:02:51Z</time></trkpt><trkpt lat="42.48683762716096" lon="14.135163962332093"><ele>117.0</ele><time>2026-05-01T16:02:52Z</time></trkpt><trkpt lat="42.486871123649145" lon="14.135344602029363"><ele>117.0</ele><time>2026-05-01T16:02:53Z</time></trkpt><trkpt lat="42.48690892813771" lon="14.135531874838259"><ele>116.66666666666666</ele><time>2026-05-01T16:02:54Z</time></trkpt><trkpt lat="42.486953086509" lon="14.135727680044656"><ele>116.33333333333333</ele><time>2026-05-01T16:02:55Z</time></trkpt><trkpt lat="42.48701026787136" lon="14.135927774279422"><ele>116.0</ele><time>2026-05-01T16:02:56Z</time></trkpt><trkpt lat="42.48708116009249" lon="14.136129825765622"><ele>116.75</ele><time>2026-05-01T16:02:57Z</time></trkpt><trkpt lat="42.487154951175455" lon="14.136318863232898"><ele>117.5</ele><time>2026-05-01T16:02:58Z</time></trkpt><trkpt lat="42.48722188987055" lon="14.136479032748285"><ele>118.25</ele><time>2026-05-01T16:02:59Z</time></trkpt><trkpt lat="42.48727952230998" lon="14.136623556736476"><ele>119.0</ele><time>2026-05-01T16:03:00Z</time></trkpt><trkpt lat="42.487331668084366" lon="14.136763258445852"><ele>120.25</ele><time>2026-05-01T16:03:01Z</time></trkpt><trkpt lat="42.48738202475803" lon="14.136907300762665"><ele>121.5</ele><time>2026-05-01T16:03:02Z</time></trkpt><trkpt lat="42.487435174568624" lon="14.137048883899842"><ele>122.75</ele><time>2026-05-01T16:03:03Z</time></trkpt><trkpt lat="42.48748648727932" lon="14.137198261688033"><ele>124.0</ele><time>2026-05-01T16:03:04Z</time></trkpt><trkpt lat="42.48753445843594" lon="14.137354696852185"><ele>124.0</ele><time>2026-05-01T16:03:05Z</time></trkpt><trkpt lat="42.48758381964446" lon="14.137525897868901"><ele>124.0</ele><time>2026-05-01T16:03:06Z</time></trkpt><trkpt lat="42.487637309881755" lon="14.137719559377949"><ele>124.0</ele><time>2026-05-01T16:03:07Z</time></trkpt><trkpt lat="42.48763542339588" lon="14.137909137057457"><ele>124.0</ele><time>2026-05-01T16:03:08Z</time></trkpt><trkpt lat="42.48764445945654" lon="14.138087372640957"><ele>124.25</ele><time>2026-05-01T16:03:09Z</time></trkpt><trkpt lat="42.487628548409056" lon="14.138273652064617"><ele>124.5</ele><time>2026-05-01T16:03:10Z</time></trkpt><trkpt lat="42.48762515457989" lon="14.138460364265043"><ele>124.75</ele><time>2026-05-01T16:03:11Z</time></trkpt><trkpt lat="42.48764159959134" lon="14.138628851937177"><ele>125.0</ele><time>2026-05-01T16:03:12Z</time></trkpt><trkpt lat="42.48768271004925" lon="14.138786955262624"><ele>125.0</ele><time>2026-05-01T16:03:13Z</time></trkpt><trkpt lat="42.48774966929396" lon="14.138945234013008"><ele>125.0</ele><time>2026-05-01T16:03:14Z</time></trkpt><trkpt lat="42.487839472585065" lon="14.139097154067526"><ele>125.0</ele><time>2026-05-01T16:03:15Z</time></trkpt><trkpt lat="42.48794365101345" lon="14.13921843939069"><ele>125.0</ele><time>2026-05-01T16:03:16Z</time></trkpt><trkpt lat="42.488063099077074" lon="14.13930660549214"><ele>126.8</ele><time>2026-05-01T16:03:17Z</time></trkpt><trkpt lat="42.488189883133046" lon="14.139347671821191"><ele>128.6</ele><time>2026-05-01T16:03:18Z</time></trkpt><trkpt lat="42.48830153836692" lon="14.139366838150863"><ele>130.4</ele><time>2026-05-01T16:03:19Z</time></trkpt><trkpt lat="42.48839565502152" lon="14.139370924311546"><ele>132.2</ele><time>2026-05-01T16:03:20Z</time></trkpt><trkpt lat="42.488483292767356" lon="14.139368904608563"><ele>134.0</ele><time>2026-05-01T16:03:21Z</time></trkpt><trkpt lat="42.488577199979275" lon="14.139370957096268"><ele>134.0</ele><time>2026-05-01T16:03:22Z</time></trkpt><trkpt lat="42.488674424500545" lon="14.139375931120842"><ele>134.0</ele><time>2026-05-01T16:03:23Z</time></trkpt><trkpt lat="42.48877108656344" lon="14.139384677217713"><ele>134.0</ele><time>2026-05-01T16:03:24Z</time></trkpt><trkpt lat="42.488858396353415" lon="14.139394177154617"><ele>134.0</ele><time>2026-05-01T16:03:25Z</time></trkpt><trkpt lat="42.48893365748692" lon="14.139415051032598"><ele>134.0</ele><time>2026-05-01T16:03:26Z</time></trkpt><trkpt lat="42.4890041628466" lon="14.139444539990473"><ele>134.0</ele><time>2026-05-01T16:03:27Z</time></trkpt><trkpt lat="42.48906147841849" lon="14.139486807618539"><ele>134.5</ele><time>2026-05-01T16:03:28Z</time></trkpt><trkpt lat="42.489155863723276" lon="14.139584202081755"><ele>135.0</ele><time>2026-05-01T16:03:30Z</time></trkpt><trkpt lat="42.48921734184633" lon="14.13962522341471"><ele>135.5</ele><time>2026-05-01T16:03:31Z</time></trkpt><trkpt lat="42.48928238655319" lon="14.139634616916961"><ele>136.0</ele><time>2026-05-01T16:03:32Z</time></trkpt><trkpt lat="42.48934823732205" lon="14.139610754195584"><ele>136.5</ele><time>2026-05-01T16:03:33Z</time></trkpt><trkpt lat="42.48940395924668" lon="14.139561526864586"><ele>137.0</ele><time>2026-05-01T16:03:34Z</time></trkpt><trkpt lat="42.48945820700879" lon="14.139497161810063"><ele>137.0</ele><time>2026-05-01T16:03:35Z</time></trkpt><trkpt lat="42.48953714071143" lon="14.139457705193616"><ele>137.0</ele><time>2026-05-01T16:03:36Z</time></trkpt><trkpt lat="42.4896398286481" lon="14.139447362508157"><ele>137.0</ele><time>2026-05-01T16:03:37Z</time></trkpt><trkpt lat="42.489748336085476" lon="14.139456614437492"><ele>137.0</ele><time>2026-05-01T16:03:38Z</time></trkpt><trkpt lat="42.48988610910076" lon="14.139457425892742"><ele>137.0</ele><time>2026-05-01T16:03:39Z</time></trkpt><trkpt lat="42.49003757406979" lon="14.139456735603629"><ele>138.33333333333331</ele><time>2026-05-01T16:03:40Z</time></trkpt><trkpt lat="42.49018578487356" lon="14.13946360204194"><ele>139.66666666666666</ele><time>2026-05-01T16:03:41Z</time></trkpt><trkpt lat="42.49035036302524" lon="14.139469226034512"><ele>141.0</ele><time>2026-05-01T16:03:42Z</time></trkpt><trkpt lat="42.49049750211422" lon="14.139486967513028"><ele>143.0</ele><time>2026-05-01T16:03:43Z</time></trkpt><trkpt lat="42.490619989514265" lon="14.139505696132842"><ele>145.0</ele><time>2026-05-01T16:03:44Z</time></trkpt><trkpt lat="42.49072494329498" lon="14.139521839255952"><ele>147.0</ele><time>2026-05-01T16:03:45Z</time></trkpt><trkpt lat="42.490803291644355" lon="14.139571815297868"><ele>149.0</ele><time>2026-05-01T16:03:46Z</time></trkpt><trkpt lat="42.49085887449718" lon="14.139642589096978"><ele>151.0</ele><time>2026-05-01T16:03:47Z</time></trkpt><trkpt lat="42.490885740300875" lon="14.13972907212289"><ele>151.0</ele><time>2026-05-01T16:03:48Z</time></trkpt><trkpt lat="42.49088651302354" lon="14.139842685611548"><ele>151.0</ele><time>2026-05-01T16:03:49Z</time></trkpt><trkpt lat="42.49087909143783" lon="14.13997633345711"><ele>151.0</ele><time>2026-05-01T16:03:50Z</time></trkpt><trkpt lat="42.49086881960576" lon="14.140121389444325"><ele>151.0</ele><time>2026-05-01T16:03:51Z</time></trkpt><trkpt lat="42.490866031814285" lon="14.14027124943763"><ele>151.0</ele><time>2026-05-01T16:03:52Z</time></trkpt><trkpt lat="42.49086756784476" lon="14.14042112261594"><ele>151.66666666666669</ele><time>2026-05-01T16:03:53Z</time></trkpt><trkpt lat="42.49086949415973" lon="14.14057436826922"><ele>152.33333333333334</ele><time>2026-05-01T16:03:54Z</time></trkpt><trkpt lat="42.49087435773168" lon="14.140718990961325"><ele>153.0</ele><time>2026-05-01T16:03:55Z</time></trkpt><trkpt lat="42.49089330251543" lon="14.140830608783814"><ele>153.66666666666666</ele><time>2026-05-01T16:03:56Z</time></trkpt><trkpt lat="42.49094246434253" lon="14.140903293535251"><ele>154.33333333333331</ele><time>2026-05-01T16:03:57Z</time></trkpt><trkpt lat="42.49100766173789" lon="14.140924915695024"><ele>155.0</ele><time>2026-05-01T16:03:58Z</time></trkpt><trkpt lat="42.491159406390004" lon="14.140830795310848"><ele>155.0</ele><time>2026-05-01T16:04:00Z</time></trkpt><trkpt lat="42.49120520490954" lon="14.140733780352912"><ele>155.0</ele><time>2026-05-01T16:04:01Z</time></trkpt><trkpt lat="42.49123253145101" lon="14.140656132952875"><ele>155.0</ele><time>2026-05-01T16:04:02Z</time></trkpt><trkpt lat="42.491278136464906" lon="14.140548347081737"><ele>155.0</ele><time>2026-05-01T16:04:04Z</time></trkpt><trkpt lat="42.491342433189914" lon="14.140463464670363"><ele>155.0</ele><time>2026-05-01T16:04:07Z</time></trkpt><trkpt lat="42.491391278210024" lon="14.140343929624736"><ele>155.0</ele><time>2026-05-01T16:04:10Z</time></trkpt><trkpt lat="42.49145425412354" lon="14.140306634193223"><ele>156.0</ele><time>2026-05-01T16:04:12Z</time></trkpt><trkpt lat="42.49153159197166" lon="14.140343679165214"><ele>157.0</ele><time>2026-05-01T16:04:14Z</time></trkpt><trkpt lat="42.49158373906143" lon="14.140406298765672"><ele>158.0</ele><time>2026-05-01T16:04:16Z</time></trkpt><trkpt lat="42.491616014354285" lon="14.140499585132893"><ele>159.0</ele><time>2026-05-01T16:04:18Z</time></trkpt><trkpt lat="42.49165678900225" lon="14.140653127567743"><ele>160.0</ele><time>2026-05-01T16:04:20Z</time></trkpt><trkpt lat="42.49167982821632" lon="14.140755466617783"><ele>161.0</ele><time>2026-05-01T16:04:21Z</time></trkpt><trkpt lat="42.49170339722974" lon="14.140859607110652"><ele>161.0</ele><time>2026-05-01T16:04:22Z</time></trkpt><trkpt lat="42.491726516498154" lon="14.14096088432962"><ele>161.0</ele><time>2026-05-01T16:04:23Z</time></trkpt><trkpt lat="42.49175291800829" lon="14.141071105684233"><ele>161.0</ele><time>2026-05-01T16:04:24Z</time></trkpt><trkpt lat="42.491777817140665" lon="14.141188978218652"><ele>161.0</ele><time>2026-05-01T16:04:25Z</time></trkpt><trkpt lat="42.49178497610723" lon="14.141310119175825"><ele>161.0</ele><time>2026-05-01T16:04:26Z</time></trkpt><trkpt lat="42.491782731202555" lon="14.141439366530621"><ele>161.0</ele><time>2026-05-01T16:04:27Z</time></trkpt><trkpt lat="42.49176442898436" lon="14.141569768003592"><ele>161.0</ele><time>2026-05-01T16:04:28Z</time></trkpt><trkpt lat="42.49173089995571" lon="14.141709123678764"><ele>161.0</ele><time>2026-05-01T16:04:29Z</time></trkpt><trkpt lat="42.491680825311654" lon="14.141839331692664"><ele>161.0</ele><time>2026-05-01T16:04:30Z</time></trkpt><trkpt lat="42.49163485144347" lon="14.141957473430235"><ele>161.0</ele><time>2026-05-01T16:04:31Z</time></trkpt><trkpt lat="42.491597880851444" lon="14.142085384665569"><ele>161.0</ele><time>2026-05-01T16:04:32Z</time></trkpt><trkpt lat="42.49158165710936" lon="14.142217493472348"><ele>161.0</ele><time>2026-05-01T16:04:33Z</time></trkpt><trkpt lat="42.49160507141216" lon="14.142344901264549"><ele>161.0</ele><time>2026-05-01T16:04:34Z</time></trkpt><trkpt lat="42.49165391660124" lon="14.142456433843835"><ele>161.0</ele><time>2026-05-01T16:04:35Z</time></trkpt><trkpt lat="42.491718418307315" lon="14.142552953861163"><ele>161.0</ele><time>2026-05-01T16:04:36Z</time></trkpt><trkpt lat="42.49178436928568" lon="14.142647657878044"><ele>161.0</ele><time>2026-05-01T16:04:37Z</time></trkpt><trkpt lat="42.49181724901852" lon="14.142763344339103"><ele>160.33333333333331</ele><time>2026-05-01T16:04:38Z</time></trkpt><trkpt lat="42.49182480032074" lon="14.142887881552552"><ele>159.66666666666666</ele><time>2026-05-01T16:04:39Z</time></trkpt><trkpt lat="42.491794317150735" lon="14.143000178798719"><ele>159.0</ele><time>2026-05-01T16:04:40Z</time></trkpt><trkpt lat="42.49173463931122" lon="14.14308620035861"><ele>158.33333333333334</ele><time>2026-05-01T16:04:41Z</time></trkpt><trkpt lat="42.49166554043728" lon="14.143153170011535"><ele>157.66666666666669</ele><time>2026-05-01T16:04:42Z</time></trkpt><trkpt lat="42.49160236023414" lon="14.14323887973891"><ele>157.0</ele><time>2026-05-01T16:04:43Z</time></trkpt><trkpt lat="42.49153070015635" lon="14.143324632794927"><ele>156.0</ele><time>2026-05-01T16:04:44Z</time></trkpt><trkpt lat="42.4915415361584" lon="14.143483034490558"><ele>155.0</ele><time>2026-05-01T16:04:45Z</time></trkpt><trkpt lat="42.49154900267451" lon="14.143627409031929"><ele>154.0</ele><time>2026-05-01T16:04:46Z</time></trkpt><trkpt lat="42.49161911139019" lon="14.14375272777311"><ele>153.0</ele><time>2026-05-01T16:04:47Z</time></trkpt><trkpt lat="42.49166668423446" lon="14.143886772922023"><ele>153.0</ele><time>2026-05-01T16:04:48Z</time></trkpt><trkpt lat="42.49174576569344" lon="14.143994153705616"><ele>153.0</ele><time>2026-05-01T16:04:49Z</time></trkpt><trkpt lat="42.491828998504225" lon="14.144100257506485"><ele>153.0</ele><time>2026-05-01T16:04:50Z</time></trkpt><trkpt lat="42.491932307295755" lon="14.144185161360598"><ele>153.0</ele><time>2026-05-01T16:04:51Z</time></trkpt><trkpt lat="42.49205080875207" lon="14.144234381997425"><ele>147.75</ele><time>2026-05-01T16:04:52Z</time></trkpt><trkpt lat="42.49216741941891" lon="14.144297904532547"><ele>142.5</ele><time>2026-05-01T16:04:53Z</time></trkpt><trkpt lat="42.4922936424269" lon="14.144352712876723"><ele>137.25</ele><time>2026-05-01T16:04:54Z</time></trkpt><trkpt lat="42.49241660134158" lon="14.144416096741372"><ele>132.0</ele><time>2026-05-01T16:04:55Z</time></trkpt><trkpt lat="42.49253330558345" lon="14.144479761246574"><ele>132.0</ele><time>2026-05-01T16:04:56Z</time></trkpt><trkpt lat="42.49264411344259" lon="14.144540209137727"><ele>132.0</ele><time>2026-05-01T16:04:57Z</time></trkpt><trkpt lat="42.492752706571586" lon="14.144600830014074"><ele>132.0</ele><time>2026-05-01T16:04:58Z</time></trkpt><trkpt lat="42.492853735172844" lon="14.144660688057295"><ele>132.0</ele><time>2026-05-01T16:04:59Z</time></trkpt><trkpt lat="42.492939550578086" lon="14.144745416302822"><ele>133.25</ele><time>2026-05-01T16:05:00Z</time></trkpt><trkpt lat="42.49301450841422" lon="14.144821928437148"><ele>134.5</ele><time>2026-05-01T16:05:01Z</time></trkpt><trkpt lat="42.493084024996215" lon="14.144947909794805"><ele>135.75</ele><time>2026-05-01T16:05:02Z</time></trkpt><trkpt lat="42.4931466298444" lon="14.145090583170242"><ele>137.0</ele><time>2026-05-01T16:05:03Z</time></trkpt><trkpt lat="42.49324794005788" lon="14.145200152153881"><ele>137.0</ele><time>2026-05-01T16:05:04Z</time></trkpt><trkpt lat="42.493369559251796" lon="14.145259200776714"><ele>137.0</ele><time>2026-05-01T16:05:05Z</time></trkpt><trkpt lat="42.49347856706902" lon="14.145303456078791"><ele>137.0</ele><time>2026-05-01T16:05:06Z</time></trkpt><trkpt lat="42.49359240699094" lon="14.145303669377885"><ele>137.0</ele><time>2026-05-01T16:05:07Z</time></trkpt><trkpt lat="42.49368993027497" lon="14.145260658286173"><ele>135.79999999999998</ele><time>2026-05-01T16:05:08Z</time></trkpt><trkpt lat="42.493781419288005" lon="14.145179879129712"><ele>134.6</ele><time>2026-05-01T16:05:09Z</time></trkpt><trkpt lat="42.49384782156196" lon="14.145077097823908"><ele>133.39999999999998</ele><time>2026-05-01T16:05:10Z</time></trkpt><trkpt lat="42.49388734321642" lon="14.144951180677861"><ele>132.2</ele><time>2026-05-01T16:05:11Z</time></trkpt><trkpt lat="42.493916996510016" lon="14.144833972193268"><ele>131.0</ele><time>2026-05-01T16:05:12Z</time></trkpt><trkpt lat="42.49393638836715" lon="14.144719195155432"><ele>128.4</ele><time>2026-05-01T16:05:13Z</time></trkpt><trkpt lat="42.49397174008637" lon="14.144598196980487"><ele>125.8</ele><time>2026-05-01T16:05:14Z</time></trkpt><trkpt lat="42.49401015375916" lon="14.144476117834818"><ele>123.20000000000002</ele><time>2026-05-01T16:05:15Z</time></trkpt><trkpt lat="42.4940467012984" lon="14.14435142029169"><ele>120.60000000000001</ele><time>2026-05-01T16:05:16Z</time></trkpt><trkpt lat="42.49408725435415" lon="14.144231608776531"><ele>118.0</ele><time>2026-05-01T16:05:17Z</time></trkpt><trkpt lat="42.49414500079874" lon="14.144107360432132"><ele>112.75</ele><time>2026-05-01T16:05:18Z</time></trkpt><trkpt lat="42.49423100231222" lon="14.143998337500117"><ele>107.5</ele><time>2026-05-01T16:05:19Z</time></trkpt><trkpt lat="42.49433142722213" lon="14.14392590484763"><ele>102.25</ele><time>2026-05-01T16:05:20Z</time></trkpt><trkpt lat="42.49444749686772" lon="14.143865200346134"><ele>97.0</ele><time>2026-05-01T16:05:21Z</time></trkpt><trkpt lat="42.49456993095988" lon="14.14385355624094"><ele>98.75</ele><time>2026-05-01T16:05:22Z</time></trkpt><trkpt lat="42.49469458754999" lon="14.143844426020046"><ele>100.5</ele><time>2026-05-01T16:05:23Z</time></trkpt><trkpt lat="42.49482130628967" lon="14.143830707616189"><ele>102.25</ele><time>2026-05-01T16:05:24Z</time></trkpt><trkpt lat="42.494946635768464" lon="14.143836863836324"><ele>104.0</ele><time>2026-05-01T16:05:25Z</time></trkpt><trkpt lat="42.49507349497172" lon="14.143822391214945"><ele>104.0</ele><time>2026-05-01T16:05:26Z</time></trkpt><trkpt lat="42.4952031085009" lon="14.143788510263208"><ele>104.0</ele><time>2026-05-01T16:05:27Z</time></trkpt><trkpt lat="42.49532308843352" lon="14.143752329014331"><ele>104.0</ele><time>2026-05-01T16:05:28Z</time></trkpt><trkpt lat="42.495438843267664" lon="14.143718733871097"><ele>104.0</ele><time>2026-05-01T16:05:29Z</time></trkpt><trkpt lat="42.495546738463204" lon="14.143679925859065"><ele>105.75</ele><time>2026-05-01T16:05:30Z</time></trkpt><trkpt lat="42.495648218000184" lon="14.143625468853353"><ele>107.5</ele><time>2026-05-01T16:05:31Z</time></trkpt><trkpt lat="42.4957451170764" lon="14.143546368486975"><ele>109.25</ele><time>2026-05-01T16:05:32Z</time></trkpt><trkpt lat="42.49584130145344" lon="14.143452078604586"><ele>111.0</ele><time>2026-05-01T16:05:33Z</time></trkpt><trkpt lat="42.495942633877746" lon="14.143354407083239"><ele>111.0</ele><time>2026-05-01T16:05:34Z</time></trkpt><trkpt lat="42.496051106132754" lon="14.14325855699858"><ele>111.0</ele><time>2026-05-01T16:05:35Z</time></trkpt><trkpt lat="42.49615897081849" lon="14.143166655207683"><ele>111.0</ele><time>2026-05-01T16:05:36Z</time></trkpt><trkpt lat="42.496262726412795" lon="14.143081655281026"><ele>111.0</ele><time>2026-05-01T16:05:37Z</time></trkpt><trkpt lat="42.49636665937978" lon="14.142997566729546"><ele>108.25</ele><time>2026-05-01T16:05:38Z</time></trkpt><trkpt lat="42.4964674322972" lon="14.142913756161596"><ele>105.5</ele><time>2026-05-01T16:05:39Z</time></trkpt><trkpt lat="42.49656906838438" lon="14.142834478721763"><ele>102.75</ele><time>2026-05-01T16:05:40Z</time></trkpt><trkpt lat="42.49667389684058" lon="14.142748366150505"><ele>100.0</ele><time>2026-05-01T16:05:41Z</time></trkpt><trkpt lat="42.49677678301876" lon="14.142653600502548"><ele>100.0</ele><time>2026-05-01T16:05:42Z</time></trkpt><trkpt lat="42.49688176703038" lon="14.142553139708799"><ele>100.0</ele><time>2026-05-01T16:05:43Z</time></trkpt><trkpt lat="42.4969852514627" lon="14.14244664070162"><ele>100.0</ele><time>2026-05-01T16:05:44Z</time></trkpt><trkpt lat="42.49708607481691" lon="14.142333667059294"><ele>100.0</ele><time>2026-05-01T16:05:45Z</time></trkpt><trkpt lat="42.497180641763904" lon="14.142215558357684"><ele>97.0</ele><time>2026-05-01T16:05:46Z</time></trkpt><trkpt lat="42.49727143257994" lon="14.14210228520934"><ele>94.0</ele><time>2026-05-01T16:05:47Z</time></trkpt><trkpt lat="42.4973655989955" lon="14.142020596442524"><ele>91.0</ele><time>2026-05-01T16:05:48Z</time></trkpt><trkpt lat="42.49743485203674" lon="14.141941140612074"><ele>88.0</ele><time>2026-05-01T16:05:49Z</time></trkpt><trkpt lat="42.49751306179067" lon="14.141933022044693"><ele>85.0</ele><time>2026-05-01T16:05:50Z</time></trkpt><trkpt lat="42.497585349188626" lon="14.141986987542104"><ele>85.0</ele><time>2026-05-01T16:05:51Z</time></trkpt><trkpt lat="42.497629389887194" lon="14.14209247130874"><ele>85.0</ele><time>2026-05-01T16:05:52Z</time></trkpt><trkpt lat="42.497616517274125" lon="14.142226488626312"><ele>85.0</ele><time>2026-05-01T16:05:53Z</time></trkpt><trkpt lat="42.49755709829426" lon="14.142333907259852"><ele>85.0</ele><time>2026-05-01T16:05:54Z</time></trkpt><trkpt lat="42.49747528520022" lon="14.142469461466323"><ele>85.0</ele><time>2026-05-01T16:05:55Z</time></trkpt><trkpt lat="42.49739910741389" lon="14.142599840448105"><ele>85.25</ele><time>2026-05-01T16:05:56Z</time></trkpt><trkpt lat="42.497322342728076" lon="14.142738779394454"><ele>85.5</ele><time>2026-05-01T16:05:57Z</time></trkpt><trkpt lat="42.49724279296105" lon="14.14288206557857"><ele>85.75</ele><time>2026-05-01T16:05:58Z</time></trkpt><trkpt lat="42.49716597034687" lon="14.143026487139242"><ele>86.0</ele><time>2026-05-01T16:05:59Z</time></trkpt><trkpt lat="42.497082756770354" lon="14.1431678495649"><ele>88.5</ele><time>2026-05-01T16:06:00Z</time></trkpt><trkpt lat="42.49699832407698" lon="14.14330861125859"><ele>91.0</ele><time>2026-05-01T16:06:01Z</time></trkpt><trkpt lat="42.496919955297656" lon="14.143439234977073"><ele>93.5</ele><time>2026-05-01T16:06:02Z</time></trkpt><trkpt lat="42.49684304553348" lon="14.14356232986278"><ele>96.0</ele><time>2026-05-01T16:06:03Z</time></trkpt><trkpt lat="42.496766444751835" lon="14.143682182458802"><ele>96.0</ele><time>2026-05-01T16:06:04Z</time></trkpt><trkpt lat="42.49668918680623" lon="14.143797157085196"><ele>96.0</ele><time>2026-05-01T16:06:05Z</time></trkpt><trkpt lat="42.49661018147343" lon="14.143904810548712"><ele>96.0</ele><time>2026-05-01T16:06:06Z</time></trkpt><trkpt lat="42.4965323366013" lon="14.14400909996221"><ele>96.0</ele><time>2026-05-01T16:06:07Z</time></trkpt><trkpt lat="42.496469827413954" lon="14.144120521510075"><ele>96.0</ele><time>2026-05-01T16:06:08Z</time></trkpt><trkpt lat="42.496423321467745" lon="14.144249143077305"><ele>92.5</ele><time>2026-05-01T16:06:09Z</time></trkpt><trkpt lat="42.496396732394174" lon="14.144400088673933"><ele>89.0</ele><time>2026-05-01T16:06:10Z</time></trkpt><trkpt lat="42.49639444909767" lon="14.144556496742204"><ele>85.5</ele><time>2026-05-01T16:06:11Z</time></trkpt><trkpt lat="42.49639467319121" lon="14.144716671211077"><ele>82.0</ele><time>2026-05-01T16:06:12Z</time></trkpt><trkpt lat="42.4964043234581" lon="14.144867184350717"><ele>84.0</ele><time>2026-05-01T16:06:13Z</time></trkpt><trkpt lat="42.49639811524925" lon="14.145009103300374"><ele>86.0</ele><time>2026-05-01T16:06:14Z</time></trkpt><trkpt lat="42.49635225942679" lon="14.145142826605241"><ele>88.0</ele><time>2026-05-01T16:06:15Z</time></trkpt><trkpt lat="42.49629100410561" lon="14.145259121144003"><ele>90.0</ele><time>2026-05-01T16:06:16Z</time></trkpt><trkpt lat="42.496224509464376" lon="14.145367145193367"><ele>92.0</ele><time>2026-05-01T16:06:17Z</time></trkpt><trkpt lat="42.4961815084047" lon="14.145492897496762"><ele>92.0</ele><time>2026-05-01T16:06:18Z</time></trkpt><trkpt lat="42.49614765256272" lon="14.14561731258656"><ele>92.0</ele><time>2026-05-01T16:06:19Z</time></trkpt><trkpt lat="42.496153666361316" lon="14.145749869766167"><ele>92.0</ele><time>2026-05-01T16:06:20Z</time></trkpt><trkpt lat="42.49619413977639" lon="14.145868107929573"><ele>92.0</ele><time>2026-05-01T16:06:21Z</time></trkpt><trkpt lat="42.4962603091075" lon="14.145961449848944"><ele>92.0</ele><time>2026-05-01T16:06:22Z</time></trkpt><trkpt lat="42.496347171439815" lon="14.146022035452454"><ele>88.0</ele><time>2026-05-01T16:06:23Z</time></trkpt><trkpt lat="42.49645185875242" lon="14.146052722839078"><ele>84.0</ele><time>2026-05-01T16:06:24Z</time></trkpt><trkpt lat="42.49655466462316" lon="14.146026072345716"><ele>80.0</ele><time>2026-05-01T16:06:25Z</time></trkpt><trkpt lat="42.49663991532926" lon="14.14594795310379"><ele>76.0</ele><time>2026-05-01T16:06:26Z</time></trkpt><trkpt lat="42.496690401965914" lon="14.145827227387176"><ele>72.0</ele><time>2026-05-01T16:06:27Z</time></trkpt><trkpt lat="42.4966991385722" lon="14.145690030254626"><ele>71.6</ele><time>2026-05-01T16:06:28Z</time></trkpt><trkpt lat="42.49672036021511" lon="14.145544016820654"><ele>71.2</ele><time>2026-05-01T16:06:29Z</time></trkpt><trkpt lat="42.496722142347245" lon="14.145412581772945"><ele>70.8</ele><time>2026-05-01T16:06:30Z</time></trkpt><trkpt lat="42.496726086666264" lon="14.145279806959785"><ele>70.4</ele><time>2026-05-01T16:06:31Z</time></trkpt><trkpt lat="42.4967457854273" lon="14.145157130859392"><ele>70.0</ele><time>2026-05-01T16:06:32Z</time></trkpt><trkpt lat="42.49679656469265" lon="14.145047232544242"><ele>70.0</ele><time>2026-05-01T16:06:33Z</time></trkpt><trkpt lat="42.496853777023894" lon="14.144924730266663"><ele>70.0</ele><time>2026-05-01T16:06:34Z</time></trkpt><trkpt lat="42.49692406230572" lon="14.144801230287118"><ele>70.0</ele><time>2026-05-01T16:06:35Z</time></trkpt><trkpt lat="42.49700947895338" lon="14.144687686284094"><ele>70.0</ele><time>2026-05-01T16:06:36Z</time></trkpt><trkpt lat="42.49710962208646" lon="14.144595961863569"><ele>67.5</ele><time>2026-05-01T16:06:37Z</time></trkpt><trkpt lat="42.497212302828466" lon="14.144525136077874"><ele>65.0</ele><time>2026-05-01T16:06:38Z</time></trkpt><trkpt lat="42.497317964466745" lon="14.144463592494553"><ele>62.5</ele><time>2026-05-01T16:06:39Z</time></trkpt><trkpt lat="42.49741980713607" lon="14.144400777587864"><ele>60.0</ele><time>2026-05-01T16:06:40Z</time></trkpt><trkpt lat="42.4975238052971" lon="14.144314487191304"><ele>60.0</ele><time>2026-05-01T16:06:41Z</time></trkpt><trkpt lat="42.49762433550012" lon="14.144211894969814"><ele>60.0</ele><time>2026-05-01T16:06:42Z</time></trkpt><trkpt lat="42.49771294947719" lon="14.14410030245691"><ele>60.0</ele><time>2026-05-01T16:06:43Z</time></trkpt><trkpt lat="42.497797564599644" lon="14.143981519711406"><ele>60.0</ele><time>2026-05-01T16:06:44Z</time></trkpt><trkpt lat="42.497884527078455" lon="14.143854962655737"><ele>57.75</ele><time>2026-05-01T16:06:45Z</time></trkpt><trkpt lat="42.49797553758716" lon="14.143726681636204"><ele>55.5</ele><time>2026-05-01T16:06:46Z</time></trkpt><trkpt lat="42.498062494482994" lon="14.143597061789544"><ele>53.25</ele><time>2026-05-01T16:06:47Z</time></trkpt><trkpt lat="42.498144742798836" lon="14.143470709553386"><ele>51.0</ele><time>2026-05-01T16:06:48Z</time></trkpt><trkpt lat="42.49822296507072" lon="14.143344643206296"><ele>51.0</ele><time>2026-05-01T16:06:49Z</time></trkpt><trkpt lat="42.498293199568096" lon="14.143231682694188"><ele>51.0</ele><time>2026-05-01T16:06:50Z</time></trkpt><trkpt lat="42.49835258231964" lon="14.14312576800767"><ele>51.0</ele><time>2026-05-01T16:06:51Z</time></trkpt><trkpt lat="42.49840139579245" lon="14.14303846909581"><ele>51.0</ele><time>2026-05-01T16:06:52Z</time></trkpt><trkpt lat="42.498443703129965" lon="14.142968429117621"><ele>51.0</ele><time>2026-05-01T16:06:53Z</time></trkpt><trkpt lat="42.49851629015645" lon="14.142866366537316"><ele>49.666666666666664</ele><time>2026-05-01T16:06:55Z</time></trkpt><trkpt lat="42.498565192185694" lon="14.14280304031238"><ele>48.333333333333336</ele><time>2026-05-01T16:06:57Z</time></trkpt><trkpt lat="42.498623355133596" lon="14.142744509332001"><ele>47.0</ele><time>2026-05-01T16:07:01Z</time></trkpt><trkpt lat="42.49869467464373" lon="14.142695953427253"><ele>45.66666666666667</ele><time>2026-05-01T16:07:18Z</time></trkpt><trkpt lat="42.49876864481849" lon="14.142564711597249"><ele>44.333333333333336</ele><time>2026-05-01T16:07:20Z</time></trkpt><trkpt lat="42.498785728751464" lon="14.142462624458672"><ele>43.0</ele><time>2026-05-01T16:07:21Z</time></trkpt><trkpt lat="42.498806199813664" lon="14.14235225238104"><ele>43.0</ele><time>2026-05-01T16:07:22Z</time></trkpt><trkpt lat="42.4988355501768" lon="14.142226038132142"><ele>43.0</ele><time>2026-05-01T16:07:23Z</time></trkpt><trkpt lat="42.49888248889582" lon="14.142092927188626"><ele>43.0</ele><time>2026-05-01T16:07:24Z</time></trkpt><trkpt lat="42.498938503419055" lon="14.141958252479268"><ele>43.0</ele><time>2026-05-01T16:07:25Z</time></trkpt><trkpt lat="42.49900060559552" lon="14.141823840176066"><ele>43.0</ele><time>2026-05-01T16:07:26Z</time></trkpt><trkpt lat="42.49906960715768" lon="14.141688729165764"><ele>43.0</ele><time>2026-05-01T16:07:27Z</time></trkpt><trkpt lat="42.499143657326535" lon="14.141558146176193"><ele>43.0</ele><time>2026-05-01T16:07:28Z</time></trkpt><trkpt lat="42.49921814334261" lon="14.141444356505485"><ele>43.0</ele><time>2026-05-01T16:07:29Z</time></trkpt><trkpt lat="42.49929921530017" lon="14.141332953661419"><ele>43.0</ele><time>2026-05-01T16:07:30Z</time></trkpt><trkpt lat="42.49938283521693" lon="14.141230532641233"><ele>44.8</ele><time>2026-05-01T16:07:31Z</time></trkpt><trkpt lat="42.49946602003927" lon="14.141140856032212"><ele>46.599999999999994</ele><time>2026-05-01T16:07:32Z</time></trkpt><trkpt lat="42.499545929303984" lon="14.141060346183464"><ele>48.400000000000006</ele><time>2026-05-01T16:07:33Z</time></trkpt><trkpt lat="42.49963231705034" lon="14.140979509807284"><ele>50.2</ele><time>2026-05-01T16:07:34Z</time></trkpt><trkpt lat="42.49972175464811" lon="14.140890406092652"><ele>52.0</ele><time>2026-05-01T16:07:35Z</time></trkpt><trkpt lat="42.49981704116408" lon="14.140781098558268"><ele>48.75</ele><time>2026-05-01T16:07:36Z</time></trkpt><trkpt lat="42.49990994150323" lon="14.14065606566881"><ele>45.5</ele><time>2026-05-01T16:07:37Z</time></trkpt><trkpt lat="42.50000154701776" lon="14.140530854791479"><ele>42.25</ele><time>2026-05-01T16:07:38Z</time></trkpt><trkpt lat="42.50009116977605" lon="14.140399913993564"><ele>39.0</ele><time>2026-05-01T16:07:39Z</time></trkpt><trkpt lat="42.500173473295824" lon="14.1402744122648"><ele>39.0</ele><time>2026-05-01T16:07:40Z</time></trkpt><trkpt lat="42.50025555536284" lon="14.140147177420664"><ele>39.0</ele><time>2026-05-01T16:07:41Z</time></trkpt><trkpt lat="42.500334983766066" lon="14.140025230709456"><ele>39.0</ele><time>2026-05-01T16:07:42Z</time></trkpt><trkpt lat="42.50041088156077" lon="14.139905419380389"><ele>39.0</ele><time>2026-05-01T16:07:43Z</time></trkpt><trkpt lat="42.50048148438405" lon="14.139790826421187"><ele>36.4</ele><time>2026-05-01T16:07:44Z</time></trkpt><trkpt lat="42.5005489474533" lon="14.139683200872497"><ele>33.8</ele><time>2026-05-01T16:07:45Z</time></trkpt><trkpt lat="42.50061195299016" lon="14.139580584313865"><ele>31.200000000000003</ele><time>2026-05-01T16:07:46Z</time></trkpt><trkpt lat="42.500669920979334" lon="14.139477955087871"><ele>28.6</ele><time>2026-05-01T16:07:47Z</time></trkpt><trkpt lat="42.50072343191612" lon="14.139373288978227"><ele>26.0</ele><time>2026-05-01T16:07:48Z</time></trkpt><trkpt lat="42.50077839813043" lon="14.139263696333314"><ele>26.0</ele><time>2026-05-01T16:07:49Z</time></trkpt><trkpt lat="42.5008362193087" lon="14.139150540104943"><ele>26.0</ele><time>2026-05-01T16:07:50Z</time></trkpt><trkpt lat="42.5008919736934" lon="14.13903472839234"><ele>26.0</ele><time>2026-05-01T16:07:51Z</time></trkpt><trkpt lat="42.50094540799841" lon="14.13892377563038"><ele>26.0</ele><time>2026-05-01T16:07:52Z</time></trkpt><trkpt lat="42.500998025899875" lon="14.138815638894368"><ele>26.0</ele><time>2026-05-01T16:07:53Z</time></trkpt><trkpt lat="42.501049650274325" lon="14.138707718556905"><ele>25.166666666666664</ele><time>2026-05-01T16:07:54Z</time></trkpt><trkpt lat="42.501098403301704" lon="14.138605481998592"><ele>24.333333333333332</ele><time>2026-05-01T16:07:55Z</time></trkpt><trkpt lat="42.50115625291139" lon="14.138506954347323"><ele>23.5</ele><time>2026-05-01T16:07:57Z</time></trkpt><trkpt lat="42.50120489867157" lon="14.138420286208142"><ele>22.666666666666664</ele><time>2026-05-01T16:08:00Z</time></trkpt><trkpt lat="42.50122748953845" lon="14.138333706569076"><ele>21.833333333333332</ele><time>2026-05-01T16:08:02Z</time></trkpt><trkpt lat="42.50125234704788" lon="14.138229843334592"><ele>21.0</ele><time>2026-05-01T16:08:04Z</time></trkpt><trkpt lat="42.50128074933965" lon="14.138081800015572"><ele>20.166666666666668</ele><time>2026-05-01T16:08:06Z</time></trkpt><trkpt lat="42.50129880909617" lon="14.137979712148661"><ele>19.333333333333332</ele><time>2026-05-01T16:08:07Z</time></trkpt><trkpt lat="42.50131759572308" lon="14.137878282426819"><ele>18.5</ele><time>2026-05-01T16:08:08Z</time></trkpt><trkpt lat="42.501340977760904" lon="14.13777032232346"><ele>17.666666666666664</ele><time>2026-05-01T16:08:09Z</time></trkpt><trkpt lat="42.50136484412907" lon="14.13767588400465"><ele>16.833333333333332</ele><time>2026-05-01T16:08:10Z</time></trkpt><trkpt lat="42.501391023277954" lon="14.13757508090203"><ele>16.0</ele><time>2026-05-01T16:08:11Z</time></trkpt><trkpt lat="42.50141835109832" lon="14.13746782560468"><ele>15.666666666666666</ele><time>2026-05-01T16:08:12Z</time></trkpt><trkpt lat="42.50144696831785" lon="14.137362109790457"><ele>15.333333333333332</ele><time>2026-05-01T16:08:13Z</time></trkpt><trkpt lat="42.50147319970797" lon="14.137263603812244"><ele>15.0</ele><time>2026-05-01T16:08:14Z</time></trkpt><trkpt lat="42.501497419885034" lon="14.137171368408051"><ele>14.666666666666668</ele><time>2026-05-01T16:08:15Z</time></trkpt><trkpt lat="42.5015219230051" lon="14.137085783410825"><ele>14.333333333333334</ele><time>2026-05-01T16:08:16Z</time></trkpt><trkpt lat="42.5015445724851" lon="14.13700478652096"><ele>14.0</ele><time>2026-05-01T16:08:17Z</time></trkpt><trkpt lat="42.50158199485561" lon="14.13687867026712"><ele>14.000000000000002</ele><time>2026-05-01T16:08:19Z</time></trkpt><trkpt lat="42.50164359287565" lon="14.136853951498068"><ele>14.0</ele><time>2026-05-01T16:08:22Z</time></trkpt><trkpt lat="42.50170078009839" lon="14.136967896449113"><ele>14.0</ele><time>2026-05-01T16:08:25Z</time></trkpt><trkpt lat="42.50170780638115" lon="14.137094225136165"><ele>14.0</ele><time>2026-05-01T16:08:29Z</time></trkpt><trkpt lat="42.50168848313657" lon="14.13721576345431"><ele>14.000000000000002</ele><time>2026-05-01T16:08:31Z</time></trkpt><trkpt lat="42.50166997157423" lon="14.137345430236234"><ele>14.0</ele><time>2026-05-01T16:08:33Z</time></trkpt><trkpt lat="42.50174236798444" lon="14.13739258316236"><ele>14.0</ele><time>2026-05-01T16:08:35Z</time></trkpt><trkpt lat="42.50181784789927" lon="14.13742610914366"><ele>13.999999999999998</ele><time>2026-05-01T16:08:37Z</time></trkpt><trkpt lat="42.5018560939935" lon="14.137156212932085"><ele>13.999999999999998</ele><time>2026-05-01T16:12:48Z</time></trkpt><trkpt lat="42.50182073352989" lon="14.137078730465458"><ele>14.0</ele><time>2026-05-01T16:12:55Z</time></trkpt><trkpt lat="42.50177289687089" lon="14.136989237448027"><ele>14.0</ele><time>2026-05-01T16:12:57Z</time></trkpt><trkpt lat="42.501723575314884" lon="14.136925572023932"><ele>14.000000000000002</ele><time>2026-05-01T16:12:59Z</time></trkpt><trkpt lat="42.501671285384134" lon="14.136829001538423"><ele>14.0</ele><time>2026-05-01T16:13:02Z</time></trkpt><trkpt lat="42.50163060640906" lon="14.136755779409372"><ele>14.0</ele><time>2026-05-01T16:13:13Z</time></trkpt><trkpt lat="42.501656208645" lon="14.136589265442574"><ele>14.0</ele><time>2026-05-01T16:13:15Z</time></trkpt><trkpt lat="42.50167040601818" lon="14.136501982491502"><ele>14.000000000000002</ele><time>2026-05-01T16:13:16Z</time></trkpt><trkpt lat="42.50169245359008" lon="14.136407488582215"><ele>14.0</ele><time>2026-05-01T16:13:17Z</time></trkpt><trkpt lat="42.501720185047674" lon="14.136307863318377"><ele>14.000000000000002</ele><time>2026-05-01T16:13:18Z</time></trkpt><trkpt lat="42.501748451631" lon="14.136199416770554"><ele>14.0</ele><time>2026-05-01T16:13:19Z</time></trkpt><trkpt lat="42.50177853707809" lon="14.136086077313342"><ele>14.0</ele><time>2026-05-01T16:13:20Z</time></trkpt><trkpt lat="42.501809340642986" lon="14.135969957481306"><ele>14.0</ele><time>2026-05-01T16:13:21Z</time></trkpt><trkpt lat="42.501840279033246" lon="14.135853704076997"><ele>14.000000000000002</ele><time>2026-05-01T16:13:22Z</time></trkpt><trkpt lat="42.501869740587935" lon="14.135744830462338"><ele>14.0</ele><time>2026-05-01T16:13:23Z</time></trkpt><trkpt lat="42.50189470445302" lon="14.13564418364977"><ele>14.166666666666668</ele><time>2026-05-01T16:13:24Z</time></trkpt><trkpt lat="42.501917605613734" lon="14.135549913123048"><ele>14.333333333333334</ele><time>2026-05-01T16:13:25Z</time></trkpt><trkpt lat="42.50194535418871" lon="14.135445029536962"><ele>14.5</ele><time>2026-05-01T16:13:26Z</time></trkpt><trkpt lat="42.50197699588752" lon="14.135329747674358"><ele>14.666666666666668</ele><time>2026-05-01T16:13:27Z</time></trkpt><trkpt lat="42.50200984630295" lon="14.13521332451417"><ele>14.833333333333334</ele><time>2026-05-01T16:13:28Z</time></trkpt><trkpt lat="42.502036095469535" lon="14.135116474495467"><ele>15.0</ele><time>2026-05-01T16:13:29Z</time></trkpt><trkpt lat="42.50205931917721" lon="14.13503419438892"><ele>14.833333333333334</ele><time>2026-05-01T16:13:30Z</time></trkpt><trkpt lat="42.50209900417427" lon="14.134926761338475"><ele>14.666666666666668</ele><time>2026-05-01T16:13:32Z</time></trkpt><trkpt lat="42.5021519403914" lon="14.134854298151527"><ele>14.5</ele><time>2026-05-01T16:13:34Z</time></trkpt><trkpt lat="42.50222200463865" lon="14.13478381383007"><ele>14.333333333333334</ele><time>2026-05-01T16:13:38Z</time></trkpt><trkpt lat="42.502313504196216" lon="14.134735817496127"><ele>14.166666666666668</ele><time>2026-05-01T16:13:40Z</time></trkpt><trkpt lat="42.50237749265857" lon="14.134734060110643"><ele>14.0</ele><time>2026-05-01T16:13:41Z</time></trkpt><trkpt lat="42.50247466046734" lon="14.134760873072135"><ele>14.0</ele><time>2026-05-01T16:13:43Z</time></trkpt><trkpt lat="42.50257991975391" lon="14.134844318773155"><ele>13.999999999999998</ele><time>2026-05-01T16:13:45Z</time></trkpt><trkpt lat="42.50263436736257" lon="14.134902606738551"><ele>13.999999999999998</ele><time>2026-05-01T16:13:46Z</time></trkpt><trkpt lat="42.50268635711914" lon="14.13496367867036"><ele>14.0</ele><time>2026-05-01T16:13:47Z</time></trkpt><trkpt lat="42.50277146520727" lon="14.135066864516004"><ele>14.0</ele><time>2026-05-01T16:13:49Z</time></trkpt><trkpt lat="42.50284198724464" lon="14.135151017314522"><ele>14.000000000000002</ele><time>2026-05-01T16:13:51Z</time></trkpt><trkpt lat="42.50290606787339" lon="14.135225471303068"><ele>14.0</ele><time>2026-05-01T16:13:53Z</time></trkpt><trkpt lat="42.50296292216137" lon="14.13529066388987"><ele>14.0</ele><time>2026-05-01T16:13:56Z</time></trkpt><trkpt lat="42.50302656078504" lon="14.13534157721288"><ele>14.0</ele><time>2026-05-01T16:13:59Z</time></trkpt><trkpt lat="42.503103990443634" lon="14.135319553752465"><ele>14.000000000000002</ele><time>2026-05-01T16:14:02Z</time></trkpt><trkpt lat="42.503124806049385" lon="14.135205506457156"><ele>14.0</ele><time>2026-05-01T16:14:03Z</time></trkpt><trkpt lat="42.50315097617152" lon="14.135127219322118"><ele>13.833333333333334</ele><time>2026-05-01T16:14:04Z</time></trkpt><trkpt lat="42.503172785255146" lon="14.135037242943728"><ele>13.666666666666668</ele><time>2026-05-01T16:14:05Z</time></trkpt><trkpt lat="42.50319142133953" lon="14.134932525180394"><ele>13.5</ele><time>2026-05-01T16:14:06Z</time></trkpt><trkpt lat="42.503223579421736" lon="14.134824318928716"><ele>13.333333333333332</ele><time>2026-05-01T16:14:07Z</time></trkpt><trkpt lat="42.50326388915417" lon="14.1347215617266"><ele>13.166666666666666</ele><time>2026-05-01T16:14:08Z</time></trkpt><trkpt lat="42.50330868092196" lon="14.13462302488151"><ele>13.0</ele><time>2026-05-01T16:14:09Z</time></trkpt><trkpt lat="42.50333302806296" lon="14.134514241850072"><ele>13.0</ele><time>2026-05-01T16:14:10Z</time></trkpt><trkpt lat="42.50335760375238" lon="14.134403883323996"><ele>13.0</ele><time>2026-05-01T16:14:11Z</time></trkpt><trkpt lat="42.50338415756729" lon="14.13428497639835"><ele>13.0</ele><time>2026-05-01T16:14:12Z</time></trkpt><trkpt lat="42.50340746319951" lon="14.134160779737849"><ele>13.0</ele><time>2026-05-01T16:14:13Z</time></trkpt><trkpt lat="42.50343541541331" lon="14.134046670760005"><ele>13.0</ele><time>2026-05-01T16:14:14Z</time></trkpt><trkpt lat="42.50346715512344" lon="14.13392545824784"><ele>13.0</ele><time>2026-05-01T16:14:15Z</time></trkpt><trkpt lat="42.50350315970682" lon="14.133809357799063"><ele>13.0</ele><time>2026-05-01T16:14:16Z</time></trkpt><trkpt lat="42.5035474846139" lon="14.133703426138384"><ele>13.0</ele><time>2026-05-01T16:14:17Z</time></trkpt><trkpt lat="42.50361326479427" lon="14.133621913720809"><ele>13.0</ele><time>2026-05-01T16:14:18Z</time></trkpt><trkpt lat="42.503700521721626" lon="14.133541013504761"><ele>13.0</ele><time>2026-05-01T16:14:19Z</time></trkpt><trkpt lat="42.50380031455206" lon="14.1334592532734"><ele>13.0</ele><time>2026-05-01T16:14:20Z</time></trkpt><trkpt lat="42.503901744566306" lon="14.133371735763275"><ele>13.0</ele><time>2026-05-01T16:14:21Z</time></trkpt><trkpt lat="42.50399491268096" lon="14.133292436556504"><ele>13.0</ele><time>2026-05-01T16:14:22Z</time></trkpt><trkpt lat="42.50408545088086" lon="14.133213826480612"><ele>13.0</ele><time>2026-05-01T16:14:23Z</time></trkpt><trkpt lat="42.504180107434316" lon="14.13312765689422"><ele>13.0</ele><time>2026-05-01T16:14:24Z</time></trkpt><trkpt lat="42.50428015996409" lon="14.133033583692406"><ele>13.0</ele><time>2026-05-01T16:14:25Z</time></trkpt><trkpt lat="42.50438556392454" lon="14.132935581508969"><ele>13.0</ele><time>2026-05-01T16:14:26Z</time></trkpt><trkpt lat="42.50448661210334" lon="14.132841556284848"><ele>13.0</ele><time>2026-05-01T16:14:27Z</time></trkpt><trkpt lat="42.50458344055935" lon="14.132755857269235"><ele>12.200000000000001</ele><time>2026-05-01T16:14:28Z</time></trkpt><trkpt lat="42.50467603950424" lon="14.132672841324773"><ele>11.4</ele><time>2026-05-01T16:14:29Z</time></trkpt><trkpt lat="42.504763534859805" lon="14.132591726175516"><ele>10.600000000000001</ele><time>2026-05-01T16:14:30Z</time></trkpt><trkpt lat="42.504851126227095" lon="14.132507604301532"><ele>9.8</ele><time>2026-05-01T16:14:31Z</time></trkpt><trkpt lat="42.50494014238012" lon="14.13242255218862"><ele>9.0</ele><time>2026-05-01T16:14:32Z</time></trkpt><trkpt lat="42.50503121054958" lon="14.132338271066413"><ele>9.0</ele><time>2026-05-01T16:14:33Z</time></trkpt><trkpt lat="42.50511904740604" lon="14.132256545904864"><ele>9.0</ele><time>2026-05-01T16:14:34Z</time></trkpt><trkpt lat="42.50520874011674" lon="14.132172846946428"><ele>9.0</ele><time>2026-05-01T16:14:35Z</time></trkpt><trkpt lat="42.50530452526657" lon="14.13207892361317"><ele>9.0</ele><time>2026-05-01T16:14:36Z</time></trkpt><trkpt lat="42.50541009487761" lon="14.131980811323611"><ele>9.0</ele><time>2026-05-01T16:14:37Z</time></trkpt><trkpt lat="42.505520520479664" lon="14.13187778518165"><ele>9.0</ele><time>2026-05-01T16:14:38Z</time></trkpt><trkpt lat="42.505622842283536" lon="14.131780645050567"><ele>9.0</ele><time>2026-05-01T16:14:39Z</time></trkpt><trkpt lat="42.505714592580794" lon="14.131694953790824"><ele>9.0</ele><time>2026-05-01T16:14:40Z</time></trkpt><trkpt lat="42.505803871095" lon="14.131613763002713"><ele>9.0</ele><time>2026-05-01T16:14:41Z</time></trkpt><trkpt lat="42.505891944336426" lon="14.131535582644327"><ele>9.0</ele><time>2026-05-01T16:14:42Z</time></trkpt><trkpt lat="42.50598182410831" lon="14.131452719407537"><ele>9.0</ele><time>2026-05-01T16:14:43Z</time></trkpt><trkpt lat="42.50607260620499" lon="14.131363757191066"><ele>9.0</ele><time>2026-05-01T16:14:43.999Z</time></trkpt><trkpt lat="42.50616295024526" lon="14.131284235503314"><ele>9.0</ele><time>2026-05-01T16:14:44.999Z</time></trkpt><trkpt lat="42.50625968102387" lon="14.131208389911583"><ele>9.0</ele><time>2026-05-01T16:14:45.999Z</time></trkpt><trkpt lat="42.50636261337396" lon="14.13113029139783"><ele>9.0</ele><time>2026-05-01T16:14:46.999Z</time></trkpt><trkpt lat="42.50647378108267" lon="14.131061430842719"><ele>9.0</ele><time>2026-05-01T16:14:47.999Z</time></trkpt><trkpt lat="42.506591903639496" lon="14.13100446026207"><ele>9.0</ele><time>2026-05-01T16:14:48.999Z</time></trkpt><trkpt lat="42.50671206808225" lon="14.130952411411934"><ele>9.0</ele><time>2026-05-01T16:14:49.999Z</time></trkpt><trkpt lat="42.50682513801782" lon="14.13089209373648"><ele>9.0</ele><time>2026-05-01T16:14:50.999Z</time></trkpt><trkpt lat="42.50693666122633" lon="14.130829182382376"><ele>9.0</ele><time>2026-05-01T16:14:51.999Z</time></trkpt><trkpt lat="42.50705766934487" lon="14.130775283181917"><ele>9.0</ele><time>2026-05-01T16:14:52.999Z</time></trkpt><trkpt lat="42.50718676570366" lon="14.130738322412855"><ele>9.75</ele><time>2026-05-01T16:14:54Z</time></trkpt><trkpt lat="42.507326159094866" lon="14.130701257501096"><ele>10.5</ele><time>2026-05-01T16:14:55Z</time></trkpt><trkpt lat="42.50746382621865" lon="14.13066258653476"><ele>11.25</ele><time>2026-05-01T16:14:56Z</time></trkpt><trkpt lat="42.5075837919396" lon="14.130616173693317"><ele>12.0</ele><time>2026-05-01T16:14:57Z</time></trkpt><trkpt lat="42.507691965199086" lon="14.130568563320095"><ele>12.0</ele><time>2026-05-01T16:14:58Z</time></trkpt><trkpt lat="42.50779350336115" lon="14.130513461287732"><ele>12.0</ele><time>2026-05-01T16:14:59Z</time></trkpt><trkpt lat="42.50788929338705" lon="14.130450624470278"><ele>12.0</ele><time>2026-05-01T16:15:00Z</time></trkpt><trkpt lat="42.50798971981505" lon="14.130381259960865"><ele>12.0</ele><time>2026-05-01T16:15:01Z</time></trkpt><trkpt lat="42.508093172171094" lon="14.130298995946232"><ele>12.0</ele><time>2026-05-01T16:15:02Z</time></trkpt><trkpt lat="42.508196153874614" lon="14.130214283468106"><ele>12.0</ele><time>2026-05-01T16:15:03Z</time></trkpt><trkpt lat="42.508285510330246" lon="14.130140212243164"><ele>12.0</ele><time>2026-05-01T16:15:04Z</time></trkpt><trkpt lat="42.50838156465885" lon="14.13005829368916"><ele>12.0</ele><time>2026-05-01T16:15:05Z</time></trkpt><trkpt lat="42.50847391975036" lon="14.12997877880212"><ele>12.0</ele><time>2026-05-01T16:15:06Z</time></trkpt><trkpt lat="42.50856053509116" lon="14.129901819064337"><ele>12.0</ele><time>2026-05-01T16:15:07Z</time></trkpt><trkpt lat="42.508640858664286" lon="14.129830248244984"><ele>11.166666666666666</ele><time>2026-05-01T16:15:08Z</time></trkpt><trkpt lat="42.508717665415794" lon="14.129770847055292"><ele>10.333333333333334</ele><time>2026-05-01T16:15:09Z</time></trkpt><trkpt lat="42.50878179430458" lon="14.129703093274815"><ele>9.5</ele><time>2026-05-01T16:15:10Z</time></trkpt><trkpt lat="42.50887095054342" lon="14.129743064682183"><ele>8.666666666666668</ele><time>2026-05-01T16:15:11Z</time></trkpt><trkpt lat="42.50895353223939" lon="14.129778167108139"><ele>7.833333333333334</ele><time>2026-05-01T16:15:12Z</time></trkpt><trkpt lat="42.50904342488094" lon="14.129769153972887"><ele>7.0</ele><time>2026-05-01T16:15:13Z</time></trkpt><trkpt lat="42.50915026151866" lon="14.129966918820639"><ele>7.0</ele><time>2026-05-01T16:15:14Z</time></trkpt><trkpt lat="42.5092445626484" lon="14.13009343476407"><ele>7.0</ele><time>2026-05-01T16:15:15Z</time></trkpt><trkpt lat="42.50934215695724" lon="14.13024252410267"><ele>7.0</ele><time>2026-05-01T16:15:16Z</time></trkpt><trkpt lat="42.50944103266358" lon="14.13039066053615"><ele>7.0</ele><time>2026-05-01T16:15:17Z</time></trkpt><trkpt lat="42.50954320193857" lon="14.130540783932952"><ele>7.0</ele><time>2026-05-01T16:15:18Z</time></trkpt><trkpt lat="42.50964982560344" lon="14.130696331556093"><ele>7.0</ele><time>2026-05-01T16:15:19Z</time></trkpt><trkpt lat="42.50976010724115" lon="14.130860637175045"><ele>7.0</ele><time>2026-05-01T16:15:20Z</time></trkpt><trkpt lat="42.509865931588614" lon="14.13102083691993"><ele>6.333333333333334</ele><time>2026-05-01T16:15:21Z</time></trkpt><trkpt lat="42.50997899032581" lon="14.131193931399629"><ele>5.666666666666667</ele><time>2026-05-01T16:15:22Z</time></trkpt><trkpt lat="42.510088033904374" lon="14.1313730254752"><ele>5.0</ele><time>2026-05-01T16:15:23Z</time></trkpt><trkpt lat="42.51019281421546" lon="14.13155485177813"><ele>5.333333333333334</ele><time>2026-05-01T16:15:24Z</time></trkpt><trkpt lat="42.51029428823006" lon="14.131738546151258"><ele>5.666666666666667</ele><time>2026-05-01T16:15:25Z</time></trkpt><trkpt lat="42.51039188522675" lon="14.131923732130163"><ele>6.0</ele><time>2026-05-01T16:15:26Z</time></trkpt><trkpt lat="42.51049213971244" lon="14.132111855890129"><ele>6.0</ele><time>2026-05-01T16:15:27Z</time></trkpt><trkpt lat="42.51059141972414" lon="14.13229863493629"><ele>6.0</ele><time>2026-05-01T16:15:28Z</time></trkpt><trkpt lat="42.51069122370482" lon="14.132484802291147"><ele>6.0</ele><time>2026-05-01T16:15:29Z</time></trkpt><trkpt lat="42.51078867963452" lon="14.13266784223978"><ele>6.0</ele><time>2026-05-01T16:15:30Z</time></trkpt><trkpt lat="42.510884863269006" lon="14.132850812626792"><ele>6.0</ele><time>2026-05-01T16:15:31Z</time></trkpt><trkpt lat="42.510986212863784" lon="14.133032232110352"><ele>6.0</ele><time>2026-05-01T16:15:32Z</time></trkpt><trkpt lat="42.5110916192533" lon="14.133205871317362"><ele>6.333333333333334</ele><time>2026-05-01T16:15:33Z</time></trkpt><trkpt lat="42.51119788565012" lon="14.133372025619312"><ele>6.666666666666667</ele><time>2026-05-01T16:15:34Z</time></trkpt><trkpt lat="42.51130199507819" lon="14.133544882512886"><ele>7.0</ele><time>2026-05-01T16:15:35Z</time></trkpt><trkpt lat="42.51140691062797" lon="14.133727613330946"><ele>6.333333333333334</ele><time>2026-05-01T16:15:36Z</time></trkpt><trkpt lat="42.51148892111771" lon="14.133890052404864"><ele>5.666666666666667</ele><time>2026-05-01T16:15:37Z</time></trkpt><trkpt lat="42.51156937785586" lon="14.134079080583696"><ele>5.0</ele><time>2026-05-01T16:15:38Z</time></trkpt><trkpt lat="42.51165355117256" lon="14.134255240269738"><ele>5.0</ele><time>2026-05-01T16:15:39Z</time></trkpt><trkpt lat="42.511759033200875" lon="14.134416066778046"><ele>5.0</ele><time>2026-05-01T16:15:40Z</time></trkpt><trkpt lat="42.51188387833218" lon="14.134554084875186"><ele>5.0</ele><time>2026-05-01T16:15:40.999Z</time></trkpt><trkpt lat="42.51202441332362" lon="14.1346691005777"><ele>4.333333333333334</ele><time>2026-05-01T16:15:41.999Z</time></trkpt><trkpt lat="42.512173772828916" lon="14.134760219274003"><ele>3.666666666666667</ele><time>2026-05-01T16:15:42.999Z</time></trkpt><trkpt lat="42.512322141123626" lon="14.134841019713681"><ele>3.0</ele><time>2026-05-01T16:15:43.999Z</time></trkpt><trkpt lat="42.51247429726191" lon="14.134922921880623"><ele>3.0</ele><time>2026-05-01T16:15:44.999Z</time></trkpt><trkpt lat="42.51262282968254" lon="14.135013641567127"><ele>3.0</ele><time>2026-05-01T16:15:45.999Z</time></trkpt><trkpt lat="42.51276731954243" lon="14.135113937610178"><ele>3.0</ele><time>2026-05-01T16:15:46.999Z</time></trkpt><trkpt lat="42.51289812353457" lon="14.13523499574204"><ele>3.0</ele><time>2026-05-01T16:15:47.999Z</time></trkpt><trkpt lat="42.513011556623255" lon="14.13537515744155"><ele>3.0</ele><time>2026-05-01T16:15:48.999Z</time></trkpt><trkpt lat="42.51310693866432" lon="14.135531947800395"><ele>3.0</ele><time>2026-05-01T16:15:49.999Z</time></trkpt><trkpt lat="42.51318560826432" lon="14.135699163937563"><ele>3.0</ele><time>2026-05-01T16:15:50.999Z</time></trkpt><trkpt lat="42.51325466233467" lon="14.135872624843575"><ele>3.0</ele><time>2026-05-01T16:15:51.999Z</time></trkpt><trkpt lat="42.51331723638954" lon="14.13605570242332"><ele>3.0</ele><time>2026-05-01T16:15:52.999Z</time></trkpt><trkpt lat="42.513366220563896" lon="14.136230708389762"><ele>3.0</ele><time>2026-05-01T16:15:53.999Z</time></trkpt><trkpt lat="42.51340054345367" lon="14.136404448123185"><ele>3.0</ele><time>2026-05-01T16:15:54.999Z</time></trkpt><trkpt lat="42.513424671614764" lon="14.136571283739393"><ele>3.25</ele><time>2026-05-01T16:15:55.999Z</time></trkpt><trkpt lat="42.51346212189814" lon="14.136734455818996"><ele>3.5</ele><time>2026-05-01T16:15:56.999Z</time></trkpt><trkpt lat="42.51350193023538" lon="14.136896626290973"><ele>3.75</ele><time>2026-05-01T16:15:57.999Z</time></trkpt><trkpt lat="42.513550094428496" lon="14.13704077517894"><ele>4.0</ele><time>2026-05-01T16:15:58.999Z</time></trkpt><trkpt lat="42.51359634816605" lon="14.137152500139536"><ele>3.9999999999999996</ele><time>2026-05-01T16:15:59.999Z</time></trkpt><trkpt lat="42.5136303117711" lon="14.137238093016297"><ele>4.0</ele><time>2026-05-01T16:16:00.999Z</time></trkpt><trkpt lat="42.51365977081611" lon="14.137317495865585"><ele>4.0</ele><time>2026-05-01T16:16:01.999Z</time></trkpt><trkpt lat="42.513691142304395" lon="14.137392062803691"><ele>4.0</ele><time>2026-05-01T16:16:02.999Z</time></trkpt><trkpt lat="42.5137338998577" lon="14.137546002366946"><ele>3.9999999999999996</ele><time>2026-05-01T16:16:04.999Z</time></trkpt><trkpt lat="42.51376767399755" lon="14.137659816790153"><ele>4.0</ele><time>2026-05-01T16:16:05.999Z</time></trkpt><trkpt lat="42.513796377884155" lon="14.137787878451386"><ele>4.25</ele><time>2026-05-01T16:16:06.999Z</time></trkpt><trkpt lat="42.513706773684724" lon="14.137964008788073"><ele>4.5</ele><time>2026-05-01T16:16:07.999Z</time></trkpt><trkpt lat="42.51364711215654" lon="14.138091304329894"><ele>4.75</ele><time>2026-05-01T16:16:08.999Z</time></trkpt><trkpt lat="42.5135894613706" lon="14.138198551601253"><ele>5.0</ele><time>2026-05-01T16:16:09.999Z</time></trkpt><trkpt lat="42.513541879930415" lon="14.138302736692463"><ele>5.0</ele><time>2026-05-01T16:16:10.999Z</time></trkpt><trkpt lat="42.513493141893875" lon="14.138423064254464"><ele>5.0</ele><time>2026-05-01T16:16:11.999Z</time></trkpt><trkpt lat="42.513446647015186" lon="14.138533764137307"><ele>5.0</ele><time>2026-05-01T16:16:12.999Z</time></trkpt><trkpt lat="42.51340535261576" lon="14.138643233978872"><ele>5.0</ele><time>2026-05-01T16:16:13.999Z</time></trkpt><trkpt lat="42.513364757211725" lon="14.138754228596362"><ele>5.0</ele><time>2026-05-01T16:16:14.999Z</time></trkpt><trkpt lat="42.513320466484544" lon="14.138879081678159"><ele>5.0</ele><time>2026-05-01T16:16:15.999Z</time></trkpt><trkpt lat="42.513271331156965" lon="14.139015909748956"><ele>5.0</ele><time>2026-05-01T16:16:16.999Z</time></trkpt><trkpt lat="42.51322072379174" lon="14.13914965379961"><ele>5.0</ele><time>2026-05-01T16:16:17.999Z</time></trkpt><trkpt lat="42.513172596195005" lon="14.139271294541931"><ele>5.0</ele><time>2026-05-01T16:16:18.999Z</time></trkpt><trkpt lat="42.513130913733164" lon="14.139380471950362"><ele>5.0</ele><time>2026-05-01T16:16:19.999Z</time></trkpt><trkpt lat="42.5130908606976" lon="14.139483955531167"><ele>5.166666666666667</ele><time>2026-05-01T16:16:20.999Z</time></trkpt><trkpt lat="42.51305221428799" lon="14.13958172129478"><ele>5.333333333333334</ele><time>2026-05-01T16:16:21.999Z</time></trkpt><trkpt lat="42.513018225126515" lon="14.139673349502193"><ele>5.5</ele><time>2026-05-01T16:16:22.999Z</time></trkpt><trkpt lat="42.51298679077835" lon="14.139767338171065"><ele>5.666666666666667</ele><time>2026-05-01T16:16:23.999Z</time></trkpt><trkpt lat="42.51296027108888" lon="14.13985114563762"><ele>5.833333333333333</ele><time>2026-05-01T16:16:24.999Z</time></trkpt><trkpt lat="42.51290921541147" lon="14.140005332295"><ele>6.0</ele><time>2026-05-01T16:16:26.999Z</time></trkpt><trkpt lat="42.51286360767744" lon="14.14008223743082"><ele>6.0</ele><time>2026-05-01T16:16:27.999Z</time></trkpt><trkpt lat="42.51283118316255" lon="14.140180601582669"><ele>6.0</ele><time>2026-05-01T16:16:28.999Z</time></trkpt><trkpt lat="42.51279935836582" lon="14.140292455185465"><ele>6.0</ele><time>2026-05-01T16:16:29.999Z</time></trkpt><trkpt lat="42.51277881167081" lon="14.140416024880446"><ele>6.0</ele><time>2026-05-01T16:16:30.999Z</time></trkpt><trkpt lat="42.512738787748134" lon="14.140532395520923"><ele>6.0</ele><time>2026-05-01T16:16:31.999Z</time></trkpt><trkpt lat="42.51270158916617" lon="14.140630186620898"><ele>6.0</ele><time>2026-05-01T16:16:32.999Z</time></trkpt><trkpt lat="42.51266354564279" lon="14.140720162464019"><ele>6.333333333333333</ele><time>2026-05-01T16:16:33.999Z</time></trkpt><trkpt lat="42.5126235649949" lon="14.140809877807882"><ele>6.666666666666666</ele><time>2026-05-01T16:16:34.999Z</time></trkpt><trkpt lat="42.51258697928903" lon="14.140894582955214"><ele>7.0</ele><time>2026-05-01T16:16:35.999Z</time></trkpt><trkpt lat="42.51255351482777" lon="14.14097547606864"><ele>7.333333333333333</ele><time>2026-05-01T16:16:36.999Z</time></trkpt><trkpt lat="42.512496374573274" lon="14.141121285730243"><ele>7.666666666666666</ele><time>2026-05-01T16:16:38.999Z</time></trkpt><trkpt lat="42.512448928955294" lon="14.14124983246755"><ele>8.0</ele><time>2026-05-01T16:16:40.999Z</time></trkpt><trkpt lat="42.51240994607125" lon="14.141380841885086"><ele>7.999999999999999</ele><time>2026-05-01T16:16:42.999Z</time></trkpt><trkpt lat="42.51246343795203" lon="14.141474446547482"><ele>8.0</ele><time>2026-05-01T16:16:43.999Z</time></trkpt><trkpt lat="42.51251692216298" lon="14.141531454291703"><ele>8.0</ele><time>2026-05-01T16:16:44.999Z</time></trkpt><trkpt lat="42.51259221827007" lon="14.141524180785563"><ele>8.0</ele><time>2026-05-01T16:16:45.999Z</time></trkpt><trkpt lat="42.5126634078058" lon="14.141511913212872"><ele>7.999999999999999</ele><time>2026-05-01T16:16:46.999Z</time></trkpt><trkpt lat="42.51274161155084" lon="14.141493342377963"><ele>8.0</ele><time>2026-05-01T16:16:47.999Z</time></trkpt><trkpt lat="42.512823773322246" lon="14.141476468947973"><ele>7.6000000000000005</ele><time>2026-05-01T16:16:48.999Z</time></trkpt><trkpt lat="42.51290731069894" lon="14.141464660338784"><ele>7.200000000000001</ele><time>2026-05-01T16:16:49.999Z</time></trkpt><trkpt lat="42.51298552081392" lon="14.14143036491194"><ele>6.8</ele><time>2026-05-01T16:16:50.999Z</time></trkpt><trkpt lat="42.513063881199926" lon="14.141388541258893"><ele>6.4</ele><time>2026-05-01T16:16:51.999Z</time></trkpt><trkpt lat="42.51317546681484" lon="14.14146036884298"><ele>6.0</ele><time>2026-05-01T16:16:52.999Z</time></trkpt><trkpt lat="42.51325929853508" lon="14.141468505640482"><ele>6.0</ele><time>2026-05-01T16:16:53.999Z</time></trkpt><trkpt lat="42.51332432690988" lon="14.141482678906012"><ele>6.0</ele><time>2026-05-01T16:16:54.999Z</time></trkpt><trkpt lat="42.513411462726516" lon="14.141508861601084"><ele>6.0</ele><time>2026-05-01T16:16:56.999Z</time></trkpt><trkpt lat="42.513489677268836" lon="14.141541944040826"><ele>6.0</ele><time>2026-05-01T16:16:58.999Z</time></trkpt><trkpt lat="42.51358339314894" lon="14.141616380968019"><ele>6.0</ele><time>2026-05-01T16:17:00.999Z</time></trkpt><trkpt lat="42.51365749942402" lon="14.141666050578575"><ele>6.0</ele><time>2026-05-01T16:17:02.999Z</time></trkpt><trkpt lat="42.51377758383528" lon="14.141747181432612"><ele>5.5</ele><time>2026-05-01T16:17:04.999Z</time></trkpt><trkpt lat="42.513858884512416" lon="14.141802797475714"><ele>5.0</ele><time>2026-05-01T16:17:05.999Z</time></trkpt><trkpt lat="42.5139508333369" lon="14.141843955354783"><ele>4.5</ele><time>2026-05-01T16:17:06.999Z</time></trkpt><trkpt lat="42.51403245452607" lon="14.14190750497423"><ele>4.0</ele><time>2026-05-01T16:17:07.999Z</time></trkpt><trkpt lat="42.51410402746256" lon="14.141964598356365"><ele>3.5</ele><time>2026-05-01T16:17:08.999Z</time></trkpt><trkpt lat="42.514160138110086" lon="14.142009808052089"><ele>3.0</ele><time>2026-05-01T16:17:09.999Z</time></trkpt><trkpt lat="42.51422791448614" lon="14.142083125111538"><ele>3.0</ele><time>2026-05-01T16:17:11.999Z</time></trkpt><trkpt lat="42.514266996044775" lon="14.142173254501472"><ele>3.0</ele><time>2026-05-01T16:17:13.999Z</time></trkpt><trkpt lat="42.51429034937082" lon="14.142286400197703"><ele>3.0</ele><time>2026-05-01T16:17:15.999Z</time></trkpt><trkpt lat="42.51433251064367" lon="14.142431082251246"><ele>3.0</ele><time>2026-05-01T16:17:17.999Z</time></trkpt><trkpt lat="42.51443528191844" lon="14.142488367884596"><ele>3.0</ele><time>2026-05-01T16:17:19.999Z</time></trkpt><trkpt lat="42.514550800061514" lon="14.142430021794127"><ele>2.8333333333333335</ele><time>2026-05-01T16:17:21.999Z</time></trkpt><trkpt lat="42.51461416184436" lon="14.14241282697713"><ele>2.6666666666666665</ele><time>2026-05-01T16:17:22.999Z</time></trkpt><trkpt lat="42.51473456807006" lon="14.142446809479283"><ele>2.5</ele><time>2026-05-01T16:17:24.999Z</time></trkpt><trkpt lat="42.51480465891479" lon="14.14248697639665"><ele>2.333333333333333</ele><time>2026-05-01T16:17:25.999Z</time></trkpt><trkpt lat="42.51488559882564" lon="14.142539197419538"><ele>2.1666666666666665</ele><time>2026-05-01T16:17:26.999Z</time></trkpt><trkpt lat="42.51496718053428" lon="14.142602339681652"><ele>2.0</ele><time>2026-05-01T16:17:27.999Z</time></trkpt><trkpt lat="42.51505744585709" lon="14.142671122980621"><ele>2.0</ele><time>2026-05-01T16:17:28.999Z</time></trkpt><trkpt lat="42.515139134138785" lon="14.142733612559239"><ele>2.0</ele><time>2026-05-01T16:17:29.999Z</time></trkpt><trkpt lat="42.515221487692806" lon="14.142796803884435"><ele>2.0</ele><time>2026-05-01T16:17:30.999Z</time></trkpt><trkpt lat="42.51530573156003" lon="14.142858815898986"><ele>2.0</ele><time>2026-05-01T16:17:31.999Z</time></trkpt><trkpt lat="42.51540189295098" lon="14.142926912451653"><ele>2.0</ele><time>2026-05-01T16:17:32.999Z</time></trkpt><trkpt lat="42.51551667431324" lon="14.143000391800157"><ele>2.25</ele><time>2026-05-01T16:17:33.999Z</time></trkpt><trkpt lat="42.51564557235264" lon="14.14308128054728"><ele>2.5</ele><time>2026-05-01T16:17:34.999Z</time></trkpt><trkpt lat="42.51576815250529" lon="14.143164382065567"><ele>2.75</ele><time>2026-05-01T16:17:35.999Z</time></trkpt><trkpt lat="42.515879954135286" lon="14.143250288562513"><ele>3.0</ele><time>2026-05-01T16:17:36.999Z</time></trkpt><trkpt lat="42.515996996077234" lon="14.143330821884152"><ele>3.25</ele><time>2026-05-01T16:17:37.999Z</time></trkpt><trkpt lat="42.51611285919859" lon="14.143421016747139"><ele>3.5</ele><time>2026-05-01T16:17:38.999Z</time></trkpt><trkpt lat="42.51624415389435" lon="14.143507743363047"><ele>3.75</ele><time>2026-05-01T16:17:39.999Z</time></trkpt><trkpt lat="42.516385734033825" lon="14.143632924182679"><ele>4.0</ele><time>2026-05-01T16:17:40.999Z</time></trkpt><trkpt lat="42.51655132103097" lon="14.143753112433515"><ele>4.0</ele><time>2026-05-01T16:17:41.999Z</time></trkpt><trkpt lat="42.51670746963299" lon="14.14384819853883"><ele>4.0</ele><time>2026-05-01T16:17:42.999Z</time></trkpt><trkpt lat="42.51683977847281" lon="14.14395914949908"><ele>4.0</ele><time>2026-05-01T16:17:43.999Z</time></trkpt><trkpt lat="42.51697607606253" lon="14.144065277566664"><ele>3.6666666666666665</ele><time>2026-05-01T16:17:44.999Z</time></trkpt><trkpt lat="42.51711881970947" lon="14.14416841974772"><ele>3.333333333333333</ele><time>2026-05-01T16:17:45.999Z</time></trkpt><trkpt lat="42.51725251644084" lon="14.144265142766402"><ele>3.0</ele><time>2026-05-01T16:17:46.999Z</time></trkpt><trkpt lat="42.51737521931832" lon="14.144355538229824"><ele>3.0</ele><time>2026-05-01T16:17:47.999Z</time></trkpt><trkpt lat="42.51749938935538" lon="14.144445670809603"><ele>3.0</ele><time>2026-05-01T16:17:48.999Z</time></trkpt><trkpt lat="42.51761692917117" lon="14.144535711330894"><ele>3.0</ele><time>2026-05-01T16:17:49.999Z</time></trkpt><trkpt lat="42.5177265525399" lon="14.144612996"><ele>3.0</ele><time>2026-05-01T16:17:50.999Z</time></trkpt><trkpt lat="42.51782701574215" lon="14.144683830918087"><ele>3.0</ele><time>2026-05-01T16:17:51.999Z</time></trkpt><trkpt lat="42.517919770270794" lon="14.144750051987643"><ele>3.0</ele><time>2026-05-01T16:17:52.999Z</time></trkpt><trkpt lat="42.518006867546404" lon="14.144811528111157"><ele>3.0</ele><time>2026-05-01T16:17:53.999Z</time></trkpt><trkpt lat="42.518170180722656" lon="14.144923177012286"><ele>3.0</ele><time>2026-05-01T16:17:55.999Z</time></trkpt><trkpt lat="42.5182781092788" lon="14.145000809369941"><ele>3.0</ele><time>2026-05-01T16:17:56.999Z</time></trkpt><trkpt lat="42.51839636582612" lon="14.145081817341916"><ele>3.0</ele><time>2026-05-01T16:17:57.999Z</time></trkpt><trkpt lat="42.51849995818729" lon="14.145156941120453"><ele>3.0</ele><time>2026-05-01T16:17:58.999Z</time></trkpt><trkpt lat="42.51859847405458" lon="14.145228664072755"><ele>3.0</ele><time>2026-05-01T16:17:59.999Z</time></trkpt><trkpt lat="42.51867588203755" lon="14.145285272822344"><ele>3.0</ele><time>2026-05-01T16:18:00.999Z</time></trkpt><trkpt lat="42.518741753311595" lon="14.145334137917988"><ele>3.0</ele><time>2026-05-01T16:18:02.999Z</time></trkpt><trkpt lat="42.51882078104868" lon="14.145387728371416"><ele>3.0</ele><time>2026-05-01T16:18:05.999Z</time></trkpt><trkpt lat="42.51889848508775" lon="14.145435381529925"><ele>3.0</ele><time>2026-05-01T16:18:08.999Z</time></trkpt><trkpt lat="42.51895957004314" lon="14.145472563946095"><ele>3.0</ele><time>2026-05-01T16:18:12Z</time></trkpt><trkpt lat="42.51904292369559" lon="14.145553026371926"><ele>3.0</ele><time>2026-05-01T16:18:14Z</time></trkpt><trkpt lat="42.51911498576286" lon="14.14554861856256"><ele>2.9999999999999996</ele><time>2026-05-01T16:18:15Z</time></trkpt><trkpt lat="42.51917635811404" lon="14.14558979795849"><ele>3.0</ele><time>2026-05-01T16:18:16Z</time></trkpt><trkpt lat="42.51923701772156" lon="14.14563398362236"><ele>3.0</ele><time>2026-05-01T16:18:17Z</time></trkpt><trkpt lat="42.519317140946555" lon="14.145689146822077"><ele>3.0</ele><time>2026-05-01T16:18:19Z</time></trkpt><trkpt lat="42.51936497641545" lon="14.145760978928239"><ele>3.0</ele><time>2026-05-01T16:18:21Z</time></trkpt><trkpt lat="42.51942334562731" lon="14.145803355913051"><ele>2.9999999999999996</ele><time>2026-05-01T16:18:23Z</time></trkpt><trkpt lat="42.51948271075346" lon="14.145832657633408"><ele>3.0</ele><time>2026-05-01T16:18:27Z</time></trkpt><trkpt lat="42.51954257069571" lon="14.145909623589628"><ele>3.0</ele><time>2026-05-01T16:18:41Z</time></trkpt><trkpt lat="42.51959201324423" lon="14.145986851077655"><ele>3.0</ele><time>2026-05-01T16:18:44Z</time></trkpt><trkpt lat="42.519562605515276" lon="14.14614616576888"><ele>3.0</ele><time>2026-05-01T16:18:46Z</time></trkpt><trkpt lat="42.51952073287236" lon="14.146215625677899"><ele>3.0</ele><time>2026-05-01T16:18:47Z</time></trkpt><trkpt lat="42.519461360453704" lon="14.146297646672446"><ele>3.0</ele><time>2026-05-01T16:18:48Z</time></trkpt><trkpt lat="42.519372643559734" lon="14.146410907832673"><ele>3.0</ele><time>2026-05-01T16:18:49Z</time></trkpt><trkpt lat="42.51929392595261" lon="14.146516989398629"><ele>3.0</ele><time>2026-05-01T16:18:50Z</time></trkpt><trkpt lat="42.5192222807632" lon="14.146616093794801"><ele>3.0</ele><time>2026-05-01T16:18:51Z</time></trkpt><trkpt lat="42.519152179939105" lon="14.146719579149593"><ele>3.0</ele><time>2026-05-01T16:18:52Z</time></trkpt><trkpt lat="42.5190929252453" lon="14.146804591382326"><ele>3.0</ele><time>2026-05-01T16:18:53Z</time></trkpt><trkpt lat="42.51903643352325" lon="14.146847840936099"><ele>3.0</ele><time>2026-05-01T16:18:54Z</time></trkpt><trkpt lat="42.51906896999884" lon="14.147040024072787"><ele>3.0</ele><time>2026-05-01T16:18:56Z</time></trkpt><trkpt lat="42.5191027310926" lon="14.14712293887686"><ele>3.0</ele><time>2026-05-01T16:18:57Z</time></trkpt><trkpt lat="42.51915772401011" lon="14.147190271825437"><ele>3.0</ele><time>2026-05-01T16:18:58Z</time></trkpt><trkpt lat="42.5192308972681" lon="14.147233028718837"><ele>3.0</ele><time>2026-05-01T16:18:59Z</time></trkpt><trkpt lat="42.51931741783406" lon="14.147266778952732"><ele>3.0</ele><time>2026-05-01T16:19:00Z</time></trkpt><trkpt lat="42.51939489998214" lon="14.147307377198091"><ele>3.0</ele><time>2026-05-01T16:19:01Z</time></trkpt><trkpt lat="42.51946198431555" lon="14.14736117342566"><ele>3.0</ele><time>2026-05-01T16:19:02Z</time></trkpt><trkpt lat="42.519531375799446" lon="14.147439569751183"><ele>3.0</ele><time>2026-05-01T16:19:03Z</time></trkpt><trkpt lat="42.51959598854726" lon="14.147533947861891"><ele>3.0</ele><time>2026-05-01T16:19:04Z</time></trkpt><trkpt lat="42.51965859915582" lon="14.147630012887031"><ele>3.0</ele><time>2026-05-01T16:19:05Z</time></trkpt><trkpt lat="42.51971206050305" lon="14.147717162270302"><ele>2.8</ele><time>2026-05-01T16:19:06Z</time></trkpt><trkpt lat="42.51976051255597" lon="14.147793996010297"><ele>2.5999999999999996</ele><time>2026-05-01T16:19:07Z</time></trkpt><trkpt lat="42.519807474625885" lon="14.147862142334594"><ele>2.4000000000000004</ele><time>2026-05-01T16:19:08Z</time></trkpt><trkpt lat="42.51987809660426" lon="14.14798237630374"><ele>2.2</ele><time>2026-05-01T16:19:10Z</time></trkpt><trkpt lat="42.51993094712989" lon="14.148102075676045"><ele>2.0</ele><time>2026-05-01T16:19:12Z</time></trkpt><trkpt lat="42.51999366646934" lon="14.148238968541111"><ele>1.9999999999999998</ele><time>2026-05-01T16:19:14Z</time></trkpt><trkpt lat="42.52002428642536" lon="14.14831708790564"><ele>2.0</ele><time>2026-05-01T16:19:15Z</time></trkpt><trkpt lat="42.52005828919563" lon="14.148413681712237"><ele>2.0</ele><time>2026-05-01T16:19:16Z</time></trkpt><trkpt lat="42.52009600399671" lon="14.14851934931181"><ele>2.0</ele><time>2026-05-01T16:19:17Z</time></trkpt><trkpt lat="42.52012915108358" lon="14.14861849574722"><ele>1.9999999999999998</ele><time>2026-05-01T16:19:18Z</time></trkpt><trkpt lat="42.52016345267204" lon="14.148719277906936"><ele>2.0</ele><time>2026-05-01T16:19:19Z</time></trkpt><trkpt lat="42.52019808638406" lon="14.14882308319151"><ele>1.9999999999999998</ele><time>2026-05-01T16:19:20Z</time></trkpt><trkpt lat="42.520230353555206" lon="14.148918267421783"><ele>2.0</ele><time>2026-05-01T16:19:21Z</time></trkpt><trkpt lat="42.52026457535097" lon="14.149021603856086"><ele>2.0</ele><time>2026-05-01T16:19:22Z</time></trkpt><trkpt lat="42.52029771067465" lon="14.149118947833319"><ele>2.0</ele><time>2026-05-01T16:19:23Z</time></trkpt><trkpt lat="42.520327999324124" lon="14.14920804943652"><ele>1.9999999999999998</ele><time>2026-05-01T16:19:24Z</time></trkpt><trkpt lat="42.52035575105505" lon="14.149286023571642"><ele>2.0</ele><time>2026-05-01T16:19:25Z</time></trkpt><trkpt lat="42.5204030376696" lon="14.14942796272304"><ele>2.0</ele><time>2026-05-01T16:19:27Z</time></trkpt><trkpt lat="42.5204388692333" lon="14.149530387222727"><ele>2.0</ele><time>2026-05-01T16:19:28Z</time></trkpt><trkpt lat="42.5204901412691" lon="14.14965844021325"><ele>2.0</ele><time>2026-05-01T16:19:29Z</time></trkpt><trkpt lat="42.5205392494552" lon="14.149788335775455"><ele>2.0</ele><time>2026-05-01T16:19:30Z</time></trkpt><trkpt lat="42.52059329919903" lon="14.14994741042548"><ele>2.0</ele><time>2026-05-01T16:19:31Z</time></trkpt><trkpt lat="42.52064041371315" lon="14.150078143455337"><ele>1.9999999999999998</ele><time>2026-05-01T16:19:32Z</time></trkpt><trkpt lat="42.52068017402579" lon="14.150200745566746"><ele>2.0</ele><time>2026-05-01T16:19:33Z</time></trkpt><trkpt lat="42.52071480032766" lon="14.150301770067207"><ele>2.0</ele><time>2026-05-01T16:19:34Z</time></trkpt><trkpt lat="42.520746067406115" lon="14.150402674137085"><ele>2.0</ele><time>2026-05-01T16:19:35Z</time></trkpt><trkpt lat="42.52077912174644" lon="14.150500962207179"><ele>1.9999999999999998</ele><time>2026-05-01T16:19:36Z</time></trkpt><trkpt lat="42.520818751443564" lon="14.1506100918516"><ele>2.0</ele><time>2026-05-01T16:19:37Z</time></trkpt><trkpt lat="42.52086112570912" lon="14.150726456233876"><ele>1.9999999999999998</ele><time>2026-05-01T16:19:38Z</time></trkpt><trkpt lat="42.52090111905923" lon="14.15084111981624"><ele>2.0</ele><time>2026-05-01T16:19:39Z</time></trkpt><trkpt lat="42.52093751035516" lon="14.150944423816071"><ele>2.0</ele><time>2026-05-01T16:19:40Z</time></trkpt><trkpt lat="42.52097065761054" lon="14.15104043168361"><ele>2.0</ele><time>2026-05-01T16:19:41Z</time></trkpt><trkpt lat="42.520999868531526" lon="14.151126915080825"><ele>1.9999999999999998</ele><time>2026-05-01T16:19:42Z</time></trkpt><trkpt lat="42.52102510605333" lon="14.151207449602014"><ele>2.0</ele><time>2026-05-01T16:19:43Z</time></trkpt><trkpt lat="42.52107155181164" lon="14.151352763488568"><ele>1.9999999999999998</ele><time>2026-05-01T16:19:45Z</time></trkpt><trkpt lat="42.521119668206246" lon="14.151498164452057"><ele>2.0</ele><time>2026-05-01T16:19:47Z</time></trkpt><trkpt lat="42.52114476571449" lon="14.151578886950144"><ele>2.0</ele><time>2026-05-01T16:19:48Z</time></trkpt><trkpt lat="42.52117008733618" lon="14.151664987962432"><ele>2.0</ele><time>2026-05-01T16:19:49Z</time></trkpt><trkpt lat="42.52121258774299" lon="14.151802485202358"><ele>1.9999999999999998</ele><time>2026-05-01T16:19:51Z</time></trkpt><trkpt lat="42.52125520094946" lon="14.151905231344466"><ele>2.0</ele><time>2026-05-01T16:19:53Z</time></trkpt><trkpt lat="42.521288772305184" lon="14.152009278284856"><ele>1.5</ele><time>2026-05-01T16:19:55Z</time></trkpt><trkpt lat="42.52133816516573" lon="14.15216234837564"><ele>1.0</ele><time>2026-05-01T16:19:57Z</time></trkpt><trkpt lat="42.5213980469448" lon="14.15230809701542"><ele>0.5</ele><time>2026-05-01T16:19:59Z</time></trkpt><trkpt lat="42.521431385246515" lon="14.152441850227861"><ele>0.0</ele><time>2026-05-01T16:20:00Z</time></trkpt><trkpt lat="42.52147621095144" lon="14.152573288241918"><ele>-0.2</ele><time>2026-05-01T16:20:01Z</time></trkpt><trkpt lat="42.52151718180425" lon="14.152693423145228"><ele>-0.4</ele><time>2026-05-01T16:20:02Z</time></trkpt><trkpt lat="42.52155681169792" lon="14.152809167289462"><ele>-0.6000000000000001</ele><time>2026-05-01T16:20:03Z</time></trkpt><trkpt lat="42.521596222467274" lon="14.152924084913534"><ele>-0.8</ele><time>2026-05-01T16:20:04Z</time></trkpt><trkpt lat="42.52162878075216" lon="14.15301902143898"><ele>-1.0</ele><time>2026-05-01T16:20:05Z</time></trkpt><trkpt lat="42.521690603382034" lon="14.153153128139756"><ele>-0.8</ele><time>2026-05-01T16:20:07Z</time></trkpt><trkpt lat="42.52174749379624" lon="14.15331353600868"><ele>-0.6000000000000001</ele><time>2026-05-01T16:20:09Z</time></trkpt><trkpt lat="42.52179190995449" lon="14.153443442078178"><ele>-0.4</ele><time>2026-05-01T16:20:11Z</time></trkpt><trkpt lat="42.52181902200314" lon="14.153526983098953"><ele>-0.2</ele><time>2026-05-01T16:20:13Z</time></trkpt><trkpt lat="42.5218439734248" lon="14.153608041202016"><ele>0.0</ele><time>2026-05-01T16:20:16Z</time></trkpt><trkpt lat="42.52186921651455" lon="14.153712439688192"><ele>0.0</ele><time>2026-05-01T16:20:21Z</time></trkpt><trkpt lat="42.52200798991463" lon="14.153640648269"><ele>0.0</ele><time>2026-05-01T16:20:24Z</time></trkpt><trkpt lat="42.52206188531671" lon="14.153553296644985"><ele>0.0</ele><time>2026-05-01T16:20:27Z</time></trkpt><trkpt lat="42.52213596502444" lon="14.153524159043775"><ele>0.0</ele><time>2026-05-01T16:20:30Z</time></trkpt><trkpt lat="42.52218828215075" lon="14.153454426128864"><ele>0.0</ele><time>2026-05-01T16:20:34Z</time></trkpt><trkpt lat="42.52226014071916" lon="14.153398174522268"><ele>0.5</ele><time>2026-05-01T16:20:37Z</time></trkpt><trkpt lat="42.52230029731444" lon="14.153304967788431"><ele>1.0</ele><time>2026-05-01T16:20:40Z</time></trkpt><trkpt lat="42.522270082923136" lon="14.15319966082099"><ele>1.5</ele><time>2026-05-01T16:20:45Z</time></trkpt><trkpt lat="42.52232300830324" lon="14.153332565093772"><ele>2.0</ele><time>2026-05-01T16:20:49Z</time></trkpt><trkpt lat="42.522223323880645" lon="14.153091651679084"><ele>2.0</ele><time>2026-05-01T16:20:50Z</time></trkpt><trkpt lat="42.522180359252204" lon="14.152996974013218"><ele>1.9999999999999998</ele><time>2026-05-01T16:20:53Z</time></trkpt><trkpt lat="42.522140795778" lon="14.152922071972364"><ele>2.0</ele><time>2026-05-01T16:20:56Z</time></trkpt><trkpt lat="42.52210738456257" lon="14.152847123802086"><ele>2.0</ele><time>2026-05-01T16:20:59Z</time></trkpt><trkpt lat="42.522070555051215" lon="14.152770453117965"><ele>1.9999999999999998</ele><time>2026-05-01T16:21:03Z</time></trkpt><trkpt lat="42.52203328058314" lon="14.152688561301055"><ele>2.0</ele><time>2026-05-01T16:21:06Z</time></trkpt><trkpt lat="42.52198977861308" lon="14.15259738243733"><ele>2.0</ele><time>2026-05-01T16:21:10Z</time></trkpt><trkpt lat="42.52195491556014" lon="14.152484419796847"><ele>1.6666666666666665</ele><time>2026-05-01T16:21:13.999Z</time></trkpt><trkpt lat="42.52190690686763" lon="14.152420687087194"><ele>1.3333333333333333</ele><time>2026-05-01T16:21:16.999Z</time></trkpt><trkpt lat="42.521886033249565" lon="14.152333598130692"><ele>1.0</ele><time>2026-05-01T16:21:21Z</time></trkpt><trkpt lat="42.521833293931316" lon="14.152258744114025"><ele>0.6666666666666666</ele><time>2026-05-01T16:21:25Z</time></trkpt><trkpt lat="42.52179734587317" lon="14.152171927258875"><ele>0.3333333333333333</ele><time>2026-05-01T16:21:27Z</time></trkpt><trkpt lat="42.5217741030995" lon="14.152088520847578"><ele>0.0</ele><time>2026-05-01T16:21:28Z</time></trkpt><trkpt lat="42.52165000405672" lon="14.152118770891505"><ele>0.0</ele><time>2026-05-01T16:21:30Z</time></trkpt><trkpt lat="42.52162599815833" lon="14.152262032040461"><ele>0.0</ele><time>2026-05-01T16:21:32Z</time></trkpt><trkpt lat="42.52166510533952" lon="14.152339661891752"><ele>0.0</ele><time>2026-05-01T16:21:33Z</time></trkpt><trkpt lat="42.52169308585615" lon="14.152457967423985"><ele>0.0</ele><time>2026-05-01T16:21:34Z</time></trkpt><trkpt lat="42.52177576423515" lon="14.1524300419255"><ele>0.0</ele><time>2026-05-01T16:26:08Z</time></trkpt><trkpt lat="42.52171623623403" lon="14.152462297099419"><ele>0.0</ele><time>2026-05-01T16:27:15Z</time></trkpt><trkpt lat="42.52183323187821" lon="14.15250484691432"><ele>-0.14285714285714285</ele><time>2026-05-01T16:28:40Z</time></trkpt><trkpt lat="42.521905130449" lon="14.152479881963094"><ele>-0.2857142857142857</ele><time>2026-05-01T16:28:46Z</time></trkpt><trkpt lat="42.52196934933569" lon="14.152462437955808"><ele>-0.42857142857142855</ele><time>2026-05-01T16:28:53Z</time></trkpt><trkpt lat="42.52203180646359" lon="14.152433745510058"><ele>-0.5714285714285714</ele><time>2026-05-01T16:29:02Z</time></trkpt><trkpt lat="42.522100675368904" lon="14.152438282153085"><ele>-0.7142857142857142</ele><time>2026-05-01T16:29:11Z</time></trkpt><trkpt lat="42.52217130349289" lon="14.152421311181563"><ele>-0.8571428571428571</ele><time>2026-05-01T16:29:33Z</time></trkpt><trkpt lat="42.52222982352945" lon="14.152363716650697"><ele>-1.0</ele><time>2026-05-01T16:31:03Z</time></trkpt><trkpt lat="42.52216733152323" lon="14.152380593134572"><ele>-0.8571428571428571</ele><time>2026-05-01T16:33:53.001Z</time></trkpt><trkpt lat="42.522102255796106" lon="14.152356666834857"><ele>-0.7142857142857142</ele><time>2026-05-01T16:34:39.001Z</time></trkpt><trkpt lat="42.522035567843844" lon="14.1523212511707"><ele>-0.5714285714285714</ele><time>2026-05-01T16:41:21Z</time></trkpt><trkpt lat="42.522100152704155" lon="14.152345761511851"><ele>-0.42857142857142855</ele><time>2026-05-01T16:44:20.999Z</time></trkpt><trkpt lat="42.52214857411419" lon="14.152411208035886"><ele>-0.2857142857142857</ele><time>2026-05-01T16:47:34Z</time></trkpt><trkpt lat="42.5221987727158" lon="14.152344494738383"><ele>-0.14285714285714285</ele><time>2026-05-01T16:48:01Z</time></trkpt><trkpt lat="42.52226831488437" lon="14.15236715054915"><ele>0.0</ele><time>2026-05-01T16:49:16Z</time></trkpt><trkpt lat="42.522334554734854" lon="14.15233912179227"><ele>0.3333333333333333</ele><time>2026-05-01T16:49:24Z</time></trkpt><trkpt lat="42.52238682812305" lon="14.152277195071484"><ele>0.6666666666666666</ele><time>2026-05-01T16:49:34Z</time></trkpt><trkpt lat="42.52241922031471" lon="14.1521981221004"><ele>1.0</ele><time>2026-05-01T16:49:45Z</time></trkpt><trkpt lat="42.52243678429199" lon="14.152111446233036"><ele>1.3333333333333333</ele><time>2026-05-01T16:49:54Z</time></trkpt><trkpt lat="42.52252077313499" lon="14.152209172304573"><ele>1.6666666666666665</ele><time>2026-05-01T16:51:54Z</time></trkpt><trkpt lat="42.52243813720679" lon="14.15224194742755"><ele>2.0</ele><time>2026-05-01T16:51:55Z</time></trkpt><trkpt lat="42.522368427462105" lon="14.152248233177067"><ele>2.0</ele><time>2026-05-01T16:52:04Z</time></trkpt><trkpt lat="42.522321397990645" lon="14.152313321026938"><ele>1.9999999999999998</ele><time>2026-05-01T16:52:30Z</time></trkpt><trkpt lat="42.522261312854454" lon="14.152365075213735"><ele>2.0</ele><time>2026-05-01T16:52:39Z</time></trkpt><trkpt lat="42.52219542988439" lon="14.152350467341464"><ele>2.0</ele><time>2026-05-01T16:52:48Z</time></trkpt><trkpt lat="42.52214482769813" lon="14.152408602143607"><ele>1.9999999999999998</ele><time>2026-05-01T16:56:50Z</time></trkpt><trkpt lat="42.52208446409576" lon="14.152436318652962"><ele>2.0</ele><time>2026-05-01T16:57:16Z</time></trkpt><trkpt lat="42.52206723120642" lon="14.152519814617527"><ele>2.0</ele><time>2026-05-01T16:57:24Z</time></trkpt><trkpt lat="42.522007448443" lon="14.15257369807307"><ele>1.5714285714285714</ele><time>2026-05-01T16:57:31Z</time></trkpt><trkpt lat="42.52194253461272" lon="14.15259179979508"><ele>1.1428571428571428</ele><time>2026-05-01T16:57:38Z</time></trkpt><trkpt lat="42.521874699256394" lon="14.152592354303346"><ele>0.7142857142857142</ele><time>2026-05-01T16:57:45Z</time></trkpt><trkpt lat="42.521841831117555" lon="14.152517461738187"><ele>0.2857142857142857</ele><time>2026-05-01T16:57:51Z</time></trkpt><trkpt lat="42.52179646757498" lon="14.1524449334276"><ele>-0.1428571428571428</ele><time>2026-05-01T16:57:58Z</time></trkpt><trkpt lat="42.52174191055873" lon="14.15249186189778"><ele>-0.5714285714285714</ele><time>2026-05-01T17:04:26Z</time></trkpt><trkpt lat="42.52168277777936" lon="14.15252978763293"><ele>-1.0</ele><time>2026-05-01T17:04:49Z</time></trkpt><trkpt lat="42.521742344648814" lon="14.152487399804276"><ele>-1.0</ele><time>2026-05-01T17:12:53Z</time></trkpt><trkpt lat="42.52180831366838" lon="14.15245986345132"><ele>-0.9999999999999999</ele><time>2026-05-01T17:13:00Z</time></trkpt><trkpt lat="42.52186510980747" lon="14.152421454298636"><ele>-1.0</ele><time>2026-05-01T17:13:07Z</time></trkpt><trkpt lat="42.5219274795825" lon="14.152378234944411"><ele>-1.0</ele><time>2026-05-01T17:13:15Z</time></trkpt><trkpt lat="42.52199298466251" lon="14.152362438130764"><ele>-0.9999999999999999</ele><time>2026-05-01T17:13:22Z</time></trkpt><trkpt lat="42.52206494814549" lon="14.152369508427318"><ele>-1.0</ele><time>2026-05-01T17:13:29Z</time></trkpt><trkpt lat="42.52213224912213" lon="14.152383130191486"><ele>-1.0</ele><time>2026-05-01T17:13:35Z</time></trkpt><trkpt lat="42.52220124805619" lon="14.152346426073773"><ele>-1.0</ele><time>2026-05-01T17:15:10Z</time></trkpt><trkpt lat="42.52215075889684" lon="14.152402352100278"><ele>-0.9999999999999999</ele><time>2026-05-01T17:16:41.001Z</time></trkpt><trkpt lat="42.52208165594445" lon="14.152430047421785"><ele>-1.0</ele><time>2026-05-01T17:44:01Z</time></trkpt><trkpt lat="42.52202231102839" lon="14.152461692249267"><ele>-1.0</ele><time>2026-05-01T17:44:07Z</time></trkpt><trkpt lat="42.521959898589785" lon="14.152492398210942"><ele>-0.9999999999999999</ele><time>2026-05-01T17:44:14Z</time></trkpt><trkpt lat="42.52189211440111" lon="14.152503936537771"><ele>-1.0</ele><time>2026-05-01T17:44:20Z</time></trkpt><trkpt lat="42.521827684278755" lon="14.152516330101637"><ele>-1.0</ele><time>2026-05-01T17:44:27Z</time></trkpt><trkpt lat="42.52178519052515" lon="14.152450253891532"><ele>-1.0</ele><time>2026-05-01T17:44:34Z</time></trkpt><trkpt lat="42.52184885927116" lon="14.152476767041263"><ele>-0.9999999999999999</ele><time>2026-05-01T17:46:40Z</time></trkpt><trkpt lat="42.52191878050956" lon="14.152478217863756"><ele>-1.0</ele><time>2026-05-01T17:46:54Z</time></trkpt><trkpt lat="42.521983300269774" lon="14.152507300960039"><ele>-1.0</ele><time>2026-05-01T17:47:08Z</time></trkpt><trkpt lat="42.52204837619687" lon="14.152476496030042"><ele>-0.9999999999999999</ele><time>2026-05-01T17:47:17Z</time></trkpt><trkpt lat="42.522111821996305" lon="14.152458025984732"><ele>-1.0</ele><time>2026-05-01T17:47:27Z</time></trkpt><trkpt lat="42.52218190945137" lon="14.152439211424925"><ele>-1.0</ele><time>2026-05-01T17:47:57Z</time></trkpt><trkpt lat="42.5221106724498" lon="14.152460919427666"><ele>-1.0</ele><time>2026-05-01T17:49:25Z</time></trkpt><trkpt lat="42.52204353594482" lon="14.152498656476352"><ele>-0.9999999999999999</ele><time>2026-05-01T17:49:31Z</time></trkpt><trkpt lat="42.521984298736925" lon="14.152528923738899"><ele>-1.0</ele><time>2026-05-01T17:49:37Z</time></trkpt><trkpt lat="42.52190823032498" lon="14.1525292381928"><ele>-1.0</ele><time>2026-05-01T17:49:43Z</time></trkpt><trkpt lat="42.52184094641603" lon="14.152528382669288"><ele>-0.9999999999999999</ele><time>2026-05-01T17:49:49Z</time></trkpt><trkpt lat="42.52178963733035" lon="14.152474333886582"><ele>-1.0</ele><time>2026-05-01T17:49:55Z</time></trkpt><trkpt lat="42.52186020498481" lon="14.152458930626592"><ele>-1.0</ele><time>2026-05-01T17:50:17Z</time></trkpt><trkpt lat="42.52192370859156" lon="14.152490458894158"><ele>-1.0</ele><time>2026-05-01T17:50:26Z</time></trkpt><trkpt lat="42.52198865103727" lon="14.152527566203492"><ele>-0.9999999999999999</ele><time>2026-05-01T17:50:33Z</time></trkpt><trkpt lat="42.522050603192696" lon="14.152489696836579"><ele>-1.0</ele><time>2026-05-01T17:50:39Z</time></trkpt><trkpt lat="42.52211697253898" lon="14.152467481378999"><ele>-1.0</ele><time>2026-05-01T17:50:45Z</time></trkpt><trkpt lat="42.52218259680427" lon="14.152449861611531"><ele>-0.9999999999999999</ele><time>2026-05-01T17:50:51Z</time></trkpt><trkpt lat="42.52223877083985" lon="14.152399184956039"><ele>-1.0</ele><time>2026-05-01T17:50:58Z</time></trkpt><trkpt lat="42.52229213995919" lon="14.152353391372129"><ele>-1.0</ele><time>2026-05-01T17:51:04Z</time></trkpt><trkpt lat="42.52232898150745" lon="14.152280262012036"><ele>-0.4</ele><time>2026-05-01T17:51:11Z</time></trkpt><trkpt lat="42.52234151263057" lon="14.152190854145475"><ele>0.19999999999999996</ele><time>2026-05-01T17:51:17.999Z</time></trkpt><trkpt lat="42.52238290330289" lon="14.152121949122852"><ele>0.8000000000000002</ele><time>2026-05-01T17:51:26Z</time></trkpt><trkpt lat="42.52245154162955" lon="14.152053293785702"><ele>1.4000000000000001</ele><time>2026-05-01T17:52:34Z</time></trkpt><trkpt lat="42.52229145990683" lon="14.15214713951819"><ele>2.0</ele><time>2026-05-01T17:52:36Z</time></trkpt><trkpt lat="42.5224316600288" lon="14.152111487136168"><ele>1.9999999999999998</ele><time>2026-05-01T17:52:55Z</time></trkpt><trkpt lat="42.522477722874285" lon="14.15200892141321"><ele>2.0</ele><time>2026-05-01T17:52:58Z</time></trkpt><trkpt lat="42.522407983596324" lon="14.1521200806351"><ele>2.0</ele><time>2026-05-01T17:53:13Z</time></trkpt><trkpt lat="42.522353090331016" lon="14.152167511035294"><ele>2.0</ele><time>2026-05-01T17:53:36Z</time></trkpt><trkpt lat="42.522329453322456" lon="14.152252508136275"><ele>1.9999999999999998</ele><time>2026-05-01T17:53:43Z</time></trkpt><trkpt lat="42.522407054674034" lon="14.152244562522963"><ele>2.0</ele><time>2026-05-01T17:53:57Z</time></trkpt><trkpt lat="42.52245673235522" lon="14.152166053469436"><ele>1.9999999999999998</ele><time>2026-05-01T17:54:10Z</time></trkpt><trkpt lat="42.52248872929344" lon="14.15224179828537"><ele>2.0</ele><time>2026-05-01T17:54:28Z</time></trkpt><trkpt lat="42.52241479162878" lon="14.152261402188207"><ele>2.0</ele><time>2026-05-01T17:54:38Z</time></trkpt><trkpt lat="42.522359352451076" lon="14.152302920107894"><ele>2.0</ele><time>2026-05-01T17:54:44Z</time></trkpt><trkpt lat="42.52220415146889" lon="14.152276355850054"><ele>1.9999999999999998</ele><time>2026-05-01T18:02:58Z</time></trkpt><trkpt lat="42.52229096394761" lon="14.15230895337897"><ele>2.0</ele><time>2026-05-01T18:03:06Z</time></trkpt><trkpt lat="42.52229980394013" lon="14.152217768333431"><ele>2.0</ele><time>2026-05-01T18:04:38Z</time></trkpt><trkpt lat="42.52233511889226" lon="14.152144966298678"><ele>2.0</ele><time>2026-05-01T18:04:44Z</time></trkpt><trkpt lat="42.52239212617715" lon="14.15209494770684"><ele>2.0</ele><time>2026-05-01T18:04:52Z</time></trkpt><trkpt lat="42.52246018210975" lon="14.152098088168191"><ele>2.0</ele><time>2026-05-01T18:05:17Z</time></trkpt><trkpt lat="42.522724641626056" lon="14.152114226619481"><ele>2.0</ele><time>2026-05-01T18:05:20Z</time></trkpt><trkpt lat="42.52287125199663" lon="14.15226857036614"><ele>2.0</ele><time>2026-05-01T18:05:22Z</time></trkpt><trkpt lat="42.52228277381707" lon="14.152450701871564"><ele>1.9999999999999998</ele><time>2026-05-01T18:05:30.031Z</time></trkpt><trkpt lat="42.5223895809014" lon="14.152424092586275"><ele>2.0</ele><time>2026-05-01T18:05:35.032Z</time></trkpt><trkpt lat="42.52246562720987" lon="14.152364160749316"><ele>2.0</ele><time>2026-05-01T18:05:40.028Z</time></trkpt><trkpt lat="42.52251707413302" lon="14.152307235897954"><ele>2.0</ele><time>2026-05-01T18:05:42.029Z</time></trkpt><trkpt lat="42.52257300428727" lon="14.1522596644838"><ele>1.9999999999999998</ele><time>2026-05-01T18:05:45.029Z</time></trkpt><trkpt lat="42.52259024758222" lon="14.152165305415735"><ele>2.0</ele><time>2026-05-01T18:05:50.028Z</time></trkpt><trkpt lat="42.52267836693545" lon="14.152158757132005"><ele>2.0</ele><time>2026-05-01T18:05:53.027Z</time></trkpt><trkpt lat="42.522743847150174" lon="14.15216629111077"><ele>2.0</ele><time>2026-05-01T18:05:54.028Z</time></trkpt><trkpt lat="42.522626829877304" lon="14.151871072980954"><ele>2.0</ele><time>2026-05-01T18:06:01.028Z</time></trkpt><trkpt lat="42.52260346747589" lon="14.151774067388875"><ele>2.0</ele><time>2026-05-01T18:06:05.018Z</time></trkpt><trkpt lat="42.522399925707994" lon="14.15159538065407"><ele>2.0</ele><time>2026-05-01T18:06:21.708Z</time></trkpt><trkpt lat="42.52236470010082" lon="14.151804912069956"><ele>2.0</ele><time>2026-05-01T18:06:32.013Z</time></trkpt><trkpt lat="42.52246546006798" lon="14.151642680300368"><ele>2.0</ele><time>2026-05-01T18:07:21.012Z</time></trkpt><trkpt lat="42.52254998514759" lon="14.151649173842985"><ele>2.0</ele><time>2026-05-01T18:08:14.011Z</time></trkpt><trkpt lat="42.52249917010429" lon="14.151738859533733"><ele>1.9999999999999998</ele><time>2026-05-01T18:08:20.011Z</time></trkpt><trkpt lat="42.52249766601721" lon="14.151839898828687"><ele>2.0</ele><time>2026-05-01T18:08:23.012Z</time></trkpt><trkpt lat="42.52255779332918" lon="14.151777678421961"><ele>2.0</ele><time>2026-05-01T18:08:30.012Z</time></trkpt><trkpt lat="42.52259545334299" lon="14.151695737820322"><ele>2.0</ele><time>2026-05-01T18:08:33.011Z</time></trkpt><trkpt lat="42.52250297481642" lon="14.151783938790027"><ele>1.9999999999999998</ele><time>2026-05-01T18:08:37.01Z</time></trkpt><trkpt lat="42.52243883054004" lon="14.151842173342072"><ele>2.0</ele><time>2026-05-01T18:08:39.011Z</time></trkpt><trkpt lat="42.522393154965656" lon="14.152373992856031"><ele>2.0</ele><time>2026-05-01T18:09:11.668Z</time></trkpt><trkpt lat="42.5223800680135" lon="14.15204241648887"><ele>2.0</ele><time>2026-05-01T18:10:08.633Z</time></trkpt><trkpt lat="42.52229156089722" lon="14.15179320779971"><ele>2.0</ele><time>2026-05-01T18:10:17.102Z</time></trkpt><trkpt lat="42.52241448995634" lon="14.152184711857519"><ele>2.0</ele><time>2026-05-01T18:10:40.547Z</time></trkpt><trkpt lat="42.52241861689288" lon="14.152372309858276"><ele>2.0</ele><time>2026-05-01T18:13:46.888Z</time></trkpt><trkpt lat="42.52272786247338" lon="14.152663344484909"><ele>2.0</ele><time>2026-05-01T18:13:53.322Z</time></trkpt><trkpt lat="42.52247159956529" lon="14.1526778111561"><ele>2.0</ele><time>2026-05-01T18:14:18.19Z</time></trkpt><trkpt lat="42.52238972649064" lon="14.152290542257873"><ele>2.0</ele><time>2026-05-01T18:14:27.247Z</time></trkpt><trkpt lat="42.52233189529397" lon="14.152151429891811"><ele>2.0</ele><time>2026-05-01T18:14:28.878Z</time></trkpt><trkpt lat="42.5224531158174" lon="14.152624397943875"><ele>2.0</ele><time>2026-05-01T18:14:36.059Z</time></trkpt><trkpt lat="42.52236223041719" lon="14.152276741167721"><ele>2.0</ele><time>2026-05-01T18:15:11.871Z</time></trkpt><trkpt lat="42.52243210703577" lon="14.152460114944974"><ele>2.0</ele><time>2026-05-01T18:15:33.586Z</time></trkpt><trkpt lat="42.52271826995909" lon="14.152666831617957"><ele>2.0</ele><time>2026-05-01T18:15:39.997Z</time></trkpt><trkpt lat="42.52248558125828" lon="14.152407355872638"><ele>2.0</ele><time>2026-05-01T18:15:41.515Z</time></trkpt><trkpt lat="42.52238186928483" lon="14.152269491786843"><ele>2.0</ele><time>2026-05-01T18:16:02.643Z</time></trkpt><trkpt lat="42.52246549902105" lon="14.152589298743766"><ele>2.0</ele><time>2026-05-01T18:16:11.417Z</time></trkpt><trkpt lat="42.52255392653365" lon="14.152384440860507"><ele>2.0</ele><time>2026-05-01T18:16:28.967Z</time></trkpt><trkpt lat="42.52230664886602" lon="14.151995142986022"><ele>2.0</ele><time>2026-05-01T18:16:31.406Z</time></trkpt><trkpt lat="42.52242134078005" lon="14.152407576108013"><ele>2.0</ele><time>2026-05-01T18:17:34.58Z</time></trkpt><trkpt lat="42.52245453070139" lon="14.152591986250831"><ele>2.0</ele><time>2026-05-01T18:18:54.738Z</time></trkpt><trkpt lat="42.522528826662416" lon="14.152494034542434"><ele>2.0</ele><time>2026-05-01T18:28:32.852Z</time></trkpt><trkpt lat="42.52273034500762" lon="14.15265825040637"><ele>2.0</ele><time>2026-05-01T18:29:22.386Z</time></trkpt><trkpt lat="42.52247624450955" lon="14.152391523409056"><ele>2.0</ele><time>2026-05-01T18:29:24.019Z</time></trkpt><trkpt lat="42.52235202038812" lon="14.152200257702745"><ele>2.0</ele><time>2026-05-01T18:29:31.041Z</time></trkpt><trkpt lat="42.522714273303194" lon="14.152627982367422"><ele>2.0</ele><time>2026-05-01T18:29:40.069Z</time></trkpt><trkpt lat="42.52260039509287" lon="14.152426688182436"><ele>2.0</ele><time>2026-05-01T18:30:21.673Z</time></trkpt><trkpt lat="42.52256819928151" lon="14.152573599868767"><ele>2.0</ele><time>2026-05-01T18:32:41.174Z</time></trkpt><trkpt lat="42.52250900114197" lon="14.152506530549891"><ele>2.0</ele><time>2026-05-01T18:34:47.854Z</time></trkpt><trkpt lat="42.52252093301673" lon="14.152384051292668"><ele>2.0</ele><time>2026-05-01T18:36:02.288Z</time></trkpt><trkpt lat="42.522293320856825" lon="14.151951210865992"><ele>2.0</ele><time>2026-05-01T18:36:10.057Z</time></trkpt><trkpt lat="42.52229695859599" lon="14.152092070639036"><ele>2.0</ele><time>2026-05-01T18:36:51.093Z</time></trkpt><trkpt lat="42.5223898940062" lon="14.152337665361301"><ele>2.0</ele><time>2026-05-01T18:37:03.427Z</time></trkpt><trkpt lat="42.522485504382985" lon="14.152420410545863"><ele>2.0</ele><time>2026-05-01T18:40:40.035Z</time></trkpt><trkpt lat="42.52239296659345" lon="14.15234796037472"><ele>2.0</ele><time>2026-05-01T18:50:01.001Z</time></trkpt><trkpt lat="42.522671701320775" lon="14.152602841354945"><ele>2.0</ele><time>2026-05-01T18:50:07.837Z</time></trkpt><trkpt lat="42.52247777812777" lon="14.152451079836197"><ele>2.0</ele><time>2026-05-01T18:50:49.469Z</time></trkpt><trkpt lat="42.52249349185545" lon="14.1526263665877"><ele>2.0</ele><time>2026-05-01T18:52:11.423Z</time></trkpt><trkpt lat="42.52247314503834" lon="14.152287419207228"><ele>2.0</ele><time>2026-05-01T19:10:17.637Z</time></trkpt><trkpt lat="42.52252093614209" lon="14.15286112056594"><ele>2.0</ele><time>2026-05-01T19:14:00.547Z</time></trkpt><trkpt lat="42.52234634768629" lon="14.152249536251706"><ele>2.0</ele><time>2026-05-01T19:14:02.988Z</time></trkpt><trkpt lat="42.52247743538251" lon="14.152150764814378"><ele>2.0</ele><time>2026-05-01T19:14:08.997Z</time></trkpt><trkpt lat="42.52239438240544" lon="14.152463707536754"><ele>2.0</ele><time>2026-05-01T19:14:49.218Z</time></trkpt><trkpt lat="42.52245128401363" lon="14.15262470674396"><ele>2.0</ele><time>2026-05-01T19:14:55.804Z</time></trkpt><trkpt lat="42.52279223657998" lon="14.152503544802892"><ele>2.0</ele><time>2026-05-01T19:15:04.122Z</time></trkpt><trkpt lat="42.52243048412113" lon="14.152101675135135"><ele>2.0</ele><time>2026-05-01T19:15:05.751Z</time></trkpt><trkpt lat="42.52230375642526" lon="14.152210744485725"><ele>2.0</ele><time>2026-05-01T19:15:21.81Z</time></trkpt><trkpt lat="42.52246942757463" lon="14.152668988838817"><ele>2.0</ele><time>2026-05-01T19:15:28.219Z</time></trkpt><trkpt lat="42.52288453885314" lon="14.152812520595504"><ele>2.0</ele><time>2026-05-01T19:15:36.549Z</time></trkpt><trkpt lat="42.52272362693306" lon="14.152655579473567"><ele>2.0</ele><time>2026-05-01T19:15:45.803Z</time></trkpt><trkpt lat="42.52252996590726" lon="14.15218574829698"><ele>2.0</ele><time>2026-05-01T19:15:48.243Z</time></trkpt><trkpt lat="42.52255157425227" lon="14.15206180891345"><ele>2.0</ele><time>2026-05-01T19:15:54.462Z</time></trkpt><trkpt lat="42.52247021297834" lon="14.152665846947027"><ele>2.0</ele><time>2026-05-01T19:16:01.273Z</time></trkpt><trkpt lat="42.52230045435604" lon="14.152127636784643"><ele>2.0</ele><time>2026-05-01T19:16:38.715Z</time></trkpt><trkpt lat="42.52247053040257" lon="14.152668045557435"><ele>2.0</ele><time>2026-05-01T19:17:11.274Z</time></trkpt><trkpt lat="42.52252403182815" lon="14.15260921943592"><ele>2.0</ele><time>2026-05-01T19:17:19.859Z</time></trkpt><trkpt lat="42.52234997695712" lon="14.151993392412589"><ele>2.0</ele><time>2026-05-01T19:17:22.312Z</time></trkpt><trkpt lat="42.522715985062796" lon="14.152652955007834"><ele>2.0</ele><time>2026-05-01T19:17:38.538Z</time></trkpt><trkpt lat="42.52245843464153" lon="14.152200736633066"><ele>2.0</ele><time>2026-05-01T19:17:40.983Z</time></trkpt><trkpt lat="42.522553334562" lon="14.153004352456897"><ele>2.0</ele><time>2026-05-01T19:18:08.747Z</time></trkpt><trkpt lat="42.52243936400561" lon="14.152539414082122"><ele>2.0</ele><time>2026-05-01T19:18:17.076Z</time></trkpt><trkpt lat="42.52231826991134" lon="14.152103780124458"><ele>2.0</ele><time>2026-05-01T19:18:19.518Z</time></trkpt><trkpt lat="42.52237700063818" lon="14.1521818663345"><ele>2.0</ele><time>2026-05-01T19:18:28.779Z</time></trkpt><trkpt lat="42.52247122135084" lon="14.152671336832485"><ele>2.0</ele><time>2026-05-01T19:18:35.367Z</time></trkpt><trkpt lat="42.52234964804498" lon="14.152086593961055"><ele>2.0</ele><time>2026-05-01T19:18:45.11Z</time></trkpt><trkpt lat="42.52253162531929" lon="14.152148774782532"><ele>2.0</ele><time>2026-05-01T19:20:00.378Z</time></trkpt><trkpt lat="42.52251500574676" lon="14.152299520233388"><ele>2.0</ele><time>2026-05-01T19:20:12.588Z</time></trkpt><trkpt lat="42.52256091185322" lon="14.152492833481913"><ele>2.0</ele><time>2026-05-01T19:21:24.414Z</time></trkpt><trkpt lat="42.52268426000128" lon="14.15258515785116"><ele>2.0</ele><time>2026-05-01T19:24:59.128Z</time></trkpt><trkpt lat="42.52248898185259" lon="14.15233167423731"><ele>2.0</ele><time>2026-05-01T19:25:25.572Z</time></trkpt><trkpt lat="42.52248094623464" lon="14.152481994272401"><ele>2.0</ele><time>2026-05-01T19:26:55.564Z</time></trkpt><trkpt lat="42.522407077306376" lon="14.152178061021047"><ele>2.0</ele><time>2026-05-01T19:28:17.226Z</time></trkpt><trkpt lat="42.52259901937165" lon="14.15235630112645"><ele>2.0</ele><time>2026-05-01T19:28:34.398Z</time></trkpt><trkpt lat="42.522603333768984" lon="14.152575298851973"><ele>2.0</ele><time>2026-05-01T19:30:52.165Z</time></trkpt><trkpt lat="42.5224251255614" lon="14.152432594312302"><ele>2.0</ele><time>2026-05-01T19:31:22.987Z</time></trkpt><trkpt lat="42.52253537849456" lon="14.152543487158097"><ele>2.0</ele><time>2026-05-01T19:32:43.412Z</time></trkpt><trkpt lat="42.52265837483158" lon="14.152561807982316"><ele>2.0</ele><time>2026-05-01T19:34:09.503Z</time></trkpt><trkpt lat="42.522606092602366" lon="14.15236041339501"><ele>2.0</ele><time>2026-05-01T19:45:26.964Z</time></trkpt><trkpt lat="42.52260291679971" lon="14.152492493542605"><ele>2.0</ele><time>2026-05-01T19:45:38.326Z</time></trkpt><trkpt lat="42.52239390749353" lon="14.152363012419817"><ele>2.0</ele><time>2026-05-01T19:45:58.579Z</time></trkpt><trkpt lat="42.52255946473382" lon="14.15238983573801"><ele>2.0</ele><time>2026-05-01T19:46:20.141Z</time></trkpt><trkpt lat="42.522554183757435" lon="14.152563754548364"><ele>2.0</ele><time>2026-05-01T19:46:23.808Z</time></trkpt><trkpt lat="42.522512822129165" lon="14.152422562230013"><ele>2.0</ele><time>2026-05-01T19:46:40.821Z</time></trkpt><trkpt lat="42.522470681127224" lon="14.152333840940132"><ele>2.0</ele><time>2026-05-01T19:46:45.685Z</time></trkpt><trkpt lat="42.5222712341018" lon="14.152046233116268"><ele>2.0</ele><time>2026-05-01T19:47:10.957Z</time></trkpt><trkpt lat="42.522433524630365" lon="14.152345932870846"><ele>2.0</ele><time>2026-05-01T19:47:19.486Z</time></trkpt><trkpt lat="42.522401843804595" lon="14.152267290335523"><ele>2.0</ele><time>2026-05-01T19:49:22.683Z</time></trkpt><trkpt lat="42.52240086230281" lon="14.152123425653432"><ele>2.0</ele><time>2026-05-01T19:50:12.565Z</time></trkpt><trkpt lat="42.52241715929249" lon="14.152299454395864"><ele>2.0</ele><time>2026-05-01T19:50:44.929Z</time></trkpt><trkpt lat="42.52239121887911" lon="14.152169778315066"><ele>2.0</ele><time>2026-05-01T19:50:58.616Z</time></trkpt><trkpt lat="42.522411467821" lon="14.152252019829229"><ele>2.0</ele><time>2026-05-01T19:52:54.594Z</time></trkpt><trkpt lat="42.5224804092149" lon="14.152436370315156"><ele>2.0</ele><time>2026-05-01T19:53:35.438Z</time></trkpt><trkpt lat="42.5224399519657" lon="14.152342013289493"><ele>2.0</ele><time>2026-05-01T19:54:03.836Z</time></trkpt><trkpt lat="42.52243684962638" lon="14.15243857741669"><ele>2.0</ele><time>2026-05-01T19:54:53.463Z</time></trkpt><trkpt lat="42.522560630319205" lon="14.152464809970652"><ele>2.0</ele><time>2026-05-01T19:55:57.416Z</time></trkpt><trkpt lat="42.522593098398126" lon="14.152383456027312"><ele>2.0</ele><time>2026-05-01T19:58:56.504Z</time></trkpt><trkpt lat="42.52247023942083" lon="14.152252296632161"><ele>2.0</ele><time>2026-05-01T20:00:23.006Z</time></trkpt><trkpt lat="42.522401932231794" lon="14.152262718132484"><ele>2.0</ele><time>2026-05-01T20:00:29.56Z</time></trkpt><trkpt lat="42.52259147523952" lon="14.152297104631211"><ele>2.0</ele><time>2026-05-01T20:00:31.65Z</time></trkpt><trkpt lat="42.52267319993697" lon="14.15234751583482"><ele>2.0</ele><time>2026-05-01T20:00:43.4Z</time></trkpt><trkpt lat="42.522594332929714" lon="14.152425244497184"><ele>2.0</ele><time>2026-05-01T20:02:17.153Z</time></trkpt><trkpt lat="42.52247163074767" lon="14.152394189007003"><ele>2.0</ele><time>2026-05-01T20:03:51.775Z</time></trkpt><trkpt lat="42.52242267582484" lon="14.152250305800859"><ele>2.0</ele><time>2026-05-01T20:05:26.769Z</time></trkpt><trkpt lat="42.52279126843932" lon="14.152501995227494"><ele>2.0</ele><time>2026-05-01T20:07:36.375Z</time></trkpt><trkpt lat="42.52255232889928" lon="14.152055700914115"><ele>2.0</ele><time>2026-05-01T20:07:54.08Z</time></trkpt><trkpt lat="42.52256926467426" lon="14.15237064987689"><ele>2.0</ele><time>2026-05-01T20:08:19.384Z</time></trkpt><trkpt lat="42.522543795256176" lon="14.15245056318992"><ele>2.0</ele><time>2026-05-01T20:08:31.56Z</time></trkpt><trkpt lat="42.522843850735775" lon="14.152556079788276"><ele>2.0</ele><time>2026-05-01T20:12:25.658Z</time></trkpt><trkpt lat="42.52260275096562" lon="14.152333441536062"><ele>2.0</ele><time>2026-05-01T20:12:35.04Z</time></trkpt><trkpt lat="42.52228559537416" lon="14.151926515186338"><ele>2.0</ele><time>2026-05-01T20:12:42.848Z</time></trkpt><trkpt lat="42.5225429319669" lon="14.152953806857797"><ele>2.0</ele><time>2026-05-01T20:13:03.692Z</time></trkpt><trkpt lat="42.52241475531063" lon="14.152353061736305"><ele>2.0</ele><time>2026-05-01T20:13:06.139Z</time></trkpt><trkpt lat="42.5223808642008" lon="14.152178003985302"><ele>2.0</ele><time>2026-05-01T20:13:12.505Z</time></trkpt><trkpt lat="42.52252763598812" lon="14.152253683825002"><ele>2.0</ele><time>2026-05-01T20:13:14.332Z</time></trkpt><trkpt lat="42.522600868337946" lon="14.152367336460081"><ele>2.0</ele><time>2026-05-01T20:13:26.549Z</time></trkpt><trkpt lat="42.522590163733334" lon="14.152543729845442"><ele>2.0</ele><time>2026-05-01T20:14:44.391Z</time></trkpt><trkpt lat="42.52238919792974" lon="14.152206825623454"><ele>2.0</ele><time>2026-05-01T20:18:14.528Z</time></trkpt><trkpt lat="42.52249178505506" lon="14.152027436479909"><ele>2.0</ele><time>2026-05-01T20:18:16.191Z</time></trkpt><trkpt lat="42.52244121433632" lon="14.152156056878704"><ele>2.0</ele><time>2026-05-01T20:18:30.498Z</time></trkpt><trkpt lat="42.52275264836877" lon="14.152624468931718"><ele>2.0</ele><time>2026-05-01T20:18:37.68Z</time></trkpt><trkpt lat="42.522628300852034" lon="14.152408348884823"><ele>2.0</ele><time>2026-05-01T20:18:39.43Z</time></trkpt><trkpt lat="42.522365791564184" lon="14.152162039546843"><ele>2.0</ele><time>2026-05-01T20:18:45.441Z</time></trkpt><trkpt lat="42.522426063086556" lon="14.152452129348385"><ele>2.0</ele><time>2026-05-01T20:19:49.644Z</time></trkpt><trkpt lat="42.52264859775494" lon="14.152509551557971"><ele>2.0</ele><time>2026-05-01T20:20:42.573Z</time></trkpt><trkpt lat="42.522786995631606" lon="14.152546010741007"><ele>2.0</ele><time>2026-05-01T20:21:57.595Z</time></trkpt><trkpt lat="42.522693657988654" lon="14.15239047359239"><ele>2.0</ele><time>2026-05-01T20:23:07.807Z</time></trkpt><trkpt lat="42.522593392290425" lon="14.152185664806712"><ele>2.0</ele><time>2026-05-01T20:23:22.812Z</time></trkpt><trkpt lat="42.5223947155317" lon="14.151763985057451"><ele>2.0</ele><time>2026-05-01T20:23:37.817Z</time></trkpt><trkpt lat="42.52245941578391" lon="14.151920846368776"><ele>2.0</ele><time>2026-05-01T20:30:05.604Z</time></trkpt><trkpt lat="42.52261913450104" lon="14.152389775444044"><ele>2.0</ele><time>2026-05-01T20:30:16.709Z</time></trkpt><trkpt lat="42.52274856833904" lon="14.152714109237508"><ele>2.0</ele><time>2026-05-01T20:30:30.547Z</time></trkpt><trkpt lat="42.52249674328411" lon="14.152356901801728"><ele>2.0</ele><time>2026-05-01T20:32:02.185Z</time></trkpt><trkpt lat="42.52245856091068" lon="14.152243503137717"><ele>2.0</ele><time>2026-05-01T20:32:03.496Z</time></trkpt><trkpt lat="42.522530247760685" lon="14.152301228430296"><ele>2.0</ele><time>2026-05-01T20:32:10.307Z</time></trkpt><trkpt lat="42.52250565340084" lon="14.152507156308124"><ele>2.0</ele><time>2026-05-01T20:32:19.019Z</time></trkpt><trkpt lat="42.522883283411645" lon="14.152808286713348"><ele>2.0</ele><time>2026-05-01T20:32:35.636Z</time></trkpt><trkpt lat="42.52242357269139" lon="14.15207078565947"><ele>2.0</ele><time>2026-05-01T20:32:43.359Z</time></trkpt><trkpt lat="42.522320977942854" lon="14.15170297453854"><ele>2.0</ele><time>2026-05-01T20:33:20.719Z</time></trkpt><trkpt lat="42.52235046823988" lon="14.151847059290253"><ele>2.0</ele><time>2026-05-01T20:33:23.596Z</time></trkpt><trkpt lat="42.52261001138705" lon="14.152348927821265"><ele>2.0</ele><time>2026-05-01T20:33:29.901Z</time></trkpt></trkseg></trk></gpx>